<?xml version="1.0" encoding="UTF-8" standalone="no" ?>
<gpx xmlns="http://www.topografix.com/GPX/1/1" xmlns:xsi="http://www.w3.org/2001/XMLSchema-instance" xsi:schemaLocation="http://www.topografix.com/GPX/1/1 http://www.topografix.com/GPX/1/1/gpx.xsd" version="1.1" creator="VisuGPX - https://www.visugpx.com">
  <metadata>
    <name>2016-11-19 Bike ride-Amberieux en Dombes O via Monthieux</name>
    <desc><![CDATA[2016-11-19 Bike ride-Amberieux en Dombes O via Monthieux]]></desc>
  </metadata>
  <wpt lat="45.92477" lon="4.73712">
    <ele>174</ele>
    <name><![CDATA[2016-11-19 09:57 (Start)]]></name>
  </wpt>
  <wpt lat="45.9246" lon="4.73706">
    <ele>174</ele>
    <name><![CDATA[2016-11-19 09:57 (End)]]></name>
    <desc><![CDATA[Created by Google My Tracks on Android  Name: 2016-11-19 09:57 Activity type: biking Description: - Total distance: 46.02 km (28.6 mi) Total time: 2:13:08 Moving time: 2:12:02 Average speed: 20.74 km/h (12.9 mi/h) Average moving speed: 20.91 km/h (13.0 mi/h) Max speed: 40.27 km/h (25.0 mi/h) Average pace: 2:54 min/km (4:39 min/mi) Average moving pace: 2:52 min/km (4:37 min/mi) Fastest pace: 1:29 min/km (2:24 min/mi) Max elevation: 325 m (1065 ft) Min elevation: 146 m (477 ft) Elevation gain: 683 m (2240 ft) Max grade: 21 % Min grade: -118 % Recorded: 19/11/2016 09:57]]></desc>
  </wpt>
  <trk>
    <name><![CDATA[2016-11-19 09:57]]></name>
    <trkseg>
      <trkpt lat="45.92477" lon="4.73712">
        <ele>174</ele>
        <time>2016-11-19T08:57:18.734Z</time>
      </trkpt>
      <trkpt lat="45.92471" lon="4.73716">
        <ele>174</ele>
        <time>2016-11-19T08:58:24Z</time>
      </trkpt>
      <trkpt lat="45.92466" lon="4.73716">
        <ele>174</ele>
        <time>2016-11-19T08:58:25Z</time>
      </trkpt>
      <trkpt lat="45.92454" lon="4.73703">
        <ele>174</ele>
        <time>2016-11-19T08:58:26Z</time>
      </trkpt>
      <trkpt lat="45.92462" lon="4.73705">
        <ele>174</ele>
        <time>2016-11-19T09:00:04Z</time>
      </trkpt>
      <trkpt lat="45.92463" lon="4.73705">
        <ele>174</ele>
        <time>2016-11-19T09:00:05Z</time>
      </trkpt>
      <trkpt lat="45.92466" lon="4.73694">
        <ele>174</ele>
        <time>2016-11-19T09:00:11Z</time>
      </trkpt>
      <trkpt lat="45.92467" lon="4.73692">
        <ele>174</ele>
        <time>2016-11-19T09:00:12Z</time>
      </trkpt>
      <trkpt lat="45.92468" lon="4.73681">
        <ele>174</ele>
        <time>2016-11-19T09:00:15Z</time>
      </trkpt>
      <trkpt lat="45.92469" lon="4.73676">
        <ele>174</ele>
        <time>2016-11-19T09:00:16Z</time>
      </trkpt>
      <trkpt lat="45.9247" lon="4.73665">
        <ele>174</ele>
        <time>2016-11-19T09:00:18Z</time>
      </trkpt>
      <trkpt lat="45.9247" lon="4.73659">
        <ele>174</ele>
        <time>2016-11-19T09:00:19Z</time>
      </trkpt>
      <trkpt lat="45.92472" lon="4.73649">
        <ele>174</ele>
        <time>2016-11-19T09:00:21Z</time>
      </trkpt>
      <trkpt lat="45.92473" lon="4.73645">
        <ele>174</ele>
        <time>2016-11-19T09:00:22Z</time>
      </trkpt>
      <trkpt lat="45.9248" lon="4.73638">
        <ele>174</ele>
        <time>2016-11-19T09:00:24Z</time>
      </trkpt>
      <trkpt lat="45.92484" lon="4.73638">
        <ele>174</ele>
        <time>2016-11-19T09:00:25Z</time>
      </trkpt>
      <trkpt lat="45.92493" lon="4.73639">
        <ele>174</ele>
        <time>2016-11-19T09:00:27Z</time>
      </trkpt>
      <trkpt lat="45.92498" lon="4.7364">
        <ele>174</ele>
        <time>2016-11-19T09:00:28Z</time>
      </trkpt>
      <trkpt lat="45.92503" lon="4.73639">
        <ele>174</ele>
        <time>2016-11-19T09:00:29Z</time>
      </trkpt>
      <trkpt lat="45.92508" lon="4.73639">
        <ele>174</ele>
        <time>2016-11-19T09:00:30Z</time>
      </trkpt>
      <trkpt lat="45.92513" lon="4.73639">
        <ele>174</ele>
        <time>2016-11-19T09:00:31Z</time>
      </trkpt>
      <trkpt lat="45.92516" lon="4.73634">
        <ele>173</ele>
        <time>2016-11-19T09:00:32Z</time>
      </trkpt>
      <trkpt lat="45.92521" lon="4.73634">
        <ele>173</ele>
        <time>2016-11-19T09:00:33Z</time>
      </trkpt>
      <trkpt lat="45.92527" lon="4.73634">
        <ele>173</ele>
        <time>2016-11-19T09:00:34Z</time>
      </trkpt>
      <trkpt lat="45.92533" lon="4.73634">
        <ele>173</ele>
        <time>2016-11-19T09:00:35Z</time>
      </trkpt>
      <trkpt lat="45.92538" lon="4.73634">
        <ele>173</ele>
        <time>2016-11-19T09:00:36Z</time>
      </trkpt>
      <trkpt lat="45.92544" lon="4.73633">
        <ele>173</ele>
        <time>2016-11-19T09:00:37Z</time>
      </trkpt>
      <trkpt lat="45.92549" lon="4.73632">
        <ele>173</ele>
        <time>2016-11-19T09:00:38Z</time>
      </trkpt>
      <trkpt lat="45.92553" lon="4.7363">
        <ele>173</ele>
        <time>2016-11-19T09:00:39Z</time>
      </trkpt>
      <trkpt lat="45.92558" lon="4.73629">
        <ele>173</ele>
        <time>2016-11-19T09:00:40Z</time>
      </trkpt>
      <trkpt lat="45.92563" lon="4.73628">
        <ele>173</ele>
        <time>2016-11-19T09:00:41Z</time>
      </trkpt>
      <trkpt lat="45.92569" lon="4.73627">
        <ele>173</ele>
        <time>2016-11-19T09:00:42Z</time>
      </trkpt>
      <trkpt lat="45.92574" lon="4.73627">
        <ele>173</ele>
        <time>2016-11-19T09:00:43Z</time>
      </trkpt>
      <trkpt lat="45.92579" lon="4.73626">
        <ele>173</ele>
        <time>2016-11-19T09:00:44Z</time>
      </trkpt>
      <trkpt lat="45.92585" lon="4.73626">
        <ele>172</ele>
        <time>2016-11-19T09:00:45Z</time>
      </trkpt>
      <trkpt lat="45.9259" lon="4.73625">
        <ele>172</ele>
        <time>2016-11-19T09:00:46Z</time>
      </trkpt>
      <trkpt lat="45.92596" lon="4.73626">
        <ele>173</ele>
        <time>2016-11-19T09:00:48Z</time>
      </trkpt>
      <trkpt lat="45.92602" lon="4.73629">
        <ele>173</ele>
        <time>2016-11-19T09:00:49Z</time>
      </trkpt>
      <trkpt lat="45.92609" lon="4.73633">
        <ele>173</ele>
        <time>2016-11-19T09:00:51Z</time>
      </trkpt>
      <trkpt lat="45.92614" lon="4.7364">
        <ele>173</ele>
        <time>2016-11-19T09:00:52Z</time>
      </trkpt>
      <trkpt lat="45.92616" lon="4.73646">
        <ele>173</ele>
        <time>2016-11-19T09:00:53Z</time>
      </trkpt>
      <trkpt lat="45.92621" lon="4.7365">
        <ele>173</ele>
        <time>2016-11-19T09:00:54Z</time>
      </trkpt>
      <trkpt lat="45.92626" lon="4.73656">
        <ele>173</ele>
        <time>2016-11-19T09:00:55Z</time>
      </trkpt>
      <trkpt lat="45.9263" lon="4.73663">
        <ele>173</ele>
        <time>2016-11-19T09:00:56Z</time>
      </trkpt>
      <trkpt lat="45.92634" lon="4.7367">
        <ele>173</ele>
        <time>2016-11-19T09:00:57Z</time>
      </trkpt>
      <trkpt lat="45.92637" lon="4.73677">
        <ele>173</ele>
        <time>2016-11-19T09:00:58Z</time>
      </trkpt>
      <trkpt lat="45.92641" lon="4.73683">
        <ele>173</ele>
        <time>2016-11-19T09:00:59Z</time>
      </trkpt>
      <trkpt lat="45.92645" lon="4.73688">
        <ele>173</ele>
        <time>2016-11-19T09:01:00Z</time>
      </trkpt>
      <trkpt lat="45.92649" lon="4.73695">
        <ele>173</ele>
        <time>2016-11-19T09:01:01Z</time>
      </trkpt>
      <trkpt lat="45.92655" lon="4.73698">
        <ele>173</ele>
        <time>2016-11-19T09:01:02Z</time>
      </trkpt>
      <trkpt lat="45.9266" lon="4.73701">
        <ele>173</ele>
        <time>2016-11-19T09:01:03Z</time>
      </trkpt>
      <trkpt lat="45.92665" lon="4.73703">
        <ele>173</ele>
        <time>2016-11-19T09:01:04Z</time>
      </trkpt>
      <trkpt lat="45.92671" lon="4.73705">
        <ele>174</ele>
        <time>2016-11-19T09:01:05Z</time>
      </trkpt>
      <trkpt lat="45.92675" lon="4.73707">
        <ele>174</ele>
        <time>2016-11-19T09:01:06Z</time>
      </trkpt>
      <trkpt lat="45.9268" lon="4.73708">
        <ele>173</ele>
        <time>2016-11-19T09:01:07Z</time>
      </trkpt>
      <trkpt lat="45.92685" lon="4.7371">
        <ele>173</ele>
        <time>2016-11-19T09:01:08Z</time>
      </trkpt>
      <trkpt lat="45.92691" lon="4.73711">
        <ele>173</ele>
        <time>2016-11-19T09:01:09Z</time>
      </trkpt>
      <trkpt lat="45.92696" lon="4.73713">
        <ele>173</ele>
        <time>2016-11-19T09:01:10Z</time>
      </trkpt>
      <trkpt lat="45.92702" lon="4.73714">
        <ele>173</ele>
        <time>2016-11-19T09:01:11Z</time>
      </trkpt>
      <trkpt lat="45.92707" lon="4.73715">
        <ele>173</ele>
        <time>2016-11-19T09:01:12Z</time>
      </trkpt>
      <trkpt lat="45.92713" lon="4.73717">
        <ele>173</ele>
        <time>2016-11-19T09:01:13Z</time>
      </trkpt>
      <trkpt lat="45.92719" lon="4.73718">
        <ele>173</ele>
        <time>2016-11-19T09:01:14Z</time>
      </trkpt>
      <trkpt lat="45.92725" lon="4.73721">
        <ele>173</ele>
        <time>2016-11-19T09:01:15Z</time>
      </trkpt>
      <trkpt lat="45.92731" lon="4.73722">
        <ele>173</ele>
        <time>2016-11-19T09:01:16Z</time>
      </trkpt>
      <trkpt lat="45.92737" lon="4.73724">
        <ele>173</ele>
        <time>2016-11-19T09:01:17Z</time>
      </trkpt>
      <trkpt lat="45.92742" lon="4.73725">
        <ele>173</ele>
        <time>2016-11-19T09:01:18Z</time>
      </trkpt>
      <trkpt lat="45.9275" lon="4.73728">
        <ele>173</ele>
        <time>2016-11-19T09:01:20Z</time>
      </trkpt>
      <trkpt lat="45.92752" lon="4.73727">
        <ele>172</ele>
        <time>2016-11-19T09:01:21Z</time>
      </trkpt>
      <trkpt lat="45.92759" lon="4.73728">
        <ele>172</ele>
        <time>2016-11-19T09:01:22Z</time>
      </trkpt>
      <trkpt lat="45.92766" lon="4.73733">
        <ele>172</ele>
        <time>2016-11-19T09:01:23Z</time>
      </trkpt>
      <trkpt lat="45.92773" lon="4.73736">
        <ele>172</ele>
        <time>2016-11-19T09:01:24Z</time>
      </trkpt>
      <trkpt lat="45.92778" lon="4.73737">
        <ele>172</ele>
        <time>2016-11-19T09:01:25Z</time>
      </trkpt>
      <trkpt lat="45.92782" lon="4.73733">
        <ele>172</ele>
        <time>2016-11-19T09:01:26Z</time>
      </trkpt>
      <trkpt lat="45.92785" lon="4.73729">
        <ele>172</ele>
        <time>2016-11-19T09:01:27Z</time>
      </trkpt>
      <trkpt lat="45.92789" lon="4.73719">
        <ele>172</ele>
        <time>2016-11-19T09:01:29Z</time>
      </trkpt>
      <trkpt lat="45.9279" lon="4.73713">
        <ele>172</ele>
        <time>2016-11-19T09:01:30Z</time>
      </trkpt>
      <trkpt lat="45.92791" lon="4.73706">
        <ele>172</ele>
        <time>2016-11-19T09:01:31Z</time>
      </trkpt>
      <trkpt lat="45.92792" lon="4.737">
        <ele>172</ele>
        <time>2016-11-19T09:01:32Z</time>
      </trkpt>
      <trkpt lat="45.92793" lon="4.73692">
        <ele>172</ele>
        <time>2016-11-19T09:01:33Z</time>
      </trkpt>
      <trkpt lat="45.92794" lon="4.73686">
        <ele>172</ele>
        <time>2016-11-19T09:01:34Z</time>
      </trkpt>
      <trkpt lat="45.92796" lon="4.73673">
        <ele>172</ele>
        <time>2016-11-19T09:01:36Z</time>
      </trkpt>
      <trkpt lat="45.92798" lon="4.73667">
        <ele>172</ele>
        <time>2016-11-19T09:01:37Z</time>
      </trkpt>
      <trkpt lat="45.928" lon="4.73656">
        <ele>172</ele>
        <time>2016-11-19T09:01:39Z</time>
      </trkpt>
      <trkpt lat="45.92802" lon="4.7365">
        <ele>172</ele>
        <time>2016-11-19T09:01:40Z</time>
      </trkpt>
      <trkpt lat="45.92804" lon="4.73644">
        <ele>172</ele>
        <time>2016-11-19T09:01:41Z</time>
      </trkpt>
      <trkpt lat="45.92807" lon="4.73638">
        <ele>172</ele>
        <time>2016-11-19T09:01:42Z</time>
      </trkpt>
      <trkpt lat="45.92812" lon="4.7363">
        <ele>172</ele>
        <time>2016-11-19T09:01:44Z</time>
      </trkpt>
      <trkpt lat="45.92815" lon="4.73625">
        <ele>172</ele>
        <time>2016-11-19T09:01:45Z</time>
      </trkpt>
      <trkpt lat="45.92817" lon="4.73618">
        <ele>172</ele>
        <time>2016-11-19T09:01:46Z</time>
      </trkpt>
      <trkpt lat="45.92818" lon="4.7361">
        <ele>172</ele>
        <time>2016-11-19T09:01:47Z</time>
      </trkpt>
      <trkpt lat="45.92819" lon="4.73602">
        <ele>171</ele>
        <time>2016-11-19T09:01:48Z</time>
      </trkpt>
      <trkpt lat="45.92819" lon="4.73594">
        <ele>171</ele>
        <time>2016-11-19T09:01:49Z</time>
      </trkpt>
      <trkpt lat="45.92819" lon="4.73586">
        <ele>171</ele>
        <time>2016-11-19T09:01:50Z</time>
      </trkpt>
      <trkpt lat="45.92819" lon="4.73578">
        <ele>171</ele>
        <time>2016-11-19T09:01:51Z</time>
      </trkpt>
      <trkpt lat="45.92819" lon="4.73571">
        <ele>171</ele>
        <time>2016-11-19T09:01:52Z</time>
      </trkpt>
      <trkpt lat="45.92819" lon="4.73563">
        <ele>171</ele>
        <time>2016-11-19T09:01:53Z</time>
      </trkpt>
      <trkpt lat="45.9282" lon="4.73555">
        <ele>171</ele>
        <time>2016-11-19T09:01:54Z</time>
      </trkpt>
      <trkpt lat="45.9282" lon="4.73548">
        <ele>171</ele>
        <time>2016-11-19T09:01:55Z</time>
      </trkpt>
      <trkpt lat="45.92821" lon="4.7354">
        <ele>172</ele>
        <time>2016-11-19T09:01:56Z</time>
      </trkpt>
      <trkpt lat="45.92823" lon="4.73533">
        <ele>172</ele>
        <time>2016-11-19T09:01:57Z</time>
      </trkpt>
      <trkpt lat="45.92823" lon="4.73525">
        <ele>172</ele>
        <time>2016-11-19T09:01:58Z</time>
      </trkpt>
      <trkpt lat="45.92824" lon="4.73517">
        <ele>172</ele>
        <time>2016-11-19T09:01:59Z</time>
      </trkpt>
      <trkpt lat="45.92826" lon="4.73509">
        <ele>172</ele>
        <time>2016-11-19T09:02:00Z</time>
      </trkpt>
      <trkpt lat="45.92826" lon="4.73501">
        <ele>172</ele>
        <time>2016-11-19T09:02:01Z</time>
      </trkpt>
      <trkpt lat="45.92827" lon="4.73493">
        <ele>172</ele>
        <time>2016-11-19T09:02:02Z</time>
      </trkpt>
      <trkpt lat="45.92828" lon="4.73485">
        <ele>172</ele>
        <time>2016-11-19T09:02:03Z</time>
      </trkpt>
      <trkpt lat="45.92829" lon="4.73477">
        <ele>172</ele>
        <time>2016-11-19T09:02:04Z</time>
      </trkpt>
      <trkpt lat="45.9283" lon="4.73468">
        <ele>172</ele>
        <time>2016-11-19T09:02:05Z</time>
      </trkpt>
      <trkpt lat="45.92831" lon="4.7346">
        <ele>172</ele>
        <time>2016-11-19T09:02:06Z</time>
      </trkpt>
      <trkpt lat="45.92832" lon="4.73452">
        <ele>172</ele>
        <time>2016-11-19T09:02:07Z</time>
      </trkpt>
      <trkpt lat="45.92833" lon="4.73444">
        <ele>172</ele>
        <time>2016-11-19T09:02:08Z</time>
      </trkpt>
      <trkpt lat="45.92834" lon="4.73435">
        <ele>172</ele>
        <time>2016-11-19T09:02:09Z</time>
      </trkpt>
      <trkpt lat="45.92835" lon="4.73427">
        <ele>172</ele>
        <time>2016-11-19T09:02:10Z</time>
      </trkpt>
      <trkpt lat="45.92836" lon="4.73419">
        <ele>172</ele>
        <time>2016-11-19T09:02:11Z</time>
      </trkpt>
      <trkpt lat="45.92837" lon="4.73411">
        <ele>172</ele>
        <time>2016-11-19T09:02:12Z</time>
      </trkpt>
      <trkpt lat="45.92838" lon="4.73403">
        <ele>172</ele>
        <time>2016-11-19T09:02:13Z</time>
      </trkpt>
      <trkpt lat="45.92839" lon="4.73395">
        <ele>172</ele>
        <time>2016-11-19T09:02:14Z</time>
      </trkpt>
      <trkpt lat="45.9284" lon="4.73386">
        <ele>172</ele>
        <time>2016-11-19T09:02:15Z</time>
      </trkpt>
      <trkpt lat="45.92841" lon="4.73378">
        <ele>172</ele>
        <time>2016-11-19T09:02:16Z</time>
      </trkpt>
      <trkpt lat="45.92842" lon="4.73369">
        <ele>171</ele>
        <time>2016-11-19T09:02:17Z</time>
      </trkpt>
      <trkpt lat="45.92843" lon="4.73361">
        <ele>171</ele>
        <time>2016-11-19T09:02:18Z</time>
      </trkpt>
      <trkpt lat="45.92844" lon="4.73352">
        <ele>171</ele>
        <time>2016-11-19T09:02:19Z</time>
      </trkpt>
      <trkpt lat="45.92845" lon="4.73345">
        <ele>171</ele>
        <time>2016-11-19T09:02:20Z</time>
      </trkpt>
      <trkpt lat="45.92846" lon="4.73337">
        <ele>171</ele>
        <time>2016-11-19T09:02:21Z</time>
      </trkpt>
      <trkpt lat="45.92847" lon="4.73329">
        <ele>171</ele>
        <time>2016-11-19T09:02:22Z</time>
      </trkpt>
      <trkpt lat="45.92848" lon="4.73321">
        <ele>171</ele>
        <time>2016-11-19T09:02:23Z</time>
      </trkpt>
      <trkpt lat="45.92849" lon="4.73313">
        <ele>171</ele>
        <time>2016-11-19T09:02:24Z</time>
      </trkpt>
      <trkpt lat="45.92849" lon="4.73306">
        <ele>171</ele>
        <time>2016-11-19T09:02:25Z</time>
      </trkpt>
      <trkpt lat="45.9285" lon="4.73298">
        <ele>171</ele>
        <time>2016-11-19T09:02:26Z</time>
      </trkpt>
      <trkpt lat="45.92851" lon="4.7329">
        <ele>171</ele>
        <time>2016-11-19T09:02:27Z</time>
      </trkpt>
      <trkpt lat="45.92852" lon="4.73283">
        <ele>171</ele>
        <time>2016-11-19T09:02:28Z</time>
      </trkpt>
      <trkpt lat="45.92853" lon="4.73275">
        <ele>171</ele>
        <time>2016-11-19T09:02:29Z</time>
      </trkpt>
      <trkpt lat="45.92854" lon="4.73268">
        <ele>171</ele>
        <time>2016-11-19T09:02:30Z</time>
      </trkpt>
      <trkpt lat="45.92855" lon="4.7326">
        <ele>171</ele>
        <time>2016-11-19T09:02:31Z</time>
      </trkpt>
      <trkpt lat="45.92856" lon="4.73252">
        <ele>171</ele>
        <time>2016-11-19T09:02:32Z</time>
      </trkpt>
      <trkpt lat="45.92857" lon="4.73244">
        <ele>171</ele>
        <time>2016-11-19T09:02:33Z</time>
      </trkpt>
      <trkpt lat="45.92858" lon="4.73237">
        <ele>171</ele>
        <time>2016-11-19T09:02:34Z</time>
      </trkpt>
      <trkpt lat="45.92859" lon="4.73229">
        <ele>171</ele>
        <time>2016-11-19T09:02:35Z</time>
      </trkpt>
      <trkpt lat="45.9286" lon="4.73221">
        <ele>171</ele>
        <time>2016-11-19T09:02:36Z</time>
      </trkpt>
      <trkpt lat="45.92861" lon="4.73214">
        <ele>171</ele>
        <time>2016-11-19T09:02:37Z</time>
      </trkpt>
      <trkpt lat="45.92862" lon="4.73206">
        <ele>171</ele>
        <time>2016-11-19T09:02:38Z</time>
      </trkpt>
      <trkpt lat="45.92863" lon="4.73199">
        <ele>171</ele>
        <time>2016-11-19T09:02:39Z</time>
      </trkpt>
      <trkpt lat="45.92864" lon="4.73191">
        <ele>171</ele>
        <time>2016-11-19T09:02:40Z</time>
      </trkpt>
      <trkpt lat="45.92865" lon="4.73183">
        <ele>171</ele>
        <time>2016-11-19T09:02:41Z</time>
      </trkpt>
      <trkpt lat="45.92866" lon="4.73176">
        <ele>171</ele>
        <time>2016-11-19T09:02:42Z</time>
      </trkpt>
      <trkpt lat="45.92867" lon="4.73169">
        <ele>171</ele>
        <time>2016-11-19T09:02:43Z</time>
      </trkpt>
      <trkpt lat="45.92868" lon="4.73162">
        <ele>171</ele>
        <time>2016-11-19T09:02:44Z</time>
      </trkpt>
      <trkpt lat="45.92869" lon="4.73154">
        <ele>171</ele>
        <time>2016-11-19T09:02:45Z</time>
      </trkpt>
      <trkpt lat="45.9287" lon="4.73147">
        <ele>171</ele>
        <time>2016-11-19T09:02:46Z</time>
      </trkpt>
      <trkpt lat="45.92871" lon="4.73139">
        <ele>171</ele>
        <time>2016-11-19T09:02:47Z</time>
      </trkpt>
      <trkpt lat="45.92873" lon="4.73132">
        <ele>171</ele>
        <time>2016-11-19T09:02:48Z</time>
      </trkpt>
      <trkpt lat="45.92874" lon="4.73125">
        <ele>171</ele>
        <time>2016-11-19T09:02:49Z</time>
      </trkpt>
      <trkpt lat="45.92875" lon="4.73117">
        <ele>172</ele>
        <time>2016-11-19T09:02:50Z</time>
      </trkpt>
      <trkpt lat="45.92877" lon="4.7311">
        <ele>172</ele>
        <time>2016-11-19T09:02:51Z</time>
      </trkpt>
      <trkpt lat="45.92879" lon="4.73103">
        <ele>172</ele>
        <time>2016-11-19T09:02:52Z</time>
      </trkpt>
      <trkpt lat="45.92881" lon="4.73096">
        <ele>172</ele>
        <time>2016-11-19T09:02:53Z</time>
      </trkpt>
      <trkpt lat="45.92883" lon="4.73089">
        <ele>172</ele>
        <time>2016-11-19T09:02:54Z</time>
      </trkpt>
      <trkpt lat="45.92885" lon="4.73083">
        <ele>172</ele>
        <time>2016-11-19T09:02:55Z</time>
      </trkpt>
      <trkpt lat="45.92887" lon="4.73077">
        <ele>172</ele>
        <time>2016-11-19T09:02:56Z</time>
      </trkpt>
      <trkpt lat="45.9289" lon="4.73071">
        <ele>172</ele>
        <time>2016-11-19T09:02:57Z</time>
      </trkpt>
      <trkpt lat="45.92893" lon="4.73065">
        <ele>172</ele>
        <time>2016-11-19T09:02:58Z</time>
      </trkpt>
      <trkpt lat="45.92896" lon="4.7306">
        <ele>172</ele>
        <time>2016-11-19T09:02:59Z</time>
      </trkpt>
      <trkpt lat="45.92901" lon="4.7305">
        <ele>172</ele>
        <time>2016-11-19T09:03:01Z</time>
      </trkpt>
      <trkpt lat="45.92904" lon="4.73042">
        <ele>172</ele>
        <time>2016-11-19T09:03:02Z</time>
      </trkpt>
      <trkpt lat="45.92908" lon="4.73036">
        <ele>172</ele>
        <time>2016-11-19T09:03:03Z</time>
      </trkpt>
      <trkpt lat="45.92912" lon="4.73031">
        <ele>172</ele>
        <time>2016-11-19T09:03:04Z</time>
      </trkpt>
      <trkpt lat="45.92916" lon="4.73025">
        <ele>172</ele>
        <time>2016-11-19T09:03:05Z</time>
      </trkpt>
      <trkpt lat="45.92921" lon="4.7302">
        <ele>172</ele>
        <time>2016-11-19T09:03:06Z</time>
      </trkpt>
      <trkpt lat="45.92925" lon="4.73015">
        <ele>172</ele>
        <time>2016-11-19T09:03:07Z</time>
      </trkpt>
      <trkpt lat="45.92929" lon="4.7301">
        <ele>172</ele>
        <time>2016-11-19T09:03:08Z</time>
      </trkpt>
      <trkpt lat="45.92934" lon="4.73005">
        <ele>171</ele>
        <time>2016-11-19T09:03:09Z</time>
      </trkpt>
      <trkpt lat="45.92938" lon="4.73">
        <ele>171</ele>
        <time>2016-11-19T09:03:10Z</time>
      </trkpt>
      <trkpt lat="45.92943" lon="4.72995">
        <ele>171</ele>
        <time>2016-11-19T09:03:11Z</time>
      </trkpt>
      <trkpt lat="45.92947" lon="4.72991">
        <ele>171</ele>
        <time>2016-11-19T09:03:12Z</time>
      </trkpt>
      <trkpt lat="45.92951" lon="4.72987">
        <ele>171</ele>
        <time>2016-11-19T09:03:13Z</time>
      </trkpt>
      <trkpt lat="45.92955" lon="4.72983">
        <ele>171</ele>
        <time>2016-11-19T09:03:14Z</time>
      </trkpt>
      <trkpt lat="45.9296" lon="4.72979">
        <ele>171</ele>
        <time>2016-11-19T09:03:15Z</time>
      </trkpt>
      <trkpt lat="45.92964" lon="4.72974">
        <ele>171</ele>
        <time>2016-11-19T09:03:16Z</time>
      </trkpt>
      <trkpt lat="45.92968" lon="4.7297">
        <ele>171</ele>
        <time>2016-11-19T09:03:17Z</time>
      </trkpt>
      <trkpt lat="45.92971" lon="4.72965">
        <ele>171</ele>
        <time>2016-11-19T09:03:18Z</time>
      </trkpt>
      <trkpt lat="45.92975" lon="4.7296">
        <ele>171</ele>
        <time>2016-11-19T09:03:19Z</time>
      </trkpt>
      <trkpt lat="45.92979" lon="4.72955">
        <ele>171</ele>
        <time>2016-11-19T09:03:20Z</time>
      </trkpt>
      <trkpt lat="45.92983" lon="4.7295">
        <ele>171</ele>
        <time>2016-11-19T09:03:21Z</time>
      </trkpt>
      <trkpt lat="45.92987" lon="4.72946">
        <ele>171</ele>
        <time>2016-11-19T09:03:22Z</time>
      </trkpt>
      <trkpt lat="45.9299" lon="4.72941">
        <ele>171</ele>
        <time>2016-11-19T09:03:23Z</time>
      </trkpt>
      <trkpt lat="45.92994" lon="4.72937">
        <ele>171</ele>
        <time>2016-11-19T09:03:24Z</time>
      </trkpt>
      <trkpt lat="45.92997" lon="4.72933">
        <ele>171</ele>
        <time>2016-11-19T09:03:25Z</time>
      </trkpt>
      <trkpt lat="45.93001" lon="4.72928">
        <ele>170</ele>
        <time>2016-11-19T09:03:26Z</time>
      </trkpt>
      <trkpt lat="45.93004" lon="4.72924">
        <ele>170</ele>
        <time>2016-11-19T09:03:27Z</time>
      </trkpt>
      <trkpt lat="45.93008" lon="4.72919">
        <ele>170</ele>
        <time>2016-11-19T09:03:28Z</time>
      </trkpt>
      <trkpt lat="45.93012" lon="4.72915">
        <ele>171</ele>
        <time>2016-11-19T09:03:29Z</time>
      </trkpt>
      <trkpt lat="45.93016" lon="4.7291">
        <ele>171</ele>
        <time>2016-11-19T09:03:30Z</time>
      </trkpt>
      <trkpt lat="45.9302" lon="4.72905">
        <ele>172</ele>
        <time>2016-11-19T09:03:31Z</time>
      </trkpt>
      <trkpt lat="45.93023" lon="4.72901">
        <ele>172</ele>
        <time>2016-11-19T09:03:32Z</time>
      </trkpt>
      <trkpt lat="45.93027" lon="4.72896">
        <ele>172</ele>
        <time>2016-11-19T09:03:33Z</time>
      </trkpt>
      <trkpt lat="45.93031" lon="4.7289">
        <ele>172</ele>
        <time>2016-11-19T09:03:34Z</time>
      </trkpt>
      <trkpt lat="45.93035" lon="4.72885">
        <ele>172</ele>
        <time>2016-11-19T09:03:35Z</time>
      </trkpt>
      <trkpt lat="45.93039" lon="4.72879">
        <ele>172</ele>
        <time>2016-11-19T09:03:36Z</time>
      </trkpt>
      <trkpt lat="45.93043" lon="4.72874">
        <ele>172</ele>
        <time>2016-11-19T09:03:37Z</time>
      </trkpt>
      <trkpt lat="45.93047" lon="4.72868">
        <ele>172</ele>
        <time>2016-11-19T09:03:38Z</time>
      </trkpt>
      <trkpt lat="45.93052" lon="4.72863">
        <ele>172</ele>
        <time>2016-11-19T09:03:39Z</time>
      </trkpt>
      <trkpt lat="45.93056" lon="4.72858">
        <ele>172</ele>
        <time>2016-11-19T09:03:40Z</time>
      </trkpt>
      <trkpt lat="45.93061" lon="4.72854">
        <ele>172</ele>
        <time>2016-11-19T09:03:41Z</time>
      </trkpt>
      <trkpt lat="45.93065" lon="4.7285">
        <ele>172</ele>
        <time>2016-11-19T09:03:42Z</time>
      </trkpt>
      <trkpt lat="45.93069" lon="4.72846">
        <ele>172</ele>
        <time>2016-11-19T09:03:43Z</time>
      </trkpt>
      <trkpt lat="45.93073" lon="4.72842">
        <ele>173</ele>
        <time>2016-11-19T09:03:44Z</time>
      </trkpt>
      <trkpt lat="45.93081" lon="4.72839">
        <ele>173</ele>
        <time>2016-11-19T09:03:46Z</time>
      </trkpt>
      <trkpt lat="45.93086" lon="4.72835">
        <ele>173</ele>
        <time>2016-11-19T09:03:47Z</time>
      </trkpt>
      <trkpt lat="45.93091" lon="4.72827">
        <ele>172</ele>
        <time>2016-11-19T09:03:48Z</time>
      </trkpt>
      <trkpt lat="45.93095" lon="4.72821">
        <ele>172</ele>
        <time>2016-11-19T09:03:49Z</time>
      </trkpt>
      <trkpt lat="45.93098" lon="4.72812">
        <ele>172</ele>
        <time>2016-11-19T09:03:50Z</time>
      </trkpt>
      <trkpt lat="45.93103" lon="4.72805">
        <ele>171</ele>
        <time>2016-11-19T09:03:51Z</time>
      </trkpt>
      <trkpt lat="45.93108" lon="4.728">
        <ele>171</ele>
        <time>2016-11-19T09:03:52Z</time>
      </trkpt>
      <trkpt lat="45.93113" lon="4.72795">
        <ele>171</ele>
        <time>2016-11-19T09:03:53Z</time>
      </trkpt>
      <trkpt lat="45.93117" lon="4.72791">
        <ele>171</ele>
        <time>2016-11-19T09:03:54Z</time>
      </trkpt>
      <trkpt lat="45.93121" lon="4.72786">
        <ele>171</ele>
        <time>2016-11-19T09:03:55Z</time>
      </trkpt>
      <trkpt lat="45.93126" lon="4.72781">
        <ele>171</ele>
        <time>2016-11-19T09:03:56Z</time>
      </trkpt>
      <trkpt lat="45.9313" lon="4.72776">
        <ele>171</ele>
        <time>2016-11-19T09:03:57Z</time>
      </trkpt>
      <trkpt lat="45.93135" lon="4.72771">
        <ele>171</ele>
        <time>2016-11-19T09:03:58Z</time>
      </trkpt>
      <trkpt lat="45.93139" lon="4.72766">
        <ele>171</ele>
        <time>2016-11-19T09:03:59Z</time>
      </trkpt>
      <trkpt lat="45.93144" lon="4.72761">
        <ele>171</ele>
        <time>2016-11-19T09:04:00Z</time>
      </trkpt>
      <trkpt lat="45.93149" lon="4.72756">
        <ele>170</ele>
        <time>2016-11-19T09:04:01Z</time>
      </trkpt>
      <trkpt lat="45.93153" lon="4.72751">
        <ele>170</ele>
        <time>2016-11-19T09:04:02Z</time>
      </trkpt>
      <trkpt lat="45.93158" lon="4.72745">
        <ele>170</ele>
        <time>2016-11-19T09:04:03Z</time>
      </trkpt>
      <trkpt lat="45.93162" lon="4.7274">
        <ele>170</ele>
        <time>2016-11-19T09:04:04Z</time>
      </trkpt>
      <trkpt lat="45.93167" lon="4.72734">
        <ele>170</ele>
        <time>2016-11-19T09:04:05Z</time>
      </trkpt>
      <trkpt lat="45.93171" lon="4.72728">
        <ele>170</ele>
        <time>2016-11-19T09:04:06Z</time>
      </trkpt>
      <trkpt lat="45.93176" lon="4.72723">
        <ele>170</ele>
        <time>2016-11-19T09:04:07Z</time>
      </trkpt>
      <trkpt lat="45.9318" lon="4.72717">
        <ele>169</ele>
        <time>2016-11-19T09:04:08Z</time>
      </trkpt>
      <trkpt lat="45.93185" lon="4.72711">
        <ele>169</ele>
        <time>2016-11-19T09:04:09Z</time>
      </trkpt>
      <trkpt lat="45.93189" lon="4.72706">
        <ele>169</ele>
        <time>2016-11-19T09:04:10Z</time>
      </trkpt>
      <trkpt lat="45.93194" lon="4.727">
        <ele>169</ele>
        <time>2016-11-19T09:04:11Z</time>
      </trkpt>
      <trkpt lat="45.93198" lon="4.72695">
        <ele>169</ele>
        <time>2016-11-19T09:04:12Z</time>
      </trkpt>
      <trkpt lat="45.93203" lon="4.7269">
        <ele>169</ele>
        <time>2016-11-19T09:04:13Z</time>
      </trkpt>
      <trkpt lat="45.93208" lon="4.72684">
        <ele>169</ele>
        <time>2016-11-19T09:04:14Z</time>
      </trkpt>
      <trkpt lat="45.93213" lon="4.72678">
        <ele>169</ele>
        <time>2016-11-19T09:04:15Z</time>
      </trkpt>
      <trkpt lat="45.93217" lon="4.72672">
        <ele>169</ele>
        <time>2016-11-19T09:04:16Z</time>
      </trkpt>
      <trkpt lat="45.93222" lon="4.72667">
        <ele>170</ele>
        <time>2016-11-19T09:04:17Z</time>
      </trkpt>
      <trkpt lat="45.93226" lon="4.72662">
        <ele>170</ele>
        <time>2016-11-19T09:04:18Z</time>
      </trkpt>
      <trkpt lat="45.9323" lon="4.72656">
        <ele>169</ele>
        <time>2016-11-19T09:04:19Z</time>
      </trkpt>
      <trkpt lat="45.93235" lon="4.72651">
        <ele>170</ele>
        <time>2016-11-19T09:04:20Z</time>
      </trkpt>
      <trkpt lat="45.93239" lon="4.72646">
        <ele>170</ele>
        <time>2016-11-19T09:04:21Z</time>
      </trkpt>
      <trkpt lat="45.93244" lon="4.7264">
        <ele>170</ele>
        <time>2016-11-19T09:04:22Z</time>
      </trkpt>
      <trkpt lat="45.93249" lon="4.72634">
        <ele>170</ele>
        <time>2016-11-19T09:04:23Z</time>
      </trkpt>
      <trkpt lat="45.93254" lon="4.72629">
        <ele>170</ele>
        <time>2016-11-19T09:04:24Z</time>
      </trkpt>
      <trkpt lat="45.93258" lon="4.72623">
        <ele>170</ele>
        <time>2016-11-19T09:04:25Z</time>
      </trkpt>
      <trkpt lat="45.93263" lon="4.72617">
        <ele>170</ele>
        <time>2016-11-19T09:04:26Z</time>
      </trkpt>
      <trkpt lat="45.93268" lon="4.72612">
        <ele>170</ele>
        <time>2016-11-19T09:04:27Z</time>
      </trkpt>
      <trkpt lat="45.93272" lon="4.72607">
        <ele>170</ele>
        <time>2016-11-19T09:04:28Z</time>
      </trkpt>
      <trkpt lat="45.93277" lon="4.72601">
        <ele>170</ele>
        <time>2016-11-19T09:04:29Z</time>
      </trkpt>
      <trkpt lat="45.93281" lon="4.72596">
        <ele>170</ele>
        <time>2016-11-19T09:04:30Z</time>
      </trkpt>
      <trkpt lat="45.93286" lon="4.72591">
        <ele>170</ele>
        <time>2016-11-19T09:04:31Z</time>
      </trkpt>
      <trkpt lat="45.9329" lon="4.72587">
        <ele>170</ele>
        <time>2016-11-19T09:04:32Z</time>
      </trkpt>
      <trkpt lat="45.93294" lon="4.72583">
        <ele>171</ele>
        <time>2016-11-19T09:04:33Z</time>
      </trkpt>
      <trkpt lat="45.93299" lon="4.72578">
        <ele>171</ele>
        <time>2016-11-19T09:04:34Z</time>
      </trkpt>
      <trkpt lat="45.93303" lon="4.72573">
        <ele>171</ele>
        <time>2016-11-19T09:04:35Z</time>
      </trkpt>
      <trkpt lat="45.93307" lon="4.72567">
        <ele>171</ele>
        <time>2016-11-19T09:04:36Z</time>
      </trkpt>
      <trkpt lat="45.93311" lon="4.72562">
        <ele>171</ele>
        <time>2016-11-19T09:04:37Z</time>
      </trkpt>
      <trkpt lat="45.93315" lon="4.72556">
        <ele>172</ele>
        <time>2016-11-19T09:04:38Z</time>
      </trkpt>
      <trkpt lat="45.9332" lon="4.72551">
        <ele>172</ele>
        <time>2016-11-19T09:04:39Z</time>
      </trkpt>
      <trkpt lat="45.93324" lon="4.72546">
        <ele>172</ele>
        <time>2016-11-19T09:04:40Z</time>
      </trkpt>
      <trkpt lat="45.93328" lon="4.72541">
        <ele>172</ele>
        <time>2016-11-19T09:04:41Z</time>
      </trkpt>
      <trkpt lat="45.93332" lon="4.72536">
        <ele>172</ele>
        <time>2016-11-19T09:04:42Z</time>
      </trkpt>
      <trkpt lat="45.93337" lon="4.72531">
        <ele>172</ele>
        <time>2016-11-19T09:04:43Z</time>
      </trkpt>
      <trkpt lat="45.93341" lon="4.72526">
        <ele>172</ele>
        <time>2016-11-19T09:04:44Z</time>
      </trkpt>
      <trkpt lat="45.93345" lon="4.7252">
        <ele>172</ele>
        <time>2016-11-19T09:04:45Z</time>
      </trkpt>
      <trkpt lat="45.9335" lon="4.72515">
        <ele>172</ele>
        <time>2016-11-19T09:04:46Z</time>
      </trkpt>
      <trkpt lat="45.93354" lon="4.7251">
        <ele>172</ele>
        <time>2016-11-19T09:04:47Z</time>
      </trkpt>
      <trkpt lat="45.93358" lon="4.72505">
        <ele>172</ele>
        <time>2016-11-19T09:04:48Z</time>
      </trkpt>
      <trkpt lat="45.93362" lon="4.72501">
        <ele>172</ele>
        <time>2016-11-19T09:04:49Z</time>
      </trkpt>
      <trkpt lat="45.93366" lon="4.72497">
        <ele>173</ele>
        <time>2016-11-19T09:04:50Z</time>
      </trkpt>
      <trkpt lat="45.93369" lon="4.72493">
        <ele>173</ele>
        <time>2016-11-19T09:04:51Z</time>
      </trkpt>
      <trkpt lat="45.93376" lon="4.72485">
        <ele>173</ele>
        <time>2016-11-19T09:04:53Z</time>
      </trkpt>
      <trkpt lat="45.93379" lon="4.72482">
        <ele>173</ele>
        <time>2016-11-19T09:04:54Z</time>
      </trkpt>
      <trkpt lat="45.93385" lon="4.72475">
        <ele>173</ele>
        <time>2016-11-19T09:04:56Z</time>
      </trkpt>
      <trkpt lat="45.93388" lon="4.72472">
        <ele>173</ele>
        <time>2016-11-19T09:04:57Z</time>
      </trkpt>
      <trkpt lat="45.93392" lon="4.72466">
        <ele>173</ele>
        <time>2016-11-19T09:04:59Z</time>
      </trkpt>
      <trkpt lat="45.93394" lon="4.72462">
        <ele>173</ele>
        <time>2016-11-19T09:05:00Z</time>
      </trkpt>
      <trkpt lat="45.93398" lon="4.7245">
        <ele>173</ele>
        <time>2016-11-19T09:05:05Z</time>
      </trkpt>
      <trkpt lat="45.93398" lon="4.7245">
        <ele>173</ele>
        <time>2016-11-19T09:05:06Z</time>
      </trkpt>
      <trkpt lat="45.934" lon="4.7244">
        <ele>173</ele>
        <time>2016-11-19T09:05:10Z</time>
      </trkpt>
      <trkpt lat="45.93402" lon="4.72437">
        <ele>173</ele>
        <time>2016-11-19T09:05:11Z</time>
      </trkpt>
      <trkpt lat="45.93406" lon="4.72429">
        <ele>173</ele>
        <time>2016-11-19T09:05:13Z</time>
      </trkpt>
      <trkpt lat="45.93408" lon="4.72426">
        <ele>174</ele>
        <time>2016-11-19T09:05:14Z</time>
      </trkpt>
      <trkpt lat="45.93412" lon="4.7242">
        <ele>174</ele>
        <time>2016-11-19T09:05:16Z</time>
      </trkpt>
      <trkpt lat="45.93415" lon="4.72417">
        <ele>174</ele>
        <time>2016-11-19T09:05:17Z</time>
      </trkpt>
      <trkpt lat="45.93421" lon="4.72412">
        <ele>174</ele>
        <time>2016-11-19T09:05:19Z</time>
      </trkpt>
      <trkpt lat="45.93424" lon="4.7241">
        <ele>174</ele>
        <time>2016-11-19T09:05:20Z</time>
      </trkpt>
      <trkpt lat="45.93431" lon="4.72406">
        <ele>174</ele>
        <time>2016-11-19T09:05:22Z</time>
      </trkpt>
      <trkpt lat="45.93434" lon="4.72404">
        <ele>174</ele>
        <time>2016-11-19T09:05:23Z</time>
      </trkpt>
      <trkpt lat="45.93441" lon="4.724">
        <ele>173</ele>
        <time>2016-11-19T09:05:25Z</time>
      </trkpt>
      <trkpt lat="45.93445" lon="4.72398">
        <ele>173</ele>
        <time>2016-11-19T09:05:26Z</time>
      </trkpt>
      <trkpt lat="45.93453" lon="4.72392">
        <ele>173</ele>
        <time>2016-11-19T09:05:28Z</time>
      </trkpt>
      <trkpt lat="45.93457" lon="4.72389">
        <ele>173</ele>
        <time>2016-11-19T09:05:29Z</time>
      </trkpt>
      <trkpt lat="45.93461" lon="4.72385">
        <ele>173</ele>
        <time>2016-11-19T09:05:30Z</time>
      </trkpt>
      <trkpt lat="45.93465" lon="4.7238">
        <ele>173</ele>
        <time>2016-11-19T09:05:31Z</time>
      </trkpt>
      <trkpt lat="45.93468" lon="4.72374">
        <ele>173</ele>
        <time>2016-11-19T09:05:32Z</time>
      </trkpt>
      <trkpt lat="45.93472" lon="4.72369">
        <ele>173</ele>
        <time>2016-11-19T09:05:33Z</time>
      </trkpt>
      <trkpt lat="45.93476" lon="4.72364">
        <ele>173</ele>
        <time>2016-11-19T09:05:34Z</time>
      </trkpt>
      <trkpt lat="45.9348" lon="4.72358">
        <ele>173</ele>
        <time>2016-11-19T09:05:35Z</time>
      </trkpt>
      <trkpt lat="45.93484" lon="4.72353">
        <ele>173</ele>
        <time>2016-11-19T09:05:36Z</time>
      </trkpt>
      <trkpt lat="45.93488" lon="4.72348">
        <ele>173</ele>
        <time>2016-11-19T09:05:37Z</time>
      </trkpt>
      <trkpt lat="45.93492" lon="4.72343">
        <ele>173</ele>
        <time>2016-11-19T09:05:38Z</time>
      </trkpt>
      <trkpt lat="45.93495" lon="4.72337">
        <ele>173</ele>
        <time>2016-11-19T09:05:39Z</time>
      </trkpt>
      <trkpt lat="45.93499" lon="4.72331">
        <ele>173</ele>
        <time>2016-11-19T09:05:40Z</time>
      </trkpt>
      <trkpt lat="45.93503" lon="4.72325">
        <ele>173</ele>
        <time>2016-11-19T09:05:41Z</time>
      </trkpt>
      <trkpt lat="45.93507" lon="4.72319">
        <ele>173</ele>
        <time>2016-11-19T09:05:42Z</time>
      </trkpt>
      <trkpt lat="45.9351" lon="4.72314">
        <ele>173</ele>
        <time>2016-11-19T09:05:43Z</time>
      </trkpt>
      <trkpt lat="45.93514" lon="4.72308">
        <ele>173</ele>
        <time>2016-11-19T09:05:44Z</time>
      </trkpt>
      <trkpt lat="45.93517" lon="4.72302">
        <ele>172</ele>
        <time>2016-11-19T09:05:45Z</time>
      </trkpt>
      <trkpt lat="45.9352" lon="4.72296">
        <ele>172</ele>
        <time>2016-11-19T09:05:46Z</time>
      </trkpt>
      <trkpt lat="45.93523" lon="4.7229">
        <ele>172</ele>
        <time>2016-11-19T09:05:47Z</time>
      </trkpt>
      <trkpt lat="45.93526" lon="4.72284">
        <ele>172</ele>
        <time>2016-11-19T09:05:48Z</time>
      </trkpt>
      <trkpt lat="45.93529" lon="4.72278">
        <ele>172</ele>
        <time>2016-11-19T09:05:49Z</time>
      </trkpt>
      <trkpt lat="45.93531" lon="4.72272">
        <ele>172</ele>
        <time>2016-11-19T09:05:50Z</time>
      </trkpt>
      <trkpt lat="45.93533" lon="4.72266">
        <ele>172</ele>
        <time>2016-11-19T09:05:51Z</time>
      </trkpt>
      <trkpt lat="45.93535" lon="4.7226">
        <ele>172</ele>
        <time>2016-11-19T09:05:52Z</time>
      </trkpt>
      <trkpt lat="45.93537" lon="4.72254">
        <ele>172</ele>
        <time>2016-11-19T09:05:53Z</time>
      </trkpt>
      <trkpt lat="45.93539" lon="4.72247">
        <ele>172</ele>
        <time>2016-11-19T09:05:54Z</time>
      </trkpt>
      <trkpt lat="45.93542" lon="4.72241">
        <ele>172</ele>
        <time>2016-11-19T09:05:55Z</time>
      </trkpt>
      <trkpt lat="45.93545" lon="4.72236">
        <ele>172</ele>
        <time>2016-11-19T09:05:56Z</time>
      </trkpt>
      <trkpt lat="45.93548" lon="4.72228">
        <ele>172</ele>
        <time>2016-11-19T09:05:57Z</time>
      </trkpt>
      <trkpt lat="45.93552" lon="4.72222">
        <ele>173</ele>
        <time>2016-11-19T09:05:58Z</time>
      </trkpt>
      <trkpt lat="45.93558" lon="4.72219">
        <ele>173</ele>
        <time>2016-11-19T09:05:59Z</time>
      </trkpt>
      <trkpt lat="45.93563" lon="4.72219">
        <ele>173</ele>
        <time>2016-11-19T09:06:00Z</time>
      </trkpt>
      <trkpt lat="45.93568" lon="4.72223">
        <ele>173</ele>
        <time>2016-11-19T09:06:01Z</time>
      </trkpt>
      <trkpt lat="45.93573" lon="4.72227">
        <ele>173</ele>
        <time>2016-11-19T09:06:02Z</time>
      </trkpt>
      <trkpt lat="45.93577" lon="4.72232">
        <ele>173</ele>
        <time>2016-11-19T09:06:03Z</time>
      </trkpt>
      <trkpt lat="45.93581" lon="4.72236">
        <ele>173</ele>
        <time>2016-11-19T09:06:04Z</time>
      </trkpt>
      <trkpt lat="45.93584" lon="4.72241">
        <ele>173</ele>
        <time>2016-11-19T09:06:05Z</time>
      </trkpt>
      <trkpt lat="45.93588" lon="4.72245">
        <ele>173</ele>
        <time>2016-11-19T09:06:06Z</time>
      </trkpt>
      <trkpt lat="45.93592" lon="4.72249">
        <ele>173</ele>
        <time>2016-11-19T09:06:07Z</time>
      </trkpt>
      <trkpt lat="45.93596" lon="4.72252">
        <ele>173</ele>
        <time>2016-11-19T09:06:08Z</time>
      </trkpt>
      <trkpt lat="45.936" lon="4.72256">
        <ele>173</ele>
        <time>2016-11-19T09:06:09Z</time>
      </trkpt>
      <trkpt lat="45.93604" lon="4.7226">
        <ele>173</ele>
        <time>2016-11-19T09:06:10Z</time>
      </trkpt>
      <trkpt lat="45.93608" lon="4.72264">
        <ele>172</ele>
        <time>2016-11-19T09:06:11Z</time>
      </trkpt>
      <trkpt lat="45.93613" lon="4.72269">
        <ele>172</ele>
        <time>2016-11-19T09:06:12Z</time>
      </trkpt>
      <trkpt lat="45.93619" lon="4.72274">
        <ele>172</ele>
        <time>2016-11-19T09:06:13Z</time>
      </trkpt>
      <trkpt lat="45.93623" lon="4.72279">
        <ele>172</ele>
        <time>2016-11-19T09:06:14Z</time>
      </trkpt>
      <trkpt lat="45.93629" lon="4.72284">
        <ele>172</ele>
        <time>2016-11-19T09:06:15Z</time>
      </trkpt>
      <trkpt lat="45.93635" lon="4.72288">
        <ele>172</ele>
        <time>2016-11-19T09:06:16Z</time>
      </trkpt>
      <trkpt lat="45.93639" lon="4.72293">
        <ele>172</ele>
        <time>2016-11-19T09:06:17Z</time>
      </trkpt>
      <trkpt lat="45.93644" lon="4.72298">
        <ele>172</ele>
        <time>2016-11-19T09:06:18Z</time>
      </trkpt>
      <trkpt lat="45.93648" lon="4.72303">
        <ele>172</ele>
        <time>2016-11-19T09:06:19Z</time>
      </trkpt>
      <trkpt lat="45.93653" lon="4.72308">
        <ele>172</ele>
        <time>2016-11-19T09:06:20Z</time>
      </trkpt>
      <trkpt lat="45.93658" lon="4.72313">
        <ele>172</ele>
        <time>2016-11-19T09:06:21Z</time>
      </trkpt>
      <trkpt lat="45.93662" lon="4.72318">
        <ele>172</ele>
        <time>2016-11-19T09:06:22Z</time>
      </trkpt>
      <trkpt lat="45.93667" lon="4.72323">
        <ele>171</ele>
        <time>2016-11-19T09:06:23Z</time>
      </trkpt>
      <trkpt lat="45.9367" lon="4.72327">
        <ele>171</ele>
        <time>2016-11-19T09:06:24Z</time>
      </trkpt>
      <trkpt lat="45.93674" lon="4.72331">
        <ele>171</ele>
        <time>2016-11-19T09:06:25Z</time>
      </trkpt>
      <trkpt lat="45.93678" lon="4.72335">
        <ele>171</ele>
        <time>2016-11-19T09:06:26Z</time>
      </trkpt>
      <trkpt lat="45.93682" lon="4.7234">
        <ele>171</ele>
        <time>2016-11-19T09:06:27Z</time>
      </trkpt>
      <trkpt lat="45.93688" lon="4.72346">
        <ele>171</ele>
        <time>2016-11-19T09:06:29Z</time>
      </trkpt>
      <trkpt lat="45.93691" lon="4.7235">
        <ele>171</ele>
        <time>2016-11-19T09:06:30Z</time>
      </trkpt>
      <trkpt lat="45.93698" lon="4.72351">
        <ele>171</ele>
        <time>2016-11-19T09:06:31Z</time>
      </trkpt>
      <trkpt lat="45.93702" lon="4.72354">
        <ele>171</ele>
        <time>2016-11-19T09:06:32Z</time>
      </trkpt>
      <trkpt lat="45.93708" lon="4.72356">
        <ele>171</ele>
        <time>2016-11-19T09:06:33Z</time>
      </trkpt>
      <trkpt lat="45.93712" lon="4.72356">
        <ele>172</ele>
        <time>2016-11-19T09:06:34Z</time>
      </trkpt>
      <trkpt lat="45.93718" lon="4.72348">
        <ele>172</ele>
        <time>2016-11-19T09:06:36Z</time>
      </trkpt>
      <trkpt lat="45.93721" lon="4.72343">
        <ele>172</ele>
        <time>2016-11-19T09:06:37Z</time>
      </trkpt>
      <trkpt lat="45.93725" lon="4.72337">
        <ele>172</ele>
        <time>2016-11-19T09:06:38Z</time>
      </trkpt>
      <trkpt lat="45.93729" lon="4.72331">
        <ele>172</ele>
        <time>2016-11-19T09:06:39Z</time>
      </trkpt>
      <trkpt lat="45.93733" lon="4.72325">
        <ele>172</ele>
        <time>2016-11-19T09:06:40Z</time>
      </trkpt>
      <trkpt lat="45.93736" lon="4.72318">
        <ele>172</ele>
        <time>2016-11-19T09:06:41Z</time>
      </trkpt>
      <trkpt lat="45.93739" lon="4.72312">
        <ele>172</ele>
        <time>2016-11-19T09:06:42Z</time>
      </trkpt>
      <trkpt lat="45.93742" lon="4.72304">
        <ele>172</ele>
        <time>2016-11-19T09:06:43Z</time>
      </trkpt>
      <trkpt lat="45.93745" lon="4.72298">
        <ele>172</ele>
        <time>2016-11-19T09:06:44Z</time>
      </trkpt>
      <trkpt lat="45.93749" lon="4.72292">
        <ele>172</ele>
        <time>2016-11-19T09:06:45Z</time>
      </trkpt>
      <trkpt lat="45.93752" lon="4.72286">
        <ele>172</ele>
        <time>2016-11-19T09:06:46Z</time>
      </trkpt>
      <trkpt lat="45.93756" lon="4.7228">
        <ele>172</ele>
        <time>2016-11-19T09:06:47Z</time>
      </trkpt>
      <trkpt lat="45.93759" lon="4.72274">
        <ele>172</ele>
        <time>2016-11-19T09:06:48Z</time>
      </trkpt>
      <trkpt lat="45.93763" lon="4.72268">
        <ele>172</ele>
        <time>2016-11-19T09:06:49Z</time>
      </trkpt>
      <trkpt lat="45.93767" lon="4.72261">
        <ele>172</ele>
        <time>2016-11-19T09:06:50Z</time>
      </trkpt>
      <trkpt lat="45.93771" lon="4.72255">
        <ele>172</ele>
        <time>2016-11-19T09:06:51Z</time>
      </trkpt>
      <trkpt lat="45.93775" lon="4.7225">
        <ele>172</ele>
        <time>2016-11-19T09:06:52Z</time>
      </trkpt>
      <trkpt lat="45.93779" lon="4.72244">
        <ele>172</ele>
        <time>2016-11-19T09:06:53Z</time>
      </trkpt>
      <trkpt lat="45.93783" lon="4.72238">
        <ele>172</ele>
        <time>2016-11-19T09:06:54Z</time>
      </trkpt>
      <trkpt lat="45.93787" lon="4.72233">
        <ele>172</ele>
        <time>2016-11-19T09:06:55Z</time>
      </trkpt>
      <trkpt lat="45.93792" lon="4.72227">
        <ele>172</ele>
        <time>2016-11-19T09:06:56Z</time>
      </trkpt>
      <trkpt lat="45.93796" lon="4.72222">
        <ele>172</ele>
        <time>2016-11-19T09:06:57Z</time>
      </trkpt>
      <trkpt lat="45.938" lon="4.72216">
        <ele>172</ele>
        <time>2016-11-19T09:06:58Z</time>
      </trkpt>
      <trkpt lat="45.93804" lon="4.72211">
        <ele>172</ele>
        <time>2016-11-19T09:06:59Z</time>
      </trkpt>
      <trkpt lat="45.93808" lon="4.72205">
        <ele>172</ele>
        <time>2016-11-19T09:07:00Z</time>
      </trkpt>
      <trkpt lat="45.9381" lon="4.72199">
        <ele>172</ele>
        <time>2016-11-19T09:07:01Z</time>
      </trkpt>
      <trkpt lat="45.93811" lon="4.72193">
        <ele>172</ele>
        <time>2016-11-19T09:07:02Z</time>
      </trkpt>
      <trkpt lat="45.93812" lon="4.72186">
        <ele>172</ele>
        <time>2016-11-19T09:07:03Z</time>
      </trkpt>
      <trkpt lat="45.93814" lon="4.72179">
        <ele>172</ele>
        <time>2016-11-19T09:07:04Z</time>
      </trkpt>
      <trkpt lat="45.93816" lon="4.72172">
        <ele>172</ele>
        <time>2016-11-19T09:07:05Z</time>
      </trkpt>
      <trkpt lat="45.93822" lon="4.72163">
        <ele>172</ele>
        <time>2016-11-19T09:07:07Z</time>
      </trkpt>
      <trkpt lat="45.93825" lon="4.72159">
        <ele>172</ele>
        <time>2016-11-19T09:07:08Z</time>
      </trkpt>
      <trkpt lat="45.9383" lon="4.72151">
        <ele>172</ele>
        <time>2016-11-19T09:07:10Z</time>
      </trkpt>
      <trkpt lat="45.93832" lon="4.72147">
        <ele>172</ele>
        <time>2016-11-19T09:07:11Z</time>
      </trkpt>
      <trkpt lat="45.93837" lon="4.72141">
        <ele>172</ele>
        <time>2016-11-19T09:07:14Z</time>
      </trkpt>
      <trkpt lat="45.93838" lon="4.72137">
        <ele>172</ele>
        <time>2016-11-19T09:07:15Z</time>
      </trkpt>
      <trkpt lat="45.93844" lon="4.72129">
        <ele>172</ele>
        <time>2016-11-19T09:07:18Z</time>
      </trkpt>
      <trkpt lat="45.93847" lon="4.72124">
        <ele>172</ele>
        <time>2016-11-19T09:07:19Z</time>
      </trkpt>
      <trkpt lat="45.93851" lon="4.72115">
        <ele>172</ele>
        <time>2016-11-19T09:07:21Z</time>
      </trkpt>
      <trkpt lat="45.93854" lon="4.7211">
        <ele>172</ele>
        <time>2016-11-19T09:07:22Z</time>
      </trkpt>
      <trkpt lat="45.9386" lon="4.72101">
        <ele>172</ele>
        <time>2016-11-19T09:07:24Z</time>
      </trkpt>
      <trkpt lat="45.93863" lon="4.72096">
        <ele>172</ele>
        <time>2016-11-19T09:07:25Z</time>
      </trkpt>
      <trkpt lat="45.93869" lon="4.72089">
        <ele>172</ele>
        <time>2016-11-19T09:07:27Z</time>
      </trkpt>
      <trkpt lat="45.93871" lon="4.72084">
        <ele>172</ele>
        <time>2016-11-19T09:07:28Z</time>
      </trkpt>
      <trkpt lat="45.93877" lon="4.72076">
        <ele>172</ele>
        <time>2016-11-19T09:07:30Z</time>
      </trkpt>
      <trkpt lat="45.9388" lon="4.72071">
        <ele>172</ele>
        <time>2016-11-19T09:07:31Z</time>
      </trkpt>
      <trkpt lat="45.93886" lon="4.72064">
        <ele>172</ele>
        <time>2016-11-19T09:07:33Z</time>
      </trkpt>
      <trkpt lat="45.93889" lon="4.72062">
        <ele>172</ele>
        <time>2016-11-19T09:07:34Z</time>
      </trkpt>
      <trkpt lat="45.93895" lon="4.72055">
        <ele>172</ele>
        <time>2016-11-19T09:07:36Z</time>
      </trkpt>
      <trkpt lat="45.93898" lon="4.72052">
        <ele>172</ele>
        <time>2016-11-19T09:07:37Z</time>
      </trkpt>
      <trkpt lat="45.93907" lon="4.72048">
        <ele>172</ele>
        <time>2016-11-19T09:07:39Z</time>
      </trkpt>
      <trkpt lat="45.93911" lon="4.72045">
        <ele>172</ele>
        <time>2016-11-19T09:07:40Z</time>
      </trkpt>
      <trkpt lat="45.93915" lon="4.72041">
        <ele>172</ele>
        <time>2016-11-19T09:07:41Z</time>
      </trkpt>
      <trkpt lat="45.93919" lon="4.72037">
        <ele>172</ele>
        <time>2016-11-19T09:07:42Z</time>
      </trkpt>
      <trkpt lat="45.93923" lon="4.72032">
        <ele>172</ele>
        <time>2016-11-19T09:07:43Z</time>
      </trkpt>
      <trkpt lat="45.93927" lon="4.72027">
        <ele>172</ele>
        <time>2016-11-19T09:07:44Z</time>
      </trkpt>
      <trkpt lat="45.9393" lon="4.72023">
        <ele>172</ele>
        <time>2016-11-19T09:07:45Z</time>
      </trkpt>
      <trkpt lat="45.93934" lon="4.72018">
        <ele>172</ele>
        <time>2016-11-19T09:07:46Z</time>
      </trkpt>
      <trkpt lat="45.93938" lon="4.72013">
        <ele>172</ele>
        <time>2016-11-19T09:07:47Z</time>
      </trkpt>
      <trkpt lat="45.93942" lon="4.72008">
        <ele>172</ele>
        <time>2016-11-19T09:07:48Z</time>
      </trkpt>
      <trkpt lat="45.93946" lon="4.72004">
        <ele>172</ele>
        <time>2016-11-19T09:07:49Z</time>
      </trkpt>
      <trkpt lat="45.93951" lon="4.72001">
        <ele>172</ele>
        <time>2016-11-19T09:07:50Z</time>
      </trkpt>
      <trkpt lat="45.93955" lon="4.71997">
        <ele>172</ele>
        <time>2016-11-19T09:07:51Z</time>
      </trkpt>
      <trkpt lat="45.93959" lon="4.71994">
        <ele>173</ele>
        <time>2016-11-19T09:07:52Z</time>
      </trkpt>
      <trkpt lat="45.93964" lon="4.71989">
        <ele>173</ele>
        <time>2016-11-19T09:07:53Z</time>
      </trkpt>
      <trkpt lat="45.93967" lon="4.71985">
        <ele>173</ele>
        <time>2016-11-19T09:07:54Z</time>
      </trkpt>
      <trkpt lat="45.93971" lon="4.7198">
        <ele>173</ele>
        <time>2016-11-19T09:07:55Z</time>
      </trkpt>
      <trkpt lat="45.93975" lon="4.71975">
        <ele>173</ele>
        <time>2016-11-19T09:07:56Z</time>
      </trkpt>
      <trkpt lat="45.93979" lon="4.71969">
        <ele>173</ele>
        <time>2016-11-19T09:07:57Z</time>
      </trkpt>
      <trkpt lat="45.93983" lon="4.71964">
        <ele>173</ele>
        <time>2016-11-19T09:07:58Z</time>
      </trkpt>
      <trkpt lat="45.93991" lon="4.71961">
        <ele>173</ele>
        <time>2016-11-19T09:08:00Z</time>
      </trkpt>
      <trkpt lat="45.93996" lon="4.71962">
        <ele>173</ele>
        <time>2016-11-19T09:08:01Z</time>
      </trkpt>
      <trkpt lat="45.94" lon="4.71965">
        <ele>174</ele>
        <time>2016-11-19T09:08:02Z</time>
      </trkpt>
      <trkpt lat="45.94004" lon="4.7197">
        <ele>174</ele>
        <time>2016-11-19T09:08:03Z</time>
      </trkpt>
      <trkpt lat="45.94007" lon="4.71975">
        <ele>174</ele>
        <time>2016-11-19T09:08:04Z</time>
      </trkpt>
      <trkpt lat="45.9401" lon="4.7198">
        <ele>174</ele>
        <time>2016-11-19T09:08:05Z</time>
      </trkpt>
      <trkpt lat="45.94013" lon="4.71985">
        <ele>174</ele>
        <time>2016-11-19T09:08:06Z</time>
      </trkpt>
      <trkpt lat="45.94017" lon="4.7199">
        <ele>174</ele>
        <time>2016-11-19T09:08:07Z</time>
      </trkpt>
      <trkpt lat="45.9402" lon="4.71996">
        <ele>174</ele>
        <time>2016-11-19T09:08:08Z</time>
      </trkpt>
      <trkpt lat="45.94023" lon="4.72002">
        <ele>173</ele>
        <time>2016-11-19T09:08:09Z</time>
      </trkpt>
      <trkpt lat="45.94026" lon="4.72008">
        <ele>173</ele>
        <time>2016-11-19T09:08:10Z</time>
      </trkpt>
      <trkpt lat="45.94029" lon="4.72014">
        <ele>173</ele>
        <time>2016-11-19T09:08:11Z</time>
      </trkpt>
      <trkpt lat="45.94032" lon="4.72019">
        <ele>173</ele>
        <time>2016-11-19T09:08:12Z</time>
      </trkpt>
      <trkpt lat="45.94035" lon="4.72024">
        <ele>173</ele>
        <time>2016-11-19T09:08:13Z</time>
      </trkpt>
      <trkpt lat="45.94039" lon="4.72029">
        <ele>173</ele>
        <time>2016-11-19T09:08:14Z</time>
      </trkpt>
      <trkpt lat="45.94043" lon="4.72032">
        <ele>173</ele>
        <time>2016-11-19T09:08:15Z</time>
      </trkpt>
      <trkpt lat="45.94048" lon="4.72034">
        <ele>173</ele>
        <time>2016-11-19T09:08:16Z</time>
      </trkpt>
      <trkpt lat="45.94052" lon="4.72034">
        <ele>173</ele>
        <time>2016-11-19T09:08:17Z</time>
      </trkpt>
      <trkpt lat="45.94057" lon="4.72031">
        <ele>174</ele>
        <time>2016-11-19T09:08:18Z</time>
      </trkpt>
      <trkpt lat="45.94061" lon="4.72027">
        <ele>174</ele>
        <time>2016-11-19T09:08:19Z</time>
      </trkpt>
      <trkpt lat="45.94064" lon="4.72023">
        <ele>174</ele>
        <time>2016-11-19T09:08:20Z</time>
      </trkpt>
      <trkpt lat="45.94068" lon="4.72018">
        <ele>174</ele>
        <time>2016-11-19T09:08:21Z</time>
      </trkpt>
      <trkpt lat="45.94072" lon="4.72013">
        <ele>174</ele>
        <time>2016-11-19T09:08:22Z</time>
      </trkpt>
      <trkpt lat="45.94076" lon="4.72009">
        <ele>174</ele>
        <time>2016-11-19T09:08:23Z</time>
      </trkpt>
      <trkpt lat="45.9408" lon="4.72004">
        <ele>175</ele>
        <time>2016-11-19T09:08:24Z</time>
      </trkpt>
      <trkpt lat="45.94084" lon="4.72">
        <ele>175</ele>
        <time>2016-11-19T09:08:25Z</time>
      </trkpt>
      <trkpt lat="45.94087" lon="4.71995">
        <ele>175</ele>
        <time>2016-11-19T09:08:26Z</time>
      </trkpt>
      <trkpt lat="45.94091" lon="4.7199">
        <ele>175</ele>
        <time>2016-11-19T09:08:27Z</time>
      </trkpt>
      <trkpt lat="45.94095" lon="4.71985">
        <ele>174</ele>
        <time>2016-11-19T09:08:28Z</time>
      </trkpt>
      <trkpt lat="45.94099" lon="4.71981">
        <ele>174</ele>
        <time>2016-11-19T09:08:29Z</time>
      </trkpt>
      <trkpt lat="45.94103" lon="4.71976">
        <ele>174</ele>
        <time>2016-11-19T09:08:30Z</time>
      </trkpt>
      <trkpt lat="45.94107" lon="4.71972">
        <ele>174</ele>
        <time>2016-11-19T09:08:31Z</time>
      </trkpt>
      <trkpt lat="45.94111" lon="4.71968">
        <ele>174</ele>
        <time>2016-11-19T09:08:32Z</time>
      </trkpt>
      <trkpt lat="45.94115" lon="4.71965">
        <ele>174</ele>
        <time>2016-11-19T09:08:33Z</time>
      </trkpt>
      <trkpt lat="45.9412" lon="4.71963">
        <ele>174</ele>
        <time>2016-11-19T09:08:34Z</time>
      </trkpt>
      <trkpt lat="45.94125" lon="4.71963">
        <ele>174</ele>
        <time>2016-11-19T09:08:35Z</time>
      </trkpt>
      <trkpt lat="45.9413" lon="4.71965">
        <ele>174</ele>
        <time>2016-11-19T09:08:36Z</time>
      </trkpt>
      <trkpt lat="45.94135" lon="4.71968">
        <ele>174</ele>
        <time>2016-11-19T09:08:37Z</time>
      </trkpt>
      <trkpt lat="45.94139" lon="4.71971">
        <ele>174</ele>
        <time>2016-11-19T09:08:38Z</time>
      </trkpt>
      <trkpt lat="45.94143" lon="4.71976">
        <ele>174</ele>
        <time>2016-11-19T09:08:39Z</time>
      </trkpt>
      <trkpt lat="45.94146" lon="4.71981">
        <ele>173</ele>
        <time>2016-11-19T09:08:40Z</time>
      </trkpt>
      <trkpt lat="45.94149" lon="4.71986">
        <ele>173</ele>
        <time>2016-11-19T09:08:41Z</time>
      </trkpt>
      <trkpt lat="45.94154" lon="4.71996">
        <ele>173</ele>
        <time>2016-11-19T09:08:43Z</time>
      </trkpt>
      <trkpt lat="45.94156" lon="4.72001">
        <ele>173</ele>
        <time>2016-11-19T09:08:44Z</time>
      </trkpt>
      <trkpt lat="45.94159" lon="4.72011">
        <ele>173</ele>
        <time>2016-11-19T09:08:46Z</time>
      </trkpt>
      <trkpt lat="45.94161" lon="4.72015">
        <ele>173</ele>
        <time>2016-11-19T09:08:47Z</time>
      </trkpt>
      <trkpt lat="45.94166" lon="4.72025">
        <ele>173</ele>
        <time>2016-11-19T09:08:49Z</time>
      </trkpt>
      <trkpt lat="45.94168" lon="4.7203">
        <ele>173</ele>
        <time>2016-11-19T09:08:50Z</time>
      </trkpt>
      <trkpt lat="45.94172" lon="4.72039">
        <ele>173</ele>
        <time>2016-11-19T09:08:52Z</time>
      </trkpt>
      <trkpt lat="45.94174" lon="4.72044">
        <ele>173</ele>
        <time>2016-11-19T09:08:53Z</time>
      </trkpt>
      <trkpt lat="45.94178" lon="4.72054">
        <ele>173</ele>
        <time>2016-11-19T09:08:55Z</time>
      </trkpt>
      <trkpt lat="45.94181" lon="4.72059">
        <ele>173</ele>
        <time>2016-11-19T09:08:56Z</time>
      </trkpt>
      <trkpt lat="45.94185" lon="4.72069">
        <ele>173</ele>
        <time>2016-11-19T09:08:58Z</time>
      </trkpt>
      <trkpt lat="45.94187" lon="4.72075">
        <ele>173</ele>
        <time>2016-11-19T09:08:59Z</time>
      </trkpt>
      <trkpt lat="45.9419" lon="4.7208">
        <ele>173</ele>
        <time>2016-11-19T09:09:00Z</time>
      </trkpt>
      <trkpt lat="45.94192" lon="4.72087">
        <ele>172</ele>
        <time>2016-11-19T09:09:01Z</time>
      </trkpt>
      <trkpt lat="45.94194" lon="4.72095">
        <ele>172</ele>
        <time>2016-11-19T09:09:02Z</time>
      </trkpt>
      <trkpt lat="45.94196" lon="4.72102">
        <ele>172</ele>
        <time>2016-11-19T09:09:03Z</time>
      </trkpt>
      <trkpt lat="45.942" lon="4.7211">
        <ele>172</ele>
        <time>2016-11-19T09:09:04Z</time>
      </trkpt>
      <trkpt lat="45.94204" lon="4.72117">
        <ele>172</ele>
        <time>2016-11-19T09:09:05Z</time>
      </trkpt>
      <trkpt lat="45.94208" lon="4.72125">
        <ele>172</ele>
        <time>2016-11-19T09:09:06Z</time>
      </trkpt>
      <trkpt lat="45.94211" lon="4.72133">
        <ele>172</ele>
        <time>2016-11-19T09:09:07Z</time>
      </trkpt>
      <trkpt lat="45.94215" lon="4.72142">
        <ele>172</ele>
        <time>2016-11-19T09:09:08Z</time>
      </trkpt>
      <trkpt lat="45.94219" lon="4.72152">
        <ele>173</ele>
        <time>2016-11-19T09:09:09Z</time>
      </trkpt>
      <trkpt lat="45.94224" lon="4.72162">
        <ele>173</ele>
        <time>2016-11-19T09:09:10Z</time>
      </trkpt>
      <trkpt lat="45.94228" lon="4.72172">
        <ele>172</ele>
        <time>2016-11-19T09:09:11Z</time>
      </trkpt>
      <trkpt lat="45.94232" lon="4.72182">
        <ele>172</ele>
        <time>2016-11-19T09:09:12Z</time>
      </trkpt>
      <trkpt lat="45.94237" lon="4.72193">
        <ele>172</ele>
        <time>2016-11-19T09:09:13Z</time>
      </trkpt>
      <trkpt lat="45.94241" lon="4.72204">
        <ele>172</ele>
        <time>2016-11-19T09:09:14Z</time>
      </trkpt>
      <trkpt lat="45.94246" lon="4.72214">
        <ele>171</ele>
        <time>2016-11-19T09:09:15Z</time>
      </trkpt>
      <trkpt lat="45.9425" lon="4.72224">
        <ele>172</ele>
        <time>2016-11-19T09:09:16Z</time>
      </trkpt>
      <trkpt lat="45.94254" lon="4.72234">
        <ele>171</ele>
        <time>2016-11-19T09:09:17Z</time>
      </trkpt>
      <trkpt lat="45.94258" lon="4.72244">
        <ele>171</ele>
        <time>2016-11-19T09:09:18Z</time>
      </trkpt>
      <trkpt lat="45.94262" lon="4.72253">
        <ele>171</ele>
        <time>2016-11-19T09:09:19Z</time>
      </trkpt>
      <trkpt lat="45.94266" lon="4.72262">
        <ele>171</ele>
        <time>2016-11-19T09:09:20Z</time>
      </trkpt>
      <trkpt lat="45.9427" lon="4.72271">
        <ele>171</ele>
        <time>2016-11-19T09:09:21Z</time>
      </trkpt>
      <trkpt lat="45.94274" lon="4.7228">
        <ele>171</ele>
        <time>2016-11-19T09:09:22Z</time>
      </trkpt>
      <trkpt lat="45.94278" lon="4.72289">
        <ele>171</ele>
        <time>2016-11-19T09:09:23Z</time>
      </trkpt>
      <trkpt lat="45.94282" lon="4.72297">
        <ele>171</ele>
        <time>2016-11-19T09:09:24Z</time>
      </trkpt>
      <trkpt lat="45.94286" lon="4.72305">
        <ele>171</ele>
        <time>2016-11-19T09:09:25Z</time>
      </trkpt>
      <trkpt lat="45.9429" lon="4.72313">
        <ele>171</ele>
        <time>2016-11-19T09:09:26Z</time>
      </trkpt>
      <trkpt lat="45.94293" lon="4.7232">
        <ele>171</ele>
        <time>2016-11-19T09:09:27Z</time>
      </trkpt>
      <trkpt lat="45.94297" lon="4.72327">
        <ele>171</ele>
        <time>2016-11-19T09:09:28Z</time>
      </trkpt>
      <trkpt lat="45.943" lon="4.72335">
        <ele>172</ele>
        <time>2016-11-19T09:09:29Z</time>
      </trkpt>
      <trkpt lat="45.94303" lon="4.72342">
        <ele>172</ele>
        <time>2016-11-19T09:09:30Z</time>
      </trkpt>
      <trkpt lat="45.94307" lon="4.7235">
        <ele>172</ele>
        <time>2016-11-19T09:09:31Z</time>
      </trkpt>
      <trkpt lat="45.94309" lon="4.72357">
        <ele>172</ele>
        <time>2016-11-19T09:09:32Z</time>
      </trkpt>
      <trkpt lat="45.94312" lon="4.72364">
        <ele>172</ele>
        <time>2016-11-19T09:09:33Z</time>
      </trkpt>
      <trkpt lat="45.94316" lon="4.72371">
        <ele>172</ele>
        <time>2016-11-19T09:09:34Z</time>
      </trkpt>
      <trkpt lat="45.94319" lon="4.72377">
        <ele>172</ele>
        <time>2016-11-19T09:09:35Z</time>
      </trkpt>
      <trkpt lat="45.94323" lon="4.72383">
        <ele>172</ele>
        <time>2016-11-19T09:09:36Z</time>
      </trkpt>
      <trkpt lat="45.94326" lon="4.7239">
        <ele>172</ele>
        <time>2016-11-19T09:09:37Z</time>
      </trkpt>
      <trkpt lat="45.94329" lon="4.72397">
        <ele>172</ele>
        <time>2016-11-19T09:09:38Z</time>
      </trkpt>
      <trkpt lat="45.94333" lon="4.72404">
        <ele>173</ele>
        <time>2016-11-19T09:09:39Z</time>
      </trkpt>
      <trkpt lat="45.94336" lon="4.72411">
        <ele>173</ele>
        <time>2016-11-19T09:09:40Z</time>
      </trkpt>
      <trkpt lat="45.94339" lon="4.72418">
        <ele>173</ele>
        <time>2016-11-19T09:09:41Z</time>
      </trkpt>
      <trkpt lat="45.94342" lon="4.72425">
        <ele>173</ele>
        <time>2016-11-19T09:09:42Z</time>
      </trkpt>
      <trkpt lat="45.94344" lon="4.72431">
        <ele>173</ele>
        <time>2016-11-19T09:09:43Z</time>
      </trkpt>
      <trkpt lat="45.94347" lon="4.72438">
        <ele>173</ele>
        <time>2016-11-19T09:09:44Z</time>
      </trkpt>
      <trkpt lat="45.9435" lon="4.72445">
        <ele>173</ele>
        <time>2016-11-19T09:09:45Z</time>
      </trkpt>
      <trkpt lat="45.94355" lon="4.72452">
        <ele>173</ele>
        <time>2016-11-19T09:09:46Z</time>
      </trkpt>
      <trkpt lat="45.94358" lon="4.72459">
        <ele>173</ele>
        <time>2016-11-19T09:09:47Z</time>
      </trkpt>
      <trkpt lat="45.94361" lon="4.72466">
        <ele>173</ele>
        <time>2016-11-19T09:09:48Z</time>
      </trkpt>
      <trkpt lat="45.94364" lon="4.72473">
        <ele>173</ele>
        <time>2016-11-19T09:09:49Z</time>
      </trkpt>
      <trkpt lat="45.94367" lon="4.7248">
        <ele>173</ele>
        <time>2016-11-19T09:09:50Z</time>
      </trkpt>
      <trkpt lat="45.9437" lon="4.72486">
        <ele>173</ele>
        <time>2016-11-19T09:09:51Z</time>
      </trkpt>
      <trkpt lat="45.94372" lon="4.72493">
        <ele>173</ele>
        <time>2016-11-19T09:09:52Z</time>
      </trkpt>
      <trkpt lat="45.94374" lon="4.725">
        <ele>173</ele>
        <time>2016-11-19T09:09:53Z</time>
      </trkpt>
      <trkpt lat="45.94377" lon="4.72507">
        <ele>174</ele>
        <time>2016-11-19T09:09:54Z</time>
      </trkpt>
      <trkpt lat="45.94379" lon="4.72514">
        <ele>174</ele>
        <time>2016-11-19T09:09:55Z</time>
      </trkpt>
      <trkpt lat="45.94382" lon="4.72522">
        <ele>174</ele>
        <time>2016-11-19T09:09:56Z</time>
      </trkpt>
      <trkpt lat="45.94384" lon="4.72529">
        <ele>174</ele>
        <time>2016-11-19T09:09:57Z</time>
      </trkpt>
      <trkpt lat="45.94386" lon="4.72537">
        <ele>174</ele>
        <time>2016-11-19T09:09:58Z</time>
      </trkpt>
      <trkpt lat="45.94387" lon="4.72545">
        <ele>173</ele>
        <time>2016-11-19T09:09:59Z</time>
      </trkpt>
      <trkpt lat="45.94389" lon="4.72553">
        <ele>173</ele>
        <time>2016-11-19T09:10:00Z</time>
      </trkpt>
      <trkpt lat="45.9439" lon="4.72561">
        <ele>173</ele>
        <time>2016-11-19T09:10:01Z</time>
      </trkpt>
      <trkpt lat="45.94391" lon="4.72568">
        <ele>173</ele>
        <time>2016-11-19T09:10:02Z</time>
      </trkpt>
      <trkpt lat="45.94392" lon="4.72576">
        <ele>173</ele>
        <time>2016-11-19T09:10:03Z</time>
      </trkpt>
      <trkpt lat="45.94393" lon="4.72583">
        <ele>173</ele>
        <time>2016-11-19T09:10:04Z</time>
      </trkpt>
      <trkpt lat="45.94394" lon="4.72591">
        <ele>173</ele>
        <time>2016-11-19T09:10:05Z</time>
      </trkpt>
      <trkpt lat="45.94395" lon="4.726">
        <ele>173</ele>
        <time>2016-11-19T09:10:06Z</time>
      </trkpt>
      <trkpt lat="45.94396" lon="4.72608">
        <ele>173</ele>
        <time>2016-11-19T09:10:07Z</time>
      </trkpt>
      <trkpt lat="45.94396" lon="4.72616">
        <ele>173</ele>
        <time>2016-11-19T09:10:08Z</time>
      </trkpt>
      <trkpt lat="45.94397" lon="4.72624">
        <ele>173</ele>
        <time>2016-11-19T09:10:09Z</time>
      </trkpt>
      <trkpt lat="45.94398" lon="4.72632">
        <ele>174</ele>
        <time>2016-11-19T09:10:10Z</time>
      </trkpt>
      <trkpt lat="45.94399" lon="4.7264">
        <ele>174</ele>
        <time>2016-11-19T09:10:11Z</time>
      </trkpt>
      <trkpt lat="45.944" lon="4.72648">
        <ele>174</ele>
        <time>2016-11-19T09:10:12Z</time>
      </trkpt>
      <trkpt lat="45.94401" lon="4.72656">
        <ele>174</ele>
        <time>2016-11-19T09:10:13Z</time>
      </trkpt>
      <trkpt lat="45.94402" lon="4.72664">
        <ele>174</ele>
        <time>2016-11-19T09:10:14Z</time>
      </trkpt>
      <trkpt lat="45.94403" lon="4.72672">
        <ele>173</ele>
        <time>2016-11-19T09:10:15Z</time>
      </trkpt>
      <trkpt lat="45.94404" lon="4.7268">
        <ele>173</ele>
        <time>2016-11-19T09:10:16Z</time>
      </trkpt>
      <trkpt lat="45.94406" lon="4.72687">
        <ele>173</ele>
        <time>2016-11-19T09:10:17Z</time>
      </trkpt>
      <trkpt lat="45.94406" lon="4.72695">
        <ele>173</ele>
        <time>2016-11-19T09:10:18Z</time>
      </trkpt>
      <trkpt lat="45.94407" lon="4.72703">
        <ele>172</ele>
        <time>2016-11-19T09:10:19Z</time>
      </trkpt>
      <trkpt lat="45.94408" lon="4.7271">
        <ele>172</ele>
        <time>2016-11-19T09:10:20Z</time>
      </trkpt>
      <trkpt lat="45.94409" lon="4.72718">
        <ele>172</ele>
        <time>2016-11-19T09:10:21Z</time>
      </trkpt>
      <trkpt lat="45.9441" lon="4.72726">
        <ele>172</ele>
        <time>2016-11-19T09:10:22Z</time>
      </trkpt>
      <trkpt lat="45.94411" lon="4.72733">
        <ele>172</ele>
        <time>2016-11-19T09:10:23Z</time>
      </trkpt>
      <trkpt lat="45.94411" lon="4.72741">
        <ele>171</ele>
        <time>2016-11-19T09:10:24Z</time>
      </trkpt>
      <trkpt lat="45.94413" lon="4.72749">
        <ele>171</ele>
        <time>2016-11-19T09:10:25Z</time>
      </trkpt>
      <trkpt lat="45.94414" lon="4.72757">
        <ele>170</ele>
        <time>2016-11-19T09:10:26Z</time>
      </trkpt>
      <trkpt lat="45.94415" lon="4.72765">
        <ele>170</ele>
        <time>2016-11-19T09:10:27Z</time>
      </trkpt>
      <trkpt lat="45.94416" lon="4.72773">
        <ele>169</ele>
        <time>2016-11-19T09:10:28Z</time>
      </trkpt>
      <trkpt lat="45.94417" lon="4.72781">
        <ele>168</ele>
        <time>2016-11-19T09:10:29Z</time>
      </trkpt>
      <trkpt lat="45.94419" lon="4.72789">
        <ele>168</ele>
        <time>2016-11-19T09:10:30Z</time>
      </trkpt>
      <trkpt lat="45.9442" lon="4.72797">
        <ele>168</ele>
        <time>2016-11-19T09:10:31Z</time>
      </trkpt>
      <trkpt lat="45.94421" lon="4.72804">
        <ele>167</ele>
        <time>2016-11-19T09:10:32Z</time>
      </trkpt>
      <trkpt lat="45.94423" lon="4.72812">
        <ele>167</ele>
        <time>2016-11-19T09:10:33Z</time>
      </trkpt>
      <trkpt lat="45.94424" lon="4.72819">
        <ele>167</ele>
        <time>2016-11-19T09:10:34Z</time>
      </trkpt>
      <trkpt lat="45.94424" lon="4.72825">
        <ele>167</ele>
        <time>2016-11-19T09:10:35Z</time>
      </trkpt>
      <trkpt lat="45.94425" lon="4.72832">
        <ele>166</ele>
        <time>2016-11-19T09:10:36Z</time>
      </trkpt>
      <trkpt lat="45.94426" lon="4.72839">
        <ele>166</ele>
        <time>2016-11-19T09:10:37Z</time>
      </trkpt>
      <trkpt lat="45.94426" lon="4.72845">
        <ele>166</ele>
        <time>2016-11-19T09:10:38Z</time>
      </trkpt>
      <trkpt lat="45.94427" lon="4.72851">
        <ele>166</ele>
        <time>2016-11-19T09:10:39Z</time>
      </trkpt>
      <trkpt lat="45.94429" lon="4.72864">
        <ele>166</ele>
        <time>2016-11-19T09:10:41Z</time>
      </trkpt>
      <trkpt lat="45.9443" lon="4.7287">
        <ele>166</ele>
        <time>2016-11-19T09:10:42Z</time>
      </trkpt>
      <trkpt lat="45.94432" lon="4.72883">
        <ele>166</ele>
        <time>2016-11-19T09:10:44Z</time>
      </trkpt>
      <trkpt lat="45.94433" lon="4.72889">
        <ele>166</ele>
        <time>2016-11-19T09:10:45Z</time>
      </trkpt>
      <trkpt lat="45.94434" lon="4.72901">
        <ele>166</ele>
        <time>2016-11-19T09:10:47Z</time>
      </trkpt>
      <trkpt lat="45.94435" lon="4.72908">
        <ele>166</ele>
        <time>2016-11-19T09:10:48Z</time>
      </trkpt>
      <trkpt lat="45.94435" lon="4.72914">
        <ele>166</ele>
        <time>2016-11-19T09:10:49Z</time>
      </trkpt>
      <trkpt lat="45.94436" lon="4.72921">
        <ele>167</ele>
        <time>2016-11-19T09:10:50Z</time>
      </trkpt>
      <trkpt lat="45.94438" lon="4.72928">
        <ele>167</ele>
        <time>2016-11-19T09:10:51Z</time>
      </trkpt>
      <trkpt lat="45.94439" lon="4.72936">
        <ele>167</ele>
        <time>2016-11-19T09:10:52Z</time>
      </trkpt>
      <trkpt lat="45.9444" lon="4.72944">
        <ele>167</ele>
        <time>2016-11-19T09:10:53Z</time>
      </trkpt>
      <trkpt lat="45.94441" lon="4.72952">
        <ele>167</ele>
        <time>2016-11-19T09:10:54Z</time>
      </trkpt>
      <trkpt lat="45.94442" lon="4.72961">
        <ele>167</ele>
        <time>2016-11-19T09:10:55Z</time>
      </trkpt>
      <trkpt lat="45.94444" lon="4.7297">
        <ele>167</ele>
        <time>2016-11-19T09:10:56Z</time>
      </trkpt>
      <trkpt lat="45.94445" lon="4.72979">
        <ele>167</ele>
        <time>2016-11-19T09:10:57Z</time>
      </trkpt>
      <trkpt lat="45.94447" lon="4.72988">
        <ele>167</ele>
        <time>2016-11-19T09:10:58Z</time>
      </trkpt>
      <trkpt lat="45.94448" lon="4.72998">
        <ele>167</ele>
        <time>2016-11-19T09:10:59Z</time>
      </trkpt>
      <trkpt lat="45.9445" lon="4.73009">
        <ele>169</ele>
        <time>2016-11-19T09:11:00Z</time>
      </trkpt>
      <trkpt lat="45.94451" lon="4.73019">
        <ele>169</ele>
        <time>2016-11-19T09:11:01Z</time>
      </trkpt>
      <trkpt lat="45.94452" lon="4.7303">
        <ele>169</ele>
        <time>2016-11-19T09:11:02Z</time>
      </trkpt>
      <trkpt lat="45.94454" lon="4.73041">
        <ele>169</ele>
        <time>2016-11-19T09:11:03Z</time>
      </trkpt>
      <trkpt lat="45.94455" lon="4.73053">
        <ele>170</ele>
        <time>2016-11-19T09:11:04Z</time>
      </trkpt>
      <trkpt lat="45.94456" lon="4.73065">
        <ele>170</ele>
        <time>2016-11-19T09:11:05Z</time>
      </trkpt>
      <trkpt lat="45.94458" lon="4.73077">
        <ele>170</ele>
        <time>2016-11-19T09:11:06Z</time>
      </trkpt>
      <trkpt lat="45.94459" lon="4.73088">
        <ele>171</ele>
        <time>2016-11-19T09:11:07Z</time>
      </trkpt>
      <trkpt lat="45.9446" lon="4.731">
        <ele>171</ele>
        <time>2016-11-19T09:11:08Z</time>
      </trkpt>
      <trkpt lat="45.94462" lon="4.73111">
        <ele>172</ele>
        <time>2016-11-19T09:11:09Z</time>
      </trkpt>
      <trkpt lat="45.94464" lon="4.73122">
        <ele>172</ele>
        <time>2016-11-19T09:11:10Z</time>
      </trkpt>
      <trkpt lat="45.94465" lon="4.73132">
        <ele>172</ele>
        <time>2016-11-19T09:11:11Z</time>
      </trkpt>
      <trkpt lat="45.94466" lon="4.73142">
        <ele>172</ele>
        <time>2016-11-19T09:11:12Z</time>
      </trkpt>
      <trkpt lat="45.94468" lon="4.73152">
        <ele>172</ele>
        <time>2016-11-19T09:11:13Z</time>
      </trkpt>
      <trkpt lat="45.94469" lon="4.73161">
        <ele>172</ele>
        <time>2016-11-19T09:11:14Z</time>
      </trkpt>
      <trkpt lat="45.9447" lon="4.7317">
        <ele>174</ele>
        <time>2016-11-19T09:11:15Z</time>
      </trkpt>
      <trkpt lat="45.94472" lon="4.73178">
        <ele>174</ele>
        <time>2016-11-19T09:11:16Z</time>
      </trkpt>
      <trkpt lat="45.94473" lon="4.73187">
        <ele>174</ele>
        <time>2016-11-19T09:11:17Z</time>
      </trkpt>
      <trkpt lat="45.94474" lon="4.73195">
        <ele>174</ele>
        <time>2016-11-19T09:11:18Z</time>
      </trkpt>
      <trkpt lat="45.94475" lon="4.73203">
        <ele>174</ele>
        <time>2016-11-19T09:11:19Z</time>
      </trkpt>
      <trkpt lat="45.94476" lon="4.7321">
        <ele>175</ele>
        <time>2016-11-19T09:11:20Z</time>
      </trkpt>
      <trkpt lat="45.94477" lon="4.73218">
        <ele>175</ele>
        <time>2016-11-19T09:11:21Z</time>
      </trkpt>
      <trkpt lat="45.94478" lon="4.73225">
        <ele>175</ele>
        <time>2016-11-19T09:11:22Z</time>
      </trkpt>
      <trkpt lat="45.94479" lon="4.73232">
        <ele>175</ele>
        <time>2016-11-19T09:11:23Z</time>
      </trkpt>
      <trkpt lat="45.9448" lon="4.73238">
        <ele>175</ele>
        <time>2016-11-19T09:11:24Z</time>
      </trkpt>
      <trkpt lat="45.94481" lon="4.73245">
        <ele>175</ele>
        <time>2016-11-19T09:11:25Z</time>
      </trkpt>
      <trkpt lat="45.94483" lon="4.73251">
        <ele>176</ele>
        <time>2016-11-19T09:11:26Z</time>
      </trkpt>
      <trkpt lat="45.94484" lon="4.73258">
        <ele>176</ele>
        <time>2016-11-19T09:11:27Z</time>
      </trkpt>
      <trkpt lat="45.94484" lon="4.73264">
        <ele>177</ele>
        <time>2016-11-19T09:11:28Z</time>
      </trkpt>
      <trkpt lat="45.94485" lon="4.73271">
        <ele>177</ele>
        <time>2016-11-19T09:11:29Z</time>
      </trkpt>
      <trkpt lat="45.94486" lon="4.73278">
        <ele>177</ele>
        <time>2016-11-19T09:11:30Z</time>
      </trkpt>
      <trkpt lat="45.94488" lon="4.7329">
        <ele>177</ele>
        <time>2016-11-19T09:11:32Z</time>
      </trkpt>
      <trkpt lat="45.94489" lon="4.73296">
        <ele>177</ele>
        <time>2016-11-19T09:11:33Z</time>
      </trkpt>
      <trkpt lat="45.9449" lon="4.73309">
        <ele>177</ele>
        <time>2016-11-19T09:11:35Z</time>
      </trkpt>
      <trkpt lat="45.94491" lon="4.73315">
        <ele>177</ele>
        <time>2016-11-19T09:11:36Z</time>
      </trkpt>
      <trkpt lat="45.94491" lon="4.73322">
        <ele>177</ele>
        <time>2016-11-19T09:11:37Z</time>
      </trkpt>
      <trkpt lat="45.94492" lon="4.73329">
        <ele>177</ele>
        <time>2016-11-19T09:11:38Z</time>
      </trkpt>
      <trkpt lat="45.94492" lon="4.73336">
        <ele>178</ele>
        <time>2016-11-19T09:11:39Z</time>
      </trkpt>
      <trkpt lat="45.94492" lon="4.73343">
        <ele>178</ele>
        <time>2016-11-19T09:11:40Z</time>
      </trkpt>
      <trkpt lat="45.94493" lon="4.73351">
        <ele>178</ele>
        <time>2016-11-19T09:11:41Z</time>
      </trkpt>
      <trkpt lat="45.94494" lon="4.73358">
        <ele>178</ele>
        <time>2016-11-19T09:11:42Z</time>
      </trkpt>
      <trkpt lat="45.94495" lon="4.73365">
        <ele>179</ele>
        <time>2016-11-19T09:11:43Z</time>
      </trkpt>
      <trkpt lat="45.94495" lon="4.73372">
        <ele>179</ele>
        <time>2016-11-19T09:11:44Z</time>
      </trkpt>
      <trkpt lat="45.94496" lon="4.7338">
        <ele>179</ele>
        <time>2016-11-19T09:11:45Z</time>
      </trkpt>
      <trkpt lat="45.94497" lon="4.73387">
        <ele>179</ele>
        <time>2016-11-19T09:11:46Z</time>
      </trkpt>
      <trkpt lat="45.94497" lon="4.73394">
        <ele>179</ele>
        <time>2016-11-19T09:11:47Z</time>
      </trkpt>
      <trkpt lat="45.94497" lon="4.734">
        <ele>180</ele>
        <time>2016-11-19T09:11:48Z</time>
      </trkpt>
      <trkpt lat="45.94497" lon="4.73413">
        <ele>180</ele>
        <time>2016-11-19T09:11:50Z</time>
      </trkpt>
      <trkpt lat="45.94497" lon="4.7342">
        <ele>180</ele>
        <time>2016-11-19T09:11:51Z</time>
      </trkpt>
      <trkpt lat="45.94498" lon="4.73426">
        <ele>181</ele>
        <time>2016-11-19T09:11:52Z</time>
      </trkpt>
      <trkpt lat="45.94498" lon="4.73433">
        <ele>181</ele>
        <time>2016-11-19T09:11:53Z</time>
      </trkpt>
      <trkpt lat="45.94498" lon="4.73439">
        <ele>181</ele>
        <time>2016-11-19T09:11:54Z</time>
      </trkpt>
      <trkpt lat="45.94499" lon="4.73446">
        <ele>181</ele>
        <time>2016-11-19T09:11:55Z</time>
      </trkpt>
      <trkpt lat="45.94499" lon="4.73458">
        <ele>182</ele>
        <time>2016-11-19T09:11:57Z</time>
      </trkpt>
      <trkpt lat="45.94499" lon="4.73464">
        <ele>182</ele>
        <time>2016-11-19T09:11:58Z</time>
      </trkpt>
      <trkpt lat="45.94499" lon="4.73476">
        <ele>182</ele>
        <time>2016-11-19T09:12:00Z</time>
      </trkpt>
      <trkpt lat="45.94499" lon="4.73483">
        <ele>182</ele>
        <time>2016-11-19T09:12:01Z</time>
      </trkpt>
      <trkpt lat="45.94499" lon="4.7349">
        <ele>183</ele>
        <time>2016-11-19T09:12:02Z</time>
      </trkpt>
      <trkpt lat="45.94499" lon="4.73497">
        <ele>183</ele>
        <time>2016-11-19T09:12:03Z</time>
      </trkpt>
      <trkpt lat="45.94499" lon="4.73504">
        <ele>183</ele>
        <time>2016-11-19T09:12:04Z</time>
      </trkpt>
      <trkpt lat="45.94498" lon="4.73511">
        <ele>184</ele>
        <time>2016-11-19T09:12:05Z</time>
      </trkpt>
      <trkpt lat="45.94498" lon="4.73518">
        <ele>184</ele>
        <time>2016-11-19T09:12:06Z</time>
      </trkpt>
      <trkpt lat="45.94498" lon="4.73526">
        <ele>184</ele>
        <time>2016-11-19T09:12:07Z</time>
      </trkpt>
      <trkpt lat="45.94498" lon="4.73533">
        <ele>184</ele>
        <time>2016-11-19T09:12:08Z</time>
      </trkpt>
      <trkpt lat="45.94498" lon="4.7354">
        <ele>184</ele>
        <time>2016-11-19T09:12:09Z</time>
      </trkpt>
      <trkpt lat="45.94498" lon="4.73547">
        <ele>185</ele>
        <time>2016-11-19T09:12:10Z</time>
      </trkpt>
      <trkpt lat="45.94498" lon="4.73554">
        <ele>185</ele>
        <time>2016-11-19T09:12:11Z</time>
      </trkpt>
      <trkpt lat="45.94497" lon="4.73561">
        <ele>185</ele>
        <time>2016-11-19T09:12:12Z</time>
      </trkpt>
      <trkpt lat="45.94497" lon="4.73569">
        <ele>185</ele>
        <time>2016-11-19T09:12:13Z</time>
      </trkpt>
      <trkpt lat="45.94498" lon="4.73577">
        <ele>185</ele>
        <time>2016-11-19T09:12:14Z</time>
      </trkpt>
      <trkpt lat="45.94497" lon="4.73585">
        <ele>185</ele>
        <time>2016-11-19T09:12:15Z</time>
      </trkpt>
      <trkpt lat="45.94497" lon="4.73593">
        <ele>185</ele>
        <time>2016-11-19T09:12:16Z</time>
      </trkpt>
      <trkpt lat="45.94497" lon="4.73601">
        <ele>185</ele>
        <time>2016-11-19T09:12:17Z</time>
      </trkpt>
      <trkpt lat="45.94497" lon="4.73608">
        <ele>186</ele>
        <time>2016-11-19T09:12:18Z</time>
      </trkpt>
      <trkpt lat="45.94496" lon="4.73616">
        <ele>186</ele>
        <time>2016-11-19T09:12:19Z</time>
      </trkpt>
      <trkpt lat="45.94494" lon="4.73623">
        <ele>186</ele>
        <time>2016-11-19T09:12:20Z</time>
      </trkpt>
      <trkpt lat="45.94492" lon="4.73631">
        <ele>186</ele>
        <time>2016-11-19T09:12:21Z</time>
      </trkpt>
      <trkpt lat="45.94491" lon="4.73638">
        <ele>186</ele>
        <time>2016-11-19T09:12:22Z</time>
      </trkpt>
      <trkpt lat="45.9449" lon="4.73646">
        <ele>186</ele>
        <time>2016-11-19T09:12:23Z</time>
      </trkpt>
      <trkpt lat="45.94489" lon="4.73655">
        <ele>185</ele>
        <time>2016-11-19T09:12:24Z</time>
      </trkpt>
      <trkpt lat="45.94488" lon="4.73662">
        <ele>185</ele>
        <time>2016-11-19T09:12:25Z</time>
      </trkpt>
      <trkpt lat="45.94487" lon="4.73671">
        <ele>185</ele>
        <time>2016-11-19T09:12:26Z</time>
      </trkpt>
      <trkpt lat="45.94487" lon="4.73679">
        <ele>186</ele>
        <time>2016-11-19T09:12:27Z</time>
      </trkpt>
      <trkpt lat="45.94487" lon="4.73688">
        <ele>186</ele>
        <time>2016-11-19T09:12:28Z</time>
      </trkpt>
      <trkpt lat="45.94489" lon="4.73697">
        <ele>186</ele>
        <time>2016-11-19T09:12:29Z</time>
      </trkpt>
      <trkpt lat="45.94486" lon="4.73705">
        <ele>186</ele>
        <time>2016-11-19T09:12:30Z</time>
      </trkpt>
      <trkpt lat="45.94486" lon="4.73714">
        <ele>186</ele>
        <time>2016-11-19T09:12:31Z</time>
      </trkpt>
      <trkpt lat="45.94484" lon="4.73721">
        <ele>186</ele>
        <time>2016-11-19T09:12:32Z</time>
      </trkpt>
      <trkpt lat="45.94483" lon="4.73727">
        <ele>186</ele>
        <time>2016-11-19T09:12:33Z</time>
      </trkpt>
      <trkpt lat="45.94482" lon="4.73734">
        <ele>186</ele>
        <time>2016-11-19T09:12:34Z</time>
      </trkpt>
      <trkpt lat="45.94481" lon="4.73741">
        <ele>186</ele>
        <time>2016-11-19T09:12:35Z</time>
      </trkpt>
      <trkpt lat="45.94479" lon="4.73753">
        <ele>186</ele>
        <time>2016-11-19T09:12:37Z</time>
      </trkpt>
      <trkpt lat="45.94478" lon="4.73758">
        <ele>186</ele>
        <time>2016-11-19T09:12:38Z</time>
      </trkpt>
      <trkpt lat="45.94477" lon="4.73768">
        <ele>186</ele>
        <time>2016-11-19T09:12:40Z</time>
      </trkpt>
      <trkpt lat="45.94478" lon="4.73773">
        <ele>186</ele>
        <time>2016-11-19T09:12:41Z</time>
      </trkpt>
      <trkpt lat="45.94485" lon="4.7378">
        <ele>186</ele>
        <time>2016-11-19T09:12:43Z</time>
      </trkpt>
      <trkpt lat="45.94489" lon="4.73783">
        <ele>186</ele>
        <time>2016-11-19T09:12:44Z</time>
      </trkpt>
      <trkpt lat="45.94493" lon="4.73787">
        <ele>186</ele>
        <time>2016-11-19T09:12:45Z</time>
      </trkpt>
      <trkpt lat="45.94498" lon="4.73792">
        <ele>186</ele>
        <time>2016-11-19T09:12:46Z</time>
      </trkpt>
      <trkpt lat="45.94503" lon="4.73796">
        <ele>186</ele>
        <time>2016-11-19T09:12:47Z</time>
      </trkpt>
      <trkpt lat="45.94508" lon="4.738">
        <ele>186</ele>
        <time>2016-11-19T09:12:48Z</time>
      </trkpt>
      <trkpt lat="45.94512" lon="4.73805">
        <ele>186</ele>
        <time>2016-11-19T09:12:49Z</time>
      </trkpt>
      <trkpt lat="45.94517" lon="4.73809">
        <ele>186</ele>
        <time>2016-11-19T09:12:50Z</time>
      </trkpt>
      <trkpt lat="45.94521" lon="4.73813">
        <ele>186</ele>
        <time>2016-11-19T09:12:51Z</time>
      </trkpt>
      <trkpt lat="45.94526" lon="4.73817">
        <ele>186</ele>
        <time>2016-11-19T09:12:52Z</time>
      </trkpt>
      <trkpt lat="45.9453" lon="4.73821">
        <ele>186</ele>
        <time>2016-11-19T09:12:53Z</time>
      </trkpt>
      <trkpt lat="45.94535" lon="4.73825">
        <ele>186</ele>
        <time>2016-11-19T09:12:54Z</time>
      </trkpt>
      <trkpt lat="45.94539" lon="4.73829">
        <ele>186</ele>
        <time>2016-11-19T09:12:55Z</time>
      </trkpt>
      <trkpt lat="45.94544" lon="4.73833">
        <ele>186</ele>
        <time>2016-11-19T09:12:56Z</time>
      </trkpt>
      <trkpt lat="45.94548" lon="4.73838">
        <ele>186</ele>
        <time>2016-11-19T09:12:57Z</time>
      </trkpt>
      <trkpt lat="45.94553" lon="4.73843">
        <ele>186</ele>
        <time>2016-11-19T09:12:58Z</time>
      </trkpt>
      <trkpt lat="45.94557" lon="4.73847">
        <ele>186</ele>
        <time>2016-11-19T09:12:59Z</time>
      </trkpt>
      <trkpt lat="45.94561" lon="4.73851">
        <ele>186</ele>
        <time>2016-11-19T09:13:00Z</time>
      </trkpt>
      <trkpt lat="45.94566" lon="4.73855">
        <ele>186</ele>
        <time>2016-11-19T09:13:01Z</time>
      </trkpt>
      <trkpt lat="45.94571" lon="4.73859">
        <ele>186</ele>
        <time>2016-11-19T09:13:02Z</time>
      </trkpt>
      <trkpt lat="45.94575" lon="4.73864">
        <ele>186</ele>
        <time>2016-11-19T09:13:03Z</time>
      </trkpt>
      <trkpt lat="45.94579" lon="4.73869">
        <ele>186</ele>
        <time>2016-11-19T09:13:04Z</time>
      </trkpt>
      <trkpt lat="45.94583" lon="4.73873">
        <ele>186</ele>
        <time>2016-11-19T09:13:05Z</time>
      </trkpt>
      <trkpt lat="45.94587" lon="4.73878">
        <ele>187</ele>
        <time>2016-11-19T09:13:06Z</time>
      </trkpt>
      <trkpt lat="45.9459" lon="4.73882">
        <ele>187</ele>
        <time>2016-11-19T09:13:07Z</time>
      </trkpt>
      <trkpt lat="45.94594" lon="4.73886">
        <ele>187</ele>
        <time>2016-11-19T09:13:08Z</time>
      </trkpt>
      <trkpt lat="45.94598" lon="4.73891">
        <ele>187</ele>
        <time>2016-11-19T09:13:09Z</time>
      </trkpt>
      <trkpt lat="45.94602" lon="4.73895">
        <ele>187</ele>
        <time>2016-11-19T09:13:10Z</time>
      </trkpt>
      <trkpt lat="45.94605" lon="4.73899">
        <ele>187</ele>
        <time>2016-11-19T09:13:11Z</time>
      </trkpt>
      <trkpt lat="45.94609" lon="4.73903">
        <ele>187</ele>
        <time>2016-11-19T09:13:12Z</time>
      </trkpt>
      <trkpt lat="45.94613" lon="4.73908">
        <ele>187</ele>
        <time>2016-11-19T09:13:13Z</time>
      </trkpt>
      <trkpt lat="45.94616" lon="4.73912">
        <ele>187</ele>
        <time>2016-11-19T09:13:14Z</time>
      </trkpt>
      <trkpt lat="45.9462" lon="4.73917">
        <ele>187</ele>
        <time>2016-11-19T09:13:15Z</time>
      </trkpt>
      <trkpt lat="45.94624" lon="4.73921">
        <ele>187</ele>
        <time>2016-11-19T09:13:16Z</time>
      </trkpt>
      <trkpt lat="45.94627" lon="4.73926">
        <ele>187</ele>
        <time>2016-11-19T09:13:17Z</time>
      </trkpt>
      <trkpt lat="45.9463" lon="4.73931">
        <ele>187</ele>
        <time>2016-11-19T09:13:18Z</time>
      </trkpt>
      <trkpt lat="45.94633" lon="4.73935">
        <ele>187</ele>
        <time>2016-11-19T09:13:19Z</time>
      </trkpt>
      <trkpt lat="45.94637" lon="4.7394">
        <ele>187</ele>
        <time>2016-11-19T09:13:20Z</time>
      </trkpt>
      <trkpt lat="45.94641" lon="4.73945">
        <ele>187</ele>
        <time>2016-11-19T09:13:21Z</time>
      </trkpt>
      <trkpt lat="45.94645" lon="4.73949">
        <ele>187</ele>
        <time>2016-11-19T09:13:22Z</time>
      </trkpt>
      <trkpt lat="45.94648" lon="4.73954">
        <ele>187</ele>
        <time>2016-11-19T09:13:23Z</time>
      </trkpt>
      <trkpt lat="45.94652" lon="4.73959">
        <ele>187</ele>
        <time>2016-11-19T09:13:24Z</time>
      </trkpt>
      <trkpt lat="45.94656" lon="4.73964">
        <ele>187</ele>
        <time>2016-11-19T09:13:25Z</time>
      </trkpt>
      <trkpt lat="45.9466" lon="4.73969">
        <ele>187</ele>
        <time>2016-11-19T09:13:26Z</time>
      </trkpt>
      <trkpt lat="45.94663" lon="4.73974">
        <ele>187</ele>
        <time>2016-11-19T09:13:27Z</time>
      </trkpt>
      <trkpt lat="45.94667" lon="4.73979">
        <ele>187</ele>
        <time>2016-11-19T09:13:28Z</time>
      </trkpt>
      <trkpt lat="45.9467" lon="4.73984">
        <ele>187</ele>
        <time>2016-11-19T09:13:29Z</time>
      </trkpt>
      <trkpt lat="45.94674" lon="4.73989">
        <ele>187</ele>
        <time>2016-11-19T09:13:30Z</time>
      </trkpt>
      <trkpt lat="45.94678" lon="4.73994">
        <ele>187</ele>
        <time>2016-11-19T09:13:31Z</time>
      </trkpt>
      <trkpt lat="45.94682" lon="4.73999">
        <ele>187</ele>
        <time>2016-11-19T09:13:32Z</time>
      </trkpt>
      <trkpt lat="45.94685" lon="4.74004">
        <ele>187</ele>
        <time>2016-11-19T09:13:33Z</time>
      </trkpt>
      <trkpt lat="45.94689" lon="4.7401">
        <ele>187</ele>
        <time>2016-11-19T09:13:34Z</time>
      </trkpt>
      <trkpt lat="45.94693" lon="4.74015">
        <ele>187</ele>
        <time>2016-11-19T09:13:35Z</time>
      </trkpt>
      <trkpt lat="45.94697" lon="4.7402">
        <ele>187</ele>
        <time>2016-11-19T09:13:36Z</time>
      </trkpt>
      <trkpt lat="45.947" lon="4.74025">
        <ele>187</ele>
        <time>2016-11-19T09:13:37Z</time>
      </trkpt>
      <trkpt lat="45.94704" lon="4.74031">
        <ele>187</ele>
        <time>2016-11-19T09:13:38Z</time>
      </trkpt>
      <trkpt lat="45.94708" lon="4.74035">
        <ele>187</ele>
        <time>2016-11-19T09:13:39Z</time>
      </trkpt>
      <trkpt lat="45.94712" lon="4.7404">
        <ele>187</ele>
        <time>2016-11-19T09:13:40Z</time>
      </trkpt>
      <trkpt lat="45.94715" lon="4.74045">
        <ele>187</ele>
        <time>2016-11-19T09:13:41Z</time>
      </trkpt>
      <trkpt lat="45.94719" lon="4.7405">
        <ele>187</ele>
        <time>2016-11-19T09:13:42Z</time>
      </trkpt>
      <trkpt lat="45.94723" lon="4.74054">
        <ele>188</ele>
        <time>2016-11-19T09:13:43Z</time>
      </trkpt>
      <trkpt lat="45.94727" lon="4.74059">
        <ele>188</ele>
        <time>2016-11-19T09:13:44Z</time>
      </trkpt>
      <trkpt lat="45.9473" lon="4.74064">
        <ele>188</ele>
        <time>2016-11-19T09:13:45Z</time>
      </trkpt>
      <trkpt lat="45.94734" lon="4.74069">
        <ele>188</ele>
        <time>2016-11-19T09:13:46Z</time>
      </trkpt>
      <trkpt lat="45.94738" lon="4.74074">
        <ele>188</ele>
        <time>2016-11-19T09:13:47Z</time>
      </trkpt>
      <trkpt lat="45.94742" lon="4.74078">
        <ele>188</ele>
        <time>2016-11-19T09:13:48Z</time>
      </trkpt>
      <trkpt lat="45.94746" lon="4.74083">
        <ele>189</ele>
        <time>2016-11-19T09:13:49Z</time>
      </trkpt>
      <trkpt lat="45.94749" lon="4.74088">
        <ele>189</ele>
        <time>2016-11-19T09:13:50Z</time>
      </trkpt>
      <trkpt lat="45.94753" lon="4.74093">
        <ele>189</ele>
        <time>2016-11-19T09:13:51Z</time>
      </trkpt>
      <trkpt lat="45.94757" lon="4.74098">
        <ele>189</ele>
        <time>2016-11-19T09:13:52Z</time>
      </trkpt>
      <trkpt lat="45.94761" lon="4.74104">
        <ele>189</ele>
        <time>2016-11-19T09:13:53Z</time>
      </trkpt>
      <trkpt lat="45.94764" lon="4.74108">
        <ele>189</ele>
        <time>2016-11-19T09:13:54Z</time>
      </trkpt>
      <trkpt lat="45.94768" lon="4.74113">
        <ele>189</ele>
        <time>2016-11-19T09:13:55Z</time>
      </trkpt>
      <trkpt lat="45.94771" lon="4.74118">
        <ele>189</ele>
        <time>2016-11-19T09:13:56Z</time>
      </trkpt>
      <trkpt lat="45.94774" lon="4.74123">
        <ele>189</ele>
        <time>2016-11-19T09:13:57Z</time>
      </trkpt>
      <trkpt lat="45.94778" lon="4.74128">
        <ele>189</ele>
        <time>2016-11-19T09:13:58Z</time>
      </trkpt>
      <trkpt lat="45.94785" lon="4.74136">
        <ele>189</ele>
        <time>2016-11-19T09:14:00Z</time>
      </trkpt>
      <trkpt lat="45.94788" lon="4.74141">
        <ele>189</ele>
        <time>2016-11-19T09:14:01Z</time>
      </trkpt>
      <trkpt lat="45.94791" lon="4.74146">
        <ele>189</ele>
        <time>2016-11-19T09:14:02Z</time>
      </trkpt>
      <trkpt lat="45.94795" lon="4.74151">
        <ele>189</ele>
        <time>2016-11-19T09:14:03Z</time>
      </trkpt>
      <trkpt lat="45.94798" lon="4.74157">
        <ele>189</ele>
        <time>2016-11-19T09:14:04Z</time>
      </trkpt>
      <trkpt lat="45.94801" lon="4.74162">
        <ele>189</ele>
        <time>2016-11-19T09:14:05Z</time>
      </trkpt>
      <trkpt lat="45.94804" lon="4.74168">
        <ele>189</ele>
        <time>2016-11-19T09:14:06Z</time>
      </trkpt>
      <trkpt lat="45.94808" lon="4.74173">
        <ele>189</ele>
        <time>2016-11-19T09:14:07Z</time>
      </trkpt>
      <trkpt lat="45.94811" lon="4.74179">
        <ele>189</ele>
        <time>2016-11-19T09:14:08Z</time>
      </trkpt>
      <trkpt lat="45.94814" lon="4.74185">
        <ele>189</ele>
        <time>2016-11-19T09:14:09Z</time>
      </trkpt>
      <trkpt lat="45.94817" lon="4.74191">
        <ele>189</ele>
        <time>2016-11-19T09:14:10Z</time>
      </trkpt>
      <trkpt lat="45.94821" lon="4.74197">
        <ele>189</ele>
        <time>2016-11-19T09:14:11Z</time>
      </trkpt>
      <trkpt lat="45.94824" lon="4.74203">
        <ele>189</ele>
        <time>2016-11-19T09:14:12Z</time>
      </trkpt>
      <trkpt lat="45.94827" lon="4.74208">
        <ele>189</ele>
        <time>2016-11-19T09:14:13Z</time>
      </trkpt>
      <trkpt lat="45.9483" lon="4.74214">
        <ele>189</ele>
        <time>2016-11-19T09:14:14Z</time>
      </trkpt>
      <trkpt lat="45.94833" lon="4.7422">
        <ele>189</ele>
        <time>2016-11-19T09:14:15Z</time>
      </trkpt>
      <trkpt lat="45.94836" lon="4.74227">
        <ele>190</ele>
        <time>2016-11-19T09:14:16Z</time>
      </trkpt>
      <trkpt lat="45.94839" lon="4.74233">
        <ele>190</ele>
        <time>2016-11-19T09:14:17Z</time>
      </trkpt>
      <trkpt lat="45.94842" lon="4.74239">
        <ele>190</ele>
        <time>2016-11-19T09:14:18Z</time>
      </trkpt>
      <trkpt lat="45.94845" lon="4.74245">
        <ele>190</ele>
        <time>2016-11-19T09:14:19Z</time>
      </trkpt>
      <trkpt lat="45.94849" lon="4.7425">
        <ele>190</ele>
        <time>2016-11-19T09:14:20Z</time>
      </trkpt>
      <trkpt lat="45.94852" lon="4.74256">
        <ele>190</ele>
        <time>2016-11-19T09:14:21Z</time>
      </trkpt>
      <trkpt lat="45.94855" lon="4.74262">
        <ele>190</ele>
        <time>2016-11-19T09:14:22Z</time>
      </trkpt>
      <trkpt lat="45.94859" lon="4.74269">
        <ele>190</ele>
        <time>2016-11-19T09:14:23Z</time>
      </trkpt>
      <trkpt lat="45.94862" lon="4.74275">
        <ele>190</ele>
        <time>2016-11-19T09:14:24Z</time>
      </trkpt>
      <trkpt lat="45.94865" lon="4.74281">
        <ele>191</ele>
        <time>2016-11-19T09:14:25Z</time>
      </trkpt>
      <trkpt lat="45.94868" lon="4.74288">
        <ele>191</ele>
        <time>2016-11-19T09:14:26Z</time>
      </trkpt>
      <trkpt lat="45.94871" lon="4.74295">
        <ele>191</ele>
        <time>2016-11-19T09:14:27Z</time>
      </trkpt>
      <trkpt lat="45.94874" lon="4.74302">
        <ele>191</ele>
        <time>2016-11-19T09:14:28Z</time>
      </trkpt>
      <trkpt lat="45.94877" lon="4.74309">
        <ele>191</ele>
        <time>2016-11-19T09:14:29Z</time>
      </trkpt>
      <trkpt lat="45.94881" lon="4.74315">
        <ele>191</ele>
        <time>2016-11-19T09:14:30Z</time>
      </trkpt>
      <trkpt lat="45.94884" lon="4.74322">
        <ele>191</ele>
        <time>2016-11-19T09:14:31Z</time>
      </trkpt>
      <trkpt lat="45.94887" lon="4.74329">
        <ele>191</ele>
        <time>2016-11-19T09:14:32Z</time>
      </trkpt>
      <trkpt lat="45.94891" lon="4.74335">
        <ele>191</ele>
        <time>2016-11-19T09:14:33Z</time>
      </trkpt>
      <trkpt lat="45.94895" lon="4.74341">
        <ele>191</ele>
        <time>2016-11-19T09:14:34Z</time>
      </trkpt>
      <trkpt lat="45.94898" lon="4.74348">
        <ele>191</ele>
        <time>2016-11-19T09:14:35Z</time>
      </trkpt>
      <trkpt lat="45.94901" lon="4.74355">
        <ele>191</ele>
        <time>2016-11-19T09:14:36Z</time>
      </trkpt>
      <trkpt lat="45.94905" lon="4.74361">
        <ele>191</ele>
        <time>2016-11-19T09:14:37Z</time>
      </trkpt>
      <trkpt lat="45.94908" lon="4.74368">
        <ele>191</ele>
        <time>2016-11-19T09:14:38Z</time>
      </trkpt>
      <trkpt lat="45.9491" lon="4.74374">
        <ele>191</ele>
        <time>2016-11-19T09:14:39Z</time>
      </trkpt>
      <trkpt lat="45.94912" lon="4.74381">
        <ele>191</ele>
        <time>2016-11-19T09:14:40Z</time>
      </trkpt>
      <trkpt lat="45.94915" lon="4.74388">
        <ele>191</ele>
        <time>2016-11-19T09:14:41Z</time>
      </trkpt>
      <trkpt lat="45.94918" lon="4.74395">
        <ele>192</ele>
        <time>2016-11-19T09:14:42Z</time>
      </trkpt>
      <trkpt lat="45.94922" lon="4.74401">
        <ele>192</ele>
        <time>2016-11-19T09:14:43Z</time>
      </trkpt>
      <trkpt lat="45.94926" lon="4.74407">
        <ele>192</ele>
        <time>2016-11-19T09:14:44Z</time>
      </trkpt>
      <trkpt lat="45.94929" lon="4.74414">
        <ele>192</ele>
        <time>2016-11-19T09:14:45Z</time>
      </trkpt>
      <trkpt lat="45.94933" lon="4.7442">
        <ele>192</ele>
        <time>2016-11-19T09:14:46Z</time>
      </trkpt>
      <trkpt lat="45.94936" lon="4.74426">
        <ele>192</ele>
        <time>2016-11-19T09:14:47Z</time>
      </trkpt>
      <trkpt lat="45.94939" lon="4.74433">
        <ele>192</ele>
        <time>2016-11-19T09:14:48Z</time>
      </trkpt>
      <trkpt lat="45.94943" lon="4.74439">
        <ele>192</ele>
        <time>2016-11-19T09:14:49Z</time>
      </trkpt>
      <trkpt lat="45.94946" lon="4.74445">
        <ele>192</ele>
        <time>2016-11-19T09:14:50Z</time>
      </trkpt>
      <trkpt lat="45.94949" lon="4.74452">
        <ele>192</ele>
        <time>2016-11-19T09:14:51Z</time>
      </trkpt>
      <trkpt lat="45.94953" lon="4.74459">
        <ele>193</ele>
        <time>2016-11-19T09:14:52Z</time>
      </trkpt>
      <trkpt lat="45.94956" lon="4.74465">
        <ele>193</ele>
        <time>2016-11-19T09:14:53Z</time>
      </trkpt>
      <trkpt lat="45.94959" lon="4.74471">
        <ele>193</ele>
        <time>2016-11-19T09:14:54Z</time>
      </trkpt>
      <trkpt lat="45.94963" lon="4.74477">
        <ele>193</ele>
        <time>2016-11-19T09:14:55Z</time>
      </trkpt>
      <trkpt lat="45.94966" lon="4.74483">
        <ele>193</ele>
        <time>2016-11-19T09:14:56Z</time>
      </trkpt>
      <trkpt lat="45.9497" lon="4.7449">
        <ele>193</ele>
        <time>2016-11-19T09:14:57Z</time>
      </trkpt>
      <trkpt lat="45.94973" lon="4.74497">
        <ele>193</ele>
        <time>2016-11-19T09:14:58Z</time>
      </trkpt>
      <trkpt lat="45.94977" lon="4.74504">
        <ele>193</ele>
        <time>2016-11-19T09:14:59Z</time>
      </trkpt>
      <trkpt lat="45.9498" lon="4.74511">
        <ele>193</ele>
        <time>2016-11-19T09:15:00Z</time>
      </trkpt>
      <trkpt lat="45.94984" lon="4.74518">
        <ele>193</ele>
        <time>2016-11-19T09:15:01Z</time>
      </trkpt>
      <trkpt lat="45.94988" lon="4.74524">
        <ele>193</ele>
        <time>2016-11-19T09:15:02Z</time>
      </trkpt>
      <trkpt lat="45.94992" lon="4.7453">
        <ele>193</ele>
        <time>2016-11-19T09:15:03Z</time>
      </trkpt>
      <trkpt lat="45.94996" lon="4.74536">
        <ele>193</ele>
        <time>2016-11-19T09:15:04Z</time>
      </trkpt>
      <trkpt lat="45.94999" lon="4.74542">
        <ele>193</ele>
        <time>2016-11-19T09:15:05Z</time>
      </trkpt>
      <trkpt lat="45.95002" lon="4.74549">
        <ele>194</ele>
        <time>2016-11-19T09:15:06Z</time>
      </trkpt>
      <trkpt lat="45.95005" lon="4.74555">
        <ele>194</ele>
        <time>2016-11-19T09:15:07Z</time>
      </trkpt>
      <trkpt lat="45.95008" lon="4.74562">
        <ele>194</ele>
        <time>2016-11-19T09:15:08Z</time>
      </trkpt>
      <trkpt lat="45.95012" lon="4.74568">
        <ele>194</ele>
        <time>2016-11-19T09:15:09Z</time>
      </trkpt>
      <trkpt lat="45.95015" lon="4.74575">
        <ele>194</ele>
        <time>2016-11-19T09:15:10Z</time>
      </trkpt>
      <trkpt lat="45.95018" lon="4.74581">
        <ele>194</ele>
        <time>2016-11-19T09:15:11Z</time>
      </trkpt>
      <trkpt lat="45.95021" lon="4.74587">
        <ele>194</ele>
        <time>2016-11-19T09:15:12Z</time>
      </trkpt>
      <trkpt lat="45.95025" lon="4.74593">
        <ele>194</ele>
        <time>2016-11-19T09:15:13Z</time>
      </trkpt>
      <trkpt lat="45.95028" lon="4.74599">
        <ele>194</ele>
        <time>2016-11-19T09:15:14Z</time>
      </trkpt>
      <trkpt lat="45.95031" lon="4.74605">
        <ele>194</ele>
        <time>2016-11-19T09:15:15Z</time>
      </trkpt>
      <trkpt lat="45.95034" lon="4.74611">
        <ele>194</ele>
        <time>2016-11-19T09:15:16Z</time>
      </trkpt>
      <trkpt lat="45.95038" lon="4.74618">
        <ele>194</ele>
        <time>2016-11-19T09:15:17Z</time>
      </trkpt>
      <trkpt lat="45.95041" lon="4.74625">
        <ele>194</ele>
        <time>2016-11-19T09:15:18Z</time>
      </trkpt>
      <trkpt lat="45.95045" lon="4.74631">
        <ele>194</ele>
        <time>2016-11-19T09:15:19Z</time>
      </trkpt>
      <trkpt lat="45.95049" lon="4.74638">
        <ele>194</ele>
        <time>2016-11-19T09:15:20Z</time>
      </trkpt>
      <trkpt lat="45.95052" lon="4.74644">
        <ele>194</ele>
        <time>2016-11-19T09:15:21Z</time>
      </trkpt>
      <trkpt lat="45.95056" lon="4.74651">
        <ele>194</ele>
        <time>2016-11-19T09:15:22Z</time>
      </trkpt>
      <trkpt lat="45.95059" lon="4.74657">
        <ele>194</ele>
        <time>2016-11-19T09:15:23Z</time>
      </trkpt>
      <trkpt lat="45.95063" lon="4.74664">
        <ele>195</ele>
        <time>2016-11-19T09:15:24Z</time>
      </trkpt>
      <trkpt lat="45.95066" lon="4.7467">
        <ele>194</ele>
        <time>2016-11-19T09:15:25Z</time>
      </trkpt>
      <trkpt lat="45.9507" lon="4.74677">
        <ele>194</ele>
        <time>2016-11-19T09:15:26Z</time>
      </trkpt>
      <trkpt lat="45.95074" lon="4.74683">
        <ele>194</ele>
        <time>2016-11-19T09:15:27Z</time>
      </trkpt>
      <trkpt lat="45.95078" lon="4.7469">
        <ele>194</ele>
        <time>2016-11-19T09:15:28Z</time>
      </trkpt>
      <trkpt lat="45.95081" lon="4.74696">
        <ele>194</ele>
        <time>2016-11-19T09:15:29Z</time>
      </trkpt>
      <trkpt lat="45.95084" lon="4.74703">
        <ele>194</ele>
        <time>2016-11-19T09:15:30Z</time>
      </trkpt>
      <trkpt lat="45.95088" lon="4.74709">
        <ele>194</ele>
        <time>2016-11-19T09:15:31Z</time>
      </trkpt>
      <trkpt lat="45.95091" lon="4.74715">
        <ele>194</ele>
        <time>2016-11-19T09:15:32Z</time>
      </trkpt>
      <trkpt lat="45.95095" lon="4.74721">
        <ele>194</ele>
        <time>2016-11-19T09:15:33Z</time>
      </trkpt>
      <trkpt lat="45.95097" lon="4.74727">
        <ele>194</ele>
        <time>2016-11-19T09:15:34Z</time>
      </trkpt>
      <trkpt lat="45.951" lon="4.74733">
        <ele>194</ele>
        <time>2016-11-19T09:15:35Z</time>
      </trkpt>
      <trkpt lat="45.95104" lon="4.74739">
        <ele>194</ele>
        <time>2016-11-19T09:15:36Z</time>
      </trkpt>
      <trkpt lat="45.95107" lon="4.74745">
        <ele>194</ele>
        <time>2016-11-19T09:15:37Z</time>
      </trkpt>
      <trkpt lat="45.95111" lon="4.7475">
        <ele>194</ele>
        <time>2016-11-19T09:15:38Z</time>
      </trkpt>
      <trkpt lat="45.95115" lon="4.74756">
        <ele>194</ele>
        <time>2016-11-19T09:15:39Z</time>
      </trkpt>
      <trkpt lat="45.95119" lon="4.74762">
        <ele>194</ele>
        <time>2016-11-19T09:15:40Z</time>
      </trkpt>
      <trkpt lat="45.95123" lon="4.74768">
        <ele>194</ele>
        <time>2016-11-19T09:15:41Z</time>
      </trkpt>
      <trkpt lat="45.95127" lon="4.74775">
        <ele>194</ele>
        <time>2016-11-19T09:15:42Z</time>
      </trkpt>
      <trkpt lat="45.9513" lon="4.74781">
        <ele>194</ele>
        <time>2016-11-19T09:15:43Z</time>
      </trkpt>
      <trkpt lat="45.95134" lon="4.74787">
        <ele>194</ele>
        <time>2016-11-19T09:15:44Z</time>
      </trkpt>
      <trkpt lat="45.95138" lon="4.74793">
        <ele>194</ele>
        <time>2016-11-19T09:15:45Z</time>
      </trkpt>
      <trkpt lat="45.95141" lon="4.74799">
        <ele>194</ele>
        <time>2016-11-19T09:15:46Z</time>
      </trkpt>
      <trkpt lat="45.95145" lon="4.74806">
        <ele>194</ele>
        <time>2016-11-19T09:15:47Z</time>
      </trkpt>
      <trkpt lat="45.95148" lon="4.74812">
        <ele>194</ele>
        <time>2016-11-19T09:15:48Z</time>
      </trkpt>
      <trkpt lat="45.95152" lon="4.74819">
        <ele>194</ele>
        <time>2016-11-19T09:15:49Z</time>
      </trkpt>
      <trkpt lat="45.95156" lon="4.74825">
        <ele>194</ele>
        <time>2016-11-19T09:15:50Z</time>
      </trkpt>
      <trkpt lat="45.9516" lon="4.74831">
        <ele>194</ele>
        <time>2016-11-19T09:15:51Z</time>
      </trkpt>
      <trkpt lat="45.95164" lon="4.74837">
        <ele>194</ele>
        <time>2016-11-19T09:15:52Z</time>
      </trkpt>
      <trkpt lat="45.95168" lon="4.74843">
        <ele>194</ele>
        <time>2016-11-19T09:15:53Z</time>
      </trkpt>
      <trkpt lat="45.95172" lon="4.74849">
        <ele>194</ele>
        <time>2016-11-19T09:15:54Z</time>
      </trkpt>
      <trkpt lat="45.95175" lon="4.74855">
        <ele>194</ele>
        <time>2016-11-19T09:15:55Z</time>
      </trkpt>
      <trkpt lat="45.95179" lon="4.74861">
        <ele>194</ele>
        <time>2016-11-19T09:15:56Z</time>
      </trkpt>
      <trkpt lat="45.95183" lon="4.74868">
        <ele>194</ele>
        <time>2016-11-19T09:15:57Z</time>
      </trkpt>
      <trkpt lat="45.95187" lon="4.74874">
        <ele>194</ele>
        <time>2016-11-19T09:15:58Z</time>
      </trkpt>
      <trkpt lat="45.95191" lon="4.7488">
        <ele>194</ele>
        <time>2016-11-19T09:15:59Z</time>
      </trkpt>
      <trkpt lat="45.95195" lon="4.74886">
        <ele>194</ele>
        <time>2016-11-19T09:16:00Z</time>
      </trkpt>
      <trkpt lat="45.95199" lon="4.74892">
        <ele>194</ele>
        <time>2016-11-19T09:16:01Z</time>
      </trkpt>
      <trkpt lat="45.95203" lon="4.74898">
        <ele>194</ele>
        <time>2016-11-19T09:16:02Z</time>
      </trkpt>
      <trkpt lat="45.95206" lon="4.74904">
        <ele>194</ele>
        <time>2016-11-19T09:16:03Z</time>
      </trkpt>
      <trkpt lat="45.9521" lon="4.74911">
        <ele>193</ele>
        <time>2016-11-19T09:16:04Z</time>
      </trkpt>
      <trkpt lat="45.95214" lon="4.74917">
        <ele>192</ele>
        <time>2016-11-19T09:16:05Z</time>
      </trkpt>
      <trkpt lat="45.95217" lon="4.74924">
        <ele>192</ele>
        <time>2016-11-19T09:16:06Z</time>
      </trkpt>
      <trkpt lat="45.95222" lon="4.7493">
        <ele>192</ele>
        <time>2016-11-19T09:16:07Z</time>
      </trkpt>
      <trkpt lat="45.95226" lon="4.74937">
        <ele>192</ele>
        <time>2016-11-19T09:16:08Z</time>
      </trkpt>
      <trkpt lat="45.9523" lon="4.74944">
        <ele>192</ele>
        <time>2016-11-19T09:16:09Z</time>
      </trkpt>
      <trkpt lat="45.95234" lon="4.7495">
        <ele>192</ele>
        <time>2016-11-19T09:16:10Z</time>
      </trkpt>
      <trkpt lat="45.95238" lon="4.74957">
        <ele>192</ele>
        <time>2016-11-19T09:16:11Z</time>
      </trkpt>
      <trkpt lat="45.95242" lon="4.74964">
        <ele>191</ele>
        <time>2016-11-19T09:16:12Z</time>
      </trkpt>
      <trkpt lat="45.95246" lon="4.74971">
        <ele>191</ele>
        <time>2016-11-19T09:16:13Z</time>
      </trkpt>
      <trkpt lat="45.95251" lon="4.74977">
        <ele>192</ele>
        <time>2016-11-19T09:16:14Z</time>
      </trkpt>
      <trkpt lat="45.95255" lon="4.74984">
        <ele>192</ele>
        <time>2016-11-19T09:16:15Z</time>
      </trkpt>
      <trkpt lat="45.9526" lon="4.74991">
        <ele>192</ele>
        <time>2016-11-19T09:16:16Z</time>
      </trkpt>
      <trkpt lat="45.95265" lon="4.74997">
        <ele>192</ele>
        <time>2016-11-19T09:16:17Z</time>
      </trkpt>
      <trkpt lat="45.95269" lon="4.75004">
        <ele>191</ele>
        <time>2016-11-19T09:16:18Z</time>
      </trkpt>
      <trkpt lat="45.95274" lon="4.75011">
        <ele>191</ele>
        <time>2016-11-19T09:16:19Z</time>
      </trkpt>
      <trkpt lat="45.95278" lon="4.75018">
        <ele>191</ele>
        <time>2016-11-19T09:16:20Z</time>
      </trkpt>
      <trkpt lat="45.95283" lon="4.75025">
        <ele>191</ele>
        <time>2016-11-19T09:16:21Z</time>
      </trkpt>
      <trkpt lat="45.95288" lon="4.75032">
        <ele>191</ele>
        <time>2016-11-19T09:16:22Z</time>
      </trkpt>
      <trkpt lat="45.95293" lon="4.75039">
        <ele>191</ele>
        <time>2016-11-19T09:16:23Z</time>
      </trkpt>
      <trkpt lat="45.95297" lon="4.75046">
        <ele>191</ele>
        <time>2016-11-19T09:16:24Z</time>
      </trkpt>
      <trkpt lat="45.95302" lon="4.75054">
        <ele>191</ele>
        <time>2016-11-19T09:16:25Z</time>
      </trkpt>
      <trkpt lat="45.95307" lon="4.75061">
        <ele>192</ele>
        <time>2016-11-19T09:16:26Z</time>
      </trkpt>
      <trkpt lat="45.95311" lon="4.75067">
        <ele>192</ele>
        <time>2016-11-19T09:16:27Z</time>
      </trkpt>
      <trkpt lat="45.95316" lon="4.75074">
        <ele>192</ele>
        <time>2016-11-19T09:16:28Z</time>
      </trkpt>
      <trkpt lat="45.9532" lon="4.75081">
        <ele>192</ele>
        <time>2016-11-19T09:16:29Z</time>
      </trkpt>
      <trkpt lat="45.95325" lon="4.75088">
        <ele>191</ele>
        <time>2016-11-19T09:16:30Z</time>
      </trkpt>
      <trkpt lat="45.95329" lon="4.75095">
        <ele>191</ele>
        <time>2016-11-19T09:16:31Z</time>
      </trkpt>
      <trkpt lat="45.95334" lon="4.75102">
        <ele>192</ele>
        <time>2016-11-19T09:16:32Z</time>
      </trkpt>
      <trkpt lat="45.95338" lon="4.75109">
        <ele>192</ele>
        <time>2016-11-19T09:16:33Z</time>
      </trkpt>
      <trkpt lat="45.95342" lon="4.75115">
        <ele>192</ele>
        <time>2016-11-19T09:16:34Z</time>
      </trkpt>
      <trkpt lat="45.95347" lon="4.75122">
        <ele>191</ele>
        <time>2016-11-19T09:16:35Z</time>
      </trkpt>
      <trkpt lat="45.95351" lon="4.75129">
        <ele>191</ele>
        <time>2016-11-19T09:16:36Z</time>
      </trkpt>
      <trkpt lat="45.95356" lon="4.75136">
        <ele>191</ele>
        <time>2016-11-19T09:16:37Z</time>
      </trkpt>
      <trkpt lat="45.9536" lon="4.75143">
        <ele>191</ele>
        <time>2016-11-19T09:16:38Z</time>
      </trkpt>
      <trkpt lat="45.95365" lon="4.7515">
        <ele>191</ele>
        <time>2016-11-19T09:16:39Z</time>
      </trkpt>
      <trkpt lat="45.95369" lon="4.75158">
        <ele>191</ele>
        <time>2016-11-19T09:16:40Z</time>
      </trkpt>
      <trkpt lat="45.95374" lon="4.75165">
        <ele>191</ele>
        <time>2016-11-19T09:16:41Z</time>
      </trkpt>
      <trkpt lat="45.95378" lon="4.75173">
        <ele>189</ele>
        <time>2016-11-19T09:16:42Z</time>
      </trkpt>
      <trkpt lat="45.95382" lon="4.7518">
        <ele>189</ele>
        <time>2016-11-19T09:16:43Z</time>
      </trkpt>
      <trkpt lat="45.95387" lon="4.75187">
        <ele>189</ele>
        <time>2016-11-19T09:16:44Z</time>
      </trkpt>
      <trkpt lat="45.95391" lon="4.75195">
        <ele>189</ele>
        <time>2016-11-19T09:16:45Z</time>
      </trkpt>
      <trkpt lat="45.95396" lon="4.75203">
        <ele>189</ele>
        <time>2016-11-19T09:16:46Z</time>
      </trkpt>
      <trkpt lat="45.954" lon="4.75211">
        <ele>189</ele>
        <time>2016-11-19T09:16:47Z</time>
      </trkpt>
      <trkpt lat="45.95404" lon="4.75219">
        <ele>188</ele>
        <time>2016-11-19T09:16:48Z</time>
      </trkpt>
      <trkpt lat="45.95409" lon="4.75228">
        <ele>188</ele>
        <time>2016-11-19T09:16:49Z</time>
      </trkpt>
      <trkpt lat="45.95413" lon="4.75236">
        <ele>189</ele>
        <time>2016-11-19T09:16:50Z</time>
      </trkpt>
      <trkpt lat="45.95418" lon="4.75244">
        <ele>190</ele>
        <time>2016-11-19T09:16:51Z</time>
      </trkpt>
      <trkpt lat="45.95422" lon="4.75252">
        <ele>189</ele>
        <time>2016-11-19T09:16:52Z</time>
      </trkpt>
      <trkpt lat="45.95427" lon="4.7526">
        <ele>189</ele>
        <time>2016-11-19T09:16:53Z</time>
      </trkpt>
      <trkpt lat="45.95431" lon="4.75269">
        <ele>189</ele>
        <time>2016-11-19T09:16:54Z</time>
      </trkpt>
      <trkpt lat="45.95436" lon="4.75277">
        <ele>188</ele>
        <time>2016-11-19T09:16:55Z</time>
      </trkpt>
      <trkpt lat="45.9544" lon="4.75286">
        <ele>188</ele>
        <time>2016-11-19T09:16:56Z</time>
      </trkpt>
      <trkpt lat="45.95445" lon="4.75294">
        <ele>188</ele>
        <time>2016-11-19T09:16:57Z</time>
      </trkpt>
      <trkpt lat="45.95449" lon="4.75303">
        <ele>188</ele>
        <time>2016-11-19T09:16:58Z</time>
      </trkpt>
      <trkpt lat="45.95454" lon="4.75311">
        <ele>188</ele>
        <time>2016-11-19T09:16:59Z</time>
      </trkpt>
      <trkpt lat="45.95458" lon="4.7532">
        <ele>188</ele>
        <time>2016-11-19T09:17:00Z</time>
      </trkpt>
      <trkpt lat="45.95463" lon="4.75328">
        <ele>188</ele>
        <time>2016-11-19T09:17:01Z</time>
      </trkpt>
      <trkpt lat="45.95468" lon="4.75337">
        <ele>186</ele>
        <time>2016-11-19T09:17:02Z</time>
      </trkpt>
      <trkpt lat="45.95473" lon="4.75345">
        <ele>186</ele>
        <time>2016-11-19T09:17:03Z</time>
      </trkpt>
      <trkpt lat="45.95478" lon="4.75354">
        <ele>186</ele>
        <time>2016-11-19T09:17:04Z</time>
      </trkpt>
      <trkpt lat="45.95482" lon="4.75363">
        <ele>186</ele>
        <time>2016-11-19T09:17:05Z</time>
      </trkpt>
      <trkpt lat="45.95487" lon="4.75372">
        <ele>185</ele>
        <time>2016-11-19T09:17:06Z</time>
      </trkpt>
      <trkpt lat="45.95491" lon="4.75381">
        <ele>185</ele>
        <time>2016-11-19T09:17:07Z</time>
      </trkpt>
      <trkpt lat="45.95496" lon="4.75391">
        <ele>185</ele>
        <time>2016-11-19T09:17:08Z</time>
      </trkpt>
      <trkpt lat="45.95499" lon="4.754">
        <ele>185</ele>
        <time>2016-11-19T09:17:09Z</time>
      </trkpt>
      <trkpt lat="45.95502" lon="4.75409">
        <ele>186</ele>
        <time>2016-11-19T09:17:10Z</time>
      </trkpt>
      <trkpt lat="45.95503" lon="4.75417">
        <ele>185</ele>
        <time>2016-11-19T09:17:11Z</time>
      </trkpt>
      <trkpt lat="45.95505" lon="4.75425">
        <ele>186</ele>
        <time>2016-11-19T09:17:12Z</time>
      </trkpt>
      <trkpt lat="45.95507" lon="4.75434">
        <ele>186</ele>
        <time>2016-11-19T09:17:13Z</time>
      </trkpt>
      <trkpt lat="45.95508" lon="4.75442">
        <ele>186</ele>
        <time>2016-11-19T09:17:14Z</time>
      </trkpt>
      <trkpt lat="45.95507" lon="4.7545">
        <ele>186</ele>
        <time>2016-11-19T09:17:15Z</time>
      </trkpt>
      <trkpt lat="45.95506" lon="4.75459">
        <ele>186</ele>
        <time>2016-11-19T09:17:16Z</time>
      </trkpt>
      <trkpt lat="45.95505" lon="4.75468">
        <ele>186</ele>
        <time>2016-11-19T09:17:17Z</time>
      </trkpt>
      <trkpt lat="45.95506" lon="4.75477">
        <ele>186</ele>
        <time>2016-11-19T09:17:18Z</time>
      </trkpt>
      <trkpt lat="45.95507" lon="4.75485">
        <ele>186</ele>
        <time>2016-11-19T09:17:19Z</time>
      </trkpt>
      <trkpt lat="45.9551" lon="4.75492">
        <ele>185</ele>
        <time>2016-11-19T09:17:20Z</time>
      </trkpt>
      <trkpt lat="45.95515" lon="4.75497">
        <ele>186</ele>
        <time>2016-11-19T09:17:21Z</time>
      </trkpt>
      <trkpt lat="45.9552" lon="4.75501">
        <ele>185</ele>
        <time>2016-11-19T09:17:22Z</time>
      </trkpt>
      <trkpt lat="45.95525" lon="4.75504">
        <ele>185</ele>
        <time>2016-11-19T09:17:23Z</time>
      </trkpt>
      <trkpt lat="45.95531" lon="4.75508">
        <ele>185</ele>
        <time>2016-11-19T09:17:24Z</time>
      </trkpt>
      <trkpt lat="45.95535" lon="4.75513">
        <ele>186</ele>
        <time>2016-11-19T09:17:25Z</time>
      </trkpt>
      <trkpt lat="45.9554" lon="4.75518">
        <ele>186</ele>
        <time>2016-11-19T09:17:26Z</time>
      </trkpt>
      <trkpt lat="45.95545" lon="4.75522">
        <ele>186</ele>
        <time>2016-11-19T09:17:27Z</time>
      </trkpt>
      <trkpt lat="45.9555" lon="4.75527">
        <ele>186</ele>
        <time>2016-11-19T09:17:28Z</time>
      </trkpt>
      <trkpt lat="45.95555" lon="4.75532">
        <ele>186</ele>
        <time>2016-11-19T09:17:29Z</time>
      </trkpt>
      <trkpt lat="45.9556" lon="4.75536">
        <ele>186</ele>
        <time>2016-11-19T09:17:30Z</time>
      </trkpt>
      <trkpt lat="45.95565" lon="4.75541">
        <ele>186</ele>
        <time>2016-11-19T09:17:31Z</time>
      </trkpt>
      <trkpt lat="45.95571" lon="4.75546">
        <ele>186</ele>
        <time>2016-11-19T09:17:32Z</time>
      </trkpt>
      <trkpt lat="45.95576" lon="4.75551">
        <ele>186</ele>
        <time>2016-11-19T09:17:33Z</time>
      </trkpt>
      <trkpt lat="45.95581" lon="4.75557">
        <ele>186</ele>
        <time>2016-11-19T09:17:34Z</time>
      </trkpt>
      <trkpt lat="45.95585" lon="4.75564">
        <ele>188</ele>
        <time>2016-11-19T09:17:35Z</time>
      </trkpt>
      <trkpt lat="45.95588" lon="4.75571">
        <ele>187</ele>
        <time>2016-11-19T09:17:36Z</time>
      </trkpt>
      <trkpt lat="45.95592" lon="4.75578">
        <ele>187</ele>
        <time>2016-11-19T09:17:37Z</time>
      </trkpt>
      <trkpt lat="45.95596" lon="4.75585">
        <ele>187</ele>
        <time>2016-11-19T09:17:38Z</time>
      </trkpt>
      <trkpt lat="45.95599" lon="4.75593">
        <ele>187</ele>
        <time>2016-11-19T09:17:39Z</time>
      </trkpt>
      <trkpt lat="45.95602" lon="4.75601">
        <ele>187</ele>
        <time>2016-11-19T09:17:40Z</time>
      </trkpt>
      <trkpt lat="45.95605" lon="4.7561">
        <ele>187</ele>
        <time>2016-11-19T09:17:41Z</time>
      </trkpt>
      <trkpt lat="45.95608" lon="4.75618">
        <ele>188</ele>
        <time>2016-11-19T09:17:42Z</time>
      </trkpt>
      <trkpt lat="45.9561" lon="4.75627">
        <ele>188</ele>
        <time>2016-11-19T09:17:43Z</time>
      </trkpt>
      <trkpt lat="45.95613" lon="4.75636">
        <ele>188</ele>
        <time>2016-11-19T09:17:44Z</time>
      </trkpt>
      <trkpt lat="45.95615" lon="4.75645">
        <ele>188</ele>
        <time>2016-11-19T09:17:45Z</time>
      </trkpt>
      <trkpt lat="45.95617" lon="4.75654">
        <ele>188</ele>
        <time>2016-11-19T09:17:46Z</time>
      </trkpt>
      <trkpt lat="45.95619" lon="4.75663">
        <ele>188</ele>
        <time>2016-11-19T09:17:47Z</time>
      </trkpt>
      <trkpt lat="45.9562" lon="4.75672">
        <ele>187</ele>
        <time>2016-11-19T09:17:48Z</time>
      </trkpt>
      <trkpt lat="45.95621" lon="4.7568">
        <ele>187</ele>
        <time>2016-11-19T09:17:49Z</time>
      </trkpt>
      <trkpt lat="45.95623" lon="4.75689">
        <ele>187</ele>
        <time>2016-11-19T09:17:50Z</time>
      </trkpt>
      <trkpt lat="45.95624" lon="4.75698">
        <ele>187</ele>
        <time>2016-11-19T09:17:51Z</time>
      </trkpt>
      <trkpt lat="45.95625" lon="4.75707">
        <ele>187</ele>
        <time>2016-11-19T09:17:52Z</time>
      </trkpt>
      <trkpt lat="45.95626" lon="4.75715">
        <ele>187</ele>
        <time>2016-11-19T09:17:53Z</time>
      </trkpt>
      <trkpt lat="45.95627" lon="4.75724">
        <ele>187</ele>
        <time>2016-11-19T09:17:54Z</time>
      </trkpt>
      <trkpt lat="45.95628" lon="4.75733">
        <ele>187</ele>
        <time>2016-11-19T09:17:55Z</time>
      </trkpt>
      <trkpt lat="45.9563" lon="4.75742">
        <ele>187</ele>
        <time>2016-11-19T09:17:56Z</time>
      </trkpt>
      <trkpt lat="45.95631" lon="4.75751">
        <ele>186</ele>
        <time>2016-11-19T09:17:57Z</time>
      </trkpt>
      <trkpt lat="45.95632" lon="4.75759">
        <ele>186</ele>
        <time>2016-11-19T09:17:58Z</time>
      </trkpt>
      <trkpt lat="45.95634" lon="4.75769">
        <ele>186</ele>
        <time>2016-11-19T09:17:59Z</time>
      </trkpt>
      <trkpt lat="45.95635" lon="4.75778">
        <ele>185</ele>
        <time>2016-11-19T09:18:00Z</time>
      </trkpt>
      <trkpt lat="45.95637" lon="4.75787">
        <ele>185</ele>
        <time>2016-11-19T09:18:01Z</time>
      </trkpt>
      <trkpt lat="45.95638" lon="4.75796">
        <ele>185</ele>
        <time>2016-11-19T09:18:02Z</time>
      </trkpt>
      <trkpt lat="45.9564" lon="4.75806">
        <ele>185</ele>
        <time>2016-11-19T09:18:03Z</time>
      </trkpt>
      <trkpt lat="45.95642" lon="4.75815">
        <ele>185</ele>
        <time>2016-11-19T09:18:04Z</time>
      </trkpt>
      <trkpt lat="45.95645" lon="4.75824">
        <ele>185</ele>
        <time>2016-11-19T09:18:05Z</time>
      </trkpt>
      <trkpt lat="45.95647" lon="4.75834">
        <ele>185</ele>
        <time>2016-11-19T09:18:06Z</time>
      </trkpt>
      <trkpt lat="45.95649" lon="4.75844">
        <ele>185</ele>
        <time>2016-11-19T09:18:07Z</time>
      </trkpt>
      <trkpt lat="45.95652" lon="4.75853">
        <ele>184</ele>
        <time>2016-11-19T09:18:08Z</time>
      </trkpt>
      <trkpt lat="45.95655" lon="4.75863">
        <ele>184</ele>
        <time>2016-11-19T09:18:09Z</time>
      </trkpt>
      <trkpt lat="45.95658" lon="4.75873">
        <ele>184</ele>
        <time>2016-11-19T09:18:10Z</time>
      </trkpt>
      <trkpt lat="45.95661" lon="4.75883">
        <ele>184</ele>
        <time>2016-11-19T09:18:11Z</time>
      </trkpt>
      <trkpt lat="45.95664" lon="4.75893">
        <ele>184</ele>
        <time>2016-11-19T09:18:12Z</time>
      </trkpt>
      <trkpt lat="45.95668" lon="4.75903">
        <ele>185</ele>
        <time>2016-11-19T09:18:13Z</time>
      </trkpt>
      <trkpt lat="45.95671" lon="4.75912">
        <ele>185</ele>
        <time>2016-11-19T09:18:14Z</time>
      </trkpt>
      <trkpt lat="45.95675" lon="4.75922">
        <ele>184</ele>
        <time>2016-11-19T09:18:15Z</time>
      </trkpt>
      <trkpt lat="45.95679" lon="4.75932">
        <ele>185</ele>
        <time>2016-11-19T09:18:16Z</time>
      </trkpt>
      <trkpt lat="45.95683" lon="4.75941">
        <ele>185</ele>
        <time>2016-11-19T09:18:17Z</time>
      </trkpt>
      <trkpt lat="45.95687" lon="4.75951">
        <ele>185</ele>
        <time>2016-11-19T09:18:18Z</time>
      </trkpt>
      <trkpt lat="45.9569" lon="4.7596">
        <ele>185</ele>
        <time>2016-11-19T09:18:19Z</time>
      </trkpt>
      <trkpt lat="45.95694" lon="4.75969">
        <ele>185</ele>
        <time>2016-11-19T09:18:20Z</time>
      </trkpt>
      <trkpt lat="45.95698" lon="4.75977">
        <ele>185</ele>
        <time>2016-11-19T09:18:21Z</time>
      </trkpt>
      <trkpt lat="45.95702" lon="4.75984">
        <ele>185</ele>
        <time>2016-11-19T09:18:22Z</time>
      </trkpt>
      <trkpt lat="45.95706" lon="4.75992">
        <ele>185</ele>
        <time>2016-11-19T09:18:23Z</time>
      </trkpt>
      <trkpt lat="45.9571" lon="4.76">
        <ele>185</ele>
        <time>2016-11-19T09:18:24Z</time>
      </trkpt>
      <trkpt lat="45.95713" lon="4.76007">
        <ele>184</ele>
        <time>2016-11-19T09:18:25Z</time>
      </trkpt>
      <trkpt lat="45.95716" lon="4.76015">
        <ele>184</ele>
        <time>2016-11-19T09:18:26Z</time>
      </trkpt>
      <trkpt lat="45.9572" lon="4.76022">
        <ele>184</ele>
        <time>2016-11-19T09:18:27Z</time>
      </trkpt>
      <trkpt lat="45.95723" lon="4.76029">
        <ele>184</ele>
        <time>2016-11-19T09:18:28Z</time>
      </trkpt>
      <trkpt lat="45.95726" lon="4.76037">
        <ele>184</ele>
        <time>2016-11-19T09:18:29Z</time>
      </trkpt>
      <trkpt lat="45.9573" lon="4.76044">
        <ele>184</ele>
        <time>2016-11-19T09:18:30Z</time>
      </trkpt>
      <trkpt lat="45.95733" lon="4.76052">
        <ele>184</ele>
        <time>2016-11-19T09:18:31Z</time>
      </trkpt>
      <trkpt lat="45.95737" lon="4.7606">
        <ele>184</ele>
        <time>2016-11-19T09:18:32Z</time>
      </trkpt>
      <trkpt lat="45.9574" lon="4.76068">
        <ele>185</ele>
        <time>2016-11-19T09:18:33Z</time>
      </trkpt>
      <trkpt lat="45.95744" lon="4.76077">
        <ele>185</ele>
        <time>2016-11-19T09:18:34Z</time>
      </trkpt>
      <trkpt lat="45.95747" lon="4.76086">
        <ele>185</ele>
        <time>2016-11-19T09:18:35Z</time>
      </trkpt>
      <trkpt lat="45.9575" lon="4.76095">
        <ele>185</ele>
        <time>2016-11-19T09:18:36Z</time>
      </trkpt>
      <trkpt lat="45.95752" lon="4.76104">
        <ele>186</ele>
        <time>2016-11-19T09:18:37Z</time>
      </trkpt>
      <trkpt lat="45.95754" lon="4.76112">
        <ele>186</ele>
        <time>2016-11-19T09:18:38Z</time>
      </trkpt>
      <trkpt lat="45.95756" lon="4.76121">
        <ele>186</ele>
        <time>2016-11-19T09:18:39Z</time>
      </trkpt>
      <trkpt lat="45.95757" lon="4.76129">
        <ele>186</ele>
        <time>2016-11-19T09:18:40Z</time>
      </trkpt>
      <trkpt lat="45.95758" lon="4.76138">
        <ele>186</ele>
        <time>2016-11-19T09:18:41Z</time>
      </trkpt>
      <trkpt lat="45.95758" lon="4.76146">
        <ele>186</ele>
        <time>2016-11-19T09:18:42Z</time>
      </trkpt>
      <trkpt lat="45.95759" lon="4.76154">
        <ele>186</ele>
        <time>2016-11-19T09:18:43Z</time>
      </trkpt>
      <trkpt lat="45.9576" lon="4.76163">
        <ele>185</ele>
        <time>2016-11-19T09:18:44Z</time>
      </trkpt>
      <trkpt lat="45.9576" lon="4.76171">
        <ele>185</ele>
        <time>2016-11-19T09:18:45Z</time>
      </trkpt>
      <trkpt lat="45.95761" lon="4.7618">
        <ele>185</ele>
        <time>2016-11-19T09:18:46Z</time>
      </trkpt>
      <trkpt lat="45.95761" lon="4.76188">
        <ele>186</ele>
        <time>2016-11-19T09:18:47Z</time>
      </trkpt>
      <trkpt lat="45.95762" lon="4.76197">
        <ele>186</ele>
        <time>2016-11-19T09:18:48Z</time>
      </trkpt>
      <trkpt lat="45.9576" lon="4.76205">
        <ele>186</ele>
        <time>2016-11-19T09:18:49Z</time>
      </trkpt>
      <trkpt lat="45.95759" lon="4.76213">
        <ele>186</ele>
        <time>2016-11-19T09:18:50Z</time>
      </trkpt>
      <trkpt lat="45.95758" lon="4.76221">
        <ele>186</ele>
        <time>2016-11-19T09:18:51Z</time>
      </trkpt>
      <trkpt lat="45.95758" lon="4.7623">
        <ele>186</ele>
        <time>2016-11-19T09:18:52Z</time>
      </trkpt>
      <trkpt lat="45.95758" lon="4.76238">
        <ele>185</ele>
        <time>2016-11-19T09:18:53Z</time>
      </trkpt>
      <trkpt lat="45.95759" lon="4.76246">
        <ele>185</ele>
        <time>2016-11-19T09:18:54Z</time>
      </trkpt>
      <trkpt lat="45.9576" lon="4.76255">
        <ele>185</ele>
        <time>2016-11-19T09:18:55Z</time>
      </trkpt>
      <trkpt lat="45.95761" lon="4.76263">
        <ele>185</ele>
        <time>2016-11-19T09:18:56Z</time>
      </trkpt>
      <trkpt lat="45.95762" lon="4.76272">
        <ele>185</ele>
        <time>2016-11-19T09:18:57Z</time>
      </trkpt>
      <trkpt lat="45.95763" lon="4.7628">
        <ele>186</ele>
        <time>2016-11-19T09:18:58Z</time>
      </trkpt>
      <trkpt lat="45.95764" lon="4.76288">
        <ele>186</ele>
        <time>2016-11-19T09:18:59Z</time>
      </trkpt>
      <trkpt lat="45.95765" lon="4.76296">
        <ele>186</ele>
        <time>2016-11-19T09:19:00Z</time>
      </trkpt>
      <trkpt lat="45.95766" lon="4.76305">
        <ele>186</ele>
        <time>2016-11-19T09:19:01Z</time>
      </trkpt>
      <trkpt lat="45.95767" lon="4.76313">
        <ele>185</ele>
        <time>2016-11-19T09:19:02Z</time>
      </trkpt>
      <trkpt lat="45.95768" lon="4.76321">
        <ele>185</ele>
        <time>2016-11-19T09:19:03Z</time>
      </trkpt>
      <trkpt lat="45.95768" lon="4.76329">
        <ele>185</ele>
        <time>2016-11-19T09:19:04Z</time>
      </trkpt>
      <trkpt lat="45.95769" lon="4.76337">
        <ele>186</ele>
        <time>2016-11-19T09:19:05Z</time>
      </trkpt>
      <trkpt lat="45.95769" lon="4.76346">
        <ele>186</ele>
        <time>2016-11-19T09:19:06Z</time>
      </trkpt>
      <trkpt lat="45.9577" lon="4.76354">
        <ele>186</ele>
        <time>2016-11-19T09:19:07Z</time>
      </trkpt>
      <trkpt lat="45.95771" lon="4.76362">
        <ele>186</ele>
        <time>2016-11-19T09:19:08Z</time>
      </trkpt>
      <trkpt lat="45.95771" lon="4.7637">
        <ele>186</ele>
        <time>2016-11-19T09:19:09Z</time>
      </trkpt>
      <trkpt lat="45.95772" lon="4.76378">
        <ele>186</ele>
        <time>2016-11-19T09:19:10Z</time>
      </trkpt>
      <trkpt lat="45.95772" lon="4.76386">
        <ele>186</ele>
        <time>2016-11-19T09:19:11Z</time>
      </trkpt>
      <trkpt lat="45.95772" lon="4.76394">
        <ele>186</ele>
        <time>2016-11-19T09:19:12Z</time>
      </trkpt>
      <trkpt lat="45.95772" lon="4.76402">
        <ele>186</ele>
        <time>2016-11-19T09:19:13Z</time>
      </trkpt>
      <trkpt lat="45.95773" lon="4.7641">
        <ele>186</ele>
        <time>2016-11-19T09:19:14Z</time>
      </trkpt>
      <trkpt lat="45.95773" lon="4.76418">
        <ele>186</ele>
        <time>2016-11-19T09:19:15Z</time>
      </trkpt>
      <trkpt lat="45.95774" lon="4.76426">
        <ele>186</ele>
        <time>2016-11-19T09:19:16Z</time>
      </trkpt>
      <trkpt lat="45.95775" lon="4.76434">
        <ele>186</ele>
        <time>2016-11-19T09:19:17Z</time>
      </trkpt>
      <trkpt lat="45.95777" lon="4.76443">
        <ele>186</ele>
        <time>2016-11-19T09:19:18Z</time>
      </trkpt>
      <trkpt lat="45.95778" lon="4.76451">
        <ele>186</ele>
        <time>2016-11-19T09:19:19Z</time>
      </trkpt>
      <trkpt lat="45.95779" lon="4.76459">
        <ele>186</ele>
        <time>2016-11-19T09:19:20Z</time>
      </trkpt>
      <trkpt lat="45.9578" lon="4.76467">
        <ele>186</ele>
        <time>2016-11-19T09:19:21Z</time>
      </trkpt>
      <trkpt lat="45.95781" lon="4.76475">
        <ele>186</ele>
        <time>2016-11-19T09:19:22Z</time>
      </trkpt>
      <trkpt lat="45.95783" lon="4.76483">
        <ele>186</ele>
        <time>2016-11-19T09:19:23Z</time>
      </trkpt>
      <trkpt lat="45.95784" lon="4.76491">
        <ele>186</ele>
        <time>2016-11-19T09:19:24Z</time>
      </trkpt>
      <trkpt lat="45.95785" lon="4.76499">
        <ele>186</ele>
        <time>2016-11-19T09:19:25Z</time>
      </trkpt>
      <trkpt lat="45.95786" lon="4.76507">
        <ele>187</ele>
        <time>2016-11-19T09:19:26Z</time>
      </trkpt>
      <trkpt lat="45.95787" lon="4.76515">
        <ele>187</ele>
        <time>2016-11-19T09:19:27Z</time>
      </trkpt>
      <trkpt lat="45.95789" lon="4.76523">
        <ele>187</ele>
        <time>2016-11-19T09:19:28Z</time>
      </trkpt>
      <trkpt lat="45.95791" lon="4.76532">
        <ele>187</ele>
        <time>2016-11-19T09:19:29Z</time>
      </trkpt>
      <trkpt lat="45.95792" lon="4.7654">
        <ele>187</ele>
        <time>2016-11-19T09:19:30Z</time>
      </trkpt>
      <trkpt lat="45.95793" lon="4.76548">
        <ele>187</ele>
        <time>2016-11-19T09:19:31Z</time>
      </trkpt>
      <trkpt lat="45.95794" lon="4.76556">
        <ele>187</ele>
        <time>2016-11-19T09:19:32Z</time>
      </trkpt>
      <trkpt lat="45.95795" lon="4.76564">
        <ele>187</ele>
        <time>2016-11-19T09:19:33Z</time>
      </trkpt>
      <trkpt lat="45.95796" lon="4.76573">
        <ele>187</ele>
        <time>2016-11-19T09:19:34Z</time>
      </trkpt>
      <trkpt lat="45.95797" lon="4.76581">
        <ele>187</ele>
        <time>2016-11-19T09:19:35Z</time>
      </trkpt>
      <trkpt lat="45.95799" lon="4.76589">
        <ele>187</ele>
        <time>2016-11-19T09:19:36Z</time>
      </trkpt>
      <trkpt lat="45.958" lon="4.76597">
        <ele>187</ele>
        <time>2016-11-19T09:19:37Z</time>
      </trkpt>
      <trkpt lat="45.95801" lon="4.76605">
        <ele>187</ele>
        <time>2016-11-19T09:19:38Z</time>
      </trkpt>
      <trkpt lat="45.95803" lon="4.76614">
        <ele>188</ele>
        <time>2016-11-19T09:19:39Z</time>
      </trkpt>
      <trkpt lat="45.95804" lon="4.76622">
        <ele>188</ele>
        <time>2016-11-19T09:19:40Z</time>
      </trkpt>
      <trkpt lat="45.95805" lon="4.7663">
        <ele>188</ele>
        <time>2016-11-19T09:19:41Z</time>
      </trkpt>
      <trkpt lat="45.95807" lon="4.76638">
        <ele>188</ele>
        <time>2016-11-19T09:19:42Z</time>
      </trkpt>
      <trkpt lat="45.95808" lon="4.76646">
        <ele>188</ele>
        <time>2016-11-19T09:19:43Z</time>
      </trkpt>
      <trkpt lat="45.95809" lon="4.76654">
        <ele>188</ele>
        <time>2016-11-19T09:19:44Z</time>
      </trkpt>
      <trkpt lat="45.9581" lon="4.76663">
        <ele>188</ele>
        <time>2016-11-19T09:19:45Z</time>
      </trkpt>
      <trkpt lat="45.95811" lon="4.76671">
        <ele>189</ele>
        <time>2016-11-19T09:19:46Z</time>
      </trkpt>
      <trkpt lat="45.95812" lon="4.76679">
        <ele>189</ele>
        <time>2016-11-19T09:19:47Z</time>
      </trkpt>
      <trkpt lat="45.95813" lon="4.76687">
        <ele>189</ele>
        <time>2016-11-19T09:19:48Z</time>
      </trkpt>
      <trkpt lat="45.95814" lon="4.76695">
        <ele>189</ele>
        <time>2016-11-19T09:19:49Z</time>
      </trkpt>
      <trkpt lat="45.95815" lon="4.76703">
        <ele>189</ele>
        <time>2016-11-19T09:19:50Z</time>
      </trkpt>
      <trkpt lat="45.95816" lon="4.76712">
        <ele>189</ele>
        <time>2016-11-19T09:19:51Z</time>
      </trkpt>
      <trkpt lat="45.95817" lon="4.7672">
        <ele>189</ele>
        <time>2016-11-19T09:19:52Z</time>
      </trkpt>
      <trkpt lat="45.95818" lon="4.76728">
        <ele>190</ele>
        <time>2016-11-19T09:19:53Z</time>
      </trkpt>
      <trkpt lat="45.95819" lon="4.76737">
        <ele>190</ele>
        <time>2016-11-19T09:19:54Z</time>
      </trkpt>
      <trkpt lat="45.9582" lon="4.76745">
        <ele>190</ele>
        <time>2016-11-19T09:19:55Z</time>
      </trkpt>
      <trkpt lat="45.95821" lon="4.76753">
        <ele>190</ele>
        <time>2016-11-19T09:19:56Z</time>
      </trkpt>
      <trkpt lat="45.95823" lon="4.76761">
        <ele>190</ele>
        <time>2016-11-19T09:19:57Z</time>
      </trkpt>
      <trkpt lat="45.95824" lon="4.76768">
        <ele>190</ele>
        <time>2016-11-19T09:19:58Z</time>
      </trkpt>
      <trkpt lat="45.95825" lon="4.76776">
        <ele>190</ele>
        <time>2016-11-19T09:19:59Z</time>
      </trkpt>
      <trkpt lat="45.95826" lon="4.76784">
        <ele>190</ele>
        <time>2016-11-19T09:20:00Z</time>
      </trkpt>
      <trkpt lat="45.95827" lon="4.76792">
        <ele>190</ele>
        <time>2016-11-19T09:20:01Z</time>
      </trkpt>
      <trkpt lat="45.95827" lon="4.768">
        <ele>190</ele>
        <time>2016-11-19T09:20:02Z</time>
      </trkpt>
      <trkpt lat="45.95827" lon="4.76808">
        <ele>190</ele>
        <time>2016-11-19T09:20:03Z</time>
      </trkpt>
      <trkpt lat="45.95827" lon="4.76816">
        <ele>190</ele>
        <time>2016-11-19T09:20:04Z</time>
      </trkpt>
      <trkpt lat="45.95826" lon="4.76825">
        <ele>190</ele>
        <time>2016-11-19T09:20:05Z</time>
      </trkpt>
      <trkpt lat="45.95825" lon="4.76833">
        <ele>190</ele>
        <time>2016-11-19T09:20:06Z</time>
      </trkpt>
      <trkpt lat="45.95824" lon="4.76841">
        <ele>190</ele>
        <time>2016-11-19T09:20:07Z</time>
      </trkpt>
      <trkpt lat="45.95823" lon="4.76849">
        <ele>190</ele>
        <time>2016-11-19T09:20:08Z</time>
      </trkpt>
      <trkpt lat="45.95821" lon="4.76858">
        <ele>189</ele>
        <time>2016-11-19T09:20:09Z</time>
      </trkpt>
      <trkpt lat="45.9582" lon="4.76866">
        <ele>189</ele>
        <time>2016-11-19T09:20:10Z</time>
      </trkpt>
      <trkpt lat="45.95819" lon="4.76874">
        <ele>189</ele>
        <time>2016-11-19T09:20:11Z</time>
      </trkpt>
      <trkpt lat="45.95817" lon="4.76882">
        <ele>189</ele>
        <time>2016-11-19T09:20:12Z</time>
      </trkpt>
      <trkpt lat="45.95815" lon="4.7689">
        <ele>189</ele>
        <time>2016-11-19T09:20:13Z</time>
      </trkpt>
      <trkpt lat="45.95814" lon="4.76898">
        <ele>189</ele>
        <time>2016-11-19T09:20:14Z</time>
      </trkpt>
      <trkpt lat="45.95812" lon="4.76906">
        <ele>189</ele>
        <time>2016-11-19T09:20:15Z</time>
      </trkpt>
      <trkpt lat="45.95811" lon="4.76914">
        <ele>189</ele>
        <time>2016-11-19T09:20:16Z</time>
      </trkpt>
      <trkpt lat="45.95809" lon="4.76922">
        <ele>189</ele>
        <time>2016-11-19T09:20:17Z</time>
      </trkpt>
      <trkpt lat="45.95807" lon="4.7693">
        <ele>189</ele>
        <time>2016-11-19T09:20:18Z</time>
      </trkpt>
      <trkpt lat="45.95806" lon="4.76938">
        <ele>189</ele>
        <time>2016-11-19T09:20:19Z</time>
      </trkpt>
      <trkpt lat="45.95804" lon="4.76946">
        <ele>189</ele>
        <time>2016-11-19T09:20:20Z</time>
      </trkpt>
      <trkpt lat="45.95803" lon="4.76954">
        <ele>189</ele>
        <time>2016-11-19T09:20:21Z</time>
      </trkpt>
      <trkpt lat="45.95802" lon="4.76962">
        <ele>189</ele>
        <time>2016-11-19T09:20:22Z</time>
      </trkpt>
      <trkpt lat="45.95801" lon="4.7697">
        <ele>189</ele>
        <time>2016-11-19T09:20:23Z</time>
      </trkpt>
      <trkpt lat="45.958" lon="4.76978">
        <ele>189</ele>
        <time>2016-11-19T09:20:24Z</time>
      </trkpt>
      <trkpt lat="45.95799" lon="4.76987">
        <ele>189</ele>
        <time>2016-11-19T09:20:25Z</time>
      </trkpt>
      <trkpt lat="45.958" lon="4.76995">
        <ele>189</ele>
        <time>2016-11-19T09:20:26Z</time>
      </trkpt>
      <trkpt lat="45.95801" lon="4.77003">
        <ele>190</ele>
        <time>2016-11-19T09:20:27Z</time>
      </trkpt>
      <trkpt lat="45.95803" lon="4.77011">
        <ele>190</ele>
        <time>2016-11-19T09:20:28Z</time>
      </trkpt>
      <trkpt lat="45.95805" lon="4.77019">
        <ele>190</ele>
        <time>2016-11-19T09:20:29Z</time>
      </trkpt>
      <trkpt lat="45.95807" lon="4.77027">
        <ele>190</ele>
        <time>2016-11-19T09:20:30Z</time>
      </trkpt>
      <trkpt lat="45.95809" lon="4.77034">
        <ele>190</ele>
        <time>2016-11-19T09:20:31Z</time>
      </trkpt>
      <trkpt lat="45.95812" lon="4.77041">
        <ele>190</ele>
        <time>2016-11-19T09:20:32Z</time>
      </trkpt>
      <trkpt lat="45.95816" lon="4.77048">
        <ele>190</ele>
        <time>2016-11-19T09:20:33Z</time>
      </trkpt>
      <trkpt lat="45.95819" lon="4.77055">
        <ele>190</ele>
        <time>2016-11-19T09:20:34Z</time>
      </trkpt>
      <trkpt lat="45.95822" lon="4.77063">
        <ele>190</ele>
        <time>2016-11-19T09:20:35Z</time>
      </trkpt>
      <trkpt lat="45.95825" lon="4.7707">
        <ele>191</ele>
        <time>2016-11-19T09:20:36Z</time>
      </trkpt>
      <trkpt lat="45.95827" lon="4.77078">
        <ele>191</ele>
        <time>2016-11-19T09:20:37Z</time>
      </trkpt>
      <trkpt lat="45.95831" lon="4.77085">
        <ele>192</ele>
        <time>2016-11-19T09:20:38Z</time>
      </trkpt>
      <trkpt lat="45.95834" lon="4.77092">
        <ele>192</ele>
        <time>2016-11-19T09:20:39Z</time>
      </trkpt>
      <trkpt lat="45.95836" lon="4.77099">
        <ele>193</ele>
        <time>2016-11-19T09:20:40Z</time>
      </trkpt>
      <trkpt lat="45.95839" lon="4.77106">
        <ele>193</ele>
        <time>2016-11-19T09:20:41Z</time>
      </trkpt>
      <trkpt lat="45.95842" lon="4.77113">
        <ele>193</ele>
        <time>2016-11-19T09:20:42Z</time>
      </trkpt>
      <trkpt lat="45.95844" lon="4.77121">
        <ele>193</ele>
        <time>2016-11-19T09:20:43Z</time>
      </trkpt>
      <trkpt lat="45.95845" lon="4.77128">
        <ele>193</ele>
        <time>2016-11-19T09:20:44Z</time>
      </trkpt>
      <trkpt lat="45.95847" lon="4.77136">
        <ele>193</ele>
        <time>2016-11-19T09:20:45Z</time>
      </trkpt>
      <trkpt lat="45.9585" lon="4.77143">
        <ele>193</ele>
        <time>2016-11-19T09:20:46Z</time>
      </trkpt>
      <trkpt lat="45.95852" lon="4.77151">
        <ele>192</ele>
        <time>2016-11-19T09:20:47Z</time>
      </trkpt>
      <trkpt lat="45.95854" lon="4.77159">
        <ele>192</ele>
        <time>2016-11-19T09:20:48Z</time>
      </trkpt>
      <trkpt lat="45.95856" lon="4.77167">
        <ele>192</ele>
        <time>2016-11-19T09:20:49Z</time>
      </trkpt>
      <trkpt lat="45.95858" lon="4.77175">
        <ele>192</ele>
        <time>2016-11-19T09:20:50Z</time>
      </trkpt>
      <trkpt lat="45.9586" lon="4.77183">
        <ele>192</ele>
        <time>2016-11-19T09:20:51Z</time>
      </trkpt>
      <trkpt lat="45.95862" lon="4.7719">
        <ele>192</ele>
        <time>2016-11-19T09:20:52Z</time>
      </trkpt>
      <trkpt lat="45.95864" lon="4.77198">
        <ele>193</ele>
        <time>2016-11-19T09:20:53Z</time>
      </trkpt>
      <trkpt lat="45.95865" lon="4.77206">
        <ele>193</ele>
        <time>2016-11-19T09:20:54Z</time>
      </trkpt>
      <trkpt lat="45.95867" lon="4.77214">
        <ele>193</ele>
        <time>2016-11-19T09:20:55Z</time>
      </trkpt>
      <trkpt lat="45.95869" lon="4.77222">
        <ele>193</ele>
        <time>2016-11-19T09:20:56Z</time>
      </trkpt>
      <trkpt lat="45.9587" lon="4.77229">
        <ele>193</ele>
        <time>2016-11-19T09:20:57Z</time>
      </trkpt>
      <trkpt lat="45.95872" lon="4.77237">
        <ele>193</ele>
        <time>2016-11-19T09:20:58Z</time>
      </trkpt>
      <trkpt lat="45.95874" lon="4.77245">
        <ele>193</ele>
        <time>2016-11-19T09:20:59Z</time>
      </trkpt>
      <trkpt lat="45.95875" lon="4.77252">
        <ele>193</ele>
        <time>2016-11-19T09:21:00Z</time>
      </trkpt>
      <trkpt lat="45.95877" lon="4.7726">
        <ele>193</ele>
        <time>2016-11-19T09:21:01Z</time>
      </trkpt>
      <trkpt lat="45.95878" lon="4.77267">
        <ele>193</ele>
        <time>2016-11-19T09:21:02Z</time>
      </trkpt>
      <trkpt lat="45.9588" lon="4.77274">
        <ele>193</ele>
        <time>2016-11-19T09:21:03Z</time>
      </trkpt>
      <trkpt lat="45.95881" lon="4.77282">
        <ele>193</ele>
        <time>2016-11-19T09:21:04Z</time>
      </trkpt>
      <trkpt lat="45.95883" lon="4.77289">
        <ele>193</ele>
        <time>2016-11-19T09:21:05Z</time>
      </trkpt>
      <trkpt lat="45.95885" lon="4.77296">
        <ele>193</ele>
        <time>2016-11-19T09:21:06Z</time>
      </trkpt>
      <trkpt lat="45.95886" lon="4.77304">
        <ele>193</ele>
        <time>2016-11-19T09:21:07Z</time>
      </trkpt>
      <trkpt lat="45.95888" lon="4.77311">
        <ele>193</ele>
        <time>2016-11-19T09:21:08Z</time>
      </trkpt>
      <trkpt lat="45.9589" lon="4.77319">
        <ele>193</ele>
        <time>2016-11-19T09:21:09Z</time>
      </trkpt>
      <trkpt lat="45.95892" lon="4.77327">
        <ele>193</ele>
        <time>2016-11-19T09:21:10Z</time>
      </trkpt>
      <trkpt lat="45.95895" lon="4.77335">
        <ele>193</ele>
        <time>2016-11-19T09:21:11Z</time>
      </trkpt>
      <trkpt lat="45.95897" lon="4.77342">
        <ele>193</ele>
        <time>2016-11-19T09:21:12Z</time>
      </trkpt>
      <trkpt lat="45.959" lon="4.7735">
        <ele>193</ele>
        <time>2016-11-19T09:21:13Z</time>
      </trkpt>
      <trkpt lat="45.95903" lon="4.77357">
        <ele>193</ele>
        <time>2016-11-19T09:21:14Z</time>
      </trkpt>
      <trkpt lat="45.95905" lon="4.77364">
        <ele>193</ele>
        <time>2016-11-19T09:21:15Z</time>
      </trkpt>
      <trkpt lat="45.95907" lon="4.7737">
        <ele>193</ele>
        <time>2016-11-19T09:21:16Z</time>
      </trkpt>
      <trkpt lat="45.9591" lon="4.77377">
        <ele>193</ele>
        <time>2016-11-19T09:21:17Z</time>
      </trkpt>
      <trkpt lat="45.95912" lon="4.77383">
        <ele>193</ele>
        <time>2016-11-19T09:21:18Z</time>
      </trkpt>
      <trkpt lat="45.95914" lon="4.77389">
        <ele>193</ele>
        <time>2016-11-19T09:21:19Z</time>
      </trkpt>
      <trkpt lat="45.95917" lon="4.77395">
        <ele>193</ele>
        <time>2016-11-19T09:21:20Z</time>
      </trkpt>
      <trkpt lat="45.95919" lon="4.77402">
        <ele>195</ele>
        <time>2016-11-19T09:21:21Z</time>
      </trkpt>
      <trkpt lat="45.95922" lon="4.77408">
        <ele>195</ele>
        <time>2016-11-19T09:21:22Z</time>
      </trkpt>
      <trkpt lat="45.95924" lon="4.77414">
        <ele>195</ele>
        <time>2016-11-19T09:21:23Z</time>
      </trkpt>
      <trkpt lat="45.95926" lon="4.77421">
        <ele>195</ele>
        <time>2016-11-19T09:21:24Z</time>
      </trkpt>
      <trkpt lat="45.95928" lon="4.77427">
        <ele>195</ele>
        <time>2016-11-19T09:21:25Z</time>
      </trkpt>
      <trkpt lat="45.9593" lon="4.77434">
        <ele>195</ele>
        <time>2016-11-19T09:21:26Z</time>
      </trkpt>
      <trkpt lat="45.95933" lon="4.7744">
        <ele>195</ele>
        <time>2016-11-19T09:21:27Z</time>
      </trkpt>
      <trkpt lat="45.95935" lon="4.77447">
        <ele>195</ele>
        <time>2016-11-19T09:21:28Z</time>
      </trkpt>
      <trkpt lat="45.95938" lon="4.77455">
        <ele>195</ele>
        <time>2016-11-19T09:21:29Z</time>
      </trkpt>
      <trkpt lat="45.9594" lon="4.77462">
        <ele>195</ele>
        <time>2016-11-19T09:21:30Z</time>
      </trkpt>
      <trkpt lat="45.95942" lon="4.77469">
        <ele>195</ele>
        <time>2016-11-19T09:21:31Z</time>
      </trkpt>
      <trkpt lat="45.95945" lon="4.77476">
        <ele>195</ele>
        <time>2016-11-19T09:21:32Z</time>
      </trkpt>
      <trkpt lat="45.95948" lon="4.77483">
        <ele>195</ele>
        <time>2016-11-19T09:21:33Z</time>
      </trkpt>
      <trkpt lat="45.9595" lon="4.7749">
        <ele>195</ele>
        <time>2016-11-19T09:21:34Z</time>
      </trkpt>
      <trkpt lat="45.95952" lon="4.77498">
        <ele>195</ele>
        <time>2016-11-19T09:21:35Z</time>
      </trkpt>
      <trkpt lat="45.95955" lon="4.77504">
        <ele>195</ele>
        <time>2016-11-19T09:21:36Z</time>
      </trkpt>
      <trkpt lat="45.95957" lon="4.77511">
        <ele>195</ele>
        <time>2016-11-19T09:21:37Z</time>
      </trkpt>
      <trkpt lat="45.95959" lon="4.77517">
        <ele>195</ele>
        <time>2016-11-19T09:21:38Z</time>
      </trkpt>
      <trkpt lat="45.95962" lon="4.77523">
        <ele>195</ele>
        <time>2016-11-19T09:21:39Z</time>
      </trkpt>
      <trkpt lat="45.95965" lon="4.77529">
        <ele>195</ele>
        <time>2016-11-19T09:21:40Z</time>
      </trkpt>
      <trkpt lat="45.95967" lon="4.77534">
        <ele>195</ele>
        <time>2016-11-19T09:21:41Z</time>
      </trkpt>
      <trkpt lat="45.95972" lon="4.77544">
        <ele>195</ele>
        <time>2016-11-19T09:21:43Z</time>
      </trkpt>
      <trkpt lat="45.95975" lon="4.77549">
        <ele>195</ele>
        <time>2016-11-19T09:21:44Z</time>
      </trkpt>
      <trkpt lat="45.95979" lon="4.77559">
        <ele>195</ele>
        <time>2016-11-19T09:21:46Z</time>
      </trkpt>
      <trkpt lat="45.95982" lon="4.77565">
        <ele>196</ele>
        <time>2016-11-19T09:21:47Z</time>
      </trkpt>
      <trkpt lat="45.95986" lon="4.7757">
        <ele>196</ele>
        <time>2016-11-19T09:21:48Z</time>
      </trkpt>
      <trkpt lat="45.95989" lon="4.77576">
        <ele>196</ele>
        <time>2016-11-19T09:21:49Z</time>
      </trkpt>
      <trkpt lat="45.95991" lon="4.77582">
        <ele>196</ele>
        <time>2016-11-19T09:21:50Z</time>
      </trkpt>
      <trkpt lat="45.95994" lon="4.77589">
        <ele>196</ele>
        <time>2016-11-19T09:21:51Z</time>
      </trkpt>
      <trkpt lat="45.95998" lon="4.77595">
        <ele>196</ele>
        <time>2016-11-19T09:21:52Z</time>
      </trkpt>
      <trkpt lat="45.96001" lon="4.776">
        <ele>198</ele>
        <time>2016-11-19T09:21:53Z</time>
      </trkpt>
      <trkpt lat="45.96005" lon="4.77605">
        <ele>198</ele>
        <time>2016-11-19T09:21:54Z</time>
      </trkpt>
      <trkpt lat="45.96009" lon="4.77609">
        <ele>199</ele>
        <time>2016-11-19T09:21:55Z</time>
      </trkpt>
      <trkpt lat="45.96014" lon="4.77614">
        <ele>199</ele>
        <time>2016-11-19T09:21:56Z</time>
      </trkpt>
      <trkpt lat="45.96018" lon="4.77618">
        <ele>199</ele>
        <time>2016-11-19T09:21:57Z</time>
      </trkpt>
      <trkpt lat="45.96022" lon="4.77623">
        <ele>199</ele>
        <time>2016-11-19T09:21:58Z</time>
      </trkpt>
      <trkpt lat="45.96027" lon="4.77628">
        <ele>199</ele>
        <time>2016-11-19T09:21:59Z</time>
      </trkpt>
      <trkpt lat="45.96031" lon="4.77633">
        <ele>199</ele>
        <time>2016-11-19T09:22:00Z</time>
      </trkpt>
      <trkpt lat="45.96035" lon="4.77637">
        <ele>199</ele>
        <time>2016-11-19T09:22:01Z</time>
      </trkpt>
      <trkpt lat="45.96038" lon="4.77642">
        <ele>199</ele>
        <time>2016-11-19T09:22:02Z</time>
      </trkpt>
      <trkpt lat="45.96042" lon="4.77647">
        <ele>199</ele>
        <time>2016-11-19T09:22:03Z</time>
      </trkpt>
      <trkpt lat="45.96046" lon="4.77651">
        <ele>199</ele>
        <time>2016-11-19T09:22:04Z</time>
      </trkpt>
      <trkpt lat="45.9605" lon="4.77656">
        <ele>200</ele>
        <time>2016-11-19T09:22:05Z</time>
      </trkpt>
      <trkpt lat="45.96054" lon="4.77661">
        <ele>200</ele>
        <time>2016-11-19T09:22:06Z</time>
      </trkpt>
      <trkpt lat="45.96057" lon="4.77666">
        <ele>200</ele>
        <time>2016-11-19T09:22:07Z</time>
      </trkpt>
      <trkpt lat="45.96062" lon="4.77671">
        <ele>198</ele>
        <time>2016-11-19T09:22:08Z</time>
      </trkpt>
      <trkpt lat="45.96065" lon="4.77676">
        <ele>198</ele>
        <time>2016-11-19T09:22:09Z</time>
      </trkpt>
      <trkpt lat="45.96069" lon="4.77682">
        <ele>198</ele>
        <time>2016-11-19T09:22:10Z</time>
      </trkpt>
      <trkpt lat="45.96071" lon="4.77687">
        <ele>198</ele>
        <time>2016-11-19T09:22:11Z</time>
      </trkpt>
      <trkpt lat="45.96074" lon="4.77693">
        <ele>197</ele>
        <time>2016-11-19T09:22:12Z</time>
      </trkpt>
      <trkpt lat="45.96078" lon="4.77698">
        <ele>197</ele>
        <time>2016-11-19T09:22:13Z</time>
      </trkpt>
      <trkpt lat="45.96081" lon="4.77704">
        <ele>197</ele>
        <time>2016-11-19T09:22:14Z</time>
      </trkpt>
      <trkpt lat="45.96085" lon="4.77709">
        <ele>200</ele>
        <time>2016-11-19T09:22:15Z</time>
      </trkpt>
      <trkpt lat="45.96088" lon="4.77715">
        <ele>199</ele>
        <time>2016-11-19T09:22:16Z</time>
      </trkpt>
      <trkpt lat="45.96091" lon="4.7772">
        <ele>199</ele>
        <time>2016-11-19T09:22:17Z</time>
      </trkpt>
      <trkpt lat="45.96094" lon="4.77726">
        <ele>199</ele>
        <time>2016-11-19T09:22:18Z</time>
      </trkpt>
      <trkpt lat="45.96097" lon="4.77731">
        <ele>199</ele>
        <time>2016-11-19T09:22:19Z</time>
      </trkpt>
      <trkpt lat="45.96101" lon="4.77736">
        <ele>198</ele>
        <time>2016-11-19T09:22:20Z</time>
      </trkpt>
      <trkpt lat="45.96104" lon="4.77741">
        <ele>198</ele>
        <time>2016-11-19T09:22:21Z</time>
      </trkpt>
      <trkpt lat="45.96107" lon="4.77746">
        <ele>199</ele>
        <time>2016-11-19T09:22:22Z</time>
      </trkpt>
      <trkpt lat="45.9611" lon="4.77752">
        <ele>197</ele>
        <time>2016-11-19T09:22:23Z</time>
      </trkpt>
      <trkpt lat="45.96113" lon="4.77756">
        <ele>197</ele>
        <time>2016-11-19T09:22:24Z</time>
      </trkpt>
      <trkpt lat="45.96116" lon="4.77761">
        <ele>197</ele>
        <time>2016-11-19T09:22:25Z</time>
      </trkpt>
      <trkpt lat="45.96122" lon="4.77771">
        <ele>197</ele>
        <time>2016-11-19T09:22:27Z</time>
      </trkpt>
      <trkpt lat="45.96126" lon="4.77776">
        <ele>197</ele>
        <time>2016-11-19T09:22:28Z</time>
      </trkpt>
      <trkpt lat="45.96129" lon="4.77782">
        <ele>198</ele>
        <time>2016-11-19T09:22:29Z</time>
      </trkpt>
      <trkpt lat="45.96132" lon="4.77788">
        <ele>198</ele>
        <time>2016-11-19T09:22:30Z</time>
      </trkpt>
      <trkpt lat="45.96136" lon="4.77795">
        <ele>198</ele>
        <time>2016-11-19T09:22:31Z</time>
      </trkpt>
      <trkpt lat="45.9614" lon="4.77802">
        <ele>198</ele>
        <time>2016-11-19T09:22:32Z</time>
      </trkpt>
      <trkpt lat="45.96144" lon="4.77808">
        <ele>198</ele>
        <time>2016-11-19T09:22:33Z</time>
      </trkpt>
      <trkpt lat="45.96148" lon="4.77815">
        <ele>198</ele>
        <time>2016-11-19T09:22:34Z</time>
      </trkpt>
      <trkpt lat="45.96151" lon="4.77821">
        <ele>198</ele>
        <time>2016-11-19T09:22:35Z</time>
      </trkpt>
      <trkpt lat="45.96155" lon="4.77828">
        <ele>198</ele>
        <time>2016-11-19T09:22:36Z</time>
      </trkpt>
      <trkpt lat="45.96158" lon="4.77834">
        <ele>198</ele>
        <time>2016-11-19T09:22:37Z</time>
      </trkpt>
      <trkpt lat="45.96162" lon="4.77839">
        <ele>198</ele>
        <time>2016-11-19T09:22:38Z</time>
      </trkpt>
      <trkpt lat="45.96165" lon="4.77845">
        <ele>197</ele>
        <time>2016-11-19T09:22:39Z</time>
      </trkpt>
      <trkpt lat="45.96169" lon="4.7785">
        <ele>201</ele>
        <time>2016-11-19T09:22:40Z</time>
      </trkpt>
      <trkpt lat="45.96172" lon="4.77855">
        <ele>201</ele>
        <time>2016-11-19T09:22:41Z</time>
      </trkpt>
      <trkpt lat="45.96174" lon="4.77861">
        <ele>201</ele>
        <time>2016-11-19T09:22:42Z</time>
      </trkpt>
      <trkpt lat="45.96177" lon="4.77866">
        <ele>201</ele>
        <time>2016-11-19T09:22:43Z</time>
      </trkpt>
      <trkpt lat="45.9618" lon="4.77871">
        <ele>201</ele>
        <time>2016-11-19T09:22:44Z</time>
      </trkpt>
      <trkpt lat="45.96183" lon="4.77876">
        <ele>201</ele>
        <time>2016-11-19T09:22:45Z</time>
      </trkpt>
      <trkpt lat="45.96187" lon="4.77881">
        <ele>201</ele>
        <time>2016-11-19T09:22:46Z</time>
      </trkpt>
      <trkpt lat="45.9619" lon="4.77886">
        <ele>201</ele>
        <time>2016-11-19T09:22:47Z</time>
      </trkpt>
      <trkpt lat="45.96193" lon="4.77891">
        <ele>201</ele>
        <time>2016-11-19T09:22:48Z</time>
      </trkpt>
      <trkpt lat="45.96197" lon="4.77897">
        <ele>201</ele>
        <time>2016-11-19T09:22:49Z</time>
      </trkpt>
      <trkpt lat="45.962" lon="4.77902">
        <ele>201</ele>
        <time>2016-11-19T09:22:50Z</time>
      </trkpt>
      <trkpt lat="45.96203" lon="4.77908">
        <ele>202</ele>
        <time>2016-11-19T09:22:51Z</time>
      </trkpt>
      <trkpt lat="45.96207" lon="4.77914">
        <ele>202</ele>
        <time>2016-11-19T09:22:52Z</time>
      </trkpt>
      <trkpt lat="45.9621" lon="4.77919">
        <ele>199</ele>
        <time>2016-11-19T09:22:53Z</time>
      </trkpt>
      <trkpt lat="45.96214" lon="4.77925">
        <ele>200</ele>
        <time>2016-11-19T09:22:54Z</time>
      </trkpt>
      <trkpt lat="45.96218" lon="4.77931">
        <ele>200</ele>
        <time>2016-11-19T09:22:55Z</time>
      </trkpt>
      <trkpt lat="45.96222" lon="4.77937">
        <ele>200</ele>
        <time>2016-11-19T09:22:56Z</time>
      </trkpt>
      <trkpt lat="45.96225" lon="4.77944">
        <ele>200</ele>
        <time>2016-11-19T09:22:57Z</time>
      </trkpt>
      <trkpt lat="45.96229" lon="4.77949">
        <ele>199</ele>
        <time>2016-11-19T09:22:58Z</time>
      </trkpt>
      <trkpt lat="45.96234" lon="4.77955">
        <ele>199</ele>
        <time>2016-11-19T09:22:59Z</time>
      </trkpt>
      <trkpt lat="45.96238" lon="4.7796">
        <ele>199</ele>
        <time>2016-11-19T09:23:00Z</time>
      </trkpt>
      <trkpt lat="45.96243" lon="4.77965">
        <ele>199</ele>
        <time>2016-11-19T09:23:01Z</time>
      </trkpt>
      <trkpt lat="45.96248" lon="4.77969">
        <ele>198</ele>
        <time>2016-11-19T09:23:02Z</time>
      </trkpt>
      <trkpt lat="45.96254" lon="4.77974">
        <ele>203</ele>
        <time>2016-11-19T09:23:03Z</time>
      </trkpt>
      <trkpt lat="45.96259" lon="4.77979">
        <ele>202</ele>
        <time>2016-11-19T09:23:04Z</time>
      </trkpt>
      <trkpt lat="45.96264" lon="4.77983">
        <ele>202</ele>
        <time>2016-11-19T09:23:05Z</time>
      </trkpt>
      <trkpt lat="45.96269" lon="4.77988">
        <ele>202</ele>
        <time>2016-11-19T09:23:06Z</time>
      </trkpt>
      <trkpt lat="45.96273" lon="4.77992">
        <ele>202</ele>
        <time>2016-11-19T09:23:07Z</time>
      </trkpt>
      <trkpt lat="45.96278" lon="4.77997">
        <ele>203</ele>
        <time>2016-11-19T09:23:08Z</time>
      </trkpt>
      <trkpt lat="45.96284" lon="4.78001">
        <ele>198</ele>
        <time>2016-11-19T09:23:09Z</time>
      </trkpt>
      <trkpt lat="45.96289" lon="4.78006">
        <ele>199</ele>
        <time>2016-11-19T09:23:10Z</time>
      </trkpt>
      <trkpt lat="45.96295" lon="4.7801">
        <ele>199</ele>
        <time>2016-11-19T09:23:11Z</time>
      </trkpt>
      <trkpt lat="45.96298" lon="4.78014">
        <ele>199</ele>
        <time>2016-11-19T09:23:12Z</time>
      </trkpt>
      <trkpt lat="45.96301" lon="4.78019">
        <ele>199</ele>
        <time>2016-11-19T09:23:13Z</time>
      </trkpt>
      <trkpt lat="45.96305" lon="4.78024">
        <ele>200</ele>
        <time>2016-11-19T09:23:14Z</time>
      </trkpt>
      <trkpt lat="45.9631" lon="4.78029">
        <ele>199</ele>
        <time>2016-11-19T09:23:15Z</time>
      </trkpt>
      <trkpt lat="45.96314" lon="4.78035">
        <ele>199</ele>
        <time>2016-11-19T09:23:16Z</time>
      </trkpt>
      <trkpt lat="45.96318" lon="4.7804">
        <ele>199</ele>
        <time>2016-11-19T09:23:17Z</time>
      </trkpt>
      <trkpt lat="45.96323" lon="4.78045">
        <ele>199</ele>
        <time>2016-11-19T09:23:18Z</time>
      </trkpt>
      <trkpt lat="45.96328" lon="4.78051">
        <ele>199</ele>
        <time>2016-11-19T09:23:19Z</time>
      </trkpt>
      <trkpt lat="45.96332" lon="4.78057">
        <ele>199</ele>
        <time>2016-11-19T09:23:20Z</time>
      </trkpt>
      <trkpt lat="45.96336" lon="4.78062">
        <ele>201</ele>
        <time>2016-11-19T09:23:21Z</time>
      </trkpt>
      <trkpt lat="45.9634" lon="4.78067">
        <ele>201</ele>
        <time>2016-11-19T09:23:22Z</time>
      </trkpt>
      <trkpt lat="45.96344" lon="4.78072">
        <ele>201</ele>
        <time>2016-11-19T09:23:23Z</time>
      </trkpt>
      <trkpt lat="45.96349" lon="4.78076">
        <ele>201</ele>
        <time>2016-11-19T09:23:24Z</time>
      </trkpt>
      <trkpt lat="45.96354" lon="4.7808">
        <ele>201</ele>
        <time>2016-11-19T09:23:25Z</time>
      </trkpt>
      <trkpt lat="45.96358" lon="4.78085">
        <ele>199</ele>
        <time>2016-11-19T09:23:26Z</time>
      </trkpt>
      <trkpt lat="45.96362" lon="4.78089">
        <ele>199</ele>
        <time>2016-11-19T09:23:27Z</time>
      </trkpt>
      <trkpt lat="45.96366" lon="4.78093">
        <ele>199</ele>
        <time>2016-11-19T09:23:28Z</time>
      </trkpt>
      <trkpt lat="45.9637" lon="4.78098">
        <ele>199</ele>
        <time>2016-11-19T09:23:29Z</time>
      </trkpt>
      <trkpt lat="45.96375" lon="4.78102">
        <ele>200</ele>
        <time>2016-11-19T09:23:30Z</time>
      </trkpt>
      <trkpt lat="45.9638" lon="4.78106">
        <ele>200</ele>
        <time>2016-11-19T09:23:31Z</time>
      </trkpt>
      <trkpt lat="45.96384" lon="4.7811">
        <ele>200</ele>
        <time>2016-11-19T09:23:32Z</time>
      </trkpt>
      <trkpt lat="45.96388" lon="4.78114">
        <ele>200</ele>
        <time>2016-11-19T09:23:33Z</time>
      </trkpt>
      <trkpt lat="45.96393" lon="4.78118">
        <ele>200</ele>
        <time>2016-11-19T09:23:34Z</time>
      </trkpt>
      <trkpt lat="45.96397" lon="4.78121">
        <ele>200</ele>
        <time>2016-11-19T09:23:35Z</time>
      </trkpt>
      <trkpt lat="45.96402" lon="4.78126">
        <ele>200</ele>
        <time>2016-11-19T09:23:36Z</time>
      </trkpt>
      <trkpt lat="45.96408" lon="4.78131">
        <ele>199</ele>
        <time>2016-11-19T09:23:37Z</time>
      </trkpt>
      <trkpt lat="45.96412" lon="4.78136">
        <ele>199</ele>
        <time>2016-11-19T09:23:38Z</time>
      </trkpt>
      <trkpt lat="45.96416" lon="4.7814">
        <ele>199</ele>
        <time>2016-11-19T09:23:39Z</time>
      </trkpt>
      <trkpt lat="45.9642" lon="4.78144">
        <ele>202</ele>
        <time>2016-11-19T09:23:40Z</time>
      </trkpt>
      <trkpt lat="45.96424" lon="4.78147">
        <ele>202</ele>
        <time>2016-11-19T09:23:41Z</time>
      </trkpt>
      <trkpt lat="45.96429" lon="4.7815">
        <ele>202</ele>
        <time>2016-11-19T09:23:42Z</time>
      </trkpt>
      <trkpt lat="45.96433" lon="4.78155">
        <ele>202</ele>
        <time>2016-11-19T09:23:43Z</time>
      </trkpt>
      <trkpt lat="45.96438" lon="4.78159">
        <ele>202</ele>
        <time>2016-11-19T09:23:44Z</time>
      </trkpt>
      <trkpt lat="45.96442" lon="4.78164">
        <ele>203</ele>
        <time>2016-11-19T09:23:45Z</time>
      </trkpt>
      <trkpt lat="45.96447" lon="4.78168">
        <ele>199</ele>
        <time>2016-11-19T09:23:46Z</time>
      </trkpt>
      <trkpt lat="45.96451" lon="4.78172">
        <ele>199</ele>
        <time>2016-11-19T09:23:47Z</time>
      </trkpt>
      <trkpt lat="45.96456" lon="4.78176">
        <ele>200</ele>
        <time>2016-11-19T09:23:48Z</time>
      </trkpt>
      <trkpt lat="45.9646" lon="4.7818">
        <ele>200</ele>
        <time>2016-11-19T09:23:49Z</time>
      </trkpt>
      <trkpt lat="45.96466" lon="4.78183">
        <ele>200</ele>
        <time>2016-11-19T09:23:50Z</time>
      </trkpt>
      <trkpt lat="45.9647" lon="4.78186">
        <ele>200</ele>
        <time>2016-11-19T09:23:51Z</time>
      </trkpt>
      <trkpt lat="45.96474" lon="4.78189">
        <ele>200</ele>
        <time>2016-11-19T09:23:52Z</time>
      </trkpt>
      <trkpt lat="45.96479" lon="4.78192">
        <ele>200</ele>
        <time>2016-11-19T09:23:53Z</time>
      </trkpt>
      <trkpt lat="45.96483" lon="4.78194">
        <ele>200</ele>
        <time>2016-11-19T09:23:54Z</time>
      </trkpt>
      <trkpt lat="45.96491" lon="4.78199">
        <ele>200</ele>
        <time>2016-11-19T09:23:56Z</time>
      </trkpt>
      <trkpt lat="45.96495" lon="4.78202">
        <ele>200</ele>
        <time>2016-11-19T09:23:57Z</time>
      </trkpt>
      <trkpt lat="45.96502" lon="4.78209">
        <ele>205</ele>
        <time>2016-11-19T09:23:59Z</time>
      </trkpt>
      <trkpt lat="45.96506" lon="4.78214">
        <ele>205</ele>
        <time>2016-11-19T09:24:00Z</time>
      </trkpt>
      <trkpt lat="45.96509" lon="4.78219">
        <ele>204</ele>
        <time>2016-11-19T09:24:01Z</time>
      </trkpt>
      <trkpt lat="45.96512" lon="4.78224">
        <ele>204</ele>
        <time>2016-11-19T09:24:02Z</time>
      </trkpt>
      <trkpt lat="45.96515" lon="4.78229">
        <ele>204</ele>
        <time>2016-11-19T09:24:03Z</time>
      </trkpt>
      <trkpt lat="45.96518" lon="4.78234">
        <ele>203</ele>
        <time>2016-11-19T09:24:04Z</time>
      </trkpt>
      <trkpt lat="45.96521" lon="4.78239">
        <ele>203</ele>
        <time>2016-11-19T09:24:05Z</time>
      </trkpt>
      <trkpt lat="45.96525" lon="4.78245">
        <ele>203</ele>
        <time>2016-11-19T09:24:06Z</time>
      </trkpt>
      <trkpt lat="45.96528" lon="4.7825">
        <ele>204</ele>
        <time>2016-11-19T09:24:07Z</time>
      </trkpt>
      <trkpt lat="45.96531" lon="4.78256">
        <ele>200</ele>
        <time>2016-11-19T09:24:08Z</time>
      </trkpt>
      <trkpt lat="45.96535" lon="4.78261">
        <ele>200</ele>
        <time>2016-11-19T09:24:09Z</time>
      </trkpt>
      <trkpt lat="45.96538" lon="4.78266">
        <ele>200</ele>
        <time>2016-11-19T09:24:10Z</time>
      </trkpt>
      <trkpt lat="45.96542" lon="4.78271">
        <ele>200</ele>
        <time>2016-11-19T09:24:11Z</time>
      </trkpt>
      <trkpt lat="45.96545" lon="4.78277">
        <ele>200</ele>
        <time>2016-11-19T09:24:12Z</time>
      </trkpt>
      <trkpt lat="45.96549" lon="4.78282">
        <ele>200</ele>
        <time>2016-11-19T09:24:13Z</time>
      </trkpt>
      <trkpt lat="45.96553" lon="4.78286">
        <ele>200</ele>
        <time>2016-11-19T09:24:14Z</time>
      </trkpt>
      <trkpt lat="45.96557" lon="4.78291">
        <ele>200</ele>
        <time>2016-11-19T09:24:15Z</time>
      </trkpt>
      <trkpt lat="45.96561" lon="4.78295">
        <ele>200</ele>
        <time>2016-11-19T09:24:16Z</time>
      </trkpt>
      <trkpt lat="45.96565" lon="4.783">
        <ele>200</ele>
        <time>2016-11-19T09:24:17Z</time>
      </trkpt>
      <trkpt lat="45.96569" lon="4.78304">
        <ele>200</ele>
        <time>2016-11-19T09:24:18Z</time>
      </trkpt>
      <trkpt lat="45.96573" lon="4.78308">
        <ele>200</ele>
        <time>2016-11-19T09:24:19Z</time>
      </trkpt>
      <trkpt lat="45.96577" lon="4.78313">
        <ele>199</ele>
        <time>2016-11-19T09:24:20Z</time>
      </trkpt>
      <trkpt lat="45.96581" lon="4.78317">
        <ele>199</ele>
        <time>2016-11-19T09:24:21Z</time>
      </trkpt>
      <trkpt lat="45.96585" lon="4.78321">
        <ele>201</ele>
        <time>2016-11-19T09:24:22Z</time>
      </trkpt>
      <trkpt lat="45.96589" lon="4.78325">
        <ele>201</ele>
        <time>2016-11-19T09:24:23Z</time>
      </trkpt>
      <trkpt lat="45.96592" lon="4.7833">
        <ele>201</ele>
        <time>2016-11-19T09:24:24Z</time>
      </trkpt>
      <trkpt lat="45.96597" lon="4.78334">
        <ele>199</ele>
        <time>2016-11-19T09:24:25Z</time>
      </trkpt>
      <trkpt lat="45.96601" lon="4.78338">
        <ele>200</ele>
        <time>2016-11-19T09:24:26Z</time>
      </trkpt>
      <trkpt lat="45.96605" lon="4.78341">
        <ele>200</ele>
        <time>2016-11-19T09:24:27Z</time>
      </trkpt>
      <trkpt lat="45.96609" lon="4.78345">
        <ele>200</ele>
        <time>2016-11-19T09:24:28Z</time>
      </trkpt>
      <trkpt lat="45.96613" lon="4.78349">
        <ele>200</ele>
        <time>2016-11-19T09:24:29Z</time>
      </trkpt>
      <trkpt lat="45.96617" lon="4.78353">
        <ele>201</ele>
        <time>2016-11-19T09:24:30Z</time>
      </trkpt>
      <trkpt lat="45.96621" lon="4.78356">
        <ele>201</ele>
        <time>2016-11-19T09:24:31Z</time>
      </trkpt>
      <trkpt lat="45.96625" lon="4.7836">
        <ele>201</ele>
        <time>2016-11-19T09:24:32Z</time>
      </trkpt>
      <trkpt lat="45.96629" lon="4.78364">
        <ele>201</ele>
        <time>2016-11-19T09:24:33Z</time>
      </trkpt>
      <trkpt lat="45.96633" lon="4.78367">
        <ele>201</ele>
        <time>2016-11-19T09:24:34Z</time>
      </trkpt>
      <trkpt lat="45.96638" lon="4.78371">
        <ele>201</ele>
        <time>2016-11-19T09:24:35Z</time>
      </trkpt>
      <trkpt lat="45.96642" lon="4.78374">
        <ele>201</ele>
        <time>2016-11-19T09:24:36Z</time>
      </trkpt>
      <trkpt lat="45.96646" lon="4.78378">
        <ele>201</ele>
        <time>2016-11-19T09:24:37Z</time>
      </trkpt>
      <trkpt lat="45.9665" lon="4.78382">
        <ele>201</ele>
        <time>2016-11-19T09:24:38Z</time>
      </trkpt>
      <trkpt lat="45.96654" lon="4.78387">
        <ele>201</ele>
        <time>2016-11-19T09:24:39Z</time>
      </trkpt>
      <trkpt lat="45.96658" lon="4.7839">
        <ele>201</ele>
        <time>2016-11-19T09:24:40Z</time>
      </trkpt>
      <trkpt lat="45.96662" lon="4.78394">
        <ele>201</ele>
        <time>2016-11-19T09:24:41Z</time>
      </trkpt>
      <trkpt lat="45.96666" lon="4.78398">
        <ele>201</ele>
        <time>2016-11-19T09:24:42Z</time>
      </trkpt>
      <trkpt lat="45.9667" lon="4.78402">
        <ele>204</ele>
        <time>2016-11-19T09:24:43Z</time>
      </trkpt>
      <trkpt lat="45.96674" lon="4.78405">
        <ele>203</ele>
        <time>2016-11-19T09:24:44Z</time>
      </trkpt>
      <trkpt lat="45.96678" lon="4.7841">
        <ele>203</ele>
        <time>2016-11-19T09:24:45Z</time>
      </trkpt>
      <trkpt lat="45.96682" lon="4.78414">
        <ele>204</ele>
        <time>2016-11-19T09:24:46Z</time>
      </trkpt>
      <trkpt lat="45.96686" lon="4.78418">
        <ele>202</ele>
        <time>2016-11-19T09:24:47Z</time>
      </trkpt>
      <trkpt lat="45.9669" lon="4.78421">
        <ele>202</ele>
        <time>2016-11-19T09:24:48Z</time>
      </trkpt>
      <trkpt lat="45.96697" lon="4.78429">
        <ele>203</ele>
        <time>2016-11-19T09:24:50Z</time>
      </trkpt>
      <trkpt lat="45.96701" lon="4.78432">
        <ele>203</ele>
        <time>2016-11-19T09:24:51Z</time>
      </trkpt>
      <trkpt lat="45.96705" lon="4.78436">
        <ele>203</ele>
        <time>2016-11-19T09:24:52Z</time>
      </trkpt>
      <trkpt lat="45.96709" lon="4.78441">
        <ele>203</ele>
        <time>2016-11-19T09:24:53Z</time>
      </trkpt>
      <trkpt lat="45.96714" lon="4.78449">
        <ele>203</ele>
        <time>2016-11-19T09:24:54Z</time>
      </trkpt>
      <trkpt lat="45.96717" lon="4.78452">
        <ele>203</ele>
        <time>2016-11-19T09:24:55Z</time>
      </trkpt>
      <trkpt lat="45.96721" lon="4.78457">
        <ele>203</ele>
        <time>2016-11-19T09:24:56Z</time>
      </trkpt>
      <trkpt lat="45.96726" lon="4.78462">
        <ele>203</ele>
        <time>2016-11-19T09:24:57Z</time>
      </trkpt>
      <trkpt lat="45.96731" lon="4.78467">
        <ele>203</ele>
        <time>2016-11-19T09:24:58Z</time>
      </trkpt>
      <trkpt lat="45.96736" lon="4.78471">
        <ele>203</ele>
        <time>2016-11-19T09:24:59Z</time>
      </trkpt>
      <trkpt lat="45.96741" lon="4.78475">
        <ele>203</ele>
        <time>2016-11-19T09:25:00Z</time>
      </trkpt>
      <trkpt lat="45.96745" lon="4.78479">
        <ele>203</ele>
        <time>2016-11-19T09:25:01Z</time>
      </trkpt>
      <trkpt lat="45.9675" lon="4.78483">
        <ele>203</ele>
        <time>2016-11-19T09:25:02Z</time>
      </trkpt>
      <trkpt lat="45.96754" lon="4.78487">
        <ele>204</ele>
        <time>2016-11-19T09:25:03Z</time>
      </trkpt>
      <trkpt lat="45.96758" lon="4.78492">
        <ele>204</ele>
        <time>2016-11-19T09:25:04Z</time>
      </trkpt>
      <trkpt lat="45.96762" lon="4.78497">
        <ele>204</ele>
        <time>2016-11-19T09:25:05Z</time>
      </trkpt>
      <trkpt lat="45.96766" lon="4.78502">
        <ele>203</ele>
        <time>2016-11-19T09:25:06Z</time>
      </trkpt>
      <trkpt lat="45.9677" lon="4.78508">
        <ele>203</ele>
        <time>2016-11-19T09:25:07Z</time>
      </trkpt>
      <trkpt lat="45.96773" lon="4.78513">
        <ele>203</ele>
        <time>2016-11-19T09:25:08Z</time>
      </trkpt>
      <trkpt lat="45.96776" lon="4.78519">
        <ele>203</ele>
        <time>2016-11-19T09:25:09Z</time>
      </trkpt>
      <trkpt lat="45.9678" lon="4.78524">
        <ele>203</ele>
        <time>2016-11-19T09:25:10Z</time>
      </trkpt>
      <trkpt lat="45.96784" lon="4.78529">
        <ele>203</ele>
        <time>2016-11-19T09:25:11Z</time>
      </trkpt>
      <trkpt lat="45.96787" lon="4.78534">
        <ele>203</ele>
        <time>2016-11-19T09:25:12Z</time>
      </trkpt>
      <trkpt lat="45.9679" lon="4.78539">
        <ele>203</ele>
        <time>2016-11-19T09:25:13Z</time>
      </trkpt>
      <trkpt lat="45.96793" lon="4.78544">
        <ele>203</ele>
        <time>2016-11-19T09:25:14Z</time>
      </trkpt>
      <trkpt lat="45.96797" lon="4.7855">
        <ele>203</ele>
        <time>2016-11-19T09:25:15Z</time>
      </trkpt>
      <trkpt lat="45.968" lon="4.78555">
        <ele>203</ele>
        <time>2016-11-19T09:25:16Z</time>
      </trkpt>
      <trkpt lat="45.96803" lon="4.78561">
        <ele>203</ele>
        <time>2016-11-19T09:25:17Z</time>
      </trkpt>
      <trkpt lat="45.96807" lon="4.78566">
        <ele>203</ele>
        <time>2016-11-19T09:25:18Z</time>
      </trkpt>
      <trkpt lat="45.96811" lon="4.78571">
        <ele>203</ele>
        <time>2016-11-19T09:25:19Z</time>
      </trkpt>
      <trkpt lat="45.96817" lon="4.7858">
        <ele>203</ele>
        <time>2016-11-19T09:25:21Z</time>
      </trkpt>
      <trkpt lat="45.9682" lon="4.78585">
        <ele>202</ele>
        <time>2016-11-19T09:25:22Z</time>
      </trkpt>
      <trkpt lat="45.96823" lon="4.78589">
        <ele>202</ele>
        <time>2016-11-19T09:25:23Z</time>
      </trkpt>
      <trkpt lat="45.96825" lon="4.78595">
        <ele>202</ele>
        <time>2016-11-19T09:25:24Z</time>
      </trkpt>
      <trkpt lat="45.96828" lon="4.78602">
        <ele>202</ele>
        <time>2016-11-19T09:25:25Z</time>
      </trkpt>
      <trkpt lat="45.9683" lon="4.78609">
        <ele>202</ele>
        <time>2016-11-19T09:25:26Z</time>
      </trkpt>
      <trkpt lat="45.96832" lon="4.78615">
        <ele>202</ele>
        <time>2016-11-19T09:25:27Z</time>
      </trkpt>
      <trkpt lat="45.96835" lon="4.78622">
        <ele>203</ele>
        <time>2016-11-19T09:25:28Z</time>
      </trkpt>
      <trkpt lat="45.96838" lon="4.78629">
        <ele>203</ele>
        <time>2016-11-19T09:25:29Z</time>
      </trkpt>
      <trkpt lat="45.96841" lon="4.78636">
        <ele>203</ele>
        <time>2016-11-19T09:25:30Z</time>
      </trkpt>
      <trkpt lat="45.96843" lon="4.78643">
        <ele>203</ele>
        <time>2016-11-19T09:25:31Z</time>
      </trkpt>
      <trkpt lat="45.96846" lon="4.78649">
        <ele>203</ele>
        <time>2016-11-19T09:25:32Z</time>
      </trkpt>
      <trkpt lat="45.96849" lon="4.78655">
        <ele>203</ele>
        <time>2016-11-19T09:25:33Z</time>
      </trkpt>
      <trkpt lat="45.96852" lon="4.78661">
        <ele>203</ele>
        <time>2016-11-19T09:25:34Z</time>
      </trkpt>
      <trkpt lat="45.96855" lon="4.78667">
        <ele>203</ele>
        <time>2016-11-19T09:25:35Z</time>
      </trkpt>
      <trkpt lat="45.96857" lon="4.78672">
        <ele>202</ele>
        <time>2016-11-19T09:25:36Z</time>
      </trkpt>
      <trkpt lat="45.9686" lon="4.78678">
        <ele>202</ele>
        <time>2016-11-19T09:25:37Z</time>
      </trkpt>
      <trkpt lat="45.96863" lon="4.78684">
        <ele>202</ele>
        <time>2016-11-19T09:25:38Z</time>
      </trkpt>
      <trkpt lat="45.96866" lon="4.7869">
        <ele>202</ele>
        <time>2016-11-19T09:25:39Z</time>
      </trkpt>
      <trkpt lat="45.96869" lon="4.78695">
        <ele>202</ele>
        <time>2016-11-19T09:25:40Z</time>
      </trkpt>
      <trkpt lat="45.96872" lon="4.78701">
        <ele>202</ele>
        <time>2016-11-19T09:25:41Z</time>
      </trkpt>
      <trkpt lat="45.96874" lon="4.78707">
        <ele>202</ele>
        <time>2016-11-19T09:25:42Z</time>
      </trkpt>
      <trkpt lat="45.96877" lon="4.78712">
        <ele>202</ele>
        <time>2016-11-19T09:25:43Z</time>
      </trkpt>
      <trkpt lat="45.9688" lon="4.78718">
        <ele>202</ele>
        <time>2016-11-19T09:25:44Z</time>
      </trkpt>
      <trkpt lat="45.96883" lon="4.78724">
        <ele>202</ele>
        <time>2016-11-19T09:25:45Z</time>
      </trkpt>
      <trkpt lat="45.96885" lon="4.7873">
        <ele>202</ele>
        <time>2016-11-19T09:25:46Z</time>
      </trkpt>
      <trkpt lat="45.96889" lon="4.78736">
        <ele>202</ele>
        <time>2016-11-19T09:25:47Z</time>
      </trkpt>
      <trkpt lat="45.96892" lon="4.78741">
        <ele>202</ele>
        <time>2016-11-19T09:25:48Z</time>
      </trkpt>
      <trkpt lat="45.96897" lon="4.78746">
        <ele>202</ele>
        <time>2016-11-19T09:25:49Z</time>
      </trkpt>
      <trkpt lat="45.969" lon="4.78752">
        <ele>202</ele>
        <time>2016-11-19T09:25:50Z</time>
      </trkpt>
      <trkpt lat="45.96902" lon="4.78758">
        <ele>202</ele>
        <time>2016-11-19T09:25:51Z</time>
      </trkpt>
      <trkpt lat="45.96904" lon="4.78765">
        <ele>202</ele>
        <time>2016-11-19T09:25:52Z</time>
      </trkpt>
      <trkpt lat="45.96906" lon="4.78771">
        <ele>201</ele>
        <time>2016-11-19T09:25:53Z</time>
      </trkpt>
      <trkpt lat="45.96909" lon="4.78778">
        <ele>201</ele>
        <time>2016-11-19T09:25:54Z</time>
      </trkpt>
      <trkpt lat="45.96911" lon="4.78785">
        <ele>201</ele>
        <time>2016-11-19T09:25:55Z</time>
      </trkpt>
      <trkpt lat="45.96914" lon="4.78791">
        <ele>201</ele>
        <time>2016-11-19T09:25:56Z</time>
      </trkpt>
      <trkpt lat="45.96917" lon="4.78797">
        <ele>203</ele>
        <time>2016-11-19T09:25:57Z</time>
      </trkpt>
      <trkpt lat="45.9692" lon="4.78803">
        <ele>203</ele>
        <time>2016-11-19T09:25:58Z</time>
      </trkpt>
      <trkpt lat="45.96924" lon="4.78809">
        <ele>203</ele>
        <time>2016-11-19T09:25:59Z</time>
      </trkpt>
      <trkpt lat="45.96927" lon="4.78814">
        <ele>202</ele>
        <time>2016-11-19T09:26:00Z</time>
      </trkpt>
      <trkpt lat="45.96931" lon="4.7882">
        <ele>202</ele>
        <time>2016-11-19T09:26:01Z</time>
      </trkpt>
      <trkpt lat="45.96934" lon="4.78825">
        <ele>202</ele>
        <time>2016-11-19T09:26:02Z</time>
      </trkpt>
      <trkpt lat="45.96938" lon="4.78831">
        <ele>202</ele>
        <time>2016-11-19T09:26:03Z</time>
      </trkpt>
      <trkpt lat="45.96942" lon="4.78836">
        <ele>202</ele>
        <time>2016-11-19T09:26:04Z</time>
      </trkpt>
      <trkpt lat="45.96946" lon="4.78841">
        <ele>202</ele>
        <time>2016-11-19T09:26:05Z</time>
      </trkpt>
      <trkpt lat="45.9695" lon="4.78846">
        <ele>202</ele>
        <time>2016-11-19T09:26:06Z</time>
      </trkpt>
      <trkpt lat="45.96954" lon="4.78851">
        <ele>203</ele>
        <time>2016-11-19T09:26:07Z</time>
      </trkpt>
      <trkpt lat="45.96958" lon="4.78856">
        <ele>203</ele>
        <time>2016-11-19T09:26:08Z</time>
      </trkpt>
      <trkpt lat="45.96962" lon="4.78861">
        <ele>203</ele>
        <time>2016-11-19T09:26:09Z</time>
      </trkpt>
      <trkpt lat="45.96966" lon="4.78866">
        <ele>203</ele>
        <time>2016-11-19T09:26:10Z</time>
      </trkpt>
      <trkpt lat="45.9697" lon="4.7887">
        <ele>203</ele>
        <time>2016-11-19T09:26:11Z</time>
      </trkpt>
      <trkpt lat="45.96974" lon="4.78875">
        <ele>203</ele>
        <time>2016-11-19T09:26:12Z</time>
      </trkpt>
      <trkpt lat="45.96978" lon="4.7888">
        <ele>203</ele>
        <time>2016-11-19T09:26:13Z</time>
      </trkpt>
      <trkpt lat="45.96982" lon="4.78885">
        <ele>203</ele>
        <time>2016-11-19T09:26:14Z</time>
      </trkpt>
      <trkpt lat="45.96986" lon="4.7889">
        <ele>203</ele>
        <time>2016-11-19T09:26:15Z</time>
      </trkpt>
      <trkpt lat="45.9699" lon="4.78895">
        <ele>203</ele>
        <time>2016-11-19T09:26:16Z</time>
      </trkpt>
      <trkpt lat="45.96993" lon="4.78899">
        <ele>203</ele>
        <time>2016-11-19T09:26:17Z</time>
      </trkpt>
      <trkpt lat="45.96997" lon="4.78904">
        <ele>204</ele>
        <time>2016-11-19T09:26:18Z</time>
      </trkpt>
      <trkpt lat="45.97" lon="4.78908">
        <ele>205</ele>
        <time>2016-11-19T09:26:19Z</time>
      </trkpt>
      <trkpt lat="45.97005" lon="4.78913">
        <ele>205</ele>
        <time>2016-11-19T09:26:20Z</time>
      </trkpt>
      <trkpt lat="45.97009" lon="4.78917">
        <ele>205</ele>
        <time>2016-11-19T09:26:21Z</time>
      </trkpt>
      <trkpt lat="45.97012" lon="4.78922">
        <ele>204</ele>
        <time>2016-11-19T09:26:22Z</time>
      </trkpt>
      <trkpt lat="45.97016" lon="4.78927">
        <ele>205</ele>
        <time>2016-11-19T09:26:23Z</time>
      </trkpt>
      <trkpt lat="45.97019" lon="4.78932">
        <ele>205</ele>
        <time>2016-11-19T09:26:24Z</time>
      </trkpt>
      <trkpt lat="45.97023" lon="4.78937">
        <ele>205</ele>
        <time>2016-11-19T09:26:25Z</time>
      </trkpt>
      <trkpt lat="45.97026" lon="4.78942">
        <ele>205</ele>
        <time>2016-11-19T09:26:26Z</time>
      </trkpt>
      <trkpt lat="45.97029" lon="4.78948">
        <ele>205</ele>
        <time>2016-11-19T09:26:27Z</time>
      </trkpt>
      <trkpt lat="45.97033" lon="4.78954">
        <ele>205</ele>
        <time>2016-11-19T09:26:28Z</time>
      </trkpt>
      <trkpt lat="45.97036" lon="4.78961">
        <ele>205</ele>
        <time>2016-11-19T09:26:29Z</time>
      </trkpt>
      <trkpt lat="45.9704" lon="4.78967">
        <ele>205</ele>
        <time>2016-11-19T09:26:30Z</time>
      </trkpt>
      <trkpt lat="45.97043" lon="4.78974">
        <ele>205</ele>
        <time>2016-11-19T09:26:31Z</time>
      </trkpt>
      <trkpt lat="45.97045" lon="4.78981">
        <ele>205</ele>
        <time>2016-11-19T09:26:32Z</time>
      </trkpt>
      <trkpt lat="45.97048" lon="4.78988">
        <ele>205</ele>
        <time>2016-11-19T09:26:33Z</time>
      </trkpt>
      <trkpt lat="45.97051" lon="4.78991">
        <ele>205</ele>
        <time>2016-11-19T09:26:34Z</time>
      </trkpt>
      <trkpt lat="45.97052" lon="4.78993">
        <ele>205</ele>
        <time>2016-11-19T09:26:35Z</time>
      </trkpt>
      <trkpt lat="45.97054" lon="4.79">
        <ele>205</ele>
        <time>2016-11-19T09:26:36Z</time>
      </trkpt>
      <trkpt lat="45.97057" lon="4.79006">
        <ele>204</ele>
        <time>2016-11-19T09:26:37Z</time>
      </trkpt>
      <trkpt lat="45.97058" lon="4.79019">
        <ele>203</ele>
        <time>2016-11-19T09:26:39Z</time>
      </trkpt>
      <trkpt lat="45.9706" lon="4.79026">
        <ele>203</ele>
        <time>2016-11-19T09:26:40Z</time>
      </trkpt>
      <trkpt lat="45.97063" lon="4.79034">
        <ele>203</ele>
        <time>2016-11-19T09:26:41Z</time>
      </trkpt>
      <trkpt lat="45.97065" lon="4.79041">
        <ele>203</ele>
        <time>2016-11-19T09:26:42Z</time>
      </trkpt>
      <trkpt lat="45.97067" lon="4.79049">
        <ele>203</ele>
        <time>2016-11-19T09:26:43Z</time>
      </trkpt>
      <trkpt lat="45.97069" lon="4.79057">
        <ele>203</ele>
        <time>2016-11-19T09:26:44Z</time>
      </trkpt>
      <trkpt lat="45.97071" lon="4.79064">
        <ele>203</ele>
        <time>2016-11-19T09:26:45Z</time>
      </trkpt>
      <trkpt lat="45.97073" lon="4.79072">
        <ele>204</ele>
        <time>2016-11-19T09:26:46Z</time>
      </trkpt>
      <trkpt lat="45.97076" lon="4.7908">
        <ele>204</ele>
        <time>2016-11-19T09:26:47Z</time>
      </trkpt>
      <trkpt lat="45.97078" lon="4.79088">
        <ele>204</ele>
        <time>2016-11-19T09:26:48Z</time>
      </trkpt>
      <trkpt lat="45.97079" lon="4.79096">
        <ele>204</ele>
        <time>2016-11-19T09:26:49Z</time>
      </trkpt>
      <trkpt lat="45.9708" lon="4.79103">
        <ele>204</ele>
        <time>2016-11-19T09:26:50Z</time>
      </trkpt>
      <trkpt lat="45.97083" lon="4.7911">
        <ele>204</ele>
        <time>2016-11-19T09:26:51Z</time>
      </trkpt>
      <trkpt lat="45.97087" lon="4.79118">
        <ele>206</ele>
        <time>2016-11-19T09:26:52Z</time>
      </trkpt>
      <trkpt lat="45.9709" lon="4.79125">
        <ele>206</ele>
        <time>2016-11-19T09:26:53Z</time>
      </trkpt>
      <trkpt lat="45.97094" lon="4.79131">
        <ele>206</ele>
        <time>2016-11-19T09:26:54Z</time>
      </trkpt>
      <trkpt lat="45.97097" lon="4.79137">
        <ele>206</ele>
        <time>2016-11-19T09:26:55Z</time>
      </trkpt>
      <trkpt lat="45.97101" lon="4.79143">
        <ele>206</ele>
        <time>2016-11-19T09:26:56Z</time>
      </trkpt>
      <trkpt lat="45.97105" lon="4.79149">
        <ele>206</ele>
        <time>2016-11-19T09:26:57Z</time>
      </trkpt>
      <trkpt lat="45.97108" lon="4.79155">
        <ele>206</ele>
        <time>2016-11-19T09:26:58Z</time>
      </trkpt>
      <trkpt lat="45.97111" lon="4.79162">
        <ele>206</ele>
        <time>2016-11-19T09:26:59Z</time>
      </trkpt>
      <trkpt lat="45.97114" lon="4.79169">
        <ele>206</ele>
        <time>2016-11-19T09:27:00Z</time>
      </trkpt>
      <trkpt lat="45.97117" lon="4.79176">
        <ele>206</ele>
        <time>2016-11-19T09:27:01Z</time>
      </trkpt>
      <trkpt lat="45.9712" lon="4.79183">
        <ele>206</ele>
        <time>2016-11-19T09:27:02Z</time>
      </trkpt>
      <trkpt lat="45.97123" lon="4.79189">
        <ele>206</ele>
        <time>2016-11-19T09:27:03Z</time>
      </trkpt>
      <trkpt lat="45.97125" lon="4.79196">
        <ele>206</ele>
        <time>2016-11-19T09:27:04Z</time>
      </trkpt>
      <trkpt lat="45.97128" lon="4.79203">
        <ele>206</ele>
        <time>2016-11-19T09:27:05Z</time>
      </trkpt>
      <trkpt lat="45.97131" lon="4.79208">
        <ele>206</ele>
        <time>2016-11-19T09:27:06Z</time>
      </trkpt>
      <trkpt lat="45.97134" lon="4.79214">
        <ele>206</ele>
        <time>2016-11-19T09:27:07Z</time>
      </trkpt>
      <trkpt lat="45.97136" lon="4.7922">
        <ele>206</ele>
        <time>2016-11-19T09:27:08Z</time>
      </trkpt>
      <trkpt lat="45.9714" lon="4.79231">
        <ele>205</ele>
        <time>2016-11-19T09:27:10Z</time>
      </trkpt>
      <trkpt lat="45.97142" lon="4.79236">
        <ele>205</ele>
        <time>2016-11-19T09:27:11Z</time>
      </trkpt>
      <trkpt lat="45.97146" lon="4.79246">
        <ele>205</ele>
        <time>2016-11-19T09:27:13Z</time>
      </trkpt>
      <trkpt lat="45.97149" lon="4.79252">
        <ele>204</ele>
        <time>2016-11-19T09:27:14Z</time>
      </trkpt>
      <trkpt lat="45.97152" lon="4.79258">
        <ele>204</ele>
        <time>2016-11-19T09:27:15Z</time>
      </trkpt>
      <trkpt lat="45.97154" lon="4.79265">
        <ele>204</ele>
        <time>2016-11-19T09:27:16Z</time>
      </trkpt>
      <trkpt lat="45.97157" lon="4.79271">
        <ele>204</ele>
        <time>2016-11-19T09:27:17Z</time>
      </trkpt>
      <trkpt lat="45.97159" lon="4.79277">
        <ele>204</ele>
        <time>2016-11-19T09:27:18Z</time>
      </trkpt>
      <trkpt lat="45.97161" lon="4.79283">
        <ele>204</ele>
        <time>2016-11-19T09:27:19Z</time>
      </trkpt>
      <trkpt lat="45.97164" lon="4.7929">
        <ele>204</ele>
        <time>2016-11-19T09:27:20Z</time>
      </trkpt>
      <trkpt lat="45.97166" lon="4.79296">
        <ele>204</ele>
        <time>2016-11-19T09:27:21Z</time>
      </trkpt>
      <trkpt lat="45.97168" lon="4.79302">
        <ele>207</ele>
        <time>2016-11-19T09:27:22Z</time>
      </trkpt>
      <trkpt lat="45.97171" lon="4.79308">
        <ele>207</ele>
        <time>2016-11-19T09:27:23Z</time>
      </trkpt>
      <trkpt lat="45.97173" lon="4.79315">
        <ele>207</ele>
        <time>2016-11-19T09:27:24Z</time>
      </trkpt>
      <trkpt lat="45.97175" lon="4.79321">
        <ele>207</ele>
        <time>2016-11-19T09:27:25Z</time>
      </trkpt>
      <trkpt lat="45.97178" lon="4.79327">
        <ele>206</ele>
        <time>2016-11-19T09:27:26Z</time>
      </trkpt>
      <trkpt lat="45.9718" lon="4.79333">
        <ele>206</ele>
        <time>2016-11-19T09:27:27Z</time>
      </trkpt>
      <trkpt lat="45.97182" lon="4.79339">
        <ele>206</ele>
        <time>2016-11-19T09:27:28Z</time>
      </trkpt>
      <trkpt lat="45.97185" lon="4.79345">
        <ele>207</ele>
        <time>2016-11-19T09:27:29Z</time>
      </trkpt>
      <trkpt lat="45.97187" lon="4.7935">
        <ele>207</ele>
        <time>2016-11-19T09:27:30Z</time>
      </trkpt>
      <trkpt lat="45.97189" lon="4.79356">
        <ele>207</ele>
        <time>2016-11-19T09:27:31Z</time>
      </trkpt>
      <trkpt lat="45.97193" lon="4.79362">
        <ele>207</ele>
        <time>2016-11-19T09:27:32Z</time>
      </trkpt>
      <trkpt lat="45.97195" lon="4.79368">
        <ele>207</ele>
        <time>2016-11-19T09:27:33Z</time>
      </trkpt>
      <trkpt lat="45.97197" lon="4.79375">
        <ele>207</ele>
        <time>2016-11-19T09:27:34Z</time>
      </trkpt>
      <trkpt lat="45.972" lon="4.79381">
        <ele>207</ele>
        <time>2016-11-19T09:27:35Z</time>
      </trkpt>
      <trkpt lat="45.97204" lon="4.79387">
        <ele>208</ele>
        <time>2016-11-19T09:27:36Z</time>
      </trkpt>
      <trkpt lat="45.97205" lon="4.79394">
        <ele>208</ele>
        <time>2016-11-19T09:27:37Z</time>
      </trkpt>
      <trkpt lat="45.97208" lon="4.79401">
        <ele>208</ele>
        <time>2016-11-19T09:27:38Z</time>
      </trkpt>
      <trkpt lat="45.9721" lon="4.79407">
        <ele>208</ele>
        <time>2016-11-19T09:27:39Z</time>
      </trkpt>
      <trkpt lat="45.97212" lon="4.79414">
        <ele>208</ele>
        <time>2016-11-19T09:27:40Z</time>
      </trkpt>
      <trkpt lat="45.97215" lon="4.7942">
        <ele>208</ele>
        <time>2016-11-19T09:27:41Z</time>
      </trkpt>
      <trkpt lat="45.97218" lon="4.79427">
        <ele>208</ele>
        <time>2016-11-19T09:27:42Z</time>
      </trkpt>
      <trkpt lat="45.9722" lon="4.79433">
        <ele>208</ele>
        <time>2016-11-19T09:27:43Z</time>
      </trkpt>
      <trkpt lat="45.97223" lon="4.79439">
        <ele>209</ele>
        <time>2016-11-19T09:27:44Z</time>
      </trkpt>
      <trkpt lat="45.97225" lon="4.79445">
        <ele>209</ele>
        <time>2016-11-19T09:27:45Z</time>
      </trkpt>
      <trkpt lat="45.97227" lon="4.79451">
        <ele>209</ele>
        <time>2016-11-19T09:27:46Z</time>
      </trkpt>
      <trkpt lat="45.9723" lon="4.79457">
        <ele>209</ele>
        <time>2016-11-19T09:27:47Z</time>
      </trkpt>
      <trkpt lat="45.97232" lon="4.79462">
        <ele>209</ele>
        <time>2016-11-19T09:27:48Z</time>
      </trkpt>
      <trkpt lat="45.97234" lon="4.79469">
        <ele>209</ele>
        <time>2016-11-19T09:27:49Z</time>
      </trkpt>
      <trkpt lat="45.97236" lon="4.79475">
        <ele>209</ele>
        <time>2016-11-19T09:27:50Z</time>
      </trkpt>
      <trkpt lat="45.97238" lon="4.79482">
        <ele>209</ele>
        <time>2016-11-19T09:27:51Z</time>
      </trkpt>
      <trkpt lat="45.97239" lon="4.79489">
        <ele>210</ele>
        <time>2016-11-19T09:27:52Z</time>
      </trkpt>
      <trkpt lat="45.97241" lon="4.79496">
        <ele>210</ele>
        <time>2016-11-19T09:27:53Z</time>
      </trkpt>
      <trkpt lat="45.97243" lon="4.79503">
        <ele>210</ele>
        <time>2016-11-19T09:27:54Z</time>
      </trkpt>
      <trkpt lat="45.97245" lon="4.7951">
        <ele>210</ele>
        <time>2016-11-19T09:27:55Z</time>
      </trkpt>
      <trkpt lat="45.97247" lon="4.79517">
        <ele>210</ele>
        <time>2016-11-19T09:27:56Z</time>
      </trkpt>
      <trkpt lat="45.97251" lon="4.79524">
        <ele>213</ele>
        <time>2016-11-19T09:27:57Z</time>
      </trkpt>
      <trkpt lat="45.97255" lon="4.79532">
        <ele>214</ele>
        <time>2016-11-19T09:27:58Z</time>
      </trkpt>
      <trkpt lat="45.97257" lon="4.79539">
        <ele>214</ele>
        <time>2016-11-19T09:27:59Z</time>
      </trkpt>
      <trkpt lat="45.97259" lon="4.79546">
        <ele>214</ele>
        <time>2016-11-19T09:28:00Z</time>
      </trkpt>
      <trkpt lat="45.9726" lon="4.79557">
        <ele>214</ele>
        <time>2016-11-19T09:28:02Z</time>
      </trkpt>
      <trkpt lat="45.97261" lon="4.79562">
        <ele>213</ele>
        <time>2016-11-19T09:28:03Z</time>
      </trkpt>
      <trkpt lat="45.97262" lon="4.79575">
        <ele>213</ele>
        <time>2016-11-19T09:28:05Z</time>
      </trkpt>
      <trkpt lat="45.97261" lon="4.79582">
        <ele>212</ele>
        <time>2016-11-19T09:28:06Z</time>
      </trkpt>
      <trkpt lat="45.97263" lon="4.79591">
        <ele>212</ele>
        <time>2016-11-19T09:28:07Z</time>
      </trkpt>
      <trkpt lat="45.97261" lon="4.79598">
        <ele>213</ele>
        <time>2016-11-19T09:28:08Z</time>
      </trkpt>
      <trkpt lat="45.97259" lon="4.79605">
        <ele>213</ele>
        <time>2016-11-19T09:28:09Z</time>
      </trkpt>
      <trkpt lat="45.97258" lon="4.79611">
        <ele>213</ele>
        <time>2016-11-19T09:28:10Z</time>
      </trkpt>
      <trkpt lat="45.97258" lon="4.79618">
        <ele>213</ele>
        <time>2016-11-19T09:28:11Z</time>
      </trkpt>
      <trkpt lat="45.97257" lon="4.79624">
        <ele>213</ele>
        <time>2016-11-19T09:28:12Z</time>
      </trkpt>
      <trkpt lat="45.97257" lon="4.79631">
        <ele>213</ele>
        <time>2016-11-19T09:28:13Z</time>
      </trkpt>
      <trkpt lat="45.97257" lon="4.79638">
        <ele>212</ele>
        <time>2016-11-19T09:28:14Z</time>
      </trkpt>
      <trkpt lat="45.97259" lon="4.7965">
        <ele>212</ele>
        <time>2016-11-19T09:28:16Z</time>
      </trkpt>
      <trkpt lat="45.97258" lon="4.79656">
        <ele>211</ele>
        <time>2016-11-19T09:28:17Z</time>
      </trkpt>
      <trkpt lat="45.97257" lon="4.79663">
        <ele>210</ele>
        <time>2016-11-19T09:28:18Z</time>
      </trkpt>
      <trkpt lat="45.97256" lon="4.7967">
        <ele>209</ele>
        <time>2016-11-19T09:28:19Z</time>
      </trkpt>
      <trkpt lat="45.97254" lon="4.79677">
        <ele>210</ele>
        <time>2016-11-19T09:28:20Z</time>
      </trkpt>
      <trkpt lat="45.97253" lon="4.79684">
        <ele>211</ele>
        <time>2016-11-19T09:28:21Z</time>
      </trkpt>
      <trkpt lat="45.97252" lon="4.79692">
        <ele>212</ele>
        <time>2016-11-19T09:28:22Z</time>
      </trkpt>
      <trkpt lat="45.97251" lon="4.79699">
        <ele>212</ele>
        <time>2016-11-19T09:28:23Z</time>
      </trkpt>
      <trkpt lat="45.9725" lon="4.79706">
        <ele>208</ele>
        <time>2016-11-19T09:28:24Z</time>
      </trkpt>
      <trkpt lat="45.97248" lon="4.79713">
        <ele>209</ele>
        <time>2016-11-19T09:28:25Z</time>
      </trkpt>
      <trkpt lat="45.97247" lon="4.7972">
        <ele>209</ele>
        <time>2016-11-19T09:28:26Z</time>
      </trkpt>
      <trkpt lat="45.97246" lon="4.79727">
        <ele>209</ele>
        <time>2016-11-19T09:28:27Z</time>
      </trkpt>
      <trkpt lat="45.97245" lon="4.79734">
        <ele>209</ele>
        <time>2016-11-19T09:28:28Z</time>
      </trkpt>
      <trkpt lat="45.97246" lon="4.79741">
        <ele>209</ele>
        <time>2016-11-19T09:28:29Z</time>
      </trkpt>
      <trkpt lat="45.97245" lon="4.79748">
        <ele>209</ele>
        <time>2016-11-19T09:28:30Z</time>
      </trkpt>
      <trkpt lat="45.97244" lon="4.79755">
        <ele>209</ele>
        <time>2016-11-19T09:28:31Z</time>
      </trkpt>
      <trkpt lat="45.97243" lon="4.79763">
        <ele>209</ele>
        <time>2016-11-19T09:28:32Z</time>
      </trkpt>
      <trkpt lat="45.97242" lon="4.7977">
        <ele>210</ele>
        <time>2016-11-19T09:28:33Z</time>
      </trkpt>
      <trkpt lat="45.97241" lon="4.79777">
        <ele>210</ele>
        <time>2016-11-19T09:28:34Z</time>
      </trkpt>
      <trkpt lat="45.9724" lon="4.79784">
        <ele>210</ele>
        <time>2016-11-19T09:28:35Z</time>
      </trkpt>
      <trkpt lat="45.9724" lon="4.79791">
        <ele>210</ele>
        <time>2016-11-19T09:28:36Z</time>
      </trkpt>
      <trkpt lat="45.97239" lon="4.79798">
        <ele>210</ele>
        <time>2016-11-19T09:28:37Z</time>
      </trkpt>
      <trkpt lat="45.97239" lon="4.79805">
        <ele>210</ele>
        <time>2016-11-19T09:28:38Z</time>
      </trkpt>
      <trkpt lat="45.97239" lon="4.79812">
        <ele>211</ele>
        <time>2016-11-19T09:28:39Z</time>
      </trkpt>
      <trkpt lat="45.97239" lon="4.79818">
        <ele>211</ele>
        <time>2016-11-19T09:28:40Z</time>
      </trkpt>
      <trkpt lat="45.97238" lon="4.79825">
        <ele>211</ele>
        <time>2016-11-19T09:28:41Z</time>
      </trkpt>
      <trkpt lat="45.97238" lon="4.79832">
        <ele>211</ele>
        <time>2016-11-19T09:28:42Z</time>
      </trkpt>
      <trkpt lat="45.97238" lon="4.79845">
        <ele>211</ele>
        <time>2016-11-19T09:28:44Z</time>
      </trkpt>
      <trkpt lat="45.97238" lon="4.79851">
        <ele>211</ele>
        <time>2016-11-19T09:28:45Z</time>
      </trkpt>
      <trkpt lat="45.97239" lon="4.79858">
        <ele>211</ele>
        <time>2016-11-19T09:28:46Z</time>
      </trkpt>
      <trkpt lat="45.97241" lon="4.79865">
        <ele>211</ele>
        <time>2016-11-19T09:28:47Z</time>
      </trkpt>
      <trkpt lat="45.97243" lon="4.79871">
        <ele>211</ele>
        <time>2016-11-19T09:28:48Z</time>
      </trkpt>
      <trkpt lat="45.97245" lon="4.79881">
        <ele>211</ele>
        <time>2016-11-19T09:28:50Z</time>
      </trkpt>
      <trkpt lat="45.97247" lon="4.79884">
        <ele>211</ele>
        <time>2016-11-19T09:28:51Z</time>
      </trkpt>
      <trkpt lat="45.97254" lon="4.7989">
        <ele>213</ele>
        <time>2016-11-19T09:28:53Z</time>
      </trkpt>
      <trkpt lat="45.97255" lon="4.79894">
        <ele>213</ele>
        <time>2016-11-19T09:28:54Z</time>
      </trkpt>
      <trkpt lat="45.97256" lon="4.79905">
        <ele>213</ele>
        <time>2016-11-19T09:28:58Z</time>
      </trkpt>
      <trkpt lat="45.97257" lon="4.79906">
        <ele>213</ele>
        <time>2016-11-19T09:28:59Z</time>
      </trkpt>
      <trkpt lat="45.97256" lon="4.79908">
        <ele>213</ele>
        <time>2016-11-19T09:29:04Z</time>
      </trkpt>
      <trkpt lat="45.97257" lon="4.7991">
        <ele>212</ele>
        <time>2016-11-19T09:29:05Z</time>
      </trkpt>
      <trkpt lat="45.97257" lon="4.79912">
        <ele>212</ele>
        <time>2016-11-19T09:29:06Z</time>
      </trkpt>
      <trkpt lat="45.97258" lon="4.79913">
        <ele>212</ele>
        <time>2016-11-19T09:29:07Z</time>
      </trkpt>
      <trkpt lat="45.97265" lon="4.79913">
        <ele>213</ele>
        <time>2016-11-19T09:29:11Z</time>
      </trkpt>
      <trkpt lat="45.97267" lon="4.79913">
        <ele>213</ele>
        <time>2016-11-19T09:29:12Z</time>
      </trkpt>
      <trkpt lat="45.97273" lon="4.79911">
        <ele>213</ele>
        <time>2016-11-19T09:29:14Z</time>
      </trkpt>
      <trkpt lat="45.97277" lon="4.79911">
        <ele>213</ele>
        <time>2016-11-19T09:29:15Z</time>
      </trkpt>
      <trkpt lat="45.97284" lon="4.79911">
        <ele>213</ele>
        <time>2016-11-19T09:29:17Z</time>
      </trkpt>
      <trkpt lat="45.97288" lon="4.7991">
        <ele>213</ele>
        <time>2016-11-19T09:29:18Z</time>
      </trkpt>
      <trkpt lat="45.97296" lon="4.79908">
        <ele>213</ele>
        <time>2016-11-19T09:29:20Z</time>
      </trkpt>
      <trkpt lat="45.973" lon="4.79907">
        <ele>213</ele>
        <time>2016-11-19T09:29:21Z</time>
      </trkpt>
      <trkpt lat="45.97308" lon="4.79907">
        <ele>213</ele>
        <time>2016-11-19T09:29:23Z</time>
      </trkpt>
      <trkpt lat="45.97313" lon="4.79907">
        <ele>213</ele>
        <time>2016-11-19T09:29:24Z</time>
      </trkpt>
      <trkpt lat="45.97321" lon="4.79906">
        <ele>213</ele>
        <time>2016-11-19T09:29:26Z</time>
      </trkpt>
      <trkpt lat="45.97326" lon="4.79906">
        <ele>213</ele>
        <time>2016-11-19T09:29:27Z</time>
      </trkpt>
      <trkpt lat="45.97334" lon="4.79905">
        <ele>215</ele>
        <time>2016-11-19T09:29:29Z</time>
      </trkpt>
      <trkpt lat="45.97339" lon="4.79903">
        <ele>215</ele>
        <time>2016-11-19T09:29:30Z</time>
      </trkpt>
      <trkpt lat="45.97348" lon="4.79902">
        <ele>216</ele>
        <time>2016-11-19T09:29:32Z</time>
      </trkpt>
      <trkpt lat="45.97352" lon="4.79902">
        <ele>216</ele>
        <time>2016-11-19T09:29:33Z</time>
      </trkpt>
      <trkpt lat="45.9736" lon="4.799">
        <ele>216</ele>
        <time>2016-11-19T09:29:35Z</time>
      </trkpt>
      <trkpt lat="45.97365" lon="4.79899">
        <ele>217</ele>
        <time>2016-11-19T09:29:36Z</time>
      </trkpt>
      <trkpt lat="45.97373" lon="4.79897">
        <ele>217</ele>
        <time>2016-11-19T09:29:38Z</time>
      </trkpt>
      <trkpt lat="45.97377" lon="4.79895">
        <ele>217</ele>
        <time>2016-11-19T09:29:39Z</time>
      </trkpt>
      <trkpt lat="45.97381" lon="4.79895">
        <ele>217</ele>
        <time>2016-11-19T09:29:40Z</time>
      </trkpt>
      <trkpt lat="45.97386" lon="4.79894">
        <ele>217</ele>
        <time>2016-11-19T09:29:41Z</time>
      </trkpt>
      <trkpt lat="45.9739" lon="4.79893">
        <ele>217</ele>
        <time>2016-11-19T09:29:42Z</time>
      </trkpt>
      <trkpt lat="45.97395" lon="4.79893">
        <ele>217</ele>
        <time>2016-11-19T09:29:43Z</time>
      </trkpt>
      <trkpt lat="45.97404" lon="4.79892">
        <ele>218</ele>
        <time>2016-11-19T09:29:45Z</time>
      </trkpt>
      <trkpt lat="45.97408" lon="4.79893">
        <ele>217</ele>
        <time>2016-11-19T09:29:46Z</time>
      </trkpt>
      <trkpt lat="45.97417" lon="4.79893">
        <ele>217</ele>
        <time>2016-11-19T09:29:48Z</time>
      </trkpt>
      <trkpt lat="45.97421" lon="4.79893">
        <ele>219</ele>
        <time>2016-11-19T09:29:49Z</time>
      </trkpt>
      <trkpt lat="45.97429" lon="4.79892">
        <ele>220</ele>
        <time>2016-11-19T09:29:51Z</time>
      </trkpt>
      <trkpt lat="45.97433" lon="4.79892">
        <ele>220</ele>
        <time>2016-11-19T09:29:52Z</time>
      </trkpt>
      <trkpt lat="45.97441" lon="4.79892">
        <ele>220</ele>
        <time>2016-11-19T09:29:54Z</time>
      </trkpt>
      <trkpt lat="45.97445" lon="4.79892">
        <ele>220</ele>
        <time>2016-11-19T09:29:55Z</time>
      </trkpt>
      <trkpt lat="45.97453" lon="4.79892">
        <ele>220</ele>
        <time>2016-11-19T09:29:57Z</time>
      </trkpt>
      <trkpt lat="45.97457" lon="4.79891">
        <ele>221</ele>
        <time>2016-11-19T09:29:58Z</time>
      </trkpt>
      <trkpt lat="45.97464" lon="4.7989">
        <ele>221</ele>
        <time>2016-11-19T09:30:00Z</time>
      </trkpt>
      <trkpt lat="45.97468" lon="4.7989">
        <ele>221</ele>
        <time>2016-11-19T09:30:01Z</time>
      </trkpt>
      <trkpt lat="45.97475" lon="4.79889">
        <ele>221</ele>
        <time>2016-11-19T09:30:03Z</time>
      </trkpt>
      <trkpt lat="45.97479" lon="4.79889">
        <ele>221</ele>
        <time>2016-11-19T09:30:04Z</time>
      </trkpt>
      <trkpt lat="45.97488" lon="4.79889">
        <ele>221</ele>
        <time>2016-11-19T09:30:06Z</time>
      </trkpt>
      <trkpt lat="45.97493" lon="4.79889">
        <ele>221</ele>
        <time>2016-11-19T09:30:07Z</time>
      </trkpt>
      <trkpt lat="45.97501" lon="4.79889">
        <ele>221</ele>
        <time>2016-11-19T09:30:09Z</time>
      </trkpt>
      <trkpt lat="45.97505" lon="4.79889">
        <ele>221</ele>
        <time>2016-11-19T09:30:10Z</time>
      </trkpt>
      <trkpt lat="45.97513" lon="4.79887">
        <ele>221</ele>
        <time>2016-11-19T09:30:12Z</time>
      </trkpt>
      <trkpt lat="45.97516" lon="4.79886">
        <ele>221</ele>
        <time>2016-11-19T09:30:13Z</time>
      </trkpt>
      <trkpt lat="45.97524" lon="4.79884">
        <ele>222</ele>
        <time>2016-11-19T09:30:15Z</time>
      </trkpt>
      <trkpt lat="45.97528" lon="4.79883">
        <ele>222</ele>
        <time>2016-11-19T09:30:16Z</time>
      </trkpt>
      <trkpt lat="45.97536" lon="4.79882">
        <ele>222</ele>
        <time>2016-11-19T09:30:18Z</time>
      </trkpt>
      <trkpt lat="45.9754" lon="4.79882">
        <ele>222</ele>
        <time>2016-11-19T09:30:19Z</time>
      </trkpt>
      <trkpt lat="45.97548" lon="4.79879">
        <ele>222</ele>
        <time>2016-11-19T09:30:21Z</time>
      </trkpt>
      <trkpt lat="45.97552" lon="4.79878">
        <ele>222</ele>
        <time>2016-11-19T09:30:22Z</time>
      </trkpt>
      <trkpt lat="45.9756" lon="4.79876">
        <ele>222</ele>
        <time>2016-11-19T09:30:24Z</time>
      </trkpt>
      <trkpt lat="45.97564" lon="4.79875">
        <ele>222</ele>
        <time>2016-11-19T09:30:25Z</time>
      </trkpt>
      <trkpt lat="45.97572" lon="4.79873">
        <ele>222</ele>
        <time>2016-11-19T09:30:27Z</time>
      </trkpt>
      <trkpt lat="45.97575" lon="4.79872">
        <ele>222</ele>
        <time>2016-11-19T09:30:28Z</time>
      </trkpt>
      <trkpt lat="45.97583" lon="4.7987">
        <ele>222</ele>
        <time>2016-11-19T09:30:30Z</time>
      </trkpt>
      <trkpt lat="45.97586" lon="4.79869">
        <ele>221</ele>
        <time>2016-11-19T09:30:31Z</time>
      </trkpt>
      <trkpt lat="45.97592" lon="4.79866">
        <ele>221</ele>
        <time>2016-11-19T09:30:33Z</time>
      </trkpt>
      <trkpt lat="45.97596" lon="4.79865">
        <ele>221</ele>
        <time>2016-11-19T09:30:34Z</time>
      </trkpt>
      <trkpt lat="45.97602" lon="4.79864">
        <ele>221</ele>
        <time>2016-11-19T09:30:36Z</time>
      </trkpt>
      <trkpt lat="45.97605" lon="4.79862">
        <ele>221</ele>
        <time>2016-11-19T09:30:37Z</time>
      </trkpt>
      <trkpt lat="45.97613" lon="4.79859">
        <ele>221</ele>
        <time>2016-11-19T09:30:39Z</time>
      </trkpt>
      <trkpt lat="45.97616" lon="4.79858">
        <ele>221</ele>
        <time>2016-11-19T09:30:40Z</time>
      </trkpt>
      <trkpt lat="45.97623" lon="4.79855">
        <ele>221</ele>
        <time>2016-11-19T09:30:42Z</time>
      </trkpt>
      <trkpt lat="45.97627" lon="4.79853">
        <ele>221</ele>
        <time>2016-11-19T09:30:43Z</time>
      </trkpt>
      <trkpt lat="45.97634" lon="4.79851">
        <ele>221</ele>
        <time>2016-11-19T09:30:45Z</time>
      </trkpt>
      <trkpt lat="45.97638" lon="4.7985">
        <ele>221</ele>
        <time>2016-11-19T09:30:46Z</time>
      </trkpt>
      <trkpt lat="45.97645" lon="4.79848">
        <ele>221</ele>
        <time>2016-11-19T09:30:48Z</time>
      </trkpt>
      <trkpt lat="45.97649" lon="4.79847">
        <ele>221</ele>
        <time>2016-11-19T09:30:49Z</time>
      </trkpt>
      <trkpt lat="45.97657" lon="4.79845">
        <ele>221</ele>
        <time>2016-11-19T09:30:51Z</time>
      </trkpt>
      <trkpt lat="45.97661" lon="4.79843">
        <ele>221</ele>
        <time>2016-11-19T09:30:52Z</time>
      </trkpt>
      <trkpt lat="45.97669" lon="4.79842">
        <ele>221</ele>
        <time>2016-11-19T09:30:54Z</time>
      </trkpt>
      <trkpt lat="45.97674" lon="4.79841">
        <ele>221</ele>
        <time>2016-11-19T09:30:55Z</time>
      </trkpt>
      <trkpt lat="45.97682" lon="4.79839">
        <ele>221</ele>
        <time>2016-11-19T09:30:57Z</time>
      </trkpt>
      <trkpt lat="45.97686" lon="4.79838">
        <ele>221</ele>
        <time>2016-11-19T09:30:58Z</time>
      </trkpt>
      <trkpt lat="45.97695" lon="4.79836">
        <ele>220</ele>
        <time>2016-11-19T09:31:00Z</time>
      </trkpt>
      <trkpt lat="45.97699" lon="4.79835">
        <ele>220</ele>
        <time>2016-11-19T09:31:01Z</time>
      </trkpt>
      <trkpt lat="45.97708" lon="4.79833">
        <ele>223</ele>
        <time>2016-11-19T09:31:03Z</time>
      </trkpt>
      <trkpt lat="45.97713" lon="4.79832">
        <ele>223</ele>
        <time>2016-11-19T09:31:04Z</time>
      </trkpt>
      <trkpt lat="45.97721" lon="4.7983">
        <ele>223</ele>
        <time>2016-11-19T09:31:06Z</time>
      </trkpt>
      <trkpt lat="45.97726" lon="4.79829">
        <ele>223</ele>
        <time>2016-11-19T09:31:07Z</time>
      </trkpt>
      <trkpt lat="45.97731" lon="4.79828">
        <ele>223</ele>
        <time>2016-11-19T09:31:08Z</time>
      </trkpt>
      <trkpt lat="45.97737" lon="4.79827">
        <ele>223</ele>
        <time>2016-11-19T09:31:09Z</time>
      </trkpt>
      <trkpt lat="45.97742" lon="4.79826">
        <ele>223</ele>
        <time>2016-11-19T09:31:10Z</time>
      </trkpt>
      <trkpt lat="45.97747" lon="4.79825">
        <ele>222</ele>
        <time>2016-11-19T09:31:11Z</time>
      </trkpt>
      <trkpt lat="45.97752" lon="4.79825">
        <ele>222</ele>
        <time>2016-11-19T09:31:12Z</time>
      </trkpt>
      <trkpt lat="45.97758" lon="4.79824">
        <ele>223</ele>
        <time>2016-11-19T09:31:13Z</time>
      </trkpt>
      <trkpt lat="45.97763" lon="4.79823">
        <ele>223</ele>
        <time>2016-11-19T09:31:14Z</time>
      </trkpt>
      <trkpt lat="45.97768" lon="4.79822">
        <ele>223</ele>
        <time>2016-11-19T09:31:15Z</time>
      </trkpt>
      <trkpt lat="45.97774" lon="4.79821">
        <ele>223</ele>
        <time>2016-11-19T09:31:16Z</time>
      </trkpt>
      <trkpt lat="45.97779" lon="4.7982">
        <ele>223</ele>
        <time>2016-11-19T09:31:17Z</time>
      </trkpt>
      <trkpt lat="45.97785" lon="4.79819">
        <ele>223</ele>
        <time>2016-11-19T09:31:18Z</time>
      </trkpt>
      <trkpt lat="45.9779" lon="4.79818">
        <ele>223</ele>
        <time>2016-11-19T09:31:19Z</time>
      </trkpt>
      <trkpt lat="45.97795" lon="4.79817">
        <ele>223</ele>
        <time>2016-11-19T09:31:20Z</time>
      </trkpt>
      <trkpt lat="45.978" lon="4.79816">
        <ele>223</ele>
        <time>2016-11-19T09:31:21Z</time>
      </trkpt>
      <trkpt lat="45.97805" lon="4.79814">
        <ele>223</ele>
        <time>2016-11-19T09:31:22Z</time>
      </trkpt>
      <trkpt lat="45.9781" lon="4.79813">
        <ele>223</ele>
        <time>2016-11-19T09:31:23Z</time>
      </trkpt>
      <trkpt lat="45.97815" lon="4.79812">
        <ele>223</ele>
        <time>2016-11-19T09:31:24Z</time>
      </trkpt>
      <trkpt lat="45.9782" lon="4.79811">
        <ele>223</ele>
        <time>2016-11-19T09:31:25Z</time>
      </trkpt>
      <trkpt lat="45.97825" lon="4.7981">
        <ele>223</ele>
        <time>2016-11-19T09:31:26Z</time>
      </trkpt>
      <trkpt lat="45.9783" lon="4.79809">
        <ele>223</ele>
        <time>2016-11-19T09:31:27Z</time>
      </trkpt>
      <trkpt lat="45.97835" lon="4.79808">
        <ele>224</ele>
        <time>2016-11-19T09:31:28Z</time>
      </trkpt>
      <trkpt lat="45.9784" lon="4.79806">
        <ele>224</ele>
        <time>2016-11-19T09:31:29Z</time>
      </trkpt>
      <trkpt lat="45.97845" lon="4.79806">
        <ele>224</ele>
        <time>2016-11-19T09:31:30Z</time>
      </trkpt>
      <trkpt lat="45.9785" lon="4.79805">
        <ele>224</ele>
        <time>2016-11-19T09:31:31Z</time>
      </trkpt>
      <trkpt lat="45.97856" lon="4.79804">
        <ele>224</ele>
        <time>2016-11-19T09:31:32Z</time>
      </trkpt>
      <trkpt lat="45.97861" lon="4.79803">
        <ele>224</ele>
        <time>2016-11-19T09:31:33Z</time>
      </trkpt>
      <trkpt lat="45.97867" lon="4.79801">
        <ele>224</ele>
        <time>2016-11-19T09:31:34Z</time>
      </trkpt>
      <trkpt lat="45.97872" lon="4.798">
        <ele>224</ele>
        <time>2016-11-19T09:31:35Z</time>
      </trkpt>
      <trkpt lat="45.97878" lon="4.79799">
        <ele>224</ele>
        <time>2016-11-19T09:31:36Z</time>
      </trkpt>
      <trkpt lat="45.97884" lon="4.79799">
        <ele>224</ele>
        <time>2016-11-19T09:31:37Z</time>
      </trkpt>
      <trkpt lat="45.9789" lon="4.79798">
        <ele>224</ele>
        <time>2016-11-19T09:31:38Z</time>
      </trkpt>
      <trkpt lat="45.97896" lon="4.79797">
        <ele>224</ele>
        <time>2016-11-19T09:31:39Z</time>
      </trkpt>
      <trkpt lat="45.97902" lon="4.79796">
        <ele>224</ele>
        <time>2016-11-19T09:31:40Z</time>
      </trkpt>
      <trkpt lat="45.97908" lon="4.79795">
        <ele>224</ele>
        <time>2016-11-19T09:31:41Z</time>
      </trkpt>
      <trkpt lat="45.97915" lon="4.79794">
        <ele>224</ele>
        <time>2016-11-19T09:31:42Z</time>
      </trkpt>
      <trkpt lat="45.97921" lon="4.79793">
        <ele>224</ele>
        <time>2016-11-19T09:31:43Z</time>
      </trkpt>
      <trkpt lat="45.97927" lon="4.79792">
        <ele>224</ele>
        <time>2016-11-19T09:31:44Z</time>
      </trkpt>
      <trkpt lat="45.97933" lon="4.79791">
        <ele>224</ele>
        <time>2016-11-19T09:31:45Z</time>
      </trkpt>
      <trkpt lat="45.97939" lon="4.7979">
        <ele>224</ele>
        <time>2016-11-19T09:31:46Z</time>
      </trkpt>
      <trkpt lat="45.97945" lon="4.79789">
        <ele>224</ele>
        <time>2016-11-19T09:31:47Z</time>
      </trkpt>
      <trkpt lat="45.97951" lon="4.79788">
        <ele>224</ele>
        <time>2016-11-19T09:31:48Z</time>
      </trkpt>
      <trkpt lat="45.97957" lon="4.79787">
        <ele>224</ele>
        <time>2016-11-19T09:31:49Z</time>
      </trkpt>
      <trkpt lat="45.97963" lon="4.79787">
        <ele>224</ele>
        <time>2016-11-19T09:31:50Z</time>
      </trkpt>
      <trkpt lat="45.97969" lon="4.79787">
        <ele>224</ele>
        <time>2016-11-19T09:31:51Z</time>
      </trkpt>
      <trkpt lat="45.97975" lon="4.79786">
        <ele>224</ele>
        <time>2016-11-19T09:31:52Z</time>
      </trkpt>
      <trkpt lat="45.9798" lon="4.79786">
        <ele>224</ele>
        <time>2016-11-19T09:31:53Z</time>
      </trkpt>
      <trkpt lat="45.97986" lon="4.79785">
        <ele>224</ele>
        <time>2016-11-19T09:31:54Z</time>
      </trkpt>
      <trkpt lat="45.97992" lon="4.79784">
        <ele>224</ele>
        <time>2016-11-19T09:31:55Z</time>
      </trkpt>
      <trkpt lat="45.97997" lon="4.79783">
        <ele>224</ele>
        <time>2016-11-19T09:31:56Z</time>
      </trkpt>
      <trkpt lat="45.98003" lon="4.79782">
        <ele>223</ele>
        <time>2016-11-19T09:31:57Z</time>
      </trkpt>
      <trkpt lat="45.98009" lon="4.79781">
        <ele>223</ele>
        <time>2016-11-19T09:31:58Z</time>
      </trkpt>
      <trkpt lat="45.98014" lon="4.7978">
        <ele>223</ele>
        <time>2016-11-19T09:31:59Z</time>
      </trkpt>
      <trkpt lat="45.9802" lon="4.79779">
        <ele>223</ele>
        <time>2016-11-19T09:32:00Z</time>
      </trkpt>
      <trkpt lat="45.98025" lon="4.79779">
        <ele>223</ele>
        <time>2016-11-19T09:32:01Z</time>
      </trkpt>
      <trkpt lat="45.98031" lon="4.79778">
        <ele>223</ele>
        <time>2016-11-19T09:32:02Z</time>
      </trkpt>
      <trkpt lat="45.98036" lon="4.79778">
        <ele>223</ele>
        <time>2016-11-19T09:32:03Z</time>
      </trkpt>
      <trkpt lat="45.98042" lon="4.79777">
        <ele>223</ele>
        <time>2016-11-19T09:32:04Z</time>
      </trkpt>
      <trkpt lat="45.98048" lon="4.79776">
        <ele>223</ele>
        <time>2016-11-19T09:32:05Z</time>
      </trkpt>
      <trkpt lat="45.98053" lon="4.79776">
        <ele>223</ele>
        <time>2016-11-19T09:32:06Z</time>
      </trkpt>
      <trkpt lat="45.98059" lon="4.79775">
        <ele>223</ele>
        <time>2016-11-19T09:32:07Z</time>
      </trkpt>
      <trkpt lat="45.98065" lon="4.79774">
        <ele>223</ele>
        <time>2016-11-19T09:32:08Z</time>
      </trkpt>
      <trkpt lat="45.9807" lon="4.79772">
        <ele>223</ele>
        <time>2016-11-19T09:32:09Z</time>
      </trkpt>
      <trkpt lat="45.98076" lon="4.79771">
        <ele>223</ele>
        <time>2016-11-19T09:32:10Z</time>
      </trkpt>
      <trkpt lat="45.98082" lon="4.79771">
        <ele>223</ele>
        <time>2016-11-19T09:32:11Z</time>
      </trkpt>
      <trkpt lat="45.98087" lon="4.7977">
        <ele>223</ele>
        <time>2016-11-19T09:32:12Z</time>
      </trkpt>
      <trkpt lat="45.98093" lon="4.79769">
        <ele>223</ele>
        <time>2016-11-19T09:32:13Z</time>
      </trkpt>
      <trkpt lat="45.98099" lon="4.79768">
        <ele>223</ele>
        <time>2016-11-19T09:32:14Z</time>
      </trkpt>
      <trkpt lat="45.98105" lon="4.79768">
        <ele>224</ele>
        <time>2016-11-19T09:32:15Z</time>
      </trkpt>
      <trkpt lat="45.9811" lon="4.79767">
        <ele>224</ele>
        <time>2016-11-19T09:32:16Z</time>
      </trkpt>
      <trkpt lat="45.98116" lon="4.79766">
        <ele>224</ele>
        <time>2016-11-19T09:32:17Z</time>
      </trkpt>
      <trkpt lat="45.98121" lon="4.79765">
        <ele>224</ele>
        <time>2016-11-19T09:32:18Z</time>
      </trkpt>
      <trkpt lat="45.98126" lon="4.79765">
        <ele>224</ele>
        <time>2016-11-19T09:32:19Z</time>
      </trkpt>
      <trkpt lat="45.98131" lon="4.79764">
        <ele>224</ele>
        <time>2016-11-19T09:32:20Z</time>
      </trkpt>
      <trkpt lat="45.98137" lon="4.79763">
        <ele>224</ele>
        <time>2016-11-19T09:32:21Z</time>
      </trkpt>
      <trkpt lat="45.98145" lon="4.79763">
        <ele>225</ele>
        <time>2016-11-19T09:32:23Z</time>
      </trkpt>
      <trkpt lat="45.9815" lon="4.79766">
        <ele>225</ele>
        <time>2016-11-19T09:32:24Z</time>
      </trkpt>
      <trkpt lat="45.98155" lon="4.79768">
        <ele>225</ele>
        <time>2016-11-19T09:32:25Z</time>
      </trkpt>
      <trkpt lat="45.98159" lon="4.79771">
        <ele>225</ele>
        <time>2016-11-19T09:32:26Z</time>
      </trkpt>
      <trkpt lat="45.98167" lon="4.79775">
        <ele>226</ele>
        <time>2016-11-19T09:32:28Z</time>
      </trkpt>
      <trkpt lat="45.98171" lon="4.7978">
        <ele>226</ele>
        <time>2016-11-19T09:32:29Z</time>
      </trkpt>
      <trkpt lat="45.98174" lon="4.79784">
        <ele>226</ele>
        <time>2016-11-19T09:32:30Z</time>
      </trkpt>
      <trkpt lat="45.98177" lon="4.7979">
        <ele>226</ele>
        <time>2016-11-19T09:32:31Z</time>
      </trkpt>
      <trkpt lat="45.9818" lon="4.79796">
        <ele>226</ele>
        <time>2016-11-19T09:32:32Z</time>
      </trkpt>
      <trkpt lat="45.98182" lon="4.79804">
        <ele>226</ele>
        <time>2016-11-19T09:32:33Z</time>
      </trkpt>
      <trkpt lat="45.98185" lon="4.79811">
        <ele>225</ele>
        <time>2016-11-19T09:32:34Z</time>
      </trkpt>
      <trkpt lat="45.98189" lon="4.79819">
        <ele>225</ele>
        <time>2016-11-19T09:32:35Z</time>
      </trkpt>
      <trkpt lat="45.98193" lon="4.79827">
        <ele>225</ele>
        <time>2016-11-19T09:32:36Z</time>
      </trkpt>
      <trkpt lat="45.98196" lon="4.79835">
        <ele>225</ele>
        <time>2016-11-19T09:32:37Z</time>
      </trkpt>
      <trkpt lat="45.98199" lon="4.79844">
        <ele>225</ele>
        <time>2016-11-19T09:32:38Z</time>
      </trkpt>
      <trkpt lat="45.98203" lon="4.79853">
        <ele>225</ele>
        <time>2016-11-19T09:32:39Z</time>
      </trkpt>
      <trkpt lat="45.98206" lon="4.79862">
        <ele>225</ele>
        <time>2016-11-19T09:32:40Z</time>
      </trkpt>
      <trkpt lat="45.98209" lon="4.79871">
        <ele>225</ele>
        <time>2016-11-19T09:32:41Z</time>
      </trkpt>
      <trkpt lat="45.98212" lon="4.7988">
        <ele>225</ele>
        <time>2016-11-19T09:32:42Z</time>
      </trkpt>
      <trkpt lat="45.98215" lon="4.79889">
        <ele>225</ele>
        <time>2016-11-19T09:32:43Z</time>
      </trkpt>
      <trkpt lat="45.98219" lon="4.79898">
        <ele>225</ele>
        <time>2016-11-19T09:32:44Z</time>
      </trkpt>
      <trkpt lat="45.98222" lon="4.79906">
        <ele>225</ele>
        <time>2016-11-19T09:32:45Z</time>
      </trkpt>
      <trkpt lat="45.98225" lon="4.79915">
        <ele>225</ele>
        <time>2016-11-19T09:32:46Z</time>
      </trkpt>
      <trkpt lat="45.98228" lon="4.79923">
        <ele>225</ele>
        <time>2016-11-19T09:32:47Z</time>
      </trkpt>
      <trkpt lat="45.98231" lon="4.79932">
        <ele>225</ele>
        <time>2016-11-19T09:32:48Z</time>
      </trkpt>
      <trkpt lat="45.98235" lon="4.7994">
        <ele>225</ele>
        <time>2016-11-19T09:32:49Z</time>
      </trkpt>
      <trkpt lat="45.98236" lon="4.79948">
        <ele>225</ele>
        <time>2016-11-19T09:32:50Z</time>
      </trkpt>
      <trkpt lat="45.98238" lon="4.79956">
        <ele>225</ele>
        <time>2016-11-19T09:32:51Z</time>
      </trkpt>
      <trkpt lat="45.98241" lon="4.79963">
        <ele>225</ele>
        <time>2016-11-19T09:32:52Z</time>
      </trkpt>
      <trkpt lat="45.98244" lon="4.79971">
        <ele>225</ele>
        <time>2016-11-19T09:32:53Z</time>
      </trkpt>
      <trkpt lat="45.98249" lon="4.79978">
        <ele>225</ele>
        <time>2016-11-19T09:32:54Z</time>
      </trkpt>
      <trkpt lat="45.98253" lon="4.79985">
        <ele>228</ele>
        <time>2016-11-19T09:32:55Z</time>
      </trkpt>
      <trkpt lat="45.98254" lon="4.79993">
        <ele>227</ele>
        <time>2016-11-19T09:32:56Z</time>
      </trkpt>
      <trkpt lat="45.98256" lon="4.80001">
        <ele>227</ele>
        <time>2016-11-19T09:32:57Z</time>
      </trkpt>
      <trkpt lat="45.98259" lon="4.80009">
        <ele>227</ele>
        <time>2016-11-19T09:32:58Z</time>
      </trkpt>
      <trkpt lat="45.98261" lon="4.80017">
        <ele>228</ele>
        <time>2016-11-19T09:32:59Z</time>
      </trkpt>
      <trkpt lat="45.98263" lon="4.80024">
        <ele>228</ele>
        <time>2016-11-19T09:33:00Z</time>
      </trkpt>
      <trkpt lat="45.98266" lon="4.80032">
        <ele>228</ele>
        <time>2016-11-19T09:33:01Z</time>
      </trkpt>
      <trkpt lat="45.98269" lon="4.80039">
        <ele>229</ele>
        <time>2016-11-19T09:33:02Z</time>
      </trkpt>
      <trkpt lat="45.98272" lon="4.80046">
        <ele>229</ele>
        <time>2016-11-19T09:33:03Z</time>
      </trkpt>
      <trkpt lat="45.98275" lon="4.80053">
        <ele>229</ele>
        <time>2016-11-19T09:33:04Z</time>
      </trkpt>
      <trkpt lat="45.98277" lon="4.8006">
        <ele>229</ele>
        <time>2016-11-19T09:33:05Z</time>
      </trkpt>
      <trkpt lat="45.9828" lon="4.80067">
        <ele>229</ele>
        <time>2016-11-19T09:33:06Z</time>
      </trkpt>
      <trkpt lat="45.98282" lon="4.80074">
        <ele>229</ele>
        <time>2016-11-19T09:33:07Z</time>
      </trkpt>
      <trkpt lat="45.98285" lon="4.80082">
        <ele>229</ele>
        <time>2016-11-19T09:33:08Z</time>
      </trkpt>
      <trkpt lat="45.98287" lon="4.80089">
        <ele>228</ele>
        <time>2016-11-19T09:33:09Z</time>
      </trkpt>
      <trkpt lat="45.9829" lon="4.80095">
        <ele>228</ele>
        <time>2016-11-19T09:33:10Z</time>
      </trkpt>
      <trkpt lat="45.98291" lon="4.80103">
        <ele>228</ele>
        <time>2016-11-19T09:33:11Z</time>
      </trkpt>
      <trkpt lat="45.98294" lon="4.80109">
        <ele>228</ele>
        <time>2016-11-19T09:33:12Z</time>
      </trkpt>
      <trkpt lat="45.98296" lon="4.80116">
        <ele>228</ele>
        <time>2016-11-19T09:33:13Z</time>
      </trkpt>
      <trkpt lat="45.98298" lon="4.80122">
        <ele>228</ele>
        <time>2016-11-19T09:33:14Z</time>
      </trkpt>
      <trkpt lat="45.983" lon="4.80128">
        <ele>228</ele>
        <time>2016-11-19T09:33:15Z</time>
      </trkpt>
      <trkpt lat="45.98302" lon="4.80134">
        <ele>228</ele>
        <time>2016-11-19T09:33:16Z</time>
      </trkpt>
      <trkpt lat="45.98304" lon="4.8014">
        <ele>228</ele>
        <time>2016-11-19T09:33:17Z</time>
      </trkpt>
      <trkpt lat="45.98306" lon="4.80146">
        <ele>228</ele>
        <time>2016-11-19T09:33:18Z</time>
      </trkpt>
      <trkpt lat="45.98309" lon="4.80152">
        <ele>228</ele>
        <time>2016-11-19T09:33:19Z</time>
      </trkpt>
      <trkpt lat="45.98311" lon="4.80158">
        <ele>228</ele>
        <time>2016-11-19T09:33:20Z</time>
      </trkpt>
      <trkpt lat="45.98313" lon="4.80165">
        <ele>228</ele>
        <time>2016-11-19T09:33:21Z</time>
      </trkpt>
      <trkpt lat="45.98315" lon="4.80172">
        <ele>227</ele>
        <time>2016-11-19T09:33:22Z</time>
      </trkpt>
      <trkpt lat="45.98318" lon="4.80178">
        <ele>227</ele>
        <time>2016-11-19T09:33:23Z</time>
      </trkpt>
      <trkpt lat="45.9832" lon="4.80185">
        <ele>227</ele>
        <time>2016-11-19T09:33:24Z</time>
      </trkpt>
      <trkpt lat="45.98322" lon="4.80193">
        <ele>227</ele>
        <time>2016-11-19T09:33:25Z</time>
      </trkpt>
      <trkpt lat="45.98325" lon="4.80199">
        <ele>227</ele>
        <time>2016-11-19T09:33:26Z</time>
      </trkpt>
      <trkpt lat="45.98327" lon="4.80206">
        <ele>227</ele>
        <time>2016-11-19T09:33:27Z</time>
      </trkpt>
      <trkpt lat="45.98329" lon="4.80213">
        <ele>227</ele>
        <time>2016-11-19T09:33:28Z</time>
      </trkpt>
      <trkpt lat="45.98331" lon="4.8022">
        <ele>227</ele>
        <time>2016-11-19T09:33:29Z</time>
      </trkpt>
      <trkpt lat="45.98332" lon="4.80227">
        <ele>228</ele>
        <time>2016-11-19T09:33:30Z</time>
      </trkpt>
      <trkpt lat="45.98331" lon="4.80234">
        <ele>228</ele>
        <time>2016-11-19T09:33:31Z</time>
      </trkpt>
      <trkpt lat="45.98329" lon="4.80241">
        <ele>229</ele>
        <time>2016-11-19T09:33:32Z</time>
      </trkpt>
      <trkpt lat="45.98327" lon="4.80248">
        <ele>229</ele>
        <time>2016-11-19T09:33:33Z</time>
      </trkpt>
      <trkpt lat="45.98325" lon="4.80256">
        <ele>228</ele>
        <time>2016-11-19T09:33:34Z</time>
      </trkpt>
      <trkpt lat="45.98324" lon="4.80263">
        <ele>228</ele>
        <time>2016-11-19T09:33:35Z</time>
      </trkpt>
      <trkpt lat="45.98322" lon="4.80271">
        <ele>227</ele>
        <time>2016-11-19T09:33:36Z</time>
      </trkpt>
      <trkpt lat="45.9832" lon="4.80279">
        <ele>227</ele>
        <time>2016-11-19T09:33:37Z</time>
      </trkpt>
      <trkpt lat="45.98319" lon="4.80287">
        <ele>226</ele>
        <time>2016-11-19T09:33:38Z</time>
      </trkpt>
      <trkpt lat="45.98316" lon="4.80296">
        <ele>226</ele>
        <time>2016-11-19T09:33:39Z</time>
      </trkpt>
      <trkpt lat="45.98315" lon="4.80304">
        <ele>226</ele>
        <time>2016-11-19T09:33:40Z</time>
      </trkpt>
      <trkpt lat="45.98313" lon="4.80313">
        <ele>226</ele>
        <time>2016-11-19T09:33:41Z</time>
      </trkpt>
      <trkpt lat="45.98311" lon="4.80321">
        <ele>227</ele>
        <time>2016-11-19T09:33:42Z</time>
      </trkpt>
      <trkpt lat="45.9831" lon="4.8033">
        <ele>227</ele>
        <time>2016-11-19T09:33:43Z</time>
      </trkpt>
      <trkpt lat="45.98308" lon="4.80338">
        <ele>226</ele>
        <time>2016-11-19T09:33:44Z</time>
      </trkpt>
      <trkpt lat="45.98306" lon="4.80347">
        <ele>226</ele>
        <time>2016-11-19T09:33:45Z</time>
      </trkpt>
      <trkpt lat="45.98304" lon="4.80356">
        <ele>225</ele>
        <time>2016-11-19T09:33:46Z</time>
      </trkpt>
      <trkpt lat="45.98302" lon="4.80364">
        <ele>225</ele>
        <time>2016-11-19T09:33:47Z</time>
      </trkpt>
      <trkpt lat="45.983" lon="4.80373">
        <ele>225</ele>
        <time>2016-11-19T09:33:48Z</time>
      </trkpt>
      <trkpt lat="45.98297" lon="4.80383">
        <ele>225</ele>
        <time>2016-11-19T09:33:49Z</time>
      </trkpt>
      <trkpt lat="45.98295" lon="4.80392">
        <ele>224</ele>
        <time>2016-11-19T09:33:50Z</time>
      </trkpt>
      <trkpt lat="45.98293" lon="4.80401">
        <ele>224</ele>
        <time>2016-11-19T09:33:51Z</time>
      </trkpt>
      <trkpt lat="45.98291" lon="4.80411">
        <ele>224</ele>
        <time>2016-11-19T09:33:52Z</time>
      </trkpt>
      <trkpt lat="45.98288" lon="4.8042">
        <ele>224</ele>
        <time>2016-11-19T09:33:53Z</time>
      </trkpt>
      <trkpt lat="45.98286" lon="4.80429">
        <ele>223</ele>
        <time>2016-11-19T09:33:54Z</time>
      </trkpt>
      <trkpt lat="45.98283" lon="4.80437">
        <ele>223</ele>
        <time>2016-11-19T09:33:55Z</time>
      </trkpt>
      <trkpt lat="45.98282" lon="4.80447">
        <ele>223</ele>
        <time>2016-11-19T09:33:56Z</time>
      </trkpt>
      <trkpt lat="45.9828" lon="4.80457">
        <ele>223</ele>
        <time>2016-11-19T09:33:57Z</time>
      </trkpt>
      <trkpt lat="45.98278" lon="4.80466">
        <ele>223</ele>
        <time>2016-11-19T09:33:58Z</time>
      </trkpt>
      <trkpt lat="45.98277" lon="4.80475">
        <ele>223</ele>
        <time>2016-11-19T09:33:59Z</time>
      </trkpt>
      <trkpt lat="45.98275" lon="4.80483">
        <ele>223</ele>
        <time>2016-11-19T09:34:00Z</time>
      </trkpt>
      <trkpt lat="45.98273" lon="4.80491">
        <ele>223</ele>
        <time>2016-11-19T09:34:01Z</time>
      </trkpt>
      <trkpt lat="45.9827" lon="4.80499">
        <ele>223</ele>
        <time>2016-11-19T09:34:02Z</time>
      </trkpt>
      <trkpt lat="45.98268" lon="4.80507">
        <ele>223</ele>
        <time>2016-11-19T09:34:03Z</time>
      </trkpt>
      <trkpt lat="45.98266" lon="4.80515">
        <ele>223</ele>
        <time>2016-11-19T09:34:04Z</time>
      </trkpt>
      <trkpt lat="45.98263" lon="4.80522">
        <ele>223</ele>
        <time>2016-11-19T09:34:05Z</time>
      </trkpt>
      <trkpt lat="45.98261" lon="4.8053">
        <ele>224</ele>
        <time>2016-11-19T09:34:06Z</time>
      </trkpt>
      <trkpt lat="45.98259" lon="4.80537">
        <ele>224</ele>
        <time>2016-11-19T09:34:07Z</time>
      </trkpt>
      <trkpt lat="45.98257" lon="4.80544">
        <ele>224</ele>
        <time>2016-11-19T09:34:08Z</time>
      </trkpt>
      <trkpt lat="45.98254" lon="4.80551">
        <ele>224</ele>
        <time>2016-11-19T09:34:09Z</time>
      </trkpt>
      <trkpt lat="45.98251" lon="4.80558">
        <ele>224</ele>
        <time>2016-11-19T09:34:10Z</time>
      </trkpt>
      <trkpt lat="45.98249" lon="4.80566">
        <ele>223</ele>
        <time>2016-11-19T09:34:11Z</time>
      </trkpt>
      <trkpt lat="45.98246" lon="4.80574">
        <ele>224</ele>
        <time>2016-11-19T09:34:12Z</time>
      </trkpt>
      <trkpt lat="45.98244" lon="4.80582">
        <ele>224</ele>
        <time>2016-11-19T09:34:13Z</time>
      </trkpt>
      <trkpt lat="45.98242" lon="4.8059">
        <ele>224</ele>
        <time>2016-11-19T09:34:14Z</time>
      </trkpt>
      <trkpt lat="45.9824" lon="4.80597">
        <ele>224</ele>
        <time>2016-11-19T09:34:15Z</time>
      </trkpt>
      <trkpt lat="45.98237" lon="4.80605">
        <ele>224</ele>
        <time>2016-11-19T09:34:16Z</time>
      </trkpt>
      <trkpt lat="45.98235" lon="4.80612">
        <ele>224</ele>
        <time>2016-11-19T09:34:17Z</time>
      </trkpt>
      <trkpt lat="45.98233" lon="4.80619">
        <ele>224</ele>
        <time>2016-11-19T09:34:18Z</time>
      </trkpt>
      <trkpt lat="45.9823" lon="4.80626">
        <ele>224</ele>
        <time>2016-11-19T09:34:19Z</time>
      </trkpt>
      <trkpt lat="45.98228" lon="4.80633">
        <ele>224</ele>
        <time>2016-11-19T09:34:20Z</time>
      </trkpt>
      <trkpt lat="45.98226" lon="4.80641">
        <ele>224</ele>
        <time>2016-11-19T09:34:21Z</time>
      </trkpt>
      <trkpt lat="45.98224" lon="4.80647">
        <ele>224</ele>
        <time>2016-11-19T09:34:22Z</time>
      </trkpt>
      <trkpt lat="45.98221" lon="4.80654">
        <ele>224</ele>
        <time>2016-11-19T09:34:23Z</time>
      </trkpt>
      <trkpt lat="45.98218" lon="4.8066">
        <ele>224</ele>
        <time>2016-11-19T09:34:24Z</time>
      </trkpt>
      <trkpt lat="45.98214" lon="4.80664">
        <ele>224</ele>
        <time>2016-11-19T09:34:25Z</time>
      </trkpt>
      <trkpt lat="45.9821" lon="4.80667">
        <ele>224</ele>
        <time>2016-11-19T09:34:26Z</time>
      </trkpt>
      <trkpt lat="45.98205" lon="4.80671">
        <ele>224</ele>
        <time>2016-11-19T09:34:27Z</time>
      </trkpt>
      <trkpt lat="45.98201" lon="4.80673">
        <ele>225</ele>
        <time>2016-11-19T09:34:28Z</time>
      </trkpt>
      <trkpt lat="45.98196" lon="4.80675">
        <ele>225</ele>
        <time>2016-11-19T09:34:29Z</time>
      </trkpt>
      <trkpt lat="45.9819" lon="4.80677">
        <ele>225</ele>
        <time>2016-11-19T09:34:30Z</time>
      </trkpt>
      <trkpt lat="45.98185" lon="4.80678">
        <ele>225</ele>
        <time>2016-11-19T09:34:31Z</time>
      </trkpt>
      <trkpt lat="45.9818" lon="4.8068">
        <ele>225</ele>
        <time>2016-11-19T09:34:32Z</time>
      </trkpt>
      <trkpt lat="45.98174" lon="4.80682">
        <ele>225</ele>
        <time>2016-11-19T09:34:33Z</time>
      </trkpt>
      <trkpt lat="45.98169" lon="4.80683">
        <ele>225</ele>
        <time>2016-11-19T09:34:34Z</time>
      </trkpt>
      <trkpt lat="45.98164" lon="4.80684">
        <ele>227</ele>
        <time>2016-11-19T09:34:35Z</time>
      </trkpt>
      <trkpt lat="45.98159" lon="4.80685">
        <ele>227</ele>
        <time>2016-11-19T09:34:36Z</time>
      </trkpt>
      <trkpt lat="45.98155" lon="4.80685">
        <ele>227</ele>
        <time>2016-11-19T09:34:37Z</time>
      </trkpt>
      <trkpt lat="45.98146" lon="4.80686">
        <ele>228</ele>
        <time>2016-11-19T09:34:39Z</time>
      </trkpt>
      <trkpt lat="45.98141" lon="4.80686">
        <ele>228</ele>
        <time>2016-11-19T09:34:40Z</time>
      </trkpt>
      <trkpt lat="45.98133" lon="4.80686">
        <ele>228</ele>
        <time>2016-11-19T09:34:42Z</time>
      </trkpt>
      <trkpt lat="45.98129" lon="4.80686">
        <ele>228</ele>
        <time>2016-11-19T09:34:43Z</time>
      </trkpt>
      <trkpt lat="45.98121" lon="4.80688">
        <ele>228</ele>
        <time>2016-11-19T09:34:45Z</time>
      </trkpt>
      <trkpt lat="45.98117" lon="4.80687">
        <ele>228</ele>
        <time>2016-11-19T09:34:46Z</time>
      </trkpt>
      <trkpt lat="45.9811" lon="4.80687">
        <ele>228</ele>
        <time>2016-11-19T09:34:48Z</time>
      </trkpt>
      <trkpt lat="45.98106" lon="4.80688">
        <ele>228</ele>
        <time>2016-11-19T09:34:49Z</time>
      </trkpt>
      <trkpt lat="45.98098" lon="4.80689">
        <ele>228</ele>
        <time>2016-11-19T09:34:51Z</time>
      </trkpt>
      <trkpt lat="45.98094" lon="4.80689">
        <ele>228</ele>
        <time>2016-11-19T09:34:52Z</time>
      </trkpt>
      <trkpt lat="45.98087" lon="4.80689">
        <ele>228</ele>
        <time>2016-11-19T09:34:54Z</time>
      </trkpt>
      <trkpt lat="45.98083" lon="4.80689">
        <ele>229</ele>
        <time>2016-11-19T09:34:55Z</time>
      </trkpt>
      <trkpt lat="45.98076" lon="4.8069">
        <ele>230</ele>
        <time>2016-11-19T09:34:57Z</time>
      </trkpt>
      <trkpt lat="45.98073" lon="4.8069">
        <ele>230</ele>
        <time>2016-11-19T09:34:58Z</time>
      </trkpt>
      <trkpt lat="45.98066" lon="4.80688">
        <ele>230</ele>
        <time>2016-11-19T09:35:00Z</time>
      </trkpt>
      <trkpt lat="45.98063" lon="4.80687">
        <ele>230</ele>
        <time>2016-11-19T09:35:01Z</time>
      </trkpt>
      <trkpt lat="45.98056" lon="4.80688">
        <ele>230</ele>
        <time>2016-11-19T09:35:03Z</time>
      </trkpt>
      <trkpt lat="45.98053" lon="4.80689">
        <ele>230</ele>
        <time>2016-11-19T09:35:04Z</time>
      </trkpt>
      <trkpt lat="45.98047" lon="4.80691">
        <ele>230</ele>
        <time>2016-11-19T09:35:06Z</time>
      </trkpt>
      <trkpt lat="45.98044" lon="4.80692">
        <ele>230</ele>
        <time>2016-11-19T09:35:07Z</time>
      </trkpt>
      <trkpt lat="45.98038" lon="4.80694">
        <ele>230</ele>
        <time>2016-11-19T09:35:09Z</time>
      </trkpt>
      <trkpt lat="45.98035" lon="4.80696">
        <ele>230</ele>
        <time>2016-11-19T09:35:10Z</time>
      </trkpt>
      <trkpt lat="45.98031" lon="4.80703">
        <ele>231</ele>
        <time>2016-11-19T09:35:12Z</time>
      </trkpt>
      <trkpt lat="45.98029" lon="4.80707">
        <ele>231</ele>
        <time>2016-11-19T09:35:13Z</time>
      </trkpt>
      <trkpt lat="45.98029" lon="4.80719">
        <ele>231</ele>
        <time>2016-11-19T09:35:16Z</time>
      </trkpt>
      <trkpt lat="45.9803" lon="4.80723">
        <ele>231</ele>
        <time>2016-11-19T09:35:17Z</time>
      </trkpt>
      <trkpt lat="45.98034" lon="4.80734">
        <ele>231</ele>
        <time>2016-11-19T09:35:20Z</time>
      </trkpt>
      <trkpt lat="45.98035" lon="4.80738">
        <ele>231</ele>
        <time>2016-11-19T09:35:21Z</time>
      </trkpt>
      <trkpt lat="45.98038" lon="4.80749">
        <ele>231</ele>
        <time>2016-11-19T09:35:24Z</time>
      </trkpt>
      <trkpt lat="45.9804" lon="4.80752">
        <ele>233</ele>
        <time>2016-11-19T09:35:25Z</time>
      </trkpt>
      <trkpt lat="45.98041" lon="4.80764">
        <ele>233</ele>
        <time>2016-11-19T09:35:28Z</time>
      </trkpt>
      <trkpt lat="45.98042" lon="4.80768">
        <ele>233</ele>
        <time>2016-11-19T09:35:29Z</time>
      </trkpt>
      <trkpt lat="45.98046" lon="4.8078">
        <ele>233</ele>
        <time>2016-11-19T09:35:32Z</time>
      </trkpt>
      <trkpt lat="45.98047" lon="4.80783">
        <ele>233</ele>
        <time>2016-11-19T09:35:33Z</time>
      </trkpt>
      <trkpt lat="45.98049" lon="4.80795">
        <ele>233</ele>
        <time>2016-11-19T09:35:36Z</time>
      </trkpt>
      <trkpt lat="45.9805" lon="4.80798">
        <ele>234</ele>
        <time>2016-11-19T09:35:37Z</time>
      </trkpt>
      <trkpt lat="45.98053" lon="4.80809">
        <ele>234</ele>
        <time>2016-11-19T09:35:40Z</time>
      </trkpt>
      <trkpt lat="45.98054" lon="4.80813">
        <ele>234</ele>
        <time>2016-11-19T09:35:41Z</time>
      </trkpt>
      <trkpt lat="45.98056" lon="4.80823">
        <ele>234</ele>
        <time>2016-11-19T09:35:44Z</time>
      </trkpt>
      <trkpt lat="45.98057" lon="4.80827">
        <ele>234</ele>
        <time>2016-11-19T09:35:45Z</time>
      </trkpt>
      <trkpt lat="45.98059" lon="4.80838">
        <ele>236</ele>
        <time>2016-11-19T09:35:48Z</time>
      </trkpt>
      <trkpt lat="45.9806" lon="4.80842">
        <ele>236</ele>
        <time>2016-11-19T09:35:49Z</time>
      </trkpt>
      <trkpt lat="45.98061" lon="4.80854">
        <ele>236</ele>
        <time>2016-11-19T09:35:52Z</time>
      </trkpt>
      <trkpt lat="45.98063" lon="4.80857">
        <ele>236</ele>
        <time>2016-11-19T09:35:53Z</time>
      </trkpt>
      <trkpt lat="45.98065" lon="4.80869">
        <ele>237</ele>
        <time>2016-11-19T09:35:56Z</time>
      </trkpt>
      <trkpt lat="45.98065" lon="4.80873">
        <ele>237</ele>
        <time>2016-11-19T09:35:57Z</time>
      </trkpt>
      <trkpt lat="45.98067" lon="4.80882">
        <ele>237</ele>
        <time>2016-11-19T09:35:59Z</time>
      </trkpt>
      <trkpt lat="45.98068" lon="4.80886">
        <ele>237</ele>
        <time>2016-11-19T09:36:00Z</time>
      </trkpt>
      <trkpt lat="45.9807" lon="4.80896">
        <ele>238</ele>
        <time>2016-11-19T09:36:02Z</time>
      </trkpt>
      <trkpt lat="45.98072" lon="4.809">
        <ele>238</ele>
        <time>2016-11-19T09:36:03Z</time>
      </trkpt>
      <trkpt lat="45.98074" lon="4.80909">
        <ele>238</ele>
        <time>2016-11-19T09:36:05Z</time>
      </trkpt>
      <trkpt lat="45.98076" lon="4.80913">
        <ele>239</ele>
        <time>2016-11-19T09:36:06Z</time>
      </trkpt>
      <trkpt lat="45.98078" lon="4.80921">
        <ele>239</ele>
        <time>2016-11-19T09:36:08Z</time>
      </trkpt>
      <trkpt lat="45.98079" lon="4.80925">
        <ele>240</ele>
        <time>2016-11-19T09:36:09Z</time>
      </trkpt>
      <trkpt lat="45.98082" lon="4.80933">
        <ele>240</ele>
        <time>2016-11-19T09:36:11Z</time>
      </trkpt>
      <trkpt lat="45.98083" lon="4.80937">
        <ele>240</ele>
        <time>2016-11-19T09:36:12Z</time>
      </trkpt>
      <trkpt lat="45.98086" lon="4.80946">
        <ele>238</ele>
        <time>2016-11-19T09:36:14Z</time>
      </trkpt>
      <trkpt lat="45.98087" lon="4.8095">
        <ele>238</ele>
        <time>2016-11-19T09:36:15Z</time>
      </trkpt>
      <trkpt lat="45.98089" lon="4.80958">
        <ele>239</ele>
        <time>2016-11-19T09:36:17Z</time>
      </trkpt>
      <trkpt lat="45.98089" lon="4.80962">
        <ele>239</ele>
        <time>2016-11-19T09:36:18Z</time>
      </trkpt>
      <trkpt lat="45.98093" lon="4.80973">
        <ele>239</ele>
        <time>2016-11-19T09:36:21Z</time>
      </trkpt>
      <trkpt lat="45.98094" lon="4.80977">
        <ele>239</ele>
        <time>2016-11-19T09:36:22Z</time>
      </trkpt>
      <trkpt lat="45.98098" lon="4.80987">
        <ele>240</ele>
        <time>2016-11-19T09:36:25Z</time>
      </trkpt>
      <trkpt lat="45.98099" lon="4.80991">
        <ele>240</ele>
        <time>2016-11-19T09:36:26Z</time>
      </trkpt>
      <trkpt lat="45.98101" lon="4.81">
        <ele>240</ele>
        <time>2016-11-19T09:36:28Z</time>
      </trkpt>
      <trkpt lat="45.98103" lon="4.81005">
        <ele>242</ele>
        <time>2016-11-19T09:36:29Z</time>
      </trkpt>
      <trkpt lat="45.98107" lon="4.81015">
        <ele>242</ele>
        <time>2016-11-19T09:36:31Z</time>
      </trkpt>
      <trkpt lat="45.98109" lon="4.81021">
        <ele>242</ele>
        <time>2016-11-19T09:36:32Z</time>
      </trkpt>
      <trkpt lat="45.98114" lon="4.8103">
        <ele>242</ele>
        <time>2016-11-19T09:36:34Z</time>
      </trkpt>
      <trkpt lat="45.98116" lon="4.81036">
        <ele>242</ele>
        <time>2016-11-19T09:36:35Z</time>
      </trkpt>
      <trkpt lat="45.98118" lon="4.81047">
        <ele>242</ele>
        <time>2016-11-19T09:36:37Z</time>
      </trkpt>
      <trkpt lat="45.9812" lon="4.81053">
        <ele>243</ele>
        <time>2016-11-19T09:36:38Z</time>
      </trkpt>
      <trkpt lat="45.98124" lon="4.81062">
        <ele>243</ele>
        <time>2016-11-19T09:36:40Z</time>
      </trkpt>
      <trkpt lat="45.98126" lon="4.81067">
        <ele>243</ele>
        <time>2016-11-19T09:36:41Z</time>
      </trkpt>
      <trkpt lat="45.98129" lon="4.81077">
        <ele>243</ele>
        <time>2016-11-19T09:36:43Z</time>
      </trkpt>
      <trkpt lat="45.98131" lon="4.81082">
        <ele>243</ele>
        <time>2016-11-19T09:36:44Z</time>
      </trkpt>
      <trkpt lat="45.98133" lon="4.81091">
        <ele>245</ele>
        <time>2016-11-19T09:36:46Z</time>
      </trkpt>
      <trkpt lat="45.98135" lon="4.81095">
        <ele>245</ele>
        <time>2016-11-19T09:36:47Z</time>
      </trkpt>
      <trkpt lat="45.98138" lon="4.81105">
        <ele>245</ele>
        <time>2016-11-19T09:36:49Z</time>
      </trkpt>
      <trkpt lat="45.9814" lon="4.81109">
        <ele>245</ele>
        <time>2016-11-19T09:36:50Z</time>
      </trkpt>
      <trkpt lat="45.98144" lon="4.81118">
        <ele>245</ele>
        <time>2016-11-19T09:36:52Z</time>
      </trkpt>
      <trkpt lat="45.98145" lon="4.81123">
        <ele>245</ele>
        <time>2016-11-19T09:36:53Z</time>
      </trkpt>
      <trkpt lat="45.98149" lon="4.81132">
        <ele>245</ele>
        <time>2016-11-19T09:36:55Z</time>
      </trkpt>
      <trkpt lat="45.98151" lon="4.81137">
        <ele>245</ele>
        <time>2016-11-19T09:36:56Z</time>
      </trkpt>
      <trkpt lat="45.98154" lon="4.81147">
        <ele>245</ele>
        <time>2016-11-19T09:36:58Z</time>
      </trkpt>
      <trkpt lat="45.98156" lon="4.81152">
        <ele>245</ele>
        <time>2016-11-19T09:36:59Z</time>
      </trkpt>
      <trkpt lat="45.9816" lon="4.81161">
        <ele>245</ele>
        <time>2016-11-19T09:37:01Z</time>
      </trkpt>
      <trkpt lat="45.98161" lon="4.81165">
        <ele>245</ele>
        <time>2016-11-19T09:37:02Z</time>
      </trkpt>
      <trkpt lat="45.98164" lon="4.81175">
        <ele>246</ele>
        <time>2016-11-19T09:37:04Z</time>
      </trkpt>
      <trkpt lat="45.98164" lon="4.8118">
        <ele>246</ele>
        <time>2016-11-19T09:37:05Z</time>
      </trkpt>
      <trkpt lat="45.98167" lon="4.81189">
        <ele>246</ele>
        <time>2016-11-19T09:37:07Z</time>
      </trkpt>
      <trkpt lat="45.98167" lon="4.81194">
        <ele>246</ele>
        <time>2016-11-19T09:37:08Z</time>
      </trkpt>
      <trkpt lat="45.98169" lon="4.81204">
        <ele>245</ele>
        <time>2016-11-19T09:37:10Z</time>
      </trkpt>
      <trkpt lat="45.9817" lon="4.81209">
        <ele>246</ele>
        <time>2016-11-19T09:37:11Z</time>
      </trkpt>
      <trkpt lat="45.98171" lon="4.8122">
        <ele>246</ele>
        <time>2016-11-19T09:37:13Z</time>
      </trkpt>
      <trkpt lat="45.98172" lon="4.81225">
        <ele>246</ele>
        <time>2016-11-19T09:37:14Z</time>
      </trkpt>
      <trkpt lat="45.98174" lon="4.81236">
        <ele>247</ele>
        <time>2016-11-19T09:37:16Z</time>
      </trkpt>
      <trkpt lat="45.98174" lon="4.81241">
        <ele>247</ele>
        <time>2016-11-19T09:37:17Z</time>
      </trkpt>
      <trkpt lat="45.98176" lon="4.81252">
        <ele>247</ele>
        <time>2016-11-19T09:37:19Z</time>
      </trkpt>
      <trkpt lat="45.98177" lon="4.81257">
        <ele>247</ele>
        <time>2016-11-19T09:37:20Z</time>
      </trkpt>
      <trkpt lat="45.98179" lon="4.81269">
        <ele>247</ele>
        <time>2016-11-19T09:37:22Z</time>
      </trkpt>
      <trkpt lat="45.9818" lon="4.81274">
        <ele>247</ele>
        <time>2016-11-19T09:37:23Z</time>
      </trkpt>
      <trkpt lat="45.98182" lon="4.81286">
        <ele>247</ele>
        <time>2016-11-19T09:37:25Z</time>
      </trkpt>
      <trkpt lat="45.98183" lon="4.81291">
        <ele>247</ele>
        <time>2016-11-19T09:37:26Z</time>
      </trkpt>
      <trkpt lat="45.98185" lon="4.81303">
        <ele>247</ele>
        <time>2016-11-19T09:37:28Z</time>
      </trkpt>
      <trkpt lat="45.98185" lon="4.81308">
        <ele>247</ele>
        <time>2016-11-19T09:37:29Z</time>
      </trkpt>
      <trkpt lat="45.98188" lon="4.81319">
        <ele>247</ele>
        <time>2016-11-19T09:37:31Z</time>
      </trkpt>
      <trkpt lat="45.98189" lon="4.81324">
        <ele>247</ele>
        <time>2016-11-19T09:37:32Z</time>
      </trkpt>
      <trkpt lat="45.98191" lon="4.81336">
        <ele>248</ele>
        <time>2016-11-19T09:37:34Z</time>
      </trkpt>
      <trkpt lat="45.98192" lon="4.81341">
        <ele>248</ele>
        <time>2016-11-19T09:37:35Z</time>
      </trkpt>
      <trkpt lat="45.98195" lon="4.8135">
        <ele>248</ele>
        <time>2016-11-19T09:37:37Z</time>
      </trkpt>
      <trkpt lat="45.98197" lon="4.81356">
        <ele>248</ele>
        <time>2016-11-19T09:37:38Z</time>
      </trkpt>
      <trkpt lat="45.98198" lon="4.81366">
        <ele>248</ele>
        <time>2016-11-19T09:37:40Z</time>
      </trkpt>
      <trkpt lat="45.98199" lon="4.81371">
        <ele>248</ele>
        <time>2016-11-19T09:37:41Z</time>
      </trkpt>
      <trkpt lat="45.98202" lon="4.81381">
        <ele>248</ele>
        <time>2016-11-19T09:37:43Z</time>
      </trkpt>
      <trkpt lat="45.98203" lon="4.81387">
        <ele>248</ele>
        <time>2016-11-19T09:37:44Z</time>
      </trkpt>
      <trkpt lat="45.98207" lon="4.81397">
        <ele>248</ele>
        <time>2016-11-19T09:37:46Z</time>
      </trkpt>
      <trkpt lat="45.98208" lon="4.81402">
        <ele>248</ele>
        <time>2016-11-19T09:37:47Z</time>
      </trkpt>
      <trkpt lat="45.98211" lon="4.81412">
        <ele>248</ele>
        <time>2016-11-19T09:37:49Z</time>
      </trkpt>
      <trkpt lat="45.98213" lon="4.81418">
        <ele>249</ele>
        <time>2016-11-19T09:37:50Z</time>
      </trkpt>
      <trkpt lat="45.98217" lon="4.81428">
        <ele>249</ele>
        <time>2016-11-19T09:37:52Z</time>
      </trkpt>
      <trkpt lat="45.98219" lon="4.81434">
        <ele>249</ele>
        <time>2016-11-19T09:37:53Z</time>
      </trkpt>
      <trkpt lat="45.98223" lon="4.81445">
        <ele>249</ele>
        <time>2016-11-19T09:37:55Z</time>
      </trkpt>
      <trkpt lat="45.98225" lon="4.81451">
        <ele>249</ele>
        <time>2016-11-19T09:37:56Z</time>
      </trkpt>
      <trkpt lat="45.98226" lon="4.81457">
        <ele>249</ele>
        <time>2016-11-19T09:37:57Z</time>
      </trkpt>
      <trkpt lat="45.98228" lon="4.81463">
        <ele>249</ele>
        <time>2016-11-19T09:37:58Z</time>
      </trkpt>
      <trkpt lat="45.98231" lon="4.81469">
        <ele>249</ele>
        <time>2016-11-19T09:37:59Z</time>
      </trkpt>
      <trkpt lat="45.98233" lon="4.81475">
        <ele>249</ele>
        <time>2016-11-19T09:38:00Z</time>
      </trkpt>
      <trkpt lat="45.98236" lon="4.81482">
        <ele>249</ele>
        <time>2016-11-19T09:38:01Z</time>
      </trkpt>
      <trkpt lat="45.98238" lon="4.81488">
        <ele>249</ele>
        <time>2016-11-19T09:38:02Z</time>
      </trkpt>
      <trkpt lat="45.9824" lon="4.81494">
        <ele>249</ele>
        <time>2016-11-19T09:38:03Z</time>
      </trkpt>
      <trkpt lat="45.98242" lon="4.81501">
        <ele>249</ele>
        <time>2016-11-19T09:38:04Z</time>
      </trkpt>
      <trkpt lat="45.98244" lon="4.81508">
        <ele>249</ele>
        <time>2016-11-19T09:38:05Z</time>
      </trkpt>
      <trkpt lat="45.98247" lon="4.81515">
        <ele>249</ele>
        <time>2016-11-19T09:38:06Z</time>
      </trkpt>
      <trkpt lat="45.98249" lon="4.81522">
        <ele>249</ele>
        <time>2016-11-19T09:38:07Z</time>
      </trkpt>
      <trkpt lat="45.98251" lon="4.81529">
        <ele>247</ele>
        <time>2016-11-19T09:38:08Z</time>
      </trkpt>
      <trkpt lat="45.98254" lon="4.81536">
        <ele>247</ele>
        <time>2016-11-19T09:38:09Z</time>
      </trkpt>
      <trkpt lat="45.98256" lon="4.81543">
        <ele>247</ele>
        <time>2016-11-19T09:38:10Z</time>
      </trkpt>
      <trkpt lat="45.98258" lon="4.81549">
        <ele>247</ele>
        <time>2016-11-19T09:38:11Z</time>
      </trkpt>
      <trkpt lat="45.9826" lon="4.81556">
        <ele>247</ele>
        <time>2016-11-19T09:38:12Z</time>
      </trkpt>
      <trkpt lat="45.98263" lon="4.81562">
        <ele>247</ele>
        <time>2016-11-19T09:38:13Z</time>
      </trkpt>
      <trkpt lat="45.98265" lon="4.81569">
        <ele>247</ele>
        <time>2016-11-19T09:38:14Z</time>
      </trkpt>
      <trkpt lat="45.98267" lon="4.81575">
        <ele>247</ele>
        <time>2016-11-19T09:38:15Z</time>
      </trkpt>
      <trkpt lat="45.98269" lon="4.81582">
        <ele>247</ele>
        <time>2016-11-19T09:38:16Z</time>
      </trkpt>
      <trkpt lat="45.98272" lon="4.81589">
        <ele>247</ele>
        <time>2016-11-19T09:38:17Z</time>
      </trkpt>
      <trkpt lat="45.98274" lon="4.81595">
        <ele>247</ele>
        <time>2016-11-19T09:38:18Z</time>
      </trkpt>
      <trkpt lat="45.98276" lon="4.81602">
        <ele>247</ele>
        <time>2016-11-19T09:38:19Z</time>
      </trkpt>
      <trkpt lat="45.98279" lon="4.81608">
        <ele>247</ele>
        <time>2016-11-19T09:38:20Z</time>
      </trkpt>
      <trkpt lat="45.98281" lon="4.81615">
        <ele>247</ele>
        <time>2016-11-19T09:38:21Z</time>
      </trkpt>
      <trkpt lat="45.98285" lon="4.81621">
        <ele>247</ele>
        <time>2016-11-19T09:38:22Z</time>
      </trkpt>
      <trkpt lat="45.98288" lon="4.81627">
        <ele>247</ele>
        <time>2016-11-19T09:38:23Z</time>
      </trkpt>
      <trkpt lat="45.98292" lon="4.81633">
        <ele>247</ele>
        <time>2016-11-19T09:38:24Z</time>
      </trkpt>
      <trkpt lat="45.98297" lon="4.81639">
        <ele>247</ele>
        <time>2016-11-19T09:38:25Z</time>
      </trkpt>
      <trkpt lat="45.98301" lon="4.81644">
        <ele>246</ele>
        <time>2016-11-19T09:38:26Z</time>
      </trkpt>
      <trkpt lat="45.98306" lon="4.81648">
        <ele>246</ele>
        <time>2016-11-19T09:38:27Z</time>
      </trkpt>
      <trkpt lat="45.98311" lon="4.81652">
        <ele>246</ele>
        <time>2016-11-19T09:38:28Z</time>
      </trkpt>
      <trkpt lat="45.98315" lon="4.81656">
        <ele>246</ele>
        <time>2016-11-19T09:38:29Z</time>
      </trkpt>
      <trkpt lat="45.98319" lon="4.81661">
        <ele>246</ele>
        <time>2016-11-19T09:38:30Z</time>
      </trkpt>
      <trkpt lat="45.98324" lon="4.81665">
        <ele>246</ele>
        <time>2016-11-19T09:38:31Z</time>
      </trkpt>
      <trkpt lat="45.98329" lon="4.81668">
        <ele>246</ele>
        <time>2016-11-19T09:38:32Z</time>
      </trkpt>
      <trkpt lat="45.98334" lon="4.81671">
        <ele>246</ele>
        <time>2016-11-19T09:38:33Z</time>
      </trkpt>
      <trkpt lat="45.98338" lon="4.81673">
        <ele>245</ele>
        <time>2016-11-19T09:38:34Z</time>
      </trkpt>
      <trkpt lat="45.98344" lon="4.81675">
        <ele>245</ele>
        <time>2016-11-19T09:38:35Z</time>
      </trkpt>
      <trkpt lat="45.9835" lon="4.81676">
        <ele>245</ele>
        <time>2016-11-19T09:38:36Z</time>
      </trkpt>
      <trkpt lat="45.98356" lon="4.81676">
        <ele>245</ele>
        <time>2016-11-19T09:38:37Z</time>
      </trkpt>
      <trkpt lat="45.98362" lon="4.81676">
        <ele>244</ele>
        <time>2016-11-19T09:38:38Z</time>
      </trkpt>
      <trkpt lat="45.98367" lon="4.81675">
        <ele>244</ele>
        <time>2016-11-19T09:38:39Z</time>
      </trkpt>
      <trkpt lat="45.98373" lon="4.81674">
        <ele>244</ele>
        <time>2016-11-19T09:38:40Z</time>
      </trkpt>
      <trkpt lat="45.98379" lon="4.81672">
        <ele>244</ele>
        <time>2016-11-19T09:38:41Z</time>
      </trkpt>
      <trkpt lat="45.98385" lon="4.8167">
        <ele>243</ele>
        <time>2016-11-19T09:38:42Z</time>
      </trkpt>
      <trkpt lat="45.98391" lon="4.81668">
        <ele>243</ele>
        <time>2016-11-19T09:38:43Z</time>
      </trkpt>
      <trkpt lat="45.98397" lon="4.81667">
        <ele>242</ele>
        <time>2016-11-19T09:38:44Z</time>
      </trkpt>
      <trkpt lat="45.98402" lon="4.81666">
        <ele>242</ele>
        <time>2016-11-19T09:38:45Z</time>
      </trkpt>
      <trkpt lat="45.98408" lon="4.81665">
        <ele>241</ele>
        <time>2016-11-19T09:38:46Z</time>
      </trkpt>
      <trkpt lat="45.98413" lon="4.81664">
        <ele>241</ele>
        <time>2016-11-19T09:38:47Z</time>
      </trkpt>
      <trkpt lat="45.98418" lon="4.81664">
        <ele>240</ele>
        <time>2016-11-19T09:38:48Z</time>
      </trkpt>
      <trkpt lat="45.98423" lon="4.81665">
        <ele>240</ele>
        <time>2016-11-19T09:38:49Z</time>
      </trkpt>
      <trkpt lat="45.98428" lon="4.81667">
        <ele>239</ele>
        <time>2016-11-19T09:38:50Z</time>
      </trkpt>
      <trkpt lat="45.98433" lon="4.81669">
        <ele>240</ele>
        <time>2016-11-19T09:38:51Z</time>
      </trkpt>
      <trkpt lat="45.98438" lon="4.81672">
        <ele>240</ele>
        <time>2016-11-19T09:38:52Z</time>
      </trkpt>
      <trkpt lat="45.98442" lon="4.81677">
        <ele>239</ele>
        <time>2016-11-19T09:38:53Z</time>
      </trkpt>
      <trkpt lat="45.98446" lon="4.81682">
        <ele>239</ele>
        <time>2016-11-19T09:38:54Z</time>
      </trkpt>
      <trkpt lat="45.98449" lon="4.81689">
        <ele>239</ele>
        <time>2016-11-19T09:38:55Z</time>
      </trkpt>
      <trkpt lat="45.98453" lon="4.81696">
        <ele>239</ele>
        <time>2016-11-19T09:38:56Z</time>
      </trkpt>
      <trkpt lat="45.98456" lon="4.81703">
        <ele>239</ele>
        <time>2016-11-19T09:38:57Z</time>
      </trkpt>
      <trkpt lat="45.98461" lon="4.8171">
        <ele>239</ele>
        <time>2016-11-19T09:38:58Z</time>
      </trkpt>
      <trkpt lat="45.98465" lon="4.81717">
        <ele>239</ele>
        <time>2016-11-19T09:38:59Z</time>
      </trkpt>
      <trkpt lat="45.9847" lon="4.81724">
        <ele>239</ele>
        <time>2016-11-19T09:39:00Z</time>
      </trkpt>
      <trkpt lat="45.98476" lon="4.8173">
        <ele>239</ele>
        <time>2016-11-19T09:39:01Z</time>
      </trkpt>
      <trkpt lat="45.98483" lon="4.81737">
        <ele>238</ele>
        <time>2016-11-19T09:39:02Z</time>
      </trkpt>
      <trkpt lat="45.98489" lon="4.81743">
        <ele>238</ele>
        <time>2016-11-19T09:39:03Z</time>
      </trkpt>
      <trkpt lat="45.98496" lon="4.8175">
        <ele>237</ele>
        <time>2016-11-19T09:39:04Z</time>
      </trkpt>
      <trkpt lat="45.98503" lon="4.81757">
        <ele>237</ele>
        <time>2016-11-19T09:39:05Z</time>
      </trkpt>
      <trkpt lat="45.98509" lon="4.81766">
        <ele>237</ele>
        <time>2016-11-19T09:39:06Z</time>
      </trkpt>
      <trkpt lat="45.98516" lon="4.81774">
        <ele>238</ele>
        <time>2016-11-19T09:39:07Z</time>
      </trkpt>
      <trkpt lat="45.98522" lon="4.81783">
        <ele>238</ele>
        <time>2016-11-19T09:39:08Z</time>
      </trkpt>
      <trkpt lat="45.98528" lon="4.8179">
        <ele>238</ele>
        <time>2016-11-19T09:39:09Z</time>
      </trkpt>
      <trkpt lat="45.98533" lon="4.81797">
        <ele>238</ele>
        <time>2016-11-19T09:39:10Z</time>
      </trkpt>
      <trkpt lat="45.98538" lon="4.81802">
        <ele>238</ele>
        <time>2016-11-19T09:39:11Z</time>
      </trkpt>
      <trkpt lat="45.98544" lon="4.81806">
        <ele>238</ele>
        <time>2016-11-19T09:39:12Z</time>
      </trkpt>
      <trkpt lat="45.9855" lon="4.81807">
        <ele>238</ele>
        <time>2016-11-19T09:39:13Z</time>
      </trkpt>
      <trkpt lat="45.98556" lon="4.81806">
        <ele>238</ele>
        <time>2016-11-19T09:39:14Z</time>
      </trkpt>
      <trkpt lat="45.98561" lon="4.81803">
        <ele>238</ele>
        <time>2016-11-19T09:39:15Z</time>
      </trkpt>
      <trkpt lat="45.98566" lon="4.81799">
        <ele>238</ele>
        <time>2016-11-19T09:39:16Z</time>
      </trkpt>
      <trkpt lat="45.9857" lon="4.81794">
        <ele>238</ele>
        <time>2016-11-19T09:39:17Z</time>
      </trkpt>
      <trkpt lat="45.98574" lon="4.81788">
        <ele>238</ele>
        <time>2016-11-19T09:39:18Z</time>
      </trkpt>
      <trkpt lat="45.98579" lon="4.81783">
        <ele>238</ele>
        <time>2016-11-19T09:39:19Z</time>
      </trkpt>
      <trkpt lat="45.98583" lon="4.81778">
        <ele>238</ele>
        <time>2016-11-19T09:39:20Z</time>
      </trkpt>
      <trkpt lat="45.98587" lon="4.81773">
        <ele>238</ele>
        <time>2016-11-19T09:39:21Z</time>
      </trkpt>
      <trkpt lat="45.98592" lon="4.81769">
        <ele>238</ele>
        <time>2016-11-19T09:39:22Z</time>
      </trkpt>
      <trkpt lat="45.98597" lon="4.81766">
        <ele>238</ele>
        <time>2016-11-19T09:39:23Z</time>
      </trkpt>
      <trkpt lat="45.98602" lon="4.81764">
        <ele>238</ele>
        <time>2016-11-19T09:39:24Z</time>
      </trkpt>
      <trkpt lat="45.98607" lon="4.81761">
        <ele>238</ele>
        <time>2016-11-19T09:39:25Z</time>
      </trkpt>
      <trkpt lat="45.98612" lon="4.81759">
        <ele>238</ele>
        <time>2016-11-19T09:39:26Z</time>
      </trkpt>
      <trkpt lat="45.98616" lon="4.81757">
        <ele>238</ele>
        <time>2016-11-19T09:39:27Z</time>
      </trkpt>
      <trkpt lat="45.98621" lon="4.81755">
        <ele>238</ele>
        <time>2016-11-19T09:39:28Z</time>
      </trkpt>
      <trkpt lat="45.98627" lon="4.81753">
        <ele>238</ele>
        <time>2016-11-19T09:39:29Z</time>
      </trkpt>
      <trkpt lat="45.98632" lon="4.81751">
        <ele>238</ele>
        <time>2016-11-19T09:39:30Z</time>
      </trkpt>
      <trkpt lat="45.98637" lon="4.81749">
        <ele>237</ele>
        <time>2016-11-19T09:39:31Z</time>
      </trkpt>
      <trkpt lat="45.98643" lon="4.81747">
        <ele>237</ele>
        <time>2016-11-19T09:39:32Z</time>
      </trkpt>
      <trkpt lat="45.98648" lon="4.81746">
        <ele>237</ele>
        <time>2016-11-19T09:39:33Z</time>
      </trkpt>
      <trkpt lat="45.98653" lon="4.81744">
        <ele>237</ele>
        <time>2016-11-19T09:39:34Z</time>
      </trkpt>
      <trkpt lat="45.98658" lon="4.81743">
        <ele>237</ele>
        <time>2016-11-19T09:39:35Z</time>
      </trkpt>
      <trkpt lat="45.98663" lon="4.81742">
        <ele>238</ele>
        <time>2016-11-19T09:39:36Z</time>
      </trkpt>
      <trkpt lat="45.98668" lon="4.81741">
        <ele>238</ele>
        <time>2016-11-19T09:39:37Z</time>
      </trkpt>
      <trkpt lat="45.98673" lon="4.8174">
        <ele>238</ele>
        <time>2016-11-19T09:39:38Z</time>
      </trkpt>
      <trkpt lat="45.98678" lon="4.81739">
        <ele>238</ele>
        <time>2016-11-19T09:39:39Z</time>
      </trkpt>
      <trkpt lat="45.98683" lon="4.81738">
        <ele>238</ele>
        <time>2016-11-19T09:39:40Z</time>
      </trkpt>
      <trkpt lat="45.98688" lon="4.81737">
        <ele>238</ele>
        <time>2016-11-19T09:39:41Z</time>
      </trkpt>
      <trkpt lat="45.98694" lon="4.81736">
        <ele>238</ele>
        <time>2016-11-19T09:39:42Z</time>
      </trkpt>
      <trkpt lat="45.98699" lon="4.81736">
        <ele>239</ele>
        <time>2016-11-19T09:39:43Z</time>
      </trkpt>
      <trkpt lat="45.98704" lon="4.81735">
        <ele>239</ele>
        <time>2016-11-19T09:39:44Z</time>
      </trkpt>
      <trkpt lat="45.98708" lon="4.81733">
        <ele>239</ele>
        <time>2016-11-19T09:39:45Z</time>
      </trkpt>
      <trkpt lat="45.98713" lon="4.81732">
        <ele>239</ele>
        <time>2016-11-19T09:39:46Z</time>
      </trkpt>
      <trkpt lat="45.98718" lon="4.81732">
        <ele>239</ele>
        <time>2016-11-19T09:39:47Z</time>
      </trkpt>
      <trkpt lat="45.98723" lon="4.81733">
        <ele>239</ele>
        <time>2016-11-19T09:39:48Z</time>
      </trkpt>
      <trkpt lat="45.98727" lon="4.81735">
        <ele>239</ele>
        <time>2016-11-19T09:39:49Z</time>
      </trkpt>
      <trkpt lat="45.98731" lon="4.81739">
        <ele>240</ele>
        <time>2016-11-19T09:39:50Z</time>
      </trkpt>
      <trkpt lat="45.98735" lon="4.81743">
        <ele>240</ele>
        <time>2016-11-19T09:39:51Z</time>
      </trkpt>
      <trkpt lat="45.98738" lon="4.81748">
        <ele>240</ele>
        <time>2016-11-19T09:39:52Z</time>
      </trkpt>
      <trkpt lat="45.9874" lon="4.81754">
        <ele>240</ele>
        <time>2016-11-19T09:39:53Z</time>
      </trkpt>
      <trkpt lat="45.98743" lon="4.8176">
        <ele>240</ele>
        <time>2016-11-19T09:39:54Z</time>
      </trkpt>
      <trkpt lat="45.98746" lon="4.81766">
        <ele>240</ele>
        <time>2016-11-19T09:39:55Z</time>
      </trkpt>
      <trkpt lat="45.98748" lon="4.81773">
        <ele>240</ele>
        <time>2016-11-19T09:39:56Z</time>
      </trkpt>
      <trkpt lat="45.98752" lon="4.8178">
        <ele>241</ele>
        <time>2016-11-19T09:39:57Z</time>
      </trkpt>
      <trkpt lat="45.98755" lon="4.81787">
        <ele>241</ele>
        <time>2016-11-19T09:39:58Z</time>
      </trkpt>
      <trkpt lat="45.98759" lon="4.81794">
        <ele>240</ele>
        <time>2016-11-19T09:39:59Z</time>
      </trkpt>
      <trkpt lat="45.98762" lon="4.81801">
        <ele>240</ele>
        <time>2016-11-19T09:40:00Z</time>
      </trkpt>
      <trkpt lat="45.98765" lon="4.81808">
        <ele>240</ele>
        <time>2016-11-19T09:40:01Z</time>
      </trkpt>
      <trkpt lat="45.98769" lon="4.81815">
        <ele>240</ele>
        <time>2016-11-19T09:40:02Z</time>
      </trkpt>
      <trkpt lat="45.98772" lon="4.81823">
        <ele>240</ele>
        <time>2016-11-19T09:40:03Z</time>
      </trkpt>
      <trkpt lat="45.98776" lon="4.8183">
        <ele>240</ele>
        <time>2016-11-19T09:40:04Z</time>
      </trkpt>
      <trkpt lat="45.9878" lon="4.81838">
        <ele>239</ele>
        <time>2016-11-19T09:40:05Z</time>
      </trkpt>
      <trkpt lat="45.98783" lon="4.81845">
        <ele>239</ele>
        <time>2016-11-19T09:40:06Z</time>
      </trkpt>
      <trkpt lat="45.98787" lon="4.81853">
        <ele>239</ele>
        <time>2016-11-19T09:40:07Z</time>
      </trkpt>
      <trkpt lat="45.9879" lon="4.81861">
        <ele>239</ele>
        <time>2016-11-19T09:40:08Z</time>
      </trkpt>
      <trkpt lat="45.98793" lon="4.81869">
        <ele>239</ele>
        <time>2016-11-19T09:40:09Z</time>
      </trkpt>
      <trkpt lat="45.98796" lon="4.81877">
        <ele>239</ele>
        <time>2016-11-19T09:40:10Z</time>
      </trkpt>
      <trkpt lat="45.98797" lon="4.81886">
        <ele>239</ele>
        <time>2016-11-19T09:40:11Z</time>
      </trkpt>
      <trkpt lat="45.988" lon="4.81895">
        <ele>239</ele>
        <time>2016-11-19T09:40:12Z</time>
      </trkpt>
      <trkpt lat="45.98801" lon="4.81903">
        <ele>239</ele>
        <time>2016-11-19T09:40:13Z</time>
      </trkpt>
      <trkpt lat="45.98803" lon="4.8191">
        <ele>239</ele>
        <time>2016-11-19T09:40:14Z</time>
      </trkpt>
      <trkpt lat="45.98805" lon="4.81918">
        <ele>239</ele>
        <time>2016-11-19T09:40:15Z</time>
      </trkpt>
      <trkpt lat="45.98806" lon="4.81927">
        <ele>239</ele>
        <time>2016-11-19T09:40:16Z</time>
      </trkpt>
      <trkpt lat="45.98807" lon="4.81935">
        <ele>239</ele>
        <time>2016-11-19T09:40:17Z</time>
      </trkpt>
      <trkpt lat="45.98809" lon="4.81943">
        <ele>239</ele>
        <time>2016-11-19T09:40:18Z</time>
      </trkpt>
      <trkpt lat="45.9881" lon="4.81951">
        <ele>239</ele>
        <time>2016-11-19T09:40:19Z</time>
      </trkpt>
      <trkpt lat="45.98812" lon="4.8196">
        <ele>239</ele>
        <time>2016-11-19T09:40:20Z</time>
      </trkpt>
      <trkpt lat="45.98813" lon="4.81968">
        <ele>239</ele>
        <time>2016-11-19T09:40:21Z</time>
      </trkpt>
      <trkpt lat="45.98815" lon="4.81977">
        <ele>239</ele>
        <time>2016-11-19T09:40:22Z</time>
      </trkpt>
      <trkpt lat="45.98816" lon="4.81985">
        <ele>238</ele>
        <time>2016-11-19T09:40:23Z</time>
      </trkpt>
      <trkpt lat="45.98818" lon="4.81993">
        <ele>238</ele>
        <time>2016-11-19T09:40:24Z</time>
      </trkpt>
      <trkpt lat="45.9882" lon="4.82002">
        <ele>238</ele>
        <time>2016-11-19T09:40:25Z</time>
      </trkpt>
      <trkpt lat="45.98821" lon="4.8201">
        <ele>238</ele>
        <time>2016-11-19T09:40:26Z</time>
      </trkpt>
      <trkpt lat="45.98822" lon="4.82019">
        <ele>238</ele>
        <time>2016-11-19T09:40:27Z</time>
      </trkpt>
      <trkpt lat="45.98823" lon="4.82028">
        <ele>238</ele>
        <time>2016-11-19T09:40:28Z</time>
      </trkpt>
      <trkpt lat="45.98824" lon="4.82036">
        <ele>238</ele>
        <time>2016-11-19T09:40:29Z</time>
      </trkpt>
      <trkpt lat="45.98826" lon="4.82045">
        <ele>238</ele>
        <time>2016-11-19T09:40:30Z</time>
      </trkpt>
      <trkpt lat="45.98827" lon="4.82053">
        <ele>237</ele>
        <time>2016-11-19T09:40:31Z</time>
      </trkpt>
      <trkpt lat="45.98829" lon="4.82062">
        <ele>237</ele>
        <time>2016-11-19T09:40:32Z</time>
      </trkpt>
      <trkpt lat="45.9883" lon="4.8207">
        <ele>237</ele>
        <time>2016-11-19T09:40:33Z</time>
      </trkpt>
      <trkpt lat="45.98832" lon="4.82078">
        <ele>236</ele>
        <time>2016-11-19T09:40:34Z</time>
      </trkpt>
      <trkpt lat="45.98833" lon="4.82087">
        <ele>236</ele>
        <time>2016-11-19T09:40:35Z</time>
      </trkpt>
      <trkpt lat="45.98835" lon="4.82095">
        <ele>236</ele>
        <time>2016-11-19T09:40:36Z</time>
      </trkpt>
      <trkpt lat="45.98837" lon="4.82103">
        <ele>236</ele>
        <time>2016-11-19T09:40:37Z</time>
      </trkpt>
      <trkpt lat="45.98838" lon="4.82112">
        <ele>235</ele>
        <time>2016-11-19T09:40:38Z</time>
      </trkpt>
      <trkpt lat="45.9884" lon="4.8212">
        <ele>235</ele>
        <time>2016-11-19T09:40:39Z</time>
      </trkpt>
      <trkpt lat="45.98842" lon="4.82128">
        <ele>236</ele>
        <time>2016-11-19T09:40:40Z</time>
      </trkpt>
      <trkpt lat="45.98844" lon="4.82136">
        <ele>236</ele>
        <time>2016-11-19T09:40:41Z</time>
      </trkpt>
      <trkpt lat="45.98844" lon="4.82144">
        <ele>236</ele>
        <time>2016-11-19T09:40:42Z</time>
      </trkpt>
      <trkpt lat="45.98846" lon="4.82152">
        <ele>236</ele>
        <time>2016-11-19T09:40:43Z</time>
      </trkpt>
      <trkpt lat="45.98848" lon="4.82161">
        <ele>236</ele>
        <time>2016-11-19T09:40:44Z</time>
      </trkpt>
      <trkpt lat="45.9885" lon="4.8217">
        <ele>236</ele>
        <time>2016-11-19T09:40:45Z</time>
      </trkpt>
      <trkpt lat="45.98852" lon="4.82178">
        <ele>236</ele>
        <time>2016-11-19T09:40:46Z</time>
      </trkpt>
      <trkpt lat="45.98855" lon="4.82186">
        <ele>236</ele>
        <time>2016-11-19T09:40:47Z</time>
      </trkpt>
      <trkpt lat="45.98858" lon="4.82193">
        <ele>236</ele>
        <time>2016-11-19T09:40:48Z</time>
      </trkpt>
      <trkpt lat="45.98861" lon="4.822">
        <ele>236</ele>
        <time>2016-11-19T09:40:49Z</time>
      </trkpt>
      <trkpt lat="45.98864" lon="4.82207">
        <ele>236</ele>
        <time>2016-11-19T09:40:50Z</time>
      </trkpt>
      <trkpt lat="45.98866" lon="4.82215">
        <ele>236</ele>
        <time>2016-11-19T09:40:51Z</time>
      </trkpt>
      <trkpt lat="45.98871" lon="4.82221">
        <ele>236</ele>
        <time>2016-11-19T09:40:52Z</time>
      </trkpt>
      <trkpt lat="45.98875" lon="4.82227">
        <ele>236</ele>
        <time>2016-11-19T09:40:53Z</time>
      </trkpt>
      <trkpt lat="45.98879" lon="4.82234">
        <ele>236</ele>
        <time>2016-11-19T09:40:54Z</time>
      </trkpt>
      <trkpt lat="45.98882" lon="4.8224">
        <ele>236</ele>
        <time>2016-11-19T09:40:55Z</time>
      </trkpt>
      <trkpt lat="45.98885" lon="4.82247">
        <ele>236</ele>
        <time>2016-11-19T09:40:56Z</time>
      </trkpt>
      <trkpt lat="45.98887" lon="4.82253">
        <ele>236</ele>
        <time>2016-11-19T09:40:57Z</time>
      </trkpt>
      <trkpt lat="45.9889" lon="4.8226">
        <ele>236</ele>
        <time>2016-11-19T09:40:58Z</time>
      </trkpt>
      <trkpt lat="45.98893" lon="4.82266">
        <ele>236</ele>
        <time>2016-11-19T09:40:59Z</time>
      </trkpt>
      <trkpt lat="45.98897" lon="4.82272">
        <ele>236</ele>
        <time>2016-11-19T09:41:00Z</time>
      </trkpt>
      <trkpt lat="45.98901" lon="4.82278">
        <ele>236</ele>
        <time>2016-11-19T09:41:01Z</time>
      </trkpt>
      <trkpt lat="45.98905" lon="4.82283">
        <ele>236</ele>
        <time>2016-11-19T09:41:02Z</time>
      </trkpt>
      <trkpt lat="45.9891" lon="4.82288">
        <ele>236</ele>
        <time>2016-11-19T09:41:03Z</time>
      </trkpt>
      <trkpt lat="45.98914" lon="4.82293">
        <ele>236</ele>
        <time>2016-11-19T09:41:04Z</time>
      </trkpt>
      <trkpt lat="45.98919" lon="4.82298">
        <ele>234</ele>
        <time>2016-11-19T09:41:05Z</time>
      </trkpt>
      <trkpt lat="45.98924" lon="4.82304">
        <ele>234</ele>
        <time>2016-11-19T09:41:06Z</time>
      </trkpt>
      <trkpt lat="45.98928" lon="4.8231">
        <ele>235</ele>
        <time>2016-11-19T09:41:07Z</time>
      </trkpt>
      <trkpt lat="45.98932" lon="4.82315">
        <ele>235</ele>
        <time>2016-11-19T09:41:08Z</time>
      </trkpt>
      <trkpt lat="45.98937" lon="4.82321">
        <ele>235</ele>
        <time>2016-11-19T09:41:09Z</time>
      </trkpt>
      <trkpt lat="45.98942" lon="4.82326">
        <ele>234</ele>
        <time>2016-11-19T09:41:10Z</time>
      </trkpt>
      <trkpt lat="45.98946" lon="4.82332">
        <ele>234</ele>
        <time>2016-11-19T09:41:11Z</time>
      </trkpt>
      <trkpt lat="45.98949" lon="4.82339">
        <ele>235</ele>
        <time>2016-11-19T09:41:12Z</time>
      </trkpt>
      <trkpt lat="45.98953" lon="4.82346">
        <ele>235</ele>
        <time>2016-11-19T09:41:13Z</time>
      </trkpt>
      <trkpt lat="45.98956" lon="4.82353">
        <ele>235</ele>
        <time>2016-11-19T09:41:14Z</time>
      </trkpt>
      <trkpt lat="45.98959" lon="4.8236">
        <ele>235</ele>
        <time>2016-11-19T09:41:15Z</time>
      </trkpt>
      <trkpt lat="45.98962" lon="4.82367">
        <ele>235</ele>
        <time>2016-11-19T09:41:16Z</time>
      </trkpt>
      <trkpt lat="45.98964" lon="4.82374">
        <ele>235</ele>
        <time>2016-11-19T09:41:17Z</time>
      </trkpt>
      <trkpt lat="45.98966" lon="4.82381">
        <ele>235</ele>
        <time>2016-11-19T09:41:18Z</time>
      </trkpt>
      <trkpt lat="45.98968" lon="4.82388">
        <ele>235</ele>
        <time>2016-11-19T09:41:19Z</time>
      </trkpt>
      <trkpt lat="45.98969" lon="4.82396">
        <ele>235</ele>
        <time>2016-11-19T09:41:20Z</time>
      </trkpt>
      <trkpt lat="45.98972" lon="4.82404">
        <ele>235</ele>
        <time>2016-11-19T09:41:21Z</time>
      </trkpt>
      <trkpt lat="45.98974" lon="4.82412">
        <ele>235</ele>
        <time>2016-11-19T09:41:22Z</time>
      </trkpt>
      <trkpt lat="45.98976" lon="4.82421">
        <ele>236</ele>
        <time>2016-11-19T09:41:23Z</time>
      </trkpt>
      <trkpt lat="45.98979" lon="4.8243">
        <ele>236</ele>
        <time>2016-11-19T09:41:24Z</time>
      </trkpt>
      <trkpt lat="45.98981" lon="4.82439">
        <ele>236</ele>
        <time>2016-11-19T09:41:25Z</time>
      </trkpt>
      <trkpt lat="45.98983" lon="4.82448">
        <ele>236</ele>
        <time>2016-11-19T09:41:26Z</time>
      </trkpt>
      <trkpt lat="45.98985" lon="4.82456">
        <ele>236</ele>
        <time>2016-11-19T09:41:27Z</time>
      </trkpt>
      <trkpt lat="45.98988" lon="4.82464">
        <ele>236</ele>
        <time>2016-11-19T09:41:28Z</time>
      </trkpt>
      <trkpt lat="45.9899" lon="4.82472">
        <ele>236</ele>
        <time>2016-11-19T09:41:29Z</time>
      </trkpt>
      <trkpt lat="45.98993" lon="4.8248">
        <ele>236</ele>
        <time>2016-11-19T09:41:30Z</time>
      </trkpt>
      <trkpt lat="45.98995" lon="4.82487">
        <ele>236</ele>
        <time>2016-11-19T09:41:31Z</time>
      </trkpt>
      <trkpt lat="45.98997" lon="4.82494">
        <ele>235</ele>
        <time>2016-11-19T09:41:32Z</time>
      </trkpt>
      <trkpt lat="45.99" lon="4.82501">
        <ele>235</ele>
        <time>2016-11-19T09:41:33Z</time>
      </trkpt>
      <trkpt lat="45.99003" lon="4.82507">
        <ele>235</ele>
        <time>2016-11-19T09:41:34Z</time>
      </trkpt>
      <trkpt lat="45.99006" lon="4.82514">
        <ele>235</ele>
        <time>2016-11-19T09:41:35Z</time>
      </trkpt>
      <trkpt lat="45.99009" lon="4.8252">
        <ele>235</ele>
        <time>2016-11-19T09:41:36Z</time>
      </trkpt>
      <trkpt lat="45.99012" lon="4.82526">
        <ele>235</ele>
        <time>2016-11-19T09:41:37Z</time>
      </trkpt>
      <trkpt lat="45.99015" lon="4.82533">
        <ele>235</ele>
        <time>2016-11-19T09:41:38Z</time>
      </trkpt>
      <trkpt lat="45.9902" lon="4.82538">
        <ele>235</ele>
        <time>2016-11-19T09:41:39Z</time>
      </trkpt>
      <trkpt lat="45.99025" lon="4.82544">
        <ele>235</ele>
        <time>2016-11-19T09:41:40Z</time>
      </trkpt>
      <trkpt lat="45.99029" lon="4.82549">
        <ele>235</ele>
        <time>2016-11-19T09:41:41Z</time>
      </trkpt>
      <trkpt lat="45.99034" lon="4.82554">
        <ele>235</ele>
        <time>2016-11-19T09:41:42Z</time>
      </trkpt>
      <trkpt lat="45.99039" lon="4.82558">
        <ele>235</ele>
        <time>2016-11-19T09:41:43Z</time>
      </trkpt>
      <trkpt lat="45.99045" lon="4.82561">
        <ele>235</ele>
        <time>2016-11-19T09:41:44Z</time>
      </trkpt>
      <trkpt lat="45.9905" lon="4.82565">
        <ele>235</ele>
        <time>2016-11-19T09:41:45Z</time>
      </trkpt>
      <trkpt lat="45.99055" lon="4.82568">
        <ele>235</ele>
        <time>2016-11-19T09:41:46Z</time>
      </trkpt>
      <trkpt lat="45.9906" lon="4.82569">
        <ele>235</ele>
        <time>2016-11-19T09:41:47Z</time>
      </trkpt>
      <trkpt lat="45.99065" lon="4.82571">
        <ele>235</ele>
        <time>2016-11-19T09:41:48Z</time>
      </trkpt>
      <trkpt lat="45.9907" lon="4.82573">
        <ele>235</ele>
        <time>2016-11-19T09:41:49Z</time>
      </trkpt>
      <trkpt lat="45.99074" lon="4.82577">
        <ele>235</ele>
        <time>2016-11-19T09:41:50Z</time>
      </trkpt>
      <trkpt lat="45.99076" lon="4.82589">
        <ele>235</ele>
        <time>2016-11-19T09:41:53Z</time>
      </trkpt>
      <trkpt lat="45.99075" lon="4.82593">
        <ele>235</ele>
        <time>2016-11-19T09:41:54Z</time>
      </trkpt>
      <trkpt lat="45.99071" lon="4.82601">
        <ele>235</ele>
        <time>2016-11-19T09:41:56Z</time>
      </trkpt>
      <trkpt lat="45.99068" lon="4.82605">
        <ele>236</ele>
        <time>2016-11-19T09:41:57Z</time>
      </trkpt>
      <trkpt lat="45.99063" lon="4.82615">
        <ele>236</ele>
        <time>2016-11-19T09:41:59Z</time>
      </trkpt>
      <trkpt lat="45.99061" lon="4.82621">
        <ele>236</ele>
        <time>2016-11-19T09:42:00Z</time>
      </trkpt>
      <trkpt lat="45.99057" lon="4.8263">
        <ele>236</ele>
        <time>2016-11-19T09:42:02Z</time>
      </trkpt>
      <trkpt lat="45.99055" lon="4.82635">
        <ele>236</ele>
        <time>2016-11-19T09:42:03Z</time>
      </trkpt>
      <trkpt lat="45.9905" lon="4.82643">
        <ele>236</ele>
        <time>2016-11-19T09:42:05Z</time>
      </trkpt>
      <trkpt lat="45.99048" lon="4.82647">
        <ele>236</ele>
        <time>2016-11-19T09:42:06Z</time>
      </trkpt>
      <trkpt lat="45.99044" lon="4.82655">
        <ele>236</ele>
        <time>2016-11-19T09:42:08Z</time>
      </trkpt>
      <trkpt lat="45.99043" lon="4.82659">
        <ele>236</ele>
        <time>2016-11-19T09:42:09Z</time>
      </trkpt>
      <trkpt lat="45.9904" lon="4.82668">
        <ele>238</ele>
        <time>2016-11-19T09:42:11Z</time>
      </trkpt>
      <trkpt lat="45.99038" lon="4.82672">
        <ele>238</ele>
        <time>2016-11-19T09:42:12Z</time>
      </trkpt>
      <trkpt lat="45.99035" lon="4.82681">
        <ele>238</ele>
        <time>2016-11-19T09:42:14Z</time>
      </trkpt>
      <trkpt lat="45.99033" lon="4.82685">
        <ele>238</ele>
        <time>2016-11-19T09:42:15Z</time>
      </trkpt>
      <trkpt lat="45.99029" lon="4.82694">
        <ele>238</ele>
        <time>2016-11-19T09:42:17Z</time>
      </trkpt>
      <trkpt lat="45.99027" lon="4.82699">
        <ele>238</ele>
        <time>2016-11-19T09:42:18Z</time>
      </trkpt>
      <trkpt lat="45.99023" lon="4.82707">
        <ele>238</ele>
        <time>2016-11-19T09:42:20Z</time>
      </trkpt>
      <trkpt lat="45.99022" lon="4.82712">
        <ele>239</ele>
        <time>2016-11-19T09:42:21Z</time>
      </trkpt>
      <trkpt lat="45.99019" lon="4.82721">
        <ele>239</ele>
        <time>2016-11-19T09:42:23Z</time>
      </trkpt>
      <trkpt lat="45.99017" lon="4.82724">
        <ele>239</ele>
        <time>2016-11-19T09:42:24Z</time>
      </trkpt>
      <trkpt lat="45.99013" lon="4.82734">
        <ele>239</ele>
        <time>2016-11-19T09:42:27Z</time>
      </trkpt>
      <trkpt lat="45.99011" lon="4.82738">
        <ele>240</ele>
        <time>2016-11-19T09:42:28Z</time>
      </trkpt>
      <trkpt lat="45.99007" lon="4.82748">
        <ele>240</ele>
        <time>2016-11-19T09:42:31Z</time>
      </trkpt>
      <trkpt lat="45.99005" lon="4.82752">
        <ele>241</ele>
        <time>2016-11-19T09:42:32Z</time>
      </trkpt>
      <trkpt lat="45.99002" lon="4.82759">
        <ele>241</ele>
        <time>2016-11-19T09:42:34Z</time>
      </trkpt>
      <trkpt lat="45.99" lon="4.82763">
        <ele>244</ele>
        <time>2016-11-19T09:42:35Z</time>
      </trkpt>
      <trkpt lat="45.98996" lon="4.8277">
        <ele>245</ele>
        <time>2016-11-19T09:42:37Z</time>
      </trkpt>
      <trkpt lat="45.98994" lon="4.82774">
        <ele>246</ele>
        <time>2016-11-19T09:42:38Z</time>
      </trkpt>
      <trkpt lat="45.98991" lon="4.82781">
        <ele>246</ele>
        <time>2016-11-19T09:42:40Z</time>
      </trkpt>
      <trkpt lat="45.98989" lon="4.82785">
        <ele>247</ele>
        <time>2016-11-19T09:42:41Z</time>
      </trkpt>
      <trkpt lat="45.98985" lon="4.82792">
        <ele>247</ele>
        <time>2016-11-19T09:42:43Z</time>
      </trkpt>
      <trkpt lat="45.98984" lon="4.82796">
        <ele>248</ele>
        <time>2016-11-19T09:42:44Z</time>
      </trkpt>
      <trkpt lat="45.9898" lon="4.82807">
        <ele>248</ele>
        <time>2016-11-19T09:42:47Z</time>
      </trkpt>
      <trkpt lat="45.98978" lon="4.8281">
        <ele>248</ele>
        <time>2016-11-19T09:42:48Z</time>
      </trkpt>
      <trkpt lat="45.98973" lon="4.8282">
        <ele>249</ele>
        <time>2016-11-19T09:42:51Z</time>
      </trkpt>
      <trkpt lat="45.98972" lon="4.82823">
        <ele>249</ele>
        <time>2016-11-19T09:42:52Z</time>
      </trkpt>
      <trkpt lat="45.98968" lon="4.82833">
        <ele>249</ele>
        <time>2016-11-19T09:42:55Z</time>
      </trkpt>
      <trkpt lat="45.98966" lon="4.82836">
        <ele>252</ele>
        <time>2016-11-19T09:42:56Z</time>
      </trkpt>
      <trkpt lat="45.98962" lon="4.82846">
        <ele>252</ele>
        <time>2016-11-19T09:42:59Z</time>
      </trkpt>
      <trkpt lat="45.9896" lon="4.82849">
        <ele>252</ele>
        <time>2016-11-19T09:43:00Z</time>
      </trkpt>
      <trkpt lat="45.98957" lon="4.82859">
        <ele>252</ele>
        <time>2016-11-19T09:43:03Z</time>
      </trkpt>
      <trkpt lat="45.98955" lon="4.82862">
        <ele>252</ele>
        <time>2016-11-19T09:43:04Z</time>
      </trkpt>
      <trkpt lat="45.98951" lon="4.82871">
        <ele>253</ele>
        <time>2016-11-19T09:43:07Z</time>
      </trkpt>
      <trkpt lat="45.9895" lon="4.82874">
        <ele>253</ele>
        <time>2016-11-19T09:43:08Z</time>
      </trkpt>
      <trkpt lat="45.98947" lon="4.82883">
        <ele>253</ele>
        <time>2016-11-19T09:43:11Z</time>
      </trkpt>
      <trkpt lat="45.98945" lon="4.82886">
        <ele>253</ele>
        <time>2016-11-19T09:43:12Z</time>
      </trkpt>
      <trkpt lat="45.98941" lon="4.82896">
        <ele>253</ele>
        <time>2016-11-19T09:43:15Z</time>
      </trkpt>
      <trkpt lat="45.98939" lon="4.82899">
        <ele>253</ele>
        <time>2016-11-19T09:43:16Z</time>
      </trkpt>
      <trkpt lat="45.98935" lon="4.8291">
        <ele>254</ele>
        <time>2016-11-19T09:43:19Z</time>
      </trkpt>
      <trkpt lat="45.98933" lon="4.82913">
        <ele>254</ele>
        <time>2016-11-19T09:43:20Z</time>
      </trkpt>
      <trkpt lat="45.98929" lon="4.82924">
        <ele>255</ele>
        <time>2016-11-19T09:43:23Z</time>
      </trkpt>
      <trkpt lat="45.98927" lon="4.82927">
        <ele>255</ele>
        <time>2016-11-19T09:43:24Z</time>
      </trkpt>
      <trkpt lat="45.98924" lon="4.82938">
        <ele>255</ele>
        <time>2016-11-19T09:43:27Z</time>
      </trkpt>
      <trkpt lat="45.98923" lon="4.82941">
        <ele>255</ele>
        <time>2016-11-19T09:43:28Z</time>
      </trkpt>
      <trkpt lat="45.98918" lon="4.82949">
        <ele>255</ele>
        <time>2016-11-19T09:43:31Z</time>
      </trkpt>
      <trkpt lat="45.98916" lon="4.82952">
        <ele>258</ele>
        <time>2016-11-19T09:43:32Z</time>
      </trkpt>
      <trkpt lat="45.98911" lon="4.8296">
        <ele>258</ele>
        <time>2016-11-19T09:43:35Z</time>
      </trkpt>
      <trkpt lat="45.98909" lon="4.82963">
        <ele>259</ele>
        <time>2016-11-19T09:43:36Z</time>
      </trkpt>
      <trkpt lat="45.98902" lon="4.82971">
        <ele>259</ele>
        <time>2016-11-19T09:43:39Z</time>
      </trkpt>
      <trkpt lat="45.989" lon="4.82973">
        <ele>259</ele>
        <time>2016-11-19T09:43:40Z</time>
      </trkpt>
      <trkpt lat="45.98895" lon="4.82978">
        <ele>259</ele>
        <time>2016-11-19T09:43:43Z</time>
      </trkpt>
      <trkpt lat="45.98892" lon="4.8298">
        <ele>259</ele>
        <time>2016-11-19T09:43:44Z</time>
      </trkpt>
      <trkpt lat="45.98886" lon="4.82985">
        <ele>259</ele>
        <time>2016-11-19T09:43:47Z</time>
      </trkpt>
      <trkpt lat="45.98884" lon="4.82986">
        <ele>259</ele>
        <time>2016-11-19T09:43:48Z</time>
      </trkpt>
      <trkpt lat="45.98877" lon="4.8299">
        <ele>260</ele>
        <time>2016-11-19T09:43:51Z</time>
      </trkpt>
      <trkpt lat="45.98874" lon="4.82992">
        <ele>260</ele>
        <time>2016-11-19T09:43:52Z</time>
      </trkpt>
      <trkpt lat="45.98869" lon="4.82998">
        <ele>260</ele>
        <time>2016-11-19T09:43:55Z</time>
      </trkpt>
      <trkpt lat="45.98867" lon="4.82999">
        <ele>260</ele>
        <time>2016-11-19T09:43:56Z</time>
      </trkpt>
      <trkpt lat="45.9886" lon="4.83002">
        <ele>261</ele>
        <time>2016-11-19T09:43:59Z</time>
      </trkpt>
      <trkpt lat="45.98857" lon="4.83004">
        <ele>261</ele>
        <time>2016-11-19T09:44:00Z</time>
      </trkpt>
      <trkpt lat="45.98851" lon="4.83009">
        <ele>261</ele>
        <time>2016-11-19T09:44:03Z</time>
      </trkpt>
      <trkpt lat="45.98849" lon="4.83011">
        <ele>261</ele>
        <time>2016-11-19T09:44:04Z</time>
      </trkpt>
      <trkpt lat="45.98843" lon="4.83016">
        <ele>261</ele>
        <time>2016-11-19T09:44:07Z</time>
      </trkpt>
      <trkpt lat="45.98841" lon="4.83018">
        <ele>261</ele>
        <time>2016-11-19T09:44:08Z</time>
      </trkpt>
      <trkpt lat="45.98834" lon="4.83023">
        <ele>261</ele>
        <time>2016-11-19T09:44:11Z</time>
      </trkpt>
      <trkpt lat="45.98832" lon="4.83024">
        <ele>264</ele>
        <time>2016-11-19T09:44:12Z</time>
      </trkpt>
      <trkpt lat="45.98826" lon="4.83029">
        <ele>264</ele>
        <time>2016-11-19T09:44:15Z</time>
      </trkpt>
      <trkpt lat="45.98823" lon="4.83031">
        <ele>264</ele>
        <time>2016-11-19T09:44:16Z</time>
      </trkpt>
      <trkpt lat="45.98815" lon="4.83036">
        <ele>264</ele>
        <time>2016-11-19T09:44:19Z</time>
      </trkpt>
      <trkpt lat="45.98813" lon="4.83038">
        <ele>264</ele>
        <time>2016-11-19T09:44:20Z</time>
      </trkpt>
      <trkpt lat="45.98805" lon="4.83043">
        <ele>264</ele>
        <time>2016-11-19T09:44:23Z</time>
      </trkpt>
      <trkpt lat="45.98803" lon="4.83045">
        <ele>264</ele>
        <time>2016-11-19T09:44:24Z</time>
      </trkpt>
      <trkpt lat="45.98795" lon="4.8305">
        <ele>265</ele>
        <time>2016-11-19T09:44:27Z</time>
      </trkpt>
      <trkpt lat="45.98793" lon="4.83052">
        <ele>265</ele>
        <time>2016-11-19T09:44:28Z</time>
      </trkpt>
      <trkpt lat="45.98787" lon="4.83059">
        <ele>265</ele>
        <time>2016-11-19T09:44:31Z</time>
      </trkpt>
      <trkpt lat="45.98784" lon="4.83061">
        <ele>265</ele>
        <time>2016-11-19T09:44:32Z</time>
      </trkpt>
      <trkpt lat="45.98778" lon="4.83068">
        <ele>265</ele>
        <time>2016-11-19T09:44:35Z</time>
      </trkpt>
      <trkpt lat="45.98775" lon="4.8307">
        <ele>265</ele>
        <time>2016-11-19T09:44:36Z</time>
      </trkpt>
      <trkpt lat="45.98768" lon="4.83076">
        <ele>266</ele>
        <time>2016-11-19T09:44:39Z</time>
      </trkpt>
      <trkpt lat="45.98766" lon="4.83078">
        <ele>266</ele>
        <time>2016-11-19T09:44:40Z</time>
      </trkpt>
      <trkpt lat="45.98759" lon="4.83084">
        <ele>266</ele>
        <time>2016-11-19T09:44:43Z</time>
      </trkpt>
      <trkpt lat="45.98756" lon="4.83086">
        <ele>266</ele>
        <time>2016-11-19T09:44:44Z</time>
      </trkpt>
      <trkpt lat="45.98749" lon="4.83092">
        <ele>267</ele>
        <time>2016-11-19T09:44:47Z</time>
      </trkpt>
      <trkpt lat="45.98746" lon="4.83095">
        <ele>267</ele>
        <time>2016-11-19T09:44:48Z</time>
      </trkpt>
      <trkpt lat="45.98739" lon="4.83101">
        <ele>267</ele>
        <time>2016-11-19T09:44:51Z</time>
      </trkpt>
      <trkpt lat="45.98736" lon="4.83104">
        <ele>267</ele>
        <time>2016-11-19T09:44:52Z</time>
      </trkpt>
      <trkpt lat="45.98728" lon="4.83111">
        <ele>267</ele>
        <time>2016-11-19T09:44:55Z</time>
      </trkpt>
      <trkpt lat="45.98726" lon="4.83113">
        <ele>267</ele>
        <time>2016-11-19T09:44:56Z</time>
      </trkpt>
      <trkpt lat="45.9872" lon="4.83117">
        <ele>267</ele>
        <time>2016-11-19T09:44:58Z</time>
      </trkpt>
      <trkpt lat="45.98717" lon="4.83119">
        <ele>267</ele>
        <time>2016-11-19T09:44:59Z</time>
      </trkpt>
      <trkpt lat="45.98711" lon="4.83124">
        <ele>266</ele>
        <time>2016-11-19T09:45:01Z</time>
      </trkpt>
      <trkpt lat="45.98708" lon="4.83127">
        <ele>266</ele>
        <time>2016-11-19T09:45:02Z</time>
      </trkpt>
      <trkpt lat="45.98702" lon="4.83131">
        <ele>266</ele>
        <time>2016-11-19T09:45:04Z</time>
      </trkpt>
      <trkpt lat="45.98699" lon="4.83133">
        <ele>266</ele>
        <time>2016-11-19T09:45:05Z</time>
      </trkpt>
      <trkpt lat="45.98693" lon="4.83138">
        <ele>266</ele>
        <time>2016-11-19T09:45:07Z</time>
      </trkpt>
      <trkpt lat="45.9869" lon="4.8314">
        <ele>266</ele>
        <time>2016-11-19T09:45:08Z</time>
      </trkpt>
      <trkpt lat="45.98683" lon="4.83145">
        <ele>266</ele>
        <time>2016-11-19T09:45:10Z</time>
      </trkpt>
      <trkpt lat="45.9868" lon="4.83146">
        <ele>266</ele>
        <time>2016-11-19T09:45:11Z</time>
      </trkpt>
      <trkpt lat="45.98674" lon="4.83152">
        <ele>266</ele>
        <time>2016-11-19T09:45:13Z</time>
      </trkpt>
      <trkpt lat="45.98671" lon="4.83154">
        <ele>266</ele>
        <time>2016-11-19T09:45:14Z</time>
      </trkpt>
      <trkpt lat="45.98664" lon="4.83159">
        <ele>266</ele>
        <time>2016-11-19T09:45:16Z</time>
      </trkpt>
      <trkpt lat="45.98661" lon="4.83161">
        <ele>266</ele>
        <time>2016-11-19T09:45:17Z</time>
      </trkpt>
      <trkpt lat="45.98655" lon="4.83166">
        <ele>267</ele>
        <time>2016-11-19T09:45:19Z</time>
      </trkpt>
      <trkpt lat="45.98652" lon="4.83169">
        <ele>267</ele>
        <time>2016-11-19T09:45:20Z</time>
      </trkpt>
      <trkpt lat="45.98645" lon="4.83174">
        <ele>267</ele>
        <time>2016-11-19T09:45:22Z</time>
      </trkpt>
      <trkpt lat="45.98642" lon="4.83177">
        <ele>267</ele>
        <time>2016-11-19T09:45:23Z</time>
      </trkpt>
      <trkpt lat="45.98637" lon="4.83183">
        <ele>267</ele>
        <time>2016-11-19T09:45:25Z</time>
      </trkpt>
      <trkpt lat="45.98634" lon="4.83186">
        <ele>267</ele>
        <time>2016-11-19T09:45:26Z</time>
      </trkpt>
      <trkpt lat="45.98628" lon="4.83193">
        <ele>267</ele>
        <time>2016-11-19T09:45:28Z</time>
      </trkpt>
      <trkpt lat="45.98626" lon="4.83196">
        <ele>267</ele>
        <time>2016-11-19T09:45:29Z</time>
      </trkpt>
      <trkpt lat="45.9862" lon="4.83203">
        <ele>267</ele>
        <time>2016-11-19T09:45:31Z</time>
      </trkpt>
      <trkpt lat="45.98617" lon="4.83206">
        <ele>267</ele>
        <time>2016-11-19T09:45:32Z</time>
      </trkpt>
      <trkpt lat="45.98612" lon="4.83213">
        <ele>267</ele>
        <time>2016-11-19T09:45:34Z</time>
      </trkpt>
      <trkpt lat="45.98609" lon="4.83216">
        <ele>267</ele>
        <time>2016-11-19T09:45:35Z</time>
      </trkpt>
      <trkpt lat="45.98604" lon="4.83223">
        <ele>267</ele>
        <time>2016-11-19T09:45:37Z</time>
      </trkpt>
      <trkpt lat="45.98601" lon="4.83227">
        <ele>268</ele>
        <time>2016-11-19T09:45:38Z</time>
      </trkpt>
      <trkpt lat="45.98596" lon="4.83235">
        <ele>268</ele>
        <time>2016-11-19T09:45:40Z</time>
      </trkpt>
      <trkpt lat="45.98594" lon="4.83239">
        <ele>268</ele>
        <time>2016-11-19T09:45:41Z</time>
      </trkpt>
      <trkpt lat="45.98588" lon="4.83246">
        <ele>268</ele>
        <time>2016-11-19T09:45:43Z</time>
      </trkpt>
      <trkpt lat="45.98585" lon="4.8325">
        <ele>268</ele>
        <time>2016-11-19T09:45:44Z</time>
      </trkpt>
      <trkpt lat="45.98579" lon="4.83258">
        <ele>268</ele>
        <time>2016-11-19T09:45:46Z</time>
      </trkpt>
      <trkpt lat="45.98577" lon="4.83262">
        <ele>269</ele>
        <time>2016-11-19T09:45:47Z</time>
      </trkpt>
      <trkpt lat="45.98571" lon="4.8327">
        <ele>269</ele>
        <time>2016-11-19T09:45:49Z</time>
      </trkpt>
      <trkpt lat="45.98568" lon="4.83274">
        <ele>269</ele>
        <time>2016-11-19T09:45:50Z</time>
      </trkpt>
      <trkpt lat="45.98563" lon="4.83281">
        <ele>269</ele>
        <time>2016-11-19T09:45:52Z</time>
      </trkpt>
      <trkpt lat="45.9856" lon="4.83285">
        <ele>269</ele>
        <time>2016-11-19T09:45:53Z</time>
      </trkpt>
      <trkpt lat="45.98554" lon="4.83292">
        <ele>269</ele>
        <time>2016-11-19T09:45:55Z</time>
      </trkpt>
      <trkpt lat="45.98552" lon="4.83295">
        <ele>269</ele>
        <time>2016-11-19T09:45:56Z</time>
      </trkpt>
      <trkpt lat="45.98546" lon="4.83303">
        <ele>269</ele>
        <time>2016-11-19T09:45:58Z</time>
      </trkpt>
      <trkpt lat="45.98543" lon="4.83307">
        <ele>269</ele>
        <time>2016-11-19T09:45:59Z</time>
      </trkpt>
      <trkpt lat="45.98538" lon="4.83314">
        <ele>269</ele>
        <time>2016-11-19T09:46:01Z</time>
      </trkpt>
      <trkpt lat="45.98535" lon="4.83318">
        <ele>269</ele>
        <time>2016-11-19T09:46:02Z</time>
      </trkpt>
      <trkpt lat="45.98529" lon="4.83326">
        <ele>269</ele>
        <time>2016-11-19T09:46:04Z</time>
      </trkpt>
      <trkpt lat="45.98526" lon="4.8333">
        <ele>270</ele>
        <time>2016-11-19T09:46:05Z</time>
      </trkpt>
      <trkpt lat="45.9852" lon="4.83339">
        <ele>270</ele>
        <time>2016-11-19T09:46:07Z</time>
      </trkpt>
      <trkpt lat="45.98517" lon="4.83343">
        <ele>270</ele>
        <time>2016-11-19T09:46:08Z</time>
      </trkpt>
      <trkpt lat="45.98514" lon="4.83348">
        <ele>270</ele>
        <time>2016-11-19T09:46:09Z</time>
      </trkpt>
      <trkpt lat="45.9851" lon="4.83353">
        <ele>270</ele>
        <time>2016-11-19T09:46:10Z</time>
      </trkpt>
      <trkpt lat="45.98507" lon="4.83357">
        <ele>270</ele>
        <time>2016-11-19T09:46:11Z</time>
      </trkpt>
      <trkpt lat="45.98503" lon="4.83361">
        <ele>269</ele>
        <time>2016-11-19T09:46:12Z</time>
      </trkpt>
      <trkpt lat="45.985" lon="4.83366">
        <ele>270</ele>
        <time>2016-11-19T09:46:13Z</time>
      </trkpt>
      <trkpt lat="45.98496" lon="4.83371">
        <ele>270</ele>
        <time>2016-11-19T09:46:14Z</time>
      </trkpt>
      <trkpt lat="45.98492" lon="4.83376">
        <ele>269</ele>
        <time>2016-11-19T09:46:15Z</time>
      </trkpt>
      <trkpt lat="45.98488" lon="4.83381">
        <ele>269</ele>
        <time>2016-11-19T09:46:16Z</time>
      </trkpt>
      <trkpt lat="45.98484" lon="4.83387">
        <ele>269</ele>
        <time>2016-11-19T09:46:17Z</time>
      </trkpt>
      <trkpt lat="45.98481" lon="4.83392">
        <ele>269</ele>
        <time>2016-11-19T09:46:18Z</time>
      </trkpt>
      <trkpt lat="45.98477" lon="4.83397">
        <ele>269</ele>
        <time>2016-11-19T09:46:19Z</time>
      </trkpt>
      <trkpt lat="45.98473" lon="4.83402">
        <ele>269</ele>
        <time>2016-11-19T09:46:20Z</time>
      </trkpt>
      <trkpt lat="45.9847" lon="4.83406">
        <ele>269</ele>
        <time>2016-11-19T09:46:21Z</time>
      </trkpt>
      <trkpt lat="45.98466" lon="4.83411">
        <ele>269</ele>
        <time>2016-11-19T09:46:22Z</time>
      </trkpt>
      <trkpt lat="45.98462" lon="4.83416">
        <ele>269</ele>
        <time>2016-11-19T09:46:23Z</time>
      </trkpt>
      <trkpt lat="45.98459" lon="4.83422">
        <ele>269</ele>
        <time>2016-11-19T09:46:24Z</time>
      </trkpt>
      <trkpt lat="45.98456" lon="4.83427">
        <ele>268</ele>
        <time>2016-11-19T09:46:25Z</time>
      </trkpt>
      <trkpt lat="45.98452" lon="4.83432">
        <ele>268</ele>
        <time>2016-11-19T09:46:26Z</time>
      </trkpt>
      <trkpt lat="45.98448" lon="4.83436">
        <ele>268</ele>
        <time>2016-11-19T09:46:27Z</time>
      </trkpt>
      <trkpt lat="45.98445" lon="4.83441">
        <ele>268</ele>
        <time>2016-11-19T09:46:28Z</time>
      </trkpt>
      <trkpt lat="45.98441" lon="4.83446">
        <ele>268</ele>
        <time>2016-11-19T09:46:29Z</time>
      </trkpt>
      <trkpt lat="45.98438" lon="4.83451">
        <ele>268</ele>
        <time>2016-11-19T09:46:30Z</time>
      </trkpt>
      <trkpt lat="45.98434" lon="4.83456">
        <ele>268</ele>
        <time>2016-11-19T09:46:31Z</time>
      </trkpt>
      <trkpt lat="45.98431" lon="4.83461">
        <ele>268</ele>
        <time>2016-11-19T09:46:32Z</time>
      </trkpt>
      <trkpt lat="45.98427" lon="4.83466">
        <ele>268</ele>
        <time>2016-11-19T09:46:33Z</time>
      </trkpt>
      <trkpt lat="45.98424" lon="4.8347">
        <ele>268</ele>
        <time>2016-11-19T09:46:34Z</time>
      </trkpt>
      <trkpt lat="45.9842" lon="4.83475">
        <ele>268</ele>
        <time>2016-11-19T09:46:35Z</time>
      </trkpt>
      <trkpt lat="45.98416" lon="4.8348">
        <ele>269</ele>
        <time>2016-11-19T09:46:36Z</time>
      </trkpt>
      <trkpt lat="45.98413" lon="4.83485">
        <ele>269</ele>
        <time>2016-11-19T09:46:37Z</time>
      </trkpt>
      <trkpt lat="45.98409" lon="4.8349">
        <ele>269</ele>
        <time>2016-11-19T09:46:38Z</time>
      </trkpt>
      <trkpt lat="45.98406" lon="4.83495">
        <ele>269</ele>
        <time>2016-11-19T09:46:39Z</time>
      </trkpt>
      <trkpt lat="45.98402" lon="4.83499">
        <ele>269</ele>
        <time>2016-11-19T09:46:40Z</time>
      </trkpt>
      <trkpt lat="45.98398" lon="4.83502">
        <ele>269</ele>
        <time>2016-11-19T09:46:41Z</time>
      </trkpt>
      <trkpt lat="45.98395" lon="4.83506">
        <ele>269</ele>
        <time>2016-11-19T09:46:42Z</time>
      </trkpt>
      <trkpt lat="45.98391" lon="4.83512">
        <ele>269</ele>
        <time>2016-11-19T09:46:43Z</time>
      </trkpt>
      <trkpt lat="45.98388" lon="4.83516">
        <ele>269</ele>
        <time>2016-11-19T09:46:44Z</time>
      </trkpt>
      <trkpt lat="45.98385" lon="4.83521">
        <ele>269</ele>
        <time>2016-11-19T09:46:45Z</time>
      </trkpt>
      <trkpt lat="45.98381" lon="4.83526">
        <ele>269</ele>
        <time>2016-11-19T09:46:46Z</time>
      </trkpt>
      <trkpt lat="45.98378" lon="4.83531">
        <ele>269</ele>
        <time>2016-11-19T09:46:47Z</time>
      </trkpt>
      <trkpt lat="45.98374" lon="4.83535">
        <ele>269</ele>
        <time>2016-11-19T09:46:48Z</time>
      </trkpt>
      <trkpt lat="45.98371" lon="4.8354">
        <ele>269</ele>
        <time>2016-11-19T09:46:49Z</time>
      </trkpt>
      <trkpt lat="45.98368" lon="4.83544">
        <ele>269</ele>
        <time>2016-11-19T09:46:50Z</time>
      </trkpt>
      <trkpt lat="45.98364" lon="4.83549">
        <ele>269</ele>
        <time>2016-11-19T09:46:51Z</time>
      </trkpt>
      <trkpt lat="45.98361" lon="4.83554">
        <ele>269</ele>
        <time>2016-11-19T09:46:52Z</time>
      </trkpt>
      <trkpt lat="45.98357" lon="4.83558">
        <ele>269</ele>
        <time>2016-11-19T09:46:53Z</time>
      </trkpt>
      <trkpt lat="45.98354" lon="4.83563">
        <ele>269</ele>
        <time>2016-11-19T09:46:54Z</time>
      </trkpt>
      <trkpt lat="45.98347" lon="4.83571">
        <ele>269</ele>
        <time>2016-11-19T09:46:56Z</time>
      </trkpt>
      <trkpt lat="45.98344" lon="4.83575">
        <ele>270</ele>
        <time>2016-11-19T09:46:57Z</time>
      </trkpt>
      <trkpt lat="45.98338" lon="4.83585">
        <ele>270</ele>
        <time>2016-11-19T09:46:59Z</time>
      </trkpt>
      <trkpt lat="45.98334" lon="4.83589">
        <ele>270</ele>
        <time>2016-11-19T09:47:00Z</time>
      </trkpt>
      <trkpt lat="45.98328" lon="4.83598">
        <ele>271</ele>
        <time>2016-11-19T09:47:02Z</time>
      </trkpt>
      <trkpt lat="45.98325" lon="4.83603">
        <ele>271</ele>
        <time>2016-11-19T09:47:03Z</time>
      </trkpt>
      <trkpt lat="45.98319" lon="4.83611">
        <ele>271</ele>
        <time>2016-11-19T09:47:05Z</time>
      </trkpt>
      <trkpt lat="45.98316" lon="4.83616">
        <ele>271</ele>
        <time>2016-11-19T09:47:06Z</time>
      </trkpt>
      <trkpt lat="45.98313" lon="4.83622">
        <ele>271</ele>
        <time>2016-11-19T09:47:07Z</time>
      </trkpt>
      <trkpt lat="45.9831" lon="4.83627">
        <ele>271</ele>
        <time>2016-11-19T09:47:08Z</time>
      </trkpt>
      <trkpt lat="45.98308" lon="4.83632">
        <ele>271</ele>
        <time>2016-11-19T09:47:09Z</time>
      </trkpt>
      <trkpt lat="45.98305" lon="4.83638">
        <ele>271</ele>
        <time>2016-11-19T09:47:10Z</time>
      </trkpt>
      <trkpt lat="45.98302" lon="4.83643">
        <ele>271</ele>
        <time>2016-11-19T09:47:11Z</time>
      </trkpt>
      <trkpt lat="45.983" lon="4.83649">
        <ele>271</ele>
        <time>2016-11-19T09:47:12Z</time>
      </trkpt>
      <trkpt lat="45.98298" lon="4.83655">
        <ele>271</ele>
        <time>2016-11-19T09:47:13Z</time>
      </trkpt>
      <trkpt lat="45.98295" lon="4.83661">
        <ele>271</ele>
        <time>2016-11-19T09:47:14Z</time>
      </trkpt>
      <trkpt lat="45.98293" lon="4.83666">
        <ele>272</ele>
        <time>2016-11-19T09:47:15Z</time>
      </trkpt>
      <trkpt lat="45.9829" lon="4.83672">
        <ele>272</ele>
        <time>2016-11-19T09:47:16Z</time>
      </trkpt>
      <trkpt lat="45.98288" lon="4.83678">
        <ele>272</ele>
        <time>2016-11-19T09:47:17Z</time>
      </trkpt>
      <trkpt lat="45.98286" lon="4.83684">
        <ele>272</ele>
        <time>2016-11-19T09:47:18Z</time>
      </trkpt>
      <trkpt lat="45.98284" lon="4.83691">
        <ele>272</ele>
        <time>2016-11-19T09:47:19Z</time>
      </trkpt>
      <trkpt lat="45.98282" lon="4.83697">
        <ele>272</ele>
        <time>2016-11-19T09:47:20Z</time>
      </trkpt>
      <trkpt lat="45.9828" lon="4.83703">
        <ele>272</ele>
        <time>2016-11-19T09:47:21Z</time>
      </trkpt>
      <trkpt lat="45.98278" lon="4.83709">
        <ele>272</ele>
        <time>2016-11-19T09:47:22Z</time>
      </trkpt>
      <trkpt lat="45.98275" lon="4.83716">
        <ele>272</ele>
        <time>2016-11-19T09:47:23Z</time>
      </trkpt>
      <trkpt lat="45.98273" lon="4.83722">
        <ele>272</ele>
        <time>2016-11-19T09:47:24Z</time>
      </trkpt>
      <trkpt lat="45.98271" lon="4.83728">
        <ele>272</ele>
        <time>2016-11-19T09:47:25Z</time>
      </trkpt>
      <trkpt lat="45.98269" lon="4.83734">
        <ele>272</ele>
        <time>2016-11-19T09:47:26Z</time>
      </trkpt>
      <trkpt lat="45.98266" lon="4.8374">
        <ele>272</ele>
        <time>2016-11-19T09:47:27Z</time>
      </trkpt>
      <trkpt lat="45.98264" lon="4.83746">
        <ele>272</ele>
        <time>2016-11-19T09:47:28Z</time>
      </trkpt>
      <trkpt lat="45.98262" lon="4.83753">
        <ele>272</ele>
        <time>2016-11-19T09:47:29Z</time>
      </trkpt>
      <trkpt lat="45.9826" lon="4.83759">
        <ele>272</ele>
        <time>2016-11-19T09:47:30Z</time>
      </trkpt>
      <trkpt lat="45.98257" lon="4.83765">
        <ele>272</ele>
        <time>2016-11-19T09:47:31Z</time>
      </trkpt>
      <trkpt lat="45.98255" lon="4.83772">
        <ele>272</ele>
        <time>2016-11-19T09:47:32Z</time>
      </trkpt>
      <trkpt lat="45.98253" lon="4.83778">
        <ele>272</ele>
        <time>2016-11-19T09:47:33Z</time>
      </trkpt>
      <trkpt lat="45.98251" lon="4.83785">
        <ele>272</ele>
        <time>2016-11-19T09:47:34Z</time>
      </trkpt>
      <trkpt lat="45.98248" lon="4.83791">
        <ele>272</ele>
        <time>2016-11-19T09:47:35Z</time>
      </trkpt>
      <trkpt lat="45.98246" lon="4.83798">
        <ele>272</ele>
        <time>2016-11-19T09:47:36Z</time>
      </trkpt>
      <trkpt lat="45.98244" lon="4.83804">
        <ele>272</ele>
        <time>2016-11-19T09:47:37Z</time>
      </trkpt>
      <trkpt lat="45.98242" lon="4.83811">
        <ele>272</ele>
        <time>2016-11-19T09:47:38Z</time>
      </trkpt>
      <trkpt lat="45.9824" lon="4.83817">
        <ele>272</ele>
        <time>2016-11-19T09:47:39Z</time>
      </trkpt>
      <trkpt lat="45.98238" lon="4.83824">
        <ele>272</ele>
        <time>2016-11-19T09:47:40Z</time>
      </trkpt>
      <trkpt lat="45.98235" lon="4.8383">
        <ele>272</ele>
        <time>2016-11-19T09:47:41Z</time>
      </trkpt>
      <trkpt lat="45.98233" lon="4.83837">
        <ele>272</ele>
        <time>2016-11-19T09:47:42Z</time>
      </trkpt>
      <trkpt lat="45.98231" lon="4.83843">
        <ele>272</ele>
        <time>2016-11-19T09:47:43Z</time>
      </trkpt>
      <trkpt lat="45.98228" lon="4.8385">
        <ele>272</ele>
        <time>2016-11-19T09:47:44Z</time>
      </trkpt>
      <trkpt lat="45.98226" lon="4.83857">
        <ele>272</ele>
        <time>2016-11-19T09:47:45Z</time>
      </trkpt>
      <trkpt lat="45.98224" lon="4.83863">
        <ele>272</ele>
        <time>2016-11-19T09:47:46Z</time>
      </trkpt>
      <trkpt lat="45.98222" lon="4.8387">
        <ele>272</ele>
        <time>2016-11-19T09:47:47Z</time>
      </trkpt>
      <trkpt lat="45.9822" lon="4.83876">
        <ele>272</ele>
        <time>2016-11-19T09:47:48Z</time>
      </trkpt>
      <trkpt lat="45.98217" lon="4.83883">
        <ele>272</ele>
        <time>2016-11-19T09:47:49Z</time>
      </trkpt>
      <trkpt lat="45.98215" lon="4.83889">
        <ele>273</ele>
        <time>2016-11-19T09:47:50Z</time>
      </trkpt>
      <trkpt lat="45.98213" lon="4.83896">
        <ele>273</ele>
        <time>2016-11-19T09:47:51Z</time>
      </trkpt>
      <trkpt lat="45.98211" lon="4.83902">
        <ele>273</ele>
        <time>2016-11-19T09:47:52Z</time>
      </trkpt>
      <trkpt lat="45.98208" lon="4.83909">
        <ele>273</ele>
        <time>2016-11-19T09:47:53Z</time>
      </trkpt>
      <trkpt lat="45.98206" lon="4.83915">
        <ele>273</ele>
        <time>2016-11-19T09:47:54Z</time>
      </trkpt>
      <trkpt lat="45.98204" lon="4.83922">
        <ele>273</ele>
        <time>2016-11-19T09:47:55Z</time>
      </trkpt>
      <trkpt lat="45.98201" lon="4.83928">
        <ele>273</ele>
        <time>2016-11-19T09:47:56Z</time>
      </trkpt>
      <trkpt lat="45.98199" lon="4.83935">
        <ele>273</ele>
        <time>2016-11-19T09:47:57Z</time>
      </trkpt>
      <trkpt lat="45.98196" lon="4.83942">
        <ele>273</ele>
        <time>2016-11-19T09:47:58Z</time>
      </trkpt>
      <trkpt lat="45.98194" lon="4.83949">
        <ele>273</ele>
        <time>2016-11-19T09:47:59Z</time>
      </trkpt>
      <trkpt lat="45.98192" lon="4.83955">
        <ele>273</ele>
        <time>2016-11-19T09:48:00Z</time>
      </trkpt>
      <trkpt lat="45.98189" lon="4.83962">
        <ele>273</ele>
        <time>2016-11-19T09:48:01Z</time>
      </trkpt>
      <trkpt lat="45.98187" lon="4.83969">
        <ele>273</ele>
        <time>2016-11-19T09:48:02Z</time>
      </trkpt>
      <trkpt lat="45.98185" lon="4.83975">
        <ele>273</ele>
        <time>2016-11-19T09:48:03Z</time>
      </trkpt>
      <trkpt lat="45.98182" lon="4.83981">
        <ele>273</ele>
        <time>2016-11-19T09:48:04Z</time>
      </trkpt>
      <trkpt lat="45.98179" lon="4.83988">
        <ele>273</ele>
        <time>2016-11-19T09:48:05Z</time>
      </trkpt>
      <trkpt lat="45.98177" lon="4.83994">
        <ele>273</ele>
        <time>2016-11-19T09:48:06Z</time>
      </trkpt>
      <trkpt lat="45.98174" lon="4.84001">
        <ele>273</ele>
        <time>2016-11-19T09:48:07Z</time>
      </trkpt>
      <trkpt lat="45.98171" lon="4.84007">
        <ele>273</ele>
        <time>2016-11-19T09:48:08Z</time>
      </trkpt>
      <trkpt lat="45.98168" lon="4.84013">
        <ele>273</ele>
        <time>2016-11-19T09:48:09Z</time>
      </trkpt>
      <trkpt lat="45.98165" lon="4.8402">
        <ele>273</ele>
        <time>2016-11-19T09:48:10Z</time>
      </trkpt>
      <trkpt lat="45.98162" lon="4.84025">
        <ele>273</ele>
        <time>2016-11-19T09:48:11Z</time>
      </trkpt>
      <trkpt lat="45.98159" lon="4.84031">
        <ele>273</ele>
        <time>2016-11-19T09:48:12Z</time>
      </trkpt>
      <trkpt lat="45.98155" lon="4.84036">
        <ele>273</ele>
        <time>2016-11-19T09:48:13Z</time>
      </trkpt>
      <trkpt lat="45.98152" lon="4.84041">
        <ele>273</ele>
        <time>2016-11-19T09:48:14Z</time>
      </trkpt>
      <trkpt lat="45.98148" lon="4.84047">
        <ele>273</ele>
        <time>2016-11-19T09:48:15Z</time>
      </trkpt>
      <trkpt lat="45.98145" lon="4.84053">
        <ele>273</ele>
        <time>2016-11-19T09:48:16Z</time>
      </trkpt>
      <trkpt lat="45.98141" lon="4.84058">
        <ele>273</ele>
        <time>2016-11-19T09:48:17Z</time>
      </trkpt>
      <trkpt lat="45.98137" lon="4.84063">
        <ele>273</ele>
        <time>2016-11-19T09:48:18Z</time>
      </trkpt>
      <trkpt lat="45.98132" lon="4.84069">
        <ele>273</ele>
        <time>2016-11-19T09:48:19Z</time>
      </trkpt>
      <trkpt lat="45.98128" lon="4.84074">
        <ele>273</ele>
        <time>2016-11-19T09:48:20Z</time>
      </trkpt>
      <trkpt lat="45.98124" lon="4.84078">
        <ele>273</ele>
        <time>2016-11-19T09:48:21Z</time>
      </trkpt>
      <trkpt lat="45.9812" lon="4.84083">
        <ele>273</ele>
        <time>2016-11-19T09:48:22Z</time>
      </trkpt>
      <trkpt lat="45.98115" lon="4.84088">
        <ele>273</ele>
        <time>2016-11-19T09:48:23Z</time>
      </trkpt>
      <trkpt lat="45.98111" lon="4.84091">
        <ele>273</ele>
        <time>2016-11-19T09:48:24Z</time>
      </trkpt>
      <trkpt lat="45.98107" lon="4.84095">
        <ele>273</ele>
        <time>2016-11-19T09:48:25Z</time>
      </trkpt>
      <trkpt lat="45.98103" lon="4.84099">
        <ele>273</ele>
        <time>2016-11-19T09:48:26Z</time>
      </trkpt>
      <trkpt lat="45.981" lon="4.84103">
        <ele>273</ele>
        <time>2016-11-19T09:48:27Z</time>
      </trkpt>
      <trkpt lat="45.98096" lon="4.84106">
        <ele>273</ele>
        <time>2016-11-19T09:48:28Z</time>
      </trkpt>
      <trkpt lat="45.98092" lon="4.8411">
        <ele>273</ele>
        <time>2016-11-19T09:48:29Z</time>
      </trkpt>
      <trkpt lat="45.98088" lon="4.84114">
        <ele>273</ele>
        <time>2016-11-19T09:48:30Z</time>
      </trkpt>
      <trkpt lat="45.98084" lon="4.84118">
        <ele>273</ele>
        <time>2016-11-19T09:48:31Z</time>
      </trkpt>
      <trkpt lat="45.98081" lon="4.84121">
        <ele>273</ele>
        <time>2016-11-19T09:48:32Z</time>
      </trkpt>
      <trkpt lat="45.98073" lon="4.84128">
        <ele>273</ele>
        <time>2016-11-19T09:48:34Z</time>
      </trkpt>
      <trkpt lat="45.98069" lon="4.84132">
        <ele>273</ele>
        <time>2016-11-19T09:48:35Z</time>
      </trkpt>
      <trkpt lat="45.98065" lon="4.84135">
        <ele>273</ele>
        <time>2016-11-19T09:48:36Z</time>
      </trkpt>
      <trkpt lat="45.98061" lon="4.84139">
        <ele>273</ele>
        <time>2016-11-19T09:48:37Z</time>
      </trkpt>
      <trkpt lat="45.98057" lon="4.84143">
        <ele>273</ele>
        <time>2016-11-19T09:48:38Z</time>
      </trkpt>
      <trkpt lat="45.98053" lon="4.84147">
        <ele>273</ele>
        <time>2016-11-19T09:48:39Z</time>
      </trkpt>
      <trkpt lat="45.98049" lon="4.8415">
        <ele>273</ele>
        <time>2016-11-19T09:48:40Z</time>
      </trkpt>
      <trkpt lat="45.98045" lon="4.84154">
        <ele>273</ele>
        <time>2016-11-19T09:48:41Z</time>
      </trkpt>
      <trkpt lat="45.98038" lon="4.84161">
        <ele>273</ele>
        <time>2016-11-19T09:48:43Z</time>
      </trkpt>
      <trkpt lat="45.98034" lon="4.84165">
        <ele>273</ele>
        <time>2016-11-19T09:48:44Z</time>
      </trkpt>
      <trkpt lat="45.9803" lon="4.84169">
        <ele>273</ele>
        <time>2016-11-19T09:48:45Z</time>
      </trkpt>
      <trkpt lat="45.98026" lon="4.84173">
        <ele>274</ele>
        <time>2016-11-19T09:48:46Z</time>
      </trkpt>
      <trkpt lat="45.98022" lon="4.84176">
        <ele>274</ele>
        <time>2016-11-19T09:48:47Z</time>
      </trkpt>
      <trkpt lat="45.98018" lon="4.8418">
        <ele>274</ele>
        <time>2016-11-19T09:48:48Z</time>
      </trkpt>
      <trkpt lat="45.98014" lon="4.84184">
        <ele>274</ele>
        <time>2016-11-19T09:48:49Z</time>
      </trkpt>
      <trkpt lat="45.9801" lon="4.84188">
        <ele>274</ele>
        <time>2016-11-19T09:48:50Z</time>
      </trkpt>
      <trkpt lat="45.98006" lon="4.84192">
        <ele>274</ele>
        <time>2016-11-19T09:48:51Z</time>
      </trkpt>
      <trkpt lat="45.98002" lon="4.84195">
        <ele>274</ele>
        <time>2016-11-19T09:48:52Z</time>
      </trkpt>
      <trkpt lat="45.97998" lon="4.84199">
        <ele>274</ele>
        <time>2016-11-19T09:48:53Z</time>
      </trkpt>
      <trkpt lat="45.97994" lon="4.84203">
        <ele>274</ele>
        <time>2016-11-19T09:48:54Z</time>
      </trkpt>
      <trkpt lat="45.97989" lon="4.84206">
        <ele>274</ele>
        <time>2016-11-19T09:48:55Z</time>
      </trkpt>
      <trkpt lat="45.97985" lon="4.8421">
        <ele>274</ele>
        <time>2016-11-19T09:48:56Z</time>
      </trkpt>
      <trkpt lat="45.97981" lon="4.84214">
        <ele>274</ele>
        <time>2016-11-19T09:48:57Z</time>
      </trkpt>
      <trkpt lat="45.97977" lon="4.84218">
        <ele>274</ele>
        <time>2016-11-19T09:48:58Z</time>
      </trkpt>
      <trkpt lat="45.97973" lon="4.84222">
        <ele>274</ele>
        <time>2016-11-19T09:48:59Z</time>
      </trkpt>
      <trkpt lat="45.97969" lon="4.84225">
        <ele>274</ele>
        <time>2016-11-19T09:49:00Z</time>
      </trkpt>
      <trkpt lat="45.97965" lon="4.84229">
        <ele>274</ele>
        <time>2016-11-19T09:49:01Z</time>
      </trkpt>
      <trkpt lat="45.9796" lon="4.84233">
        <ele>274</ele>
        <time>2016-11-19T09:49:02Z</time>
      </trkpt>
      <trkpt lat="45.97956" lon="4.84237">
        <ele>275</ele>
        <time>2016-11-19T09:49:03Z</time>
      </trkpt>
      <trkpt lat="45.97952" lon="4.8424">
        <ele>275</ele>
        <time>2016-11-19T09:49:04Z</time>
      </trkpt>
      <trkpt lat="45.97948" lon="4.84244">
        <ele>275</ele>
        <time>2016-11-19T09:49:05Z</time>
      </trkpt>
      <trkpt lat="45.97944" lon="4.84248">
        <ele>275</ele>
        <time>2016-11-19T09:49:06Z</time>
      </trkpt>
      <trkpt lat="45.9794" lon="4.84252">
        <ele>275</ele>
        <time>2016-11-19T09:49:07Z</time>
      </trkpt>
      <trkpt lat="45.97936" lon="4.84256">
        <ele>275</ele>
        <time>2016-11-19T09:49:08Z</time>
      </trkpt>
      <trkpt lat="45.97932" lon="4.84261">
        <ele>275</ele>
        <time>2016-11-19T09:49:09Z</time>
      </trkpt>
      <trkpt lat="45.97929" lon="4.84267">
        <ele>275</ele>
        <time>2016-11-19T09:49:10Z</time>
      </trkpt>
      <trkpt lat="45.97927" lon="4.84273">
        <ele>275</ele>
        <time>2016-11-19T09:49:11Z</time>
      </trkpt>
      <trkpt lat="45.97925" lon="4.8428">
        <ele>275</ele>
        <time>2016-11-19T09:49:12Z</time>
      </trkpt>
      <trkpt lat="45.97924" lon="4.84288">
        <ele>275</ele>
        <time>2016-11-19T09:49:13Z</time>
      </trkpt>
      <trkpt lat="45.97924" lon="4.84295">
        <ele>275</ele>
        <time>2016-11-19T09:49:14Z</time>
      </trkpt>
      <trkpt lat="45.97925" lon="4.84303">
        <ele>275</ele>
        <time>2016-11-19T09:49:15Z</time>
      </trkpt>
      <trkpt lat="45.97927" lon="4.8431">
        <ele>275</ele>
        <time>2016-11-19T09:49:16Z</time>
      </trkpt>
      <trkpt lat="45.97928" lon="4.84317">
        <ele>275</ele>
        <time>2016-11-19T09:49:17Z</time>
      </trkpt>
      <trkpt lat="45.97929" lon="4.84324">
        <ele>275</ele>
        <time>2016-11-19T09:49:18Z</time>
      </trkpt>
      <trkpt lat="45.9793" lon="4.84331">
        <ele>275</ele>
        <time>2016-11-19T09:49:19Z</time>
      </trkpt>
      <trkpt lat="45.97932" lon="4.84337">
        <ele>275</ele>
        <time>2016-11-19T09:49:20Z</time>
      </trkpt>
      <trkpt lat="45.97933" lon="4.84344">
        <ele>275</ele>
        <time>2016-11-19T09:49:21Z</time>
      </trkpt>
      <trkpt lat="45.97934" lon="4.8435">
        <ele>275</ele>
        <time>2016-11-19T09:49:22Z</time>
      </trkpt>
      <trkpt lat="45.97935" lon="4.84357">
        <ele>275</ele>
        <time>2016-11-19T09:49:23Z</time>
      </trkpt>
      <trkpt lat="45.97936" lon="4.84363">
        <ele>275</ele>
        <time>2016-11-19T09:49:24Z</time>
      </trkpt>
      <trkpt lat="45.97937" lon="4.84369">
        <ele>275</ele>
        <time>2016-11-19T09:49:25Z</time>
      </trkpt>
      <trkpt lat="45.97938" lon="4.84376">
        <ele>275</ele>
        <time>2016-11-19T09:49:26Z</time>
      </trkpt>
      <trkpt lat="45.97939" lon="4.84383">
        <ele>275</ele>
        <time>2016-11-19T09:49:27Z</time>
      </trkpt>
      <trkpt lat="45.9794" lon="4.8439">
        <ele>275</ele>
        <time>2016-11-19T09:49:28Z</time>
      </trkpt>
      <trkpt lat="45.9794" lon="4.84396">
        <ele>275</ele>
        <time>2016-11-19T09:49:29Z</time>
      </trkpt>
      <trkpt lat="45.97942" lon="4.84403">
        <ele>275</ele>
        <time>2016-11-19T09:49:30Z</time>
      </trkpt>
      <trkpt lat="45.97943" lon="4.8441">
        <ele>275</ele>
        <time>2016-11-19T09:49:31Z</time>
      </trkpt>
      <trkpt lat="45.97945" lon="4.84416">
        <ele>275</ele>
        <time>2016-11-19T09:49:32Z</time>
      </trkpt>
      <trkpt lat="45.97946" lon="4.84423">
        <ele>275</ele>
        <time>2016-11-19T09:49:33Z</time>
      </trkpt>
      <trkpt lat="45.97947" lon="4.8443">
        <ele>275</ele>
        <time>2016-11-19T09:49:34Z</time>
      </trkpt>
      <trkpt lat="45.97948" lon="4.84437">
        <ele>275</ele>
        <time>2016-11-19T09:49:35Z</time>
      </trkpt>
      <trkpt lat="45.97949" lon="4.84444">
        <ele>275</ele>
        <time>2016-11-19T09:49:36Z</time>
      </trkpt>
      <trkpt lat="45.9795" lon="4.84451">
        <ele>275</ele>
        <time>2016-11-19T09:49:37Z</time>
      </trkpt>
      <trkpt lat="45.97952" lon="4.84458">
        <ele>275</ele>
        <time>2016-11-19T09:49:38Z</time>
      </trkpt>
      <trkpt lat="45.97953" lon="4.84465">
        <ele>275</ele>
        <time>2016-11-19T09:49:39Z</time>
      </trkpt>
      <trkpt lat="45.97954" lon="4.84472">
        <ele>275</ele>
        <time>2016-11-19T09:49:40Z</time>
      </trkpt>
      <trkpt lat="45.97955" lon="4.84479">
        <ele>275</ele>
        <time>2016-11-19T09:49:41Z</time>
      </trkpt>
      <trkpt lat="45.97956" lon="4.84485">
        <ele>275</ele>
        <time>2016-11-19T09:49:42Z</time>
      </trkpt>
      <trkpt lat="45.97957" lon="4.84492">
        <ele>275</ele>
        <time>2016-11-19T09:49:43Z</time>
      </trkpt>
      <trkpt lat="45.97958" lon="4.84499">
        <ele>275</ele>
        <time>2016-11-19T09:49:44Z</time>
      </trkpt>
      <trkpt lat="45.9796" lon="4.84506">
        <ele>275</ele>
        <time>2016-11-19T09:49:45Z</time>
      </trkpt>
      <trkpt lat="45.97961" lon="4.84513">
        <ele>275</ele>
        <time>2016-11-19T09:49:46Z</time>
      </trkpt>
      <trkpt lat="45.97962" lon="4.8452">
        <ele>275</ele>
        <time>2016-11-19T09:49:47Z</time>
      </trkpt>
      <trkpt lat="45.97963" lon="4.84526">
        <ele>275</ele>
        <time>2016-11-19T09:49:48Z</time>
      </trkpt>
      <trkpt lat="45.97964" lon="4.84533">
        <ele>275</ele>
        <time>2016-11-19T09:49:49Z</time>
      </trkpt>
      <trkpt lat="45.97966" lon="4.8454">
        <ele>275</ele>
        <time>2016-11-19T09:49:50Z</time>
      </trkpt>
      <trkpt lat="45.97967" lon="4.84547">
        <ele>275</ele>
        <time>2016-11-19T09:49:51Z</time>
      </trkpt>
      <trkpt lat="45.97968" lon="4.84553">
        <ele>275</ele>
        <time>2016-11-19T09:49:52Z</time>
      </trkpt>
      <trkpt lat="45.97969" lon="4.8456">
        <ele>275</ele>
        <time>2016-11-19T09:49:53Z</time>
      </trkpt>
      <trkpt lat="45.9797" lon="4.84567">
        <ele>275</ele>
        <time>2016-11-19T09:49:54Z</time>
      </trkpt>
      <trkpt lat="45.97971" lon="4.84574">
        <ele>275</ele>
        <time>2016-11-19T09:49:55Z</time>
      </trkpt>
      <trkpt lat="45.97973" lon="4.8458">
        <ele>275</ele>
        <time>2016-11-19T09:49:56Z</time>
      </trkpt>
      <trkpt lat="45.97974" lon="4.84587">
        <ele>274</ele>
        <time>2016-11-19T09:49:57Z</time>
      </trkpt>
      <trkpt lat="45.97975" lon="4.84594">
        <ele>274</ele>
        <time>2016-11-19T09:49:58Z</time>
      </trkpt>
      <trkpt lat="45.97975" lon="4.846">
        <ele>275</ele>
        <time>2016-11-19T09:49:59Z</time>
      </trkpt>
      <trkpt lat="45.97976" lon="4.84607">
        <ele>275</ele>
        <time>2016-11-19T09:50:00Z</time>
      </trkpt>
      <trkpt lat="45.97978" lon="4.84614">
        <ele>275</ele>
        <time>2016-11-19T09:50:01Z</time>
      </trkpt>
      <trkpt lat="45.97979" lon="4.84621">
        <ele>275</ele>
        <time>2016-11-19T09:50:02Z</time>
      </trkpt>
      <trkpt lat="45.9798" lon="4.84627">
        <ele>275</ele>
        <time>2016-11-19T09:50:03Z</time>
      </trkpt>
      <trkpt lat="45.97981" lon="4.84634">
        <ele>275</ele>
        <time>2016-11-19T09:50:04Z</time>
      </trkpt>
      <trkpt lat="45.97982" lon="4.84641">
        <ele>275</ele>
        <time>2016-11-19T09:50:05Z</time>
      </trkpt>
      <trkpt lat="45.97983" lon="4.84648">
        <ele>274</ele>
        <time>2016-11-19T09:50:06Z</time>
      </trkpt>
      <trkpt lat="45.97985" lon="4.84655">
        <ele>274</ele>
        <time>2016-11-19T09:50:07Z</time>
      </trkpt>
      <trkpt lat="45.97986" lon="4.84663">
        <ele>274</ele>
        <time>2016-11-19T09:50:08Z</time>
      </trkpt>
      <trkpt lat="45.97987" lon="4.84671">
        <ele>275</ele>
        <time>2016-11-19T09:50:09Z</time>
      </trkpt>
      <trkpt lat="45.97988" lon="4.84678">
        <ele>275</ele>
        <time>2016-11-19T09:50:10Z</time>
      </trkpt>
      <trkpt lat="45.97989" lon="4.84687">
        <ele>275</ele>
        <time>2016-11-19T09:50:11Z</time>
      </trkpt>
      <trkpt lat="45.9799" lon="4.84695">
        <ele>275</ele>
        <time>2016-11-19T09:50:12Z</time>
      </trkpt>
      <trkpt lat="45.97991" lon="4.84703">
        <ele>275</ele>
        <time>2016-11-19T09:50:13Z</time>
      </trkpt>
      <trkpt lat="45.97991" lon="4.84711">
        <ele>275</ele>
        <time>2016-11-19T09:50:14Z</time>
      </trkpt>
      <trkpt lat="45.97992" lon="4.84719">
        <ele>275</ele>
        <time>2016-11-19T09:50:15Z</time>
      </trkpt>
      <trkpt lat="45.97992" lon="4.84726">
        <ele>275</ele>
        <time>2016-11-19T09:50:16Z</time>
      </trkpt>
      <trkpt lat="45.97993" lon="4.84733">
        <ele>275</ele>
        <time>2016-11-19T09:50:17Z</time>
      </trkpt>
      <trkpt lat="45.97993" lon="4.8474">
        <ele>275</ele>
        <time>2016-11-19T09:50:18Z</time>
      </trkpt>
      <trkpt lat="45.97994" lon="4.84747">
        <ele>275</ele>
        <time>2016-11-19T09:50:19Z</time>
      </trkpt>
      <trkpt lat="45.97995" lon="4.84754">
        <ele>275</ele>
        <time>2016-11-19T09:50:20Z</time>
      </trkpt>
      <trkpt lat="45.97995" lon="4.84761">
        <ele>275</ele>
        <time>2016-11-19T09:50:21Z</time>
      </trkpt>
      <trkpt lat="45.97996" lon="4.84768">
        <ele>275</ele>
        <time>2016-11-19T09:50:22Z</time>
      </trkpt>
      <trkpt lat="45.97996" lon="4.84775">
        <ele>274</ele>
        <time>2016-11-19T09:50:23Z</time>
      </trkpt>
      <trkpt lat="45.97997" lon="4.84782">
        <ele>274</ele>
        <time>2016-11-19T09:50:24Z</time>
      </trkpt>
      <trkpt lat="45.97998" lon="4.84789">
        <ele>274</ele>
        <time>2016-11-19T09:50:25Z</time>
      </trkpt>
      <trkpt lat="45.97998" lon="4.84796">
        <ele>274</ele>
        <time>2016-11-19T09:50:26Z</time>
      </trkpt>
      <trkpt lat="45.97998" lon="4.84803">
        <ele>274</ele>
        <time>2016-11-19T09:50:27Z</time>
      </trkpt>
      <trkpt lat="45.97999" lon="4.8481">
        <ele>273</ele>
        <time>2016-11-19T09:50:28Z</time>
      </trkpt>
      <trkpt lat="45.98" lon="4.84818">
        <ele>273</ele>
        <time>2016-11-19T09:50:29Z</time>
      </trkpt>
      <trkpt lat="45.98" lon="4.84824">
        <ele>273</ele>
        <time>2016-11-19T09:50:30Z</time>
      </trkpt>
      <trkpt lat="45.98001" lon="4.84832">
        <ele>272</ele>
        <time>2016-11-19T09:50:31Z</time>
      </trkpt>
      <trkpt lat="45.98002" lon="4.84839">
        <ele>272</ele>
        <time>2016-11-19T09:50:32Z</time>
      </trkpt>
      <trkpt lat="45.98002" lon="4.84847">
        <ele>272</ele>
        <time>2016-11-19T09:50:33Z</time>
      </trkpt>
      <trkpt lat="45.98003" lon="4.84855">
        <ele>272</ele>
        <time>2016-11-19T09:50:34Z</time>
      </trkpt>
      <trkpt lat="45.98003" lon="4.84862">
        <ele>272</ele>
        <time>2016-11-19T09:50:35Z</time>
      </trkpt>
      <trkpt lat="45.98004" lon="4.8487">
        <ele>272</ele>
        <time>2016-11-19T09:50:36Z</time>
      </trkpt>
      <trkpt lat="45.98004" lon="4.84878">
        <ele>272</ele>
        <time>2016-11-19T09:50:37Z</time>
      </trkpt>
      <trkpt lat="45.98005" lon="4.84886">
        <ele>272</ele>
        <time>2016-11-19T09:50:38Z</time>
      </trkpt>
      <trkpt lat="45.98006" lon="4.84894">
        <ele>272</ele>
        <time>2016-11-19T09:50:39Z</time>
      </trkpt>
      <trkpt lat="45.98006" lon="4.84901">
        <ele>272</ele>
        <time>2016-11-19T09:50:40Z</time>
      </trkpt>
      <trkpt lat="45.98007" lon="4.84909">
        <ele>272</ele>
        <time>2016-11-19T09:50:41Z</time>
      </trkpt>
      <trkpt lat="45.98008" lon="4.84916">
        <ele>272</ele>
        <time>2016-11-19T09:50:42Z</time>
      </trkpt>
      <trkpt lat="45.98009" lon="4.84924">
        <ele>272</ele>
        <time>2016-11-19T09:50:43Z</time>
      </trkpt>
      <trkpt lat="45.9801" lon="4.84933">
        <ele>272</ele>
        <time>2016-11-19T09:50:44Z</time>
      </trkpt>
      <trkpt lat="45.98011" lon="4.84942">
        <ele>272</ele>
        <time>2016-11-19T09:50:45Z</time>
      </trkpt>
      <trkpt lat="45.98012" lon="4.8495">
        <ele>272</ele>
        <time>2016-11-19T09:50:46Z</time>
      </trkpt>
      <trkpt lat="45.98013" lon="4.84958">
        <ele>272</ele>
        <time>2016-11-19T09:50:47Z</time>
      </trkpt>
      <trkpt lat="45.98014" lon="4.84967">
        <ele>272</ele>
        <time>2016-11-19T09:50:48Z</time>
      </trkpt>
      <trkpt lat="45.98015" lon="4.84975">
        <ele>272</ele>
        <time>2016-11-19T09:50:49Z</time>
      </trkpt>
      <trkpt lat="45.98016" lon="4.84983">
        <ele>272</ele>
        <time>2016-11-19T09:50:50Z</time>
      </trkpt>
      <trkpt lat="45.98016" lon="4.84991">
        <ele>272</ele>
        <time>2016-11-19T09:50:51Z</time>
      </trkpt>
      <trkpt lat="45.98017" lon="4.85">
        <ele>272</ele>
        <time>2016-11-19T09:50:52Z</time>
      </trkpt>
      <trkpt lat="45.98018" lon="4.85008">
        <ele>272</ele>
        <time>2016-11-19T09:50:53Z</time>
      </trkpt>
      <trkpt lat="45.98018" lon="4.85016">
        <ele>273</ele>
        <time>2016-11-19T09:50:54Z</time>
      </trkpt>
      <trkpt lat="45.98019" lon="4.85024">
        <ele>273</ele>
        <time>2016-11-19T09:50:55Z</time>
      </trkpt>
      <trkpt lat="45.9802" lon="4.85033">
        <ele>273</ele>
        <time>2016-11-19T09:50:56Z</time>
      </trkpt>
      <trkpt lat="45.9802" lon="4.85041">
        <ele>273</ele>
        <time>2016-11-19T09:50:57Z</time>
      </trkpt>
      <trkpt lat="45.9802" lon="4.8505">
        <ele>273</ele>
        <time>2016-11-19T09:50:58Z</time>
      </trkpt>
      <trkpt lat="45.9802" lon="4.85059">
        <ele>273</ele>
        <time>2016-11-19T09:50:59Z</time>
      </trkpt>
      <trkpt lat="45.9802" lon="4.85068">
        <ele>273</ele>
        <time>2016-11-19T09:51:00Z</time>
      </trkpt>
      <trkpt lat="45.9802" lon="4.85076">
        <ele>273</ele>
        <time>2016-11-19T09:51:01Z</time>
      </trkpt>
      <trkpt lat="45.98021" lon="4.85085">
        <ele>274</ele>
        <time>2016-11-19T09:51:02Z</time>
      </trkpt>
      <trkpt lat="45.98022" lon="4.85093">
        <ele>274</ele>
        <time>2016-11-19T09:51:03Z</time>
      </trkpt>
      <trkpt lat="45.98023" lon="4.85101">
        <ele>274</ele>
        <time>2016-11-19T09:51:04Z</time>
      </trkpt>
      <trkpt lat="45.98024" lon="4.85108">
        <ele>274</ele>
        <time>2016-11-19T09:51:05Z</time>
      </trkpt>
      <trkpt lat="45.98026" lon="4.85115">
        <ele>274</ele>
        <time>2016-11-19T09:51:06Z</time>
      </trkpt>
      <trkpt lat="45.98027" lon="4.85122">
        <ele>274</ele>
        <time>2016-11-19T09:51:07Z</time>
      </trkpt>
      <trkpt lat="45.98029" lon="4.85129">
        <ele>274</ele>
        <time>2016-11-19T09:51:08Z</time>
      </trkpt>
      <trkpt lat="45.98031" lon="4.85135">
        <ele>275</ele>
        <time>2016-11-19T09:51:09Z</time>
      </trkpt>
      <trkpt lat="45.98033" lon="4.85142">
        <ele>275</ele>
        <time>2016-11-19T09:51:10Z</time>
      </trkpt>
      <trkpt lat="45.98035" lon="4.85148">
        <ele>275</ele>
        <time>2016-11-19T09:51:11Z</time>
      </trkpt>
      <trkpt lat="45.98037" lon="4.85154">
        <ele>275</ele>
        <time>2016-11-19T09:51:12Z</time>
      </trkpt>
      <trkpt lat="45.98039" lon="4.8516">
        <ele>275</ele>
        <time>2016-11-19T09:51:13Z</time>
      </trkpt>
      <trkpt lat="45.98041" lon="4.85166">
        <ele>275</ele>
        <time>2016-11-19T09:51:14Z</time>
      </trkpt>
      <trkpt lat="45.98042" lon="4.85172">
        <ele>275</ele>
        <time>2016-11-19T09:51:15Z</time>
      </trkpt>
      <trkpt lat="45.98044" lon="4.85179">
        <ele>276</ele>
        <time>2016-11-19T09:51:16Z</time>
      </trkpt>
      <trkpt lat="45.98046" lon="4.85185">
        <ele>276</ele>
        <time>2016-11-19T09:51:17Z</time>
      </trkpt>
      <trkpt lat="45.98048" lon="4.85191">
        <ele>276</ele>
        <time>2016-11-19T09:51:18Z</time>
      </trkpt>
      <trkpt lat="45.98051" lon="4.85202">
        <ele>276</ele>
        <time>2016-11-19T09:51:20Z</time>
      </trkpt>
      <trkpt lat="45.98052" lon="4.85207">
        <ele>276</ele>
        <time>2016-11-19T09:51:21Z</time>
      </trkpt>
      <trkpt lat="45.98055" lon="4.85212">
        <ele>276</ele>
        <time>2016-11-19T09:51:26Z</time>
      </trkpt>
      <trkpt lat="45.98055" lon="4.85213">
        <ele>276</ele>
        <time>2016-11-19T09:51:27Z</time>
      </trkpt>
      <trkpt lat="45.98055" lon="4.85214">
        <ele>276</ele>
        <time>2016-11-19T09:51:28Z</time>
      </trkpt>
      <trkpt lat="45.98056" lon="4.85216">
        <ele>276</ele>
        <time>2016-11-19T09:51:29Z</time>
      </trkpt>
      <trkpt lat="45.98061" lon="4.85226">
        <ele>276</ele>
        <time>2016-11-19T09:51:34Z</time>
      </trkpt>
      <trkpt lat="45.98062" lon="4.85227">
        <ele>276</ele>
        <time>2016-11-19T09:51:35Z</time>
      </trkpt>
      <trkpt lat="45.98065" lon="4.85236">
        <ele>276</ele>
        <time>2016-11-19T09:51:38Z</time>
      </trkpt>
      <trkpt lat="45.98066" lon="4.8524">
        <ele>276</ele>
        <time>2016-11-19T09:51:39Z</time>
      </trkpt>
      <trkpt lat="45.98071" lon="4.8525">
        <ele>276</ele>
        <time>2016-11-19T09:51:41Z</time>
      </trkpt>
      <trkpt lat="45.98074" lon="4.85255">
        <ele>276</ele>
        <time>2016-11-19T09:51:42Z</time>
      </trkpt>
      <trkpt lat="45.98077" lon="4.85261">
        <ele>276</ele>
        <time>2016-11-19T09:51:43Z</time>
      </trkpt>
      <trkpt lat="45.9808" lon="4.85267">
        <ele>276</ele>
        <time>2016-11-19T09:51:44Z</time>
      </trkpt>
      <trkpt lat="45.98084" lon="4.85274">
        <ele>276</ele>
        <time>2016-11-19T09:51:45Z</time>
      </trkpt>
      <trkpt lat="45.98087" lon="4.85281">
        <ele>276</ele>
        <time>2016-11-19T09:51:46Z</time>
      </trkpt>
      <trkpt lat="45.98091" lon="4.85288">
        <ele>276</ele>
        <time>2016-11-19T09:51:47Z</time>
      </trkpt>
      <trkpt lat="45.98094" lon="4.85296">
        <ele>276</ele>
        <time>2016-11-19T09:51:48Z</time>
      </trkpt>
      <trkpt lat="45.98098" lon="4.85303">
        <ele>276</ele>
        <time>2016-11-19T09:51:49Z</time>
      </trkpt>
      <trkpt lat="45.98101" lon="4.85311">
        <ele>276</ele>
        <time>2016-11-19T09:51:50Z</time>
      </trkpt>
      <trkpt lat="45.98104" lon="4.85318">
        <ele>276</ele>
        <time>2016-11-19T09:51:51Z</time>
      </trkpt>
      <trkpt lat="45.98107" lon="4.85325">
        <ele>276</ele>
        <time>2016-11-19T09:51:52Z</time>
      </trkpt>
      <trkpt lat="45.9811" lon="4.85332">
        <ele>276</ele>
        <time>2016-11-19T09:51:53Z</time>
      </trkpt>
      <trkpt lat="45.98112" lon="4.8534">
        <ele>276</ele>
        <time>2016-11-19T09:51:54Z</time>
      </trkpt>
      <trkpt lat="45.98115" lon="4.85347">
        <ele>276</ele>
        <time>2016-11-19T09:51:55Z</time>
      </trkpt>
      <trkpt lat="45.98118" lon="4.85355">
        <ele>276</ele>
        <time>2016-11-19T09:51:56Z</time>
      </trkpt>
      <trkpt lat="45.98121" lon="4.85362">
        <ele>276</ele>
        <time>2016-11-19T09:51:57Z</time>
      </trkpt>
      <trkpt lat="45.98124" lon="4.85369">
        <ele>276</ele>
        <time>2016-11-19T09:51:58Z</time>
      </trkpt>
      <trkpt lat="45.98127" lon="4.85376">
        <ele>276</ele>
        <time>2016-11-19T09:51:59Z</time>
      </trkpt>
      <trkpt lat="45.9813" lon="4.85384">
        <ele>276</ele>
        <time>2016-11-19T09:52:00Z</time>
      </trkpt>
      <trkpt lat="45.98133" lon="4.85392">
        <ele>276</ele>
        <time>2016-11-19T09:52:01Z</time>
      </trkpt>
      <trkpt lat="45.98136" lon="4.85401">
        <ele>276</ele>
        <time>2016-11-19T09:52:02Z</time>
      </trkpt>
      <trkpt lat="45.98139" lon="4.85409">
        <ele>276</ele>
        <time>2016-11-19T09:52:03Z</time>
      </trkpt>
      <trkpt lat="45.98143" lon="4.85417">
        <ele>276</ele>
        <time>2016-11-19T09:52:04Z</time>
      </trkpt>
      <trkpt lat="45.98146" lon="4.85425">
        <ele>276</ele>
        <time>2016-11-19T09:52:05Z</time>
      </trkpt>
      <trkpt lat="45.98149" lon="4.85434">
        <ele>276</ele>
        <time>2016-11-19T09:52:06Z</time>
      </trkpt>
      <trkpt lat="45.98153" lon="4.85442">
        <ele>276</ele>
        <time>2016-11-19T09:52:07Z</time>
      </trkpt>
      <trkpt lat="45.98156" lon="4.8545">
        <ele>276</ele>
        <time>2016-11-19T09:52:08Z</time>
      </trkpt>
      <trkpt lat="45.9816" lon="4.85458">
        <ele>276</ele>
        <time>2016-11-19T09:52:09Z</time>
      </trkpt>
      <trkpt lat="45.98164" lon="4.85466">
        <ele>275</ele>
        <time>2016-11-19T09:52:10Z</time>
      </trkpt>
      <trkpt lat="45.98167" lon="4.85473">
        <ele>275</ele>
        <time>2016-11-19T09:52:11Z</time>
      </trkpt>
      <trkpt lat="45.9817" lon="4.85481">
        <ele>275</ele>
        <time>2016-11-19T09:52:12Z</time>
      </trkpt>
      <trkpt lat="45.98173" lon="4.85489">
        <ele>275</ele>
        <time>2016-11-19T09:52:13Z</time>
      </trkpt>
      <trkpt lat="45.98176" lon="4.85496">
        <ele>275</ele>
        <time>2016-11-19T09:52:14Z</time>
      </trkpt>
      <trkpt lat="45.98179" lon="4.85503">
        <ele>275</ele>
        <time>2016-11-19T09:52:15Z</time>
      </trkpt>
      <trkpt lat="45.98181" lon="4.8551">
        <ele>275</ele>
        <time>2016-11-19T09:52:16Z</time>
      </trkpt>
      <trkpt lat="45.98184" lon="4.85517">
        <ele>275</ele>
        <time>2016-11-19T09:52:17Z</time>
      </trkpt>
      <trkpt lat="45.98187" lon="4.85523">
        <ele>276</ele>
        <time>2016-11-19T09:52:18Z</time>
      </trkpt>
      <trkpt lat="45.9819" lon="4.85529">
        <ele>276</ele>
        <time>2016-11-19T09:52:19Z</time>
      </trkpt>
      <trkpt lat="45.98193" lon="4.85535">
        <ele>276</ele>
        <time>2016-11-19T09:52:20Z</time>
      </trkpt>
      <trkpt lat="45.98195" lon="4.85542">
        <ele>276</ele>
        <time>2016-11-19T09:52:21Z</time>
      </trkpt>
      <trkpt lat="45.98198" lon="4.85548">
        <ele>276</ele>
        <time>2016-11-19T09:52:22Z</time>
      </trkpt>
      <trkpt lat="45.982" lon="4.85554">
        <ele>276</ele>
        <time>2016-11-19T09:52:23Z</time>
      </trkpt>
      <trkpt lat="45.98203" lon="4.85561">
        <ele>276</ele>
        <time>2016-11-19T09:52:24Z</time>
      </trkpt>
      <trkpt lat="45.98205" lon="4.85568">
        <ele>276</ele>
        <time>2016-11-19T09:52:25Z</time>
      </trkpt>
      <trkpt lat="45.98208" lon="4.85576">
        <ele>276</ele>
        <time>2016-11-19T09:52:26Z</time>
      </trkpt>
      <trkpt lat="45.98211" lon="4.85583">
        <ele>276</ele>
        <time>2016-11-19T09:52:27Z</time>
      </trkpt>
      <trkpt lat="45.98215" lon="4.8559">
        <ele>277</ele>
        <time>2016-11-19T09:52:28Z</time>
      </trkpt>
      <trkpt lat="45.98218" lon="4.85598">
        <ele>277</ele>
        <time>2016-11-19T09:52:29Z</time>
      </trkpt>
      <trkpt lat="45.98221" lon="4.85604">
        <ele>277</ele>
        <time>2016-11-19T09:52:30Z</time>
      </trkpt>
      <trkpt lat="45.98224" lon="4.85612">
        <ele>277</ele>
        <time>2016-11-19T09:52:31Z</time>
      </trkpt>
      <trkpt lat="45.98227" lon="4.85618">
        <ele>277</ele>
        <time>2016-11-19T09:52:32Z</time>
      </trkpt>
      <trkpt lat="45.9823" lon="4.85625">
        <ele>277</ele>
        <time>2016-11-19T09:52:33Z</time>
      </trkpt>
      <trkpt lat="45.98233" lon="4.85632">
        <ele>277</ele>
        <time>2016-11-19T09:52:34Z</time>
      </trkpt>
      <trkpt lat="45.98235" lon="4.85638">
        <ele>277</ele>
        <time>2016-11-19T09:52:35Z</time>
      </trkpt>
      <trkpt lat="45.98238" lon="4.85645">
        <ele>277</ele>
        <time>2016-11-19T09:52:36Z</time>
      </trkpt>
      <trkpt lat="45.98241" lon="4.85652">
        <ele>276</ele>
        <time>2016-11-19T09:52:37Z</time>
      </trkpt>
      <trkpt lat="45.98244" lon="4.85659">
        <ele>276</ele>
        <time>2016-11-19T09:52:38Z</time>
      </trkpt>
      <trkpt lat="45.98247" lon="4.85666">
        <ele>276</ele>
        <time>2016-11-19T09:52:39Z</time>
      </trkpt>
      <trkpt lat="45.9825" lon="4.85673">
        <ele>276</ele>
        <time>2016-11-19T09:52:40Z</time>
      </trkpt>
      <trkpt lat="45.98252" lon="4.8568">
        <ele>275</ele>
        <time>2016-11-19T09:52:41Z</time>
      </trkpt>
      <trkpt lat="45.98255" lon="4.85687">
        <ele>275</ele>
        <time>2016-11-19T09:52:42Z</time>
      </trkpt>
      <trkpt lat="45.98257" lon="4.85694">
        <ele>275</ele>
        <time>2016-11-19T09:52:43Z</time>
      </trkpt>
      <trkpt lat="45.9826" lon="4.85701">
        <ele>275</ele>
        <time>2016-11-19T09:52:44Z</time>
      </trkpt>
      <trkpt lat="45.98263" lon="4.85708">
        <ele>275</ele>
        <time>2016-11-19T09:52:45Z</time>
      </trkpt>
      <trkpt lat="45.98266" lon="4.85717">
        <ele>275</ele>
        <time>2016-11-19T09:52:46Z</time>
      </trkpt>
      <trkpt lat="45.98268" lon="4.85724">
        <ele>275</ele>
        <time>2016-11-19T09:52:47Z</time>
      </trkpt>
      <trkpt lat="45.98271" lon="4.85732">
        <ele>275</ele>
        <time>2016-11-19T09:52:48Z</time>
      </trkpt>
      <trkpt lat="45.98274" lon="4.85739">
        <ele>274</ele>
        <time>2016-11-19T09:52:49Z</time>
      </trkpt>
      <trkpt lat="45.98277" lon="4.85746">
        <ele>274</ele>
        <time>2016-11-19T09:52:50Z</time>
      </trkpt>
      <trkpt lat="45.9828" lon="4.85754">
        <ele>275</ele>
        <time>2016-11-19T09:52:51Z</time>
      </trkpt>
      <trkpt lat="45.98283" lon="4.85761">
        <ele>275</ele>
        <time>2016-11-19T09:52:52Z</time>
      </trkpt>
      <trkpt lat="45.98286" lon="4.85769">
        <ele>275</ele>
        <time>2016-11-19T09:52:53Z</time>
      </trkpt>
      <trkpt lat="45.98289" lon="4.85776">
        <ele>275</ele>
        <time>2016-11-19T09:52:54Z</time>
      </trkpt>
      <trkpt lat="45.98293" lon="4.85785">
        <ele>275</ele>
        <time>2016-11-19T09:52:55Z</time>
      </trkpt>
      <trkpt lat="45.98296" lon="4.85793">
        <ele>275</ele>
        <time>2016-11-19T09:52:56Z</time>
      </trkpt>
      <trkpt lat="45.98299" lon="4.85801">
        <ele>275</ele>
        <time>2016-11-19T09:52:57Z</time>
      </trkpt>
      <trkpt lat="45.98302" lon="4.8581">
        <ele>275</ele>
        <time>2016-11-19T09:52:58Z</time>
      </trkpt>
      <trkpt lat="45.98305" lon="4.85818">
        <ele>275</ele>
        <time>2016-11-19T09:52:59Z</time>
      </trkpt>
      <trkpt lat="45.98308" lon="4.85825">
        <ele>275</ele>
        <time>2016-11-19T09:53:00Z</time>
      </trkpt>
      <trkpt lat="45.98314" lon="4.85838">
        <ele>276</ele>
        <time>2016-11-19T09:53:01Z</time>
      </trkpt>
      <trkpt lat="45.98319" lon="4.85848">
        <ele>276</ele>
        <time>2016-11-19T09:53:02Z</time>
      </trkpt>
      <trkpt lat="45.98321" lon="4.85855">
        <ele>276</ele>
        <time>2016-11-19T09:53:03Z</time>
      </trkpt>
      <trkpt lat="45.98324" lon="4.85862">
        <ele>276</ele>
        <time>2016-11-19T09:53:04Z</time>
      </trkpt>
      <trkpt lat="45.98326" lon="4.85868">
        <ele>276</ele>
        <time>2016-11-19T09:53:05Z</time>
      </trkpt>
      <trkpt lat="45.98328" lon="4.85876">
        <ele>276</ele>
        <time>2016-11-19T09:53:06Z</time>
      </trkpt>
      <trkpt lat="45.9833" lon="4.85882">
        <ele>276</ele>
        <time>2016-11-19T09:53:07Z</time>
      </trkpt>
      <trkpt lat="45.98332" lon="4.85888">
        <ele>276</ele>
        <time>2016-11-19T09:53:08Z</time>
      </trkpt>
      <trkpt lat="45.98335" lon="4.85894">
        <ele>276</ele>
        <time>2016-11-19T09:53:09Z</time>
      </trkpt>
      <trkpt lat="45.98338" lon="4.859">
        <ele>276</ele>
        <time>2016-11-19T09:53:10Z</time>
      </trkpt>
      <trkpt lat="45.9834" lon="4.85907">
        <ele>276</ele>
        <time>2016-11-19T09:53:11Z</time>
      </trkpt>
      <trkpt lat="45.98343" lon="4.85913">
        <ele>276</ele>
        <time>2016-11-19T09:53:12Z</time>
      </trkpt>
      <trkpt lat="45.98345" lon="4.85919">
        <ele>276</ele>
        <time>2016-11-19T09:53:13Z</time>
      </trkpt>
      <trkpt lat="45.98348" lon="4.85926">
        <ele>276</ele>
        <time>2016-11-19T09:53:14Z</time>
      </trkpt>
      <trkpt lat="45.98351" lon="4.85932">
        <ele>276</ele>
        <time>2016-11-19T09:53:15Z</time>
      </trkpt>
      <trkpt lat="45.98353" lon="4.85939">
        <ele>276</ele>
        <time>2016-11-19T09:53:16Z</time>
      </trkpt>
      <trkpt lat="45.98356" lon="4.85945">
        <ele>276</ele>
        <time>2016-11-19T09:53:17Z</time>
      </trkpt>
      <trkpt lat="45.98358" lon="4.85952">
        <ele>276</ele>
        <time>2016-11-19T09:53:18Z</time>
      </trkpt>
      <trkpt lat="45.9836" lon="4.85958">
        <ele>276</ele>
        <time>2016-11-19T09:53:19Z</time>
      </trkpt>
      <trkpt lat="45.98363" lon="4.85963">
        <ele>276</ele>
        <time>2016-11-19T09:53:20Z</time>
      </trkpt>
      <trkpt lat="45.98365" lon="4.85969">
        <ele>276</ele>
        <time>2016-11-19T09:53:21Z</time>
      </trkpt>
      <trkpt lat="45.98368" lon="4.85976">
        <ele>276</ele>
        <time>2016-11-19T09:53:22Z</time>
      </trkpt>
      <trkpt lat="45.9837" lon="4.85982">
        <ele>276</ele>
        <time>2016-11-19T09:53:23Z</time>
      </trkpt>
      <trkpt lat="45.98373" lon="4.85989">
        <ele>276</ele>
        <time>2016-11-19T09:53:24Z</time>
      </trkpt>
      <trkpt lat="45.98376" lon="4.85995">
        <ele>277</ele>
        <time>2016-11-19T09:53:25Z</time>
      </trkpt>
      <trkpt lat="45.98379" lon="4.86002">
        <ele>277</ele>
        <time>2016-11-19T09:53:26Z</time>
      </trkpt>
      <trkpt lat="45.98382" lon="4.86009">
        <ele>277</ele>
        <time>2016-11-19T09:53:27Z</time>
      </trkpt>
      <trkpt lat="45.98385" lon="4.86016">
        <ele>277</ele>
        <time>2016-11-19T09:53:28Z</time>
      </trkpt>
      <trkpt lat="45.98388" lon="4.86024">
        <ele>277</ele>
        <time>2016-11-19T09:53:29Z</time>
      </trkpt>
      <trkpt lat="45.9839" lon="4.86031">
        <ele>277</ele>
        <time>2016-11-19T09:53:30Z</time>
      </trkpt>
      <trkpt lat="45.98392" lon="4.86039">
        <ele>277</ele>
        <time>2016-11-19T09:53:31Z</time>
      </trkpt>
      <trkpt lat="45.98395" lon="4.86047">
        <ele>277</ele>
        <time>2016-11-19T09:53:32Z</time>
      </trkpt>
      <trkpt lat="45.98396" lon="4.86055">
        <ele>277</ele>
        <time>2016-11-19T09:53:33Z</time>
      </trkpt>
      <trkpt lat="45.98398" lon="4.86063">
        <ele>277</ele>
        <time>2016-11-19T09:53:34Z</time>
      </trkpt>
      <trkpt lat="45.984" lon="4.8607">
        <ele>277</ele>
        <time>2016-11-19T09:53:35Z</time>
      </trkpt>
      <trkpt lat="45.98402" lon="4.86077">
        <ele>277</ele>
        <time>2016-11-19T09:53:36Z</time>
      </trkpt>
      <trkpt lat="45.98404" lon="4.86084">
        <ele>277</ele>
        <time>2016-11-19T09:53:37Z</time>
      </trkpt>
      <trkpt lat="45.98405" lon="4.86091">
        <ele>277</ele>
        <time>2016-11-19T09:53:38Z</time>
      </trkpt>
      <trkpt lat="45.98406" lon="4.86098">
        <ele>277</ele>
        <time>2016-11-19T09:53:39Z</time>
      </trkpt>
      <trkpt lat="45.98408" lon="4.86104">
        <ele>277</ele>
        <time>2016-11-19T09:53:40Z</time>
      </trkpt>
      <trkpt lat="45.98409" lon="4.86111">
        <ele>277</ele>
        <time>2016-11-19T09:53:41Z</time>
      </trkpt>
      <trkpt lat="45.98412" lon="4.86123">
        <ele>277</ele>
        <time>2016-11-19T09:53:43Z</time>
      </trkpt>
      <trkpt lat="45.98413" lon="4.86129">
        <ele>276</ele>
        <time>2016-11-19T09:53:44Z</time>
      </trkpt>
      <trkpt lat="45.98414" lon="4.86141">
        <ele>276</ele>
        <time>2016-11-19T09:53:46Z</time>
      </trkpt>
      <trkpt lat="45.98415" lon="4.86148">
        <ele>276</ele>
        <time>2016-11-19T09:53:47Z</time>
      </trkpt>
      <trkpt lat="45.98416" lon="4.8616">
        <ele>276</ele>
        <time>2016-11-19T09:53:49Z</time>
      </trkpt>
      <trkpt lat="45.98417" lon="4.86166">
        <ele>276</ele>
        <time>2016-11-19T09:53:50Z</time>
      </trkpt>
      <trkpt lat="45.98419" lon="4.86178">
        <ele>276</ele>
        <time>2016-11-19T09:53:52Z</time>
      </trkpt>
      <trkpt lat="45.9842" lon="4.86183">
        <ele>275</ele>
        <time>2016-11-19T09:53:53Z</time>
      </trkpt>
      <trkpt lat="45.98422" lon="4.86194">
        <ele>275</ele>
        <time>2016-11-19T09:53:55Z</time>
      </trkpt>
      <trkpt lat="45.98423" lon="4.862">
        <ele>275</ele>
        <time>2016-11-19T09:53:56Z</time>
      </trkpt>
      <trkpt lat="45.98426" lon="4.86212">
        <ele>275</ele>
        <time>2016-11-19T09:53:58Z</time>
      </trkpt>
      <trkpt lat="45.98427" lon="4.86218">
        <ele>275</ele>
        <time>2016-11-19T09:53:59Z</time>
      </trkpt>
      <trkpt lat="45.98427" lon="4.86225">
        <ele>275</ele>
        <time>2016-11-19T09:54:00Z</time>
      </trkpt>
      <trkpt lat="45.98428" lon="4.86232">
        <ele>275</ele>
        <time>2016-11-19T09:54:01Z</time>
      </trkpt>
      <trkpt lat="45.98429" lon="4.8624">
        <ele>275</ele>
        <time>2016-11-19T09:54:02Z</time>
      </trkpt>
      <trkpt lat="45.98431" lon="4.86248">
        <ele>275</ele>
        <time>2016-11-19T09:54:03Z</time>
      </trkpt>
      <trkpt lat="45.98432" lon="4.86256">
        <ele>275</ele>
        <time>2016-11-19T09:54:04Z</time>
      </trkpt>
      <trkpt lat="45.98434" lon="4.86265">
        <ele>275</ele>
        <time>2016-11-19T09:54:05Z</time>
      </trkpt>
      <trkpt lat="45.98436" lon="4.86275">
        <ele>276</ele>
        <time>2016-11-19T09:54:06Z</time>
      </trkpt>
      <trkpt lat="45.98438" lon="4.86286">
        <ele>276</ele>
        <time>2016-11-19T09:54:07Z</time>
      </trkpt>
      <trkpt lat="45.98439" lon="4.86296">
        <ele>276</ele>
        <time>2016-11-19T09:54:08Z</time>
      </trkpt>
      <trkpt lat="45.98441" lon="4.86307">
        <ele>276</ele>
        <time>2016-11-19T09:54:09Z</time>
      </trkpt>
      <trkpt lat="45.98443" lon="4.86317">
        <ele>276</ele>
        <time>2016-11-19T09:54:10Z</time>
      </trkpt>
      <trkpt lat="45.98445" lon="4.86328">
        <ele>276</ele>
        <time>2016-11-19T09:54:11Z</time>
      </trkpt>
      <trkpt lat="45.98448" lon="4.86338">
        <ele>277</ele>
        <time>2016-11-19T09:54:12Z</time>
      </trkpt>
      <trkpt lat="45.98451" lon="4.86348">
        <ele>277</ele>
        <time>2016-11-19T09:54:13Z</time>
      </trkpt>
      <trkpt lat="45.98454" lon="4.86358">
        <ele>277</ele>
        <time>2016-11-19T09:54:14Z</time>
      </trkpt>
      <trkpt lat="45.98457" lon="4.86368">
        <ele>277</ele>
        <time>2016-11-19T09:54:15Z</time>
      </trkpt>
      <trkpt lat="45.9846" lon="4.86378">
        <ele>277</ele>
        <time>2016-11-19T09:54:16Z</time>
      </trkpt>
      <trkpt lat="45.98464" lon="4.86387">
        <ele>277</ele>
        <time>2016-11-19T09:54:17Z</time>
      </trkpt>
      <trkpt lat="45.98468" lon="4.86396">
        <ele>277</ele>
        <time>2016-11-19T09:54:18Z</time>
      </trkpt>
      <trkpt lat="45.98472" lon="4.86405">
        <ele>277</ele>
        <time>2016-11-19T09:54:19Z</time>
      </trkpt>
      <trkpt lat="45.98476" lon="4.86414">
        <ele>277</ele>
        <time>2016-11-19T09:54:20Z</time>
      </trkpt>
      <trkpt lat="45.9848" lon="4.86423">
        <ele>278</ele>
        <time>2016-11-19T09:54:21Z</time>
      </trkpt>
      <trkpt lat="45.98484" lon="4.86431">
        <ele>278</ele>
        <time>2016-11-19T09:54:22Z</time>
      </trkpt>
      <trkpt lat="45.98488" lon="4.8644">
        <ele>278</ele>
        <time>2016-11-19T09:54:23Z</time>
      </trkpt>
      <trkpt lat="45.98492" lon="4.86449">
        <ele>278</ele>
        <time>2016-11-19T09:54:24Z</time>
      </trkpt>
      <trkpt lat="45.98496" lon="4.86457">
        <ele>278</ele>
        <time>2016-11-19T09:54:25Z</time>
      </trkpt>
      <trkpt lat="45.985" lon="4.86466">
        <ele>279</ele>
        <time>2016-11-19T09:54:26Z</time>
      </trkpt>
      <trkpt lat="45.98504" lon="4.86475">
        <ele>278</ele>
        <time>2016-11-19T09:54:27Z</time>
      </trkpt>
      <trkpt lat="45.98508" lon="4.86485">
        <ele>279</ele>
        <time>2016-11-19T09:54:28Z</time>
      </trkpt>
      <trkpt lat="45.98512" lon="4.86494">
        <ele>279</ele>
        <time>2016-11-19T09:54:29Z</time>
      </trkpt>
      <trkpt lat="45.98516" lon="4.86502">
        <ele>279</ele>
        <time>2016-11-19T09:54:30Z</time>
      </trkpt>
      <trkpt lat="45.98521" lon="4.86511">
        <ele>279</ele>
        <time>2016-11-19T09:54:31Z</time>
      </trkpt>
      <trkpt lat="45.98525" lon="4.8652">
        <ele>279</ele>
        <time>2016-11-19T09:54:32Z</time>
      </trkpt>
      <trkpt lat="45.9853" lon="4.86528">
        <ele>279</ele>
        <time>2016-11-19T09:54:33Z</time>
      </trkpt>
      <trkpt lat="45.98534" lon="4.86535">
        <ele>278</ele>
        <time>2016-11-19T09:54:34Z</time>
      </trkpt>
      <trkpt lat="45.98539" lon="4.86543">
        <ele>278</ele>
        <time>2016-11-19T09:54:35Z</time>
      </trkpt>
      <trkpt lat="45.98544" lon="4.86552">
        <ele>278</ele>
        <time>2016-11-19T09:54:36Z</time>
      </trkpt>
      <trkpt lat="45.98547" lon="4.8656">
        <ele>278</ele>
        <time>2016-11-19T09:54:37Z</time>
      </trkpt>
      <trkpt lat="45.9855" lon="4.86568">
        <ele>278</ele>
        <time>2016-11-19T09:54:38Z</time>
      </trkpt>
      <trkpt lat="45.98552" lon="4.86577">
        <ele>278</ele>
        <time>2016-11-19T09:54:39Z</time>
      </trkpt>
      <trkpt lat="45.98555" lon="4.86586">
        <ele>278</ele>
        <time>2016-11-19T09:54:40Z</time>
      </trkpt>
      <trkpt lat="45.98557" lon="4.86596">
        <ele>278</ele>
        <time>2016-11-19T09:54:41Z</time>
      </trkpt>
      <trkpt lat="45.98559" lon="4.86605">
        <ele>278</ele>
        <time>2016-11-19T09:54:42Z</time>
      </trkpt>
      <trkpt lat="45.9856" lon="4.86614">
        <ele>278</ele>
        <time>2016-11-19T09:54:43Z</time>
      </trkpt>
      <trkpt lat="45.98562" lon="4.86623">
        <ele>278</ele>
        <time>2016-11-19T09:54:44Z</time>
      </trkpt>
      <trkpt lat="45.98564" lon="4.86632">
        <ele>277</ele>
        <time>2016-11-19T09:54:45Z</time>
      </trkpt>
      <trkpt lat="45.98565" lon="4.86642">
        <ele>277</ele>
        <time>2016-11-19T09:54:46Z</time>
      </trkpt>
      <trkpt lat="45.98567" lon="4.86651">
        <ele>277</ele>
        <time>2016-11-19T09:54:47Z</time>
      </trkpt>
      <trkpt lat="45.98568" lon="4.86661">
        <ele>277</ele>
        <time>2016-11-19T09:54:48Z</time>
      </trkpt>
      <trkpt lat="45.98569" lon="4.86671">
        <ele>276</ele>
        <time>2016-11-19T09:54:49Z</time>
      </trkpt>
      <trkpt lat="45.98569" lon="4.86681">
        <ele>276</ele>
        <time>2016-11-19T09:54:50Z</time>
      </trkpt>
      <trkpt lat="45.9857" lon="4.86692">
        <ele>277</ele>
        <time>2016-11-19T09:54:51Z</time>
      </trkpt>
      <trkpt lat="45.98571" lon="4.86702">
        <ele>277</ele>
        <time>2016-11-19T09:54:52Z</time>
      </trkpt>
      <trkpt lat="45.98571" lon="4.86711">
        <ele>277</ele>
        <time>2016-11-19T09:54:53Z</time>
      </trkpt>
      <trkpt lat="45.98572" lon="4.86721">
        <ele>277</ele>
        <time>2016-11-19T09:54:54Z</time>
      </trkpt>
      <trkpt lat="45.98572" lon="4.8673">
        <ele>277</ele>
        <time>2016-11-19T09:54:55Z</time>
      </trkpt>
      <trkpt lat="45.98573" lon="4.86739">
        <ele>277</ele>
        <time>2016-11-19T09:54:56Z</time>
      </trkpt>
      <trkpt lat="45.98574" lon="4.86747">
        <ele>276</ele>
        <time>2016-11-19T09:54:57Z</time>
      </trkpt>
      <trkpt lat="45.98575" lon="4.86755">
        <ele>277</ele>
        <time>2016-11-19T09:54:58Z</time>
      </trkpt>
      <trkpt lat="45.98576" lon="4.86763">
        <ele>277</ele>
        <time>2016-11-19T09:54:59Z</time>
      </trkpt>
      <trkpt lat="45.98577" lon="4.86771">
        <ele>277</ele>
        <time>2016-11-19T09:55:00Z</time>
      </trkpt>
      <trkpt lat="45.98579" lon="4.86778">
        <ele>277</ele>
        <time>2016-11-19T09:55:01Z</time>
      </trkpt>
      <trkpt lat="45.9858" lon="4.86785">
        <ele>277</ele>
        <time>2016-11-19T09:55:02Z</time>
      </trkpt>
      <trkpt lat="45.98581" lon="4.86792">
        <ele>277</ele>
        <time>2016-11-19T09:55:03Z</time>
      </trkpt>
      <trkpt lat="45.98583" lon="4.86799">
        <ele>277</ele>
        <time>2016-11-19T09:55:04Z</time>
      </trkpt>
      <trkpt lat="45.98583" lon="4.86806">
        <ele>277</ele>
        <time>2016-11-19T09:55:05Z</time>
      </trkpt>
      <trkpt lat="45.98584" lon="4.86814">
        <ele>276</ele>
        <time>2016-11-19T09:55:06Z</time>
      </trkpt>
      <trkpt lat="45.98585" lon="4.86822">
        <ele>277</ele>
        <time>2016-11-19T09:55:07Z</time>
      </trkpt>
      <trkpt lat="45.98586" lon="4.86831">
        <ele>277</ele>
        <time>2016-11-19T09:55:08Z</time>
      </trkpt>
      <trkpt lat="45.98587" lon="4.8684">
        <ele>277</ele>
        <time>2016-11-19T09:55:09Z</time>
      </trkpt>
      <trkpt lat="45.98588" lon="4.86849">
        <ele>277</ele>
        <time>2016-11-19T09:55:10Z</time>
      </trkpt>
      <trkpt lat="45.98588" lon="4.86858">
        <ele>277</ele>
        <time>2016-11-19T09:55:11Z</time>
      </trkpt>
      <trkpt lat="45.98588" lon="4.86867">
        <ele>277</ele>
        <time>2016-11-19T09:55:12Z</time>
      </trkpt>
      <trkpt lat="45.98588" lon="4.86876">
        <ele>277</ele>
        <time>2016-11-19T09:55:13Z</time>
      </trkpt>
      <trkpt lat="45.98587" lon="4.86885">
        <ele>278</ele>
        <time>2016-11-19T09:55:14Z</time>
      </trkpt>
      <trkpt lat="45.98587" lon="4.86895">
        <ele>278</ele>
        <time>2016-11-19T09:55:15Z</time>
      </trkpt>
      <trkpt lat="45.98587" lon="4.86904">
        <ele>278</ele>
        <time>2016-11-19T09:55:16Z</time>
      </trkpt>
      <trkpt lat="45.98587" lon="4.86913">
        <ele>279</ele>
        <time>2016-11-19T09:55:17Z</time>
      </trkpt>
      <trkpt lat="45.98587" lon="4.86922">
        <ele>279</ele>
        <time>2016-11-19T09:55:18Z</time>
      </trkpt>
      <trkpt lat="45.98587" lon="4.86932">
        <ele>279</ele>
        <time>2016-11-19T09:55:19Z</time>
      </trkpt>
      <trkpt lat="45.98587" lon="4.86941">
        <ele>279</ele>
        <time>2016-11-19T09:55:20Z</time>
      </trkpt>
      <trkpt lat="45.98587" lon="4.8695">
        <ele>279</ele>
        <time>2016-11-19T09:55:21Z</time>
      </trkpt>
      <trkpt lat="45.98588" lon="4.86959">
        <ele>279</ele>
        <time>2016-11-19T09:55:22Z</time>
      </trkpt>
      <trkpt lat="45.98588" lon="4.86968">
        <ele>279</ele>
        <time>2016-11-19T09:55:23Z</time>
      </trkpt>
      <trkpt lat="45.98589" lon="4.86977">
        <ele>279</ele>
        <time>2016-11-19T09:55:24Z</time>
      </trkpt>
      <trkpt lat="45.9859" lon="4.86987">
        <ele>279</ele>
        <time>2016-11-19T09:55:25Z</time>
      </trkpt>
      <trkpt lat="45.98592" lon="4.86996">
        <ele>279</ele>
        <time>2016-11-19T09:55:26Z</time>
      </trkpt>
      <trkpt lat="45.98593" lon="4.87005">
        <ele>279</ele>
        <time>2016-11-19T09:55:27Z</time>
      </trkpt>
      <trkpt lat="45.98594" lon="4.87014">
        <ele>279</ele>
        <time>2016-11-19T09:55:28Z</time>
      </trkpt>
      <trkpt lat="45.98596" lon="4.87023">
        <ele>279</ele>
        <time>2016-11-19T09:55:29Z</time>
      </trkpt>
      <trkpt lat="45.98597" lon="4.87032">
        <ele>279</ele>
        <time>2016-11-19T09:55:30Z</time>
      </trkpt>
      <trkpt lat="45.98599" lon="4.87041">
        <ele>279</ele>
        <time>2016-11-19T09:55:31Z</time>
      </trkpt>
      <trkpt lat="45.98601" lon="4.8705">
        <ele>279</ele>
        <time>2016-11-19T09:55:32Z</time>
      </trkpt>
      <trkpt lat="45.98602" lon="4.87058">
        <ele>279</ele>
        <time>2016-11-19T09:55:33Z</time>
      </trkpt>
      <trkpt lat="45.98604" lon="4.87067">
        <ele>279</ele>
        <time>2016-11-19T09:55:34Z</time>
      </trkpt>
      <trkpt lat="45.98605" lon="4.87075">
        <ele>279</ele>
        <time>2016-11-19T09:55:35Z</time>
      </trkpt>
      <trkpt lat="45.98607" lon="4.87083">
        <ele>279</ele>
        <time>2016-11-19T09:55:36Z</time>
      </trkpt>
      <trkpt lat="45.98607" lon="4.87093">
        <ele>279</ele>
        <time>2016-11-19T09:55:37Z</time>
      </trkpt>
      <trkpt lat="45.98609" lon="4.87103">
        <ele>279</ele>
        <time>2016-11-19T09:55:38Z</time>
      </trkpt>
      <trkpt lat="45.9861" lon="4.87113">
        <ele>279</ele>
        <time>2016-11-19T09:55:39Z</time>
      </trkpt>
      <trkpt lat="45.98611" lon="4.87123">
        <ele>279</ele>
        <time>2016-11-19T09:55:40Z</time>
      </trkpt>
      <trkpt lat="45.98612" lon="4.87133">
        <ele>279</ele>
        <time>2016-11-19T09:55:41Z</time>
      </trkpt>
      <trkpt lat="45.98611" lon="4.87142">
        <ele>278</ele>
        <time>2016-11-19T09:55:42Z</time>
      </trkpt>
      <trkpt lat="45.98611" lon="4.87152">
        <ele>278</ele>
        <time>2016-11-19T09:55:43Z</time>
      </trkpt>
      <trkpt lat="45.98611" lon="4.87162">
        <ele>278</ele>
        <time>2016-11-19T09:55:44Z</time>
      </trkpt>
      <trkpt lat="45.98611" lon="4.87172">
        <ele>278</ele>
        <time>2016-11-19T09:55:45Z</time>
      </trkpt>
      <trkpt lat="45.9861" lon="4.87182">
        <ele>278</ele>
        <time>2016-11-19T09:55:46Z</time>
      </trkpt>
      <trkpt lat="45.9861" lon="4.87192">
        <ele>277</ele>
        <time>2016-11-19T09:55:47Z</time>
      </trkpt>
      <trkpt lat="45.98609" lon="4.87202">
        <ele>277</ele>
        <time>2016-11-19T09:55:48Z</time>
      </trkpt>
      <trkpt lat="45.98608" lon="4.87212">
        <ele>277</ele>
        <time>2016-11-19T09:55:49Z</time>
      </trkpt>
      <trkpt lat="45.98606" lon="4.87221">
        <ele>277</ele>
        <time>2016-11-19T09:55:50Z</time>
      </trkpt>
      <trkpt lat="45.98605" lon="4.87231">
        <ele>277</ele>
        <time>2016-11-19T09:55:51Z</time>
      </trkpt>
      <trkpt lat="45.98604" lon="4.8724">
        <ele>277</ele>
        <time>2016-11-19T09:55:52Z</time>
      </trkpt>
      <trkpt lat="45.98603" lon="4.8725">
        <ele>277</ele>
        <time>2016-11-19T09:55:53Z</time>
      </trkpt>
      <trkpt lat="45.98602" lon="4.87259">
        <ele>275</ele>
        <time>2016-11-19T09:55:54Z</time>
      </trkpt>
      <trkpt lat="45.98601" lon="4.87269">
        <ele>275</ele>
        <time>2016-11-19T09:55:55Z</time>
      </trkpt>
      <trkpt lat="45.98601" lon="4.87279">
        <ele>275</ele>
        <time>2016-11-19T09:55:56Z</time>
      </trkpt>
      <trkpt lat="45.986" lon="4.8729">
        <ele>275</ele>
        <time>2016-11-19T09:55:57Z</time>
      </trkpt>
      <trkpt lat="45.986" lon="4.873">
        <ele>274</ele>
        <time>2016-11-19T09:55:58Z</time>
      </trkpt>
      <trkpt lat="45.98601" lon="4.8731">
        <ele>274</ele>
        <time>2016-11-19T09:55:59Z</time>
      </trkpt>
      <trkpt lat="45.98602" lon="4.87321">
        <ele>274</ele>
        <time>2016-11-19T09:56:00Z</time>
      </trkpt>
      <trkpt lat="45.98604" lon="4.87332">
        <ele>274</ele>
        <time>2016-11-19T09:56:01Z</time>
      </trkpt>
      <trkpt lat="45.98605" lon="4.87343">
        <ele>272</ele>
        <time>2016-11-19T09:56:02Z</time>
      </trkpt>
      <trkpt lat="45.98607" lon="4.87354">
        <ele>272</ele>
        <time>2016-11-19T09:56:03Z</time>
      </trkpt>
      <trkpt lat="45.9861" lon="4.87365">
        <ele>272</ele>
        <time>2016-11-19T09:56:04Z</time>
      </trkpt>
      <trkpt lat="45.98612" lon="4.87376">
        <ele>271</ele>
        <time>2016-11-19T09:56:05Z</time>
      </trkpt>
      <trkpt lat="45.98614" lon="4.87387">
        <ele>271</ele>
        <time>2016-11-19T09:56:06Z</time>
      </trkpt>
      <trkpt lat="45.98617" lon="4.87398">
        <ele>271</ele>
        <time>2016-11-19T09:56:07Z</time>
      </trkpt>
      <trkpt lat="45.98619" lon="4.87409">
        <ele>271</ele>
        <time>2016-11-19T09:56:08Z</time>
      </trkpt>
      <trkpt lat="45.9862" lon="4.87421">
        <ele>269</ele>
        <time>2016-11-19T09:56:09Z</time>
      </trkpt>
      <trkpt lat="45.98623" lon="4.87431">
        <ele>269</ele>
        <time>2016-11-19T09:56:10Z</time>
      </trkpt>
      <trkpt lat="45.98624" lon="4.87443">
        <ele>269</ele>
        <time>2016-11-19T09:56:11Z</time>
      </trkpt>
      <trkpt lat="45.98626" lon="4.87454">
        <ele>268</ele>
        <time>2016-11-19T09:56:12Z</time>
      </trkpt>
      <trkpt lat="45.98628" lon="4.87466">
        <ele>268</ele>
        <time>2016-11-19T09:56:13Z</time>
      </trkpt>
      <trkpt lat="45.9863" lon="4.87477">
        <ele>268</ele>
        <time>2016-11-19T09:56:14Z</time>
      </trkpt>
      <trkpt lat="45.98632" lon="4.87488">
        <ele>268</ele>
        <time>2016-11-19T09:56:15Z</time>
      </trkpt>
      <trkpt lat="45.98634" lon="4.87499">
        <ele>267</ele>
        <time>2016-11-19T09:56:16Z</time>
      </trkpt>
      <trkpt lat="45.98636" lon="4.8751">
        <ele>267</ele>
        <time>2016-11-19T09:56:17Z</time>
      </trkpt>
      <trkpt lat="45.98638" lon="4.87521">
        <ele>267</ele>
        <time>2016-11-19T09:56:18Z</time>
      </trkpt>
      <trkpt lat="45.9864" lon="4.87532">
        <ele>267</ele>
        <time>2016-11-19T09:56:19Z</time>
      </trkpt>
      <trkpt lat="45.98642" lon="4.87542">
        <ele>267</ele>
        <time>2016-11-19T09:56:20Z</time>
      </trkpt>
      <trkpt lat="45.98645" lon="4.87552">
        <ele>267</ele>
        <time>2016-11-19T09:56:21Z</time>
      </trkpt>
      <trkpt lat="45.9865" lon="4.8756">
        <ele>267</ele>
        <time>2016-11-19T09:56:22Z</time>
      </trkpt>
      <trkpt lat="45.98656" lon="4.87565">
        <ele>267</ele>
        <time>2016-11-19T09:56:23Z</time>
      </trkpt>
      <trkpt lat="45.98663" lon="4.87569">
        <ele>267</ele>
        <time>2016-11-19T09:56:24Z</time>
      </trkpt>
      <trkpt lat="45.9867" lon="4.8757">
        <ele>267</ele>
        <time>2016-11-19T09:56:25Z</time>
      </trkpt>
      <trkpt lat="45.98676" lon="4.87569">
        <ele>267</ele>
        <time>2016-11-19T09:56:26Z</time>
      </trkpt>
      <trkpt lat="45.98682" lon="4.87568">
        <ele>267</ele>
        <time>2016-11-19T09:56:27Z</time>
      </trkpt>
      <trkpt lat="45.98688" lon="4.87566">
        <ele>267</ele>
        <time>2016-11-19T09:56:28Z</time>
      </trkpt>
      <trkpt lat="45.98694" lon="4.87564">
        <ele>267</ele>
        <time>2016-11-19T09:56:29Z</time>
      </trkpt>
      <trkpt lat="45.98699" lon="4.87562">
        <ele>267</ele>
        <time>2016-11-19T09:56:30Z</time>
      </trkpt>
      <trkpt lat="45.98704" lon="4.8756">
        <ele>267</ele>
        <time>2016-11-19T09:56:31Z</time>
      </trkpt>
      <trkpt lat="45.98709" lon="4.87559">
        <ele>267</ele>
        <time>2016-11-19T09:56:32Z</time>
      </trkpt>
      <trkpt lat="45.98714" lon="4.87557">
        <ele>267</ele>
        <time>2016-11-19T09:56:33Z</time>
      </trkpt>
      <trkpt lat="45.98718" lon="4.87557">
        <ele>267</ele>
        <time>2016-11-19T09:56:34Z</time>
      </trkpt>
      <trkpt lat="45.98723" lon="4.87555">
        <ele>267</ele>
        <time>2016-11-19T09:56:35Z</time>
      </trkpt>
      <trkpt lat="45.98732" lon="4.87555">
        <ele>267</ele>
        <time>2016-11-19T09:56:37Z</time>
      </trkpt>
      <trkpt lat="45.98737" lon="4.87556">
        <ele>267</ele>
        <time>2016-11-19T09:56:38Z</time>
      </trkpt>
      <trkpt lat="45.98742" lon="4.87556">
        <ele>267</ele>
        <time>2016-11-19T09:56:39Z</time>
      </trkpt>
      <trkpt lat="45.98746" lon="4.87558">
        <ele>267</ele>
        <time>2016-11-19T09:56:40Z</time>
      </trkpt>
      <trkpt lat="45.98751" lon="4.8756">
        <ele>269</ele>
        <time>2016-11-19T09:56:41Z</time>
      </trkpt>
      <trkpt lat="45.98756" lon="4.87563">
        <ele>269</ele>
        <time>2016-11-19T09:56:42Z</time>
      </trkpt>
      <trkpt lat="45.98761" lon="4.87567">
        <ele>269</ele>
        <time>2016-11-19T09:56:43Z</time>
      </trkpt>
      <trkpt lat="45.98765" lon="4.87571">
        <ele>269</ele>
        <time>2016-11-19T09:56:44Z</time>
      </trkpt>
      <trkpt lat="45.98769" lon="4.87576">
        <ele>269</ele>
        <time>2016-11-19T09:56:45Z</time>
      </trkpt>
      <trkpt lat="45.98773" lon="4.8758">
        <ele>269</ele>
        <time>2016-11-19T09:56:46Z</time>
      </trkpt>
      <trkpt lat="45.98778" lon="4.87585">
        <ele>270</ele>
        <time>2016-11-19T09:56:47Z</time>
      </trkpt>
      <trkpt lat="45.98782" lon="4.87591">
        <ele>270</ele>
        <time>2016-11-19T09:56:48Z</time>
      </trkpt>
      <trkpt lat="45.98786" lon="4.87595">
        <ele>271</ele>
        <time>2016-11-19T09:56:49Z</time>
      </trkpt>
      <trkpt lat="45.9879" lon="4.876">
        <ele>271</ele>
        <time>2016-11-19T09:56:50Z</time>
      </trkpt>
      <trkpt lat="45.98793" lon="4.87606">
        <ele>271</ele>
        <time>2016-11-19T09:56:51Z</time>
      </trkpt>
      <trkpt lat="45.98797" lon="4.8761">
        <ele>271</ele>
        <time>2016-11-19T09:56:52Z</time>
      </trkpt>
      <trkpt lat="45.98801" lon="4.87616">
        <ele>271</ele>
        <time>2016-11-19T09:56:53Z</time>
      </trkpt>
      <trkpt lat="45.98804" lon="4.87622">
        <ele>271</ele>
        <time>2016-11-19T09:56:54Z</time>
      </trkpt>
      <trkpt lat="45.98808" lon="4.87628">
        <ele>271</ele>
        <time>2016-11-19T09:56:55Z</time>
      </trkpt>
      <trkpt lat="45.98811" lon="4.87634">
        <ele>271</ele>
        <time>2016-11-19T09:56:56Z</time>
      </trkpt>
      <trkpt lat="45.98813" lon="4.8764">
        <ele>272</ele>
        <time>2016-11-19T09:56:57Z</time>
      </trkpt>
      <trkpt lat="45.98815" lon="4.87646">
        <ele>272</ele>
        <time>2016-11-19T09:56:58Z</time>
      </trkpt>
      <trkpt lat="45.98819" lon="4.87657">
        <ele>272</ele>
        <time>2016-11-19T09:57:00Z</time>
      </trkpt>
      <trkpt lat="45.98821" lon="4.87664">
        <ele>272</ele>
        <time>2016-11-19T09:57:01Z</time>
      </trkpt>
      <trkpt lat="45.98822" lon="4.87671">
        <ele>273</ele>
        <time>2016-11-19T09:57:02Z</time>
      </trkpt>
      <trkpt lat="45.98824" lon="4.87677">
        <ele>273</ele>
        <time>2016-11-19T09:57:03Z</time>
      </trkpt>
      <trkpt lat="45.98825" lon="4.87683">
        <ele>273</ele>
        <time>2016-11-19T09:57:04Z</time>
      </trkpt>
      <trkpt lat="45.98827" lon="4.8769">
        <ele>273</ele>
        <time>2016-11-19T09:57:05Z</time>
      </trkpt>
      <trkpt lat="45.98829" lon="4.87696">
        <ele>273</ele>
        <time>2016-11-19T09:57:06Z</time>
      </trkpt>
      <trkpt lat="45.98831" lon="4.87703">
        <ele>273</ele>
        <time>2016-11-19T09:57:07Z</time>
      </trkpt>
      <trkpt lat="45.98833" lon="4.87709">
        <ele>273</ele>
        <time>2016-11-19T09:57:08Z</time>
      </trkpt>
      <trkpt lat="45.98834" lon="4.87716">
        <ele>273</ele>
        <time>2016-11-19T09:57:09Z</time>
      </trkpt>
      <trkpt lat="45.98838" lon="4.87727">
        <ele>273</ele>
        <time>2016-11-19T09:57:11Z</time>
      </trkpt>
      <trkpt lat="45.98839" lon="4.87734">
        <ele>273</ele>
        <time>2016-11-19T09:57:12Z</time>
      </trkpt>
      <trkpt lat="45.98842" lon="4.87746">
        <ele>273</ele>
        <time>2016-11-19T09:57:14Z</time>
      </trkpt>
      <trkpt lat="45.98843" lon="4.87752">
        <ele>273</ele>
        <time>2016-11-19T09:57:15Z</time>
      </trkpt>
      <trkpt lat="45.98846" lon="4.87763">
        <ele>273</ele>
        <time>2016-11-19T09:57:17Z</time>
      </trkpt>
      <trkpt lat="45.98848" lon="4.87769">
        <ele>273</ele>
        <time>2016-11-19T09:57:18Z</time>
      </trkpt>
      <trkpt lat="45.9885" lon="4.87781">
        <ele>273</ele>
        <time>2016-11-19T09:57:20Z</time>
      </trkpt>
      <trkpt lat="45.98851" lon="4.87786">
        <ele>273</ele>
        <time>2016-11-19T09:57:21Z</time>
      </trkpt>
      <trkpt lat="45.98855" lon="4.87796">
        <ele>273</ele>
        <time>2016-11-19T09:57:23Z</time>
      </trkpt>
      <trkpt lat="45.98857" lon="4.87801">
        <ele>273</ele>
        <time>2016-11-19T09:57:24Z</time>
      </trkpt>
      <trkpt lat="45.98861" lon="4.87812">
        <ele>273</ele>
        <time>2016-11-19T09:57:26Z</time>
      </trkpt>
      <trkpt lat="45.98863" lon="4.87818">
        <ele>273</ele>
        <time>2016-11-19T09:57:27Z</time>
      </trkpt>
      <trkpt lat="45.98865" lon="4.87823">
        <ele>273</ele>
        <time>2016-11-19T09:57:28Z</time>
      </trkpt>
      <trkpt lat="45.98868" lon="4.87829">
        <ele>273</ele>
        <time>2016-11-19T09:57:29Z</time>
      </trkpt>
      <trkpt lat="45.9887" lon="4.87836">
        <ele>273</ele>
        <time>2016-11-19T09:57:30Z</time>
      </trkpt>
      <trkpt lat="45.98873" lon="4.87841">
        <ele>273</ele>
        <time>2016-11-19T09:57:31Z</time>
      </trkpt>
      <trkpt lat="45.98876" lon="4.87847">
        <ele>272</ele>
        <time>2016-11-19T09:57:32Z</time>
      </trkpt>
      <trkpt lat="45.98879" lon="4.87852">
        <ele>272</ele>
        <time>2016-11-19T09:57:33Z</time>
      </trkpt>
      <trkpt lat="45.98882" lon="4.87858">
        <ele>272</ele>
        <time>2016-11-19T09:57:34Z</time>
      </trkpt>
      <trkpt lat="45.98884" lon="4.87863">
        <ele>272</ele>
        <time>2016-11-19T09:57:35Z</time>
      </trkpt>
      <trkpt lat="45.98887" lon="4.87868">
        <ele>272</ele>
        <time>2016-11-19T09:57:36Z</time>
      </trkpt>
      <trkpt lat="45.98891" lon="4.87873">
        <ele>272</ele>
        <time>2016-11-19T09:57:37Z</time>
      </trkpt>
      <trkpt lat="45.98894" lon="4.87878">
        <ele>272</ele>
        <time>2016-11-19T09:57:38Z</time>
      </trkpt>
      <trkpt lat="45.98897" lon="4.87883">
        <ele>272</ele>
        <time>2016-11-19T09:57:39Z</time>
      </trkpt>
      <trkpt lat="45.989" lon="4.87888">
        <ele>272</ele>
        <time>2016-11-19T09:57:40Z</time>
      </trkpt>
      <trkpt lat="45.98903" lon="4.87893">
        <ele>272</ele>
        <time>2016-11-19T09:57:41Z</time>
      </trkpt>
      <trkpt lat="45.98906" lon="4.87898">
        <ele>272</ele>
        <time>2016-11-19T09:57:42Z</time>
      </trkpt>
      <trkpt lat="45.98909" lon="4.87902">
        <ele>272</ele>
        <time>2016-11-19T09:57:43Z</time>
      </trkpt>
      <trkpt lat="45.98915" lon="4.87909">
        <ele>271</ele>
        <time>2016-11-19T09:57:45Z</time>
      </trkpt>
      <trkpt lat="45.98918" lon="4.87912">
        <ele>272</ele>
        <time>2016-11-19T09:57:46Z</time>
      </trkpt>
      <trkpt lat="45.98925" lon="4.87918">
        <ele>272</ele>
        <time>2016-11-19T09:57:48Z</time>
      </trkpt>
      <trkpt lat="45.98929" lon="4.87921">
        <ele>272</ele>
        <time>2016-11-19T09:57:49Z</time>
      </trkpt>
      <trkpt lat="45.98936" lon="4.87925">
        <ele>272</ele>
        <time>2016-11-19T09:57:51Z</time>
      </trkpt>
      <trkpt lat="45.9894" lon="4.87928">
        <ele>273</ele>
        <time>2016-11-19T09:57:52Z</time>
      </trkpt>
      <trkpt lat="45.98947" lon="4.87932">
        <ele>273</ele>
        <time>2016-11-19T09:57:54Z</time>
      </trkpt>
      <trkpt lat="45.98951" lon="4.87934">
        <ele>273</ele>
        <time>2016-11-19T09:57:55Z</time>
      </trkpt>
      <trkpt lat="45.98959" lon="4.87938">
        <ele>273</ele>
        <time>2016-11-19T09:57:57Z</time>
      </trkpt>
      <trkpt lat="45.98963" lon="4.8794">
        <ele>273</ele>
        <time>2016-11-19T09:57:58Z</time>
      </trkpt>
      <trkpt lat="45.98971" lon="4.87944">
        <ele>274</ele>
        <time>2016-11-19T09:58:00Z</time>
      </trkpt>
      <trkpt lat="45.98974" lon="4.87946">
        <ele>274</ele>
        <time>2016-11-19T09:58:01Z</time>
      </trkpt>
      <trkpt lat="45.98981" lon="4.87949">
        <ele>274</ele>
        <time>2016-11-19T09:58:03Z</time>
      </trkpt>
      <trkpt lat="45.98984" lon="4.87951">
        <ele>274</ele>
        <time>2016-11-19T09:58:04Z</time>
      </trkpt>
      <trkpt lat="45.9899" lon="4.87955">
        <ele>274</ele>
        <time>2016-11-19T09:58:06Z</time>
      </trkpt>
      <trkpt lat="45.98992" lon="4.87957">
        <ele>274</ele>
        <time>2016-11-19T09:58:07Z</time>
      </trkpt>
      <trkpt lat="45.98999" lon="4.87961">
        <ele>274</ele>
        <time>2016-11-19T09:58:09Z</time>
      </trkpt>
      <trkpt lat="45.99002" lon="4.87963">
        <ele>276</ele>
        <time>2016-11-19T09:58:10Z</time>
      </trkpt>
      <trkpt lat="45.99009" lon="4.87965">
        <ele>276</ele>
        <time>2016-11-19T09:58:12Z</time>
      </trkpt>
      <trkpt lat="45.99013" lon="4.87968">
        <ele>276</ele>
        <time>2016-11-19T09:58:13Z</time>
      </trkpt>
      <trkpt lat="45.99019" lon="4.87971">
        <ele>276</ele>
        <time>2016-11-19T09:58:15Z</time>
      </trkpt>
      <trkpt lat="45.99023" lon="4.87973">
        <ele>276</ele>
        <time>2016-11-19T09:58:16Z</time>
      </trkpt>
      <trkpt lat="45.9903" lon="4.87978">
        <ele>276</ele>
        <time>2016-11-19T09:58:18Z</time>
      </trkpt>
      <trkpt lat="45.99034" lon="4.8798">
        <ele>276</ele>
        <time>2016-11-19T09:58:19Z</time>
      </trkpt>
      <trkpt lat="45.99039" lon="4.87982">
        <ele>276</ele>
        <time>2016-11-19T09:58:20Z</time>
      </trkpt>
      <trkpt lat="45.99043" lon="4.87984">
        <ele>277</ele>
        <time>2016-11-19T09:58:21Z</time>
      </trkpt>
      <trkpt lat="45.99047" lon="4.87987">
        <ele>277</ele>
        <time>2016-11-19T09:58:22Z</time>
      </trkpt>
      <trkpt lat="45.99051" lon="4.8799">
        <ele>277</ele>
        <time>2016-11-19T09:58:23Z</time>
      </trkpt>
      <trkpt lat="45.99059" lon="4.87995">
        <ele>277</ele>
        <time>2016-11-19T09:58:25Z</time>
      </trkpt>
      <trkpt lat="45.99062" lon="4.87997">
        <ele>277</ele>
        <time>2016-11-19T09:58:26Z</time>
      </trkpt>
      <trkpt lat="45.9907" lon="4.88001">
        <ele>277</ele>
        <time>2016-11-19T09:58:28Z</time>
      </trkpt>
      <trkpt lat="45.99073" lon="4.88003">
        <ele>278</ele>
        <time>2016-11-19T09:58:29Z</time>
      </trkpt>
      <trkpt lat="45.9908" lon="4.88008">
        <ele>278</ele>
        <time>2016-11-19T09:58:31Z</time>
      </trkpt>
      <trkpt lat="45.99084" lon="4.8801">
        <ele>278</ele>
        <time>2016-11-19T09:58:32Z</time>
      </trkpt>
      <trkpt lat="45.99091" lon="4.88014">
        <ele>278</ele>
        <time>2016-11-19T09:58:34Z</time>
      </trkpt>
      <trkpt lat="45.99095" lon="4.88016">
        <ele>278</ele>
        <time>2016-11-19T09:58:35Z</time>
      </trkpt>
      <trkpt lat="45.99102" lon="4.8802">
        <ele>278</ele>
        <time>2016-11-19T09:58:37Z</time>
      </trkpt>
      <trkpt lat="45.99106" lon="4.88022">
        <ele>278</ele>
        <time>2016-11-19T09:58:38Z</time>
      </trkpt>
      <trkpt lat="45.99113" lon="4.88026">
        <ele>278</ele>
        <time>2016-11-19T09:58:40Z</time>
      </trkpt>
      <trkpt lat="45.99117" lon="4.88028">
        <ele>278</ele>
        <time>2016-11-19T09:58:41Z</time>
      </trkpt>
      <trkpt lat="45.99125" lon="4.88032">
        <ele>279</ele>
        <time>2016-11-19T09:58:43Z</time>
      </trkpt>
      <trkpt lat="45.99129" lon="4.88034">
        <ele>279</ele>
        <time>2016-11-19T09:58:44Z</time>
      </trkpt>
      <trkpt lat="45.99137" lon="4.88039">
        <ele>279</ele>
        <time>2016-11-19T09:58:46Z</time>
      </trkpt>
      <trkpt lat="45.99141" lon="4.88041">
        <ele>279</ele>
        <time>2016-11-19T09:58:47Z</time>
      </trkpt>
      <trkpt lat="45.99148" lon="4.88046">
        <ele>279</ele>
        <time>2016-11-19T09:58:49Z</time>
      </trkpt>
      <trkpt lat="45.99151" lon="4.88049">
        <ele>279</ele>
        <time>2016-11-19T09:58:50Z</time>
      </trkpt>
      <trkpt lat="45.99158" lon="4.88054">
        <ele>279</ele>
        <time>2016-11-19T09:58:52Z</time>
      </trkpt>
      <trkpt lat="45.99162" lon="4.88056">
        <ele>279</ele>
        <time>2016-11-19T09:58:53Z</time>
      </trkpt>
      <trkpt lat="45.99169" lon="4.88061">
        <ele>279</ele>
        <time>2016-11-19T09:58:55Z</time>
      </trkpt>
      <trkpt lat="45.99173" lon="4.88064">
        <ele>279</ele>
        <time>2016-11-19T09:58:56Z</time>
      </trkpt>
      <trkpt lat="45.9918" lon="4.8807">
        <ele>279</ele>
        <time>2016-11-19T09:58:58Z</time>
      </trkpt>
      <trkpt lat="45.99184" lon="4.88073">
        <ele>279</ele>
        <time>2016-11-19T09:58:59Z</time>
      </trkpt>
      <trkpt lat="45.99191" lon="4.88079">
        <ele>280</ele>
        <time>2016-11-19T09:59:01Z</time>
      </trkpt>
      <trkpt lat="45.99194" lon="4.88082">
        <ele>280</ele>
        <time>2016-11-19T09:59:02Z</time>
      </trkpt>
      <trkpt lat="45.99201" lon="4.88088">
        <ele>280</ele>
        <time>2016-11-19T09:59:04Z</time>
      </trkpt>
      <trkpt lat="45.99204" lon="4.88091">
        <ele>280</ele>
        <time>2016-11-19T09:59:05Z</time>
      </trkpt>
      <trkpt lat="45.99211" lon="4.88097">
        <ele>280</ele>
        <time>2016-11-19T09:59:07Z</time>
      </trkpt>
      <trkpt lat="45.99215" lon="4.881">
        <ele>280</ele>
        <time>2016-11-19T09:59:08Z</time>
      </trkpt>
      <trkpt lat="45.99222" lon="4.88106">
        <ele>280</ele>
        <time>2016-11-19T09:59:10Z</time>
      </trkpt>
      <trkpt lat="45.99226" lon="4.8811">
        <ele>280</ele>
        <time>2016-11-19T09:59:11Z</time>
      </trkpt>
      <trkpt lat="45.99233" lon="4.88116">
        <ele>280</ele>
        <time>2016-11-19T09:59:13Z</time>
      </trkpt>
      <trkpt lat="45.99237" lon="4.88119">
        <ele>280</ele>
        <time>2016-11-19T09:59:14Z</time>
      </trkpt>
      <trkpt lat="45.99244" lon="4.88126">
        <ele>280</ele>
        <time>2016-11-19T09:59:16Z</time>
      </trkpt>
      <trkpt lat="45.99247" lon="4.88129">
        <ele>280</ele>
        <time>2016-11-19T09:59:17Z</time>
      </trkpt>
      <trkpt lat="45.99254" lon="4.88135">
        <ele>283</ele>
        <time>2016-11-19T09:59:19Z</time>
      </trkpt>
      <trkpt lat="45.99258" lon="4.88139">
        <ele>283</ele>
        <time>2016-11-19T09:59:20Z</time>
      </trkpt>
      <trkpt lat="45.99265" lon="4.88145">
        <ele>283</ele>
        <time>2016-11-19T09:59:22Z</time>
      </trkpt>
      <trkpt lat="45.99269" lon="4.88148">
        <ele>283</ele>
        <time>2016-11-19T09:59:23Z</time>
      </trkpt>
      <trkpt lat="45.99276" lon="4.88154">
        <ele>283</ele>
        <time>2016-11-19T09:59:25Z</time>
      </trkpt>
      <trkpt lat="45.99279" lon="4.88158">
        <ele>283</ele>
        <time>2016-11-19T09:59:26Z</time>
      </trkpt>
      <trkpt lat="45.99283" lon="4.88162">
        <ele>284</ele>
        <time>2016-11-19T09:59:27Z</time>
      </trkpt>
      <trkpt lat="45.99287" lon="4.88165">
        <ele>284</ele>
        <time>2016-11-19T09:59:28Z</time>
      </trkpt>
      <trkpt lat="45.99291" lon="4.88168">
        <ele>284</ele>
        <time>2016-11-19T09:59:29Z</time>
      </trkpt>
      <trkpt lat="45.99295" lon="4.88172">
        <ele>284</ele>
        <time>2016-11-19T09:59:30Z</time>
      </trkpt>
      <trkpt lat="45.99302" lon="4.88178">
        <ele>285</ele>
        <time>2016-11-19T09:59:32Z</time>
      </trkpt>
      <trkpt lat="45.99306" lon="4.88182">
        <ele>285</ele>
        <time>2016-11-19T09:59:33Z</time>
      </trkpt>
      <trkpt lat="45.99313" lon="4.88188">
        <ele>285</ele>
        <time>2016-11-19T09:59:35Z</time>
      </trkpt>
      <trkpt lat="45.99317" lon="4.88191">
        <ele>285</ele>
        <time>2016-11-19T09:59:36Z</time>
      </trkpt>
      <trkpt lat="45.99323" lon="4.88198">
        <ele>285</ele>
        <time>2016-11-19T09:59:38Z</time>
      </trkpt>
      <trkpt lat="45.99326" lon="4.88201">
        <ele>285</ele>
        <time>2016-11-19T09:59:39Z</time>
      </trkpt>
      <trkpt lat="45.99334" lon="4.88208">
        <ele>287</ele>
        <time>2016-11-19T09:59:41Z</time>
      </trkpt>
      <trkpt lat="45.99338" lon="4.88211">
        <ele>287</ele>
        <time>2016-11-19T09:59:42Z</time>
      </trkpt>
      <trkpt lat="45.99345" lon="4.88217">
        <ele>287</ele>
        <time>2016-11-19T09:59:44Z</time>
      </trkpt>
      <trkpt lat="45.99349" lon="4.88221">
        <ele>287</ele>
        <time>2016-11-19T09:59:45Z</time>
      </trkpt>
      <trkpt lat="45.99356" lon="4.88227">
        <ele>287</ele>
        <time>2016-11-19T09:59:47Z</time>
      </trkpt>
      <trkpt lat="45.9936" lon="4.88231">
        <ele>287</ele>
        <time>2016-11-19T09:59:48Z</time>
      </trkpt>
      <trkpt lat="45.99367" lon="4.88239">
        <ele>287</ele>
        <time>2016-11-19T09:59:50Z</time>
      </trkpt>
      <trkpt lat="45.9937" lon="4.88243">
        <ele>287</ele>
        <time>2016-11-19T09:59:51Z</time>
      </trkpt>
      <trkpt lat="45.99375" lon="4.88253">
        <ele>285</ele>
        <time>2016-11-19T09:59:53Z</time>
      </trkpt>
      <trkpt lat="45.99379" lon="4.88258">
        <ele>285</ele>
        <time>2016-11-19T09:59:54Z</time>
      </trkpt>
      <trkpt lat="45.99381" lon="4.88264">
        <ele>285</ele>
        <time>2016-11-19T09:59:55Z</time>
      </trkpt>
      <trkpt lat="45.99384" lon="4.88269">
        <ele>285</ele>
        <time>2016-11-19T09:59:56Z</time>
      </trkpt>
      <trkpt lat="45.99387" lon="4.88275">
        <ele>284</ele>
        <time>2016-11-19T09:59:57Z</time>
      </trkpt>
      <trkpt lat="45.99389" lon="4.8828">
        <ele>284</ele>
        <time>2016-11-19T09:59:58Z</time>
      </trkpt>
      <trkpt lat="45.99392" lon="4.88286">
        <ele>284</ele>
        <time>2016-11-19T09:59:59Z</time>
      </trkpt>
      <trkpt lat="45.99394" lon="4.88291">
        <ele>284</ele>
        <time>2016-11-19T10:00:00Z</time>
      </trkpt>
      <trkpt lat="45.99397" lon="4.88297">
        <ele>284</ele>
        <time>2016-11-19T10:00:01Z</time>
      </trkpt>
      <trkpt lat="45.99399" lon="4.88302">
        <ele>284</ele>
        <time>2016-11-19T10:00:02Z</time>
      </trkpt>
      <trkpt lat="45.99404" lon="4.88312">
        <ele>283</ele>
        <time>2016-11-19T10:00:04Z</time>
      </trkpt>
      <trkpt lat="45.99406" lon="4.88318">
        <ele>283</ele>
        <time>2016-11-19T10:00:05Z</time>
      </trkpt>
      <trkpt lat="45.99408" lon="4.88323">
        <ele>283</ele>
        <time>2016-11-19T10:00:06Z</time>
      </trkpt>
      <trkpt lat="45.9941" lon="4.88329">
        <ele>283</ele>
        <time>2016-11-19T10:00:07Z</time>
      </trkpt>
      <trkpt lat="45.99413" lon="4.88335">
        <ele>282</ele>
        <time>2016-11-19T10:00:08Z</time>
      </trkpt>
      <trkpt lat="45.99415" lon="4.8834">
        <ele>282</ele>
        <time>2016-11-19T10:00:09Z</time>
      </trkpt>
      <trkpt lat="45.99417" lon="4.88346">
        <ele>282</ele>
        <time>2016-11-19T10:00:10Z</time>
      </trkpt>
      <trkpt lat="45.99419" lon="4.88352">
        <ele>283</ele>
        <time>2016-11-19T10:00:11Z</time>
      </trkpt>
      <trkpt lat="45.99422" lon="4.88358">
        <ele>283</ele>
        <time>2016-11-19T10:00:12Z</time>
      </trkpt>
      <trkpt lat="45.99424" lon="4.88364">
        <ele>283</ele>
        <time>2016-11-19T10:00:13Z</time>
      </trkpt>
      <trkpt lat="45.99426" lon="4.88369">
        <ele>283</ele>
        <time>2016-11-19T10:00:14Z</time>
      </trkpt>
      <trkpt lat="45.99429" lon="4.88375">
        <ele>283</ele>
        <time>2016-11-19T10:00:15Z</time>
      </trkpt>
      <trkpt lat="45.99431" lon="4.88381">
        <ele>283</ele>
        <time>2016-11-19T10:00:16Z</time>
      </trkpt>
      <trkpt lat="45.99434" lon="4.88386">
        <ele>283</ele>
        <time>2016-11-19T10:00:17Z</time>
      </trkpt>
      <trkpt lat="45.99437" lon="4.88392">
        <ele>283</ele>
        <time>2016-11-19T10:00:18Z</time>
      </trkpt>
      <trkpt lat="45.9944" lon="4.88397">
        <ele>283</ele>
        <time>2016-11-19T10:00:19Z</time>
      </trkpt>
      <trkpt lat="45.99443" lon="4.88401">
        <ele>283</ele>
        <time>2016-11-19T10:00:20Z</time>
      </trkpt>
      <trkpt lat="45.99446" lon="4.88406">
        <ele>283</ele>
        <time>2016-11-19T10:00:21Z</time>
      </trkpt>
      <trkpt lat="45.9945" lon="4.88411">
        <ele>283</ele>
        <time>2016-11-19T10:00:22Z</time>
      </trkpt>
      <trkpt lat="45.99454" lon="4.88414">
        <ele>283</ele>
        <time>2016-11-19T10:00:23Z</time>
      </trkpt>
      <trkpt lat="45.99458" lon="4.88418">
        <ele>283</ele>
        <time>2016-11-19T10:00:24Z</time>
      </trkpt>
      <trkpt lat="45.99462" lon="4.88422">
        <ele>284</ele>
        <time>2016-11-19T10:00:25Z</time>
      </trkpt>
      <trkpt lat="45.99466" lon="4.88425">
        <ele>284</ele>
        <time>2016-11-19T10:00:26Z</time>
      </trkpt>
      <trkpt lat="45.9947" lon="4.88429">
        <ele>284</ele>
        <time>2016-11-19T10:00:27Z</time>
      </trkpt>
      <trkpt lat="45.99474" lon="4.88434">
        <ele>284</ele>
        <time>2016-11-19T10:00:28Z</time>
      </trkpt>
      <trkpt lat="45.99478" lon="4.88439">
        <ele>284</ele>
        <time>2016-11-19T10:00:29Z</time>
      </trkpt>
      <trkpt lat="45.99482" lon="4.88444">
        <ele>284</ele>
        <time>2016-11-19T10:00:30Z</time>
      </trkpt>
      <trkpt lat="45.99485" lon="4.88449">
        <ele>284</ele>
        <time>2016-11-19T10:00:31Z</time>
      </trkpt>
      <trkpt lat="45.99488" lon="4.88454">
        <ele>284</ele>
        <time>2016-11-19T10:00:32Z</time>
      </trkpt>
      <trkpt lat="45.99492" lon="4.8846">
        <ele>284</ele>
        <time>2016-11-19T10:00:33Z</time>
      </trkpt>
      <trkpt lat="45.99495" lon="4.88465">
        <ele>284</ele>
        <time>2016-11-19T10:00:34Z</time>
      </trkpt>
      <trkpt lat="45.99498" lon="4.88471">
        <ele>284</ele>
        <time>2016-11-19T10:00:35Z</time>
      </trkpt>
      <trkpt lat="45.99501" lon="4.88477">
        <ele>284</ele>
        <time>2016-11-19T10:00:36Z</time>
      </trkpt>
      <trkpt lat="45.99504" lon="4.88483">
        <ele>284</ele>
        <time>2016-11-19T10:00:37Z</time>
      </trkpt>
      <trkpt lat="45.99507" lon="4.88489">
        <ele>284</ele>
        <time>2016-11-19T10:00:38Z</time>
      </trkpt>
      <trkpt lat="45.9951" lon="4.88495">
        <ele>284</ele>
        <time>2016-11-19T10:00:39Z</time>
      </trkpt>
      <trkpt lat="45.99513" lon="4.88501">
        <ele>284</ele>
        <time>2016-11-19T10:00:40Z</time>
      </trkpt>
      <trkpt lat="45.99516" lon="4.88507">
        <ele>285</ele>
        <time>2016-11-19T10:00:41Z</time>
      </trkpt>
      <trkpt lat="45.99519" lon="4.88513">
        <ele>285</ele>
        <time>2016-11-19T10:00:42Z</time>
      </trkpt>
      <trkpt lat="45.99522" lon="4.88519">
        <ele>285</ele>
        <time>2016-11-19T10:00:43Z</time>
      </trkpt>
      <trkpt lat="45.99526" lon="4.88525">
        <ele>285</ele>
        <time>2016-11-19T10:00:44Z</time>
      </trkpt>
      <trkpt lat="45.99529" lon="4.88531">
        <ele>285</ele>
        <time>2016-11-19T10:00:45Z</time>
      </trkpt>
      <trkpt lat="45.99532" lon="4.88538">
        <ele>285</ele>
        <time>2016-11-19T10:00:46Z</time>
      </trkpt>
      <trkpt lat="45.99535" lon="4.88544">
        <ele>285</ele>
        <time>2016-11-19T10:00:47Z</time>
      </trkpt>
      <trkpt lat="45.99537" lon="4.88551">
        <ele>285</ele>
        <time>2016-11-19T10:00:48Z</time>
      </trkpt>
      <trkpt lat="45.99539" lon="4.88558">
        <ele>285</ele>
        <time>2016-11-19T10:00:49Z</time>
      </trkpt>
      <trkpt lat="45.99541" lon="4.88565">
        <ele>285</ele>
        <time>2016-11-19T10:00:50Z</time>
      </trkpt>
      <trkpt lat="45.99544" lon="4.88572">
        <ele>286</ele>
        <time>2016-11-19T10:00:51Z</time>
      </trkpt>
      <trkpt lat="45.99546" lon="4.8858">
        <ele>286</ele>
        <time>2016-11-19T10:00:52Z</time>
      </trkpt>
      <trkpt lat="45.99548" lon="4.88588">
        <ele>286</ele>
        <time>2016-11-19T10:00:53Z</time>
      </trkpt>
      <trkpt lat="45.99549" lon="4.88596">
        <ele>286</ele>
        <time>2016-11-19T10:00:54Z</time>
      </trkpt>
      <trkpt lat="45.9955" lon="4.88604">
        <ele>286</ele>
        <time>2016-11-19T10:00:55Z</time>
      </trkpt>
      <trkpt lat="45.99551" lon="4.88611">
        <ele>286</ele>
        <time>2016-11-19T10:00:56Z</time>
      </trkpt>
      <trkpt lat="45.99552" lon="4.88619">
        <ele>286</ele>
        <time>2016-11-19T10:00:57Z</time>
      </trkpt>
      <trkpt lat="45.99553" lon="4.88627">
        <ele>286</ele>
        <time>2016-11-19T10:00:58Z</time>
      </trkpt>
      <trkpt lat="45.99554" lon="4.88635">
        <ele>286</ele>
        <time>2016-11-19T10:00:59Z</time>
      </trkpt>
      <trkpt lat="45.99555" lon="4.88643">
        <ele>286</ele>
        <time>2016-11-19T10:01:00Z</time>
      </trkpt>
      <trkpt lat="45.99556" lon="4.88651">
        <ele>286</ele>
        <time>2016-11-19T10:01:01Z</time>
      </trkpt>
      <trkpt lat="45.99556" lon="4.88659">
        <ele>286</ele>
        <time>2016-11-19T10:01:02Z</time>
      </trkpt>
      <trkpt lat="45.99557" lon="4.88667">
        <ele>286</ele>
        <time>2016-11-19T10:01:03Z</time>
      </trkpt>
      <trkpt lat="45.99558" lon="4.88675">
        <ele>286</ele>
        <time>2016-11-19T10:01:04Z</time>
      </trkpt>
      <trkpt lat="45.99559" lon="4.88684">
        <ele>286</ele>
        <time>2016-11-19T10:01:05Z</time>
      </trkpt>
      <trkpt lat="45.9956" lon="4.88692">
        <ele>286</ele>
        <time>2016-11-19T10:01:06Z</time>
      </trkpt>
      <trkpt lat="45.99561" lon="4.88701">
        <ele>286</ele>
        <time>2016-11-19T10:01:07Z</time>
      </trkpt>
      <trkpt lat="45.99562" lon="4.8871">
        <ele>286</ele>
        <time>2016-11-19T10:01:08Z</time>
      </trkpt>
      <trkpt lat="45.99562" lon="4.88718">
        <ele>286</ele>
        <time>2016-11-19T10:01:09Z</time>
      </trkpt>
      <trkpt lat="45.99563" lon="4.88726">
        <ele>286</ele>
        <time>2016-11-19T10:01:10Z</time>
      </trkpt>
      <trkpt lat="45.99564" lon="4.88733">
        <ele>287</ele>
        <time>2016-11-19T10:01:11Z</time>
      </trkpt>
      <trkpt lat="45.99565" lon="4.88741">
        <ele>287</ele>
        <time>2016-11-19T10:01:12Z</time>
      </trkpt>
      <trkpt lat="45.99566" lon="4.88749">
        <ele>287</ele>
        <time>2016-11-19T10:01:13Z</time>
      </trkpt>
      <trkpt lat="45.99567" lon="4.88757">
        <ele>287</ele>
        <time>2016-11-19T10:01:14Z</time>
      </trkpt>
      <trkpt lat="45.99568" lon="4.88765">
        <ele>287</ele>
        <time>2016-11-19T10:01:15Z</time>
      </trkpt>
      <trkpt lat="45.99569" lon="4.88773">
        <ele>287</ele>
        <time>2016-11-19T10:01:16Z</time>
      </trkpt>
      <trkpt lat="45.99569" lon="4.8878">
        <ele>287</ele>
        <time>2016-11-19T10:01:17Z</time>
      </trkpt>
      <trkpt lat="45.9957" lon="4.88788">
        <ele>287</ele>
        <time>2016-11-19T10:01:18Z</time>
      </trkpt>
      <trkpt lat="45.99571" lon="4.88796">
        <ele>287</ele>
        <time>2016-11-19T10:01:19Z</time>
      </trkpt>
      <trkpt lat="45.99571" lon="4.88804">
        <ele>287</ele>
        <time>2016-11-19T10:01:20Z</time>
      </trkpt>
      <trkpt lat="45.99572" lon="4.88811">
        <ele>287</ele>
        <time>2016-11-19T10:01:21Z</time>
      </trkpt>
      <trkpt lat="45.99573" lon="4.88819">
        <ele>287</ele>
        <time>2016-11-19T10:01:22Z</time>
      </trkpt>
      <trkpt lat="45.99574" lon="4.88827">
        <ele>287</ele>
        <time>2016-11-19T10:01:23Z</time>
      </trkpt>
      <trkpt lat="45.99574" lon="4.88836">
        <ele>287</ele>
        <time>2016-11-19T10:01:24Z</time>
      </trkpt>
      <trkpt lat="45.99575" lon="4.88844">
        <ele>287</ele>
        <time>2016-11-19T10:01:25Z</time>
      </trkpt>
      <trkpt lat="45.99575" lon="4.88852">
        <ele>287</ele>
        <time>2016-11-19T10:01:26Z</time>
      </trkpt>
      <trkpt lat="45.99576" lon="4.8886">
        <ele>287</ele>
        <time>2016-11-19T10:01:27Z</time>
      </trkpt>
      <trkpt lat="45.99577" lon="4.88868">
        <ele>287</ele>
        <time>2016-11-19T10:01:28Z</time>
      </trkpt>
      <trkpt lat="45.99578" lon="4.88876">
        <ele>287</ele>
        <time>2016-11-19T10:01:29Z</time>
      </trkpt>
      <trkpt lat="45.99579" lon="4.88885">
        <ele>287</ele>
        <time>2016-11-19T10:01:30Z</time>
      </trkpt>
      <trkpt lat="45.9958" lon="4.88893">
        <ele>287</ele>
        <time>2016-11-19T10:01:31Z</time>
      </trkpt>
      <trkpt lat="45.9958" lon="4.88901">
        <ele>287</ele>
        <time>2016-11-19T10:01:32Z</time>
      </trkpt>
      <trkpt lat="45.99581" lon="4.88909">
        <ele>287</ele>
        <time>2016-11-19T10:01:33Z</time>
      </trkpt>
      <trkpt lat="45.99581" lon="4.88917">
        <ele>287</ele>
        <time>2016-11-19T10:01:34Z</time>
      </trkpt>
      <trkpt lat="45.99582" lon="4.88925">
        <ele>287</ele>
        <time>2016-11-19T10:01:35Z</time>
      </trkpt>
      <trkpt lat="45.99583" lon="4.88933">
        <ele>287</ele>
        <time>2016-11-19T10:01:36Z</time>
      </trkpt>
      <trkpt lat="45.99583" lon="4.8894">
        <ele>287</ele>
        <time>2016-11-19T10:01:37Z</time>
      </trkpt>
      <trkpt lat="45.99584" lon="4.88948">
        <ele>287</ele>
        <time>2016-11-19T10:01:38Z</time>
      </trkpt>
      <trkpt lat="45.99584" lon="4.88956">
        <ele>287</ele>
        <time>2016-11-19T10:01:39Z</time>
      </trkpt>
      <trkpt lat="45.99586" lon="4.88964">
        <ele>288</ele>
        <time>2016-11-19T10:01:40Z</time>
      </trkpt>
      <trkpt lat="45.99585" lon="4.88972">
        <ele>288</ele>
        <time>2016-11-19T10:01:41Z</time>
      </trkpt>
      <trkpt lat="45.99586" lon="4.8898">
        <ele>288</ele>
        <time>2016-11-19T10:01:42Z</time>
      </trkpt>
      <trkpt lat="45.99586" lon="4.88988">
        <ele>288</ele>
        <time>2016-11-19T10:01:43Z</time>
      </trkpt>
      <trkpt lat="45.99586" lon="4.88995">
        <ele>288</ele>
        <time>2016-11-19T10:01:44Z</time>
      </trkpt>
      <trkpt lat="45.99586" lon="4.89003">
        <ele>288</ele>
        <time>2016-11-19T10:01:45Z</time>
      </trkpt>
      <trkpt lat="45.99586" lon="4.89011">
        <ele>288</ele>
        <time>2016-11-19T10:01:46Z</time>
      </trkpt>
      <trkpt lat="45.99586" lon="4.89018">
        <ele>288</ele>
        <time>2016-11-19T10:01:47Z</time>
      </trkpt>
      <trkpt lat="45.99586" lon="4.89026">
        <ele>288</ele>
        <time>2016-11-19T10:01:48Z</time>
      </trkpt>
      <trkpt lat="45.99585" lon="4.89034">
        <ele>289</ele>
        <time>2016-11-19T10:01:49Z</time>
      </trkpt>
      <trkpt lat="45.99584" lon="4.89041">
        <ele>289</ele>
        <time>2016-11-19T10:01:50Z</time>
      </trkpt>
      <trkpt lat="45.99584" lon="4.89048">
        <ele>289</ele>
        <time>2016-11-19T10:01:51Z</time>
      </trkpt>
      <trkpt lat="45.99583" lon="4.89055">
        <ele>288</ele>
        <time>2016-11-19T10:01:52Z</time>
      </trkpt>
      <trkpt lat="45.99583" lon="4.89062">
        <ele>289</ele>
        <time>2016-11-19T10:01:53Z</time>
      </trkpt>
      <trkpt lat="45.99582" lon="4.89068">
        <ele>289</ele>
        <time>2016-11-19T10:01:54Z</time>
      </trkpt>
      <trkpt lat="45.99581" lon="4.89076">
        <ele>289</ele>
        <time>2016-11-19T10:01:55Z</time>
      </trkpt>
      <trkpt lat="45.99579" lon="4.89083">
        <ele>289</ele>
        <time>2016-11-19T10:01:56Z</time>
      </trkpt>
      <trkpt lat="45.99579" lon="4.89091">
        <ele>289</ele>
        <time>2016-11-19T10:01:57Z</time>
      </trkpt>
      <trkpt lat="45.99579" lon="4.89099">
        <ele>289</ele>
        <time>2016-11-19T10:01:58Z</time>
      </trkpt>
      <trkpt lat="45.99579" lon="4.89108">
        <ele>289</ele>
        <time>2016-11-19T10:01:59Z</time>
      </trkpt>
      <trkpt lat="45.99579" lon="4.89116">
        <ele>289</ele>
        <time>2016-11-19T10:02:00Z</time>
      </trkpt>
      <trkpt lat="45.99579" lon="4.89124">
        <ele>289</ele>
        <time>2016-11-19T10:02:01Z</time>
      </trkpt>
      <trkpt lat="45.99579" lon="4.89131">
        <ele>289</ele>
        <time>2016-11-19T10:02:02Z</time>
      </trkpt>
      <trkpt lat="45.99579" lon="4.89139">
        <ele>289</ele>
        <time>2016-11-19T10:02:03Z</time>
      </trkpt>
      <trkpt lat="45.99579" lon="4.89146">
        <ele>289</ele>
        <time>2016-11-19T10:02:04Z</time>
      </trkpt>
      <trkpt lat="45.99579" lon="4.89152">
        <ele>288</ele>
        <time>2016-11-19T10:02:05Z</time>
      </trkpt>
      <trkpt lat="45.99579" lon="4.89159">
        <ele>288</ele>
        <time>2016-11-19T10:02:06Z</time>
      </trkpt>
      <trkpt lat="45.9958" lon="4.89166">
        <ele>288</ele>
        <time>2016-11-19T10:02:07Z</time>
      </trkpt>
      <trkpt lat="45.9958" lon="4.89173">
        <ele>288</ele>
        <time>2016-11-19T10:02:08Z</time>
      </trkpt>
      <trkpt lat="45.9958" lon="4.8918">
        <ele>288</ele>
        <time>2016-11-19T10:02:09Z</time>
      </trkpt>
      <trkpt lat="45.9958" lon="4.89187">
        <ele>288</ele>
        <time>2016-11-19T10:02:10Z</time>
      </trkpt>
      <trkpt lat="45.99581" lon="4.89193">
        <ele>288</ele>
        <time>2016-11-19T10:02:11Z</time>
      </trkpt>
      <trkpt lat="45.99581" lon="4.892">
        <ele>288</ele>
        <time>2016-11-19T10:02:12Z</time>
      </trkpt>
      <trkpt lat="45.99582" lon="4.89207">
        <ele>288</ele>
        <time>2016-11-19T10:02:13Z</time>
      </trkpt>
      <trkpt lat="45.99582" lon="4.89214">
        <ele>288</ele>
        <time>2016-11-19T10:02:14Z</time>
      </trkpt>
      <trkpt lat="45.99583" lon="4.89221">
        <ele>288</ele>
        <time>2016-11-19T10:02:15Z</time>
      </trkpt>
      <trkpt lat="45.99583" lon="4.89228">
        <ele>288</ele>
        <time>2016-11-19T10:02:16Z</time>
      </trkpt>
      <trkpt lat="45.99584" lon="4.89235">
        <ele>288</ele>
        <time>2016-11-19T10:02:17Z</time>
      </trkpt>
      <trkpt lat="45.99584" lon="4.89243">
        <ele>288</ele>
        <time>2016-11-19T10:02:18Z</time>
      </trkpt>
      <trkpt lat="45.99585" lon="4.8925">
        <ele>288</ele>
        <time>2016-11-19T10:02:19Z</time>
      </trkpt>
      <trkpt lat="45.99585" lon="4.89258">
        <ele>288</ele>
        <time>2016-11-19T10:02:20Z</time>
      </trkpt>
      <trkpt lat="45.99585" lon="4.89267">
        <ele>288</ele>
        <time>2016-11-19T10:02:21Z</time>
      </trkpt>
      <trkpt lat="45.99586" lon="4.89275">
        <ele>288</ele>
        <time>2016-11-19T10:02:22Z</time>
      </trkpt>
      <trkpt lat="45.99586" lon="4.89283">
        <ele>289</ele>
        <time>2016-11-19T10:02:23Z</time>
      </trkpt>
      <trkpt lat="45.99586" lon="4.89291">
        <ele>289</ele>
        <time>2016-11-19T10:02:24Z</time>
      </trkpt>
      <trkpt lat="45.99586" lon="4.89299">
        <ele>289</ele>
        <time>2016-11-19T10:02:25Z</time>
      </trkpt>
      <trkpt lat="45.99587" lon="4.89307">
        <ele>289</ele>
        <time>2016-11-19T10:02:26Z</time>
      </trkpt>
      <trkpt lat="45.99587" lon="4.89315">
        <ele>289</ele>
        <time>2016-11-19T10:02:27Z</time>
      </trkpt>
      <trkpt lat="45.99587" lon="4.89322">
        <ele>289</ele>
        <time>2016-11-19T10:02:28Z</time>
      </trkpt>
      <trkpt lat="45.99588" lon="4.8933">
        <ele>289</ele>
        <time>2016-11-19T10:02:29Z</time>
      </trkpt>
      <trkpt lat="45.99588" lon="4.89337">
        <ele>289</ele>
        <time>2016-11-19T10:02:30Z</time>
      </trkpt>
      <trkpt lat="45.99589" lon="4.89344">
        <ele>289</ele>
        <time>2016-11-19T10:02:31Z</time>
      </trkpt>
      <trkpt lat="45.99589" lon="4.89352">
        <ele>289</ele>
        <time>2016-11-19T10:02:32Z</time>
      </trkpt>
      <trkpt lat="45.9959" lon="4.89359">
        <ele>289</ele>
        <time>2016-11-19T10:02:33Z</time>
      </trkpt>
      <trkpt lat="45.9959" lon="4.89366">
        <ele>289</ele>
        <time>2016-11-19T10:02:34Z</time>
      </trkpt>
      <trkpt lat="45.99591" lon="4.89373">
        <ele>289</ele>
        <time>2016-11-19T10:02:35Z</time>
      </trkpt>
      <trkpt lat="45.99591" lon="4.8938">
        <ele>290</ele>
        <time>2016-11-19T10:02:36Z</time>
      </trkpt>
      <trkpt lat="45.99592" lon="4.89387">
        <ele>290</ele>
        <time>2016-11-19T10:02:37Z</time>
      </trkpt>
      <trkpt lat="45.99592" lon="4.89394">
        <ele>290</ele>
        <time>2016-11-19T10:02:38Z</time>
      </trkpt>
      <trkpt lat="45.99593" lon="4.89402">
        <ele>290</ele>
        <time>2016-11-19T10:02:39Z</time>
      </trkpt>
      <trkpt lat="45.99593" lon="4.89409">
        <ele>290</ele>
        <time>2016-11-19T10:02:40Z</time>
      </trkpt>
      <trkpt lat="45.99593" lon="4.89416">
        <ele>290</ele>
        <time>2016-11-19T10:02:41Z</time>
      </trkpt>
      <trkpt lat="45.99593" lon="4.89423">
        <ele>290</ele>
        <time>2016-11-19T10:02:42Z</time>
      </trkpt>
      <trkpt lat="45.99594" lon="4.89431">
        <ele>290</ele>
        <time>2016-11-19T10:02:43Z</time>
      </trkpt>
      <trkpt lat="45.99595" lon="4.89438">
        <ele>290</ele>
        <time>2016-11-19T10:02:44Z</time>
      </trkpt>
      <trkpt lat="45.99595" lon="4.89445">
        <ele>290</ele>
        <time>2016-11-19T10:02:45Z</time>
      </trkpt>
      <trkpt lat="45.99596" lon="4.89453">
        <ele>290</ele>
        <time>2016-11-19T10:02:46Z</time>
      </trkpt>
      <trkpt lat="45.99597" lon="4.8946">
        <ele>290</ele>
        <time>2016-11-19T10:02:47Z</time>
      </trkpt>
      <trkpt lat="45.99597" lon="4.89468">
        <ele>290</ele>
        <time>2016-11-19T10:02:48Z</time>
      </trkpt>
      <trkpt lat="45.99598" lon="4.89476">
        <ele>290</ele>
        <time>2016-11-19T10:02:49Z</time>
      </trkpt>
      <trkpt lat="45.99599" lon="4.89484">
        <ele>290</ele>
        <time>2016-11-19T10:02:50Z</time>
      </trkpt>
      <trkpt lat="45.99599" lon="4.89491">
        <ele>290</ele>
        <time>2016-11-19T10:02:51Z</time>
      </trkpt>
      <trkpt lat="45.996" lon="4.89499">
        <ele>290</ele>
        <time>2016-11-19T10:02:52Z</time>
      </trkpt>
      <trkpt lat="45.996" lon="4.89507">
        <ele>290</ele>
        <time>2016-11-19T10:02:53Z</time>
      </trkpt>
      <trkpt lat="45.99601" lon="4.89514">
        <ele>290</ele>
        <time>2016-11-19T10:02:54Z</time>
      </trkpt>
      <trkpt lat="45.99602" lon="4.89522">
        <ele>291</ele>
        <time>2016-11-19T10:02:55Z</time>
      </trkpt>
      <trkpt lat="45.99602" lon="4.8953">
        <ele>291</ele>
        <time>2016-11-19T10:02:56Z</time>
      </trkpt>
      <trkpt lat="45.99603" lon="4.89538">
        <ele>291</ele>
        <time>2016-11-19T10:02:57Z</time>
      </trkpt>
      <trkpt lat="45.99603" lon="4.89546">
        <ele>291</ele>
        <time>2016-11-19T10:02:58Z</time>
      </trkpt>
      <trkpt lat="45.99604" lon="4.89554">
        <ele>291</ele>
        <time>2016-11-19T10:02:59Z</time>
      </trkpt>
      <trkpt lat="45.99605" lon="4.89562">
        <ele>291</ele>
        <time>2016-11-19T10:03:00Z</time>
      </trkpt>
      <trkpt lat="45.99605" lon="4.8957">
        <ele>291</ele>
        <time>2016-11-19T10:03:01Z</time>
      </trkpt>
      <trkpt lat="45.99606" lon="4.89578">
        <ele>291</ele>
        <time>2016-11-19T10:03:02Z</time>
      </trkpt>
      <trkpt lat="45.99606" lon="4.89585">
        <ele>292</ele>
        <time>2016-11-19T10:03:03Z</time>
      </trkpt>
      <trkpt lat="45.99606" lon="4.89593">
        <ele>292</ele>
        <time>2016-11-19T10:03:04Z</time>
      </trkpt>
      <trkpt lat="45.99607" lon="4.89601">
        <ele>291</ele>
        <time>2016-11-19T10:03:05Z</time>
      </trkpt>
      <trkpt lat="45.99607" lon="4.89608">
        <ele>291</ele>
        <time>2016-11-19T10:03:06Z</time>
      </trkpt>
      <trkpt lat="45.99607" lon="4.89616">
        <ele>291</ele>
        <time>2016-11-19T10:03:07Z</time>
      </trkpt>
      <trkpt lat="45.99607" lon="4.89624">
        <ele>291</ele>
        <time>2016-11-19T10:03:08Z</time>
      </trkpt>
      <trkpt lat="45.99607" lon="4.89632">
        <ele>291</ele>
        <time>2016-11-19T10:03:09Z</time>
      </trkpt>
      <trkpt lat="45.99607" lon="4.89639">
        <ele>291</ele>
        <time>2016-11-19T10:03:10Z</time>
      </trkpt>
      <trkpt lat="45.99607" lon="4.89647">
        <ele>291</ele>
        <time>2016-11-19T10:03:11Z</time>
      </trkpt>
      <trkpt lat="45.99607" lon="4.89654">
        <ele>291</ele>
        <time>2016-11-19T10:03:12Z</time>
      </trkpt>
      <trkpt lat="45.99607" lon="4.89661">
        <ele>291</ele>
        <time>2016-11-19T10:03:13Z</time>
      </trkpt>
      <trkpt lat="45.99608" lon="4.89669">
        <ele>291</ele>
        <time>2016-11-19T10:03:14Z</time>
      </trkpt>
      <trkpt lat="45.99607" lon="4.89677">
        <ele>291</ele>
        <time>2016-11-19T10:03:15Z</time>
      </trkpt>
      <trkpt lat="45.99607" lon="4.89684">
        <ele>291</ele>
        <time>2016-11-19T10:03:16Z</time>
      </trkpt>
      <trkpt lat="45.99607" lon="4.89692">
        <ele>291</ele>
        <time>2016-11-19T10:03:17Z</time>
      </trkpt>
      <trkpt lat="45.99607" lon="4.89699">
        <ele>291</ele>
        <time>2016-11-19T10:03:18Z</time>
      </trkpt>
      <trkpt lat="45.99607" lon="4.89707">
        <ele>292</ele>
        <time>2016-11-19T10:03:19Z</time>
      </trkpt>
      <trkpt lat="45.99607" lon="4.89715">
        <ele>292</ele>
        <time>2016-11-19T10:03:20Z</time>
      </trkpt>
      <trkpt lat="45.99607" lon="4.89722">
        <ele>292</ele>
        <time>2016-11-19T10:03:21Z</time>
      </trkpt>
      <trkpt lat="45.99607" lon="4.8973">
        <ele>292</ele>
        <time>2016-11-19T10:03:22Z</time>
      </trkpt>
      <trkpt lat="45.99606" lon="4.89739">
        <ele>292</ele>
        <time>2016-11-19T10:03:23Z</time>
      </trkpt>
      <trkpt lat="45.99606" lon="4.89749">
        <ele>292</ele>
        <time>2016-11-19T10:03:24Z</time>
      </trkpt>
      <trkpt lat="45.99605" lon="4.89757">
        <ele>292</ele>
        <time>2016-11-19T10:03:25Z</time>
      </trkpt>
      <trkpt lat="45.99604" lon="4.89765">
        <ele>292</ele>
        <time>2016-11-19T10:03:26Z</time>
      </trkpt>
      <trkpt lat="45.99604" lon="4.89773">
        <ele>292</ele>
        <time>2016-11-19T10:03:27Z</time>
      </trkpt>
      <trkpt lat="45.99604" lon="4.8978">
        <ele>292</ele>
        <time>2016-11-19T10:03:28Z</time>
      </trkpt>
      <trkpt lat="45.99604" lon="4.89787">
        <ele>292</ele>
        <time>2016-11-19T10:03:29Z</time>
      </trkpt>
      <trkpt lat="45.99604" lon="4.89794">
        <ele>292</ele>
        <time>2016-11-19T10:03:30Z</time>
      </trkpt>
      <trkpt lat="45.99604" lon="4.89801">
        <ele>292</ele>
        <time>2016-11-19T10:03:31Z</time>
      </trkpt>
      <trkpt lat="45.99603" lon="4.89808">
        <ele>292</ele>
        <time>2016-11-19T10:03:32Z</time>
      </trkpt>
      <trkpt lat="45.99603" lon="4.89814">
        <ele>292</ele>
        <time>2016-11-19T10:03:33Z</time>
      </trkpt>
      <trkpt lat="45.99603" lon="4.89821">
        <ele>292</ele>
        <time>2016-11-19T10:03:34Z</time>
      </trkpt>
      <trkpt lat="45.99603" lon="4.89827">
        <ele>292</ele>
        <time>2016-11-19T10:03:35Z</time>
      </trkpt>
      <trkpt lat="45.99602" lon="4.89838">
        <ele>293</ele>
        <time>2016-11-19T10:03:37Z</time>
      </trkpt>
      <trkpt lat="45.99602" lon="4.89844">
        <ele>293</ele>
        <time>2016-11-19T10:03:38Z</time>
      </trkpt>
      <trkpt lat="45.99602" lon="4.89851">
        <ele>293</ele>
        <time>2016-11-19T10:03:39Z</time>
      </trkpt>
      <trkpt lat="45.99602" lon="4.89858">
        <ele>293</ele>
        <time>2016-11-19T10:03:40Z</time>
      </trkpt>
      <trkpt lat="45.99602" lon="4.89865">
        <ele>293</ele>
        <time>2016-11-19T10:03:41Z</time>
      </trkpt>
      <trkpt lat="45.99602" lon="4.89872">
        <ele>293</ele>
        <time>2016-11-19T10:03:42Z</time>
      </trkpt>
      <trkpt lat="45.99601" lon="4.89878">
        <ele>292</ele>
        <time>2016-11-19T10:03:43Z</time>
      </trkpt>
      <trkpt lat="45.99601" lon="4.89886">
        <ele>292</ele>
        <time>2016-11-19T10:03:44Z</time>
      </trkpt>
      <trkpt lat="45.99601" lon="4.89892">
        <ele>292</ele>
        <time>2016-11-19T10:03:45Z</time>
      </trkpt>
      <trkpt lat="45.99601" lon="4.89899">
        <ele>292</ele>
        <time>2016-11-19T10:03:46Z</time>
      </trkpt>
      <trkpt lat="45.99601" lon="4.89906">
        <ele>292</ele>
        <time>2016-11-19T10:03:47Z</time>
      </trkpt>
      <trkpt lat="45.99601" lon="4.89913">
        <ele>292</ele>
        <time>2016-11-19T10:03:48Z</time>
      </trkpt>
      <trkpt lat="45.99601" lon="4.8992">
        <ele>293</ele>
        <time>2016-11-19T10:03:49Z</time>
      </trkpt>
      <trkpt lat="45.99602" lon="4.89927">
        <ele>293</ele>
        <time>2016-11-19T10:03:50Z</time>
      </trkpt>
      <trkpt lat="45.99602" lon="4.89935">
        <ele>293</ele>
        <time>2016-11-19T10:03:51Z</time>
      </trkpt>
      <trkpt lat="45.99603" lon="4.89943">
        <ele>294</ele>
        <time>2016-11-19T10:03:52Z</time>
      </trkpt>
      <trkpt lat="45.99603" lon="4.89951">
        <ele>294</ele>
        <time>2016-11-19T10:03:53Z</time>
      </trkpt>
      <trkpt lat="45.99603" lon="4.89959">
        <ele>294</ele>
        <time>2016-11-19T10:03:54Z</time>
      </trkpt>
      <trkpt lat="45.99604" lon="4.89967">
        <ele>294</ele>
        <time>2016-11-19T10:03:55Z</time>
      </trkpt>
      <trkpt lat="45.99605" lon="4.89974">
        <ele>294</ele>
        <time>2016-11-19T10:03:56Z</time>
      </trkpt>
      <trkpt lat="45.99606" lon="4.89982">
        <ele>294</ele>
        <time>2016-11-19T10:03:57Z</time>
      </trkpt>
      <trkpt lat="45.99606" lon="4.89989">
        <ele>294</ele>
        <time>2016-11-19T10:03:58Z</time>
      </trkpt>
      <trkpt lat="45.99608" lon="4.89996">
        <ele>295</ele>
        <time>2016-11-19T10:03:59Z</time>
      </trkpt>
      <trkpt lat="45.99609" lon="4.90002">
        <ele>296</ele>
        <time>2016-11-19T10:04:00Z</time>
      </trkpt>
      <trkpt lat="45.99613" lon="4.90014">
        <ele>296</ele>
        <time>2016-11-19T10:04:02Z</time>
      </trkpt>
      <trkpt lat="45.99614" lon="4.9002">
        <ele>296</ele>
        <time>2016-11-19T10:04:03Z</time>
      </trkpt>
      <trkpt lat="45.99617" lon="4.90031">
        <ele>296</ele>
        <time>2016-11-19T10:04:05Z</time>
      </trkpt>
      <trkpt lat="45.99618" lon="4.90037">
        <ele>296</ele>
        <time>2016-11-19T10:04:06Z</time>
      </trkpt>
      <trkpt lat="45.99622" lon="4.90048">
        <ele>297</ele>
        <time>2016-11-19T10:04:08Z</time>
      </trkpt>
      <trkpt lat="45.99624" lon="4.90054">
        <ele>297</ele>
        <time>2016-11-19T10:04:09Z</time>
      </trkpt>
      <trkpt lat="45.99629" lon="4.90064">
        <ele>297</ele>
        <time>2016-11-19T10:04:11Z</time>
      </trkpt>
      <trkpt lat="45.99631" lon="4.90069">
        <ele>297</ele>
        <time>2016-11-19T10:04:12Z</time>
      </trkpt>
      <trkpt lat="45.99635" lon="4.9008">
        <ele>297</ele>
        <time>2016-11-19T10:04:14Z</time>
      </trkpt>
      <trkpt lat="45.99637" lon="4.90085">
        <ele>298</ele>
        <time>2016-11-19T10:04:15Z</time>
      </trkpt>
      <trkpt lat="45.99641" lon="4.90096">
        <ele>299</ele>
        <time>2016-11-19T10:04:17Z</time>
      </trkpt>
      <trkpt lat="45.99642" lon="4.90101">
        <ele>299</ele>
        <time>2016-11-19T10:04:18Z</time>
      </trkpt>
      <trkpt lat="45.99646" lon="4.90111">
        <ele>299</ele>
        <time>2016-11-19T10:04:20Z</time>
      </trkpt>
      <trkpt lat="45.99647" lon="4.90117">
        <ele>299</ele>
        <time>2016-11-19T10:04:21Z</time>
      </trkpt>
      <trkpt lat="45.99649" lon="4.90127">
        <ele>299</ele>
        <time>2016-11-19T10:04:23Z</time>
      </trkpt>
      <trkpt lat="45.99651" lon="4.90133">
        <ele>299</ele>
        <time>2016-11-19T10:04:24Z</time>
      </trkpt>
      <trkpt lat="45.99655" lon="4.90144">
        <ele>300</ele>
        <time>2016-11-19T10:04:26Z</time>
      </trkpt>
      <trkpt lat="45.99657" lon="4.90148">
        <ele>300</ele>
        <time>2016-11-19T10:04:27Z</time>
      </trkpt>
      <trkpt lat="45.99659" lon="4.90159">
        <ele>300</ele>
        <time>2016-11-19T10:04:29Z</time>
      </trkpt>
      <trkpt lat="45.9966" lon="4.90165">
        <ele>301</ele>
        <time>2016-11-19T10:04:30Z</time>
      </trkpt>
      <trkpt lat="45.99663" lon="4.90176">
        <ele>301</ele>
        <time>2016-11-19T10:04:32Z</time>
      </trkpt>
      <trkpt lat="45.99665" lon="4.90181">
        <ele>301</ele>
        <time>2016-11-19T10:04:33Z</time>
      </trkpt>
      <trkpt lat="45.99668" lon="4.9019">
        <ele>302</ele>
        <time>2016-11-19T10:04:35Z</time>
      </trkpt>
      <trkpt lat="45.99669" lon="4.90195">
        <ele>303</ele>
        <time>2016-11-19T10:04:36Z</time>
      </trkpt>
      <trkpt lat="45.99671" lon="4.90205">
        <ele>303</ele>
        <time>2016-11-19T10:04:38Z</time>
      </trkpt>
      <trkpt lat="45.99672" lon="4.90209">
        <ele>303</ele>
        <time>2016-11-19T10:04:39Z</time>
      </trkpt>
      <trkpt lat="45.99674" lon="4.90219">
        <ele>303</ele>
        <time>2016-11-19T10:04:41Z</time>
      </trkpt>
      <trkpt lat="45.99675" lon="4.90223">
        <ele>304</ele>
        <time>2016-11-19T10:04:42Z</time>
      </trkpt>
      <trkpt lat="45.99678" lon="4.90234">
        <ele>304</ele>
        <time>2016-11-19T10:04:44Z</time>
      </trkpt>
      <trkpt lat="45.99679" lon="4.90238">
        <ele>304</ele>
        <time>2016-11-19T10:04:45Z</time>
      </trkpt>
      <trkpt lat="45.99681" lon="4.90248">
        <ele>304</ele>
        <time>2016-11-19T10:04:47Z</time>
      </trkpt>
      <trkpt lat="45.99682" lon="4.90253">
        <ele>304</ele>
        <time>2016-11-19T10:04:48Z</time>
      </trkpt>
      <trkpt lat="45.99681" lon="4.90263">
        <ele>304</ele>
        <time>2016-11-19T10:04:50Z</time>
      </trkpt>
      <trkpt lat="45.9968" lon="4.90268">
        <ele>305</ele>
        <time>2016-11-19T10:04:51Z</time>
      </trkpt>
      <trkpt lat="45.99679" lon="4.90278">
        <ele>304</ele>
        <time>2016-11-19T10:04:53Z</time>
      </trkpt>
      <trkpt lat="45.99678" lon="4.90284">
        <ele>304</ele>
        <time>2016-11-19T10:04:54Z</time>
      </trkpt>
      <trkpt lat="45.99675" lon="4.90294">
        <ele>304</ele>
        <time>2016-11-19T10:04:56Z</time>
      </trkpt>
      <trkpt lat="45.99673" lon="4.903">
        <ele>304</ele>
        <time>2016-11-19T10:04:57Z</time>
      </trkpt>
      <trkpt lat="45.99672" lon="4.90311">
        <ele>304</ele>
        <time>2016-11-19T10:04:59Z</time>
      </trkpt>
      <trkpt lat="45.9967" lon="4.90315">
        <ele>304</ele>
        <time>2016-11-19T10:05:00Z</time>
      </trkpt>
      <trkpt lat="45.99669" lon="4.90321">
        <ele>303</ele>
        <time>2016-11-19T10:05:02Z</time>
      </trkpt>
      <trkpt lat="45.9967" lon="4.90322">
        <ele>303</ele>
        <time>2016-11-19T10:05:03Z</time>
      </trkpt>
      <trkpt lat="45.99675" lon="4.90326">
        <ele>303</ele>
        <time>2016-11-19T10:05:13Z</time>
      </trkpt>
      <trkpt lat="45.99678" lon="4.90327">
        <ele>303</ele>
        <time>2016-11-19T10:05:14Z</time>
      </trkpt>
      <trkpt lat="45.99684" lon="4.90332">
        <ele>304</ele>
        <time>2016-11-19T10:05:16Z</time>
      </trkpt>
      <trkpt lat="45.99685" lon="4.90337">
        <ele>302</ele>
        <time>2016-11-19T10:05:17Z</time>
      </trkpt>
      <trkpt lat="45.99684" lon="4.90347">
        <ele>302</ele>
        <time>2016-11-19T10:05:19Z</time>
      </trkpt>
      <trkpt lat="45.99683" lon="4.90353">
        <ele>302</ele>
        <time>2016-11-19T10:05:20Z</time>
      </trkpt>
      <trkpt lat="45.99682" lon="4.90364">
        <ele>302</ele>
        <time>2016-11-19T10:05:22Z</time>
      </trkpt>
      <trkpt lat="45.99681" lon="4.90371">
        <ele>302</ele>
        <time>2016-11-19T10:05:23Z</time>
      </trkpt>
      <trkpt lat="45.99679" lon="4.90379">
        <ele>302</ele>
        <time>2016-11-19T10:05:24Z</time>
      </trkpt>
      <trkpt lat="45.99677" lon="4.90387">
        <ele>302</ele>
        <time>2016-11-19T10:05:25Z</time>
      </trkpt>
      <trkpt lat="45.99676" lon="4.90395">
        <ele>302</ele>
        <time>2016-11-19T10:05:26Z</time>
      </trkpt>
      <trkpt lat="45.99676" lon="4.90403">
        <ele>302</ele>
        <time>2016-11-19T10:05:27Z</time>
      </trkpt>
      <trkpt lat="45.99675" lon="4.90412">
        <ele>301</ele>
        <time>2016-11-19T10:05:28Z</time>
      </trkpt>
      <trkpt lat="45.99673" lon="4.9042">
        <ele>301</ele>
        <time>2016-11-19T10:05:29Z</time>
      </trkpt>
      <trkpt lat="45.99671" lon="4.90426">
        <ele>301</ele>
        <time>2016-11-19T10:05:30Z</time>
      </trkpt>
      <trkpt lat="45.99668" lon="4.90432">
        <ele>300</ele>
        <time>2016-11-19T10:05:31Z</time>
      </trkpt>
      <trkpt lat="45.99664" lon="4.90435">
        <ele>300</ele>
        <time>2016-11-19T10:05:32Z</time>
      </trkpt>
      <trkpt lat="45.99659" lon="4.90438">
        <ele>300</ele>
        <time>2016-11-19T10:05:33Z</time>
      </trkpt>
      <trkpt lat="45.99655" lon="4.9044">
        <ele>300</ele>
        <time>2016-11-19T10:05:34Z</time>
      </trkpt>
      <trkpt lat="45.9965" lon="4.90442">
        <ele>300</ele>
        <time>2016-11-19T10:05:35Z</time>
      </trkpt>
      <trkpt lat="45.99646" lon="4.90444">
        <ele>300</ele>
        <time>2016-11-19T10:05:36Z</time>
      </trkpt>
      <trkpt lat="45.99642" lon="4.90446">
        <ele>300</ele>
        <time>2016-11-19T10:05:37Z</time>
      </trkpt>
      <trkpt lat="45.99633" lon="4.90449">
        <ele>300</ele>
        <time>2016-11-19T10:05:39Z</time>
      </trkpt>
      <trkpt lat="45.99629" lon="4.90451">
        <ele>300</ele>
        <time>2016-11-19T10:05:40Z</time>
      </trkpt>
      <trkpt lat="45.9962" lon="4.9045">
        <ele>300</ele>
        <time>2016-11-19T10:05:42Z</time>
      </trkpt>
      <trkpt lat="45.99615" lon="4.9045">
        <ele>300</ele>
        <time>2016-11-19T10:05:43Z</time>
      </trkpt>
      <trkpt lat="45.99611" lon="4.90451">
        <ele>300</ele>
        <time>2016-11-19T10:05:44Z</time>
      </trkpt>
      <trkpt lat="45.99606" lon="4.90451">
        <ele>300</ele>
        <time>2016-11-19T10:05:45Z</time>
      </trkpt>
      <trkpt lat="45.99601" lon="4.90452">
        <ele>300</ele>
        <time>2016-11-19T10:05:46Z</time>
      </trkpt>
      <trkpt lat="45.99596" lon="4.90452">
        <ele>300</ele>
        <time>2016-11-19T10:05:47Z</time>
      </trkpt>
      <trkpt lat="45.99591" lon="4.90453">
        <ele>300</ele>
        <time>2016-11-19T10:05:48Z</time>
      </trkpt>
      <trkpt lat="45.99585" lon="4.90454">
        <ele>300</ele>
        <time>2016-11-19T10:05:49Z</time>
      </trkpt>
      <trkpt lat="45.9958" lon="4.90456">
        <ele>299</ele>
        <time>2016-11-19T10:05:50Z</time>
      </trkpt>
      <trkpt lat="45.99576" lon="4.90459">
        <ele>299</ele>
        <time>2016-11-19T10:05:51Z</time>
      </trkpt>
      <trkpt lat="45.99572" lon="4.90463">
        <ele>299</ele>
        <time>2016-11-19T10:05:52Z</time>
      </trkpt>
      <trkpt lat="45.99568" lon="4.90468">
        <ele>299</ele>
        <time>2016-11-19T10:05:53Z</time>
      </trkpt>
      <trkpt lat="45.99564" lon="4.90473">
        <ele>299</ele>
        <time>2016-11-19T10:05:54Z</time>
      </trkpt>
      <trkpt lat="45.9956" lon="4.90478">
        <ele>299</ele>
        <time>2016-11-19T10:05:55Z</time>
      </trkpt>
      <trkpt lat="45.99556" lon="4.90483">
        <ele>299</ele>
        <time>2016-11-19T10:05:56Z</time>
      </trkpt>
      <trkpt lat="45.99553" lon="4.90487">
        <ele>299</ele>
        <time>2016-11-19T10:05:57Z</time>
      </trkpt>
      <trkpt lat="45.99549" lon="4.90492">
        <ele>299</ele>
        <time>2016-11-19T10:05:58Z</time>
      </trkpt>
      <trkpt lat="45.99545" lon="4.90497">
        <ele>299</ele>
        <time>2016-11-19T10:05:59Z</time>
      </trkpt>
      <trkpt lat="45.99541" lon="4.90502">
        <ele>299</ele>
        <time>2016-11-19T10:06:00Z</time>
      </trkpt>
      <trkpt lat="45.99537" lon="4.90507">
        <ele>299</ele>
        <time>2016-11-19T10:06:01Z</time>
      </trkpt>
      <trkpt lat="45.99534" lon="4.90512">
        <ele>299</ele>
        <time>2016-11-19T10:06:02Z</time>
      </trkpt>
      <trkpt lat="45.9953" lon="4.90517">
        <ele>299</ele>
        <time>2016-11-19T10:06:03Z</time>
      </trkpt>
      <trkpt lat="45.99526" lon="4.90522">
        <ele>299</ele>
        <time>2016-11-19T10:06:04Z</time>
      </trkpt>
      <trkpt lat="45.99522" lon="4.90526">
        <ele>299</ele>
        <time>2016-11-19T10:06:05Z</time>
      </trkpt>
      <trkpt lat="45.99519" lon="4.9053">
        <ele>299</ele>
        <time>2016-11-19T10:06:06Z</time>
      </trkpt>
      <trkpt lat="45.99515" lon="4.90535">
        <ele>299</ele>
        <time>2016-11-19T10:06:07Z</time>
      </trkpt>
      <trkpt lat="45.99511" lon="4.90539">
        <ele>299</ele>
        <time>2016-11-19T10:06:08Z</time>
      </trkpt>
      <trkpt lat="45.99508" lon="4.90544">
        <ele>299</ele>
        <time>2016-11-19T10:06:09Z</time>
      </trkpt>
      <trkpt lat="45.99504" lon="4.90548">
        <ele>299</ele>
        <time>2016-11-19T10:06:10Z</time>
      </trkpt>
      <trkpt lat="45.99501" lon="4.90552">
        <ele>299</ele>
        <time>2016-11-19T10:06:11Z</time>
      </trkpt>
      <trkpt lat="45.99497" lon="4.90557">
        <ele>299</ele>
        <time>2016-11-19T10:06:12Z</time>
      </trkpt>
      <trkpt lat="45.99493" lon="4.90562">
        <ele>299</ele>
        <time>2016-11-19T10:06:13Z</time>
      </trkpt>
      <trkpt lat="45.99489" lon="4.90566">
        <ele>299</ele>
        <time>2016-11-19T10:06:14Z</time>
      </trkpt>
      <trkpt lat="45.99485" lon="4.90571">
        <ele>299</ele>
        <time>2016-11-19T10:06:15Z</time>
      </trkpt>
      <trkpt lat="45.99482" lon="4.90576">
        <ele>299</ele>
        <time>2016-11-19T10:06:16Z</time>
      </trkpt>
      <trkpt lat="45.99477" lon="4.9058">
        <ele>299</ele>
        <time>2016-11-19T10:06:17Z</time>
      </trkpt>
      <trkpt lat="45.99474" lon="4.90584">
        <ele>298</ele>
        <time>2016-11-19T10:06:18Z</time>
      </trkpt>
      <trkpt lat="45.9947" lon="4.90589">
        <ele>298</ele>
        <time>2016-11-19T10:06:19Z</time>
      </trkpt>
      <trkpt lat="45.99467" lon="4.90593">
        <ele>298</ele>
        <time>2016-11-19T10:06:20Z</time>
      </trkpt>
      <trkpt lat="45.99464" lon="4.90598">
        <ele>298</ele>
        <time>2016-11-19T10:06:21Z</time>
      </trkpt>
      <trkpt lat="45.9946" lon="4.90602">
        <ele>298</ele>
        <time>2016-11-19T10:06:22Z</time>
      </trkpt>
      <trkpt lat="45.99456" lon="4.90607">
        <ele>298</ele>
        <time>2016-11-19T10:06:23Z</time>
      </trkpt>
      <trkpt lat="45.99453" lon="4.90611">
        <ele>298</ele>
        <time>2016-11-19T10:06:24Z</time>
      </trkpt>
      <trkpt lat="45.99449" lon="4.90615">
        <ele>298</ele>
        <time>2016-11-19T10:06:25Z</time>
      </trkpt>
      <trkpt lat="45.99446" lon="4.90619">
        <ele>298</ele>
        <time>2016-11-19T10:06:26Z</time>
      </trkpt>
      <trkpt lat="45.99442" lon="4.90623">
        <ele>298</ele>
        <time>2016-11-19T10:06:27Z</time>
      </trkpt>
      <trkpt lat="45.99439" lon="4.90628">
        <ele>298</ele>
        <time>2016-11-19T10:06:28Z</time>
      </trkpt>
      <trkpt lat="45.99435" lon="4.90633">
        <ele>298</ele>
        <time>2016-11-19T10:06:29Z</time>
      </trkpt>
      <trkpt lat="45.99431" lon="4.90638">
        <ele>298</ele>
        <time>2016-11-19T10:06:30Z</time>
      </trkpt>
      <trkpt lat="45.99424" lon="4.90646">
        <ele>298</ele>
        <time>2016-11-19T10:06:32Z</time>
      </trkpt>
      <trkpt lat="45.9942" lon="4.90651">
        <ele>298</ele>
        <time>2016-11-19T10:06:33Z</time>
      </trkpt>
      <trkpt lat="45.99416" lon="4.90656">
        <ele>298</ele>
        <time>2016-11-19T10:06:34Z</time>
      </trkpt>
      <trkpt lat="45.99412" lon="4.90661">
        <ele>298</ele>
        <time>2016-11-19T10:06:35Z</time>
      </trkpt>
      <trkpt lat="45.99409" lon="4.90665">
        <ele>298</ele>
        <time>2016-11-19T10:06:36Z</time>
      </trkpt>
      <trkpt lat="45.99404" lon="4.9067">
        <ele>298</ele>
        <time>2016-11-19T10:06:37Z</time>
      </trkpt>
      <trkpt lat="45.99401" lon="4.90675">
        <ele>298</ele>
        <time>2016-11-19T10:06:38Z</time>
      </trkpt>
      <trkpt lat="45.99396" lon="4.9068">
        <ele>298</ele>
        <time>2016-11-19T10:06:39Z</time>
      </trkpt>
      <trkpt lat="45.99392" lon="4.90685">
        <ele>298</ele>
        <time>2016-11-19T10:06:40Z</time>
      </trkpt>
      <trkpt lat="45.99388" lon="4.9069">
        <ele>298</ele>
        <time>2016-11-19T10:06:41Z</time>
      </trkpt>
      <trkpt lat="45.99384" lon="4.90695">
        <ele>298</ele>
        <time>2016-11-19T10:06:42Z</time>
      </trkpt>
      <trkpt lat="45.9938" lon="4.90699">
        <ele>298</ele>
        <time>2016-11-19T10:06:43Z</time>
      </trkpt>
      <trkpt lat="45.99376" lon="4.90704">
        <ele>298</ele>
        <time>2016-11-19T10:06:44Z</time>
      </trkpt>
      <trkpt lat="45.99372" lon="4.90709">
        <ele>299</ele>
        <time>2016-11-19T10:06:45Z</time>
      </trkpt>
      <trkpt lat="45.99368" lon="4.90714">
        <ele>299</ele>
        <time>2016-11-19T10:06:46Z</time>
      </trkpt>
      <trkpt lat="45.99364" lon="4.90719">
        <ele>299</ele>
        <time>2016-11-19T10:06:47Z</time>
      </trkpt>
      <trkpt lat="45.9936" lon="4.90724">
        <ele>299</ele>
        <time>2016-11-19T10:06:48Z</time>
      </trkpt>
      <trkpt lat="45.99356" lon="4.90729">
        <ele>299</ele>
        <time>2016-11-19T10:06:49Z</time>
      </trkpt>
      <trkpt lat="45.99352" lon="4.90734">
        <ele>299</ele>
        <time>2016-11-19T10:06:50Z</time>
      </trkpt>
      <trkpt lat="45.99348" lon="4.90739">
        <ele>299</ele>
        <time>2016-11-19T10:06:51Z</time>
      </trkpt>
      <trkpt lat="45.99344" lon="4.90743">
        <ele>299</ele>
        <time>2016-11-19T10:06:52Z</time>
      </trkpt>
      <trkpt lat="45.9934" lon="4.90748">
        <ele>300</ele>
        <time>2016-11-19T10:06:53Z</time>
      </trkpt>
      <trkpt lat="45.99336" lon="4.90752">
        <ele>300</ele>
        <time>2016-11-19T10:06:54Z</time>
      </trkpt>
      <trkpt lat="45.99333" lon="4.90756">
        <ele>300</ele>
        <time>2016-11-19T10:06:55Z</time>
      </trkpt>
      <trkpt lat="45.99329" lon="4.90761">
        <ele>300</ele>
        <time>2016-11-19T10:06:56Z</time>
      </trkpt>
      <trkpt lat="45.99326" lon="4.90766">
        <ele>300</ele>
        <time>2016-11-19T10:06:57Z</time>
      </trkpt>
      <trkpt lat="45.99323" lon="4.9077">
        <ele>300</ele>
        <time>2016-11-19T10:06:58Z</time>
      </trkpt>
      <trkpt lat="45.99317" lon="4.90778">
        <ele>300</ele>
        <time>2016-11-19T10:07:00Z</time>
      </trkpt>
      <trkpt lat="45.99313" lon="4.90782">
        <ele>300</ele>
        <time>2016-11-19T10:07:01Z</time>
      </trkpt>
      <trkpt lat="45.99309" lon="4.90787">
        <ele>300</ele>
        <time>2016-11-19T10:07:02Z</time>
      </trkpt>
      <trkpt lat="45.99305" lon="4.90791">
        <ele>300</ele>
        <time>2016-11-19T10:07:03Z</time>
      </trkpt>
      <trkpt lat="45.99301" lon="4.90796">
        <ele>300</ele>
        <time>2016-11-19T10:07:04Z</time>
      </trkpt>
      <trkpt lat="45.99297" lon="4.90801">
        <ele>300</ele>
        <time>2016-11-19T10:07:05Z</time>
      </trkpt>
      <trkpt lat="45.99293" lon="4.90805">
        <ele>300</ele>
        <time>2016-11-19T10:07:06Z</time>
      </trkpt>
      <trkpt lat="45.99289" lon="4.9081">
        <ele>300</ele>
        <time>2016-11-19T10:07:07Z</time>
      </trkpt>
      <trkpt lat="45.99285" lon="4.90815">
        <ele>300</ele>
        <time>2016-11-19T10:07:08Z</time>
      </trkpt>
      <trkpt lat="45.99281" lon="4.90819">
        <ele>300</ele>
        <time>2016-11-19T10:07:09Z</time>
      </trkpt>
      <trkpt lat="45.99278" lon="4.90824">
        <ele>300</ele>
        <time>2016-11-19T10:07:10Z</time>
      </trkpt>
      <trkpt lat="45.99274" lon="4.90828">
        <ele>300</ele>
        <time>2016-11-19T10:07:11Z</time>
      </trkpt>
      <trkpt lat="45.99268" lon="4.90837">
        <ele>300</ele>
        <time>2016-11-19T10:07:13Z</time>
      </trkpt>
      <trkpt lat="45.99265" lon="4.9084">
        <ele>300</ele>
        <time>2016-11-19T10:07:14Z</time>
      </trkpt>
      <trkpt lat="45.99259" lon="4.90848">
        <ele>300</ele>
        <time>2016-11-19T10:07:16Z</time>
      </trkpt>
      <trkpt lat="45.99256" lon="4.90852">
        <ele>300</ele>
        <time>2016-11-19T10:07:17Z</time>
      </trkpt>
      <trkpt lat="45.9925" lon="4.9086">
        <ele>300</ele>
        <time>2016-11-19T10:07:19Z</time>
      </trkpt>
      <trkpt lat="45.99246" lon="4.90864">
        <ele>300</ele>
        <time>2016-11-19T10:07:20Z</time>
      </trkpt>
      <trkpt lat="45.99243" lon="4.90868">
        <ele>300</ele>
        <time>2016-11-19T10:07:21Z</time>
      </trkpt>
      <trkpt lat="45.99239" lon="4.90872">
        <ele>300</ele>
        <time>2016-11-19T10:07:22Z</time>
      </trkpt>
      <trkpt lat="45.99235" lon="4.90876">
        <ele>299</ele>
        <time>2016-11-19T10:07:23Z</time>
      </trkpt>
      <trkpt lat="45.99232" lon="4.90881">
        <ele>299</ele>
        <time>2016-11-19T10:07:24Z</time>
      </trkpt>
      <trkpt lat="45.99228" lon="4.90885">
        <ele>299</ele>
        <time>2016-11-19T10:07:25Z</time>
      </trkpt>
      <trkpt lat="45.99225" lon="4.9089">
        <ele>299</ele>
        <time>2016-11-19T10:07:26Z</time>
      </trkpt>
      <trkpt lat="45.99222" lon="4.90894">
        <ele>299</ele>
        <time>2016-11-19T10:07:27Z</time>
      </trkpt>
      <trkpt lat="45.99218" lon="4.90899">
        <ele>299</ele>
        <time>2016-11-19T10:07:28Z</time>
      </trkpt>
      <trkpt lat="45.99215" lon="4.90903">
        <ele>299</ele>
        <time>2016-11-19T10:07:29Z</time>
      </trkpt>
      <trkpt lat="45.99211" lon="4.90908">
        <ele>299</ele>
        <time>2016-11-19T10:07:30Z</time>
      </trkpt>
      <trkpt lat="45.99207" lon="4.90912">
        <ele>300</ele>
        <time>2016-11-19T10:07:31Z</time>
      </trkpt>
      <trkpt lat="45.99202" lon="4.90917">
        <ele>300</ele>
        <time>2016-11-19T10:07:32Z</time>
      </trkpt>
      <trkpt lat="45.99198" lon="4.90922">
        <ele>300</ele>
        <time>2016-11-19T10:07:33Z</time>
      </trkpt>
      <trkpt lat="45.99194" lon="4.90927">
        <ele>300</ele>
        <time>2016-11-19T10:07:34Z</time>
      </trkpt>
      <trkpt lat="45.9919" lon="4.90932">
        <ele>300</ele>
        <time>2016-11-19T10:07:35Z</time>
      </trkpt>
      <trkpt lat="45.99186" lon="4.90937">
        <ele>300</ele>
        <time>2016-11-19T10:07:36Z</time>
      </trkpt>
      <trkpt lat="45.99182" lon="4.90942">
        <ele>300</ele>
        <time>2016-11-19T10:07:37Z</time>
      </trkpt>
      <trkpt lat="45.99179" lon="4.90946">
        <ele>300</ele>
        <time>2016-11-19T10:07:38Z</time>
      </trkpt>
      <trkpt lat="45.99175" lon="4.90951">
        <ele>300</ele>
        <time>2016-11-19T10:07:39Z</time>
      </trkpt>
      <trkpt lat="45.99172" lon="4.90955">
        <ele>300</ele>
        <time>2016-11-19T10:07:40Z</time>
      </trkpt>
      <trkpt lat="45.99165" lon="4.90963">
        <ele>300</ele>
        <time>2016-11-19T10:07:42Z</time>
      </trkpt>
      <trkpt lat="45.99162" lon="4.90967">
        <ele>300</ele>
        <time>2016-11-19T10:07:43Z</time>
      </trkpt>
      <trkpt lat="45.99158" lon="4.90971">
        <ele>300</ele>
        <time>2016-11-19T10:07:44Z</time>
      </trkpt>
      <trkpt lat="45.99155" lon="4.90976">
        <ele>301</ele>
        <time>2016-11-19T10:07:45Z</time>
      </trkpt>
      <trkpt lat="45.99152" lon="4.90979">
        <ele>301</ele>
        <time>2016-11-19T10:07:46Z</time>
      </trkpt>
      <trkpt lat="45.99148" lon="4.90984">
        <ele>301</ele>
        <time>2016-11-19T10:07:47Z</time>
      </trkpt>
      <trkpt lat="45.99144" lon="4.90989">
        <ele>301</ele>
        <time>2016-11-19T10:07:48Z</time>
      </trkpt>
      <trkpt lat="45.9914" lon="4.90994">
        <ele>301</ele>
        <time>2016-11-19T10:07:49Z</time>
      </trkpt>
      <trkpt lat="45.99136" lon="4.90998">
        <ele>301</ele>
        <time>2016-11-19T10:07:50Z</time>
      </trkpt>
      <trkpt lat="45.99132" lon="4.91003">
        <ele>301</ele>
        <time>2016-11-19T10:07:51Z</time>
      </trkpt>
      <trkpt lat="45.99128" lon="4.91008">
        <ele>301</ele>
        <time>2016-11-19T10:07:52Z</time>
      </trkpt>
      <trkpt lat="45.99125" lon="4.91013">
        <ele>301</ele>
        <time>2016-11-19T10:07:53Z</time>
      </trkpt>
      <trkpt lat="45.99121" lon="4.91017">
        <ele>301</ele>
        <time>2016-11-19T10:07:54Z</time>
      </trkpt>
      <trkpt lat="45.99118" lon="4.91022">
        <ele>301</ele>
        <time>2016-11-19T10:07:55Z</time>
      </trkpt>
      <trkpt lat="45.99114" lon="4.91026">
        <ele>301</ele>
        <time>2016-11-19T10:07:56Z</time>
      </trkpt>
      <trkpt lat="45.9911" lon="4.91031">
        <ele>301</ele>
        <time>2016-11-19T10:07:57Z</time>
      </trkpt>
      <trkpt lat="45.99107" lon="4.91036">
        <ele>301</ele>
        <time>2016-11-19T10:07:58Z</time>
      </trkpt>
      <trkpt lat="45.99103" lon="4.91041">
        <ele>301</ele>
        <time>2016-11-19T10:07:59Z</time>
      </trkpt>
      <trkpt lat="45.99099" lon="4.91045">
        <ele>301</ele>
        <time>2016-11-19T10:08:00Z</time>
      </trkpt>
      <trkpt lat="45.99095" lon="4.9105">
        <ele>301</ele>
        <time>2016-11-19T10:08:01Z</time>
      </trkpt>
      <trkpt lat="45.99091" lon="4.91054">
        <ele>301</ele>
        <time>2016-11-19T10:08:02Z</time>
      </trkpt>
      <trkpt lat="45.99087" lon="4.91059">
        <ele>300</ele>
        <time>2016-11-19T10:08:03Z</time>
      </trkpt>
      <trkpt lat="45.99083" lon="4.91064">
        <ele>300</ele>
        <time>2016-11-19T10:08:04Z</time>
      </trkpt>
      <trkpt lat="45.99079" lon="4.91069">
        <ele>300</ele>
        <time>2016-11-19T10:08:05Z</time>
      </trkpt>
      <trkpt lat="45.99075" lon="4.91074">
        <ele>300</ele>
        <time>2016-11-19T10:08:06Z</time>
      </trkpt>
      <trkpt lat="45.99071" lon="4.9108">
        <ele>300</ele>
        <time>2016-11-19T10:08:07Z</time>
      </trkpt>
      <trkpt lat="45.99068" lon="4.91085">
        <ele>300</ele>
        <time>2016-11-19T10:08:08Z</time>
      </trkpt>
      <trkpt lat="45.99064" lon="4.9109">
        <ele>300</ele>
        <time>2016-11-19T10:08:09Z</time>
      </trkpt>
      <trkpt lat="45.99059" lon="4.91095">
        <ele>299</ele>
        <time>2016-11-19T10:08:10Z</time>
      </trkpt>
      <trkpt lat="45.99055" lon="4.911">
        <ele>299</ele>
        <time>2016-11-19T10:08:11Z</time>
      </trkpt>
      <trkpt lat="45.99051" lon="4.91105">
        <ele>299</ele>
        <time>2016-11-19T10:08:12Z</time>
      </trkpt>
      <trkpt lat="45.99047" lon="4.9111">
        <ele>299</ele>
        <time>2016-11-19T10:08:13Z</time>
      </trkpt>
      <trkpt lat="45.99043" lon="4.91116">
        <ele>299</ele>
        <time>2016-11-19T10:08:14Z</time>
      </trkpt>
      <trkpt lat="45.99038" lon="4.91121">
        <ele>299</ele>
        <time>2016-11-19T10:08:15Z</time>
      </trkpt>
      <trkpt lat="45.99034" lon="4.91126">
        <ele>299</ele>
        <time>2016-11-19T10:08:16Z</time>
      </trkpt>
      <trkpt lat="45.99029" lon="4.91131">
        <ele>299</ele>
        <time>2016-11-19T10:08:17Z</time>
      </trkpt>
      <trkpt lat="45.99025" lon="4.91136">
        <ele>299</ele>
        <time>2016-11-19T10:08:18Z</time>
      </trkpt>
      <trkpt lat="45.9902" lon="4.91142">
        <ele>299</ele>
        <time>2016-11-19T10:08:19Z</time>
      </trkpt>
      <trkpt lat="45.99016" lon="4.91147">
        <ele>299</ele>
        <time>2016-11-19T10:08:20Z</time>
      </trkpt>
      <trkpt lat="45.99011" lon="4.91153">
        <ele>299</ele>
        <time>2016-11-19T10:08:21Z</time>
      </trkpt>
      <trkpt lat="45.99007" lon="4.91158">
        <ele>299</ele>
        <time>2016-11-19T10:08:22Z</time>
      </trkpt>
      <trkpt lat="45.99002" lon="4.91164">
        <ele>299</ele>
        <time>2016-11-19T10:08:23Z</time>
      </trkpt>
      <trkpt lat="45.98999" lon="4.9117">
        <ele>299</ele>
        <time>2016-11-19T10:08:24Z</time>
      </trkpt>
      <trkpt lat="45.98995" lon="4.91176">
        <ele>299</ele>
        <time>2016-11-19T10:08:25Z</time>
      </trkpt>
      <trkpt lat="45.98991" lon="4.9118">
        <ele>299</ele>
        <time>2016-11-19T10:08:26Z</time>
      </trkpt>
      <trkpt lat="45.98987" lon="4.91185">
        <ele>299</ele>
        <time>2016-11-19T10:08:27Z</time>
      </trkpt>
      <trkpt lat="45.98984" lon="4.91189">
        <ele>299</ele>
        <time>2016-11-19T10:08:28Z</time>
      </trkpt>
      <trkpt lat="45.9898" lon="4.91194">
        <ele>299</ele>
        <time>2016-11-19T10:08:29Z</time>
      </trkpt>
      <trkpt lat="45.98977" lon="4.91199">
        <ele>299</ele>
        <time>2016-11-19T10:08:30Z</time>
      </trkpt>
      <trkpt lat="45.98973" lon="4.91204">
        <ele>299</ele>
        <time>2016-11-19T10:08:31Z</time>
      </trkpt>
      <trkpt lat="45.98969" lon="4.91208">
        <ele>299</ele>
        <time>2016-11-19T10:08:32Z</time>
      </trkpt>
      <trkpt lat="45.98965" lon="4.91212">
        <ele>299</ele>
        <time>2016-11-19T10:08:33Z</time>
      </trkpt>
      <trkpt lat="45.98961" lon="4.91217">
        <ele>299</ele>
        <time>2016-11-19T10:08:34Z</time>
      </trkpt>
      <trkpt lat="45.98957" lon="4.91221">
        <ele>299</ele>
        <time>2016-11-19T10:08:35Z</time>
      </trkpt>
      <trkpt lat="45.98954" lon="4.91226">
        <ele>299</ele>
        <time>2016-11-19T10:08:36Z</time>
      </trkpt>
      <trkpt lat="45.9895" lon="4.9123">
        <ele>299</ele>
        <time>2016-11-19T10:08:37Z</time>
      </trkpt>
      <trkpt lat="45.98946" lon="4.91234">
        <ele>299</ele>
        <time>2016-11-19T10:08:38Z</time>
      </trkpt>
      <trkpt lat="45.98942" lon="4.91238">
        <ele>299</ele>
        <time>2016-11-19T10:08:39Z</time>
      </trkpt>
      <trkpt lat="45.98938" lon="4.91243">
        <ele>299</ele>
        <time>2016-11-19T10:08:40Z</time>
      </trkpt>
      <trkpt lat="45.98935" lon="4.91247">
        <ele>299</ele>
        <time>2016-11-19T10:08:41Z</time>
      </trkpt>
      <trkpt lat="45.98931" lon="4.91252">
        <ele>299</ele>
        <time>2016-11-19T10:08:42Z</time>
      </trkpt>
      <trkpt lat="45.98927" lon="4.91257">
        <ele>299</ele>
        <time>2016-11-19T10:08:43Z</time>
      </trkpt>
      <trkpt lat="45.98923" lon="4.91261">
        <ele>299</ele>
        <time>2016-11-19T10:08:44Z</time>
      </trkpt>
      <trkpt lat="45.98919" lon="4.91266">
        <ele>299</ele>
        <time>2016-11-19T10:08:45Z</time>
      </trkpt>
      <trkpt lat="45.98916" lon="4.91271">
        <ele>299</ele>
        <time>2016-11-19T10:08:46Z</time>
      </trkpt>
      <trkpt lat="45.98912" lon="4.91276">
        <ele>299</ele>
        <time>2016-11-19T10:08:47Z</time>
      </trkpt>
      <trkpt lat="45.98908" lon="4.91281">
        <ele>299</ele>
        <time>2016-11-19T10:08:48Z</time>
      </trkpt>
      <trkpt lat="45.98903" lon="4.91285">
        <ele>299</ele>
        <time>2016-11-19T10:08:49Z</time>
      </trkpt>
      <trkpt lat="45.98899" lon="4.9129">
        <ele>299</ele>
        <time>2016-11-19T10:08:50Z</time>
      </trkpt>
      <trkpt lat="45.98895" lon="4.91295">
        <ele>299</ele>
        <time>2016-11-19T10:08:51Z</time>
      </trkpt>
      <trkpt lat="45.98891" lon="4.91301">
        <ele>299</ele>
        <time>2016-11-19T10:08:52Z</time>
      </trkpt>
      <trkpt lat="45.98887" lon="4.91307">
        <ele>299</ele>
        <time>2016-11-19T10:08:53Z</time>
      </trkpt>
      <trkpt lat="45.98882" lon="4.91312">
        <ele>299</ele>
        <time>2016-11-19T10:08:54Z</time>
      </trkpt>
      <trkpt lat="45.98878" lon="4.91317">
        <ele>299</ele>
        <time>2016-11-19T10:08:55Z</time>
      </trkpt>
      <trkpt lat="45.98873" lon="4.91322">
        <ele>298</ele>
        <time>2016-11-19T10:08:56Z</time>
      </trkpt>
      <trkpt lat="45.98869" lon="4.91327">
        <ele>298</ele>
        <time>2016-11-19T10:08:57Z</time>
      </trkpt>
      <trkpt lat="45.98865" lon="4.91333">
        <ele>298</ele>
        <time>2016-11-19T10:08:58Z</time>
      </trkpt>
      <trkpt lat="45.98862" lon="4.91338">
        <ele>298</ele>
        <time>2016-11-19T10:08:59Z</time>
      </trkpt>
      <trkpt lat="45.98858" lon="4.91344">
        <ele>298</ele>
        <time>2016-11-19T10:09:00Z</time>
      </trkpt>
      <trkpt lat="45.98854" lon="4.91349">
        <ele>298</ele>
        <time>2016-11-19T10:09:01Z</time>
      </trkpt>
      <trkpt lat="45.9885" lon="4.91354">
        <ele>298</ele>
        <time>2016-11-19T10:09:02Z</time>
      </trkpt>
      <trkpt lat="45.98846" lon="4.91359">
        <ele>298</ele>
        <time>2016-11-19T10:09:03Z</time>
      </trkpt>
      <trkpt lat="45.98842" lon="4.91364">
        <ele>298</ele>
        <time>2016-11-19T10:09:04Z</time>
      </trkpt>
      <trkpt lat="45.98837" lon="4.91369">
        <ele>298</ele>
        <time>2016-11-19T10:09:05Z</time>
      </trkpt>
      <trkpt lat="45.98833" lon="4.91374">
        <ele>298</ele>
        <time>2016-11-19T10:09:06Z</time>
      </trkpt>
      <trkpt lat="45.98829" lon="4.91379">
        <ele>298</ele>
        <time>2016-11-19T10:09:07Z</time>
      </trkpt>
      <trkpt lat="45.98825" lon="4.91384">
        <ele>298</ele>
        <time>2016-11-19T10:09:08Z</time>
      </trkpt>
      <trkpt lat="45.98821" lon="4.91389">
        <ele>298</ele>
        <time>2016-11-19T10:09:09Z</time>
      </trkpt>
      <trkpt lat="45.98817" lon="4.91395">
        <ele>298</ele>
        <time>2016-11-19T10:09:10Z</time>
      </trkpt>
      <trkpt lat="45.98813" lon="4.914">
        <ele>298</ele>
        <time>2016-11-19T10:09:11Z</time>
      </trkpt>
      <trkpt lat="45.98808" lon="4.91405">
        <ele>299</ele>
        <time>2016-11-19T10:09:12Z</time>
      </trkpt>
      <trkpt lat="45.98804" lon="4.9141">
        <ele>299</ele>
        <time>2016-11-19T10:09:13Z</time>
      </trkpt>
      <trkpt lat="45.98799" lon="4.91415">
        <ele>299</ele>
        <time>2016-11-19T10:09:14Z</time>
      </trkpt>
      <trkpt lat="45.98795" lon="4.91421">
        <ele>298</ele>
        <time>2016-11-19T10:09:15Z</time>
      </trkpt>
      <trkpt lat="45.9879" lon="4.91426">
        <ele>298</ele>
        <time>2016-11-19T10:09:16Z</time>
      </trkpt>
      <trkpt lat="45.98785" lon="4.91432">
        <ele>298</ele>
        <time>2016-11-19T10:09:17Z</time>
      </trkpt>
      <trkpt lat="45.98781" lon="4.91437">
        <ele>298</ele>
        <time>2016-11-19T10:09:18Z</time>
      </trkpt>
      <trkpt lat="45.98776" lon="4.91443">
        <ele>298</ele>
        <time>2016-11-19T10:09:19Z</time>
      </trkpt>
      <trkpt lat="45.98772" lon="4.91448">
        <ele>298</ele>
        <time>2016-11-19T10:09:20Z</time>
      </trkpt>
      <trkpt lat="45.98768" lon="4.91454">
        <ele>298</ele>
        <time>2016-11-19T10:09:21Z</time>
      </trkpt>
      <trkpt lat="45.98763" lon="4.9146">
        <ele>298</ele>
        <time>2016-11-19T10:09:22Z</time>
      </trkpt>
      <trkpt lat="45.98758" lon="4.91465">
        <ele>298</ele>
        <time>2016-11-19T10:09:23Z</time>
      </trkpt>
      <trkpt lat="45.98754" lon="4.9147">
        <ele>298</ele>
        <time>2016-11-19T10:09:24Z</time>
      </trkpt>
      <trkpt lat="45.98749" lon="4.91476">
        <ele>299</ele>
        <time>2016-11-19T10:09:25Z</time>
      </trkpt>
      <trkpt lat="45.98744" lon="4.91481">
        <ele>299</ele>
        <time>2016-11-19T10:09:26Z</time>
      </trkpt>
      <trkpt lat="45.9874" lon="4.91487">
        <ele>299</ele>
        <time>2016-11-19T10:09:27Z</time>
      </trkpt>
      <trkpt lat="45.98735" lon="4.91493">
        <ele>299</ele>
        <time>2016-11-19T10:09:28Z</time>
      </trkpt>
      <trkpt lat="45.98731" lon="4.91498">
        <ele>299</ele>
        <time>2016-11-19T10:09:29Z</time>
      </trkpt>
      <trkpt lat="45.98727" lon="4.91504">
        <ele>299</ele>
        <time>2016-11-19T10:09:30Z</time>
      </trkpt>
      <trkpt lat="45.98722" lon="4.91509">
        <ele>299</ele>
        <time>2016-11-19T10:09:31Z</time>
      </trkpt>
      <trkpt lat="45.98718" lon="4.91515">
        <ele>299</ele>
        <time>2016-11-19T10:09:32Z</time>
      </trkpt>
      <trkpt lat="45.98713" lon="4.9152">
        <ele>299</ele>
        <time>2016-11-19T10:09:33Z</time>
      </trkpt>
      <trkpt lat="45.98708" lon="4.91526">
        <ele>299</ele>
        <time>2016-11-19T10:09:34Z</time>
      </trkpt>
      <trkpt lat="45.98703" lon="4.91532">
        <ele>299</ele>
        <time>2016-11-19T10:09:35Z</time>
      </trkpt>
      <trkpt lat="45.98698" lon="4.91538">
        <ele>299</ele>
        <time>2016-11-19T10:09:36Z</time>
      </trkpt>
      <trkpt lat="45.98693" lon="4.91544">
        <ele>299</ele>
        <time>2016-11-19T10:09:37Z</time>
      </trkpt>
      <trkpt lat="45.98688" lon="4.91551">
        <ele>299</ele>
        <time>2016-11-19T10:09:38Z</time>
      </trkpt>
      <trkpt lat="45.98683" lon="4.91557">
        <ele>299</ele>
        <time>2016-11-19T10:09:39Z</time>
      </trkpt>
      <trkpt lat="45.98678" lon="4.91563">
        <ele>299</ele>
        <time>2016-11-19T10:09:40Z</time>
      </trkpt>
      <trkpt lat="45.98673" lon="4.91568">
        <ele>299</ele>
        <time>2016-11-19T10:09:41Z</time>
      </trkpt>
      <trkpt lat="45.98668" lon="4.91573">
        <ele>299</ele>
        <time>2016-11-19T10:09:42Z</time>
      </trkpt>
      <trkpt lat="45.98664" lon="4.91579">
        <ele>299</ele>
        <time>2016-11-19T10:09:43Z</time>
      </trkpt>
      <trkpt lat="45.9866" lon="4.91584">
        <ele>299</ele>
        <time>2016-11-19T10:09:44Z</time>
      </trkpt>
      <trkpt lat="45.98655" lon="4.91589">
        <ele>299</ele>
        <time>2016-11-19T10:09:45Z</time>
      </trkpt>
      <trkpt lat="45.98651" lon="4.91594">
        <ele>299</ele>
        <time>2016-11-19T10:09:46Z</time>
      </trkpt>
      <trkpt lat="45.98647" lon="4.91599">
        <ele>298</ele>
        <time>2016-11-19T10:09:47Z</time>
      </trkpt>
      <trkpt lat="45.98643" lon="4.91605">
        <ele>298</ele>
        <time>2016-11-19T10:09:48Z</time>
      </trkpt>
      <trkpt lat="45.98639" lon="4.9161">
        <ele>298</ele>
        <time>2016-11-19T10:09:49Z</time>
      </trkpt>
      <trkpt lat="45.98634" lon="4.91615">
        <ele>298</ele>
        <time>2016-11-19T10:09:50Z</time>
      </trkpt>
      <trkpt lat="45.98629" lon="4.9162">
        <ele>298</ele>
        <time>2016-11-19T10:09:51Z</time>
      </trkpt>
      <trkpt lat="45.98623" lon="4.91626">
        <ele>298</ele>
        <time>2016-11-19T10:09:52Z</time>
      </trkpt>
      <trkpt lat="45.98618" lon="4.91632">
        <ele>298</ele>
        <time>2016-11-19T10:09:53Z</time>
      </trkpt>
      <trkpt lat="45.98613" lon="4.91638">
        <ele>298</ele>
        <time>2016-11-19T10:09:54Z</time>
      </trkpt>
      <trkpt lat="45.98608" lon="4.91644">
        <ele>298</ele>
        <time>2016-11-19T10:09:55Z</time>
      </trkpt>
      <trkpt lat="45.98604" lon="4.9165">
        <ele>298</ele>
        <time>2016-11-19T10:09:56Z</time>
      </trkpt>
      <trkpt lat="45.98599" lon="4.91656">
        <ele>298</ele>
        <time>2016-11-19T10:09:57Z</time>
      </trkpt>
      <trkpt lat="45.98594" lon="4.91662">
        <ele>298</ele>
        <time>2016-11-19T10:09:58Z</time>
      </trkpt>
      <trkpt lat="45.98589" lon="4.91668">
        <ele>298</ele>
        <time>2016-11-19T10:09:59Z</time>
      </trkpt>
      <trkpt lat="45.98585" lon="4.91674">
        <ele>298</ele>
        <time>2016-11-19T10:10:00Z</time>
      </trkpt>
      <trkpt lat="45.98581" lon="4.9168">
        <ele>298</ele>
        <time>2016-11-19T10:10:01Z</time>
      </trkpt>
      <trkpt lat="45.98576" lon="4.91685">
        <ele>298</ele>
        <time>2016-11-19T10:10:02Z</time>
      </trkpt>
      <trkpt lat="45.98572" lon="4.91689">
        <ele>298</ele>
        <time>2016-11-19T10:10:03Z</time>
      </trkpt>
      <trkpt lat="45.98568" lon="4.91694">
        <ele>298</ele>
        <time>2016-11-19T10:10:04Z</time>
      </trkpt>
      <trkpt lat="45.98564" lon="4.91698">
        <ele>298</ele>
        <time>2016-11-19T10:10:05Z</time>
      </trkpt>
      <trkpt lat="45.98561" lon="4.91703">
        <ele>298</ele>
        <time>2016-11-19T10:10:06Z</time>
      </trkpt>
      <trkpt lat="45.98557" lon="4.91708">
        <ele>298</ele>
        <time>2016-11-19T10:10:07Z</time>
      </trkpt>
      <trkpt lat="45.98554" lon="4.91712">
        <ele>298</ele>
        <time>2016-11-19T10:10:08Z</time>
      </trkpt>
      <trkpt lat="45.9855" lon="4.91716">
        <ele>298</ele>
        <time>2016-11-19T10:10:09Z</time>
      </trkpt>
      <trkpt lat="45.98546" lon="4.91721">
        <ele>298</ele>
        <time>2016-11-19T10:10:10Z</time>
      </trkpt>
      <trkpt lat="45.98541" lon="4.91726">
        <ele>297</ele>
        <time>2016-11-19T10:10:11Z</time>
      </trkpt>
      <trkpt lat="45.98537" lon="4.91732">
        <ele>297</ele>
        <time>2016-11-19T10:10:12Z</time>
      </trkpt>
      <trkpt lat="45.98533" lon="4.91737">
        <ele>297</ele>
        <time>2016-11-19T10:10:13Z</time>
      </trkpt>
      <trkpt lat="45.98528" lon="4.91742">
        <ele>297</ele>
        <time>2016-11-19T10:10:14Z</time>
      </trkpt>
      <trkpt lat="45.98524" lon="4.91748">
        <ele>297</ele>
        <time>2016-11-19T10:10:15Z</time>
      </trkpt>
      <trkpt lat="45.98519" lon="4.91753">
        <ele>297</ele>
        <time>2016-11-19T10:10:16Z</time>
      </trkpt>
      <trkpt lat="45.98515" lon="4.91758">
        <ele>297</ele>
        <time>2016-11-19T10:10:17Z</time>
      </trkpt>
      <trkpt lat="45.98511" lon="4.91763">
        <ele>297</ele>
        <time>2016-11-19T10:10:18Z</time>
      </trkpt>
      <trkpt lat="45.98507" lon="4.91768">
        <ele>297</ele>
        <time>2016-11-19T10:10:19Z</time>
      </trkpt>
      <trkpt lat="45.98503" lon="4.91773">
        <ele>297</ele>
        <time>2016-11-19T10:10:20Z</time>
      </trkpt>
      <trkpt lat="45.98499" lon="4.91778">
        <ele>297</ele>
        <time>2016-11-19T10:10:21Z</time>
      </trkpt>
      <trkpt lat="45.98495" lon="4.91783">
        <ele>297</ele>
        <time>2016-11-19T10:10:22Z</time>
      </trkpt>
      <trkpt lat="45.98491" lon="4.91788">
        <ele>297</ele>
        <time>2016-11-19T10:10:23Z</time>
      </trkpt>
      <trkpt lat="45.98486" lon="4.91793">
        <ele>297</ele>
        <time>2016-11-19T10:10:24Z</time>
      </trkpt>
      <trkpt lat="45.98483" lon="4.91799">
        <ele>297</ele>
        <time>2016-11-19T10:10:25Z</time>
      </trkpt>
      <trkpt lat="45.98479" lon="4.91804">
        <ele>297</ele>
        <time>2016-11-19T10:10:26Z</time>
      </trkpt>
      <trkpt lat="45.98475" lon="4.91809">
        <ele>297</ele>
        <time>2016-11-19T10:10:27Z</time>
      </trkpt>
      <trkpt lat="45.98471" lon="4.91813">
        <ele>297</ele>
        <time>2016-11-19T10:10:28Z</time>
      </trkpt>
      <trkpt lat="45.98467" lon="4.91818">
        <ele>297</ele>
        <time>2016-11-19T10:10:29Z</time>
      </trkpt>
      <trkpt lat="45.98463" lon="4.91823">
        <ele>297</ele>
        <time>2016-11-19T10:10:30Z</time>
      </trkpt>
      <trkpt lat="45.98458" lon="4.91828">
        <ele>297</ele>
        <time>2016-11-19T10:10:31Z</time>
      </trkpt>
      <trkpt lat="45.98454" lon="4.91833">
        <ele>297</ele>
        <time>2016-11-19T10:10:32Z</time>
      </trkpt>
      <trkpt lat="45.9845" lon="4.91838">
        <ele>297</ele>
        <time>2016-11-19T10:10:33Z</time>
      </trkpt>
      <trkpt lat="45.98446" lon="4.91843">
        <ele>297</ele>
        <time>2016-11-19T10:10:34Z</time>
      </trkpt>
      <trkpt lat="45.98442" lon="4.91848">
        <ele>297</ele>
        <time>2016-11-19T10:10:35Z</time>
      </trkpt>
      <trkpt lat="45.98438" lon="4.91853">
        <ele>297</ele>
        <time>2016-11-19T10:10:36Z</time>
      </trkpt>
      <trkpt lat="45.98435" lon="4.91857">
        <ele>297</ele>
        <time>2016-11-19T10:10:37Z</time>
      </trkpt>
      <trkpt lat="45.98431" lon="4.91862">
        <ele>297</ele>
        <time>2016-11-19T10:10:38Z</time>
      </trkpt>
      <trkpt lat="45.98426" lon="4.91867">
        <ele>297</ele>
        <time>2016-11-19T10:10:39Z</time>
      </trkpt>
      <trkpt lat="45.98422" lon="4.91871">
        <ele>297</ele>
        <time>2016-11-19T10:10:40Z</time>
      </trkpt>
      <trkpt lat="45.98418" lon="4.91876">
        <ele>297</ele>
        <time>2016-11-19T10:10:41Z</time>
      </trkpt>
      <trkpt lat="45.98414" lon="4.91882">
        <ele>297</ele>
        <time>2016-11-19T10:10:42Z</time>
      </trkpt>
      <trkpt lat="45.9841" lon="4.91887">
        <ele>297</ele>
        <time>2016-11-19T10:10:43Z</time>
      </trkpt>
      <trkpt lat="45.98406" lon="4.91892">
        <ele>297</ele>
        <time>2016-11-19T10:10:44Z</time>
      </trkpt>
      <trkpt lat="45.98401" lon="4.91897">
        <ele>297</ele>
        <time>2016-11-19T10:10:45Z</time>
      </trkpt>
      <trkpt lat="45.98397" lon="4.91902">
        <ele>297</ele>
        <time>2016-11-19T10:10:46Z</time>
      </trkpt>
      <trkpt lat="45.98393" lon="4.91907">
        <ele>297</ele>
        <time>2016-11-19T10:10:47Z</time>
      </trkpt>
      <trkpt lat="45.98389" lon="4.91912">
        <ele>298</ele>
        <time>2016-11-19T10:10:48Z</time>
      </trkpt>
      <trkpt lat="45.98385" lon="4.91917">
        <ele>298</ele>
        <time>2016-11-19T10:10:49Z</time>
      </trkpt>
      <trkpt lat="45.98381" lon="4.91922">
        <ele>297</ele>
        <time>2016-11-19T10:10:50Z</time>
      </trkpt>
      <trkpt lat="45.98377" lon="4.91927">
        <ele>297</ele>
        <time>2016-11-19T10:10:51Z</time>
      </trkpt>
      <trkpt lat="45.98374" lon="4.91932">
        <ele>298</ele>
        <time>2016-11-19T10:10:52Z</time>
      </trkpt>
      <trkpt lat="45.9837" lon="4.91938">
        <ele>298</ele>
        <time>2016-11-19T10:10:53Z</time>
      </trkpt>
      <trkpt lat="45.98367" lon="4.91943">
        <ele>298</ele>
        <time>2016-11-19T10:10:54Z</time>
      </trkpt>
      <trkpt lat="45.98363" lon="4.91948">
        <ele>298</ele>
        <time>2016-11-19T10:10:55Z</time>
      </trkpt>
      <trkpt lat="45.98359" lon="4.91953">
        <ele>298</ele>
        <time>2016-11-19T10:10:56Z</time>
      </trkpt>
      <trkpt lat="45.98354" lon="4.91957">
        <ele>298</ele>
        <time>2016-11-19T10:10:57Z</time>
      </trkpt>
      <trkpt lat="45.9835" lon="4.91962">
        <ele>297</ele>
        <time>2016-11-19T10:10:58Z</time>
      </trkpt>
      <trkpt lat="45.98345" lon="4.91966">
        <ele>297</ele>
        <time>2016-11-19T10:10:59Z</time>
      </trkpt>
      <trkpt lat="45.98341" lon="4.91971">
        <ele>297</ele>
        <time>2016-11-19T10:11:00Z</time>
      </trkpt>
      <trkpt lat="45.98337" lon="4.91976">
        <ele>297</ele>
        <time>2016-11-19T10:11:01Z</time>
      </trkpt>
      <trkpt lat="45.98333" lon="4.91981">
        <ele>298</ele>
        <time>2016-11-19T10:11:02Z</time>
      </trkpt>
      <trkpt lat="45.98329" lon="4.91985">
        <ele>298</ele>
        <time>2016-11-19T10:11:03Z</time>
      </trkpt>
      <trkpt lat="45.98325" lon="4.9199">
        <ele>298</ele>
        <time>2016-11-19T10:11:04Z</time>
      </trkpt>
      <trkpt lat="45.98321" lon="4.91994">
        <ele>298</ele>
        <time>2016-11-19T10:11:05Z</time>
      </trkpt>
      <trkpt lat="45.98317" lon="4.91999">
        <ele>298</ele>
        <time>2016-11-19T10:11:06Z</time>
      </trkpt>
      <trkpt lat="45.98313" lon="4.92004">
        <ele>298</ele>
        <time>2016-11-19T10:11:07Z</time>
      </trkpt>
      <trkpt lat="45.98308" lon="4.9201">
        <ele>298</ele>
        <time>2016-11-19T10:11:08Z</time>
      </trkpt>
      <trkpt lat="45.98304" lon="4.92015">
        <ele>298</ele>
        <time>2016-11-19T10:11:09Z</time>
      </trkpt>
      <trkpt lat="45.98301" lon="4.9202">
        <ele>298</ele>
        <time>2016-11-19T10:11:10Z</time>
      </trkpt>
      <trkpt lat="45.98296" lon="4.92023">
        <ele>298</ele>
        <time>2016-11-19T10:11:11Z</time>
      </trkpt>
      <trkpt lat="45.98292" lon="4.92029">
        <ele>298</ele>
        <time>2016-11-19T10:11:12Z</time>
      </trkpt>
      <trkpt lat="45.98289" lon="4.92035">
        <ele>298</ele>
        <time>2016-11-19T10:11:13Z</time>
      </trkpt>
      <trkpt lat="45.98284" lon="4.92039">
        <ele>298</ele>
        <time>2016-11-19T10:11:14Z</time>
      </trkpt>
      <trkpt lat="45.9828" lon="4.92044">
        <ele>298</ele>
        <time>2016-11-19T10:11:15Z</time>
      </trkpt>
      <trkpt lat="45.98275" lon="4.9205">
        <ele>298</ele>
        <time>2016-11-19T10:11:16Z</time>
      </trkpt>
      <trkpt lat="45.9827" lon="4.92057">
        <ele>298</ele>
        <time>2016-11-19T10:11:17Z</time>
      </trkpt>
      <trkpt lat="45.98266" lon="4.92065">
        <ele>298</ele>
        <time>2016-11-19T10:11:18Z</time>
      </trkpt>
      <trkpt lat="45.98262" lon="4.92072">
        <ele>299</ele>
        <time>2016-11-19T10:11:19Z</time>
      </trkpt>
      <trkpt lat="45.98261" lon="4.92081">
        <ele>299</ele>
        <time>2016-11-19T10:11:20Z</time>
      </trkpt>
      <trkpt lat="45.98257" lon="4.92086">
        <ele>299</ele>
        <time>2016-11-19T10:11:21Z</time>
      </trkpt>
      <trkpt lat="45.98251" lon="4.92089">
        <ele>299</ele>
        <time>2016-11-19T10:11:22Z</time>
      </trkpt>
      <trkpt lat="45.98246" lon="4.92092">
        <ele>299</ele>
        <time>2016-11-19T10:11:23Z</time>
      </trkpt>
      <trkpt lat="45.98242" lon="4.92096">
        <ele>299</ele>
        <time>2016-11-19T10:11:24Z</time>
      </trkpt>
      <trkpt lat="45.98237" lon="4.921">
        <ele>299</ele>
        <time>2016-11-19T10:11:25Z</time>
      </trkpt>
      <trkpt lat="45.98233" lon="4.92105">
        <ele>299</ele>
        <time>2016-11-19T10:11:26Z</time>
      </trkpt>
      <trkpt lat="45.98229" lon="4.9211">
        <ele>299</ele>
        <time>2016-11-19T10:11:27Z</time>
      </trkpt>
      <trkpt lat="45.98225" lon="4.92115">
        <ele>299</ele>
        <time>2016-11-19T10:11:28Z</time>
      </trkpt>
      <trkpt lat="45.98221" lon="4.9212">
        <ele>299</ele>
        <time>2016-11-19T10:11:29Z</time>
      </trkpt>
      <trkpt lat="45.98216" lon="4.92125">
        <ele>299</ele>
        <time>2016-11-19T10:11:30Z</time>
      </trkpt>
      <trkpt lat="45.98212" lon="4.92129">
        <ele>299</ele>
        <time>2016-11-19T10:11:31Z</time>
      </trkpt>
      <trkpt lat="45.98208" lon="4.92134">
        <ele>299</ele>
        <time>2016-11-19T10:11:32Z</time>
      </trkpt>
      <trkpt lat="45.98204" lon="4.92138">
        <ele>299</ele>
        <time>2016-11-19T10:11:33Z</time>
      </trkpt>
      <trkpt lat="45.982" lon="4.92142">
        <ele>299</ele>
        <time>2016-11-19T10:11:34Z</time>
      </trkpt>
      <trkpt lat="45.98196" lon="4.92146">
        <ele>299</ele>
        <time>2016-11-19T10:11:35Z</time>
      </trkpt>
      <trkpt lat="45.9819" lon="4.92155">
        <ele>299</ele>
        <time>2016-11-19T10:11:37Z</time>
      </trkpt>
      <trkpt lat="45.98186" lon="4.92158">
        <ele>299</ele>
        <time>2016-11-19T10:11:38Z</time>
      </trkpt>
      <trkpt lat="45.98183" lon="4.92162">
        <ele>299</ele>
        <time>2016-11-19T10:11:39Z</time>
      </trkpt>
      <trkpt lat="45.98179" lon="4.92166">
        <ele>299</ele>
        <time>2016-11-19T10:11:40Z</time>
      </trkpt>
      <trkpt lat="45.98175" lon="4.92171">
        <ele>299</ele>
        <time>2016-11-19T10:11:41Z</time>
      </trkpt>
      <trkpt lat="45.98171" lon="4.92175">
        <ele>299</ele>
        <time>2016-11-19T10:11:42Z</time>
      </trkpt>
      <trkpt lat="45.98164" lon="4.92184">
        <ele>299</ele>
        <time>2016-11-19T10:11:44Z</time>
      </trkpt>
      <trkpt lat="45.98161" lon="4.92188">
        <ele>299</ele>
        <time>2016-11-19T10:11:45Z</time>
      </trkpt>
      <trkpt lat="45.98157" lon="4.92193">
        <ele>299</ele>
        <time>2016-11-19T10:11:46Z</time>
      </trkpt>
      <trkpt lat="45.98154" lon="4.92198">
        <ele>299</ele>
        <time>2016-11-19T10:11:47Z</time>
      </trkpt>
      <trkpt lat="45.9815" lon="4.92203">
        <ele>299</ele>
        <time>2016-11-19T10:11:48Z</time>
      </trkpt>
      <trkpt lat="45.98146" lon="4.92209">
        <ele>299</ele>
        <time>2016-11-19T10:11:49Z</time>
      </trkpt>
      <trkpt lat="45.98143" lon="4.92213">
        <ele>299</ele>
        <time>2016-11-19T10:11:50Z</time>
      </trkpt>
      <trkpt lat="45.98139" lon="4.92218">
        <ele>299</ele>
        <time>2016-11-19T10:11:51Z</time>
      </trkpt>
      <trkpt lat="45.98136" lon="4.92222">
        <ele>299</ele>
        <time>2016-11-19T10:11:52Z</time>
      </trkpt>
      <trkpt lat="45.98132" lon="4.92227">
        <ele>299</ele>
        <time>2016-11-19T10:11:53Z</time>
      </trkpt>
      <trkpt lat="45.98129" lon="4.92231">
        <ele>299</ele>
        <time>2016-11-19T10:11:54Z</time>
      </trkpt>
      <trkpt lat="45.98124" lon="4.92235">
        <ele>299</ele>
        <time>2016-11-19T10:11:55Z</time>
      </trkpt>
      <trkpt lat="45.9812" lon="4.92238">
        <ele>299</ele>
        <time>2016-11-19T10:11:56Z</time>
      </trkpt>
      <trkpt lat="45.98116" lon="4.92243">
        <ele>299</ele>
        <time>2016-11-19T10:11:57Z</time>
      </trkpt>
      <trkpt lat="45.98112" lon="4.92248">
        <ele>299</ele>
        <time>2016-11-19T10:11:58Z</time>
      </trkpt>
      <trkpt lat="45.98108" lon="4.92252">
        <ele>300</ele>
        <time>2016-11-19T10:11:59Z</time>
      </trkpt>
      <trkpt lat="45.98104" lon="4.92257">
        <ele>300</ele>
        <time>2016-11-19T10:12:00Z</time>
      </trkpt>
      <trkpt lat="45.981" lon="4.92262">
        <ele>300</ele>
        <time>2016-11-19T10:12:01Z</time>
      </trkpt>
      <trkpt lat="45.98096" lon="4.92267">
        <ele>300</ele>
        <time>2016-11-19T10:12:02Z</time>
      </trkpt>
      <trkpt lat="45.98092" lon="4.92273">
        <ele>300</ele>
        <time>2016-11-19T10:12:03Z</time>
      </trkpt>
      <trkpt lat="45.98088" lon="4.92278">
        <ele>300</ele>
        <time>2016-11-19T10:12:04Z</time>
      </trkpt>
      <trkpt lat="45.98083" lon="4.92284">
        <ele>299</ele>
        <time>2016-11-19T10:12:05Z</time>
      </trkpt>
      <trkpt lat="45.98079" lon="4.9229">
        <ele>299</ele>
        <time>2016-11-19T10:12:06Z</time>
      </trkpt>
      <trkpt lat="45.98074" lon="4.92295">
        <ele>299</ele>
        <time>2016-11-19T10:12:07Z</time>
      </trkpt>
      <trkpt lat="45.9807" lon="4.92301">
        <ele>299</ele>
        <time>2016-11-19T10:12:08Z</time>
      </trkpt>
      <trkpt lat="45.98066" lon="4.92307">
        <ele>299</ele>
        <time>2016-11-19T10:12:09Z</time>
      </trkpt>
      <trkpt lat="45.98062" lon="4.92311">
        <ele>299</ele>
        <time>2016-11-19T10:12:10Z</time>
      </trkpt>
      <trkpt lat="45.98058" lon="4.92315">
        <ele>299</ele>
        <time>2016-11-19T10:12:11Z</time>
      </trkpt>
      <trkpt lat="45.98054" lon="4.9232">
        <ele>299</ele>
        <time>2016-11-19T10:12:12Z</time>
      </trkpt>
      <trkpt lat="45.98051" lon="4.92325">
        <ele>299</ele>
        <time>2016-11-19T10:12:13Z</time>
      </trkpt>
      <trkpt lat="45.98048" lon="4.9233">
        <ele>299</ele>
        <time>2016-11-19T10:12:14Z</time>
      </trkpt>
      <trkpt lat="45.98044" lon="4.92335">
        <ele>299</ele>
        <time>2016-11-19T10:12:15Z</time>
      </trkpt>
      <trkpt lat="45.9804" lon="4.9234">
        <ele>299</ele>
        <time>2016-11-19T10:12:16Z</time>
      </trkpt>
      <trkpt lat="45.98036" lon="4.92344">
        <ele>299</ele>
        <time>2016-11-19T10:12:17Z</time>
      </trkpt>
      <trkpt lat="45.98033" lon="4.92349">
        <ele>299</ele>
        <time>2016-11-19T10:12:18Z</time>
      </trkpt>
      <trkpt lat="45.98029" lon="4.92353">
        <ele>298</ele>
        <time>2016-11-19T10:12:19Z</time>
      </trkpt>
      <trkpt lat="45.98025" lon="4.92358">
        <ele>298</ele>
        <time>2016-11-19T10:12:20Z</time>
      </trkpt>
      <trkpt lat="45.98021" lon="4.92362">
        <ele>298</ele>
        <time>2016-11-19T10:12:21Z</time>
      </trkpt>
      <trkpt lat="45.98018" lon="4.92367">
        <ele>298</ele>
        <time>2016-11-19T10:12:22Z</time>
      </trkpt>
      <trkpt lat="45.98014" lon="4.92371">
        <ele>298</ele>
        <time>2016-11-19T10:12:23Z</time>
      </trkpt>
      <trkpt lat="45.9801" lon="4.92376">
        <ele>298</ele>
        <time>2016-11-19T10:12:24Z</time>
      </trkpt>
      <trkpt lat="45.98007" lon="4.9238">
        <ele>298</ele>
        <time>2016-11-19T10:12:25Z</time>
      </trkpt>
      <trkpt lat="45.98003" lon="4.92384">
        <ele>298</ele>
        <time>2016-11-19T10:12:26Z</time>
      </trkpt>
      <trkpt lat="45.97999" lon="4.92389">
        <ele>298</ele>
        <time>2016-11-19T10:12:27Z</time>
      </trkpt>
      <trkpt lat="45.97995" lon="4.92394">
        <ele>298</ele>
        <time>2016-11-19T10:12:28Z</time>
      </trkpt>
      <trkpt lat="45.97992" lon="4.92399">
        <ele>298</ele>
        <time>2016-11-19T10:12:29Z</time>
      </trkpt>
      <trkpt lat="45.97988" lon="4.92403">
        <ele>298</ele>
        <time>2016-11-19T10:12:30Z</time>
      </trkpt>
      <trkpt lat="45.97984" lon="4.92408">
        <ele>298</ele>
        <time>2016-11-19T10:12:31Z</time>
      </trkpt>
      <trkpt lat="45.9798" lon="4.92413">
        <ele>298</ele>
        <time>2016-11-19T10:12:32Z</time>
      </trkpt>
      <trkpt lat="45.97976" lon="4.92418">
        <ele>298</ele>
        <time>2016-11-19T10:12:33Z</time>
      </trkpt>
      <trkpt lat="45.97973" lon="4.92422">
        <ele>298</ele>
        <time>2016-11-19T10:12:34Z</time>
      </trkpt>
      <trkpt lat="45.97969" lon="4.92427">
        <ele>298</ele>
        <time>2016-11-19T10:12:35Z</time>
      </trkpt>
      <trkpt lat="45.97965" lon="4.92432">
        <ele>298</ele>
        <time>2016-11-19T10:12:36Z</time>
      </trkpt>
      <trkpt lat="45.97961" lon="4.92437">
        <ele>298</ele>
        <time>2016-11-19T10:12:37Z</time>
      </trkpt>
      <trkpt lat="45.97957" lon="4.92441">
        <ele>299</ele>
        <time>2016-11-19T10:12:38Z</time>
      </trkpt>
      <trkpt lat="45.97953" lon="4.92446">
        <ele>299</ele>
        <time>2016-11-19T10:12:39Z</time>
      </trkpt>
      <trkpt lat="45.9795" lon="4.92452">
        <ele>299</ele>
        <time>2016-11-19T10:12:40Z</time>
      </trkpt>
      <trkpt lat="45.97946" lon="4.92457">
        <ele>299</ele>
        <time>2016-11-19T10:12:41Z</time>
      </trkpt>
      <trkpt lat="45.97942" lon="4.92461">
        <ele>299</ele>
        <time>2016-11-19T10:12:42Z</time>
      </trkpt>
      <trkpt lat="45.97938" lon="4.92466">
        <ele>299</ele>
        <time>2016-11-19T10:12:43Z</time>
      </trkpt>
      <trkpt lat="45.97934" lon="4.92471">
        <ele>299</ele>
        <time>2016-11-19T10:12:44Z</time>
      </trkpt>
      <trkpt lat="45.97929" lon="4.92475">
        <ele>299</ele>
        <time>2016-11-19T10:12:45Z</time>
      </trkpt>
      <trkpt lat="45.97925" lon="4.9248">
        <ele>299</ele>
        <time>2016-11-19T10:12:46Z</time>
      </trkpt>
      <trkpt lat="45.97921" lon="4.92485">
        <ele>299</ele>
        <time>2016-11-19T10:12:47Z</time>
      </trkpt>
      <trkpt lat="45.97917" lon="4.9249">
        <ele>299</ele>
        <time>2016-11-19T10:12:48Z</time>
      </trkpt>
      <trkpt lat="45.97913" lon="4.92495">
        <ele>299</ele>
        <time>2016-11-19T10:12:49Z</time>
      </trkpt>
      <trkpt lat="45.97909" lon="4.925">
        <ele>299</ele>
        <time>2016-11-19T10:12:50Z</time>
      </trkpt>
      <trkpt lat="45.97905" lon="4.92504">
        <ele>299</ele>
        <time>2016-11-19T10:12:51Z</time>
      </trkpt>
      <trkpt lat="45.979" lon="4.92509">
        <ele>299</ele>
        <time>2016-11-19T10:12:52Z</time>
      </trkpt>
      <trkpt lat="45.97896" lon="4.92514">
        <ele>300</ele>
        <time>2016-11-19T10:12:53Z</time>
      </trkpt>
      <trkpt lat="45.97892" lon="4.92519">
        <ele>300</ele>
        <time>2016-11-19T10:12:54Z</time>
      </trkpt>
      <trkpt lat="45.97888" lon="4.92523">
        <ele>300</ele>
        <time>2016-11-19T10:12:55Z</time>
      </trkpt>
      <trkpt lat="45.97884" lon="4.92528">
        <ele>300</ele>
        <time>2016-11-19T10:12:56Z</time>
      </trkpt>
      <trkpt lat="45.97881" lon="4.92533">
        <ele>300</ele>
        <time>2016-11-19T10:12:57Z</time>
      </trkpt>
      <trkpt lat="45.97877" lon="4.92539">
        <ele>300</ele>
        <time>2016-11-19T10:12:58Z</time>
      </trkpt>
      <trkpt lat="45.97873" lon="4.92543">
        <ele>300</ele>
        <time>2016-11-19T10:12:59Z</time>
      </trkpt>
      <trkpt lat="45.97869" lon="4.92548">
        <ele>300</ele>
        <time>2016-11-19T10:13:00Z</time>
      </trkpt>
      <trkpt lat="45.97865" lon="4.92553">
        <ele>300</ele>
        <time>2016-11-19T10:13:01Z</time>
      </trkpt>
      <trkpt lat="45.97861" lon="4.92558">
        <ele>300</ele>
        <time>2016-11-19T10:13:02Z</time>
      </trkpt>
      <trkpt lat="45.97857" lon="4.92563">
        <ele>300</ele>
        <time>2016-11-19T10:13:03Z</time>
      </trkpt>
      <trkpt lat="45.97853" lon="4.92568">
        <ele>300</ele>
        <time>2016-11-19T10:13:04Z</time>
      </trkpt>
      <trkpt lat="45.9785" lon="4.92573">
        <ele>300</ele>
        <time>2016-11-19T10:13:05Z</time>
      </trkpt>
      <trkpt lat="45.97845" lon="4.92578">
        <ele>300</ele>
        <time>2016-11-19T10:13:06Z</time>
      </trkpt>
      <trkpt lat="45.97841" lon="4.92583">
        <ele>300</ele>
        <time>2016-11-19T10:13:07Z</time>
      </trkpt>
      <trkpt lat="45.97838" lon="4.92587">
        <ele>300</ele>
        <time>2016-11-19T10:13:08Z</time>
      </trkpt>
      <trkpt lat="45.97834" lon="4.92592">
        <ele>300</ele>
        <time>2016-11-19T10:13:09Z</time>
      </trkpt>
      <trkpt lat="45.9783" lon="4.92597">
        <ele>300</ele>
        <time>2016-11-19T10:13:10Z</time>
      </trkpt>
      <trkpt lat="45.97825" lon="4.92602">
        <ele>300</ele>
        <time>2016-11-19T10:13:11Z</time>
      </trkpt>
      <trkpt lat="45.97821" lon="4.92607">
        <ele>300</ele>
        <time>2016-11-19T10:13:12Z</time>
      </trkpt>
      <trkpt lat="45.97817" lon="4.92612">
        <ele>300</ele>
        <time>2016-11-19T10:13:13Z</time>
      </trkpt>
      <trkpt lat="45.97812" lon="4.92617">
        <ele>300</ele>
        <time>2016-11-19T10:13:14Z</time>
      </trkpt>
      <trkpt lat="45.97808" lon="4.92622">
        <ele>300</ele>
        <time>2016-11-19T10:13:15Z</time>
      </trkpt>
      <trkpt lat="45.97804" lon="4.92627">
        <ele>301</ele>
        <time>2016-11-19T10:13:16Z</time>
      </trkpt>
      <trkpt lat="45.978" lon="4.92632">
        <ele>301</ele>
        <time>2016-11-19T10:13:17Z</time>
      </trkpt>
      <trkpt lat="45.97796" lon="4.92638">
        <ele>301</ele>
        <time>2016-11-19T10:13:18Z</time>
      </trkpt>
      <trkpt lat="45.97791" lon="4.92643">
        <ele>300</ele>
        <time>2016-11-19T10:13:19Z</time>
      </trkpt>
      <trkpt lat="45.97787" lon="4.92648">
        <ele>300</ele>
        <time>2016-11-19T10:13:20Z</time>
      </trkpt>
      <trkpt lat="45.97783" lon="4.92653">
        <ele>300</ele>
        <time>2016-11-19T10:13:21Z</time>
      </trkpt>
      <trkpt lat="45.97779" lon="4.92659">
        <ele>300</ele>
        <time>2016-11-19T10:13:22Z</time>
      </trkpt>
      <trkpt lat="45.97774" lon="4.92665">
        <ele>300</ele>
        <time>2016-11-19T10:13:23Z</time>
      </trkpt>
      <trkpt lat="45.9777" lon="4.9267">
        <ele>300</ele>
        <time>2016-11-19T10:13:24Z</time>
      </trkpt>
      <trkpt lat="45.97765" lon="4.92676">
        <ele>300</ele>
        <time>2016-11-19T10:13:25Z</time>
      </trkpt>
      <trkpt lat="45.97761" lon="4.92681">
        <ele>300</ele>
        <time>2016-11-19T10:13:26Z</time>
      </trkpt>
      <trkpt lat="45.97756" lon="4.92686">
        <ele>300</ele>
        <time>2016-11-19T10:13:27Z</time>
      </trkpt>
      <trkpt lat="45.97752" lon="4.92691">
        <ele>300</ele>
        <time>2016-11-19T10:13:28Z</time>
      </trkpt>
      <trkpt lat="45.97748" lon="4.92695">
        <ele>301</ele>
        <time>2016-11-19T10:13:29Z</time>
      </trkpt>
      <trkpt lat="45.97744" lon="4.927">
        <ele>301</ele>
        <time>2016-11-19T10:13:30Z</time>
      </trkpt>
      <trkpt lat="45.9774" lon="4.92705">
        <ele>301</ele>
        <time>2016-11-19T10:13:31Z</time>
      </trkpt>
      <trkpt lat="45.97736" lon="4.9271">
        <ele>301</ele>
        <time>2016-11-19T10:13:32Z</time>
      </trkpt>
      <trkpt lat="45.97732" lon="4.92715">
        <ele>301</ele>
        <time>2016-11-19T10:13:33Z</time>
      </trkpt>
      <trkpt lat="45.97728" lon="4.92719">
        <ele>301</ele>
        <time>2016-11-19T10:13:34Z</time>
      </trkpt>
      <trkpt lat="45.97724" lon="4.92724">
        <ele>301</ele>
        <time>2016-11-19T10:13:35Z</time>
      </trkpt>
      <trkpt lat="45.9772" lon="4.92729">
        <ele>301</ele>
        <time>2016-11-19T10:13:36Z</time>
      </trkpt>
      <trkpt lat="45.97716" lon="4.92734">
        <ele>301</ele>
        <time>2016-11-19T10:13:37Z</time>
      </trkpt>
      <trkpt lat="45.97712" lon="4.92738">
        <ele>301</ele>
        <time>2016-11-19T10:13:38Z</time>
      </trkpt>
      <trkpt lat="45.97708" lon="4.92743">
        <ele>302</ele>
        <time>2016-11-19T10:13:39Z</time>
      </trkpt>
      <trkpt lat="45.97704" lon="4.92748">
        <ele>302</ele>
        <time>2016-11-19T10:13:40Z</time>
      </trkpt>
      <trkpt lat="45.977" lon="4.92753">
        <ele>301</ele>
        <time>2016-11-19T10:13:41Z</time>
      </trkpt>
      <trkpt lat="45.97696" lon="4.92757">
        <ele>301</ele>
        <time>2016-11-19T10:13:42Z</time>
      </trkpt>
      <trkpt lat="45.97692" lon="4.92762">
        <ele>301</ele>
        <time>2016-11-19T10:13:43Z</time>
      </trkpt>
      <trkpt lat="45.97688" lon="4.92767">
        <ele>301</ele>
        <time>2016-11-19T10:13:44Z</time>
      </trkpt>
      <trkpt lat="45.97684" lon="4.92772">
        <ele>301</ele>
        <time>2016-11-19T10:13:45Z</time>
      </trkpt>
      <trkpt lat="45.9768" lon="4.92777">
        <ele>301</ele>
        <time>2016-11-19T10:13:46Z</time>
      </trkpt>
      <trkpt lat="45.97676" lon="4.92782">
        <ele>301</ele>
        <time>2016-11-19T10:13:47Z</time>
      </trkpt>
      <trkpt lat="45.97671" lon="4.92787">
        <ele>301</ele>
        <time>2016-11-19T10:13:48Z</time>
      </trkpt>
      <trkpt lat="45.97667" lon="4.92793">
        <ele>301</ele>
        <time>2016-11-19T10:13:49Z</time>
      </trkpt>
      <trkpt lat="45.97663" lon="4.92799">
        <ele>301</ele>
        <time>2016-11-19T10:13:50Z</time>
      </trkpt>
      <trkpt lat="45.97658" lon="4.92804">
        <ele>300</ele>
        <time>2016-11-19T10:13:51Z</time>
      </trkpt>
      <trkpt lat="45.97654" lon="4.92809">
        <ele>300</ele>
        <time>2016-11-19T10:13:52Z</time>
      </trkpt>
      <trkpt lat="45.9765" lon="4.92814">
        <ele>300</ele>
        <time>2016-11-19T10:13:53Z</time>
      </trkpt>
      <trkpt lat="45.97646" lon="4.92819">
        <ele>300</ele>
        <time>2016-11-19T10:13:54Z</time>
      </trkpt>
      <trkpt lat="45.97642" lon="4.92824">
        <ele>300</ele>
        <time>2016-11-19T10:13:55Z</time>
      </trkpt>
      <trkpt lat="45.97638" lon="4.9283">
        <ele>300</ele>
        <time>2016-11-19T10:13:56Z</time>
      </trkpt>
      <trkpt lat="45.97634" lon="4.92835">
        <ele>298</ele>
        <time>2016-11-19T10:13:57Z</time>
      </trkpt>
      <trkpt lat="45.97631" lon="4.92839">
        <ele>298</ele>
        <time>2016-11-19T10:13:58Z</time>
      </trkpt>
      <trkpt lat="45.97627" lon="4.92843">
        <ele>298</ele>
        <time>2016-11-19T10:13:59Z</time>
      </trkpt>
      <trkpt lat="45.97623" lon="4.92848">
        <ele>298</ele>
        <time>2016-11-19T10:14:00Z</time>
      </trkpt>
      <trkpt lat="45.97619" lon="4.92852">
        <ele>298</ele>
        <time>2016-11-19T10:14:01Z</time>
      </trkpt>
      <trkpt lat="45.97615" lon="4.92856">
        <ele>298</ele>
        <time>2016-11-19T10:14:02Z</time>
      </trkpt>
      <trkpt lat="45.97611" lon="4.92861">
        <ele>298</ele>
        <time>2016-11-19T10:14:03Z</time>
      </trkpt>
      <trkpt lat="45.97607" lon="4.92865">
        <ele>298</ele>
        <time>2016-11-19T10:14:04Z</time>
      </trkpt>
      <trkpt lat="45.97603" lon="4.9287">
        <ele>298</ele>
        <time>2016-11-19T10:14:05Z</time>
      </trkpt>
      <trkpt lat="45.976" lon="4.92874">
        <ele>298</ele>
        <time>2016-11-19T10:14:06Z</time>
      </trkpt>
      <trkpt lat="45.97596" lon="4.92879">
        <ele>298</ele>
        <time>2016-11-19T10:14:07Z</time>
      </trkpt>
      <trkpt lat="45.97592" lon="4.92883">
        <ele>298</ele>
        <time>2016-11-19T10:14:08Z</time>
      </trkpt>
      <trkpt lat="45.97588" lon="4.92888">
        <ele>298</ele>
        <time>2016-11-19T10:14:09Z</time>
      </trkpt>
      <trkpt lat="45.97584" lon="4.92893">
        <ele>298</ele>
        <time>2016-11-19T10:14:10Z</time>
      </trkpt>
      <trkpt lat="45.97579" lon="4.92898">
        <ele>298</ele>
        <time>2016-11-19T10:14:11Z</time>
      </trkpt>
      <trkpt lat="45.97575" lon="4.92903">
        <ele>298</ele>
        <time>2016-11-19T10:14:12Z</time>
      </trkpt>
      <trkpt lat="45.97571" lon="4.92908">
        <ele>298</ele>
        <time>2016-11-19T10:14:13Z</time>
      </trkpt>
      <trkpt lat="45.97567" lon="4.92913">
        <ele>298</ele>
        <time>2016-11-19T10:14:14Z</time>
      </trkpt>
      <trkpt lat="45.97563" lon="4.92918">
        <ele>298</ele>
        <time>2016-11-19T10:14:15Z</time>
      </trkpt>
      <trkpt lat="45.97559" lon="4.92923">
        <ele>298</ele>
        <time>2016-11-19T10:14:16Z</time>
      </trkpt>
      <trkpt lat="45.97555" lon="4.92928">
        <ele>298</ele>
        <time>2016-11-19T10:14:17Z</time>
      </trkpt>
      <trkpt lat="45.97551" lon="4.92933">
        <ele>299</ele>
        <time>2016-11-19T10:14:18Z</time>
      </trkpt>
      <trkpt lat="45.97547" lon="4.92938">
        <ele>299</ele>
        <time>2016-11-19T10:14:19Z</time>
      </trkpt>
      <trkpt lat="45.97543" lon="4.92943">
        <ele>299</ele>
        <time>2016-11-19T10:14:20Z</time>
      </trkpt>
      <trkpt lat="45.97539" lon="4.92948">
        <ele>299</ele>
        <time>2016-11-19T10:14:21Z</time>
      </trkpt>
      <trkpt lat="45.97535" lon="4.92953">
        <ele>299</ele>
        <time>2016-11-19T10:14:22Z</time>
      </trkpt>
      <trkpt lat="45.97531" lon="4.92957">
        <ele>299</ele>
        <time>2016-11-19T10:14:23Z</time>
      </trkpt>
      <trkpt lat="45.97527" lon="4.92962">
        <ele>299</ele>
        <time>2016-11-19T10:14:24Z</time>
      </trkpt>
      <trkpt lat="45.97523" lon="4.92968">
        <ele>299</ele>
        <time>2016-11-19T10:14:25Z</time>
      </trkpt>
      <trkpt lat="45.97519" lon="4.92972">
        <ele>299</ele>
        <time>2016-11-19T10:14:26Z</time>
      </trkpt>
      <trkpt lat="45.97515" lon="4.92977">
        <ele>299</ele>
        <time>2016-11-19T10:14:27Z</time>
      </trkpt>
      <trkpt lat="45.97511" lon="4.92982">
        <ele>299</ele>
        <time>2016-11-19T10:14:28Z</time>
      </trkpt>
      <trkpt lat="45.97507" lon="4.92986">
        <ele>299</ele>
        <time>2016-11-19T10:14:29Z</time>
      </trkpt>
      <trkpt lat="45.97503" lon="4.92992">
        <ele>299</ele>
        <time>2016-11-19T10:14:30Z</time>
      </trkpt>
      <trkpt lat="45.97499" lon="4.92997">
        <ele>299</ele>
        <time>2016-11-19T10:14:31Z</time>
      </trkpt>
      <trkpt lat="45.97495" lon="4.93002">
        <ele>299</ele>
        <time>2016-11-19T10:14:32Z</time>
      </trkpt>
      <trkpt lat="45.97491" lon="4.93008">
        <ele>299</ele>
        <time>2016-11-19T10:14:33Z</time>
      </trkpt>
      <trkpt lat="45.97487" lon="4.93012">
        <ele>299</ele>
        <time>2016-11-19T10:14:34Z</time>
      </trkpt>
      <trkpt lat="45.97483" lon="4.93017">
        <ele>299</ele>
        <time>2016-11-19T10:14:35Z</time>
      </trkpt>
      <trkpt lat="45.97479" lon="4.93022">
        <ele>299</ele>
        <time>2016-11-19T10:14:36Z</time>
      </trkpt>
      <trkpt lat="45.97475" lon="4.93027">
        <ele>299</ele>
        <time>2016-11-19T10:14:37Z</time>
      </trkpt>
      <trkpt lat="45.97471" lon="4.93032">
        <ele>299</ele>
        <time>2016-11-19T10:14:38Z</time>
      </trkpt>
      <trkpt lat="45.97467" lon="4.93037">
        <ele>299</ele>
        <time>2016-11-19T10:14:39Z</time>
      </trkpt>
      <trkpt lat="45.97463" lon="4.93042">
        <ele>299</ele>
        <time>2016-11-19T10:14:40Z</time>
      </trkpt>
      <trkpt lat="45.9746" lon="4.93047">
        <ele>299</ele>
        <time>2016-11-19T10:14:41Z</time>
      </trkpt>
      <trkpt lat="45.97456" lon="4.93052">
        <ele>299</ele>
        <time>2016-11-19T10:14:42Z</time>
      </trkpt>
      <trkpt lat="45.97451" lon="4.93056">
        <ele>299</ele>
        <time>2016-11-19T10:14:43Z</time>
      </trkpt>
      <trkpt lat="45.97447" lon="4.93061">
        <ele>299</ele>
        <time>2016-11-19T10:14:44Z</time>
      </trkpt>
      <trkpt lat="45.97443" lon="4.93066">
        <ele>299</ele>
        <time>2016-11-19T10:14:45Z</time>
      </trkpt>
      <trkpt lat="45.97439" lon="4.93071">
        <ele>299</ele>
        <time>2016-11-19T10:14:46Z</time>
      </trkpt>
      <trkpt lat="45.97435" lon="4.93076">
        <ele>299</ele>
        <time>2016-11-19T10:14:47Z</time>
      </trkpt>
      <trkpt lat="45.97431" lon="4.93081">
        <ele>299</ele>
        <time>2016-11-19T10:14:48Z</time>
      </trkpt>
      <trkpt lat="45.97427" lon="4.93086">
        <ele>299</ele>
        <time>2016-11-19T10:14:49Z</time>
      </trkpt>
      <trkpt lat="45.97422" lon="4.93091">
        <ele>299</ele>
        <time>2016-11-19T10:14:50Z</time>
      </trkpt>
      <trkpt lat="45.97419" lon="4.93097">
        <ele>299</ele>
        <time>2016-11-19T10:14:51Z</time>
      </trkpt>
      <trkpt lat="45.97415" lon="4.93102">
        <ele>299</ele>
        <time>2016-11-19T10:14:52Z</time>
      </trkpt>
      <trkpt lat="45.97411" lon="4.93107">
        <ele>300</ele>
        <time>2016-11-19T10:14:53Z</time>
      </trkpt>
      <trkpt lat="45.97406" lon="4.93112">
        <ele>300</ele>
        <time>2016-11-19T10:14:54Z</time>
      </trkpt>
      <trkpt lat="45.97402" lon="4.93117">
        <ele>300</ele>
        <time>2016-11-19T10:14:55Z</time>
      </trkpt>
      <trkpt lat="45.97397" lon="4.93122">
        <ele>300</ele>
        <time>2016-11-19T10:14:56Z</time>
      </trkpt>
      <trkpt lat="45.97392" lon="4.93128">
        <ele>300</ele>
        <time>2016-11-19T10:14:57Z</time>
      </trkpt>
      <trkpt lat="45.97388" lon="4.93134">
        <ele>300</ele>
        <time>2016-11-19T10:14:58Z</time>
      </trkpt>
      <trkpt lat="45.97384" lon="4.93139">
        <ele>300</ele>
        <time>2016-11-19T10:14:59Z</time>
      </trkpt>
      <trkpt lat="45.9738" lon="4.93145">
        <ele>300</ele>
        <time>2016-11-19T10:15:00Z</time>
      </trkpt>
      <trkpt lat="45.97376" lon="4.9315">
        <ele>300</ele>
        <time>2016-11-19T10:15:01Z</time>
      </trkpt>
      <trkpt lat="45.97372" lon="4.93154">
        <ele>300</ele>
        <time>2016-11-19T10:15:02Z</time>
      </trkpt>
      <trkpt lat="45.97368" lon="4.93158">
        <ele>300</ele>
        <time>2016-11-19T10:15:03Z</time>
      </trkpt>
      <trkpt lat="45.97365" lon="4.93163">
        <ele>300</ele>
        <time>2016-11-19T10:15:04Z</time>
      </trkpt>
      <trkpt lat="45.97361" lon="4.93167">
        <ele>301</ele>
        <time>2016-11-19T10:15:05Z</time>
      </trkpt>
      <trkpt lat="45.97357" lon="4.93171">
        <ele>301</ele>
        <time>2016-11-19T10:15:06Z</time>
      </trkpt>
      <trkpt lat="45.97353" lon="4.93175">
        <ele>301</ele>
        <time>2016-11-19T10:15:07Z</time>
      </trkpt>
      <trkpt lat="45.97349" lon="4.9318">
        <ele>301</ele>
        <time>2016-11-19T10:15:08Z</time>
      </trkpt>
      <trkpt lat="45.97346" lon="4.93185">
        <ele>301</ele>
        <time>2016-11-19T10:15:09Z</time>
      </trkpt>
      <trkpt lat="45.97342" lon="4.93189">
        <ele>301</ele>
        <time>2016-11-19T10:15:10Z</time>
      </trkpt>
      <trkpt lat="45.97338" lon="4.93194">
        <ele>301</ele>
        <time>2016-11-19T10:15:11Z</time>
      </trkpt>
      <trkpt lat="45.97335" lon="4.93199">
        <ele>301</ele>
        <time>2016-11-19T10:15:12Z</time>
      </trkpt>
      <trkpt lat="45.9733" lon="4.93203">
        <ele>301</ele>
        <time>2016-11-19T10:15:13Z</time>
      </trkpt>
      <trkpt lat="45.97327" lon="4.93208">
        <ele>302</ele>
        <time>2016-11-19T10:15:14Z</time>
      </trkpt>
      <trkpt lat="45.97323" lon="4.93213">
        <ele>302</ele>
        <time>2016-11-19T10:15:15Z</time>
      </trkpt>
      <trkpt lat="45.97319" lon="4.93218">
        <ele>302</ele>
        <time>2016-11-19T10:15:16Z</time>
      </trkpt>
      <trkpt lat="45.97316" lon="4.93222">
        <ele>302</ele>
        <time>2016-11-19T10:15:17Z</time>
      </trkpt>
      <trkpt lat="45.97312" lon="4.93227">
        <ele>302</ele>
        <time>2016-11-19T10:15:18Z</time>
      </trkpt>
      <trkpt lat="45.97308" lon="4.93232">
        <ele>302</ele>
        <time>2016-11-19T10:15:19Z</time>
      </trkpt>
      <trkpt lat="45.97304" lon="4.93237">
        <ele>302</ele>
        <time>2016-11-19T10:15:20Z</time>
      </trkpt>
      <trkpt lat="45.973" lon="4.93241">
        <ele>302</ele>
        <time>2016-11-19T10:15:21Z</time>
      </trkpt>
      <trkpt lat="45.97296" lon="4.93246">
        <ele>302</ele>
        <time>2016-11-19T10:15:22Z</time>
      </trkpt>
      <trkpt lat="45.97292" lon="4.93251">
        <ele>302</ele>
        <time>2016-11-19T10:15:23Z</time>
      </trkpt>
      <trkpt lat="45.97288" lon="4.93255">
        <ele>302</ele>
        <time>2016-11-19T10:15:24Z</time>
      </trkpt>
      <trkpt lat="45.97284" lon="4.9326">
        <ele>302</ele>
        <time>2016-11-19T10:15:25Z</time>
      </trkpt>
      <trkpt lat="45.9728" lon="4.93266">
        <ele>302</ele>
        <time>2016-11-19T10:15:26Z</time>
      </trkpt>
      <trkpt lat="45.97277" lon="4.9327">
        <ele>302</ele>
        <time>2016-11-19T10:15:27Z</time>
      </trkpt>
      <trkpt lat="45.97273" lon="4.93274">
        <ele>302</ele>
        <time>2016-11-19T10:15:28Z</time>
      </trkpt>
      <trkpt lat="45.9727" lon="4.93279">
        <ele>302</ele>
        <time>2016-11-19T10:15:29Z</time>
      </trkpt>
      <trkpt lat="45.97265" lon="4.93284">
        <ele>302</ele>
        <time>2016-11-19T10:15:30Z</time>
      </trkpt>
      <trkpt lat="45.97261" lon="4.9329">
        <ele>302</ele>
        <time>2016-11-19T10:15:31Z</time>
      </trkpt>
      <trkpt lat="45.97257" lon="4.93294">
        <ele>302</ele>
        <time>2016-11-19T10:15:32Z</time>
      </trkpt>
      <trkpt lat="45.97253" lon="4.933">
        <ele>302</ele>
        <time>2016-11-19T10:15:33Z</time>
      </trkpt>
      <trkpt lat="45.97249" lon="4.93304">
        <ele>300</ele>
        <time>2016-11-19T10:15:34Z</time>
      </trkpt>
      <trkpt lat="45.97245" lon="4.93309">
        <ele>301</ele>
        <time>2016-11-19T10:15:35Z</time>
      </trkpt>
      <trkpt lat="45.97241" lon="4.93314">
        <ele>301</ele>
        <time>2016-11-19T10:15:36Z</time>
      </trkpt>
      <trkpt lat="45.97237" lon="4.93319">
        <ele>301</ele>
        <time>2016-11-19T10:15:37Z</time>
      </trkpt>
      <trkpt lat="45.97234" lon="4.93324">
        <ele>301</ele>
        <time>2016-11-19T10:15:38Z</time>
      </trkpt>
      <trkpt lat="45.9723" lon="4.93329">
        <ele>301</ele>
        <time>2016-11-19T10:15:39Z</time>
      </trkpt>
      <trkpt lat="45.97226" lon="4.93334">
        <ele>301</ele>
        <time>2016-11-19T10:15:40Z</time>
      </trkpt>
      <trkpt lat="45.97222" lon="4.93339">
        <ele>301</ele>
        <time>2016-11-19T10:15:41Z</time>
      </trkpt>
      <trkpt lat="45.97218" lon="4.93344">
        <ele>301</ele>
        <time>2016-11-19T10:15:42Z</time>
      </trkpt>
      <trkpt lat="45.97213" lon="4.93348">
        <ele>301</ele>
        <time>2016-11-19T10:15:43Z</time>
      </trkpt>
      <trkpt lat="45.97209" lon="4.93352">
        <ele>301</ele>
        <time>2016-11-19T10:15:44Z</time>
      </trkpt>
      <trkpt lat="45.97205" lon="4.93357">
        <ele>301</ele>
        <time>2016-11-19T10:15:45Z</time>
      </trkpt>
      <trkpt lat="45.97201" lon="4.93363">
        <ele>301</ele>
        <time>2016-11-19T10:15:46Z</time>
      </trkpt>
      <trkpt lat="45.97197" lon="4.93367">
        <ele>301</ele>
        <time>2016-11-19T10:15:47Z</time>
      </trkpt>
      <trkpt lat="45.97193" lon="4.93372">
        <ele>301</ele>
        <time>2016-11-19T10:15:48Z</time>
      </trkpt>
      <trkpt lat="45.97189" lon="4.93376">
        <ele>301</ele>
        <time>2016-11-19T10:15:49Z</time>
      </trkpt>
      <trkpt lat="45.97185" lon="4.93381">
        <ele>301</ele>
        <time>2016-11-19T10:15:50Z</time>
      </trkpt>
      <trkpt lat="45.97181" lon="4.93386">
        <ele>301</ele>
        <time>2016-11-19T10:15:51Z</time>
      </trkpt>
      <trkpt lat="45.97177" lon="4.9339">
        <ele>301</ele>
        <time>2016-11-19T10:15:52Z</time>
      </trkpt>
      <trkpt lat="45.97173" lon="4.93395">
        <ele>301</ele>
        <time>2016-11-19T10:15:53Z</time>
      </trkpt>
      <trkpt lat="45.9717" lon="4.93399">
        <ele>302</ele>
        <time>2016-11-19T10:15:54Z</time>
      </trkpt>
      <trkpt lat="45.97166" lon="4.93404">
        <ele>301</ele>
        <time>2016-11-19T10:15:55Z</time>
      </trkpt>
      <trkpt lat="45.97161" lon="4.93409">
        <ele>301</ele>
        <time>2016-11-19T10:15:56Z</time>
      </trkpt>
      <trkpt lat="45.97158" lon="4.93414">
        <ele>301</ele>
        <time>2016-11-19T10:15:57Z</time>
      </trkpt>
      <trkpt lat="45.97154" lon="4.93419">
        <ele>302</ele>
        <time>2016-11-19T10:15:58Z</time>
      </trkpt>
      <trkpt lat="45.9715" lon="4.93423">
        <ele>302</ele>
        <time>2016-11-19T10:15:59Z</time>
      </trkpt>
      <trkpt lat="45.97146" lon="4.93428">
        <ele>302</ele>
        <time>2016-11-19T10:16:00Z</time>
      </trkpt>
      <trkpt lat="45.97143" lon="4.93432">
        <ele>301</ele>
        <time>2016-11-19T10:16:01Z</time>
      </trkpt>
      <trkpt lat="45.97139" lon="4.93437">
        <ele>301</ele>
        <time>2016-11-19T10:16:02Z</time>
      </trkpt>
      <trkpt lat="45.97136" lon="4.93441">
        <ele>301</ele>
        <time>2016-11-19T10:16:03Z</time>
      </trkpt>
      <trkpt lat="45.97132" lon="4.93446">
        <ele>301</ele>
        <time>2016-11-19T10:16:04Z</time>
      </trkpt>
      <trkpt lat="45.97128" lon="4.9345">
        <ele>301</ele>
        <time>2016-11-19T10:16:05Z</time>
      </trkpt>
      <trkpt lat="45.97123" lon="4.93455">
        <ele>301</ele>
        <time>2016-11-19T10:16:06Z</time>
      </trkpt>
      <trkpt lat="45.97119" lon="4.93459">
        <ele>301</ele>
        <time>2016-11-19T10:16:07Z</time>
      </trkpt>
      <trkpt lat="45.97116" lon="4.93464">
        <ele>301</ele>
        <time>2016-11-19T10:16:08Z</time>
      </trkpt>
      <trkpt lat="45.97112" lon="4.93468">
        <ele>301</ele>
        <time>2016-11-19T10:16:09Z</time>
      </trkpt>
      <trkpt lat="45.97108" lon="4.93473">
        <ele>301</ele>
        <time>2016-11-19T10:16:10Z</time>
      </trkpt>
      <trkpt lat="45.97104" lon="4.93477">
        <ele>301</ele>
        <time>2016-11-19T10:16:11Z</time>
      </trkpt>
      <trkpt lat="45.971" lon="4.93482">
        <ele>301</ele>
        <time>2016-11-19T10:16:12Z</time>
      </trkpt>
      <trkpt lat="45.97096" lon="4.93487">
        <ele>301</ele>
        <time>2016-11-19T10:16:13Z</time>
      </trkpt>
      <trkpt lat="45.97092" lon="4.93492">
        <ele>301</ele>
        <time>2016-11-19T10:16:14Z</time>
      </trkpt>
      <trkpt lat="45.97088" lon="4.93497">
        <ele>300</ele>
        <time>2016-11-19T10:16:15Z</time>
      </trkpt>
      <trkpt lat="45.97084" lon="4.93502">
        <ele>300</ele>
        <time>2016-11-19T10:16:16Z</time>
      </trkpt>
      <trkpt lat="45.9708" lon="4.93506">
        <ele>300</ele>
        <time>2016-11-19T10:16:17Z</time>
      </trkpt>
      <trkpt lat="45.97076" lon="4.93511">
        <ele>300</ele>
        <time>2016-11-19T10:16:18Z</time>
      </trkpt>
      <trkpt lat="45.97072" lon="4.93517">
        <ele>299</ele>
        <time>2016-11-19T10:16:19Z</time>
      </trkpt>
      <trkpt lat="45.97068" lon="4.93522">
        <ele>299</ele>
        <time>2016-11-19T10:16:20Z</time>
      </trkpt>
      <trkpt lat="45.97063" lon="4.93527">
        <ele>299</ele>
        <time>2016-11-19T10:16:21Z</time>
      </trkpt>
      <trkpt lat="45.97058" lon="4.93531">
        <ele>299</ele>
        <time>2016-11-19T10:16:22Z</time>
      </trkpt>
      <trkpt lat="45.97054" lon="4.93537">
        <ele>299</ele>
        <time>2016-11-19T10:16:23Z</time>
      </trkpt>
      <trkpt lat="45.9705" lon="4.93542">
        <ele>299</ele>
        <time>2016-11-19T10:16:24Z</time>
      </trkpt>
      <trkpt lat="45.97046" lon="4.93547">
        <ele>299</ele>
        <time>2016-11-19T10:16:25Z</time>
      </trkpt>
      <trkpt lat="45.97042" lon="4.93553">
        <ele>299</ele>
        <time>2016-11-19T10:16:26Z</time>
      </trkpt>
      <trkpt lat="45.97038" lon="4.93558">
        <ele>299</ele>
        <time>2016-11-19T10:16:27Z</time>
      </trkpt>
      <trkpt lat="45.97034" lon="4.93564">
        <ele>299</ele>
        <time>2016-11-19T10:16:28Z</time>
      </trkpt>
      <trkpt lat="45.9703" lon="4.9357">
        <ele>299</ele>
        <time>2016-11-19T10:16:29Z</time>
      </trkpt>
      <trkpt lat="45.97026" lon="4.93575">
        <ele>299</ele>
        <time>2016-11-19T10:16:30Z</time>
      </trkpt>
      <trkpt lat="45.97022" lon="4.93581">
        <ele>299</ele>
        <time>2016-11-19T10:16:31Z</time>
      </trkpt>
      <trkpt lat="45.97018" lon="4.93586">
        <ele>300</ele>
        <time>2016-11-19T10:16:32Z</time>
      </trkpt>
      <trkpt lat="45.97014" lon="4.93591">
        <ele>299</ele>
        <time>2016-11-19T10:16:33Z</time>
      </trkpt>
      <trkpt lat="45.9701" lon="4.93596">
        <ele>299</ele>
        <time>2016-11-19T10:16:34Z</time>
      </trkpt>
      <trkpt lat="45.97005" lon="4.93602">
        <ele>300</ele>
        <time>2016-11-19T10:16:35Z</time>
      </trkpt>
      <trkpt lat="45.97001" lon="4.93607">
        <ele>300</ele>
        <time>2016-11-19T10:16:36Z</time>
      </trkpt>
      <trkpt lat="45.96997" lon="4.93612">
        <ele>299</ele>
        <time>2016-11-19T10:16:37Z</time>
      </trkpt>
      <trkpt lat="45.96992" lon="4.93617">
        <ele>299</ele>
        <time>2016-11-19T10:16:38Z</time>
      </trkpt>
      <trkpt lat="45.96988" lon="4.93623">
        <ele>299</ele>
        <time>2016-11-19T10:16:39Z</time>
      </trkpt>
      <trkpt lat="45.96984" lon="4.93628">
        <ele>299</ele>
        <time>2016-11-19T10:16:40Z</time>
      </trkpt>
      <trkpt lat="45.96979" lon="4.93634">
        <ele>299</ele>
        <time>2016-11-19T10:16:41Z</time>
      </trkpt>
      <trkpt lat="45.96975" lon="4.9364">
        <ele>299</ele>
        <time>2016-11-19T10:16:42Z</time>
      </trkpt>
      <trkpt lat="45.9697" lon="4.93645">
        <ele>299</ele>
        <time>2016-11-19T10:16:43Z</time>
      </trkpt>
      <trkpt lat="45.96966" lon="4.93651">
        <ele>299</ele>
        <time>2016-11-19T10:16:44Z</time>
      </trkpt>
      <trkpt lat="45.96961" lon="4.93657">
        <ele>299</ele>
        <time>2016-11-19T10:16:45Z</time>
      </trkpt>
      <trkpt lat="45.96957" lon="4.93662">
        <ele>299</ele>
        <time>2016-11-19T10:16:46Z</time>
      </trkpt>
      <trkpt lat="45.96952" lon="4.93668">
        <ele>298</ele>
        <time>2016-11-19T10:16:47Z</time>
      </trkpt>
      <trkpt lat="45.96948" lon="4.93674">
        <ele>298</ele>
        <time>2016-11-19T10:16:48Z</time>
      </trkpt>
      <trkpt lat="45.96943" lon="4.93679">
        <ele>298</ele>
        <time>2016-11-19T10:16:49Z</time>
      </trkpt>
      <trkpt lat="45.96939" lon="4.93684">
        <ele>298</ele>
        <time>2016-11-19T10:16:50Z</time>
      </trkpt>
      <trkpt lat="45.96935" lon="4.93689">
        <ele>298</ele>
        <time>2016-11-19T10:16:51Z</time>
      </trkpt>
      <trkpt lat="45.96931" lon="4.93693">
        <ele>298</ele>
        <time>2016-11-19T10:16:52Z</time>
      </trkpt>
      <trkpt lat="45.96926" lon="4.93698">
        <ele>298</ele>
        <time>2016-11-19T10:16:53Z</time>
      </trkpt>
      <trkpt lat="45.96922" lon="4.93703">
        <ele>298</ele>
        <time>2016-11-19T10:16:54Z</time>
      </trkpt>
      <trkpt lat="45.96917" lon="4.93707">
        <ele>298</ele>
        <time>2016-11-19T10:16:55Z</time>
      </trkpt>
      <trkpt lat="45.96912" lon="4.93712">
        <ele>297</ele>
        <time>2016-11-19T10:16:56Z</time>
      </trkpt>
      <trkpt lat="45.96908" lon="4.93716">
        <ele>297</ele>
        <time>2016-11-19T10:16:57Z</time>
      </trkpt>
      <trkpt lat="45.96903" lon="4.9372">
        <ele>297</ele>
        <time>2016-11-19T10:16:58Z</time>
      </trkpt>
      <trkpt lat="45.96898" lon="4.93723">
        <ele>297</ele>
        <time>2016-11-19T10:16:59Z</time>
      </trkpt>
      <trkpt lat="45.96892" lon="4.93726">
        <ele>297</ele>
        <time>2016-11-19T10:17:00Z</time>
      </trkpt>
      <trkpt lat="45.96887" lon="4.93728">
        <ele>297</ele>
        <time>2016-11-19T10:17:01Z</time>
      </trkpt>
      <trkpt lat="45.96881" lon="4.93731">
        <ele>297</ele>
        <time>2016-11-19T10:17:02Z</time>
      </trkpt>
      <trkpt lat="45.96875" lon="4.93734">
        <ele>297</ele>
        <time>2016-11-19T10:17:03Z</time>
      </trkpt>
      <trkpt lat="45.96869" lon="4.93737">
        <ele>297</ele>
        <time>2016-11-19T10:17:04Z</time>
      </trkpt>
      <trkpt lat="45.96863" lon="4.93739">
        <ele>297</ele>
        <time>2016-11-19T10:17:05Z</time>
      </trkpt>
      <trkpt lat="45.96856" lon="4.93741">
        <ele>297</ele>
        <time>2016-11-19T10:17:06Z</time>
      </trkpt>
      <trkpt lat="45.9685" lon="4.93743">
        <ele>297</ele>
        <time>2016-11-19T10:17:07Z</time>
      </trkpt>
      <trkpt lat="45.96844" lon="4.93745">
        <ele>296</ele>
        <time>2016-11-19T10:17:08Z</time>
      </trkpt>
      <trkpt lat="45.96838" lon="4.93747">
        <ele>296</ele>
        <time>2016-11-19T10:17:09Z</time>
      </trkpt>
      <trkpt lat="45.96832" lon="4.9375">
        <ele>296</ele>
        <time>2016-11-19T10:17:10Z</time>
      </trkpt>
      <trkpt lat="45.96826" lon="4.93752">
        <ele>296</ele>
        <time>2016-11-19T10:17:11Z</time>
      </trkpt>
      <trkpt lat="45.9682" lon="4.93754">
        <ele>296</ele>
        <time>2016-11-19T10:17:12Z</time>
      </trkpt>
      <trkpt lat="45.96815" lon="4.93756">
        <ele>296</ele>
        <time>2016-11-19T10:17:13Z</time>
      </trkpt>
      <trkpt lat="45.96809" lon="4.93758">
        <ele>295</ele>
        <time>2016-11-19T10:17:14Z</time>
      </trkpt>
      <trkpt lat="45.96803" lon="4.9376">
        <ele>295</ele>
        <time>2016-11-19T10:17:15Z</time>
      </trkpt>
      <trkpt lat="45.96798" lon="4.93762">
        <ele>295</ele>
        <time>2016-11-19T10:17:16Z</time>
      </trkpt>
      <trkpt lat="45.96792" lon="4.93763">
        <ele>295</ele>
        <time>2016-11-19T10:17:17Z</time>
      </trkpt>
      <trkpt lat="45.96786" lon="4.93765">
        <ele>295</ele>
        <time>2016-11-19T10:17:18Z</time>
      </trkpt>
      <trkpt lat="45.96781" lon="4.93767">
        <ele>295</ele>
        <time>2016-11-19T10:17:19Z</time>
      </trkpt>
      <trkpt lat="45.96775" lon="4.93769">
        <ele>295</ele>
        <time>2016-11-19T10:17:20Z</time>
      </trkpt>
      <trkpt lat="45.96769" lon="4.9377">
        <ele>295</ele>
        <time>2016-11-19T10:17:21Z</time>
      </trkpt>
      <trkpt lat="45.96764" lon="4.93772">
        <ele>295</ele>
        <time>2016-11-19T10:17:22Z</time>
      </trkpt>
      <trkpt lat="45.96758" lon="4.93773">
        <ele>295</ele>
        <time>2016-11-19T10:17:23Z</time>
      </trkpt>
      <trkpt lat="45.96752" lon="4.93775">
        <ele>295</ele>
        <time>2016-11-19T10:17:24Z</time>
      </trkpt>
      <trkpt lat="45.96746" lon="4.93778">
        <ele>295</ele>
        <time>2016-11-19T10:17:25Z</time>
      </trkpt>
      <trkpt lat="45.9674" lon="4.9378">
        <ele>296</ele>
        <time>2016-11-19T10:17:26Z</time>
      </trkpt>
      <trkpt lat="45.96734" lon="4.93782">
        <ele>296</ele>
        <time>2016-11-19T10:17:27Z</time>
      </trkpt>
      <trkpt lat="45.96727" lon="4.93785">
        <ele>296</ele>
        <time>2016-11-19T10:17:28Z</time>
      </trkpt>
      <trkpt lat="45.96722" lon="4.93787">
        <ele>296</ele>
        <time>2016-11-19T10:17:29Z</time>
      </trkpt>
      <trkpt lat="45.96716" lon="4.93789">
        <ele>296</ele>
        <time>2016-11-19T10:17:30Z</time>
      </trkpt>
      <trkpt lat="45.9671" lon="4.93791">
        <ele>296</ele>
        <time>2016-11-19T10:17:31Z</time>
      </trkpt>
      <trkpt lat="45.96705" lon="4.93794">
        <ele>296</ele>
        <time>2016-11-19T10:17:32Z</time>
      </trkpt>
      <trkpt lat="45.967" lon="4.93795">
        <ele>296</ele>
        <time>2016-11-19T10:17:33Z</time>
      </trkpt>
      <trkpt lat="45.96695" lon="4.93797">
        <ele>297</ele>
        <time>2016-11-19T10:17:34Z</time>
      </trkpt>
      <trkpt lat="45.9669" lon="4.93799">
        <ele>297</ele>
        <time>2016-11-19T10:17:35Z</time>
      </trkpt>
      <trkpt lat="45.96685" lon="4.938">
        <ele>297</ele>
        <time>2016-11-19T10:17:36Z</time>
      </trkpt>
      <trkpt lat="45.9668" lon="4.93802">
        <ele>297</ele>
        <time>2016-11-19T10:17:37Z</time>
      </trkpt>
      <trkpt lat="45.96674" lon="4.93803">
        <ele>297</ele>
        <time>2016-11-19T10:17:38Z</time>
      </trkpt>
      <trkpt lat="45.96669" lon="4.93805">
        <ele>297</ele>
        <time>2016-11-19T10:17:39Z</time>
      </trkpt>
      <trkpt lat="45.96663" lon="4.93807">
        <ele>297</ele>
        <time>2016-11-19T10:17:40Z</time>
      </trkpt>
      <trkpt lat="45.96658" lon="4.93809">
        <ele>297</ele>
        <time>2016-11-19T10:17:41Z</time>
      </trkpt>
      <trkpt lat="45.96652" lon="4.93811">
        <ele>297</ele>
        <time>2016-11-19T10:17:42Z</time>
      </trkpt>
      <trkpt lat="45.96646" lon="4.93812">
        <ele>297</ele>
        <time>2016-11-19T10:17:43Z</time>
      </trkpt>
      <trkpt lat="45.9664" lon="4.93814">
        <ele>297</ele>
        <time>2016-11-19T10:17:44Z</time>
      </trkpt>
      <trkpt lat="45.96634" lon="4.93816">
        <ele>297</ele>
        <time>2016-11-19T10:17:45Z</time>
      </trkpt>
      <trkpt lat="45.96629" lon="4.93819">
        <ele>297</ele>
        <time>2016-11-19T10:17:46Z</time>
      </trkpt>
      <trkpt lat="45.96623" lon="4.93821">
        <ele>297</ele>
        <time>2016-11-19T10:17:47Z</time>
      </trkpt>
      <trkpt lat="45.96618" lon="4.93823">
        <ele>297</ele>
        <time>2016-11-19T10:17:48Z</time>
      </trkpt>
      <trkpt lat="45.96613" lon="4.93824">
        <ele>297</ele>
        <time>2016-11-19T10:17:49Z</time>
      </trkpt>
      <trkpt lat="45.96609" lon="4.93826">
        <ele>297</ele>
        <time>2016-11-19T10:17:50Z</time>
      </trkpt>
      <trkpt lat="45.96604" lon="4.93827">
        <ele>297</ele>
        <time>2016-11-19T10:17:51Z</time>
      </trkpt>
      <trkpt lat="45.96599" lon="4.93829">
        <ele>297</ele>
        <time>2016-11-19T10:17:52Z</time>
      </trkpt>
      <trkpt lat="45.96594" lon="4.9383">
        <ele>296</ele>
        <time>2016-11-19T10:17:53Z</time>
      </trkpt>
      <trkpt lat="45.96589" lon="4.93832">
        <ele>296</ele>
        <time>2016-11-19T10:17:54Z</time>
      </trkpt>
      <trkpt lat="45.96585" lon="4.93834">
        <ele>296</ele>
        <time>2016-11-19T10:17:55Z</time>
      </trkpt>
      <trkpt lat="45.9658" lon="4.93836">
        <ele>296</ele>
        <time>2016-11-19T10:17:56Z</time>
      </trkpt>
      <trkpt lat="45.96575" lon="4.93838">
        <ele>296</ele>
        <time>2016-11-19T10:17:57Z</time>
      </trkpt>
      <trkpt lat="45.9657" lon="4.9384">
        <ele>296</ele>
        <time>2016-11-19T10:17:58Z</time>
      </trkpt>
      <trkpt lat="45.96564" lon="4.93842">
        <ele>296</ele>
        <time>2016-11-19T10:17:59Z</time>
      </trkpt>
      <trkpt lat="45.96559" lon="4.93843">
        <ele>296</ele>
        <time>2016-11-19T10:18:00Z</time>
      </trkpt>
      <trkpt lat="45.96554" lon="4.93844">
        <ele>296</ele>
        <time>2016-11-19T10:18:01Z</time>
      </trkpt>
      <trkpt lat="45.96549" lon="4.93845">
        <ele>296</ele>
        <time>2016-11-19T10:18:02Z</time>
      </trkpt>
      <trkpt lat="45.96543" lon="4.93848">
        <ele>296</ele>
        <time>2016-11-19T10:18:03Z</time>
      </trkpt>
      <trkpt lat="45.96538" lon="4.9385">
        <ele>296</ele>
        <time>2016-11-19T10:18:04Z</time>
      </trkpt>
      <trkpt lat="45.96532" lon="4.93852">
        <ele>296</ele>
        <time>2016-11-19T10:18:05Z</time>
      </trkpt>
      <trkpt lat="45.96526" lon="4.93854">
        <ele>296</ele>
        <time>2016-11-19T10:18:06Z</time>
      </trkpt>
      <trkpt lat="45.9652" lon="4.93857">
        <ele>296</ele>
        <time>2016-11-19T10:18:07Z</time>
      </trkpt>
      <trkpt lat="45.96514" lon="4.93858">
        <ele>296</ele>
        <time>2016-11-19T10:18:08Z</time>
      </trkpt>
      <trkpt lat="45.96508" lon="4.9386">
        <ele>296</ele>
        <time>2016-11-19T10:18:09Z</time>
      </trkpt>
      <trkpt lat="45.96502" lon="4.93862">
        <ele>296</ele>
        <time>2016-11-19T10:18:10Z</time>
      </trkpt>
      <trkpt lat="45.96497" lon="4.93865">
        <ele>296</ele>
        <time>2016-11-19T10:18:11Z</time>
      </trkpt>
      <trkpt lat="45.96491" lon="4.93867">
        <ele>296</ele>
        <time>2016-11-19T10:18:12Z</time>
      </trkpt>
      <trkpt lat="45.96486" lon="4.93869">
        <ele>296</ele>
        <time>2016-11-19T10:18:13Z</time>
      </trkpt>
      <trkpt lat="45.9648" lon="4.93871">
        <ele>296</ele>
        <time>2016-11-19T10:18:14Z</time>
      </trkpt>
      <trkpt lat="45.96475" lon="4.93873">
        <ele>296</ele>
        <time>2016-11-19T10:18:15Z</time>
      </trkpt>
      <trkpt lat="45.96469" lon="4.93875">
        <ele>296</ele>
        <time>2016-11-19T10:18:16Z</time>
      </trkpt>
      <trkpt lat="45.96463" lon="4.93877">
        <ele>295</ele>
        <time>2016-11-19T10:18:17Z</time>
      </trkpt>
      <trkpt lat="45.96457" lon="4.93879">
        <ele>296</ele>
        <time>2016-11-19T10:18:18Z</time>
      </trkpt>
      <trkpt lat="45.96451" lon="4.93881">
        <ele>296</ele>
        <time>2016-11-19T10:18:19Z</time>
      </trkpt>
      <trkpt lat="45.96445" lon="4.93884">
        <ele>296</ele>
        <time>2016-11-19T10:18:20Z</time>
      </trkpt>
      <trkpt lat="45.96438" lon="4.93886">
        <ele>296</ele>
        <time>2016-11-19T10:18:21Z</time>
      </trkpt>
      <trkpt lat="45.96431" lon="4.93888">
        <ele>296</ele>
        <time>2016-11-19T10:18:22Z</time>
      </trkpt>
      <trkpt lat="45.96425" lon="4.93889">
        <ele>296</ele>
        <time>2016-11-19T10:18:23Z</time>
      </trkpt>
      <trkpt lat="45.96418" lon="4.93892">
        <ele>296</ele>
        <time>2016-11-19T10:18:24Z</time>
      </trkpt>
      <trkpt lat="45.96412" lon="4.93894">
        <ele>295</ele>
        <time>2016-11-19T10:18:25Z</time>
      </trkpt>
      <trkpt lat="45.96406" lon="4.93896">
        <ele>295</ele>
        <time>2016-11-19T10:18:26Z</time>
      </trkpt>
      <trkpt lat="45.964" lon="4.93899">
        <ele>295</ele>
        <time>2016-11-19T10:18:27Z</time>
      </trkpt>
      <trkpt lat="45.96394" lon="4.93901">
        <ele>294</ele>
        <time>2016-11-19T10:18:28Z</time>
      </trkpt>
      <trkpt lat="45.96388" lon="4.93903">
        <ele>294</ele>
        <time>2016-11-19T10:18:29Z</time>
      </trkpt>
      <trkpt lat="45.96382" lon="4.93905">
        <ele>294</ele>
        <time>2016-11-19T10:18:30Z</time>
      </trkpt>
      <trkpt lat="45.96376" lon="4.93908">
        <ele>294</ele>
        <time>2016-11-19T10:18:31Z</time>
      </trkpt>
      <trkpt lat="45.96371" lon="4.9391">
        <ele>294</ele>
        <time>2016-11-19T10:18:32Z</time>
      </trkpt>
      <trkpt lat="45.96366" lon="4.93912">
        <ele>294</ele>
        <time>2016-11-19T10:18:33Z</time>
      </trkpt>
      <trkpt lat="45.9636" lon="4.93914">
        <ele>294</ele>
        <time>2016-11-19T10:18:34Z</time>
      </trkpt>
      <trkpt lat="45.96354" lon="4.93917">
        <ele>294</ele>
        <time>2016-11-19T10:18:35Z</time>
      </trkpt>
      <trkpt lat="45.96348" lon="4.93919">
        <ele>293</ele>
        <time>2016-11-19T10:18:36Z</time>
      </trkpt>
      <trkpt lat="45.96342" lon="4.93921">
        <ele>293</ele>
        <time>2016-11-19T10:18:37Z</time>
      </trkpt>
      <trkpt lat="45.96336" lon="4.93923">
        <ele>293</ele>
        <time>2016-11-19T10:18:38Z</time>
      </trkpt>
      <trkpt lat="45.9633" lon="4.93925">
        <ele>293</ele>
        <time>2016-11-19T10:18:39Z</time>
      </trkpt>
      <trkpt lat="45.96324" lon="4.93927">
        <ele>292</ele>
        <time>2016-11-19T10:18:40Z</time>
      </trkpt>
      <trkpt lat="45.96318" lon="4.9393">
        <ele>292</ele>
        <time>2016-11-19T10:18:41Z</time>
      </trkpt>
      <trkpt lat="45.96312" lon="4.93932">
        <ele>292</ele>
        <time>2016-11-19T10:18:42Z</time>
      </trkpt>
      <trkpt lat="45.96306" lon="4.93934">
        <ele>292</ele>
        <time>2016-11-19T10:18:43Z</time>
      </trkpt>
      <trkpt lat="45.96299" lon="4.93936">
        <ele>292</ele>
        <time>2016-11-19T10:18:44Z</time>
      </trkpt>
      <trkpt lat="45.96293" lon="4.93938">
        <ele>292</ele>
        <time>2016-11-19T10:18:45Z</time>
      </trkpt>
      <trkpt lat="45.96287" lon="4.93941">
        <ele>292</ele>
        <time>2016-11-19T10:18:46Z</time>
      </trkpt>
      <trkpt lat="45.9628" lon="4.93943">
        <ele>291</ele>
        <time>2016-11-19T10:18:47Z</time>
      </trkpt>
      <trkpt lat="45.96274" lon="4.93945">
        <ele>291</ele>
        <time>2016-11-19T10:18:48Z</time>
      </trkpt>
      <trkpt lat="45.96268" lon="4.93948">
        <ele>291</ele>
        <time>2016-11-19T10:18:49Z</time>
      </trkpt>
      <trkpt lat="45.96261" lon="4.93951">
        <ele>291</ele>
        <time>2016-11-19T10:18:50Z</time>
      </trkpt>
      <trkpt lat="45.96255" lon="4.93954">
        <ele>291</ele>
        <time>2016-11-19T10:18:51Z</time>
      </trkpt>
      <trkpt lat="45.96249" lon="4.93958">
        <ele>290</ele>
        <time>2016-11-19T10:18:52Z</time>
      </trkpt>
      <trkpt lat="45.96244" lon="4.93962">
        <ele>290</ele>
        <time>2016-11-19T10:18:53Z</time>
      </trkpt>
      <trkpt lat="45.96239" lon="4.93965">
        <ele>290</ele>
        <time>2016-11-19T10:18:54Z</time>
      </trkpt>
      <trkpt lat="45.96234" lon="4.93969">
        <ele>290</ele>
        <time>2016-11-19T10:18:55Z</time>
      </trkpt>
      <trkpt lat="45.96228" lon="4.93974">
        <ele>290</ele>
        <time>2016-11-19T10:18:56Z</time>
      </trkpt>
      <trkpt lat="45.96223" lon="4.93978">
        <ele>290</ele>
        <time>2016-11-19T10:18:57Z</time>
      </trkpt>
      <trkpt lat="45.96218" lon="4.93982">
        <ele>290</ele>
        <time>2016-11-19T10:18:58Z</time>
      </trkpt>
      <trkpt lat="45.96213" lon="4.93987">
        <ele>290</ele>
        <time>2016-11-19T10:18:59Z</time>
      </trkpt>
      <trkpt lat="45.96208" lon="4.93991">
        <ele>290</ele>
        <time>2016-11-19T10:19:00Z</time>
      </trkpt>
      <trkpt lat="45.96203" lon="4.93995">
        <ele>290</ele>
        <time>2016-11-19T10:19:01Z</time>
      </trkpt>
      <trkpt lat="45.96197" lon="4.93999">
        <ele>290</ele>
        <time>2016-11-19T10:19:02Z</time>
      </trkpt>
      <trkpt lat="45.96192" lon="4.94005">
        <ele>290</ele>
        <time>2016-11-19T10:19:03Z</time>
      </trkpt>
      <trkpt lat="45.96186" lon="4.9401">
        <ele>290</ele>
        <time>2016-11-19T10:19:04Z</time>
      </trkpt>
      <trkpt lat="45.9618" lon="4.94015">
        <ele>290</ele>
        <time>2016-11-19T10:19:05Z</time>
      </trkpt>
      <trkpt lat="45.96174" lon="4.9402">
        <ele>290</ele>
        <time>2016-11-19T10:19:06Z</time>
      </trkpt>
      <trkpt lat="45.96168" lon="4.94024">
        <ele>290</ele>
        <time>2016-11-19T10:19:07Z</time>
      </trkpt>
      <trkpt lat="45.96163" lon="4.94029">
        <ele>290</ele>
        <time>2016-11-19T10:19:08Z</time>
      </trkpt>
      <trkpt lat="45.96158" lon="4.94033">
        <ele>290</ele>
        <time>2016-11-19T10:19:09Z</time>
      </trkpt>
      <trkpt lat="45.96153" lon="4.94038">
        <ele>290</ele>
        <time>2016-11-19T10:19:10Z</time>
      </trkpt>
      <trkpt lat="45.96148" lon="4.94043">
        <ele>290</ele>
        <time>2016-11-19T10:19:11Z</time>
      </trkpt>
      <trkpt lat="45.96143" lon="4.94047">
        <ele>290</ele>
        <time>2016-11-19T10:19:12Z</time>
      </trkpt>
      <trkpt lat="45.96138" lon="4.94051">
        <ele>290</ele>
        <time>2016-11-19T10:19:13Z</time>
      </trkpt>
      <trkpt lat="45.96134" lon="4.94055">
        <ele>290</ele>
        <time>2016-11-19T10:19:14Z</time>
      </trkpt>
      <trkpt lat="45.96129" lon="4.94059">
        <ele>290</ele>
        <time>2016-11-19T10:19:15Z</time>
      </trkpt>
      <trkpt lat="45.96124" lon="4.94063">
        <ele>290</ele>
        <time>2016-11-19T10:19:16Z</time>
      </trkpt>
      <trkpt lat="45.9612" lon="4.94067">
        <ele>290</ele>
        <time>2016-11-19T10:19:17Z</time>
      </trkpt>
      <trkpt lat="45.96115" lon="4.94071">
        <ele>290</ele>
        <time>2016-11-19T10:19:18Z</time>
      </trkpt>
      <trkpt lat="45.96111" lon="4.94076">
        <ele>291</ele>
        <time>2016-11-19T10:19:19Z</time>
      </trkpt>
      <trkpt lat="45.96106" lon="4.9408">
        <ele>291</ele>
        <time>2016-11-19T10:19:20Z</time>
      </trkpt>
      <trkpt lat="45.96101" lon="4.94084">
        <ele>291</ele>
        <time>2016-11-19T10:19:21Z</time>
      </trkpt>
      <trkpt lat="45.96096" lon="4.94088">
        <ele>291</ele>
        <time>2016-11-19T10:19:22Z</time>
      </trkpt>
      <trkpt lat="45.96091" lon="4.94092">
        <ele>291</ele>
        <time>2016-11-19T10:19:23Z</time>
      </trkpt>
      <trkpt lat="45.96086" lon="4.94096">
        <ele>291</ele>
        <time>2016-11-19T10:19:24Z</time>
      </trkpt>
      <trkpt lat="45.96081" lon="4.941">
        <ele>291</ele>
        <time>2016-11-19T10:19:25Z</time>
      </trkpt>
      <trkpt lat="45.96076" lon="4.94104">
        <ele>291</ele>
        <time>2016-11-19T10:19:26Z</time>
      </trkpt>
      <trkpt lat="45.96071" lon="4.94108">
        <ele>291</ele>
        <time>2016-11-19T10:19:27Z</time>
      </trkpt>
      <trkpt lat="45.96066" lon="4.94112">
        <ele>291</ele>
        <time>2016-11-19T10:19:28Z</time>
      </trkpt>
      <trkpt lat="45.96061" lon="4.94115">
        <ele>291</ele>
        <time>2016-11-19T10:19:29Z</time>
      </trkpt>
      <trkpt lat="45.96056" lon="4.94119">
        <ele>291</ele>
        <time>2016-11-19T10:19:30Z</time>
      </trkpt>
      <trkpt lat="45.96051" lon="4.94121">
        <ele>291</ele>
        <time>2016-11-19T10:19:31Z</time>
      </trkpt>
      <trkpt lat="45.96046" lon="4.94124">
        <ele>291</ele>
        <time>2016-11-19T10:19:32Z</time>
      </trkpt>
      <trkpt lat="45.96041" lon="4.94125">
        <ele>291</ele>
        <time>2016-11-19T10:19:33Z</time>
      </trkpt>
      <trkpt lat="45.96036" lon="4.94125">
        <ele>291</ele>
        <time>2016-11-19T10:19:34Z</time>
      </trkpt>
      <trkpt lat="45.96031" lon="4.94125">
        <ele>291</ele>
        <time>2016-11-19T10:19:35Z</time>
      </trkpt>
      <trkpt lat="45.96026" lon="4.94124">
        <ele>291</ele>
        <time>2016-11-19T10:19:36Z</time>
      </trkpt>
      <trkpt lat="45.9602" lon="4.94123">
        <ele>291</ele>
        <time>2016-11-19T10:19:37Z</time>
      </trkpt>
      <trkpt lat="45.96015" lon="4.94122">
        <ele>291</ele>
        <time>2016-11-19T10:19:38Z</time>
      </trkpt>
      <trkpt lat="45.9601" lon="4.9412">
        <ele>291</ele>
        <time>2016-11-19T10:19:39Z</time>
      </trkpt>
      <trkpt lat="45.96005" lon="4.94119">
        <ele>291</ele>
        <time>2016-11-19T10:19:40Z</time>
      </trkpt>
      <trkpt lat="45.95999" lon="4.94118">
        <ele>291</ele>
        <time>2016-11-19T10:19:41Z</time>
      </trkpt>
      <trkpt lat="45.95995" lon="4.94117">
        <ele>291</ele>
        <time>2016-11-19T10:19:42Z</time>
      </trkpt>
      <trkpt lat="45.9599" lon="4.94116">
        <ele>291</ele>
        <time>2016-11-19T10:19:43Z</time>
      </trkpt>
      <trkpt lat="45.95985" lon="4.94115">
        <ele>292</ele>
        <time>2016-11-19T10:19:44Z</time>
      </trkpt>
      <trkpt lat="45.9598" lon="4.94113">
        <ele>292</ele>
        <time>2016-11-19T10:19:45Z</time>
      </trkpt>
      <trkpt lat="45.95974" lon="4.94112">
        <ele>292</ele>
        <time>2016-11-19T10:19:46Z</time>
      </trkpt>
      <trkpt lat="45.95969" lon="4.9411">
        <ele>292</ele>
        <time>2016-11-19T10:19:47Z</time>
      </trkpt>
      <trkpt lat="45.95964" lon="4.94108">
        <ele>292</ele>
        <time>2016-11-19T10:19:48Z</time>
      </trkpt>
      <trkpt lat="45.95958" lon="4.94106">
        <ele>292</ele>
        <time>2016-11-19T10:19:49Z</time>
      </trkpt>
      <trkpt lat="45.95953" lon="4.94104">
        <ele>292</ele>
        <time>2016-11-19T10:19:50Z</time>
      </trkpt>
      <trkpt lat="45.95948" lon="4.94102">
        <ele>292</ele>
        <time>2016-11-19T10:19:51Z</time>
      </trkpt>
      <trkpt lat="45.95943" lon="4.94101">
        <ele>292</ele>
        <time>2016-11-19T10:19:52Z</time>
      </trkpt>
      <trkpt lat="45.95938" lon="4.941">
        <ele>292</ele>
        <time>2016-11-19T10:19:53Z</time>
      </trkpt>
      <trkpt lat="45.95933" lon="4.94099">
        <ele>292</ele>
        <time>2016-11-19T10:19:54Z</time>
      </trkpt>
      <trkpt lat="45.95928" lon="4.94098">
        <ele>292</ele>
        <time>2016-11-19T10:19:55Z</time>
      </trkpt>
      <trkpt lat="45.95923" lon="4.94097">
        <ele>292</ele>
        <time>2016-11-19T10:19:56Z</time>
      </trkpt>
      <trkpt lat="45.95918" lon="4.94096">
        <ele>293</ele>
        <time>2016-11-19T10:19:57Z</time>
      </trkpt>
      <trkpt lat="45.95913" lon="4.94095">
        <ele>293</ele>
        <time>2016-11-19T10:19:58Z</time>
      </trkpt>
      <trkpt lat="45.95908" lon="4.94094">
        <ele>293</ele>
        <time>2016-11-19T10:19:59Z</time>
      </trkpt>
      <trkpt lat="45.95903" lon="4.94092">
        <ele>293</ele>
        <time>2016-11-19T10:20:00Z</time>
      </trkpt>
      <trkpt lat="45.95899" lon="4.9409">
        <ele>293</ele>
        <time>2016-11-19T10:20:01Z</time>
      </trkpt>
      <trkpt lat="45.95894" lon="4.94089">
        <ele>293</ele>
        <time>2016-11-19T10:20:02Z</time>
      </trkpt>
      <trkpt lat="45.95889" lon="4.94087">
        <ele>293</ele>
        <time>2016-11-19T10:20:03Z</time>
      </trkpt>
      <trkpt lat="45.95884" lon="4.94086">
        <ele>293</ele>
        <time>2016-11-19T10:20:04Z</time>
      </trkpt>
      <trkpt lat="45.95879" lon="4.94084">
        <ele>293</ele>
        <time>2016-11-19T10:20:05Z</time>
      </trkpt>
      <trkpt lat="45.95874" lon="4.94083">
        <ele>293</ele>
        <time>2016-11-19T10:20:06Z</time>
      </trkpt>
      <trkpt lat="45.95869" lon="4.94082">
        <ele>293</ele>
        <time>2016-11-19T10:20:07Z</time>
      </trkpt>
      <trkpt lat="45.95864" lon="4.94081">
        <ele>293</ele>
        <time>2016-11-19T10:20:08Z</time>
      </trkpt>
      <trkpt lat="45.95859" lon="4.9408">
        <ele>293</ele>
        <time>2016-11-19T10:20:09Z</time>
      </trkpt>
      <trkpt lat="45.95854" lon="4.94078">
        <ele>293</ele>
        <time>2016-11-19T10:20:10Z</time>
      </trkpt>
      <trkpt lat="45.95849" lon="4.94077">
        <ele>293</ele>
        <time>2016-11-19T10:20:11Z</time>
      </trkpt>
      <trkpt lat="45.95845" lon="4.94076">
        <ele>293</ele>
        <time>2016-11-19T10:20:12Z</time>
      </trkpt>
      <trkpt lat="45.9584" lon="4.94075">
        <ele>294</ele>
        <time>2016-11-19T10:20:13Z</time>
      </trkpt>
      <trkpt lat="45.95835" lon="4.94074">
        <ele>294</ele>
        <time>2016-11-19T10:20:14Z</time>
      </trkpt>
      <trkpt lat="45.9583" lon="4.94073">
        <ele>294</ele>
        <time>2016-11-19T10:20:15Z</time>
      </trkpt>
      <trkpt lat="45.95825" lon="4.94071">
        <ele>294</ele>
        <time>2016-11-19T10:20:16Z</time>
      </trkpt>
      <trkpt lat="45.9582" lon="4.9407">
        <ele>294</ele>
        <time>2016-11-19T10:20:17Z</time>
      </trkpt>
      <trkpt lat="45.95815" lon="4.94069">
        <ele>294</ele>
        <time>2016-11-19T10:20:18Z</time>
      </trkpt>
      <trkpt lat="45.9581" lon="4.94068">
        <ele>294</ele>
        <time>2016-11-19T10:20:19Z</time>
      </trkpt>
      <trkpt lat="45.95805" lon="4.94068">
        <ele>294</ele>
        <time>2016-11-19T10:20:20Z</time>
      </trkpt>
      <trkpt lat="45.958" lon="4.94067">
        <ele>294</ele>
        <time>2016-11-19T10:20:21Z</time>
      </trkpt>
      <trkpt lat="45.95795" lon="4.94065">
        <ele>294</ele>
        <time>2016-11-19T10:20:22Z</time>
      </trkpt>
      <trkpt lat="45.95791" lon="4.94063">
        <ele>294</ele>
        <time>2016-11-19T10:20:23Z</time>
      </trkpt>
      <trkpt lat="45.95786" lon="4.94062">
        <ele>294</ele>
        <time>2016-11-19T10:20:24Z</time>
      </trkpt>
      <trkpt lat="45.95781" lon="4.94061">
        <ele>294</ele>
        <time>2016-11-19T10:20:25Z</time>
      </trkpt>
      <trkpt lat="45.95777" lon="4.94058">
        <ele>294</ele>
        <time>2016-11-19T10:20:26Z</time>
      </trkpt>
      <trkpt lat="45.95772" lon="4.94057">
        <ele>294</ele>
        <time>2016-11-19T10:20:27Z</time>
      </trkpt>
      <trkpt lat="45.95766" lon="4.94056">
        <ele>294</ele>
        <time>2016-11-19T10:20:28Z</time>
      </trkpt>
      <trkpt lat="45.9576" lon="4.94054">
        <ele>294</ele>
        <time>2016-11-19T10:20:29Z</time>
      </trkpt>
      <trkpt lat="45.95755" lon="4.94053">
        <ele>294</ele>
        <time>2016-11-19T10:20:30Z</time>
      </trkpt>
      <trkpt lat="45.9575" lon="4.94052">
        <ele>295</ele>
        <time>2016-11-19T10:20:31Z</time>
      </trkpt>
      <trkpt lat="45.95745" lon="4.94051">
        <ele>295</ele>
        <time>2016-11-19T10:20:32Z</time>
      </trkpt>
      <trkpt lat="45.9574" lon="4.94051">
        <ele>295</ele>
        <time>2016-11-19T10:20:33Z</time>
      </trkpt>
      <trkpt lat="45.95732" lon="4.94049">
        <ele>295</ele>
        <time>2016-11-19T10:20:35Z</time>
      </trkpt>
      <trkpt lat="45.95728" lon="4.94047">
        <ele>295</ele>
        <time>2016-11-19T10:20:36Z</time>
      </trkpt>
      <trkpt lat="45.95723" lon="4.94046">
        <ele>295</ele>
        <time>2016-11-19T10:20:37Z</time>
      </trkpt>
      <trkpt lat="45.95719" lon="4.94045">
        <ele>295</ele>
        <time>2016-11-19T10:20:38Z</time>
      </trkpt>
      <trkpt lat="45.95714" lon="4.94043">
        <ele>295</ele>
        <time>2016-11-19T10:20:39Z</time>
      </trkpt>
      <trkpt lat="45.9571" lon="4.94041">
        <ele>295</ele>
        <time>2016-11-19T10:20:40Z</time>
      </trkpt>
      <trkpt lat="45.95705" lon="4.9404">
        <ele>295</ele>
        <time>2016-11-19T10:20:41Z</time>
      </trkpt>
      <trkpt lat="45.957" lon="4.94039">
        <ele>295</ele>
        <time>2016-11-19T10:20:42Z</time>
      </trkpt>
      <trkpt lat="45.95695" lon="4.94037">
        <ele>295</ele>
        <time>2016-11-19T10:20:43Z</time>
      </trkpt>
      <trkpt lat="45.95691" lon="4.94035">
        <ele>295</ele>
        <time>2016-11-19T10:20:44Z</time>
      </trkpt>
      <trkpt lat="45.95686" lon="4.94034">
        <ele>295</ele>
        <time>2016-11-19T10:20:45Z</time>
      </trkpt>
      <trkpt lat="45.95681" lon="4.94033">
        <ele>295</ele>
        <time>2016-11-19T10:20:46Z</time>
      </trkpt>
      <trkpt lat="45.95673" lon="4.9403">
        <ele>295</ele>
        <time>2016-11-19T10:20:48Z</time>
      </trkpt>
      <trkpt lat="45.95671" lon="4.94025">
        <ele>295</ele>
        <time>2016-11-19T10:20:49Z</time>
      </trkpt>
      <trkpt lat="45.95669" lon="4.94013">
        <ele>295</ele>
        <time>2016-11-19T10:20:51Z</time>
      </trkpt>
      <trkpt lat="45.95669" lon="4.94007">
        <ele>296</ele>
        <time>2016-11-19T10:20:52Z</time>
      </trkpt>
      <trkpt lat="45.95669" lon="4.93995">
        <ele>296</ele>
        <time>2016-11-19T10:20:54Z</time>
      </trkpt>
      <trkpt lat="45.95668" lon="4.93989">
        <ele>295</ele>
        <time>2016-11-19T10:20:55Z</time>
      </trkpt>
      <trkpt lat="45.95664" lon="4.93981">
        <ele>295</ele>
        <time>2016-11-19T10:20:57Z</time>
      </trkpt>
      <trkpt lat="45.9566" lon="4.93979">
        <ele>295</ele>
        <time>2016-11-19T10:20:58Z</time>
      </trkpt>
      <trkpt lat="45.95653" lon="4.93974">
        <ele>294</ele>
        <time>2016-11-19T10:21:00Z</time>
      </trkpt>
      <trkpt lat="45.9565" lon="4.9397">
        <ele>294</ele>
        <time>2016-11-19T10:21:01Z</time>
      </trkpt>
      <trkpt lat="45.95645" lon="4.93959">
        <ele>294</ele>
        <time>2016-11-19T10:21:03Z</time>
      </trkpt>
      <trkpt lat="45.95646" lon="4.9395">
        <ele>294</ele>
        <time>2016-11-19T10:21:04Z</time>
      </trkpt>
      <trkpt lat="45.95646" lon="4.93941">
        <ele>294</ele>
        <time>2016-11-19T10:21:05Z</time>
      </trkpt>
      <trkpt lat="45.95646" lon="4.93932">
        <ele>294</ele>
        <time>2016-11-19T10:21:06Z</time>
      </trkpt>
      <trkpt lat="45.95648" lon="4.93922">
        <ele>294</ele>
        <time>2016-11-19T10:21:07Z</time>
      </trkpt>
      <trkpt lat="45.9565" lon="4.93911">
        <ele>292</ele>
        <time>2016-11-19T10:21:08Z</time>
      </trkpt>
      <trkpt lat="45.95653" lon="4.939">
        <ele>292</ele>
        <time>2016-11-19T10:21:09Z</time>
      </trkpt>
      <trkpt lat="45.95655" lon="4.9389">
        <ele>292</ele>
        <time>2016-11-19T10:21:10Z</time>
      </trkpt>
      <trkpt lat="45.95657" lon="4.9388">
        <ele>291</ele>
        <time>2016-11-19T10:21:11Z</time>
      </trkpt>
      <trkpt lat="45.95657" lon="4.93871">
        <ele>291</ele>
        <time>2016-11-19T10:21:12Z</time>
      </trkpt>
      <trkpt lat="45.95655" lon="4.93863">
        <ele>290</ele>
        <time>2016-11-19T10:21:13Z</time>
      </trkpt>
      <trkpt lat="45.95651" lon="4.93859">
        <ele>290</ele>
        <time>2016-11-19T10:21:14Z</time>
      </trkpt>
      <trkpt lat="45.95645" lon="4.93855">
        <ele>290</ele>
        <time>2016-11-19T10:21:15Z</time>
      </trkpt>
      <trkpt lat="45.9564" lon="4.93852">
        <ele>290</ele>
        <time>2016-11-19T10:21:16Z</time>
      </trkpt>
      <trkpt lat="45.95635" lon="4.93849">
        <ele>290</ele>
        <time>2016-11-19T10:21:17Z</time>
      </trkpt>
      <trkpt lat="45.95629" lon="4.93846">
        <ele>290</ele>
        <time>2016-11-19T10:21:18Z</time>
      </trkpt>
      <trkpt lat="45.95624" lon="4.93843">
        <ele>290</ele>
        <time>2016-11-19T10:21:19Z</time>
      </trkpt>
      <trkpt lat="45.95619" lon="4.93839">
        <ele>290</ele>
        <time>2016-11-19T10:21:20Z</time>
      </trkpt>
      <trkpt lat="45.95614" lon="4.93835">
        <ele>290</ele>
        <time>2016-11-19T10:21:21Z</time>
      </trkpt>
      <trkpt lat="45.9561" lon="4.9383">
        <ele>289</ele>
        <time>2016-11-19T10:21:22Z</time>
      </trkpt>
      <trkpt lat="45.95605" lon="4.93826">
        <ele>289</ele>
        <time>2016-11-19T10:21:23Z</time>
      </trkpt>
      <trkpt lat="45.956" lon="4.93822">
        <ele>289</ele>
        <time>2016-11-19T10:21:24Z</time>
      </trkpt>
      <trkpt lat="45.95595" lon="4.93817">
        <ele>289</ele>
        <time>2016-11-19T10:21:25Z</time>
      </trkpt>
      <trkpt lat="45.9559" lon="4.93813">
        <ele>289</ele>
        <time>2016-11-19T10:21:26Z</time>
      </trkpt>
      <trkpt lat="45.95586" lon="4.93808">
        <ele>289</ele>
        <time>2016-11-19T10:21:27Z</time>
      </trkpt>
      <trkpt lat="45.9558" lon="4.93804">
        <ele>290</ele>
        <time>2016-11-19T10:21:28Z</time>
      </trkpt>
      <trkpt lat="45.95575" lon="4.93799">
        <ele>290</ele>
        <time>2016-11-19T10:21:29Z</time>
      </trkpt>
      <trkpt lat="45.95571" lon="4.93793">
        <ele>290</ele>
        <time>2016-11-19T10:21:30Z</time>
      </trkpt>
      <trkpt lat="45.95568" lon="4.93786">
        <ele>290</ele>
        <time>2016-11-19T10:21:31Z</time>
      </trkpt>
      <trkpt lat="45.95565" lon="4.93779">
        <ele>290</ele>
        <time>2016-11-19T10:21:32Z</time>
      </trkpt>
      <trkpt lat="45.95563" lon="4.93771">
        <ele>290</ele>
        <time>2016-11-19T10:21:33Z</time>
      </trkpt>
      <trkpt lat="45.95563" lon="4.93763">
        <ele>290</ele>
        <time>2016-11-19T10:21:34Z</time>
      </trkpt>
      <trkpt lat="45.95562" lon="4.93754">
        <ele>290</ele>
        <time>2016-11-19T10:21:35Z</time>
      </trkpt>
      <trkpt lat="45.95561" lon="4.93746">
        <ele>290</ele>
        <time>2016-11-19T10:21:36Z</time>
      </trkpt>
      <trkpt lat="45.95561" lon="4.93738">
        <ele>290</ele>
        <time>2016-11-19T10:21:37Z</time>
      </trkpt>
      <trkpt lat="45.95561" lon="4.93729">
        <ele>290</ele>
        <time>2016-11-19T10:21:38Z</time>
      </trkpt>
      <trkpt lat="45.9556" lon="4.9372">
        <ele>290</ele>
        <time>2016-11-19T10:21:39Z</time>
      </trkpt>
      <trkpt lat="45.9556" lon="4.93711">
        <ele>290</ele>
        <time>2016-11-19T10:21:40Z</time>
      </trkpt>
      <trkpt lat="45.9556" lon="4.93702">
        <ele>290</ele>
        <time>2016-11-19T10:21:41Z</time>
      </trkpt>
      <trkpt lat="45.95561" lon="4.93694">
        <ele>290</ele>
        <time>2016-11-19T10:21:42Z</time>
      </trkpt>
      <trkpt lat="45.95562" lon="4.93685">
        <ele>290</ele>
        <time>2016-11-19T10:21:43Z</time>
      </trkpt>
      <trkpt lat="45.95562" lon="4.93677">
        <ele>289</ele>
        <time>2016-11-19T10:21:44Z</time>
      </trkpt>
      <trkpt lat="45.95563" lon="4.93668">
        <ele>289</ele>
        <time>2016-11-19T10:21:45Z</time>
      </trkpt>
      <trkpt lat="45.95564" lon="4.9366">
        <ele>289</ele>
        <time>2016-11-19T10:21:46Z</time>
      </trkpt>
      <trkpt lat="45.95564" lon="4.93653">
        <ele>289</ele>
        <time>2016-11-19T10:21:47Z</time>
      </trkpt>
      <trkpt lat="45.95565" lon="4.93645">
        <ele>289</ele>
        <time>2016-11-19T10:21:48Z</time>
      </trkpt>
      <trkpt lat="45.95565" lon="4.93638">
        <ele>289</ele>
        <time>2016-11-19T10:21:49Z</time>
      </trkpt>
      <trkpt lat="45.95566" lon="4.93631">
        <ele>289</ele>
        <time>2016-11-19T10:21:50Z</time>
      </trkpt>
      <trkpt lat="45.95567" lon="4.93623">
        <ele>289</ele>
        <time>2016-11-19T10:21:51Z</time>
      </trkpt>
      <trkpt lat="45.95567" lon="4.93616">
        <ele>289</ele>
        <time>2016-11-19T10:21:52Z</time>
      </trkpt>
      <trkpt lat="45.95568" lon="4.93608">
        <ele>289</ele>
        <time>2016-11-19T10:21:53Z</time>
      </trkpt>
      <trkpt lat="45.95568" lon="4.936">
        <ele>289</ele>
        <time>2016-11-19T10:21:54Z</time>
      </trkpt>
      <trkpt lat="45.95569" lon="4.93593">
        <ele>289</ele>
        <time>2016-11-19T10:21:55Z</time>
      </trkpt>
      <trkpt lat="45.9557" lon="4.93585">
        <ele>289</ele>
        <time>2016-11-19T10:21:56Z</time>
      </trkpt>
      <trkpt lat="45.95571" lon="4.93577">
        <ele>289</ele>
        <time>2016-11-19T10:21:57Z</time>
      </trkpt>
      <trkpt lat="45.95571" lon="4.93569">
        <ele>289</ele>
        <time>2016-11-19T10:21:58Z</time>
      </trkpt>
      <trkpt lat="45.95572" lon="4.93561">
        <ele>289</ele>
        <time>2016-11-19T10:21:59Z</time>
      </trkpt>
      <trkpt lat="45.95572" lon="4.93554">
        <ele>289</ele>
        <time>2016-11-19T10:22:00Z</time>
      </trkpt>
      <trkpt lat="45.95572" lon="4.93546">
        <ele>289</ele>
        <time>2016-11-19T10:22:01Z</time>
      </trkpt>
      <trkpt lat="45.95572" lon="4.93537">
        <ele>290</ele>
        <time>2016-11-19T10:22:02Z</time>
      </trkpt>
      <trkpt lat="45.95571" lon="4.93528">
        <ele>290</ele>
        <time>2016-11-19T10:22:03Z</time>
      </trkpt>
      <trkpt lat="45.95571" lon="4.93521">
        <ele>290</ele>
        <time>2016-11-19T10:22:04Z</time>
      </trkpt>
      <trkpt lat="45.95569" lon="4.93513">
        <ele>290</ele>
        <time>2016-11-19T10:22:05Z</time>
      </trkpt>
      <trkpt lat="45.95567" lon="4.93506">
        <ele>290</ele>
        <time>2016-11-19T10:22:06Z</time>
      </trkpt>
      <trkpt lat="45.95565" lon="4.93498">
        <ele>290</ele>
        <time>2016-11-19T10:22:07Z</time>
      </trkpt>
      <trkpt lat="45.95563" lon="4.9349">
        <ele>290</ele>
        <time>2016-11-19T10:22:08Z</time>
      </trkpt>
      <trkpt lat="45.95561" lon="4.93481">
        <ele>289</ele>
        <time>2016-11-19T10:22:09Z</time>
      </trkpt>
      <trkpt lat="45.95559" lon="4.93473">
        <ele>289</ele>
        <time>2016-11-19T10:22:10Z</time>
      </trkpt>
      <trkpt lat="45.95557" lon="4.93466">
        <ele>289</ele>
        <time>2016-11-19T10:22:11Z</time>
      </trkpt>
      <trkpt lat="45.95554" lon="4.9346">
        <ele>289</ele>
        <time>2016-11-19T10:22:12Z</time>
      </trkpt>
      <trkpt lat="45.95552" lon="4.93453">
        <ele>289</ele>
        <time>2016-11-19T10:22:13Z</time>
      </trkpt>
      <trkpt lat="45.9555" lon="4.93447">
        <ele>289</ele>
        <time>2016-11-19T10:22:14Z</time>
      </trkpt>
      <trkpt lat="45.95547" lon="4.9344">
        <ele>289</ele>
        <time>2016-11-19T10:22:15Z</time>
      </trkpt>
      <trkpt lat="45.95545" lon="4.93433">
        <ele>289</ele>
        <time>2016-11-19T10:22:16Z</time>
      </trkpt>
      <trkpt lat="45.95542" lon="4.93426">
        <ele>289</ele>
        <time>2016-11-19T10:22:17Z</time>
      </trkpt>
      <trkpt lat="45.95539" lon="4.93419">
        <ele>289</ele>
        <time>2016-11-19T10:22:18Z</time>
      </trkpt>
      <trkpt lat="45.95536" lon="4.93411">
        <ele>289</ele>
        <time>2016-11-19T10:22:19Z</time>
      </trkpt>
      <trkpt lat="45.95533" lon="4.93404">
        <ele>289</ele>
        <time>2016-11-19T10:22:20Z</time>
      </trkpt>
      <trkpt lat="45.9553" lon="4.93397">
        <ele>289</ele>
        <time>2016-11-19T10:22:21Z</time>
      </trkpt>
      <trkpt lat="45.95527" lon="4.93389">
        <ele>289</ele>
        <time>2016-11-19T10:22:22Z</time>
      </trkpt>
      <trkpt lat="45.95524" lon="4.93382">
        <ele>289</ele>
        <time>2016-11-19T10:22:23Z</time>
      </trkpt>
      <trkpt lat="45.95521" lon="4.93375">
        <ele>289</ele>
        <time>2016-11-19T10:22:24Z</time>
      </trkpt>
      <trkpt lat="45.95518" lon="4.93367">
        <ele>289</ele>
        <time>2016-11-19T10:22:25Z</time>
      </trkpt>
      <trkpt lat="45.95515" lon="4.93359">
        <ele>289</ele>
        <time>2016-11-19T10:22:26Z</time>
      </trkpt>
      <trkpt lat="45.95512" lon="4.93352">
        <ele>289</ele>
        <time>2016-11-19T10:22:27Z</time>
      </trkpt>
      <trkpt lat="45.95509" lon="4.93344">
        <ele>289</ele>
        <time>2016-11-19T10:22:28Z</time>
      </trkpt>
      <trkpt lat="45.95506" lon="4.93337">
        <ele>289</ele>
        <time>2016-11-19T10:22:29Z</time>
      </trkpt>
      <trkpt lat="45.95503" lon="4.9333">
        <ele>289</ele>
        <time>2016-11-19T10:22:30Z</time>
      </trkpt>
      <trkpt lat="45.955" lon="4.93323">
        <ele>289</ele>
        <time>2016-11-19T10:22:31Z</time>
      </trkpt>
      <trkpt lat="45.95497" lon="4.93317">
        <ele>290</ele>
        <time>2016-11-19T10:22:32Z</time>
      </trkpt>
      <trkpt lat="45.95494" lon="4.93311">
        <ele>290</ele>
        <time>2016-11-19T10:22:33Z</time>
      </trkpt>
      <trkpt lat="45.95491" lon="4.93305">
        <ele>290</ele>
        <time>2016-11-19T10:22:34Z</time>
      </trkpt>
      <trkpt lat="45.95489" lon="4.93299">
        <ele>290</ele>
        <time>2016-11-19T10:22:35Z</time>
      </trkpt>
      <trkpt lat="45.95487" lon="4.93293">
        <ele>290</ele>
        <time>2016-11-19T10:22:36Z</time>
      </trkpt>
      <trkpt lat="45.95484" lon="4.93287">
        <ele>290</ele>
        <time>2016-11-19T10:22:37Z</time>
      </trkpt>
      <trkpt lat="45.95481" lon="4.93281">
        <ele>290</ele>
        <time>2016-11-19T10:22:38Z</time>
      </trkpt>
      <trkpt lat="45.95479" lon="4.93275">
        <ele>290</ele>
        <time>2016-11-19T10:22:39Z</time>
      </trkpt>
      <trkpt lat="45.95476" lon="4.93268">
        <ele>290</ele>
        <time>2016-11-19T10:22:40Z</time>
      </trkpt>
      <trkpt lat="45.95473" lon="4.93261">
        <ele>290</ele>
        <time>2016-11-19T10:22:41Z</time>
      </trkpt>
      <trkpt lat="45.9547" lon="4.93255">
        <ele>290</ele>
        <time>2016-11-19T10:22:42Z</time>
      </trkpt>
      <trkpt lat="45.95467" lon="4.93248">
        <ele>290</ele>
        <time>2016-11-19T10:22:43Z</time>
      </trkpt>
      <trkpt lat="45.95464" lon="4.93241">
        <ele>290</ele>
        <time>2016-11-19T10:22:44Z</time>
      </trkpt>
      <trkpt lat="45.9546" lon="4.93234">
        <ele>290</ele>
        <time>2016-11-19T10:22:45Z</time>
      </trkpt>
      <trkpt lat="45.95457" lon="4.93227">
        <ele>291</ele>
        <time>2016-11-19T10:22:46Z</time>
      </trkpt>
      <trkpt lat="45.95454" lon="4.93219">
        <ele>291</ele>
        <time>2016-11-19T10:22:47Z</time>
      </trkpt>
      <trkpt lat="45.95451" lon="4.93211">
        <ele>291</ele>
        <time>2016-11-19T10:22:48Z</time>
      </trkpt>
      <trkpt lat="45.95449" lon="4.93203">
        <ele>291</ele>
        <time>2016-11-19T10:22:49Z</time>
      </trkpt>
      <trkpt lat="45.95449" lon="4.93195">
        <ele>291</ele>
        <time>2016-11-19T10:22:50Z</time>
      </trkpt>
      <trkpt lat="45.9545" lon="4.93187">
        <ele>291</ele>
        <time>2016-11-19T10:22:51Z</time>
      </trkpt>
      <trkpt lat="45.95452" lon="4.9318">
        <ele>291</ele>
        <time>2016-11-19T10:22:52Z</time>
      </trkpt>
      <trkpt lat="45.95455" lon="4.93173">
        <ele>291</ele>
        <time>2016-11-19T10:22:53Z</time>
      </trkpt>
      <trkpt lat="45.95459" lon="4.93168">
        <ele>290</ele>
        <time>2016-11-19T10:22:54Z</time>
      </trkpt>
      <trkpt lat="45.95463" lon="4.93164">
        <ele>290</ele>
        <time>2016-11-19T10:22:55Z</time>
      </trkpt>
      <trkpt lat="45.95468" lon="4.9316">
        <ele>290</ele>
        <time>2016-11-19T10:22:56Z</time>
      </trkpt>
      <trkpt lat="45.95472" lon="4.93156">
        <ele>290</ele>
        <time>2016-11-19T10:22:57Z</time>
      </trkpt>
      <trkpt lat="45.95476" lon="4.93153">
        <ele>290</ele>
        <time>2016-11-19T10:22:58Z</time>
      </trkpt>
      <trkpt lat="45.95483" lon="4.93147">
        <ele>290</ele>
        <time>2016-11-19T10:23:00Z</time>
      </trkpt>
      <trkpt lat="45.95487" lon="4.93144">
        <ele>290</ele>
        <time>2016-11-19T10:23:01Z</time>
      </trkpt>
      <trkpt lat="45.95491" lon="4.93141">
        <ele>290</ele>
        <time>2016-11-19T10:23:02Z</time>
      </trkpt>
      <trkpt lat="45.95495" lon="4.93138">
        <ele>290</ele>
        <time>2016-11-19T10:23:03Z</time>
      </trkpt>
      <trkpt lat="45.95503" lon="4.93132">
        <ele>289</ele>
        <time>2016-11-19T10:23:05Z</time>
      </trkpt>
      <trkpt lat="45.95506" lon="4.93129">
        <ele>289</ele>
        <time>2016-11-19T10:23:06Z</time>
      </trkpt>
      <trkpt lat="45.95513" lon="4.93123">
        <ele>289</ele>
        <time>2016-11-19T10:23:08Z</time>
      </trkpt>
      <trkpt lat="45.95517" lon="4.9312">
        <ele>289</ele>
        <time>2016-11-19T10:23:09Z</time>
      </trkpt>
      <trkpt lat="45.95521" lon="4.93115">
        <ele>289</ele>
        <time>2016-11-19T10:23:10Z</time>
      </trkpt>
      <trkpt lat="45.95524" lon="4.9311">
        <ele>289</ele>
        <time>2016-11-19T10:23:11Z</time>
      </trkpt>
      <trkpt lat="45.95528" lon="4.93105">
        <ele>289</ele>
        <time>2016-11-19T10:23:12Z</time>
      </trkpt>
      <trkpt lat="45.95532" lon="4.931">
        <ele>289</ele>
        <time>2016-11-19T10:23:13Z</time>
      </trkpt>
      <trkpt lat="45.95536" lon="4.93094">
        <ele>290</ele>
        <time>2016-11-19T10:23:14Z</time>
      </trkpt>
      <trkpt lat="45.95539" lon="4.93087">
        <ele>290</ele>
        <time>2016-11-19T10:23:15Z</time>
      </trkpt>
      <trkpt lat="45.95542" lon="4.9308">
        <ele>290</ele>
        <time>2016-11-19T10:23:16Z</time>
      </trkpt>
      <trkpt lat="45.95544" lon="4.93073">
        <ele>290</ele>
        <time>2016-11-19T10:23:17Z</time>
      </trkpt>
      <trkpt lat="45.95546" lon="4.93066">
        <ele>290</ele>
        <time>2016-11-19T10:23:18Z</time>
      </trkpt>
      <trkpt lat="45.95547" lon="4.93058">
        <ele>290</ele>
        <time>2016-11-19T10:23:19Z</time>
      </trkpt>
      <trkpt lat="45.95548" lon="4.93051">
        <ele>290</ele>
        <time>2016-11-19T10:23:20Z</time>
      </trkpt>
      <trkpt lat="45.95549" lon="4.93044">
        <ele>291</ele>
        <time>2016-11-19T10:23:21Z</time>
      </trkpt>
      <trkpt lat="45.9555" lon="4.93035">
        <ele>291</ele>
        <time>2016-11-19T10:23:22Z</time>
      </trkpt>
      <trkpt lat="45.95552" lon="4.93027">
        <ele>291</ele>
        <time>2016-11-19T10:23:23Z</time>
      </trkpt>
      <trkpt lat="45.95553" lon="4.93018">
        <ele>291</ele>
        <time>2016-11-19T10:23:24Z</time>
      </trkpt>
      <trkpt lat="45.95553" lon="4.9301">
        <ele>291</ele>
        <time>2016-11-19T10:23:25Z</time>
      </trkpt>
      <trkpt lat="45.95554" lon="4.93001">
        <ele>291</ele>
        <time>2016-11-19T10:23:26Z</time>
      </trkpt>
      <trkpt lat="45.95555" lon="4.92993">
        <ele>292</ele>
        <time>2016-11-19T10:23:27Z</time>
      </trkpt>
      <trkpt lat="45.95556" lon="4.92984">
        <ele>292</ele>
        <time>2016-11-19T10:23:28Z</time>
      </trkpt>
      <trkpt lat="45.95558" lon="4.92976">
        <ele>292</ele>
        <time>2016-11-19T10:23:29Z</time>
      </trkpt>
      <trkpt lat="45.95558" lon="4.92969">
        <ele>292</ele>
        <time>2016-11-19T10:23:30Z</time>
      </trkpt>
      <trkpt lat="45.9556" lon="4.92962">
        <ele>292</ele>
        <time>2016-11-19T10:23:31Z</time>
      </trkpt>
      <trkpt lat="45.95561" lon="4.92956">
        <ele>292</ele>
        <time>2016-11-19T10:23:32Z</time>
      </trkpt>
      <trkpt lat="45.95562" lon="4.92949">
        <ele>292</ele>
        <time>2016-11-19T10:23:33Z</time>
      </trkpt>
      <trkpt lat="45.95563" lon="4.92942">
        <ele>292</ele>
        <time>2016-11-19T10:23:34Z</time>
      </trkpt>
      <trkpt lat="45.95564" lon="4.92936">
        <ele>292</ele>
        <time>2016-11-19T10:23:35Z</time>
      </trkpt>
      <trkpt lat="45.95565" lon="4.9293">
        <ele>293</ele>
        <time>2016-11-19T10:23:36Z</time>
      </trkpt>
      <trkpt lat="45.95566" lon="4.92923">
        <ele>293</ele>
        <time>2016-11-19T10:23:37Z</time>
      </trkpt>
      <trkpt lat="45.95568" lon="4.92917">
        <ele>294</ele>
        <time>2016-11-19T10:23:38Z</time>
      </trkpt>
      <trkpt lat="45.95569" lon="4.9291">
        <ele>294</ele>
        <time>2016-11-19T10:23:39Z</time>
      </trkpt>
      <trkpt lat="45.9557" lon="4.92903">
        <ele>294</ele>
        <time>2016-11-19T10:23:40Z</time>
      </trkpt>
      <trkpt lat="45.95571" lon="4.92896">
        <ele>294</ele>
        <time>2016-11-19T10:23:41Z</time>
      </trkpt>
      <trkpt lat="45.95573" lon="4.92889">
        <ele>294</ele>
        <time>2016-11-19T10:23:42Z</time>
      </trkpt>
      <trkpt lat="45.95574" lon="4.92882">
        <ele>294</ele>
        <time>2016-11-19T10:23:43Z</time>
      </trkpt>
      <trkpt lat="45.95576" lon="4.92874">
        <ele>294</ele>
        <time>2016-11-19T10:23:44Z</time>
      </trkpt>
      <trkpt lat="45.95577" lon="4.92867">
        <ele>294</ele>
        <time>2016-11-19T10:23:45Z</time>
      </trkpt>
      <trkpt lat="45.95578" lon="4.92859">
        <ele>294</ele>
        <time>2016-11-19T10:23:46Z</time>
      </trkpt>
      <trkpt lat="45.95579" lon="4.92851">
        <ele>294</ele>
        <time>2016-11-19T10:23:47Z</time>
      </trkpt>
      <trkpt lat="45.9558" lon="4.92844">
        <ele>294</ele>
        <time>2016-11-19T10:23:48Z</time>
      </trkpt>
      <trkpt lat="45.95581" lon="4.92836">
        <ele>295</ele>
        <time>2016-11-19T10:23:49Z</time>
      </trkpt>
      <trkpt lat="45.95582" lon="4.92828">
        <ele>295</ele>
        <time>2016-11-19T10:23:50Z</time>
      </trkpt>
      <trkpt lat="45.95583" lon="4.92821">
        <ele>295</ele>
        <time>2016-11-19T10:23:51Z</time>
      </trkpt>
      <trkpt lat="45.95584" lon="4.92814">
        <ele>295</ele>
        <time>2016-11-19T10:23:52Z</time>
      </trkpt>
      <trkpt lat="45.95585" lon="4.92808">
        <ele>295</ele>
        <time>2016-11-19T10:23:53Z</time>
      </trkpt>
      <trkpt lat="45.95588" lon="4.92796">
        <ele>295</ele>
        <time>2016-11-19T10:23:55Z</time>
      </trkpt>
      <trkpt lat="45.95589" lon="4.9279">
        <ele>295</ele>
        <time>2016-11-19T10:23:56Z</time>
      </trkpt>
      <trkpt lat="45.95591" lon="4.92778">
        <ele>295</ele>
        <time>2016-11-19T10:23:58Z</time>
      </trkpt>
      <trkpt lat="45.95593" lon="4.92772">
        <ele>295</ele>
        <time>2016-11-19T10:23:59Z</time>
      </trkpt>
      <trkpt lat="45.95594" lon="4.92765">
        <ele>295</ele>
        <time>2016-11-19T10:24:00Z</time>
      </trkpt>
      <trkpt lat="45.95595" lon="4.92759">
        <ele>295</ele>
        <time>2016-11-19T10:24:01Z</time>
      </trkpt>
      <trkpt lat="45.95595" lon="4.92752">
        <ele>295</ele>
        <time>2016-11-19T10:24:02Z</time>
      </trkpt>
      <trkpt lat="45.95596" lon="4.92746">
        <ele>295</ele>
        <time>2016-11-19T10:24:03Z</time>
      </trkpt>
      <trkpt lat="45.95597" lon="4.92739">
        <ele>295</ele>
        <time>2016-11-19T10:24:04Z</time>
      </trkpt>
      <trkpt lat="45.95599" lon="4.92732">
        <ele>295</ele>
        <time>2016-11-19T10:24:05Z</time>
      </trkpt>
      <trkpt lat="45.956" lon="4.92725">
        <ele>295</ele>
        <time>2016-11-19T10:24:06Z</time>
      </trkpt>
      <trkpt lat="45.95601" lon="4.92717">
        <ele>295</ele>
        <time>2016-11-19T10:24:07Z</time>
      </trkpt>
      <trkpt lat="45.95602" lon="4.9271">
        <ele>295</ele>
        <time>2016-11-19T10:24:08Z</time>
      </trkpt>
      <trkpt lat="45.95603" lon="4.92702">
        <ele>295</ele>
        <time>2016-11-19T10:24:09Z</time>
      </trkpt>
      <trkpt lat="45.95605" lon="4.92694">
        <ele>295</ele>
        <time>2016-11-19T10:24:10Z</time>
      </trkpt>
      <trkpt lat="45.95607" lon="4.92686">
        <ele>295</ele>
        <time>2016-11-19T10:24:11Z</time>
      </trkpt>
      <trkpt lat="45.95608" lon="4.92678">
        <ele>295</ele>
        <time>2016-11-19T10:24:12Z</time>
      </trkpt>
      <trkpt lat="45.95609" lon="4.9267">
        <ele>295</ele>
        <time>2016-11-19T10:24:13Z</time>
      </trkpt>
      <trkpt lat="45.95611" lon="4.92662">
        <ele>294</ele>
        <time>2016-11-19T10:24:14Z</time>
      </trkpt>
      <trkpt lat="45.95612" lon="4.92654">
        <ele>294</ele>
        <time>2016-11-19T10:24:15Z</time>
      </trkpt>
      <trkpt lat="45.95614" lon="4.92646">
        <ele>294</ele>
        <time>2016-11-19T10:24:16Z</time>
      </trkpt>
      <trkpt lat="45.95615" lon="4.92639">
        <ele>294</ele>
        <time>2016-11-19T10:24:17Z</time>
      </trkpt>
      <trkpt lat="45.95616" lon="4.92631">
        <ele>294</ele>
        <time>2016-11-19T10:24:18Z</time>
      </trkpt>
      <trkpt lat="45.95617" lon="4.92624">
        <ele>294</ele>
        <time>2016-11-19T10:24:19Z</time>
      </trkpt>
      <trkpt lat="45.95618" lon="4.92617">
        <ele>294</ele>
        <time>2016-11-19T10:24:20Z</time>
      </trkpt>
      <trkpt lat="45.95619" lon="4.9261">
        <ele>294</ele>
        <time>2016-11-19T10:24:21Z</time>
      </trkpt>
      <trkpt lat="45.9562" lon="4.92602">
        <ele>294</ele>
        <time>2016-11-19T10:24:22Z</time>
      </trkpt>
      <trkpt lat="45.95622" lon="4.92594">
        <ele>294</ele>
        <time>2016-11-19T10:24:23Z</time>
      </trkpt>
      <trkpt lat="45.95623" lon="4.92586">
        <ele>294</ele>
        <time>2016-11-19T10:24:24Z</time>
      </trkpt>
      <trkpt lat="45.95625" lon="4.92578">
        <ele>294</ele>
        <time>2016-11-19T10:24:25Z</time>
      </trkpt>
      <trkpt lat="45.95626" lon="4.92569">
        <ele>294</ele>
        <time>2016-11-19T10:24:26Z</time>
      </trkpt>
      <trkpt lat="45.95627" lon="4.92561">
        <ele>294</ele>
        <time>2016-11-19T10:24:27Z</time>
      </trkpt>
      <trkpt lat="45.95628" lon="4.92553">
        <ele>294</ele>
        <time>2016-11-19T10:24:28Z</time>
      </trkpt>
      <trkpt lat="45.95629" lon="4.92546">
        <ele>294</ele>
        <time>2016-11-19T10:24:29Z</time>
      </trkpt>
      <trkpt lat="45.9563" lon="4.92538">
        <ele>294</ele>
        <time>2016-11-19T10:24:30Z</time>
      </trkpt>
      <trkpt lat="45.95631" lon="4.92531">
        <ele>294</ele>
        <time>2016-11-19T10:24:31Z</time>
      </trkpt>
      <trkpt lat="45.95632" lon="4.92523">
        <ele>294</ele>
        <time>2016-11-19T10:24:32Z</time>
      </trkpt>
      <trkpt lat="45.95632" lon="4.92515">
        <ele>294</ele>
        <time>2016-11-19T10:24:33Z</time>
      </trkpt>
      <trkpt lat="45.95633" lon="4.92507">
        <ele>294</ele>
        <time>2016-11-19T10:24:34Z</time>
      </trkpt>
      <trkpt lat="45.95634" lon="4.92499">
        <ele>293</ele>
        <time>2016-11-19T10:24:35Z</time>
      </trkpt>
      <trkpt lat="45.95635" lon="4.92491">
        <ele>293</ele>
        <time>2016-11-19T10:24:36Z</time>
      </trkpt>
      <trkpt lat="45.95636" lon="4.92483">
        <ele>293</ele>
        <time>2016-11-19T10:24:37Z</time>
      </trkpt>
      <trkpt lat="45.95637" lon="4.92474">
        <ele>293</ele>
        <time>2016-11-19T10:24:38Z</time>
      </trkpt>
      <trkpt lat="45.95638" lon="4.92466">
        <ele>293</ele>
        <time>2016-11-19T10:24:39Z</time>
      </trkpt>
      <trkpt lat="45.9564" lon="4.92458">
        <ele>293</ele>
        <time>2016-11-19T10:24:40Z</time>
      </trkpt>
      <trkpt lat="45.95641" lon="4.92449">
        <ele>293</ele>
        <time>2016-11-19T10:24:41Z</time>
      </trkpt>
      <trkpt lat="45.95642" lon="4.92441">
        <ele>293</ele>
        <time>2016-11-19T10:24:42Z</time>
      </trkpt>
      <trkpt lat="45.95643" lon="4.92434">
        <ele>293</ele>
        <time>2016-11-19T10:24:43Z</time>
      </trkpt>
      <trkpt lat="45.95645" lon="4.92426">
        <ele>293</ele>
        <time>2016-11-19T10:24:44Z</time>
      </trkpt>
      <trkpt lat="45.95647" lon="4.92419">
        <ele>293</ele>
        <time>2016-11-19T10:24:45Z</time>
      </trkpt>
      <trkpt lat="45.95649" lon="4.92412">
        <ele>293</ele>
        <time>2016-11-19T10:24:46Z</time>
      </trkpt>
      <trkpt lat="45.9565" lon="4.92405">
        <ele>293</ele>
        <time>2016-11-19T10:24:47Z</time>
      </trkpt>
      <trkpt lat="45.95651" lon="4.92398">
        <ele>293</ele>
        <time>2016-11-19T10:24:48Z</time>
      </trkpt>
      <trkpt lat="45.95652" lon="4.92391">
        <ele>293</ele>
        <time>2016-11-19T10:24:49Z</time>
      </trkpt>
      <trkpt lat="45.95653" lon="4.92383">
        <ele>293</ele>
        <time>2016-11-19T10:24:50Z</time>
      </trkpt>
      <trkpt lat="45.95654" lon="4.92375">
        <ele>293</ele>
        <time>2016-11-19T10:24:51Z</time>
      </trkpt>
      <trkpt lat="45.95654" lon="4.92367">
        <ele>293</ele>
        <time>2016-11-19T10:24:52Z</time>
      </trkpt>
      <trkpt lat="45.95655" lon="4.92359">
        <ele>293</ele>
        <time>2016-11-19T10:24:53Z</time>
      </trkpt>
      <trkpt lat="45.95656" lon="4.92351">
        <ele>293</ele>
        <time>2016-11-19T10:24:54Z</time>
      </trkpt>
      <trkpt lat="45.95656" lon="4.92343">
        <ele>293</ele>
        <time>2016-11-19T10:24:55Z</time>
      </trkpt>
      <trkpt lat="45.95657" lon="4.92337">
        <ele>293</ele>
        <time>2016-11-19T10:24:56Z</time>
      </trkpt>
      <trkpt lat="45.95657" lon="4.9233">
        <ele>293</ele>
        <time>2016-11-19T10:24:57Z</time>
      </trkpt>
      <trkpt lat="45.95657" lon="4.92323">
        <ele>293</ele>
        <time>2016-11-19T10:24:58Z</time>
      </trkpt>
      <trkpt lat="45.95658" lon="4.92316">
        <ele>293</ele>
        <time>2016-11-19T10:24:59Z</time>
      </trkpt>
      <trkpt lat="45.95659" lon="4.9231">
        <ele>293</ele>
        <time>2016-11-19T10:25:00Z</time>
      </trkpt>
      <trkpt lat="45.9566" lon="4.92303">
        <ele>293</ele>
        <time>2016-11-19T10:25:01Z</time>
      </trkpt>
      <trkpt lat="45.9566" lon="4.92296">
        <ele>293</ele>
        <time>2016-11-19T10:25:02Z</time>
      </trkpt>
      <trkpt lat="45.9566" lon="4.9229">
        <ele>293</ele>
        <time>2016-11-19T10:25:03Z</time>
      </trkpt>
      <trkpt lat="45.9566" lon="4.92283">
        <ele>293</ele>
        <time>2016-11-19T10:25:04Z</time>
      </trkpt>
      <trkpt lat="45.95661" lon="4.92276">
        <ele>293</ele>
        <time>2016-11-19T10:25:05Z</time>
      </trkpt>
      <trkpt lat="45.95661" lon="4.92269">
        <ele>294</ele>
        <time>2016-11-19T10:25:06Z</time>
      </trkpt>
      <trkpt lat="45.95661" lon="4.92262">
        <ele>294</ele>
        <time>2016-11-19T10:25:07Z</time>
      </trkpt>
      <trkpt lat="45.95662" lon="4.92255">
        <ele>294</ele>
        <time>2016-11-19T10:25:08Z</time>
      </trkpt>
      <trkpt lat="45.95662" lon="4.92249">
        <ele>294</ele>
        <time>2016-11-19T10:25:09Z</time>
      </trkpt>
      <trkpt lat="45.95662" lon="4.92237">
        <ele>294</ele>
        <time>2016-11-19T10:25:11Z</time>
      </trkpt>
      <trkpt lat="45.95662" lon="4.92231">
        <ele>294</ele>
        <time>2016-11-19T10:25:12Z</time>
      </trkpt>
      <trkpt lat="45.95663" lon="4.92219">
        <ele>294</ele>
        <time>2016-11-19T10:25:14Z</time>
      </trkpt>
      <trkpt lat="45.95663" lon="4.92214">
        <ele>294</ele>
        <time>2016-11-19T10:25:15Z</time>
      </trkpt>
      <trkpt lat="45.95664" lon="4.92201">
        <ele>295</ele>
        <time>2016-11-19T10:25:17Z</time>
      </trkpt>
      <trkpt lat="45.95664" lon="4.92195">
        <ele>295</ele>
        <time>2016-11-19T10:25:18Z</time>
      </trkpt>
      <trkpt lat="45.95663" lon="4.92182">
        <ele>295</ele>
        <time>2016-11-19T10:25:20Z</time>
      </trkpt>
      <trkpt lat="45.95664" lon="4.92176">
        <ele>296</ele>
        <time>2016-11-19T10:25:21Z</time>
      </trkpt>
      <trkpt lat="45.95664" lon="4.92169">
        <ele>296</ele>
        <time>2016-11-19T10:25:22Z</time>
      </trkpt>
      <trkpt lat="45.95664" lon="4.92163">
        <ele>297</ele>
        <time>2016-11-19T10:25:23Z</time>
      </trkpt>
      <trkpt lat="45.95664" lon="4.92156">
        <ele>296</ele>
        <time>2016-11-19T10:25:24Z</time>
      </trkpt>
      <trkpt lat="45.95665" lon="4.92149">
        <ele>296</ele>
        <time>2016-11-19T10:25:25Z</time>
      </trkpt>
      <trkpt lat="45.95665" lon="4.92143">
        <ele>296</ele>
        <time>2016-11-19T10:25:26Z</time>
      </trkpt>
      <trkpt lat="45.95666" lon="4.92135">
        <ele>296</ele>
        <time>2016-11-19T10:25:27Z</time>
      </trkpt>
      <trkpt lat="45.95666" lon="4.92128">
        <ele>296</ele>
        <time>2016-11-19T10:25:28Z</time>
      </trkpt>
      <trkpt lat="45.95666" lon="4.92122">
        <ele>296</ele>
        <time>2016-11-19T10:25:29Z</time>
      </trkpt>
      <trkpt lat="45.95666" lon="4.9211">
        <ele>296</ele>
        <time>2016-11-19T10:25:31Z</time>
      </trkpt>
      <trkpt lat="45.95666" lon="4.92104">
        <ele>297</ele>
        <time>2016-11-19T10:25:32Z</time>
      </trkpt>
      <trkpt lat="45.95666" lon="4.92097">
        <ele>297</ele>
        <time>2016-11-19T10:25:33Z</time>
      </trkpt>
      <trkpt lat="45.95667" lon="4.92091">
        <ele>299</ele>
        <time>2016-11-19T10:25:34Z</time>
      </trkpt>
      <trkpt lat="45.95668" lon="4.92084">
        <ele>299</ele>
        <time>2016-11-19T10:25:35Z</time>
      </trkpt>
      <trkpt lat="45.95668" lon="4.92076">
        <ele>300</ele>
        <time>2016-11-19T10:25:36Z</time>
      </trkpt>
      <trkpt lat="45.95668" lon="4.9207">
        <ele>300</ele>
        <time>2016-11-19T10:25:37Z</time>
      </trkpt>
      <trkpt lat="45.95669" lon="4.92063">
        <ele>300</ele>
        <time>2016-11-19T10:25:38Z</time>
      </trkpt>
      <trkpt lat="45.9567" lon="4.92056">
        <ele>300</ele>
        <time>2016-11-19T10:25:39Z</time>
      </trkpt>
      <trkpt lat="45.9567" lon="4.9205">
        <ele>300</ele>
        <time>2016-11-19T10:25:40Z</time>
      </trkpt>
      <trkpt lat="45.95671" lon="4.92043">
        <ele>300</ele>
        <time>2016-11-19T10:25:41Z</time>
      </trkpt>
      <trkpt lat="45.95673" lon="4.92036">
        <ele>300</ele>
        <time>2016-11-19T10:25:42Z</time>
      </trkpt>
      <trkpt lat="45.95675" lon="4.9203">
        <ele>300</ele>
        <time>2016-11-19T10:25:43Z</time>
      </trkpt>
      <trkpt lat="45.95677" lon="4.92023">
        <ele>300</ele>
        <time>2016-11-19T10:25:44Z</time>
      </trkpt>
      <trkpt lat="45.95679" lon="4.92016">
        <ele>300</ele>
        <time>2016-11-19T10:25:45Z</time>
      </trkpt>
      <trkpt lat="45.95683" lon="4.92008">
        <ele>300</ele>
        <time>2016-11-19T10:25:46Z</time>
      </trkpt>
      <trkpt lat="45.95686" lon="4.92002">
        <ele>300</ele>
        <time>2016-11-19T10:25:47Z</time>
      </trkpt>
      <trkpt lat="45.95688" lon="4.91996">
        <ele>299</ele>
        <time>2016-11-19T10:25:48Z</time>
      </trkpt>
      <trkpt lat="45.95691" lon="4.91991">
        <ele>299</ele>
        <time>2016-11-19T10:25:49Z</time>
      </trkpt>
      <trkpt lat="45.95694" lon="4.91986">
        <ele>299</ele>
        <time>2016-11-19T10:25:50Z</time>
      </trkpt>
      <trkpt lat="45.95699" lon="4.91976">
        <ele>299</ele>
        <time>2016-11-19T10:25:52Z</time>
      </trkpt>
      <trkpt lat="45.957" lon="4.91972">
        <ele>299</ele>
        <time>2016-11-19T10:25:53Z</time>
      </trkpt>
      <trkpt lat="45.95704" lon="4.91963">
        <ele>299</ele>
        <time>2016-11-19T10:25:55Z</time>
      </trkpt>
      <trkpt lat="45.95706" lon="4.91958">
        <ele>299</ele>
        <time>2016-11-19T10:25:56Z</time>
      </trkpt>
      <trkpt lat="45.95711" lon="4.91948">
        <ele>299</ele>
        <time>2016-11-19T10:25:58Z</time>
      </trkpt>
      <trkpt lat="45.95713" lon="4.91943">
        <ele>299</ele>
        <time>2016-11-19T10:25:59Z</time>
      </trkpt>
      <trkpt lat="45.95714" lon="4.91938">
        <ele>299</ele>
        <time>2016-11-19T10:26:00Z</time>
      </trkpt>
      <trkpt lat="45.95718" lon="4.91932">
        <ele>299</ele>
        <time>2016-11-19T10:26:01Z</time>
      </trkpt>
      <trkpt lat="45.95723" lon="4.91922">
        <ele>300</ele>
        <time>2016-11-19T10:26:03Z</time>
      </trkpt>
      <trkpt lat="45.95726" lon="4.91918">
        <ele>300</ele>
        <time>2016-11-19T10:26:04Z</time>
      </trkpt>
      <trkpt lat="45.95729" lon="4.91912">
        <ele>299</ele>
        <time>2016-11-19T10:26:05Z</time>
      </trkpt>
      <trkpt lat="45.95733" lon="4.91906">
        <ele>299</ele>
        <time>2016-11-19T10:26:06Z</time>
      </trkpt>
      <trkpt lat="45.95736" lon="4.919">
        <ele>299</ele>
        <time>2016-11-19T10:26:07Z</time>
      </trkpt>
      <trkpt lat="45.9574" lon="4.91895">
        <ele>298</ele>
        <time>2016-11-19T10:26:08Z</time>
      </trkpt>
      <trkpt lat="45.95745" lon="4.91888">
        <ele>298</ele>
        <time>2016-11-19T10:26:09Z</time>
      </trkpt>
      <trkpt lat="45.95748" lon="4.91882">
        <ele>298</ele>
        <time>2016-11-19T10:26:10Z</time>
      </trkpt>
      <trkpt lat="45.95751" lon="4.91876">
        <ele>300</ele>
        <time>2016-11-19T10:26:11Z</time>
      </trkpt>
      <trkpt lat="45.95755" lon="4.91871">
        <ele>300</ele>
        <time>2016-11-19T10:26:12Z</time>
      </trkpt>
      <trkpt lat="45.95758" lon="4.91865">
        <ele>300</ele>
        <time>2016-11-19T10:26:13Z</time>
      </trkpt>
      <trkpt lat="45.9576" lon="4.9186">
        <ele>300</ele>
        <time>2016-11-19T10:26:14Z</time>
      </trkpt>
      <trkpt lat="45.95764" lon="4.91855">
        <ele>300</ele>
        <time>2016-11-19T10:26:15Z</time>
      </trkpt>
      <trkpt lat="45.95767" lon="4.9185">
        <ele>300</ele>
        <time>2016-11-19T10:26:16Z</time>
      </trkpt>
      <trkpt lat="45.95773" lon="4.91843">
        <ele>300</ele>
        <time>2016-11-19T10:26:17Z</time>
      </trkpt>
      <trkpt lat="45.95777" lon="4.91837">
        <ele>300</ele>
        <time>2016-11-19T10:26:18Z</time>
      </trkpt>
      <trkpt lat="45.95781" lon="4.9183">
        <ele>300</ele>
        <time>2016-11-19T10:26:19Z</time>
      </trkpt>
      <trkpt lat="45.95785" lon="4.91824">
        <ele>300</ele>
        <time>2016-11-19T10:26:20Z</time>
      </trkpt>
      <trkpt lat="45.95789" lon="4.91818">
        <ele>300</ele>
        <time>2016-11-19T10:26:21Z</time>
      </trkpt>
      <trkpt lat="45.95792" lon="4.91812">
        <ele>300</ele>
        <time>2016-11-19T10:26:22Z</time>
      </trkpt>
      <trkpt lat="45.95795" lon="4.91806">
        <ele>300</ele>
        <time>2016-11-19T10:26:23Z</time>
      </trkpt>
      <trkpt lat="45.95798" lon="4.91801">
        <ele>300</ele>
        <time>2016-11-19T10:26:24Z</time>
      </trkpt>
      <trkpt lat="45.95803" lon="4.91795">
        <ele>301</ele>
        <time>2016-11-19T10:26:25Z</time>
      </trkpt>
      <trkpt lat="45.95806" lon="4.91789">
        <ele>301</ele>
        <time>2016-11-19T10:26:26Z</time>
      </trkpt>
      <trkpt lat="45.95811" lon="4.91779">
        <ele>301</ele>
        <time>2016-11-19T10:26:28Z</time>
      </trkpt>
      <trkpt lat="45.95814" lon="4.91775">
        <ele>301</ele>
        <time>2016-11-19T10:26:29Z</time>
      </trkpt>
      <trkpt lat="45.95817" lon="4.91767">
        <ele>301</ele>
        <time>2016-11-19T10:26:31Z</time>
      </trkpt>
      <trkpt lat="45.9582" lon="4.91762">
        <ele>302</ele>
        <time>2016-11-19T10:26:32Z</time>
      </trkpt>
      <trkpt lat="45.95824" lon="4.91753">
        <ele>302</ele>
        <time>2016-11-19T10:26:34Z</time>
      </trkpt>
      <trkpt lat="45.95828" lon="4.91749">
        <ele>302</ele>
        <time>2016-11-19T10:26:35Z</time>
      </trkpt>
      <trkpt lat="45.95832" lon="4.91739">
        <ele>302</ele>
        <time>2016-11-19T10:26:37Z</time>
      </trkpt>
      <trkpt lat="45.95834" lon="4.91733">
        <ele>303</ele>
        <time>2016-11-19T10:26:38Z</time>
      </trkpt>
      <trkpt lat="45.95836" lon="4.91726">
        <ele>303</ele>
        <time>2016-11-19T10:26:39Z</time>
      </trkpt>
      <trkpt lat="45.95837" lon="4.91719">
        <ele>302</ele>
        <time>2016-11-19T10:26:40Z</time>
      </trkpt>
      <trkpt lat="45.95837" lon="4.91711">
        <ele>302</ele>
        <time>2016-11-19T10:26:41Z</time>
      </trkpt>
      <trkpt lat="45.95838" lon="4.91703">
        <ele>302</ele>
        <time>2016-11-19T10:26:42Z</time>
      </trkpt>
      <trkpt lat="45.95838" lon="4.91695">
        <ele>302</ele>
        <time>2016-11-19T10:26:43Z</time>
      </trkpt>
      <trkpt lat="45.95838" lon="4.91686">
        <ele>302</ele>
        <time>2016-11-19T10:26:44Z</time>
      </trkpt>
      <trkpt lat="45.95838" lon="4.91677">
        <ele>302</ele>
        <time>2016-11-19T10:26:45Z</time>
      </trkpt>
      <trkpt lat="45.95839" lon="4.91668">
        <ele>301</ele>
        <time>2016-11-19T10:26:46Z</time>
      </trkpt>
      <trkpt lat="45.95839" lon="4.91659">
        <ele>301</ele>
        <time>2016-11-19T10:26:47Z</time>
      </trkpt>
      <trkpt lat="45.95841" lon="4.91647">
        <ele>301</ele>
        <time>2016-11-19T10:26:48Z</time>
      </trkpt>
      <trkpt lat="45.95842" lon="4.91639">
        <ele>301</ele>
        <time>2016-11-19T10:26:49Z</time>
      </trkpt>
      <trkpt lat="45.95842" lon="4.91631">
        <ele>301</ele>
        <time>2016-11-19T10:26:50Z</time>
      </trkpt>
      <trkpt lat="45.95842" lon="4.91622">
        <ele>301</ele>
        <time>2016-11-19T10:26:51Z</time>
      </trkpt>
      <trkpt lat="45.95842" lon="4.91613">
        <ele>301</ele>
        <time>2016-11-19T10:26:52Z</time>
      </trkpt>
      <trkpt lat="45.95842" lon="4.91605">
        <ele>301</ele>
        <time>2016-11-19T10:26:53Z</time>
      </trkpt>
      <trkpt lat="45.95842" lon="4.91596">
        <ele>300</ele>
        <time>2016-11-19T10:26:54Z</time>
      </trkpt>
      <trkpt lat="45.95843" lon="4.91587">
        <ele>300</ele>
        <time>2016-11-19T10:26:55Z</time>
      </trkpt>
      <trkpt lat="45.95844" lon="4.91578">
        <ele>300</ele>
        <time>2016-11-19T10:26:56Z</time>
      </trkpt>
      <trkpt lat="45.95845" lon="4.91569">
        <ele>300</ele>
        <time>2016-11-19T10:26:57Z</time>
      </trkpt>
      <trkpt lat="45.95845" lon="4.9156">
        <ele>300</ele>
        <time>2016-11-19T10:26:58Z</time>
      </trkpt>
      <trkpt lat="45.95845" lon="4.91551">
        <ele>300</ele>
        <time>2016-11-19T10:26:59Z</time>
      </trkpt>
      <trkpt lat="45.95845" lon="4.91542">
        <ele>300</ele>
        <time>2016-11-19T10:27:00Z</time>
      </trkpt>
      <trkpt lat="45.95844" lon="4.91533">
        <ele>300</ele>
        <time>2016-11-19T10:27:01Z</time>
      </trkpt>
      <trkpt lat="45.95845" lon="4.91523">
        <ele>300</ele>
        <time>2016-11-19T10:27:02Z</time>
      </trkpt>
      <trkpt lat="45.95847" lon="4.91514">
        <ele>299</ele>
        <time>2016-11-19T10:27:03Z</time>
      </trkpt>
      <trkpt lat="45.95848" lon="4.91505">
        <ele>299</ele>
        <time>2016-11-19T10:27:04Z</time>
      </trkpt>
      <trkpt lat="45.95848" lon="4.91497">
        <ele>299</ele>
        <time>2016-11-19T10:27:05Z</time>
      </trkpt>
      <trkpt lat="45.95849" lon="4.91489">
        <ele>299</ele>
        <time>2016-11-19T10:27:06Z</time>
      </trkpt>
      <trkpt lat="45.95849" lon="4.91481">
        <ele>299</ele>
        <time>2016-11-19T10:27:07Z</time>
      </trkpt>
      <trkpt lat="45.9585" lon="4.91473">
        <ele>299</ele>
        <time>2016-11-19T10:27:08Z</time>
      </trkpt>
      <trkpt lat="45.9585" lon="4.91465">
        <ele>299</ele>
        <time>2016-11-19T10:27:09Z</time>
      </trkpt>
      <trkpt lat="45.9585" lon="4.91457">
        <ele>299</ele>
        <time>2016-11-19T10:27:10Z</time>
      </trkpt>
      <trkpt lat="45.9585" lon="4.9145">
        <ele>298</ele>
        <time>2016-11-19T10:27:11Z</time>
      </trkpt>
      <trkpt lat="45.9585" lon="4.91442">
        <ele>298</ele>
        <time>2016-11-19T10:27:12Z</time>
      </trkpt>
      <trkpt lat="45.95851" lon="4.91435">
        <ele>298</ele>
        <time>2016-11-19T10:27:13Z</time>
      </trkpt>
      <trkpt lat="45.95851" lon="4.91427">
        <ele>298</ele>
        <time>2016-11-19T10:27:14Z</time>
      </trkpt>
      <trkpt lat="45.95852" lon="4.9142">
        <ele>298</ele>
        <time>2016-11-19T10:27:15Z</time>
      </trkpt>
      <trkpt lat="45.95852" lon="4.91412">
        <ele>298</ele>
        <time>2016-11-19T10:27:16Z</time>
      </trkpt>
      <trkpt lat="45.95853" lon="4.91403">
        <ele>298</ele>
        <time>2016-11-19T10:27:17Z</time>
      </trkpt>
      <trkpt lat="45.95853" lon="4.91395">
        <ele>298</ele>
        <time>2016-11-19T10:27:18Z</time>
      </trkpt>
      <trkpt lat="45.95854" lon="4.91385">
        <ele>298</ele>
        <time>2016-11-19T10:27:19Z</time>
      </trkpt>
      <trkpt lat="45.95855" lon="4.91377">
        <ele>298</ele>
        <time>2016-11-19T10:27:20Z</time>
      </trkpt>
      <trkpt lat="45.95855" lon="4.91369">
        <ele>298</ele>
        <time>2016-11-19T10:27:21Z</time>
      </trkpt>
      <trkpt lat="45.95856" lon="4.91361">
        <ele>298</ele>
        <time>2016-11-19T10:27:22Z</time>
      </trkpt>
      <trkpt lat="45.95856" lon="4.91353">
        <ele>298</ele>
        <time>2016-11-19T10:27:23Z</time>
      </trkpt>
      <trkpt lat="45.95857" lon="4.91344">
        <ele>298</ele>
        <time>2016-11-19T10:27:24Z</time>
      </trkpt>
      <trkpt lat="45.95857" lon="4.91336">
        <ele>298</ele>
        <time>2016-11-19T10:27:25Z</time>
      </trkpt>
      <trkpt lat="45.95857" lon="4.91328">
        <ele>298</ele>
        <time>2016-11-19T10:27:26Z</time>
      </trkpt>
      <trkpt lat="45.95858" lon="4.91321">
        <ele>298</ele>
        <time>2016-11-19T10:27:27Z</time>
      </trkpt>
      <trkpt lat="45.95858" lon="4.91314">
        <ele>298</ele>
        <time>2016-11-19T10:27:28Z</time>
      </trkpt>
      <trkpt lat="45.95858" lon="4.91306">
        <ele>298</ele>
        <time>2016-11-19T10:27:29Z</time>
      </trkpt>
      <trkpt lat="45.95858" lon="4.91298">
        <ele>298</ele>
        <time>2016-11-19T10:27:30Z</time>
      </trkpt>
      <trkpt lat="45.95859" lon="4.91291">
        <ele>298</ele>
        <time>2016-11-19T10:27:31Z</time>
      </trkpt>
      <trkpt lat="45.95859" lon="4.91282">
        <ele>298</ele>
        <time>2016-11-19T10:27:32Z</time>
      </trkpt>
      <trkpt lat="45.95859" lon="4.91275">
        <ele>298</ele>
        <time>2016-11-19T10:27:33Z</time>
      </trkpt>
      <trkpt lat="45.95859" lon="4.91267">
        <ele>297</ele>
        <time>2016-11-19T10:27:34Z</time>
      </trkpt>
      <trkpt lat="45.95859" lon="4.9126">
        <ele>297</ele>
        <time>2016-11-19T10:27:35Z</time>
      </trkpt>
      <trkpt lat="45.95859" lon="4.91252">
        <ele>297</ele>
        <time>2016-11-19T10:27:36Z</time>
      </trkpt>
      <trkpt lat="45.95859" lon="4.91244">
        <ele>297</ele>
        <time>2016-11-19T10:27:37Z</time>
      </trkpt>
      <trkpt lat="45.9586" lon="4.91236">
        <ele>297</ele>
        <time>2016-11-19T10:27:38Z</time>
      </trkpt>
      <trkpt lat="45.9586" lon="4.91228">
        <ele>297</ele>
        <time>2016-11-19T10:27:39Z</time>
      </trkpt>
      <trkpt lat="45.9586" lon="4.91221">
        <ele>297</ele>
        <time>2016-11-19T10:27:40Z</time>
      </trkpt>
      <trkpt lat="45.9586" lon="4.91213">
        <ele>297</ele>
        <time>2016-11-19T10:27:41Z</time>
      </trkpt>
      <trkpt lat="45.9586" lon="4.91205">
        <ele>297</ele>
        <time>2016-11-19T10:27:42Z</time>
      </trkpt>
      <trkpt lat="45.9586" lon="4.91198">
        <ele>297</ele>
        <time>2016-11-19T10:27:43Z</time>
      </trkpt>
      <trkpt lat="45.9586" lon="4.9119">
        <ele>297</ele>
        <time>2016-11-19T10:27:44Z</time>
      </trkpt>
      <trkpt lat="45.9586" lon="4.91182">
        <ele>297</ele>
        <time>2016-11-19T10:27:45Z</time>
      </trkpt>
      <trkpt lat="45.9586" lon="4.91174">
        <ele>296</ele>
        <time>2016-11-19T10:27:46Z</time>
      </trkpt>
      <trkpt lat="45.9586" lon="4.91166">
        <ele>297</ele>
        <time>2016-11-19T10:27:47Z</time>
      </trkpt>
      <trkpt lat="45.9586" lon="4.91159">
        <ele>297</ele>
        <time>2016-11-19T10:27:48Z</time>
      </trkpt>
      <trkpt lat="45.95859" lon="4.91151">
        <ele>297</ele>
        <time>2016-11-19T10:27:49Z</time>
      </trkpt>
      <trkpt lat="45.95859" lon="4.91143">
        <ele>297</ele>
        <time>2016-11-19T10:27:50Z</time>
      </trkpt>
      <trkpt lat="45.95858" lon="4.91136">
        <ele>297</ele>
        <time>2016-11-19T10:27:51Z</time>
      </trkpt>
      <trkpt lat="45.95858" lon="4.91127">
        <ele>297</ele>
        <time>2016-11-19T10:27:52Z</time>
      </trkpt>
      <trkpt lat="45.95859" lon="4.91119">
        <ele>297</ele>
        <time>2016-11-19T10:27:53Z</time>
      </trkpt>
      <trkpt lat="45.95859" lon="4.91111">
        <ele>297</ele>
        <time>2016-11-19T10:27:54Z</time>
      </trkpt>
      <trkpt lat="45.9586" lon="4.91104">
        <ele>297</ele>
        <time>2016-11-19T10:27:55Z</time>
      </trkpt>
      <trkpt lat="45.9586" lon="4.91096">
        <ele>297</ele>
        <time>2016-11-19T10:27:56Z</time>
      </trkpt>
      <trkpt lat="45.9586" lon="4.91088">
        <ele>297</ele>
        <time>2016-11-19T10:27:57Z</time>
      </trkpt>
      <trkpt lat="45.95861" lon="4.9108">
        <ele>297</ele>
        <time>2016-11-19T10:27:58Z</time>
      </trkpt>
      <trkpt lat="45.9586" lon="4.91072">
        <ele>297</ele>
        <time>2016-11-19T10:27:59Z</time>
      </trkpt>
      <trkpt lat="45.9586" lon="4.91064">
        <ele>297</ele>
        <time>2016-11-19T10:28:00Z</time>
      </trkpt>
      <trkpt lat="45.95861" lon="4.91056">
        <ele>297</ele>
        <time>2016-11-19T10:28:01Z</time>
      </trkpt>
      <trkpt lat="45.95861" lon="4.91048">
        <ele>297</ele>
        <time>2016-11-19T10:28:02Z</time>
      </trkpt>
      <trkpt lat="45.95859" lon="4.91035">
        <ele>297</ele>
        <time>2016-11-19T10:28:04Z</time>
      </trkpt>
      <trkpt lat="45.95859" lon="4.91028">
        <ele>296</ele>
        <time>2016-11-19T10:28:05Z</time>
      </trkpt>
      <trkpt lat="45.95858" lon="4.91022">
        <ele>296</ele>
        <time>2016-11-19T10:28:06Z</time>
      </trkpt>
      <trkpt lat="45.9586" lon="4.91014">
        <ele>296</ele>
        <time>2016-11-19T10:28:07Z</time>
      </trkpt>
      <trkpt lat="45.95861" lon="4.91006">
        <ele>296</ele>
        <time>2016-11-19T10:28:08Z</time>
      </trkpt>
      <trkpt lat="45.95862" lon="4.90998">
        <ele>294</ele>
        <time>2016-11-19T10:28:09Z</time>
      </trkpt>
      <trkpt lat="45.95863" lon="4.9099">
        <ele>294</ele>
        <time>2016-11-19T10:28:10Z</time>
      </trkpt>
      <trkpt lat="45.95864" lon="4.90982">
        <ele>294</ele>
        <time>2016-11-19T10:28:11Z</time>
      </trkpt>
      <trkpt lat="45.95864" lon="4.90974">
        <ele>294</ele>
        <time>2016-11-19T10:28:12Z</time>
      </trkpt>
      <trkpt lat="45.95866" lon="4.90965">
        <ele>294</ele>
        <time>2016-11-19T10:28:13Z</time>
      </trkpt>
      <trkpt lat="45.95866" lon="4.90956">
        <ele>294</ele>
        <time>2016-11-19T10:28:14Z</time>
      </trkpt>
      <trkpt lat="45.95867" lon="4.90947">
        <ele>293</ele>
        <time>2016-11-19T10:28:15Z</time>
      </trkpt>
      <trkpt lat="45.95868" lon="4.90938">
        <ele>293</ele>
        <time>2016-11-19T10:28:16Z</time>
      </trkpt>
      <trkpt lat="45.95868" lon="4.90928">
        <ele>293</ele>
        <time>2016-11-19T10:28:17Z</time>
      </trkpt>
      <trkpt lat="45.9587" lon="4.90919">
        <ele>293</ele>
        <time>2016-11-19T10:28:18Z</time>
      </trkpt>
      <trkpt lat="45.9587" lon="4.9091">
        <ele>292</ele>
        <time>2016-11-19T10:28:19Z</time>
      </trkpt>
      <trkpt lat="45.9587" lon="4.909">
        <ele>292</ele>
        <time>2016-11-19T10:28:20Z</time>
      </trkpt>
      <trkpt lat="45.95871" lon="4.90891">
        <ele>292</ele>
        <time>2016-11-19T10:28:21Z</time>
      </trkpt>
      <trkpt lat="45.95872" lon="4.90882">
        <ele>292</ele>
        <time>2016-11-19T10:28:22Z</time>
      </trkpt>
      <trkpt lat="45.95873" lon="4.90874">
        <ele>292</ele>
        <time>2016-11-19T10:28:23Z</time>
      </trkpt>
      <trkpt lat="45.95873" lon="4.90867">
        <ele>292</ele>
        <time>2016-11-19T10:28:24Z</time>
      </trkpt>
      <trkpt lat="45.95873" lon="4.90859">
        <ele>292</ele>
        <time>2016-11-19T10:28:25Z</time>
      </trkpt>
      <trkpt lat="45.95874" lon="4.9085">
        <ele>292</ele>
        <time>2016-11-19T10:28:26Z</time>
      </trkpt>
      <trkpt lat="45.95874" lon="4.90843">
        <ele>292</ele>
        <time>2016-11-19T10:28:27Z</time>
      </trkpt>
      <trkpt lat="45.95874" lon="4.90835">
        <ele>292</ele>
        <time>2016-11-19T10:28:28Z</time>
      </trkpt>
      <trkpt lat="45.95875" lon="4.90827">
        <ele>291</ele>
        <time>2016-11-19T10:28:29Z</time>
      </trkpt>
      <trkpt lat="45.95875" lon="4.90819">
        <ele>291</ele>
        <time>2016-11-19T10:28:30Z</time>
      </trkpt>
      <trkpt lat="45.95875" lon="4.90812">
        <ele>291</ele>
        <time>2016-11-19T10:28:31Z</time>
      </trkpt>
      <trkpt lat="45.95875" lon="4.90804">
        <ele>291</ele>
        <time>2016-11-19T10:28:32Z</time>
      </trkpt>
      <trkpt lat="45.95876" lon="4.90797">
        <ele>291</ele>
        <time>2016-11-19T10:28:33Z</time>
      </trkpt>
      <trkpt lat="45.95876" lon="4.90789">
        <ele>291</ele>
        <time>2016-11-19T10:28:34Z</time>
      </trkpt>
      <trkpt lat="45.95876" lon="4.90782">
        <ele>291</ele>
        <time>2016-11-19T10:28:35Z</time>
      </trkpt>
      <trkpt lat="45.95876" lon="4.90775">
        <ele>291</ele>
        <time>2016-11-19T10:28:36Z</time>
      </trkpt>
      <trkpt lat="45.95876" lon="4.90767">
        <ele>291</ele>
        <time>2016-11-19T10:28:37Z</time>
      </trkpt>
      <trkpt lat="45.95877" lon="4.9076">
        <ele>291</ele>
        <time>2016-11-19T10:28:38Z</time>
      </trkpt>
      <trkpt lat="45.95877" lon="4.90752">
        <ele>291</ele>
        <time>2016-11-19T10:28:39Z</time>
      </trkpt>
      <trkpt lat="45.95877" lon="4.90745">
        <ele>292</ele>
        <time>2016-11-19T10:28:40Z</time>
      </trkpt>
      <trkpt lat="45.95878" lon="4.90738">
        <ele>292</ele>
        <time>2016-11-19T10:28:41Z</time>
      </trkpt>
      <trkpt lat="45.95878" lon="4.9073">
        <ele>292</ele>
        <time>2016-11-19T10:28:42Z</time>
      </trkpt>
      <trkpt lat="45.95879" lon="4.90723">
        <ele>292</ele>
        <time>2016-11-19T10:28:43Z</time>
      </trkpt>
      <trkpt lat="45.95879" lon="4.90715">
        <ele>292</ele>
        <time>2016-11-19T10:28:44Z</time>
      </trkpt>
      <trkpt lat="45.95879" lon="4.90708">
        <ele>292</ele>
        <time>2016-11-19T10:28:45Z</time>
      </trkpt>
      <trkpt lat="45.95879" lon="4.907">
        <ele>292</ele>
        <time>2016-11-19T10:28:46Z</time>
      </trkpt>
      <trkpt lat="45.9588" lon="4.90692">
        <ele>292</ele>
        <time>2016-11-19T10:28:47Z</time>
      </trkpt>
      <trkpt lat="45.9588" lon="4.90685">
        <ele>292</ele>
        <time>2016-11-19T10:28:48Z</time>
      </trkpt>
      <trkpt lat="45.9588" lon="4.90677">
        <ele>292</ele>
        <time>2016-11-19T10:28:49Z</time>
      </trkpt>
      <trkpt lat="45.9588" lon="4.9067">
        <ele>292</ele>
        <time>2016-11-19T10:28:50Z</time>
      </trkpt>
      <trkpt lat="45.95881" lon="4.90661">
        <ele>293</ele>
        <time>2016-11-19T10:28:51Z</time>
      </trkpt>
      <trkpt lat="45.95881" lon="4.90653">
        <ele>293</ele>
        <time>2016-11-19T10:28:52Z</time>
      </trkpt>
      <trkpt lat="45.95882" lon="4.90644">
        <ele>293</ele>
        <time>2016-11-19T10:28:53Z</time>
      </trkpt>
      <trkpt lat="45.95882" lon="4.90636">
        <ele>293</ele>
        <time>2016-11-19T10:28:54Z</time>
      </trkpt>
      <trkpt lat="45.95882" lon="4.90627">
        <ele>293</ele>
        <time>2016-11-19T10:28:55Z</time>
      </trkpt>
      <trkpt lat="45.95882" lon="4.90619">
        <ele>293</ele>
        <time>2016-11-19T10:28:56Z</time>
      </trkpt>
      <trkpt lat="45.95883" lon="4.90611">
        <ele>293</ele>
        <time>2016-11-19T10:28:57Z</time>
      </trkpt>
      <trkpt lat="45.95883" lon="4.90603">
        <ele>293</ele>
        <time>2016-11-19T10:28:58Z</time>
      </trkpt>
      <trkpt lat="45.95883" lon="4.90595">
        <ele>293</ele>
        <time>2016-11-19T10:28:59Z</time>
      </trkpt>
      <trkpt lat="45.95883" lon="4.90588">
        <ele>293</ele>
        <time>2016-11-19T10:29:00Z</time>
      </trkpt>
      <trkpt lat="45.95883" lon="4.9058">
        <ele>292</ele>
        <time>2016-11-19T10:29:01Z</time>
      </trkpt>
      <trkpt lat="45.95883" lon="4.90573">
        <ele>292</ele>
        <time>2016-11-19T10:29:02Z</time>
      </trkpt>
      <trkpt lat="45.95884" lon="4.90565">
        <ele>292</ele>
        <time>2016-11-19T10:29:03Z</time>
      </trkpt>
      <trkpt lat="45.95884" lon="4.90558">
        <ele>292</ele>
        <time>2016-11-19T10:29:04Z</time>
      </trkpt>
      <trkpt lat="45.95884" lon="4.9055">
        <ele>292</ele>
        <time>2016-11-19T10:29:05Z</time>
      </trkpt>
      <trkpt lat="45.95884" lon="4.90542">
        <ele>292</ele>
        <time>2016-11-19T10:29:06Z</time>
      </trkpt>
      <trkpt lat="45.95884" lon="4.90535">
        <ele>292</ele>
        <time>2016-11-19T10:29:07Z</time>
      </trkpt>
      <trkpt lat="45.95885" lon="4.90527">
        <ele>292</ele>
        <time>2016-11-19T10:29:08Z</time>
      </trkpt>
      <trkpt lat="45.95885" lon="4.90519">
        <ele>292</ele>
        <time>2016-11-19T10:29:09Z</time>
      </trkpt>
      <trkpt lat="45.95885" lon="4.90511">
        <ele>292</ele>
        <time>2016-11-19T10:29:10Z</time>
      </trkpt>
      <trkpt lat="45.95886" lon="4.90503">
        <ele>292</ele>
        <time>2016-11-19T10:29:11Z</time>
      </trkpt>
      <trkpt lat="45.95886" lon="4.90496">
        <ele>292</ele>
        <time>2016-11-19T10:29:12Z</time>
      </trkpt>
      <trkpt lat="45.95886" lon="4.90488">
        <ele>292</ele>
        <time>2016-11-19T10:29:13Z</time>
      </trkpt>
      <trkpt lat="45.95886" lon="4.9048">
        <ele>292</ele>
        <time>2016-11-19T10:29:14Z</time>
      </trkpt>
      <trkpt lat="45.95887" lon="4.90472">
        <ele>292</ele>
        <time>2016-11-19T10:29:15Z</time>
      </trkpt>
      <trkpt lat="45.95887" lon="4.90464">
        <ele>292</ele>
        <time>2016-11-19T10:29:16Z</time>
      </trkpt>
      <trkpt lat="45.95887" lon="4.90456">
        <ele>292</ele>
        <time>2016-11-19T10:29:17Z</time>
      </trkpt>
      <trkpt lat="45.95887" lon="4.90448">
        <ele>292</ele>
        <time>2016-11-19T10:29:18Z</time>
      </trkpt>
      <trkpt lat="45.95888" lon="4.9044">
        <ele>292</ele>
        <time>2016-11-19T10:29:19Z</time>
      </trkpt>
      <trkpt lat="45.95889" lon="4.90431">
        <ele>292</ele>
        <time>2016-11-19T10:29:20Z</time>
      </trkpt>
      <trkpt lat="45.95889" lon="4.90423">
        <ele>292</ele>
        <time>2016-11-19T10:29:21Z</time>
      </trkpt>
      <trkpt lat="45.95889" lon="4.90415">
        <ele>292</ele>
        <time>2016-11-19T10:29:22Z</time>
      </trkpt>
      <trkpt lat="45.95889" lon="4.90406">
        <ele>292</ele>
        <time>2016-11-19T10:29:23Z</time>
      </trkpt>
      <trkpt lat="45.95889" lon="4.90398">
        <ele>292</ele>
        <time>2016-11-19T10:29:24Z</time>
      </trkpt>
      <trkpt lat="45.95889" lon="4.9039">
        <ele>292</ele>
        <time>2016-11-19T10:29:25Z</time>
      </trkpt>
      <trkpt lat="45.9589" lon="4.90383">
        <ele>292</ele>
        <time>2016-11-19T10:29:26Z</time>
      </trkpt>
      <trkpt lat="45.9589" lon="4.90376">
        <ele>292</ele>
        <time>2016-11-19T10:29:27Z</time>
      </trkpt>
      <trkpt lat="45.95891" lon="4.90369">
        <ele>292</ele>
        <time>2016-11-19T10:29:28Z</time>
      </trkpt>
      <trkpt lat="45.95891" lon="4.90361">
        <ele>292</ele>
        <time>2016-11-19T10:29:29Z</time>
      </trkpt>
      <trkpt lat="45.95891" lon="4.90354">
        <ele>292</ele>
        <time>2016-11-19T10:29:30Z</time>
      </trkpt>
      <trkpt lat="45.95891" lon="4.90347">
        <ele>292</ele>
        <time>2016-11-19T10:29:31Z</time>
      </trkpt>
      <trkpt lat="45.95891" lon="4.90339">
        <ele>292</ele>
        <time>2016-11-19T10:29:32Z</time>
      </trkpt>
      <trkpt lat="45.95891" lon="4.90332">
        <ele>292</ele>
        <time>2016-11-19T10:29:33Z</time>
      </trkpt>
      <trkpt lat="45.95892" lon="4.90324">
        <ele>292</ele>
        <time>2016-11-19T10:29:34Z</time>
      </trkpt>
      <trkpt lat="45.95893" lon="4.90316">
        <ele>292</ele>
        <time>2016-11-19T10:29:35Z</time>
      </trkpt>
      <trkpt lat="45.95893" lon="4.90308">
        <ele>292</ele>
        <time>2016-11-19T10:29:36Z</time>
      </trkpt>
      <trkpt lat="45.95894" lon="4.903">
        <ele>292</ele>
        <time>2016-11-19T10:29:37Z</time>
      </trkpt>
      <trkpt lat="45.95894" lon="4.90291">
        <ele>292</ele>
        <time>2016-11-19T10:29:38Z</time>
      </trkpt>
      <trkpt lat="45.95895" lon="4.90282">
        <ele>292</ele>
        <time>2016-11-19T10:29:39Z</time>
      </trkpt>
      <trkpt lat="45.95895" lon="4.90273">
        <ele>292</ele>
        <time>2016-11-19T10:29:40Z</time>
      </trkpt>
      <trkpt lat="45.95894" lon="4.90264">
        <ele>292</ele>
        <time>2016-11-19T10:29:41Z</time>
      </trkpt>
      <trkpt lat="45.95894" lon="4.90255">
        <ele>292</ele>
        <time>2016-11-19T10:29:42Z</time>
      </trkpt>
      <trkpt lat="45.95895" lon="4.90246">
        <ele>292</ele>
        <time>2016-11-19T10:29:43Z</time>
      </trkpt>
      <trkpt lat="45.95896" lon="4.90237">
        <ele>292</ele>
        <time>2016-11-19T10:29:44Z</time>
      </trkpt>
      <trkpt lat="45.95896" lon="4.90229">
        <ele>292</ele>
        <time>2016-11-19T10:29:45Z</time>
      </trkpt>
      <trkpt lat="45.95896" lon="4.9022">
        <ele>291</ele>
        <time>2016-11-19T10:29:46Z</time>
      </trkpt>
      <trkpt lat="45.95897" lon="4.90212">
        <ele>291</ele>
        <time>2016-11-19T10:29:47Z</time>
      </trkpt>
      <trkpt lat="45.95897" lon="4.90204">
        <ele>291</ele>
        <time>2016-11-19T10:29:48Z</time>
      </trkpt>
      <trkpt lat="45.95897" lon="4.90196">
        <ele>291</ele>
        <time>2016-11-19T10:29:49Z</time>
      </trkpt>
      <trkpt lat="45.95898" lon="4.90188">
        <ele>291</ele>
        <time>2016-11-19T10:29:50Z</time>
      </trkpt>
      <trkpt lat="45.95899" lon="4.90181">
        <ele>291</ele>
        <time>2016-11-19T10:29:51Z</time>
      </trkpt>
      <trkpt lat="45.95899" lon="4.90173">
        <ele>290</ele>
        <time>2016-11-19T10:29:52Z</time>
      </trkpt>
      <trkpt lat="45.95899" lon="4.90165">
        <ele>290</ele>
        <time>2016-11-19T10:29:53Z</time>
      </trkpt>
      <trkpt lat="45.95899" lon="4.90156">
        <ele>290</ele>
        <time>2016-11-19T10:29:54Z</time>
      </trkpt>
      <trkpt lat="45.95899" lon="4.90148">
        <ele>290</ele>
        <time>2016-11-19T10:29:55Z</time>
      </trkpt>
      <trkpt lat="45.95899" lon="4.9014">
        <ele>290</ele>
        <time>2016-11-19T10:29:56Z</time>
      </trkpt>
      <trkpt lat="45.95899" lon="4.90131">
        <ele>290</ele>
        <time>2016-11-19T10:29:57Z</time>
      </trkpt>
      <trkpt lat="45.95899" lon="4.90122">
        <ele>290</ele>
        <time>2016-11-19T10:29:58Z</time>
      </trkpt>
      <trkpt lat="45.95899" lon="4.90112">
        <ele>290</ele>
        <time>2016-11-19T10:29:59Z</time>
      </trkpt>
      <trkpt lat="45.95899" lon="4.90102">
        <ele>290</ele>
        <time>2016-11-19T10:30:00Z</time>
      </trkpt>
      <trkpt lat="45.95899" lon="4.90093">
        <ele>290</ele>
        <time>2016-11-19T10:30:01Z</time>
      </trkpt>
      <trkpt lat="45.95899" lon="4.90084">
        <ele>290</ele>
        <time>2016-11-19T10:30:02Z</time>
      </trkpt>
      <trkpt lat="45.95899" lon="4.90075">
        <ele>290</ele>
        <time>2016-11-19T10:30:03Z</time>
      </trkpt>
      <trkpt lat="45.95898" lon="4.90066">
        <ele>290</ele>
        <time>2016-11-19T10:30:04Z</time>
      </trkpt>
      <trkpt lat="45.95898" lon="4.90058">
        <ele>290</ele>
        <time>2016-11-19T10:30:05Z</time>
      </trkpt>
      <trkpt lat="45.95899" lon="4.90049">
        <ele>290</ele>
        <time>2016-11-19T10:30:06Z</time>
      </trkpt>
      <trkpt lat="45.95899" lon="4.9004">
        <ele>290</ele>
        <time>2016-11-19T10:30:07Z</time>
      </trkpt>
      <trkpt lat="45.95898" lon="4.90031">
        <ele>290</ele>
        <time>2016-11-19T10:30:08Z</time>
      </trkpt>
      <trkpt lat="45.95898" lon="4.90023">
        <ele>290</ele>
        <time>2016-11-19T10:30:09Z</time>
      </trkpt>
      <trkpt lat="45.95898" lon="4.90014">
        <ele>290</ele>
        <time>2016-11-19T10:30:10Z</time>
      </trkpt>
      <trkpt lat="45.95898" lon="4.90006">
        <ele>290</ele>
        <time>2016-11-19T10:30:11Z</time>
      </trkpt>
      <trkpt lat="45.95897" lon="4.89997">
        <ele>290</ele>
        <time>2016-11-19T10:30:12Z</time>
      </trkpt>
      <trkpt lat="45.95897" lon="4.89988">
        <ele>290</ele>
        <time>2016-11-19T10:30:13Z</time>
      </trkpt>
      <trkpt lat="45.95897" lon="4.89978">
        <ele>290</ele>
        <time>2016-11-19T10:30:14Z</time>
      </trkpt>
      <trkpt lat="45.95897" lon="4.89969">
        <ele>290</ele>
        <time>2016-11-19T10:30:15Z</time>
      </trkpt>
      <trkpt lat="45.95897" lon="4.8996">
        <ele>290</ele>
        <time>2016-11-19T10:30:16Z</time>
      </trkpt>
      <trkpt lat="45.95897" lon="4.8995">
        <ele>290</ele>
        <time>2016-11-19T10:30:17Z</time>
      </trkpt>
      <trkpt lat="45.95897" lon="4.8994">
        <ele>290</ele>
        <time>2016-11-19T10:30:18Z</time>
      </trkpt>
      <trkpt lat="45.95896" lon="4.89931">
        <ele>290</ele>
        <time>2016-11-19T10:30:19Z</time>
      </trkpt>
      <trkpt lat="45.95896" lon="4.89922">
        <ele>290</ele>
        <time>2016-11-19T10:30:20Z</time>
      </trkpt>
      <trkpt lat="45.95896" lon="4.89912">
        <ele>290</ele>
        <time>2016-11-19T10:30:21Z</time>
      </trkpt>
      <trkpt lat="45.95896" lon="4.89902">
        <ele>290</ele>
        <time>2016-11-19T10:30:22Z</time>
      </trkpt>
      <trkpt lat="45.95895" lon="4.89893">
        <ele>290</ele>
        <time>2016-11-19T10:30:23Z</time>
      </trkpt>
      <trkpt lat="45.95895" lon="4.89884">
        <ele>290</ele>
        <time>2016-11-19T10:30:24Z</time>
      </trkpt>
      <trkpt lat="45.95895" lon="4.89875">
        <ele>290</ele>
        <time>2016-11-19T10:30:25Z</time>
      </trkpt>
      <trkpt lat="45.95895" lon="4.89867">
        <ele>290</ele>
        <time>2016-11-19T10:30:26Z</time>
      </trkpt>
      <trkpt lat="45.95895" lon="4.89858">
        <ele>290</ele>
        <time>2016-11-19T10:30:27Z</time>
      </trkpt>
      <trkpt lat="45.95895" lon="4.8985">
        <ele>290</ele>
        <time>2016-11-19T10:30:28Z</time>
      </trkpt>
      <trkpt lat="45.95894" lon="4.89842">
        <ele>290</ele>
        <time>2016-11-19T10:30:29Z</time>
      </trkpt>
      <trkpt lat="45.95894" lon="4.89834">
        <ele>290</ele>
        <time>2016-11-19T10:30:30Z</time>
      </trkpt>
      <trkpt lat="45.95894" lon="4.89827">
        <ele>289</ele>
        <time>2016-11-19T10:30:31Z</time>
      </trkpt>
      <trkpt lat="45.95894" lon="4.89819">
        <ele>289</ele>
        <time>2016-11-19T10:30:32Z</time>
      </trkpt>
      <trkpt lat="45.95894" lon="4.89811">
        <ele>289</ele>
        <time>2016-11-19T10:30:33Z</time>
      </trkpt>
      <trkpt lat="45.95894" lon="4.89803">
        <ele>289</ele>
        <time>2016-11-19T10:30:34Z</time>
      </trkpt>
      <trkpt lat="45.95894" lon="4.89795">
        <ele>289</ele>
        <time>2016-11-19T10:30:35Z</time>
      </trkpt>
      <trkpt lat="45.95894" lon="4.89787">
        <ele>289</ele>
        <time>2016-11-19T10:30:36Z</time>
      </trkpt>
      <trkpt lat="45.95894" lon="4.89779">
        <ele>289</ele>
        <time>2016-11-19T10:30:37Z</time>
      </trkpt>
      <trkpt lat="45.95893" lon="4.89771">
        <ele>289</ele>
        <time>2016-11-19T10:30:38Z</time>
      </trkpt>
      <trkpt lat="45.95893" lon="4.89762">
        <ele>289</ele>
        <time>2016-11-19T10:30:39Z</time>
      </trkpt>
      <trkpt lat="45.95893" lon="4.89754">
        <ele>289</ele>
        <time>2016-11-19T10:30:40Z</time>
      </trkpt>
      <trkpt lat="45.95893" lon="4.89746">
        <ele>289</ele>
        <time>2016-11-19T10:30:41Z</time>
      </trkpt>
      <trkpt lat="45.95893" lon="4.89738">
        <ele>289</ele>
        <time>2016-11-19T10:30:42Z</time>
      </trkpt>
      <trkpt lat="45.95893" lon="4.89729">
        <ele>289</ele>
        <time>2016-11-19T10:30:43Z</time>
      </trkpt>
      <trkpt lat="45.95893" lon="4.8972">
        <ele>289</ele>
        <time>2016-11-19T10:30:44Z</time>
      </trkpt>
      <trkpt lat="45.95893" lon="4.89711">
        <ele>289</ele>
        <time>2016-11-19T10:30:45Z</time>
      </trkpt>
      <trkpt lat="45.95893" lon="4.89701">
        <ele>289</ele>
        <time>2016-11-19T10:30:46Z</time>
      </trkpt>
      <trkpt lat="45.95893" lon="4.89692">
        <ele>289</ele>
        <time>2016-11-19T10:30:47Z</time>
      </trkpt>
      <trkpt lat="45.95892" lon="4.89682">
        <ele>289</ele>
        <time>2016-11-19T10:30:48Z</time>
      </trkpt>
      <trkpt lat="45.95892" lon="4.89673">
        <ele>289</ele>
        <time>2016-11-19T10:30:49Z</time>
      </trkpt>
      <trkpt lat="45.95892" lon="4.89663">
        <ele>289</ele>
        <time>2016-11-19T10:30:50Z</time>
      </trkpt>
      <trkpt lat="45.95892" lon="4.89654">
        <ele>289</ele>
        <time>2016-11-19T10:30:51Z</time>
      </trkpt>
      <trkpt lat="45.95892" lon="4.89645">
        <ele>289</ele>
        <time>2016-11-19T10:30:52Z</time>
      </trkpt>
      <trkpt lat="45.95892" lon="4.89636">
        <ele>289</ele>
        <time>2016-11-19T10:30:53Z</time>
      </trkpt>
      <trkpt lat="45.95891" lon="4.89626">
        <ele>289</ele>
        <time>2016-11-19T10:30:54Z</time>
      </trkpt>
      <trkpt lat="45.95891" lon="4.89617">
        <ele>289</ele>
        <time>2016-11-19T10:30:55Z</time>
      </trkpt>
      <trkpt lat="45.95891" lon="4.89608">
        <ele>289</ele>
        <time>2016-11-19T10:30:56Z</time>
      </trkpt>
      <trkpt lat="45.9589" lon="4.896">
        <ele>289</ele>
        <time>2016-11-19T10:30:57Z</time>
      </trkpt>
      <trkpt lat="45.9589" lon="4.89591">
        <ele>289</ele>
        <time>2016-11-19T10:30:58Z</time>
      </trkpt>
      <trkpt lat="45.95889" lon="4.89582">
        <ele>288</ele>
        <time>2016-11-19T10:30:59Z</time>
      </trkpt>
      <trkpt lat="45.95889" lon="4.89573">
        <ele>288</ele>
        <time>2016-11-19T10:31:00Z</time>
      </trkpt>
      <trkpt lat="45.95889" lon="4.89565">
        <ele>288</ele>
        <time>2016-11-19T10:31:01Z</time>
      </trkpt>
      <trkpt lat="45.95889" lon="4.89557">
        <ele>288</ele>
        <time>2016-11-19T10:31:02Z</time>
      </trkpt>
      <trkpt lat="45.95888" lon="4.89548">
        <ele>288</ele>
        <time>2016-11-19T10:31:03Z</time>
      </trkpt>
      <trkpt lat="45.95889" lon="4.8954">
        <ele>288</ele>
        <time>2016-11-19T10:31:04Z</time>
      </trkpt>
      <trkpt lat="45.95889" lon="4.89531">
        <ele>288</ele>
        <time>2016-11-19T10:31:05Z</time>
      </trkpt>
      <trkpt lat="45.95889" lon="4.89522">
        <ele>288</ele>
        <time>2016-11-19T10:31:06Z</time>
      </trkpt>
      <trkpt lat="45.95889" lon="4.89514">
        <ele>288</ele>
        <time>2016-11-19T10:31:07Z</time>
      </trkpt>
      <trkpt lat="45.95889" lon="4.89505">
        <ele>288</ele>
        <time>2016-11-19T10:31:08Z</time>
      </trkpt>
      <trkpt lat="45.95889" lon="4.89496">
        <ele>289</ele>
        <time>2016-11-19T10:31:09Z</time>
      </trkpt>
      <trkpt lat="45.95888" lon="4.89487">
        <ele>289</ele>
        <time>2016-11-19T10:31:10Z</time>
      </trkpt>
      <trkpt lat="45.95888" lon="4.89478">
        <ele>289</ele>
        <time>2016-11-19T10:31:11Z</time>
      </trkpt>
      <trkpt lat="45.95888" lon="4.89469">
        <ele>289</ele>
        <time>2016-11-19T10:31:12Z</time>
      </trkpt>
      <trkpt lat="45.95888" lon="4.8946">
        <ele>289</ele>
        <time>2016-11-19T10:31:13Z</time>
      </trkpt>
      <trkpt lat="45.95888" lon="4.89452">
        <ele>289</ele>
        <time>2016-11-19T10:31:14Z</time>
      </trkpt>
      <trkpt lat="45.95888" lon="4.89443">
        <ele>289</ele>
        <time>2016-11-19T10:31:15Z</time>
      </trkpt>
      <trkpt lat="45.95887" lon="4.89435">
        <ele>289</ele>
        <time>2016-11-19T10:31:16Z</time>
      </trkpt>
      <trkpt lat="45.95887" lon="4.89427">
        <ele>289</ele>
        <time>2016-11-19T10:31:17Z</time>
      </trkpt>
      <trkpt lat="45.95887" lon="4.89419">
        <ele>289</ele>
        <time>2016-11-19T10:31:18Z</time>
      </trkpt>
      <trkpt lat="45.95887" lon="4.89411">
        <ele>289</ele>
        <time>2016-11-19T10:31:19Z</time>
      </trkpt>
      <trkpt lat="45.95887" lon="4.89403">
        <ele>289</ele>
        <time>2016-11-19T10:31:20Z</time>
      </trkpt>
      <trkpt lat="45.95888" lon="4.89395">
        <ele>289</ele>
        <time>2016-11-19T10:31:21Z</time>
      </trkpt>
      <trkpt lat="45.95887" lon="4.89385">
        <ele>289</ele>
        <time>2016-11-19T10:31:22Z</time>
      </trkpt>
      <trkpt lat="45.95887" lon="4.89376">
        <ele>289</ele>
        <time>2016-11-19T10:31:23Z</time>
      </trkpt>
      <trkpt lat="45.95887" lon="4.89366">
        <ele>289</ele>
        <time>2016-11-19T10:31:24Z</time>
      </trkpt>
      <trkpt lat="45.95887" lon="4.89356">
        <ele>289</ele>
        <time>2016-11-19T10:31:25Z</time>
      </trkpt>
      <trkpt lat="45.95887" lon="4.89346">
        <ele>289</ele>
        <time>2016-11-19T10:31:26Z</time>
      </trkpt>
      <trkpt lat="45.95887" lon="4.89336">
        <ele>289</ele>
        <time>2016-11-19T10:31:27Z</time>
      </trkpt>
      <trkpt lat="45.95887" lon="4.89327">
        <ele>289</ele>
        <time>2016-11-19T10:31:28Z</time>
      </trkpt>
      <trkpt lat="45.95887" lon="4.89318">
        <ele>289</ele>
        <time>2016-11-19T10:31:29Z</time>
      </trkpt>
      <trkpt lat="45.95887" lon="4.89309">
        <ele>289</ele>
        <time>2016-11-19T10:31:30Z</time>
      </trkpt>
      <trkpt lat="45.95887" lon="4.893">
        <ele>289</ele>
        <time>2016-11-19T10:31:31Z</time>
      </trkpt>
      <trkpt lat="45.95887" lon="4.89292">
        <ele>289</ele>
        <time>2016-11-19T10:31:32Z</time>
      </trkpt>
      <trkpt lat="45.95887" lon="4.89284">
        <ele>289</ele>
        <time>2016-11-19T10:31:33Z</time>
      </trkpt>
      <trkpt lat="45.95887" lon="4.89276">
        <ele>289</ele>
        <time>2016-11-19T10:31:34Z</time>
      </trkpt>
      <trkpt lat="45.95887" lon="4.89268">
        <ele>289</ele>
        <time>2016-11-19T10:31:35Z</time>
      </trkpt>
      <trkpt lat="45.95887" lon="4.89261">
        <ele>289</ele>
        <time>2016-11-19T10:31:36Z</time>
      </trkpt>
      <trkpt lat="45.95887" lon="4.89253">
        <ele>289</ele>
        <time>2016-11-19T10:31:37Z</time>
      </trkpt>
      <trkpt lat="45.95887" lon="4.89246">
        <ele>288</ele>
        <time>2016-11-19T10:31:38Z</time>
      </trkpt>
      <trkpt lat="45.95887" lon="4.89239">
        <ele>288</ele>
        <time>2016-11-19T10:31:39Z</time>
      </trkpt>
      <trkpt lat="45.95886" lon="4.89231">
        <ele>288</ele>
        <time>2016-11-19T10:31:40Z</time>
      </trkpt>
      <trkpt lat="45.95886" lon="4.89224">
        <ele>288</ele>
        <time>2016-11-19T10:31:41Z</time>
      </trkpt>
      <trkpt lat="45.95886" lon="4.89215">
        <ele>288</ele>
        <time>2016-11-19T10:31:42Z</time>
      </trkpt>
      <trkpt lat="45.95886" lon="4.89207">
        <ele>288</ele>
        <time>2016-11-19T10:31:43Z</time>
      </trkpt>
      <trkpt lat="45.95886" lon="4.89199">
        <ele>288</ele>
        <time>2016-11-19T10:31:44Z</time>
      </trkpt>
      <trkpt lat="45.95885" lon="4.89191">
        <ele>288</ele>
        <time>2016-11-19T10:31:45Z</time>
      </trkpt>
      <trkpt lat="45.95884" lon="4.89183">
        <ele>288</ele>
        <time>2016-11-19T10:31:46Z</time>
      </trkpt>
      <trkpt lat="45.95884" lon="4.89175">
        <ele>288</ele>
        <time>2016-11-19T10:31:47Z</time>
      </trkpt>
      <trkpt lat="45.95883" lon="4.89166">
        <ele>288</ele>
        <time>2016-11-19T10:31:48Z</time>
      </trkpt>
      <trkpt lat="45.95882" lon="4.89159">
        <ele>288</ele>
        <time>2016-11-19T10:31:49Z</time>
      </trkpt>
      <trkpt lat="45.95881" lon="4.89151">
        <ele>288</ele>
        <time>2016-11-19T10:31:50Z</time>
      </trkpt>
      <trkpt lat="45.95881" lon="4.89144">
        <ele>288</ele>
        <time>2016-11-19T10:31:51Z</time>
      </trkpt>
      <trkpt lat="45.95881" lon="4.89136">
        <ele>288</ele>
        <time>2016-11-19T10:31:52Z</time>
      </trkpt>
      <trkpt lat="45.95882" lon="4.89129">
        <ele>288</ele>
        <time>2016-11-19T10:31:53Z</time>
      </trkpt>
      <trkpt lat="45.95886" lon="4.89119">
        <ele>288</ele>
        <time>2016-11-19T10:31:55Z</time>
      </trkpt>
      <trkpt lat="45.95888" lon="4.89115">
        <ele>288</ele>
        <time>2016-11-19T10:31:56Z</time>
      </trkpt>
      <trkpt lat="45.95893" lon="4.89111">
        <ele>288</ele>
        <time>2016-11-19T10:31:59Z</time>
      </trkpt>
      <trkpt lat="45.95894" lon="4.89111">
        <ele>288</ele>
        <time>2016-11-19T10:32:00Z</time>
      </trkpt>
      <trkpt lat="45.95899" lon="4.89101">
        <ele>289</ele>
        <time>2016-11-19T10:32:13Z</time>
      </trkpt>
      <trkpt lat="45.959" lon="4.89099">
        <ele>289</ele>
        <time>2016-11-19T10:32:14Z</time>
      </trkpt>
      <trkpt lat="45.95903" lon="4.89088">
        <ele>289</ele>
        <time>2016-11-19T10:32:18Z</time>
      </trkpt>
      <trkpt lat="45.95903" lon="4.89084">
        <ele>289</ele>
        <time>2016-11-19T10:32:19Z</time>
      </trkpt>
      <trkpt lat="45.95904" lon="4.89075">
        <ele>289</ele>
        <time>2016-11-19T10:32:21Z</time>
      </trkpt>
      <trkpt lat="45.95905" lon="4.89069">
        <ele>289</ele>
        <time>2016-11-19T10:32:22Z</time>
      </trkpt>
      <trkpt lat="45.95905" lon="4.89056">
        <ele>289</ele>
        <time>2016-11-19T10:32:24Z</time>
      </trkpt>
      <trkpt lat="45.95904" lon="4.89049">
        <ele>289</ele>
        <time>2016-11-19T10:32:25Z</time>
      </trkpt>
      <trkpt lat="45.95903" lon="4.89042">
        <ele>289</ele>
        <time>2016-11-19T10:32:26Z</time>
      </trkpt>
      <trkpt lat="45.95902" lon="4.89035">
        <ele>289</ele>
        <time>2016-11-19T10:32:27Z</time>
      </trkpt>
      <trkpt lat="45.959" lon="4.89028">
        <ele>289</ele>
        <time>2016-11-19T10:32:28Z</time>
      </trkpt>
      <trkpt lat="45.95899" lon="4.89021">
        <ele>289</ele>
        <time>2016-11-19T10:32:29Z</time>
      </trkpt>
      <trkpt lat="45.95896" lon="4.89013">
        <ele>289</ele>
        <time>2016-11-19T10:32:30Z</time>
      </trkpt>
      <trkpt lat="45.95895" lon="4.89005">
        <ele>289</ele>
        <time>2016-11-19T10:32:31Z</time>
      </trkpt>
      <trkpt lat="45.95894" lon="4.88998">
        <ele>290</ele>
        <time>2016-11-19T10:32:32Z</time>
      </trkpt>
      <trkpt lat="45.95892" lon="4.88991">
        <ele>289</ele>
        <time>2016-11-19T10:32:33Z</time>
      </trkpt>
      <trkpt lat="45.95891" lon="4.88984">
        <ele>289</ele>
        <time>2016-11-19T10:32:34Z</time>
      </trkpt>
      <trkpt lat="45.9589" lon="4.88977">
        <ele>289</ele>
        <time>2016-11-19T10:32:35Z</time>
      </trkpt>
      <trkpt lat="45.95889" lon="4.8897">
        <ele>289</ele>
        <time>2016-11-19T10:32:36Z</time>
      </trkpt>
      <trkpt lat="45.95888" lon="4.88964">
        <ele>289</ele>
        <time>2016-11-19T10:32:37Z</time>
      </trkpt>
      <trkpt lat="45.95887" lon="4.88957">
        <ele>289</ele>
        <time>2016-11-19T10:32:38Z</time>
      </trkpt>
      <trkpt lat="45.95887" lon="4.8895">
        <ele>289</ele>
        <time>2016-11-19T10:32:39Z</time>
      </trkpt>
      <trkpt lat="45.95886" lon="4.88943">
        <ele>289</ele>
        <time>2016-11-19T10:32:40Z</time>
      </trkpt>
      <trkpt lat="45.95885" lon="4.88936">
        <ele>289</ele>
        <time>2016-11-19T10:32:41Z</time>
      </trkpt>
      <trkpt lat="45.95885" lon="4.88929">
        <ele>289</ele>
        <time>2016-11-19T10:32:42Z</time>
      </trkpt>
      <trkpt lat="45.95885" lon="4.88922">
        <ele>289</ele>
        <time>2016-11-19T10:32:43Z</time>
      </trkpt>
      <trkpt lat="45.95885" lon="4.88915">
        <ele>289</ele>
        <time>2016-11-19T10:32:44Z</time>
      </trkpt>
      <trkpt lat="45.95885" lon="4.88908">
        <ele>289</ele>
        <time>2016-11-19T10:32:45Z</time>
      </trkpt>
      <trkpt lat="45.95885" lon="4.88901">
        <ele>289</ele>
        <time>2016-11-19T10:32:46Z</time>
      </trkpt>
      <trkpt lat="45.95885" lon="4.88894">
        <ele>289</ele>
        <time>2016-11-19T10:32:47Z</time>
      </trkpt>
      <trkpt lat="45.95885" lon="4.88886">
        <ele>289</ele>
        <time>2016-11-19T10:32:48Z</time>
      </trkpt>
      <trkpt lat="45.95885" lon="4.88879">
        <ele>289</ele>
        <time>2016-11-19T10:32:49Z</time>
      </trkpt>
      <trkpt lat="45.95885" lon="4.88872">
        <ele>289</ele>
        <time>2016-11-19T10:32:50Z</time>
      </trkpt>
      <trkpt lat="45.95885" lon="4.88865">
        <ele>289</ele>
        <time>2016-11-19T10:32:51Z</time>
      </trkpt>
      <trkpt lat="45.95885" lon="4.88858">
        <ele>289</ele>
        <time>2016-11-19T10:32:52Z</time>
      </trkpt>
      <trkpt lat="45.95885" lon="4.88851">
        <ele>289</ele>
        <time>2016-11-19T10:32:53Z</time>
      </trkpt>
      <trkpt lat="45.95884" lon="4.88843">
        <ele>289</ele>
        <time>2016-11-19T10:32:54Z</time>
      </trkpt>
      <trkpt lat="45.95884" lon="4.88836">
        <ele>289</ele>
        <time>2016-11-19T10:32:55Z</time>
      </trkpt>
      <trkpt lat="45.95884" lon="4.88828">
        <ele>288</ele>
        <time>2016-11-19T10:32:56Z</time>
      </trkpt>
      <trkpt lat="45.95883" lon="4.88821">
        <ele>288</ele>
        <time>2016-11-19T10:32:57Z</time>
      </trkpt>
      <trkpt lat="45.95883" lon="4.88813">
        <ele>288</ele>
        <time>2016-11-19T10:32:58Z</time>
      </trkpt>
      <trkpt lat="45.95883" lon="4.88806">
        <ele>288</ele>
        <time>2016-11-19T10:32:59Z</time>
      </trkpt>
      <trkpt lat="45.95882" lon="4.88797">
        <ele>288</ele>
        <time>2016-11-19T10:33:00Z</time>
      </trkpt>
      <trkpt lat="45.95882" lon="4.88789">
        <ele>288</ele>
        <time>2016-11-19T10:33:01Z</time>
      </trkpt>
      <trkpt lat="45.95882" lon="4.88781">
        <ele>288</ele>
        <time>2016-11-19T10:33:02Z</time>
      </trkpt>
      <trkpt lat="45.95882" lon="4.88773">
        <ele>288</ele>
        <time>2016-11-19T10:33:03Z</time>
      </trkpt>
      <trkpt lat="45.95882" lon="4.88765">
        <ele>288</ele>
        <time>2016-11-19T10:33:04Z</time>
      </trkpt>
      <trkpt lat="45.95881" lon="4.88757">
        <ele>288</ele>
        <time>2016-11-19T10:33:05Z</time>
      </trkpt>
      <trkpt lat="45.95881" lon="4.88749">
        <ele>288</ele>
        <time>2016-11-19T10:33:06Z</time>
      </trkpt>
      <trkpt lat="45.95881" lon="4.88741">
        <ele>288</ele>
        <time>2016-11-19T10:33:07Z</time>
      </trkpt>
      <trkpt lat="45.9588" lon="4.88733">
        <ele>288</ele>
        <time>2016-11-19T10:33:08Z</time>
      </trkpt>
      <trkpt lat="45.9588" lon="4.88725">
        <ele>288</ele>
        <time>2016-11-19T10:33:09Z</time>
      </trkpt>
      <trkpt lat="45.9588" lon="4.88717">
        <ele>288</ele>
        <time>2016-11-19T10:33:10Z</time>
      </trkpt>
      <trkpt lat="45.95879" lon="4.88709">
        <ele>288</ele>
        <time>2016-11-19T10:33:11Z</time>
      </trkpt>
      <trkpt lat="45.95879" lon="4.88701">
        <ele>288</ele>
        <time>2016-11-19T10:33:12Z</time>
      </trkpt>
      <trkpt lat="45.95879" lon="4.88692">
        <ele>288</ele>
        <time>2016-11-19T10:33:13Z</time>
      </trkpt>
      <trkpt lat="45.95878" lon="4.88684">
        <ele>288</ele>
        <time>2016-11-19T10:33:14Z</time>
      </trkpt>
      <trkpt lat="45.95878" lon="4.88676">
        <ele>288</ele>
        <time>2016-11-19T10:33:15Z</time>
      </trkpt>
      <trkpt lat="45.95878" lon="4.88668">
        <ele>288</ele>
        <time>2016-11-19T10:33:16Z</time>
      </trkpt>
      <trkpt lat="45.95878" lon="4.8866">
        <ele>288</ele>
        <time>2016-11-19T10:33:17Z</time>
      </trkpt>
      <trkpt lat="45.95877" lon="4.88652">
        <ele>288</ele>
        <time>2016-11-19T10:33:18Z</time>
      </trkpt>
      <trkpt lat="45.95877" lon="4.88645">
        <ele>288</ele>
        <time>2016-11-19T10:33:19Z</time>
      </trkpt>
      <trkpt lat="45.95877" lon="4.88637">
        <ele>288</ele>
        <time>2016-11-19T10:33:20Z</time>
      </trkpt>
      <trkpt lat="45.95876" lon="4.8863">
        <ele>288</ele>
        <time>2016-11-19T10:33:21Z</time>
      </trkpt>
      <trkpt lat="45.95876" lon="4.88622">
        <ele>288</ele>
        <time>2016-11-19T10:33:22Z</time>
      </trkpt>
      <trkpt lat="45.95875" lon="4.88614">
        <ele>288</ele>
        <time>2016-11-19T10:33:23Z</time>
      </trkpt>
      <trkpt lat="45.95874" lon="4.88606">
        <ele>288</ele>
        <time>2016-11-19T10:33:24Z</time>
      </trkpt>
      <trkpt lat="45.95874" lon="4.88597">
        <ele>288</ele>
        <time>2016-11-19T10:33:25Z</time>
      </trkpt>
      <trkpt lat="45.95873" lon="4.88588">
        <ele>288</ele>
        <time>2016-11-19T10:33:26Z</time>
      </trkpt>
      <trkpt lat="45.95873" lon="4.88579">
        <ele>288</ele>
        <time>2016-11-19T10:33:27Z</time>
      </trkpt>
      <trkpt lat="45.95873" lon="4.8857">
        <ele>288</ele>
        <time>2016-11-19T10:33:28Z</time>
      </trkpt>
      <trkpt lat="45.95872" lon="4.8856">
        <ele>288</ele>
        <time>2016-11-19T10:33:29Z</time>
      </trkpt>
      <trkpt lat="45.95872" lon="4.88551">
        <ele>288</ele>
        <time>2016-11-19T10:33:30Z</time>
      </trkpt>
      <trkpt lat="45.95872" lon="4.88542">
        <ele>288</ele>
        <time>2016-11-19T10:33:31Z</time>
      </trkpt>
      <trkpt lat="45.95871" lon="4.88533">
        <ele>288</ele>
        <time>2016-11-19T10:33:32Z</time>
      </trkpt>
      <trkpt lat="45.95871" lon="4.88525">
        <ele>288</ele>
        <time>2016-11-19T10:33:33Z</time>
      </trkpt>
      <trkpt lat="45.95871" lon="4.88517">
        <ele>288</ele>
        <time>2016-11-19T10:33:34Z</time>
      </trkpt>
      <trkpt lat="45.9587" lon="4.88509">
        <ele>288</ele>
        <time>2016-11-19T10:33:35Z</time>
      </trkpt>
      <trkpt lat="45.9587" lon="4.88502">
        <ele>288</ele>
        <time>2016-11-19T10:33:36Z</time>
      </trkpt>
      <trkpt lat="45.9587" lon="4.88494">
        <ele>288</ele>
        <time>2016-11-19T10:33:37Z</time>
      </trkpt>
      <trkpt lat="45.95869" lon="4.88487">
        <ele>288</ele>
        <time>2016-11-19T10:33:38Z</time>
      </trkpt>
      <trkpt lat="45.95868" lon="4.88479">
        <ele>288</ele>
        <time>2016-11-19T10:33:39Z</time>
      </trkpt>
      <trkpt lat="45.95867" lon="4.88472">
        <ele>287</ele>
        <time>2016-11-19T10:33:40Z</time>
      </trkpt>
      <trkpt lat="45.95867" lon="4.88465">
        <ele>287</ele>
        <time>2016-11-19T10:33:41Z</time>
      </trkpt>
      <trkpt lat="45.95867" lon="4.88457">
        <ele>287</ele>
        <time>2016-11-19T10:33:42Z</time>
      </trkpt>
      <trkpt lat="45.95866" lon="4.8845">
        <ele>287</ele>
        <time>2016-11-19T10:33:43Z</time>
      </trkpt>
      <trkpt lat="45.95866" lon="4.88442">
        <ele>287</ele>
        <time>2016-11-19T10:33:44Z</time>
      </trkpt>
      <trkpt lat="45.95866" lon="4.88435">
        <ele>287</ele>
        <time>2016-11-19T10:33:45Z</time>
      </trkpt>
      <trkpt lat="45.95866" lon="4.88427">
        <ele>287</ele>
        <time>2016-11-19T10:33:46Z</time>
      </trkpt>
      <trkpt lat="45.95865" lon="4.8842">
        <ele>287</ele>
        <time>2016-11-19T10:33:47Z</time>
      </trkpt>
      <trkpt lat="45.95865" lon="4.88412">
        <ele>287</ele>
        <time>2016-11-19T10:33:48Z</time>
      </trkpt>
      <trkpt lat="45.95865" lon="4.88404">
        <ele>287</ele>
        <time>2016-11-19T10:33:49Z</time>
      </trkpt>
      <trkpt lat="45.95865" lon="4.88397">
        <ele>287</ele>
        <time>2016-11-19T10:33:50Z</time>
      </trkpt>
      <trkpt lat="45.95865" lon="4.88389">
        <ele>287</ele>
        <time>2016-11-19T10:33:51Z</time>
      </trkpt>
      <trkpt lat="45.95864" lon="4.88381">
        <ele>287</ele>
        <time>2016-11-19T10:33:52Z</time>
      </trkpt>
      <trkpt lat="45.95864" lon="4.88374">
        <ele>287</ele>
        <time>2016-11-19T10:33:53Z</time>
      </trkpt>
      <trkpt lat="45.95864" lon="4.88366">
        <ele>287</ele>
        <time>2016-11-19T10:33:54Z</time>
      </trkpt>
      <trkpt lat="45.95864" lon="4.88359">
        <ele>287</ele>
        <time>2016-11-19T10:33:55Z</time>
      </trkpt>
      <trkpt lat="45.95863" lon="4.88351">
        <ele>287</ele>
        <time>2016-11-19T10:33:56Z</time>
      </trkpt>
      <trkpt lat="45.95863" lon="4.88344">
        <ele>287</ele>
        <time>2016-11-19T10:33:57Z</time>
      </trkpt>
      <trkpt lat="45.95862" lon="4.88336">
        <ele>287</ele>
        <time>2016-11-19T10:33:58Z</time>
      </trkpt>
      <trkpt lat="45.95862" lon="4.88329">
        <ele>288</ele>
        <time>2016-11-19T10:33:59Z</time>
      </trkpt>
      <trkpt lat="45.95862" lon="4.88321">
        <ele>288</ele>
        <time>2016-11-19T10:34:00Z</time>
      </trkpt>
      <trkpt lat="45.95862" lon="4.88313">
        <ele>288</ele>
        <time>2016-11-19T10:34:01Z</time>
      </trkpt>
      <trkpt lat="45.95861" lon="4.88304">
        <ele>288</ele>
        <time>2016-11-19T10:34:02Z</time>
      </trkpt>
      <trkpt lat="45.95861" lon="4.88295">
        <ele>288</ele>
        <time>2016-11-19T10:34:03Z</time>
      </trkpt>
      <trkpt lat="45.9586" lon="4.88286">
        <ele>288</ele>
        <time>2016-11-19T10:34:04Z</time>
      </trkpt>
      <trkpt lat="45.95859" lon="4.88277">
        <ele>288</ele>
        <time>2016-11-19T10:34:05Z</time>
      </trkpt>
      <trkpt lat="45.95859" lon="4.88268">
        <ele>288</ele>
        <time>2016-11-19T10:34:06Z</time>
      </trkpt>
      <trkpt lat="45.95858" lon="4.8826">
        <ele>287</ele>
        <time>2016-11-19T10:34:07Z</time>
      </trkpt>
      <trkpt lat="45.95858" lon="4.88251">
        <ele>287</ele>
        <time>2016-11-19T10:34:08Z</time>
      </trkpt>
      <trkpt lat="45.95858" lon="4.88243">
        <ele>288</ele>
        <time>2016-11-19T10:34:09Z</time>
      </trkpt>
      <trkpt lat="45.95858" lon="4.88235">
        <ele>288</ele>
        <time>2016-11-19T10:34:10Z</time>
      </trkpt>
      <trkpt lat="45.95858" lon="4.88228">
        <ele>288</ele>
        <time>2016-11-19T10:34:11Z</time>
      </trkpt>
      <trkpt lat="45.95858" lon="4.8822">
        <ele>288</ele>
        <time>2016-11-19T10:34:12Z</time>
      </trkpt>
      <trkpt lat="45.95857" lon="4.88213">
        <ele>288</ele>
        <time>2016-11-19T10:34:13Z</time>
      </trkpt>
      <trkpt lat="45.95857" lon="4.88206">
        <ele>288</ele>
        <time>2016-11-19T10:34:14Z</time>
      </trkpt>
      <trkpt lat="45.95857" lon="4.88199">
        <ele>288</ele>
        <time>2016-11-19T10:34:15Z</time>
      </trkpt>
      <trkpt lat="45.95856" lon="4.88192">
        <ele>288</ele>
        <time>2016-11-19T10:34:16Z</time>
      </trkpt>
      <trkpt lat="45.95856" lon="4.88185">
        <ele>288</ele>
        <time>2016-11-19T10:34:17Z</time>
      </trkpt>
      <trkpt lat="45.95856" lon="4.88177">
        <ele>288</ele>
        <time>2016-11-19T10:34:18Z</time>
      </trkpt>
      <trkpt lat="45.95855" lon="4.88169">
        <ele>288</ele>
        <time>2016-11-19T10:34:19Z</time>
      </trkpt>
      <trkpt lat="45.95855" lon="4.88161">
        <ele>288</ele>
        <time>2016-11-19T10:34:20Z</time>
      </trkpt>
      <trkpt lat="45.95855" lon="4.88153">
        <ele>288</ele>
        <time>2016-11-19T10:34:21Z</time>
      </trkpt>
      <trkpt lat="45.95854" lon="4.88145">
        <ele>289</ele>
        <time>2016-11-19T10:34:22Z</time>
      </trkpt>
      <trkpt lat="45.95855" lon="4.88137">
        <ele>289</ele>
        <time>2016-11-19T10:34:23Z</time>
      </trkpt>
      <trkpt lat="45.95855" lon="4.88128">
        <ele>289</ele>
        <time>2016-11-19T10:34:24Z</time>
      </trkpt>
      <trkpt lat="45.95854" lon="4.88121">
        <ele>289</ele>
        <time>2016-11-19T10:34:25Z</time>
      </trkpt>
      <trkpt lat="45.95854" lon="4.88114">
        <ele>289</ele>
        <time>2016-11-19T10:34:26Z</time>
      </trkpt>
      <trkpt lat="45.95854" lon="4.88107">
        <ele>289</ele>
        <time>2016-11-19T10:34:27Z</time>
      </trkpt>
      <trkpt lat="45.95854" lon="4.881">
        <ele>289</ele>
        <time>2016-11-19T10:34:28Z</time>
      </trkpt>
      <trkpt lat="45.95853" lon="4.88093">
        <ele>288</ele>
        <time>2016-11-19T10:34:29Z</time>
      </trkpt>
      <trkpt lat="45.95853" lon="4.88086">
        <ele>288</ele>
        <time>2016-11-19T10:34:30Z</time>
      </trkpt>
      <trkpt lat="45.95853" lon="4.88078">
        <ele>289</ele>
        <time>2016-11-19T10:34:31Z</time>
      </trkpt>
      <trkpt lat="45.95852" lon="4.8807">
        <ele>289</ele>
        <time>2016-11-19T10:34:32Z</time>
      </trkpt>
      <trkpt lat="45.95852" lon="4.88062">
        <ele>289</ele>
        <time>2016-11-19T10:34:33Z</time>
      </trkpt>
      <trkpt lat="45.95852" lon="4.88054">
        <ele>289</ele>
        <time>2016-11-19T10:34:34Z</time>
      </trkpt>
      <trkpt lat="45.95851" lon="4.88047">
        <ele>289</ele>
        <time>2016-11-19T10:34:35Z</time>
      </trkpt>
      <trkpt lat="45.95851" lon="4.88039">
        <ele>289</ele>
        <time>2016-11-19T10:34:36Z</time>
      </trkpt>
      <trkpt lat="45.95851" lon="4.8803">
        <ele>289</ele>
        <time>2016-11-19T10:34:37Z</time>
      </trkpt>
      <trkpt lat="45.9585" lon="4.88022">
        <ele>289</ele>
        <time>2016-11-19T10:34:38Z</time>
      </trkpt>
      <trkpt lat="45.9585" lon="4.88014">
        <ele>289</ele>
        <time>2016-11-19T10:34:39Z</time>
      </trkpt>
      <trkpt lat="45.9585" lon="4.88006">
        <ele>289</ele>
        <time>2016-11-19T10:34:40Z</time>
      </trkpt>
      <trkpt lat="45.95849" lon="4.87998">
        <ele>289</ele>
        <time>2016-11-19T10:34:41Z</time>
      </trkpt>
      <trkpt lat="45.95849" lon="4.8799">
        <ele>289</ele>
        <time>2016-11-19T10:34:42Z</time>
      </trkpt>
      <trkpt lat="45.95848" lon="4.87982">
        <ele>289</ele>
        <time>2016-11-19T10:34:43Z</time>
      </trkpt>
      <trkpt lat="45.95848" lon="4.87975">
        <ele>289</ele>
        <time>2016-11-19T10:34:44Z</time>
      </trkpt>
      <trkpt lat="45.95847" lon="4.87967">
        <ele>289</ele>
        <time>2016-11-19T10:34:45Z</time>
      </trkpt>
      <trkpt lat="45.95847" lon="4.8796">
        <ele>289</ele>
        <time>2016-11-19T10:34:46Z</time>
      </trkpt>
      <trkpt lat="45.95847" lon="4.87952">
        <ele>289</ele>
        <time>2016-11-19T10:34:47Z</time>
      </trkpt>
      <trkpt lat="45.95846" lon="4.87944">
        <ele>289</ele>
        <time>2016-11-19T10:34:48Z</time>
      </trkpt>
      <trkpt lat="45.95846" lon="4.87936">
        <ele>289</ele>
        <time>2016-11-19T10:34:49Z</time>
      </trkpt>
      <trkpt lat="45.95845" lon="4.87927">
        <ele>289</ele>
        <time>2016-11-19T10:34:50Z</time>
      </trkpt>
      <trkpt lat="45.95844" lon="4.87919">
        <ele>289</ele>
        <time>2016-11-19T10:34:51Z</time>
      </trkpt>
      <trkpt lat="45.95844" lon="4.87911">
        <ele>289</ele>
        <time>2016-11-19T10:34:52Z</time>
      </trkpt>
      <trkpt lat="45.95843" lon="4.87902">
        <ele>289</ele>
        <time>2016-11-19T10:34:53Z</time>
      </trkpt>
      <trkpt lat="45.95843" lon="4.87894">
        <ele>289</ele>
        <time>2016-11-19T10:34:54Z</time>
      </trkpt>
      <trkpt lat="45.95842" lon="4.87886">
        <ele>289</ele>
        <time>2016-11-19T10:34:55Z</time>
      </trkpt>
      <trkpt lat="45.95842" lon="4.87878">
        <ele>289</ele>
        <time>2016-11-19T10:34:56Z</time>
      </trkpt>
      <trkpt lat="45.95841" lon="4.8787">
        <ele>289</ele>
        <time>2016-11-19T10:34:57Z</time>
      </trkpt>
      <trkpt lat="45.95841" lon="4.87861">
        <ele>289</ele>
        <time>2016-11-19T10:34:58Z</time>
      </trkpt>
      <trkpt lat="45.9584" lon="4.87853">
        <ele>289</ele>
        <time>2016-11-19T10:34:59Z</time>
      </trkpt>
      <trkpt lat="45.95839" lon="4.87845">
        <ele>288</ele>
        <time>2016-11-19T10:35:00Z</time>
      </trkpt>
      <trkpt lat="45.95838" lon="4.87836">
        <ele>288</ele>
        <time>2016-11-19T10:35:01Z</time>
      </trkpt>
      <trkpt lat="45.95837" lon="4.87828">
        <ele>288</ele>
        <time>2016-11-19T10:35:02Z</time>
      </trkpt>
      <trkpt lat="45.95837" lon="4.87819">
        <ele>288</ele>
        <time>2016-11-19T10:35:03Z</time>
      </trkpt>
      <trkpt lat="45.95835" lon="4.8781">
        <ele>288</ele>
        <time>2016-11-19T10:35:04Z</time>
      </trkpt>
      <trkpt lat="45.95834" lon="4.878">
        <ele>287</ele>
        <time>2016-11-19T10:35:05Z</time>
      </trkpt>
      <trkpt lat="45.95833" lon="4.87791">
        <ele>285</ele>
        <time>2016-11-19T10:35:06Z</time>
      </trkpt>
      <trkpt lat="45.95832" lon="4.87781">
        <ele>285</ele>
        <time>2016-11-19T10:35:07Z</time>
      </trkpt>
      <trkpt lat="45.95831" lon="4.87771">
        <ele>285</ele>
        <time>2016-11-19T10:35:08Z</time>
      </trkpt>
      <trkpt lat="45.9583" lon="4.87761">
        <ele>285</ele>
        <time>2016-11-19T10:35:09Z</time>
      </trkpt>
      <trkpt lat="45.95829" lon="4.87752">
        <ele>285</ele>
        <time>2016-11-19T10:35:10Z</time>
      </trkpt>
      <trkpt lat="45.95827" lon="4.87742">
        <ele>284</ele>
        <time>2016-11-19T10:35:11Z</time>
      </trkpt>
      <trkpt lat="45.95825" lon="4.87733">
        <ele>284</ele>
        <time>2016-11-19T10:35:12Z</time>
      </trkpt>
      <trkpt lat="45.95823" lon="4.87724">
        <ele>284</ele>
        <time>2016-11-19T10:35:13Z</time>
      </trkpt>
      <trkpt lat="45.95822" lon="4.87715">
        <ele>283</ele>
        <time>2016-11-19T10:35:14Z</time>
      </trkpt>
      <trkpt lat="45.9582" lon="4.87706">
        <ele>283</ele>
        <time>2016-11-19T10:35:15Z</time>
      </trkpt>
      <trkpt lat="45.95818" lon="4.87697">
        <ele>283</ele>
        <time>2016-11-19T10:35:16Z</time>
      </trkpt>
      <trkpt lat="45.95816" lon="4.87688">
        <ele>283</ele>
        <time>2016-11-19T10:35:17Z</time>
      </trkpt>
      <trkpt lat="45.95814" lon="4.8768">
        <ele>284</ele>
        <time>2016-11-19T10:35:18Z</time>
      </trkpt>
      <trkpt lat="45.95811" lon="4.87671">
        <ele>284</ele>
        <time>2016-11-19T10:35:19Z</time>
      </trkpt>
      <trkpt lat="45.95809" lon="4.87662">
        <ele>283</ele>
        <time>2016-11-19T10:35:20Z</time>
      </trkpt>
      <trkpt lat="45.95806" lon="4.87653">
        <ele>283</ele>
        <time>2016-11-19T10:35:21Z</time>
      </trkpt>
      <trkpt lat="45.95802" lon="4.87645">
        <ele>283</ele>
        <time>2016-11-19T10:35:22Z</time>
      </trkpt>
      <trkpt lat="45.95799" lon="4.87636">
        <ele>283</ele>
        <time>2016-11-19T10:35:23Z</time>
      </trkpt>
      <trkpt lat="45.95794" lon="4.87627">
        <ele>282</ele>
        <time>2016-11-19T10:35:24Z</time>
      </trkpt>
      <trkpt lat="45.95789" lon="4.87618">
        <ele>282</ele>
        <time>2016-11-19T10:35:25Z</time>
      </trkpt>
      <trkpt lat="45.95785" lon="4.87609">
        <ele>282</ele>
        <time>2016-11-19T10:35:26Z</time>
      </trkpt>
      <trkpt lat="45.9578" lon="4.87599">
        <ele>282</ele>
        <time>2016-11-19T10:35:27Z</time>
      </trkpt>
      <trkpt lat="45.95775" lon="4.87589">
        <ele>281</ele>
        <time>2016-11-19T10:35:28Z</time>
      </trkpt>
      <trkpt lat="45.9577" lon="4.87579">
        <ele>281</ele>
        <time>2016-11-19T10:35:29Z</time>
      </trkpt>
      <trkpt lat="45.95765" lon="4.87568">
        <ele>281</ele>
        <time>2016-11-19T10:35:30Z</time>
      </trkpt>
      <trkpt lat="45.9576" lon="4.87558">
        <ele>281</ele>
        <time>2016-11-19T10:35:31Z</time>
      </trkpt>
      <trkpt lat="45.95755" lon="4.87548">
        <ele>281</ele>
        <time>2016-11-19T10:35:32Z</time>
      </trkpt>
      <trkpt lat="45.9575" lon="4.87537">
        <ele>277</ele>
        <time>2016-11-19T10:35:33Z</time>
      </trkpt>
      <trkpt lat="45.95745" lon="4.87526">
        <ele>277</ele>
        <time>2016-11-19T10:35:34Z</time>
      </trkpt>
      <trkpt lat="45.9574" lon="4.87516">
        <ele>277</ele>
        <time>2016-11-19T10:35:35Z</time>
      </trkpt>
      <trkpt lat="45.95735" lon="4.87505">
        <ele>277</ele>
        <time>2016-11-19T10:35:36Z</time>
      </trkpt>
      <trkpt lat="45.95729" lon="4.87494">
        <ele>277</ele>
        <time>2016-11-19T10:35:37Z</time>
      </trkpt>
      <trkpt lat="45.95724" lon="4.87484">
        <ele>276</ele>
        <time>2016-11-19T10:35:38Z</time>
      </trkpt>
      <trkpt lat="45.95719" lon="4.87474">
        <ele>276</ele>
        <time>2016-11-19T10:35:39Z</time>
      </trkpt>
      <trkpt lat="45.95714" lon="4.87464">
        <ele>276</ele>
        <time>2016-11-19T10:35:40Z</time>
      </trkpt>
      <trkpt lat="45.95709" lon="4.87454">
        <ele>276</ele>
        <time>2016-11-19T10:35:41Z</time>
      </trkpt>
      <trkpt lat="45.95704" lon="4.87444">
        <ele>275</ele>
        <time>2016-11-19T10:35:42Z</time>
      </trkpt>
      <trkpt lat="45.95699" lon="4.87435">
        <ele>275</ele>
        <time>2016-11-19T10:35:43Z</time>
      </trkpt>
      <trkpt lat="45.95695" lon="4.87425">
        <ele>275</ele>
        <time>2016-11-19T10:35:44Z</time>
      </trkpt>
      <trkpt lat="45.9569" lon="4.87416">
        <ele>275</ele>
        <time>2016-11-19T10:35:45Z</time>
      </trkpt>
      <trkpt lat="45.95686" lon="4.87406">
        <ele>274</ele>
        <time>2016-11-19T10:35:46Z</time>
      </trkpt>
      <trkpt lat="45.95682" lon="4.87397">
        <ele>274</ele>
        <time>2016-11-19T10:35:47Z</time>
      </trkpt>
      <trkpt lat="45.95678" lon="4.87388">
        <ele>274</ele>
        <time>2016-11-19T10:35:48Z</time>
      </trkpt>
      <trkpt lat="45.95674" lon="4.8738">
        <ele>274</ele>
        <time>2016-11-19T10:35:49Z</time>
      </trkpt>
      <trkpt lat="45.95669" lon="4.87372">
        <ele>274</ele>
        <time>2016-11-19T10:35:50Z</time>
      </trkpt>
      <trkpt lat="45.95665" lon="4.87364">
        <ele>272</ele>
        <time>2016-11-19T10:35:51Z</time>
      </trkpt>
      <trkpt lat="45.95661" lon="4.87356">
        <ele>272</ele>
        <time>2016-11-19T10:35:52Z</time>
      </trkpt>
      <trkpt lat="45.95658" lon="4.87348">
        <ele>272</ele>
        <time>2016-11-19T10:35:53Z</time>
      </trkpt>
      <trkpt lat="45.95654" lon="4.87341">
        <ele>272</ele>
        <time>2016-11-19T10:35:54Z</time>
      </trkpt>
      <trkpt lat="45.95651" lon="4.87333">
        <ele>272</ele>
        <time>2016-11-19T10:35:55Z</time>
      </trkpt>
      <trkpt lat="45.95647" lon="4.87325">
        <ele>272</ele>
        <time>2016-11-19T10:35:56Z</time>
      </trkpt>
      <trkpt lat="45.95643" lon="4.87317">
        <ele>272</ele>
        <time>2016-11-19T10:35:57Z</time>
      </trkpt>
      <trkpt lat="45.95639" lon="4.87309">
        <ele>272</ele>
        <time>2016-11-19T10:35:58Z</time>
      </trkpt>
      <trkpt lat="45.95635" lon="4.87301">
        <ele>272</ele>
        <time>2016-11-19T10:35:59Z</time>
      </trkpt>
      <trkpt lat="45.95631" lon="4.87292">
        <ele>272</ele>
        <time>2016-11-19T10:36:00Z</time>
      </trkpt>
      <trkpt lat="45.95627" lon="4.87284">
        <ele>272</ele>
        <time>2016-11-19T10:36:01Z</time>
      </trkpt>
      <trkpt lat="45.95623" lon="4.87275">
        <ele>272</ele>
        <time>2016-11-19T10:36:02Z</time>
      </trkpt>
      <trkpt lat="45.95618" lon="4.87266">
        <ele>272</ele>
        <time>2016-11-19T10:36:03Z</time>
      </trkpt>
      <trkpt lat="45.95614" lon="4.87257">
        <ele>272</ele>
        <time>2016-11-19T10:36:04Z</time>
      </trkpt>
      <trkpt lat="45.9561" lon="4.87248">
        <ele>272</ele>
        <time>2016-11-19T10:36:05Z</time>
      </trkpt>
      <trkpt lat="45.95605" lon="4.87239">
        <ele>272</ele>
        <time>2016-11-19T10:36:06Z</time>
      </trkpt>
      <trkpt lat="45.956" lon="4.87229">
        <ele>272</ele>
        <time>2016-11-19T10:36:07Z</time>
      </trkpt>
      <trkpt lat="45.95596" lon="4.8722">
        <ele>272</ele>
        <time>2016-11-19T10:36:08Z</time>
      </trkpt>
      <trkpt lat="45.95591" lon="4.8721">
        <ele>272</ele>
        <time>2016-11-19T10:36:09Z</time>
      </trkpt>
      <trkpt lat="45.95586" lon="4.872">
        <ele>272</ele>
        <time>2016-11-19T10:36:10Z</time>
      </trkpt>
      <trkpt lat="45.95581" lon="4.8719">
        <ele>270</ele>
        <time>2016-11-19T10:36:11Z</time>
      </trkpt>
      <trkpt lat="45.95576" lon="4.87181">
        <ele>271</ele>
        <time>2016-11-19T10:36:12Z</time>
      </trkpt>
      <trkpt lat="45.95572" lon="4.87171">
        <ele>271</ele>
        <time>2016-11-19T10:36:13Z</time>
      </trkpt>
      <trkpt lat="45.95567" lon="4.87162">
        <ele>270</ele>
        <time>2016-11-19T10:36:14Z</time>
      </trkpt>
      <trkpt lat="45.95563" lon="4.87152">
        <ele>270</ele>
        <time>2016-11-19T10:36:15Z</time>
      </trkpt>
      <trkpt lat="45.95558" lon="4.87143">
        <ele>270</ele>
        <time>2016-11-19T10:36:16Z</time>
      </trkpt>
      <trkpt lat="45.95554" lon="4.87134">
        <ele>270</ele>
        <time>2016-11-19T10:36:17Z</time>
      </trkpt>
      <trkpt lat="45.95549" lon="4.87126">
        <ele>270</ele>
        <time>2016-11-19T10:36:18Z</time>
      </trkpt>
      <trkpt lat="45.95545" lon="4.87117">
        <ele>269</ele>
        <time>2016-11-19T10:36:19Z</time>
      </trkpt>
      <trkpt lat="45.95541" lon="4.87109">
        <ele>269</ele>
        <time>2016-11-19T10:36:20Z</time>
      </trkpt>
      <trkpt lat="45.95537" lon="4.87101">
        <ele>269</ele>
        <time>2016-11-19T10:36:21Z</time>
      </trkpt>
      <trkpt lat="45.95533" lon="4.87092">
        <ele>269</ele>
        <time>2016-11-19T10:36:22Z</time>
      </trkpt>
      <trkpt lat="45.95529" lon="4.87085">
        <ele>269</ele>
        <time>2016-11-19T10:36:23Z</time>
      </trkpt>
      <trkpt lat="45.95525" lon="4.87077">
        <ele>268</ele>
        <time>2016-11-19T10:36:24Z</time>
      </trkpt>
      <trkpt lat="45.95522" lon="4.87069">
        <ele>268</ele>
        <time>2016-11-19T10:36:25Z</time>
      </trkpt>
      <trkpt lat="45.95519" lon="4.87061">
        <ele>268</ele>
        <time>2016-11-19T10:36:26Z</time>
      </trkpt>
      <trkpt lat="45.95516" lon="4.87054">
        <ele>268</ele>
        <time>2016-11-19T10:36:27Z</time>
      </trkpt>
      <trkpt lat="45.95513" lon="4.87047">
        <ele>268</ele>
        <time>2016-11-19T10:36:28Z</time>
      </trkpt>
      <trkpt lat="45.95509" lon="4.8704">
        <ele>268</ele>
        <time>2016-11-19T10:36:29Z</time>
      </trkpt>
      <trkpt lat="45.95506" lon="4.87033">
        <ele>268</ele>
        <time>2016-11-19T10:36:30Z</time>
      </trkpt>
      <trkpt lat="45.95502" lon="4.87025">
        <ele>268</ele>
        <time>2016-11-19T10:36:31Z</time>
      </trkpt>
      <trkpt lat="45.95498" lon="4.87018">
        <ele>268</ele>
        <time>2016-11-19T10:36:32Z</time>
      </trkpt>
      <trkpt lat="45.95494" lon="4.8701">
        <ele>268</ele>
        <time>2016-11-19T10:36:33Z</time>
      </trkpt>
      <trkpt lat="45.9549" lon="4.87003">
        <ele>268</ele>
        <time>2016-11-19T10:36:34Z</time>
      </trkpt>
      <trkpt lat="45.95486" lon="4.86996">
        <ele>268</ele>
        <time>2016-11-19T10:36:35Z</time>
      </trkpt>
      <trkpt lat="45.95484" lon="4.86988">
        <ele>268</ele>
        <time>2016-11-19T10:36:36Z</time>
      </trkpt>
      <trkpt lat="45.9548" lon="4.8698">
        <ele>268</ele>
        <time>2016-11-19T10:36:37Z</time>
      </trkpt>
      <trkpt lat="45.95477" lon="4.86972">
        <ele>268</ele>
        <time>2016-11-19T10:36:38Z</time>
      </trkpt>
      <trkpt lat="45.95473" lon="4.86965">
        <ele>268</ele>
        <time>2016-11-19T10:36:39Z</time>
      </trkpt>
      <trkpt lat="45.95469" lon="4.86959">
        <ele>268</ele>
        <time>2016-11-19T10:36:40Z</time>
      </trkpt>
      <trkpt lat="45.95465" lon="4.86952">
        <ele>268</ele>
        <time>2016-11-19T10:36:41Z</time>
      </trkpt>
      <trkpt lat="45.95461" lon="4.86945">
        <ele>268</ele>
        <time>2016-11-19T10:36:42Z</time>
      </trkpt>
      <trkpt lat="45.95457" lon="4.86938">
        <ele>268</ele>
        <time>2016-11-19T10:36:43Z</time>
      </trkpt>
      <trkpt lat="45.95453" lon="4.86931">
        <ele>268</ele>
        <time>2016-11-19T10:36:44Z</time>
      </trkpt>
      <trkpt lat="45.9545" lon="4.86924">
        <ele>268</ele>
        <time>2016-11-19T10:36:45Z</time>
      </trkpt>
      <trkpt lat="45.95446" lon="4.86917">
        <ele>269</ele>
        <time>2016-11-19T10:36:46Z</time>
      </trkpt>
      <trkpt lat="45.95443" lon="4.8691">
        <ele>268</ele>
        <time>2016-11-19T10:36:47Z</time>
      </trkpt>
      <trkpt lat="45.95439" lon="4.86903">
        <ele>268</ele>
        <time>2016-11-19T10:36:48Z</time>
      </trkpt>
      <trkpt lat="45.95435" lon="4.86895">
        <ele>268</ele>
        <time>2016-11-19T10:36:49Z</time>
      </trkpt>
      <trkpt lat="45.95431" lon="4.86887">
        <ele>268</ele>
        <time>2016-11-19T10:36:50Z</time>
      </trkpt>
      <trkpt lat="45.95427" lon="4.86879">
        <ele>268</ele>
        <time>2016-11-19T10:36:51Z</time>
      </trkpt>
      <trkpt lat="45.95423" lon="4.86872">
        <ele>268</ele>
        <time>2016-11-19T10:36:52Z</time>
      </trkpt>
      <trkpt lat="45.95419" lon="4.86863">
        <ele>268</ele>
        <time>2016-11-19T10:36:53Z</time>
      </trkpt>
      <trkpt lat="45.95415" lon="4.86855">
        <ele>269</ele>
        <time>2016-11-19T10:36:54Z</time>
      </trkpt>
      <trkpt lat="45.95411" lon="4.86846">
        <ele>268</ele>
        <time>2016-11-19T10:36:55Z</time>
      </trkpt>
      <trkpt lat="45.95408" lon="4.86837">
        <ele>268</ele>
        <time>2016-11-19T10:36:56Z</time>
      </trkpt>
      <trkpt lat="45.95404" lon="4.86828">
        <ele>268</ele>
        <time>2016-11-19T10:36:57Z</time>
      </trkpt>
      <trkpt lat="45.954" lon="4.8682">
        <ele>268</ele>
        <time>2016-11-19T10:36:58Z</time>
      </trkpt>
      <trkpt lat="45.95396" lon="4.86812">
        <ele>268</ele>
        <time>2016-11-19T10:36:59Z</time>
      </trkpt>
      <trkpt lat="45.95392" lon="4.86805">
        <ele>268</ele>
        <time>2016-11-19T10:37:00Z</time>
      </trkpt>
      <trkpt lat="45.95388" lon="4.86797">
        <ele>268</ele>
        <time>2016-11-19T10:37:01Z</time>
      </trkpt>
      <trkpt lat="45.95385" lon="4.8679">
        <ele>268</ele>
        <time>2016-11-19T10:37:02Z</time>
      </trkpt>
      <trkpt lat="45.95381" lon="4.86783">
        <ele>268</ele>
        <time>2016-11-19T10:37:03Z</time>
      </trkpt>
      <trkpt lat="45.95378" lon="4.86776">
        <ele>268</ele>
        <time>2016-11-19T10:37:04Z</time>
      </trkpt>
      <trkpt lat="45.95375" lon="4.86768">
        <ele>268</ele>
        <time>2016-11-19T10:37:05Z</time>
      </trkpt>
      <trkpt lat="45.95372" lon="4.86761">
        <ele>268</ele>
        <time>2016-11-19T10:37:06Z</time>
      </trkpt>
      <trkpt lat="45.95369" lon="4.86755">
        <ele>268</ele>
        <time>2016-11-19T10:37:07Z</time>
      </trkpt>
      <trkpt lat="45.95366" lon="4.86748">
        <ele>268</ele>
        <time>2016-11-19T10:37:08Z</time>
      </trkpt>
      <trkpt lat="45.95362" lon="4.86741">
        <ele>268</ele>
        <time>2016-11-19T10:37:09Z</time>
      </trkpt>
      <trkpt lat="45.95359" lon="4.86734">
        <ele>268</ele>
        <time>2016-11-19T10:37:10Z</time>
      </trkpt>
      <trkpt lat="45.95355" lon="4.86727">
        <ele>268</ele>
        <time>2016-11-19T10:37:11Z</time>
      </trkpt>
      <trkpt lat="45.95352" lon="4.8672">
        <ele>268</ele>
        <time>2016-11-19T10:37:12Z</time>
      </trkpt>
      <trkpt lat="45.95348" lon="4.86713">
        <ele>268</ele>
        <time>2016-11-19T10:37:13Z</time>
      </trkpt>
      <trkpt lat="45.95345" lon="4.86705">
        <ele>268</ele>
        <time>2016-11-19T10:37:14Z</time>
      </trkpt>
      <trkpt lat="45.95341" lon="4.86698">
        <ele>268</ele>
        <time>2016-11-19T10:37:15Z</time>
      </trkpt>
      <trkpt lat="45.95338" lon="4.86691">
        <ele>268</ele>
        <time>2016-11-19T10:37:16Z</time>
      </trkpt>
      <trkpt lat="45.95334" lon="4.86684">
        <ele>268</ele>
        <time>2016-11-19T10:37:17Z</time>
      </trkpt>
      <trkpt lat="45.9533" lon="4.86676">
        <ele>268</ele>
        <time>2016-11-19T10:37:18Z</time>
      </trkpt>
      <trkpt lat="45.95327" lon="4.86669">
        <ele>268</ele>
        <time>2016-11-19T10:37:19Z</time>
      </trkpt>
      <trkpt lat="45.95323" lon="4.86662">
        <ele>268</ele>
        <time>2016-11-19T10:37:20Z</time>
      </trkpt>
      <trkpt lat="45.95319" lon="4.86656">
        <ele>268</ele>
        <time>2016-11-19T10:37:21Z</time>
      </trkpt>
      <trkpt lat="45.95316" lon="4.86649">
        <ele>268</ele>
        <time>2016-11-19T10:37:22Z</time>
      </trkpt>
      <trkpt lat="45.95312" lon="4.86642">
        <ele>268</ele>
        <time>2016-11-19T10:37:23Z</time>
      </trkpt>
      <trkpt lat="45.95309" lon="4.86636">
        <ele>268</ele>
        <time>2016-11-19T10:37:24Z</time>
      </trkpt>
      <trkpt lat="45.95305" lon="4.86629">
        <ele>268</ele>
        <time>2016-11-19T10:37:25Z</time>
      </trkpt>
      <trkpt lat="45.95301" lon="4.86622">
        <ele>268</ele>
        <time>2016-11-19T10:37:26Z</time>
      </trkpt>
      <trkpt lat="45.95298" lon="4.86614">
        <ele>268</ele>
        <time>2016-11-19T10:37:27Z</time>
      </trkpt>
      <trkpt lat="45.95294" lon="4.86607">
        <ele>268</ele>
        <time>2016-11-19T10:37:28Z</time>
      </trkpt>
      <trkpt lat="45.9529" lon="4.86599">
        <ele>268</ele>
        <time>2016-11-19T10:37:29Z</time>
      </trkpt>
      <trkpt lat="45.95286" lon="4.86592">
        <ele>268</ele>
        <time>2016-11-19T10:37:30Z</time>
      </trkpt>
      <trkpt lat="45.95281" lon="4.86584">
        <ele>268</ele>
        <time>2016-11-19T10:37:31Z</time>
      </trkpt>
      <trkpt lat="45.95276" lon="4.86576">
        <ele>267</ele>
        <time>2016-11-19T10:37:32Z</time>
      </trkpt>
      <trkpt lat="45.95271" lon="4.86569">
        <ele>267</ele>
        <time>2016-11-19T10:37:33Z</time>
      </trkpt>
      <trkpt lat="45.95266" lon="4.86561">
        <ele>267</ele>
        <time>2016-11-19T10:37:34Z</time>
      </trkpt>
      <trkpt lat="45.95262" lon="4.86554">
        <ele>267</ele>
        <time>2016-11-19T10:37:35Z</time>
      </trkpt>
      <trkpt lat="45.95256" lon="4.86546">
        <ele>267</ele>
        <time>2016-11-19T10:37:36Z</time>
      </trkpt>
      <trkpt lat="45.9525" lon="4.86538">
        <ele>267</ele>
        <time>2016-11-19T10:37:37Z</time>
      </trkpt>
      <trkpt lat="45.95245" lon="4.86529">
        <ele>268</ele>
        <time>2016-11-19T10:37:38Z</time>
      </trkpt>
      <trkpt lat="45.95239" lon="4.86524">
        <ele>268</ele>
        <time>2016-11-19T10:37:39Z</time>
      </trkpt>
      <trkpt lat="45.95234" lon="4.86518">
        <ele>268</ele>
        <time>2016-11-19T10:37:40Z</time>
      </trkpt>
      <trkpt lat="45.95232" lon="4.86514">
        <ele>268</ele>
        <time>2016-11-19T10:37:41Z</time>
      </trkpt>
      <trkpt lat="45.95228" lon="4.86508">
        <ele>268</ele>
        <time>2016-11-19T10:37:42Z</time>
      </trkpt>
      <trkpt lat="45.95224" lon="4.86503">
        <ele>268</ele>
        <time>2016-11-19T10:37:43Z</time>
      </trkpt>
      <trkpt lat="45.95219" lon="4.86497">
        <ele>268</ele>
        <time>2016-11-19T10:37:44Z</time>
      </trkpt>
      <trkpt lat="45.95214" lon="4.86491">
        <ele>268</ele>
        <time>2016-11-19T10:37:45Z</time>
      </trkpt>
      <trkpt lat="45.95209" lon="4.86486">
        <ele>268</ele>
        <time>2016-11-19T10:37:46Z</time>
      </trkpt>
      <trkpt lat="45.95204" lon="4.86481">
        <ele>268</ele>
        <time>2016-11-19T10:37:47Z</time>
      </trkpt>
      <trkpt lat="45.952" lon="4.86476">
        <ele>268</ele>
        <time>2016-11-19T10:37:48Z</time>
      </trkpt>
      <trkpt lat="45.95195" lon="4.8647">
        <ele>268</ele>
        <time>2016-11-19T10:37:49Z</time>
      </trkpt>
      <trkpt lat="45.95191" lon="4.86465">
        <ele>268</ele>
        <time>2016-11-19T10:37:50Z</time>
      </trkpt>
      <trkpt lat="45.95187" lon="4.8646">
        <ele>268</ele>
        <time>2016-11-19T10:37:51Z</time>
      </trkpt>
      <trkpt lat="45.95182" lon="4.86454">
        <ele>268</ele>
        <time>2016-11-19T10:37:52Z</time>
      </trkpt>
      <trkpt lat="45.95178" lon="4.8645">
        <ele>268</ele>
        <time>2016-11-19T10:37:53Z</time>
      </trkpt>
      <trkpt lat="45.95173" lon="4.86446">
        <ele>267</ele>
        <time>2016-11-19T10:37:54Z</time>
      </trkpt>
      <trkpt lat="45.95169" lon="4.86441">
        <ele>267</ele>
        <time>2016-11-19T10:37:55Z</time>
      </trkpt>
      <trkpt lat="45.95164" lon="4.86437">
        <ele>268</ele>
        <time>2016-11-19T10:37:56Z</time>
      </trkpt>
      <trkpt lat="45.9516" lon="4.86432">
        <ele>268</ele>
        <time>2016-11-19T10:37:57Z</time>
      </trkpt>
      <trkpt lat="45.95156" lon="4.86426">
        <ele>268</ele>
        <time>2016-11-19T10:37:58Z</time>
      </trkpt>
      <trkpt lat="45.95152" lon="4.86421">
        <ele>268</ele>
        <time>2016-11-19T10:37:59Z</time>
      </trkpt>
      <trkpt lat="45.95148" lon="4.86417">
        <ele>268</ele>
        <time>2016-11-19T10:38:00Z</time>
      </trkpt>
      <trkpt lat="45.95144" lon="4.86412">
        <ele>268</ele>
        <time>2016-11-19T10:38:01Z</time>
      </trkpt>
      <trkpt lat="45.95139" lon="4.86407">
        <ele>268</ele>
        <time>2016-11-19T10:38:02Z</time>
      </trkpt>
      <trkpt lat="45.95135" lon="4.86402">
        <ele>268</ele>
        <time>2016-11-19T10:38:03Z</time>
      </trkpt>
      <trkpt lat="45.95131" lon="4.86397">
        <ele>268</ele>
        <time>2016-11-19T10:38:04Z</time>
      </trkpt>
      <trkpt lat="45.95127" lon="4.86392">
        <ele>268</ele>
        <time>2016-11-19T10:38:05Z</time>
      </trkpt>
      <trkpt lat="45.95123" lon="4.86387">
        <ele>269</ele>
        <time>2016-11-19T10:38:06Z</time>
      </trkpt>
      <trkpt lat="45.95119" lon="4.86382">
        <ele>269</ele>
        <time>2016-11-19T10:38:07Z</time>
      </trkpt>
      <trkpt lat="45.95115" lon="4.86378">
        <ele>269</ele>
        <time>2016-11-19T10:38:08Z</time>
      </trkpt>
      <trkpt lat="45.95111" lon="4.86373">
        <ele>269</ele>
        <time>2016-11-19T10:38:09Z</time>
      </trkpt>
      <trkpt lat="45.95107" lon="4.86368">
        <ele>269</ele>
        <time>2016-11-19T10:38:10Z</time>
      </trkpt>
      <trkpt lat="45.95103" lon="4.86363">
        <ele>269</ele>
        <time>2016-11-19T10:38:11Z</time>
      </trkpt>
      <trkpt lat="45.95099" lon="4.86358">
        <ele>269</ele>
        <time>2016-11-19T10:38:12Z</time>
      </trkpt>
      <trkpt lat="45.95095" lon="4.86354">
        <ele>269</ele>
        <time>2016-11-19T10:38:13Z</time>
      </trkpt>
      <trkpt lat="45.95091" lon="4.86349">
        <ele>269</ele>
        <time>2016-11-19T10:38:14Z</time>
      </trkpt>
      <trkpt lat="45.95087" lon="4.86343">
        <ele>269</ele>
        <time>2016-11-19T10:38:15Z</time>
      </trkpt>
      <trkpt lat="45.95083" lon="4.86338">
        <ele>269</ele>
        <time>2016-11-19T10:38:16Z</time>
      </trkpt>
      <trkpt lat="45.95079" lon="4.86333">
        <ele>269</ele>
        <time>2016-11-19T10:38:17Z</time>
      </trkpt>
      <trkpt lat="45.95075" lon="4.86328">
        <ele>270</ele>
        <time>2016-11-19T10:38:18Z</time>
      </trkpt>
      <trkpt lat="45.95071" lon="4.86323">
        <ele>270</ele>
        <time>2016-11-19T10:38:19Z</time>
      </trkpt>
      <trkpt lat="45.95067" lon="4.86318">
        <ele>270</ele>
        <time>2016-11-19T10:38:20Z</time>
      </trkpt>
      <trkpt lat="45.95063" lon="4.86313">
        <ele>270</ele>
        <time>2016-11-19T10:38:21Z</time>
      </trkpt>
      <trkpt lat="45.9506" lon="4.86308">
        <ele>271</ele>
        <time>2016-11-19T10:38:22Z</time>
      </trkpt>
      <trkpt lat="45.95056" lon="4.86302">
        <ele>271</ele>
        <time>2016-11-19T10:38:23Z</time>
      </trkpt>
      <trkpt lat="45.95051" lon="4.86297">
        <ele>271</ele>
        <time>2016-11-19T10:38:24Z</time>
      </trkpt>
      <trkpt lat="45.95047" lon="4.86292">
        <ele>271</ele>
        <time>2016-11-19T10:38:25Z</time>
      </trkpt>
      <trkpt lat="45.95043" lon="4.86287">
        <ele>271</ele>
        <time>2016-11-19T10:38:26Z</time>
      </trkpt>
      <trkpt lat="45.95038" lon="4.86282">
        <ele>271</ele>
        <time>2016-11-19T10:38:27Z</time>
      </trkpt>
      <trkpt lat="45.95034" lon="4.86277">
        <ele>271</ele>
        <time>2016-11-19T10:38:28Z</time>
      </trkpt>
      <trkpt lat="45.9503" lon="4.86272">
        <ele>271</ele>
        <time>2016-11-19T10:38:29Z</time>
      </trkpt>
      <trkpt lat="45.95026" lon="4.86267">
        <ele>271</ele>
        <time>2016-11-19T10:38:30Z</time>
      </trkpt>
      <trkpt lat="45.95022" lon="4.86262">
        <ele>271</ele>
        <time>2016-11-19T10:38:31Z</time>
      </trkpt>
      <trkpt lat="45.95018" lon="4.86257">
        <ele>271</ele>
        <time>2016-11-19T10:38:32Z</time>
      </trkpt>
      <trkpt lat="45.95014" lon="4.86252">
        <ele>272</ele>
        <time>2016-11-19T10:38:33Z</time>
      </trkpt>
      <trkpt lat="45.9501" lon="4.86247">
        <ele>272</ele>
        <time>2016-11-19T10:38:34Z</time>
      </trkpt>
      <trkpt lat="45.95006" lon="4.86242">
        <ele>272</ele>
        <time>2016-11-19T10:38:35Z</time>
      </trkpt>
      <trkpt lat="45.95002" lon="4.86236">
        <ele>272</ele>
        <time>2016-11-19T10:38:36Z</time>
      </trkpt>
      <trkpt lat="45.94998" lon="4.86231">
        <ele>272</ele>
        <time>2016-11-19T10:38:37Z</time>
      </trkpt>
      <trkpt lat="45.94995" lon="4.86226">
        <ele>272</ele>
        <time>2016-11-19T10:38:38Z</time>
      </trkpt>
      <trkpt lat="45.94991" lon="4.86221">
        <ele>272</ele>
        <time>2016-11-19T10:38:39Z</time>
      </trkpt>
      <trkpt lat="45.94987" lon="4.86215">
        <ele>272</ele>
        <time>2016-11-19T10:38:40Z</time>
      </trkpt>
      <trkpt lat="45.94983" lon="4.86209">
        <ele>272</ele>
        <time>2016-11-19T10:38:41Z</time>
      </trkpt>
      <trkpt lat="45.94979" lon="4.86204">
        <ele>272</ele>
        <time>2016-11-19T10:38:42Z</time>
      </trkpt>
      <trkpt lat="45.94975" lon="4.86199">
        <ele>272</ele>
        <time>2016-11-19T10:38:43Z</time>
      </trkpt>
      <trkpt lat="45.94971" lon="4.86194">
        <ele>272</ele>
        <time>2016-11-19T10:38:44Z</time>
      </trkpt>
      <trkpt lat="45.94966" lon="4.86189">
        <ele>272</ele>
        <time>2016-11-19T10:38:45Z</time>
      </trkpt>
      <trkpt lat="45.94962" lon="4.86185">
        <ele>272</ele>
        <time>2016-11-19T10:38:46Z</time>
      </trkpt>
      <trkpt lat="45.94958" lon="4.8618">
        <ele>273</ele>
        <time>2016-11-19T10:38:47Z</time>
      </trkpt>
      <trkpt lat="45.94954" lon="4.86175">
        <ele>273</ele>
        <time>2016-11-19T10:38:48Z</time>
      </trkpt>
      <trkpt lat="45.9495" lon="4.86171">
        <ele>273</ele>
        <time>2016-11-19T10:38:49Z</time>
      </trkpt>
      <trkpt lat="45.94946" lon="4.86166">
        <ele>273</ele>
        <time>2016-11-19T10:38:50Z</time>
      </trkpt>
      <trkpt lat="45.94943" lon="4.86161">
        <ele>273</ele>
        <time>2016-11-19T10:38:51Z</time>
      </trkpt>
      <trkpt lat="45.94939" lon="4.86156">
        <ele>273</ele>
        <time>2016-11-19T10:38:52Z</time>
      </trkpt>
      <trkpt lat="45.94935" lon="4.86152">
        <ele>273</ele>
        <time>2016-11-19T10:38:53Z</time>
      </trkpt>
      <trkpt lat="45.94932" lon="4.86148">
        <ele>273</ele>
        <time>2016-11-19T10:38:54Z</time>
      </trkpt>
      <trkpt lat="45.94928" lon="4.86143">
        <ele>273</ele>
        <time>2016-11-19T10:38:55Z</time>
      </trkpt>
      <trkpt lat="45.94925" lon="4.86138">
        <ele>273</ele>
        <time>2016-11-19T10:38:56Z</time>
      </trkpt>
      <trkpt lat="45.94921" lon="4.86133">
        <ele>273</ele>
        <time>2016-11-19T10:38:57Z</time>
      </trkpt>
      <trkpt lat="45.94918" lon="4.86128">
        <ele>273</ele>
        <time>2016-11-19T10:38:58Z</time>
      </trkpt>
      <trkpt lat="45.94915" lon="4.86123">
        <ele>274</ele>
        <time>2016-11-19T10:38:59Z</time>
      </trkpt>
      <trkpt lat="45.94912" lon="4.86118">
        <ele>274</ele>
        <time>2016-11-19T10:39:00Z</time>
      </trkpt>
      <trkpt lat="45.94909" lon="4.86112">
        <ele>274</ele>
        <time>2016-11-19T10:39:01Z</time>
      </trkpt>
      <trkpt lat="45.94907" lon="4.86106">
        <ele>274</ele>
        <time>2016-11-19T10:39:02Z</time>
      </trkpt>
      <trkpt lat="45.94905" lon="4.861">
        <ele>274</ele>
        <time>2016-11-19T10:39:03Z</time>
      </trkpt>
      <trkpt lat="45.94902" lon="4.86094">
        <ele>274</ele>
        <time>2016-11-19T10:39:04Z</time>
      </trkpt>
      <trkpt lat="45.949" lon="4.86088">
        <ele>274</ele>
        <time>2016-11-19T10:39:05Z</time>
      </trkpt>
      <trkpt lat="45.94898" lon="4.86082">
        <ele>274</ele>
        <time>2016-11-19T10:39:06Z</time>
      </trkpt>
      <trkpt lat="45.94896" lon="4.86076">
        <ele>274</ele>
        <time>2016-11-19T10:39:07Z</time>
      </trkpt>
      <trkpt lat="45.94894" lon="4.8607">
        <ele>274</ele>
        <time>2016-11-19T10:39:08Z</time>
      </trkpt>
      <trkpt lat="45.94892" lon="4.86064">
        <ele>274</ele>
        <time>2016-11-19T10:39:09Z</time>
      </trkpt>
      <trkpt lat="45.9489" lon="4.86057">
        <ele>274</ele>
        <time>2016-11-19T10:39:10Z</time>
      </trkpt>
      <trkpt lat="45.94889" lon="4.86051">
        <ele>274</ele>
        <time>2016-11-19T10:39:11Z</time>
      </trkpt>
      <trkpt lat="45.94887" lon="4.86045">
        <ele>274</ele>
        <time>2016-11-19T10:39:12Z</time>
      </trkpt>
      <trkpt lat="45.94886" lon="4.86038">
        <ele>274</ele>
        <time>2016-11-19T10:39:13Z</time>
      </trkpt>
      <trkpt lat="45.94884" lon="4.86032">
        <ele>274</ele>
        <time>2016-11-19T10:39:14Z</time>
      </trkpt>
      <trkpt lat="45.94883" lon="4.86026">
        <ele>274</ele>
        <time>2016-11-19T10:39:15Z</time>
      </trkpt>
      <trkpt lat="45.94881" lon="4.8602">
        <ele>274</ele>
        <time>2016-11-19T10:39:16Z</time>
      </trkpt>
      <trkpt lat="45.9488" lon="4.86013">
        <ele>274</ele>
        <time>2016-11-19T10:39:17Z</time>
      </trkpt>
      <trkpt lat="45.94878" lon="4.86007">
        <ele>274</ele>
        <time>2016-11-19T10:39:18Z</time>
      </trkpt>
      <trkpt lat="45.94876" lon="4.86">
        <ele>274</ele>
        <time>2016-11-19T10:39:19Z</time>
      </trkpt>
      <trkpt lat="45.94874" lon="4.85994">
        <ele>275</ele>
        <time>2016-11-19T10:39:20Z</time>
      </trkpt>
      <trkpt lat="45.94872" lon="4.85987">
        <ele>275</ele>
        <time>2016-11-19T10:39:21Z</time>
      </trkpt>
      <trkpt lat="45.94871" lon="4.8598">
        <ele>275</ele>
        <time>2016-11-19T10:39:22Z</time>
      </trkpt>
      <trkpt lat="45.94869" lon="4.85974">
        <ele>275</ele>
        <time>2016-11-19T10:39:23Z</time>
      </trkpt>
      <trkpt lat="45.94867" lon="4.85967">
        <ele>275</ele>
        <time>2016-11-19T10:39:24Z</time>
      </trkpt>
      <trkpt lat="45.94866" lon="4.8596">
        <ele>275</ele>
        <time>2016-11-19T10:39:25Z</time>
      </trkpt>
      <trkpt lat="45.94864" lon="4.85954">
        <ele>275</ele>
        <time>2016-11-19T10:39:26Z</time>
      </trkpt>
      <trkpt lat="45.94863" lon="4.85947">
        <ele>275</ele>
        <time>2016-11-19T10:39:27Z</time>
      </trkpt>
      <trkpt lat="45.94861" lon="4.8594">
        <ele>275</ele>
        <time>2016-11-19T10:39:28Z</time>
      </trkpt>
      <trkpt lat="45.94859" lon="4.85934">
        <ele>275</ele>
        <time>2016-11-19T10:39:29Z</time>
      </trkpt>
      <trkpt lat="45.94857" lon="4.85927">
        <ele>275</ele>
        <time>2016-11-19T10:39:30Z</time>
      </trkpt>
      <trkpt lat="45.94855" lon="4.85921">
        <ele>275</ele>
        <time>2016-11-19T10:39:31Z</time>
      </trkpt>
      <trkpt lat="45.94853" lon="4.85914">
        <ele>275</ele>
        <time>2016-11-19T10:39:32Z</time>
      </trkpt>
      <trkpt lat="45.94852" lon="4.85908">
        <ele>276</ele>
        <time>2016-11-19T10:39:33Z</time>
      </trkpt>
      <trkpt lat="45.9485" lon="4.85901">
        <ele>276</ele>
        <time>2016-11-19T10:39:34Z</time>
      </trkpt>
      <trkpt lat="45.94848" lon="4.85895">
        <ele>276</ele>
        <time>2016-11-19T10:39:35Z</time>
      </trkpt>
      <trkpt lat="45.94846" lon="4.85888">
        <ele>276</ele>
        <time>2016-11-19T10:39:36Z</time>
      </trkpt>
      <trkpt lat="45.94845" lon="4.85882">
        <ele>276</ele>
        <time>2016-11-19T10:39:37Z</time>
      </trkpt>
      <trkpt lat="45.94843" lon="4.85875">
        <ele>276</ele>
        <time>2016-11-19T10:39:38Z</time>
      </trkpt>
      <trkpt lat="45.94841" lon="4.85869">
        <ele>276</ele>
        <time>2016-11-19T10:39:39Z</time>
      </trkpt>
      <trkpt lat="45.94839" lon="4.85862">
        <ele>276</ele>
        <time>2016-11-19T10:39:40Z</time>
      </trkpt>
      <trkpt lat="45.94838" lon="4.85856">
        <ele>276</ele>
        <time>2016-11-19T10:39:41Z</time>
      </trkpt>
      <trkpt lat="45.94836" lon="4.85849">
        <ele>277</ele>
        <time>2016-11-19T10:39:42Z</time>
      </trkpt>
      <trkpt lat="45.94835" lon="4.85842">
        <ele>277</ele>
        <time>2016-11-19T10:39:43Z</time>
      </trkpt>
      <trkpt lat="45.94833" lon="4.85834">
        <ele>277</ele>
        <time>2016-11-19T10:39:44Z</time>
      </trkpt>
      <trkpt lat="45.94831" lon="4.85826">
        <ele>277</ele>
        <time>2016-11-19T10:39:45Z</time>
      </trkpt>
      <trkpt lat="45.94829" lon="4.85818">
        <ele>278</ele>
        <time>2016-11-19T10:39:46Z</time>
      </trkpt>
      <trkpt lat="45.94827" lon="4.8581">
        <ele>278</ele>
        <time>2016-11-19T10:39:47Z</time>
      </trkpt>
      <trkpt lat="45.94825" lon="4.85802">
        <ele>278</ele>
        <time>2016-11-19T10:39:48Z</time>
      </trkpt>
      <trkpt lat="45.94823" lon="4.85794">
        <ele>278</ele>
        <time>2016-11-19T10:39:49Z</time>
      </trkpt>
      <trkpt lat="45.94821" lon="4.85786">
        <ele>278</ele>
        <time>2016-11-19T10:39:50Z</time>
      </trkpt>
      <trkpt lat="45.94819" lon="4.85778">
        <ele>278</ele>
        <time>2016-11-19T10:39:51Z</time>
      </trkpt>
      <trkpt lat="45.94816" lon="4.8577">
        <ele>278</ele>
        <time>2016-11-19T10:39:52Z</time>
      </trkpt>
      <trkpt lat="45.94814" lon="4.85762">
        <ele>278</ele>
        <time>2016-11-19T10:39:53Z</time>
      </trkpt>
      <trkpt lat="45.94812" lon="4.85754">
        <ele>278</ele>
        <time>2016-11-19T10:39:54Z</time>
      </trkpt>
      <trkpt lat="45.9481" lon="4.85746">
        <ele>279</ele>
        <time>2016-11-19T10:39:55Z</time>
      </trkpt>
      <trkpt lat="45.94808" lon="4.85738">
        <ele>279</ele>
        <time>2016-11-19T10:39:56Z</time>
      </trkpt>
      <trkpt lat="45.94806" lon="4.8573">
        <ele>280</ele>
        <time>2016-11-19T10:39:57Z</time>
      </trkpt>
      <trkpt lat="45.94804" lon="4.85721">
        <ele>280</ele>
        <time>2016-11-19T10:39:58Z</time>
      </trkpt>
      <trkpt lat="45.94802" lon="4.85713">
        <ele>280</ele>
        <time>2016-11-19T10:39:59Z</time>
      </trkpt>
      <trkpt lat="45.948" lon="4.85706">
        <ele>280</ele>
        <time>2016-11-19T10:40:00Z</time>
      </trkpt>
      <trkpt lat="45.94798" lon="4.85698">
        <ele>280</ele>
        <time>2016-11-19T10:40:01Z</time>
      </trkpt>
      <trkpt lat="45.94796" lon="4.85691">
        <ele>280</ele>
        <time>2016-11-19T10:40:02Z</time>
      </trkpt>
      <trkpt lat="45.94794" lon="4.85684">
        <ele>280</ele>
        <time>2016-11-19T10:40:03Z</time>
      </trkpt>
      <trkpt lat="45.94793" lon="4.85677">
        <ele>280</ele>
        <time>2016-11-19T10:40:04Z</time>
      </trkpt>
      <trkpt lat="45.94791" lon="4.8567">
        <ele>280</ele>
        <time>2016-11-19T10:40:05Z</time>
      </trkpt>
      <trkpt lat="45.94789" lon="4.85663">
        <ele>281</ele>
        <time>2016-11-19T10:40:06Z</time>
      </trkpt>
      <trkpt lat="45.94788" lon="4.85657">
        <ele>281</ele>
        <time>2016-11-19T10:40:07Z</time>
      </trkpt>
      <trkpt lat="45.94786" lon="4.8565">
        <ele>281</ele>
        <time>2016-11-19T10:40:08Z</time>
      </trkpt>
      <trkpt lat="45.94784" lon="4.85642">
        <ele>281</ele>
        <time>2016-11-19T10:40:09Z</time>
      </trkpt>
      <trkpt lat="45.94783" lon="4.85635">
        <ele>281</ele>
        <time>2016-11-19T10:40:10Z</time>
      </trkpt>
      <trkpt lat="45.94781" lon="4.85627">
        <ele>280</ele>
        <time>2016-11-19T10:40:11Z</time>
      </trkpt>
      <trkpt lat="45.94779" lon="4.85618">
        <ele>280</ele>
        <time>2016-11-19T10:40:12Z</time>
      </trkpt>
      <trkpt lat="45.94777" lon="4.85609">
        <ele>280</ele>
        <time>2016-11-19T10:40:13Z</time>
      </trkpt>
      <trkpt lat="45.94775" lon="4.856">
        <ele>280</ele>
        <time>2016-11-19T10:40:14Z</time>
      </trkpt>
      <trkpt lat="45.94773" lon="4.8559">
        <ele>280</ele>
        <time>2016-11-19T10:40:15Z</time>
      </trkpt>
      <trkpt lat="45.94771" lon="4.85581">
        <ele>279</ele>
        <time>2016-11-19T10:40:16Z</time>
      </trkpt>
      <trkpt lat="45.94769" lon="4.85571">
        <ele>279</ele>
        <time>2016-11-19T10:40:17Z</time>
      </trkpt>
      <trkpt lat="45.94767" lon="4.85561">
        <ele>278</ele>
        <time>2016-11-19T10:40:18Z</time>
      </trkpt>
      <trkpt lat="45.94764" lon="4.8555">
        <ele>278</ele>
        <time>2016-11-19T10:40:19Z</time>
      </trkpt>
      <trkpt lat="45.94762" lon="4.85539">
        <ele>278</ele>
        <time>2016-11-19T10:40:20Z</time>
      </trkpt>
      <trkpt lat="45.9476" lon="4.85528">
        <ele>278</ele>
        <time>2016-11-19T10:40:21Z</time>
      </trkpt>
      <trkpt lat="45.94759" lon="4.85515">
        <ele>277</ele>
        <time>2016-11-19T10:40:22Z</time>
      </trkpt>
      <trkpt lat="45.94757" lon="4.85503">
        <ele>277</ele>
        <time>2016-11-19T10:40:23Z</time>
      </trkpt>
      <trkpt lat="45.94755" lon="4.8549">
        <ele>276</ele>
        <time>2016-11-19T10:40:24Z</time>
      </trkpt>
      <trkpt lat="45.94753" lon="4.85477">
        <ele>275</ele>
        <time>2016-11-19T10:40:25Z</time>
      </trkpt>
      <trkpt lat="45.94751" lon="4.85464">
        <ele>275</ele>
        <time>2016-11-19T10:40:26Z</time>
      </trkpt>
      <trkpt lat="45.94749" lon="4.85451">
        <ele>274</ele>
        <time>2016-11-19T10:40:27Z</time>
      </trkpt>
      <trkpt lat="45.94748" lon="4.85438">
        <ele>274</ele>
        <time>2016-11-19T10:40:28Z</time>
      </trkpt>
      <trkpt lat="45.94746" lon="4.85424">
        <ele>273</ele>
        <time>2016-11-19T10:40:29Z</time>
      </trkpt>
      <trkpt lat="45.94745" lon="4.85411">
        <ele>273</ele>
        <time>2016-11-19T10:40:30Z</time>
      </trkpt>
      <trkpt lat="45.94743" lon="4.85397">
        <ele>272</ele>
        <time>2016-11-19T10:40:31Z</time>
      </trkpt>
      <trkpt lat="45.94742" lon="4.85384">
        <ele>272</ele>
        <time>2016-11-19T10:40:32Z</time>
      </trkpt>
      <trkpt lat="45.9474" lon="4.85371">
        <ele>271</ele>
        <time>2016-11-19T10:40:33Z</time>
      </trkpt>
      <trkpt lat="45.94739" lon="4.85358">
        <ele>271</ele>
        <time>2016-11-19T10:40:34Z</time>
      </trkpt>
      <trkpt lat="45.94737" lon="4.85346">
        <ele>271</ele>
        <time>2016-11-19T10:40:35Z</time>
      </trkpt>
      <trkpt lat="45.94736" lon="4.85333">
        <ele>270</ele>
        <time>2016-11-19T10:40:36Z</time>
      </trkpt>
      <trkpt lat="45.94735" lon="4.85322">
        <ele>270</ele>
        <time>2016-11-19T10:40:37Z</time>
      </trkpt>
      <trkpt lat="45.94734" lon="4.8531">
        <ele>270</ele>
        <time>2016-11-19T10:40:38Z</time>
      </trkpt>
      <trkpt lat="45.94733" lon="4.85299">
        <ele>270</ele>
        <time>2016-11-19T10:40:39Z</time>
      </trkpt>
      <trkpt lat="45.94731" lon="4.85288">
        <ele>269</ele>
        <time>2016-11-19T10:40:40Z</time>
      </trkpt>
      <trkpt lat="45.9473" lon="4.85277">
        <ele>269</ele>
        <time>2016-11-19T10:40:41Z</time>
      </trkpt>
      <trkpt lat="45.94729" lon="4.85267">
        <ele>269</ele>
        <time>2016-11-19T10:40:42Z</time>
      </trkpt>
      <trkpt lat="45.94728" lon="4.85257">
        <ele>269</ele>
        <time>2016-11-19T10:40:43Z</time>
      </trkpt>
      <trkpt lat="45.94726" lon="4.85247">
        <ele>269</ele>
        <time>2016-11-19T10:40:44Z</time>
      </trkpt>
      <trkpt lat="45.94725" lon="4.85238">
        <ele>269</ele>
        <time>2016-11-19T10:40:45Z</time>
      </trkpt>
      <trkpt lat="45.94724" lon="4.85229">
        <ele>269</ele>
        <time>2016-11-19T10:40:46Z</time>
      </trkpt>
      <trkpt lat="45.94722" lon="4.8522">
        <ele>269</ele>
        <time>2016-11-19T10:40:47Z</time>
      </trkpt>
      <trkpt lat="45.94722" lon="4.85211">
        <ele>269</ele>
        <time>2016-11-19T10:40:48Z</time>
      </trkpt>
      <trkpt lat="45.94721" lon="4.85202">
        <ele>269</ele>
        <time>2016-11-19T10:40:49Z</time>
      </trkpt>
      <trkpt lat="45.9472" lon="4.85193">
        <ele>269</ele>
        <time>2016-11-19T10:40:50Z</time>
      </trkpt>
      <trkpt lat="45.94719" lon="4.85184">
        <ele>269</ele>
        <time>2016-11-19T10:40:51Z</time>
      </trkpt>
      <trkpt lat="45.94718" lon="4.85176">
        <ele>269</ele>
        <time>2016-11-19T10:40:52Z</time>
      </trkpt>
      <trkpt lat="45.94717" lon="4.85167">
        <ele>269</ele>
        <time>2016-11-19T10:40:53Z</time>
      </trkpt>
      <trkpt lat="45.94717" lon="4.85158">
        <ele>269</ele>
        <time>2016-11-19T10:40:54Z</time>
      </trkpt>
      <trkpt lat="45.94716" lon="4.85149">
        <ele>269</ele>
        <time>2016-11-19T10:40:55Z</time>
      </trkpt>
      <trkpt lat="45.94715" lon="4.85139">
        <ele>269</ele>
        <time>2016-11-19T10:40:56Z</time>
      </trkpt>
      <trkpt lat="45.94714" lon="4.85129">
        <ele>269</ele>
        <time>2016-11-19T10:40:57Z</time>
      </trkpt>
      <trkpt lat="45.94714" lon="4.85119">
        <ele>269</ele>
        <time>2016-11-19T10:40:58Z</time>
      </trkpt>
      <trkpt lat="45.94713" lon="4.8511">
        <ele>269</ele>
        <time>2016-11-19T10:40:59Z</time>
      </trkpt>
      <trkpt lat="45.94712" lon="4.851">
        <ele>269</ele>
        <time>2016-11-19T10:41:00Z</time>
      </trkpt>
      <trkpt lat="45.9471" lon="4.85091">
        <ele>269</ele>
        <time>2016-11-19T10:41:01Z</time>
      </trkpt>
      <trkpt lat="45.94709" lon="4.85081">
        <ele>269</ele>
        <time>2016-11-19T10:41:02Z</time>
      </trkpt>
      <trkpt lat="45.94708" lon="4.85071">
        <ele>269</ele>
        <time>2016-11-19T10:41:03Z</time>
      </trkpt>
      <trkpt lat="45.94707" lon="4.85061">
        <ele>269</ele>
        <time>2016-11-19T10:41:04Z</time>
      </trkpt>
      <trkpt lat="45.94706" lon="4.85051">
        <ele>269</ele>
        <time>2016-11-19T10:41:05Z</time>
      </trkpt>
      <trkpt lat="45.94705" lon="4.85042">
        <ele>269</ele>
        <time>2016-11-19T10:41:06Z</time>
      </trkpt>
      <trkpt lat="45.94704" lon="4.85032">
        <ele>269</ele>
        <time>2016-11-19T10:41:07Z</time>
      </trkpt>
      <trkpt lat="45.94703" lon="4.85023">
        <ele>269</ele>
        <time>2016-11-19T10:41:08Z</time>
      </trkpt>
      <trkpt lat="45.94702" lon="4.85015">
        <ele>269</ele>
        <time>2016-11-19T10:41:09Z</time>
      </trkpt>
      <trkpt lat="45.94701" lon="4.85006">
        <ele>269</ele>
        <time>2016-11-19T10:41:10Z</time>
      </trkpt>
      <trkpt lat="45.947" lon="4.84998">
        <ele>269</ele>
        <time>2016-11-19T10:41:11Z</time>
      </trkpt>
      <trkpt lat="45.947" lon="4.8499">
        <ele>269</ele>
        <time>2016-11-19T10:41:12Z</time>
      </trkpt>
      <trkpt lat="45.94699" lon="4.84983">
        <ele>269</ele>
        <time>2016-11-19T10:41:13Z</time>
      </trkpt>
      <trkpt lat="45.94698" lon="4.84975">
        <ele>269</ele>
        <time>2016-11-19T10:41:14Z</time>
      </trkpt>
      <trkpt lat="45.94697" lon="4.84968">
        <ele>269</ele>
        <time>2016-11-19T10:41:15Z</time>
      </trkpt>
      <trkpt lat="45.94697" lon="4.8496">
        <ele>269</ele>
        <time>2016-11-19T10:41:16Z</time>
      </trkpt>
      <trkpt lat="45.94696" lon="4.84953">
        <ele>269</ele>
        <time>2016-11-19T10:41:17Z</time>
      </trkpt>
      <trkpt lat="45.94695" lon="4.84946">
        <ele>269</ele>
        <time>2016-11-19T10:41:18Z</time>
      </trkpt>
      <trkpt lat="45.94694" lon="4.84938">
        <ele>269</ele>
        <time>2016-11-19T10:41:19Z</time>
      </trkpt>
      <trkpt lat="45.94694" lon="4.8493">
        <ele>269</ele>
        <time>2016-11-19T10:41:20Z</time>
      </trkpt>
      <trkpt lat="45.94693" lon="4.84922">
        <ele>269</ele>
        <time>2016-11-19T10:41:21Z</time>
      </trkpt>
      <trkpt lat="45.94692" lon="4.84915">
        <ele>269</ele>
        <time>2016-11-19T10:41:22Z</time>
      </trkpt>
      <trkpt lat="45.94691" lon="4.84906">
        <ele>268</ele>
        <time>2016-11-19T10:41:23Z</time>
      </trkpt>
      <trkpt lat="45.9469" lon="4.84898">
        <ele>268</ele>
        <time>2016-11-19T10:41:24Z</time>
      </trkpt>
      <trkpt lat="45.94689" lon="4.8489">
        <ele>268</ele>
        <time>2016-11-19T10:41:25Z</time>
      </trkpt>
      <trkpt lat="45.94688" lon="4.84882">
        <ele>268</ele>
        <time>2016-11-19T10:41:26Z</time>
      </trkpt>
      <trkpt lat="45.94687" lon="4.84875">
        <ele>268</ele>
        <time>2016-11-19T10:41:27Z</time>
      </trkpt>
      <trkpt lat="45.94686" lon="4.84867">
        <ele>268</ele>
        <time>2016-11-19T10:41:28Z</time>
      </trkpt>
      <trkpt lat="45.94685" lon="4.8486">
        <ele>268</ele>
        <time>2016-11-19T10:41:29Z</time>
      </trkpt>
      <trkpt lat="45.94685" lon="4.84853">
        <ele>268</ele>
        <time>2016-11-19T10:41:30Z</time>
      </trkpt>
      <trkpt lat="45.94684" lon="4.84846">
        <ele>268</ele>
        <time>2016-11-19T10:41:31Z</time>
      </trkpt>
      <trkpt lat="45.94684" lon="4.84839">
        <ele>268</ele>
        <time>2016-11-19T10:41:32Z</time>
      </trkpt>
      <trkpt lat="45.94683" lon="4.84832">
        <ele>268</ele>
        <time>2016-11-19T10:41:33Z</time>
      </trkpt>
      <trkpt lat="45.94683" lon="4.84825">
        <ele>268</ele>
        <time>2016-11-19T10:41:34Z</time>
      </trkpt>
      <trkpt lat="45.94682" lon="4.84818">
        <ele>268</ele>
        <time>2016-11-19T10:41:35Z</time>
      </trkpt>
      <trkpt lat="45.94682" lon="4.84811">
        <ele>268</ele>
        <time>2016-11-19T10:41:36Z</time>
      </trkpt>
      <trkpt lat="45.94681" lon="4.84804">
        <ele>268</ele>
        <time>2016-11-19T10:41:37Z</time>
      </trkpt>
      <trkpt lat="45.9468" lon="4.84796">
        <ele>268</ele>
        <time>2016-11-19T10:41:38Z</time>
      </trkpt>
      <trkpt lat="45.9468" lon="4.84789">
        <ele>269</ele>
        <time>2016-11-19T10:41:39Z</time>
      </trkpt>
      <trkpt lat="45.94679" lon="4.84783">
        <ele>269</ele>
        <time>2016-11-19T10:41:40Z</time>
      </trkpt>
      <trkpt lat="45.94679" lon="4.84776">
        <ele>269</ele>
        <time>2016-11-19T10:41:41Z</time>
      </trkpt>
      <trkpt lat="45.94679" lon="4.84769">
        <ele>269</ele>
        <time>2016-11-19T10:41:42Z</time>
      </trkpt>
      <trkpt lat="45.94678" lon="4.84762">
        <ele>269</ele>
        <time>2016-11-19T10:41:43Z</time>
      </trkpt>
      <trkpt lat="45.94677" lon="4.84755">
        <ele>269</ele>
        <time>2016-11-19T10:41:44Z</time>
      </trkpt>
      <trkpt lat="45.94677" lon="4.84747">
        <ele>269</ele>
        <time>2016-11-19T10:41:45Z</time>
      </trkpt>
      <trkpt lat="45.94677" lon="4.8474">
        <ele>269</ele>
        <time>2016-11-19T10:41:46Z</time>
      </trkpt>
      <trkpt lat="45.94677" lon="4.84733">
        <ele>269</ele>
        <time>2016-11-19T10:41:47Z</time>
      </trkpt>
      <trkpt lat="45.94676" lon="4.84725">
        <ele>269</ele>
        <time>2016-11-19T10:41:48Z</time>
      </trkpt>
      <trkpt lat="45.94676" lon="4.84718">
        <ele>269</ele>
        <time>2016-11-19T10:41:49Z</time>
      </trkpt>
      <trkpt lat="45.94675" lon="4.8471">
        <ele>269</ele>
        <time>2016-11-19T10:41:50Z</time>
      </trkpt>
      <trkpt lat="45.94675" lon="4.84703">
        <ele>268</ele>
        <time>2016-11-19T10:41:51Z</time>
      </trkpt>
      <trkpt lat="45.94675" lon="4.84695">
        <ele>269</ele>
        <time>2016-11-19T10:41:52Z</time>
      </trkpt>
      <trkpt lat="45.94675" lon="4.84686">
        <ele>269</ele>
        <time>2016-11-19T10:41:53Z</time>
      </trkpt>
      <trkpt lat="45.94674" lon="4.84678">
        <ele>269</ele>
        <time>2016-11-19T10:41:54Z</time>
      </trkpt>
      <trkpt lat="45.94674" lon="4.84669">
        <ele>269</ele>
        <time>2016-11-19T10:41:55Z</time>
      </trkpt>
      <trkpt lat="45.94673" lon="4.8466">
        <ele>269</ele>
        <time>2016-11-19T10:41:56Z</time>
      </trkpt>
      <trkpt lat="45.94673" lon="4.84651">
        <ele>268</ele>
        <time>2016-11-19T10:41:57Z</time>
      </trkpt>
      <trkpt lat="45.94672" lon="4.84642">
        <ele>268</ele>
        <time>2016-11-19T10:41:58Z</time>
      </trkpt>
      <trkpt lat="45.94672" lon="4.84633">
        <ele>268</ele>
        <time>2016-11-19T10:41:59Z</time>
      </trkpt>
      <trkpt lat="45.94672" lon="4.84624">
        <ele>268</ele>
        <time>2016-11-19T10:42:00Z</time>
      </trkpt>
      <trkpt lat="45.94672" lon="4.84615">
        <ele>268</ele>
        <time>2016-11-19T10:42:01Z</time>
      </trkpt>
      <trkpt lat="45.94672" lon="4.84605">
        <ele>268</ele>
        <time>2016-11-19T10:42:02Z</time>
      </trkpt>
      <trkpt lat="45.94671" lon="4.84596">
        <ele>268</ele>
        <time>2016-11-19T10:42:03Z</time>
      </trkpt>
      <trkpt lat="45.94671" lon="4.84587">
        <ele>268</ele>
        <time>2016-11-19T10:42:04Z</time>
      </trkpt>
      <trkpt lat="45.94671" lon="4.84579">
        <ele>268</ele>
        <time>2016-11-19T10:42:05Z</time>
      </trkpt>
      <trkpt lat="45.9467" lon="4.8457">
        <ele>268</ele>
        <time>2016-11-19T10:42:06Z</time>
      </trkpt>
      <trkpt lat="45.9467" lon="4.84561">
        <ele>268</ele>
        <time>2016-11-19T10:42:07Z</time>
      </trkpt>
      <trkpt lat="45.94669" lon="4.84552">
        <ele>268</ele>
        <time>2016-11-19T10:42:08Z</time>
      </trkpt>
      <trkpt lat="45.94668" lon="4.84544">
        <ele>268</ele>
        <time>2016-11-19T10:42:09Z</time>
      </trkpt>
      <trkpt lat="45.94667" lon="4.84536">
        <ele>268</ele>
        <time>2016-11-19T10:42:10Z</time>
      </trkpt>
      <trkpt lat="45.94667" lon="4.84527">
        <ele>268</ele>
        <time>2016-11-19T10:42:11Z</time>
      </trkpt>
      <trkpt lat="45.94666" lon="4.8452">
        <ele>268</ele>
        <time>2016-11-19T10:42:12Z</time>
      </trkpt>
      <trkpt lat="45.94666" lon="4.84513">
        <ele>268</ele>
        <time>2016-11-19T10:42:13Z</time>
      </trkpt>
      <trkpt lat="45.94666" lon="4.84505">
        <ele>268</ele>
        <time>2016-11-19T10:42:14Z</time>
      </trkpt>
      <trkpt lat="45.94666" lon="4.84497">
        <ele>268</ele>
        <time>2016-11-19T10:42:15Z</time>
      </trkpt>
      <trkpt lat="45.94665" lon="4.8449">
        <ele>268</ele>
        <time>2016-11-19T10:42:16Z</time>
      </trkpt>
      <trkpt lat="45.94664" lon="4.84483">
        <ele>268</ele>
        <time>2016-11-19T10:42:17Z</time>
      </trkpt>
      <trkpt lat="45.94662" lon="4.84475">
        <ele>268</ele>
        <time>2016-11-19T10:42:18Z</time>
      </trkpt>
      <trkpt lat="45.94661" lon="4.84468">
        <ele>268</ele>
        <time>2016-11-19T10:42:19Z</time>
      </trkpt>
      <trkpt lat="45.94661" lon="4.84461">
        <ele>268</ele>
        <time>2016-11-19T10:42:20Z</time>
      </trkpt>
      <trkpt lat="45.9466" lon="4.84453">
        <ele>268</ele>
        <time>2016-11-19T10:42:21Z</time>
      </trkpt>
      <trkpt lat="45.94659" lon="4.84446">
        <ele>268</ele>
        <time>2016-11-19T10:42:22Z</time>
      </trkpt>
      <trkpt lat="45.94658" lon="4.84438">
        <ele>268</ele>
        <time>2016-11-19T10:42:23Z</time>
      </trkpt>
      <trkpt lat="45.94658" lon="4.84431">
        <ele>268</ele>
        <time>2016-11-19T10:42:24Z</time>
      </trkpt>
      <trkpt lat="45.94657" lon="4.84424">
        <ele>268</ele>
        <time>2016-11-19T10:42:25Z</time>
      </trkpt>
      <trkpt lat="45.94656" lon="4.84416">
        <ele>268</ele>
        <time>2016-11-19T10:42:26Z</time>
      </trkpt>
      <trkpt lat="45.94655" lon="4.84409">
        <ele>268</ele>
        <time>2016-11-19T10:42:27Z</time>
      </trkpt>
      <trkpt lat="45.94654" lon="4.84401">
        <ele>268</ele>
        <time>2016-11-19T10:42:28Z</time>
      </trkpt>
      <trkpt lat="45.94653" lon="4.84393">
        <ele>268</ele>
        <time>2016-11-19T10:42:29Z</time>
      </trkpt>
      <trkpt lat="45.94653" lon="4.84386">
        <ele>268</ele>
        <time>2016-11-19T10:42:30Z</time>
      </trkpt>
      <trkpt lat="45.94652" lon="4.84378">
        <ele>268</ele>
        <time>2016-11-19T10:42:31Z</time>
      </trkpt>
      <trkpt lat="45.94651" lon="4.84371">
        <ele>268</ele>
        <time>2016-11-19T10:42:32Z</time>
      </trkpt>
      <trkpt lat="45.9465" lon="4.84363">
        <ele>268</ele>
        <time>2016-11-19T10:42:33Z</time>
      </trkpt>
      <trkpt lat="45.94648" lon="4.84356">
        <ele>268</ele>
        <time>2016-11-19T10:42:34Z</time>
      </trkpt>
      <trkpt lat="45.94647" lon="4.84349">
        <ele>268</ele>
        <time>2016-11-19T10:42:35Z</time>
      </trkpt>
      <trkpt lat="45.94646" lon="4.84341">
        <ele>268</ele>
        <time>2016-11-19T10:42:36Z</time>
      </trkpt>
      <trkpt lat="45.94645" lon="4.84334">
        <ele>268</ele>
        <time>2016-11-19T10:42:37Z</time>
      </trkpt>
      <trkpt lat="45.94644" lon="4.84326">
        <ele>268</ele>
        <time>2016-11-19T10:42:38Z</time>
      </trkpt>
      <trkpt lat="45.94643" lon="4.84318">
        <ele>269</ele>
        <time>2016-11-19T10:42:39Z</time>
      </trkpt>
      <trkpt lat="45.94642" lon="4.8431">
        <ele>269</ele>
        <time>2016-11-19T10:42:40Z</time>
      </trkpt>
      <trkpt lat="45.94642" lon="4.84301">
        <ele>269</ele>
        <time>2016-11-19T10:42:41Z</time>
      </trkpt>
      <trkpt lat="45.94641" lon="4.84292">
        <ele>269</ele>
        <time>2016-11-19T10:42:42Z</time>
      </trkpt>
      <trkpt lat="45.94639" lon="4.84283">
        <ele>269</ele>
        <time>2016-11-19T10:42:43Z</time>
      </trkpt>
      <trkpt lat="45.94638" lon="4.84273">
        <ele>269</ele>
        <time>2016-11-19T10:42:44Z</time>
      </trkpt>
      <trkpt lat="45.94636" lon="4.84264">
        <ele>269</ele>
        <time>2016-11-19T10:42:45Z</time>
      </trkpt>
      <trkpt lat="45.94635" lon="4.84256">
        <ele>269</ele>
        <time>2016-11-19T10:42:46Z</time>
      </trkpt>
      <trkpt lat="45.94633" lon="4.84247">
        <ele>269</ele>
        <time>2016-11-19T10:42:47Z</time>
      </trkpt>
      <trkpt lat="45.94632" lon="4.84238">
        <ele>269</ele>
        <time>2016-11-19T10:42:48Z</time>
      </trkpt>
      <trkpt lat="45.94631" lon="4.8423">
        <ele>269</ele>
        <time>2016-11-19T10:42:49Z</time>
      </trkpt>
      <trkpt lat="45.9463" lon="4.84222">
        <ele>269</ele>
        <time>2016-11-19T10:42:50Z</time>
      </trkpt>
      <trkpt lat="45.94628" lon="4.84214">
        <ele>269</ele>
        <time>2016-11-19T10:42:51Z</time>
      </trkpt>
      <trkpt lat="45.94627" lon="4.84206">
        <ele>269</ele>
        <time>2016-11-19T10:42:52Z</time>
      </trkpt>
      <trkpt lat="45.94626" lon="4.84198">
        <ele>269</ele>
        <time>2016-11-19T10:42:53Z</time>
      </trkpt>
      <trkpt lat="45.94625" lon="4.8419">
        <ele>269</ele>
        <time>2016-11-19T10:42:54Z</time>
      </trkpt>
      <trkpt lat="45.94623" lon="4.84182">
        <ele>269</ele>
        <time>2016-11-19T10:42:55Z</time>
      </trkpt>
      <trkpt lat="45.94622" lon="4.84174">
        <ele>269</ele>
        <time>2016-11-19T10:42:56Z</time>
      </trkpt>
      <trkpt lat="45.94621" lon="4.84166">
        <ele>269</ele>
        <time>2016-11-19T10:42:57Z</time>
      </trkpt>
      <trkpt lat="45.9462" lon="4.84158">
        <ele>269</ele>
        <time>2016-11-19T10:42:58Z</time>
      </trkpt>
      <trkpt lat="45.94618" lon="4.8415">
        <ele>269</ele>
        <time>2016-11-19T10:42:59Z</time>
      </trkpt>
      <trkpt lat="45.94617" lon="4.84141">
        <ele>269</ele>
        <time>2016-11-19T10:43:00Z</time>
      </trkpt>
      <trkpt lat="45.94615" lon="4.84133">
        <ele>269</ele>
        <time>2016-11-19T10:43:01Z</time>
      </trkpt>
      <trkpt lat="45.94613" lon="4.84126">
        <ele>269</ele>
        <time>2016-11-19T10:43:02Z</time>
      </trkpt>
      <trkpt lat="45.94612" lon="4.84118">
        <ele>269</ele>
        <time>2016-11-19T10:43:03Z</time>
      </trkpt>
      <trkpt lat="45.94611" lon="4.8411">
        <ele>269</ele>
        <time>2016-11-19T10:43:04Z</time>
      </trkpt>
      <trkpt lat="45.94609" lon="4.84102">
        <ele>269</ele>
        <time>2016-11-19T10:43:05Z</time>
      </trkpt>
      <trkpt lat="45.94608" lon="4.84094">
        <ele>269</ele>
        <time>2016-11-19T10:43:06Z</time>
      </trkpt>
      <trkpt lat="45.94607" lon="4.84086">
        <ele>269</ele>
        <time>2016-11-19T10:43:07Z</time>
      </trkpt>
      <trkpt lat="45.94606" lon="4.84079">
        <ele>269</ele>
        <time>2016-11-19T10:43:08Z</time>
      </trkpt>
      <trkpt lat="45.94605" lon="4.84071">
        <ele>269</ele>
        <time>2016-11-19T10:43:09Z</time>
      </trkpt>
      <trkpt lat="45.94604" lon="4.84063">
        <ele>269</ele>
        <time>2016-11-19T10:43:10Z</time>
      </trkpt>
      <trkpt lat="45.94603" lon="4.84054">
        <ele>269</ele>
        <time>2016-11-19T10:43:11Z</time>
      </trkpt>
      <trkpt lat="45.94601" lon="4.84046">
        <ele>269</ele>
        <time>2016-11-19T10:43:12Z</time>
      </trkpt>
      <trkpt lat="45.946" lon="4.84038">
        <ele>269</ele>
        <time>2016-11-19T10:43:13Z</time>
      </trkpt>
      <trkpt lat="45.94599" lon="4.8403">
        <ele>269</ele>
        <time>2016-11-19T10:43:14Z</time>
      </trkpt>
      <trkpt lat="45.94598" lon="4.84022">
        <ele>269</ele>
        <time>2016-11-19T10:43:15Z</time>
      </trkpt>
      <trkpt lat="45.94597" lon="4.84014">
        <ele>269</ele>
        <time>2016-11-19T10:43:16Z</time>
      </trkpt>
      <trkpt lat="45.94596" lon="4.84006">
        <ele>269</ele>
        <time>2016-11-19T10:43:17Z</time>
      </trkpt>
      <trkpt lat="45.94595" lon="4.83997">
        <ele>269</ele>
        <time>2016-11-19T10:43:18Z</time>
      </trkpt>
      <trkpt lat="45.94594" lon="4.83989">
        <ele>269</ele>
        <time>2016-11-19T10:43:19Z</time>
      </trkpt>
      <trkpt lat="45.94592" lon="4.83981">
        <ele>268</ele>
        <time>2016-11-19T10:43:20Z</time>
      </trkpt>
      <trkpt lat="45.94591" lon="4.83972">
        <ele>268</ele>
        <time>2016-11-19T10:43:21Z</time>
      </trkpt>
      <trkpt lat="45.94589" lon="4.83964">
        <ele>268</ele>
        <time>2016-11-19T10:43:22Z</time>
      </trkpt>
      <trkpt lat="45.94588" lon="4.83955">
        <ele>268</ele>
        <time>2016-11-19T10:43:23Z</time>
      </trkpt>
      <trkpt lat="45.94586" lon="4.83946">
        <ele>268</ele>
        <time>2016-11-19T10:43:24Z</time>
      </trkpt>
      <trkpt lat="45.94584" lon="4.83936">
        <ele>268</ele>
        <time>2016-11-19T10:43:25Z</time>
      </trkpt>
      <trkpt lat="45.94583" lon="4.83927">
        <ele>268</ele>
        <time>2016-11-19T10:43:26Z</time>
      </trkpt>
      <trkpt lat="45.94582" lon="4.83917">
        <ele>268</ele>
        <time>2016-11-19T10:43:27Z</time>
      </trkpt>
      <trkpt lat="45.94581" lon="4.83907">
        <ele>268</ele>
        <time>2016-11-19T10:43:28Z</time>
      </trkpt>
      <trkpt lat="45.94579" lon="4.83897">
        <ele>268</ele>
        <time>2016-11-19T10:43:29Z</time>
      </trkpt>
      <trkpt lat="45.94578" lon="4.83887">
        <ele>267</ele>
        <time>2016-11-19T10:43:30Z</time>
      </trkpt>
      <trkpt lat="45.94577" lon="4.83876">
        <ele>267</ele>
        <time>2016-11-19T10:43:31Z</time>
      </trkpt>
      <trkpt lat="45.94575" lon="4.83865">
        <ele>267</ele>
        <time>2016-11-19T10:43:32Z</time>
      </trkpt>
      <trkpt lat="45.94573" lon="4.83855">
        <ele>266</ele>
        <time>2016-11-19T10:43:33Z</time>
      </trkpt>
      <trkpt lat="45.94572" lon="4.83845">
        <ele>266</ele>
        <time>2016-11-19T10:43:34Z</time>
      </trkpt>
      <trkpt lat="45.9457" lon="4.83834">
        <ele>266</ele>
        <time>2016-11-19T10:43:35Z</time>
      </trkpt>
      <trkpt lat="45.94568" lon="4.83824">
        <ele>265</ele>
        <time>2016-11-19T10:43:36Z</time>
      </trkpt>
      <trkpt lat="45.94567" lon="4.83813">
        <ele>264</ele>
        <time>2016-11-19T10:43:37Z</time>
      </trkpt>
      <trkpt lat="45.94565" lon="4.83802">
        <ele>264</ele>
        <time>2016-11-19T10:43:38Z</time>
      </trkpt>
      <trkpt lat="45.94563" lon="4.83791">
        <ele>264</ele>
        <time>2016-11-19T10:43:39Z</time>
      </trkpt>
      <trkpt lat="45.94562" lon="4.83781">
        <ele>264</ele>
        <time>2016-11-19T10:43:40Z</time>
      </trkpt>
      <trkpt lat="45.9456" lon="4.8377">
        <ele>263</ele>
        <time>2016-11-19T10:43:41Z</time>
      </trkpt>
      <trkpt lat="45.94559" lon="4.8376">
        <ele>263</ele>
        <time>2016-11-19T10:43:42Z</time>
      </trkpt>
      <trkpt lat="45.94557" lon="4.8375">
        <ele>262</ele>
        <time>2016-11-19T10:43:43Z</time>
      </trkpt>
      <trkpt lat="45.94555" lon="4.8374">
        <ele>262</ele>
        <time>2016-11-19T10:43:44Z</time>
      </trkpt>
      <trkpt lat="45.94554" lon="4.83731">
        <ele>262</ele>
        <time>2016-11-19T10:43:45Z</time>
      </trkpt>
      <trkpt lat="45.94553" lon="4.83721">
        <ele>262</ele>
        <time>2016-11-19T10:43:46Z</time>
      </trkpt>
      <trkpt lat="45.94551" lon="4.83712">
        <ele>262</ele>
        <time>2016-11-19T10:43:47Z</time>
      </trkpt>
      <trkpt lat="45.9455" lon="4.83703">
        <ele>262</ele>
        <time>2016-11-19T10:43:48Z</time>
      </trkpt>
      <trkpt lat="45.94548" lon="4.83694">
        <ele>262</ele>
        <time>2016-11-19T10:43:49Z</time>
      </trkpt>
      <trkpt lat="45.94547" lon="4.83685">
        <ele>262</ele>
        <time>2016-11-19T10:43:50Z</time>
      </trkpt>
      <trkpt lat="45.94546" lon="4.83676">
        <ele>262</ele>
        <time>2016-11-19T10:43:51Z</time>
      </trkpt>
      <trkpt lat="45.94544" lon="4.83667">
        <ele>262</ele>
        <time>2016-11-19T10:43:52Z</time>
      </trkpt>
      <trkpt lat="45.94543" lon="4.83658">
        <ele>261</ele>
        <time>2016-11-19T10:43:53Z</time>
      </trkpt>
      <trkpt lat="45.94542" lon="4.83649">
        <ele>261</ele>
        <time>2016-11-19T10:43:54Z</time>
      </trkpt>
      <trkpt lat="45.9454" lon="4.83641">
        <ele>261</ele>
        <time>2016-11-19T10:43:55Z</time>
      </trkpt>
      <trkpt lat="45.94539" lon="4.83632">
        <ele>261</ele>
        <time>2016-11-19T10:43:56Z</time>
      </trkpt>
      <trkpt lat="45.94537" lon="4.83623">
        <ele>261</ele>
        <time>2016-11-19T10:43:57Z</time>
      </trkpt>
      <trkpt lat="45.94536" lon="4.83614">
        <ele>261</ele>
        <time>2016-11-19T10:43:58Z</time>
      </trkpt>
      <trkpt lat="45.94534" lon="4.83605">
        <ele>261</ele>
        <time>2016-11-19T10:43:59Z</time>
      </trkpt>
      <trkpt lat="45.94532" lon="4.83597">
        <ele>261</ele>
        <time>2016-11-19T10:44:00Z</time>
      </trkpt>
      <trkpt lat="45.9453" lon="4.83588">
        <ele>261</ele>
        <time>2016-11-19T10:44:01Z</time>
      </trkpt>
      <trkpt lat="45.94527" lon="4.8358">
        <ele>261</ele>
        <time>2016-11-19T10:44:02Z</time>
      </trkpt>
      <trkpt lat="45.94525" lon="4.83572">
        <ele>261</ele>
        <time>2016-11-19T10:44:03Z</time>
      </trkpt>
      <trkpt lat="45.94522" lon="4.83564">
        <ele>261</ele>
        <time>2016-11-19T10:44:04Z</time>
      </trkpt>
      <trkpt lat="45.94519" lon="4.83556">
        <ele>261</ele>
        <time>2016-11-19T10:44:05Z</time>
      </trkpt>
      <trkpt lat="45.94515" lon="4.83549">
        <ele>261</ele>
        <time>2016-11-19T10:44:06Z</time>
      </trkpt>
      <trkpt lat="45.94512" lon="4.83542">
        <ele>261</ele>
        <time>2016-11-19T10:44:07Z</time>
      </trkpt>
      <trkpt lat="45.94508" lon="4.83535">
        <ele>262</ele>
        <time>2016-11-19T10:44:08Z</time>
      </trkpt>
      <trkpt lat="45.94505" lon="4.83529">
        <ele>262</ele>
        <time>2016-11-19T10:44:09Z</time>
      </trkpt>
      <trkpt lat="45.94501" lon="4.83522">
        <ele>262</ele>
        <time>2016-11-19T10:44:10Z</time>
      </trkpt>
      <trkpt lat="45.94497" lon="4.83516">
        <ele>262</ele>
        <time>2016-11-19T10:44:11Z</time>
      </trkpt>
      <trkpt lat="45.94492" lon="4.83509">
        <ele>262</ele>
        <time>2016-11-19T10:44:12Z</time>
      </trkpt>
      <trkpt lat="45.94489" lon="4.83502">
        <ele>262</ele>
        <time>2016-11-19T10:44:13Z</time>
      </trkpt>
      <trkpt lat="45.94484" lon="4.83495">
        <ele>263</ele>
        <time>2016-11-19T10:44:14Z</time>
      </trkpt>
      <trkpt lat="45.9448" lon="4.83489">
        <ele>263</ele>
        <time>2016-11-19T10:44:15Z</time>
      </trkpt>
      <trkpt lat="45.94475" lon="4.83483">
        <ele>263</ele>
        <time>2016-11-19T10:44:16Z</time>
      </trkpt>
      <trkpt lat="45.94471" lon="4.83476">
        <ele>263</ele>
        <time>2016-11-19T10:44:17Z</time>
      </trkpt>
      <trkpt lat="45.94468" lon="4.8347">
        <ele>263</ele>
        <time>2016-11-19T10:44:18Z</time>
      </trkpt>
      <trkpt lat="45.94464" lon="4.83464">
        <ele>263</ele>
        <time>2016-11-19T10:44:19Z</time>
      </trkpt>
      <trkpt lat="45.94461" lon="4.83458">
        <ele>263</ele>
        <time>2016-11-19T10:44:20Z</time>
      </trkpt>
      <trkpt lat="45.94458" lon="4.83451">
        <ele>263</ele>
        <time>2016-11-19T10:44:21Z</time>
      </trkpt>
      <trkpt lat="45.94455" lon="4.83445">
        <ele>263</ele>
        <time>2016-11-19T10:44:22Z</time>
      </trkpt>
      <trkpt lat="45.94452" lon="4.8344">
        <ele>263</ele>
        <time>2016-11-19T10:44:23Z</time>
      </trkpt>
      <trkpt lat="45.94449" lon="4.83434">
        <ele>263</ele>
        <time>2016-11-19T10:44:24Z</time>
      </trkpt>
      <trkpt lat="45.94446" lon="4.83428">
        <ele>264</ele>
        <time>2016-11-19T10:44:25Z</time>
      </trkpt>
      <trkpt lat="45.94442" lon="4.83422">
        <ele>264</ele>
        <time>2016-11-19T10:44:26Z</time>
      </trkpt>
      <trkpt lat="45.9444" lon="4.83415">
        <ele>264</ele>
        <time>2016-11-19T10:44:27Z</time>
      </trkpt>
      <trkpt lat="45.94437" lon="4.83409">
        <ele>264</ele>
        <time>2016-11-19T10:44:28Z</time>
      </trkpt>
      <trkpt lat="45.94434" lon="4.83403">
        <ele>264</ele>
        <time>2016-11-19T10:44:29Z</time>
      </trkpt>
      <trkpt lat="45.94431" lon="4.83396">
        <ele>264</ele>
        <time>2016-11-19T10:44:30Z</time>
      </trkpt>
      <trkpt lat="45.94428" lon="4.8339">
        <ele>264</ele>
        <time>2016-11-19T10:44:31Z</time>
      </trkpt>
      <trkpt lat="45.94425" lon="4.83384">
        <ele>264</ele>
        <time>2016-11-19T10:44:32Z</time>
      </trkpt>
      <trkpt lat="45.94422" lon="4.83378">
        <ele>264</ele>
        <time>2016-11-19T10:44:33Z</time>
      </trkpt>
      <trkpt lat="45.9442" lon="4.83372">
        <ele>264</ele>
        <time>2016-11-19T10:44:34Z</time>
      </trkpt>
      <trkpt lat="45.94418" lon="4.83366">
        <ele>264</ele>
        <time>2016-11-19T10:44:35Z</time>
      </trkpt>
      <trkpt lat="45.94415" lon="4.8336">
        <ele>264</ele>
        <time>2016-11-19T10:44:36Z</time>
      </trkpt>
      <trkpt lat="45.94413" lon="4.83354">
        <ele>263</ele>
        <time>2016-11-19T10:44:37Z</time>
      </trkpt>
      <trkpt lat="45.9441" lon="4.83348">
        <ele>263</ele>
        <time>2016-11-19T10:44:38Z</time>
      </trkpt>
      <trkpt lat="45.94408" lon="4.83343">
        <ele>263</ele>
        <time>2016-11-19T10:44:39Z</time>
      </trkpt>
      <trkpt lat="45.94405" lon="4.83337">
        <ele>263</ele>
        <time>2016-11-19T10:44:40Z</time>
      </trkpt>
      <trkpt lat="45.94403" lon="4.83331">
        <ele>264</ele>
        <time>2016-11-19T10:44:41Z</time>
      </trkpt>
      <trkpt lat="45.944" lon="4.83325">
        <ele>264</ele>
        <time>2016-11-19T10:44:42Z</time>
      </trkpt>
      <trkpt lat="45.94398" lon="4.83319">
        <ele>264</ele>
        <time>2016-11-19T10:44:43Z</time>
      </trkpt>
      <trkpt lat="45.94396" lon="4.83313">
        <ele>264</ele>
        <time>2016-11-19T10:44:44Z</time>
      </trkpt>
      <trkpt lat="45.94393" lon="4.83307">
        <ele>264</ele>
        <time>2016-11-19T10:44:45Z</time>
      </trkpt>
      <trkpt lat="45.94391" lon="4.833">
        <ele>264</ele>
        <time>2016-11-19T10:44:46Z</time>
      </trkpt>
      <trkpt lat="45.94389" lon="4.83293">
        <ele>264</ele>
        <time>2016-11-19T10:44:47Z</time>
      </trkpt>
      <trkpt lat="45.94387" lon="4.83287">
        <ele>264</ele>
        <time>2016-11-19T10:44:48Z</time>
      </trkpt>
      <trkpt lat="45.94385" lon="4.83282">
        <ele>264</ele>
        <time>2016-11-19T10:44:49Z</time>
      </trkpt>
      <trkpt lat="45.94383" lon="4.83276">
        <ele>264</ele>
        <time>2016-11-19T10:44:50Z</time>
      </trkpt>
      <trkpt lat="45.9438" lon="4.8327">
        <ele>264</ele>
        <time>2016-11-19T10:44:51Z</time>
      </trkpt>
      <trkpt lat="45.94378" lon="4.83264">
        <ele>264</ele>
        <time>2016-11-19T10:44:52Z</time>
      </trkpt>
      <trkpt lat="45.94376" lon="4.83259">
        <ele>265</ele>
        <time>2016-11-19T10:44:53Z</time>
      </trkpt>
      <trkpt lat="45.94374" lon="4.83253">
        <ele>265</ele>
        <time>2016-11-19T10:44:54Z</time>
      </trkpt>
      <trkpt lat="45.94372" lon="4.83247">
        <ele>265</ele>
        <time>2016-11-19T10:44:55Z</time>
      </trkpt>
      <trkpt lat="45.9437" lon="4.83241">
        <ele>265</ele>
        <time>2016-11-19T10:44:56Z</time>
      </trkpt>
      <trkpt lat="45.94368" lon="4.83235">
        <ele>266</ele>
        <time>2016-11-19T10:44:57Z</time>
      </trkpt>
      <trkpt lat="45.94366" lon="4.83229">
        <ele>266</ele>
        <time>2016-11-19T10:44:58Z</time>
      </trkpt>
      <trkpt lat="45.94363" lon="4.83223">
        <ele>266</ele>
        <time>2016-11-19T10:44:59Z</time>
      </trkpt>
      <trkpt lat="45.94361" lon="4.83217">
        <ele>266</ele>
        <time>2016-11-19T10:45:00Z</time>
      </trkpt>
      <trkpt lat="45.94359" lon="4.83211">
        <ele>266</ele>
        <time>2016-11-19T10:45:01Z</time>
      </trkpt>
      <trkpt lat="45.94357" lon="4.83206">
        <ele>266</ele>
        <time>2016-11-19T10:45:02Z</time>
      </trkpt>
      <trkpt lat="45.94355" lon="4.832">
        <ele>266</ele>
        <time>2016-11-19T10:45:03Z</time>
      </trkpt>
      <trkpt lat="45.94353" lon="4.83194">
        <ele>266</ele>
        <time>2016-11-19T10:45:04Z</time>
      </trkpt>
      <trkpt lat="45.9435" lon="4.83188">
        <ele>266</ele>
        <time>2016-11-19T10:45:05Z</time>
      </trkpt>
      <trkpt lat="45.94348" lon="4.83181">
        <ele>266</ele>
        <time>2016-11-19T10:45:06Z</time>
      </trkpt>
      <trkpt lat="45.94346" lon="4.83175">
        <ele>266</ele>
        <time>2016-11-19T10:45:07Z</time>
      </trkpt>
      <trkpt lat="45.94344" lon="4.83169">
        <ele>266</ele>
        <time>2016-11-19T10:45:08Z</time>
      </trkpt>
      <trkpt lat="45.94341" lon="4.83162">
        <ele>266</ele>
        <time>2016-11-19T10:45:09Z</time>
      </trkpt>
      <trkpt lat="45.94339" lon="4.83156">
        <ele>266</ele>
        <time>2016-11-19T10:45:10Z</time>
      </trkpt>
      <trkpt lat="45.94336" lon="4.8315">
        <ele>266</ele>
        <time>2016-11-19T10:45:11Z</time>
      </trkpt>
      <trkpt lat="45.94334" lon="4.83143">
        <ele>266</ele>
        <time>2016-11-19T10:45:12Z</time>
      </trkpt>
      <trkpt lat="45.94332" lon="4.83137">
        <ele>266</ele>
        <time>2016-11-19T10:45:13Z</time>
      </trkpt>
      <trkpt lat="45.9433" lon="4.83131">
        <ele>266</ele>
        <time>2016-11-19T10:45:14Z</time>
      </trkpt>
      <trkpt lat="45.94326" lon="4.8312">
        <ele>266</ele>
        <time>2016-11-19T10:45:16Z</time>
      </trkpt>
      <trkpt lat="45.94324" lon="4.83114">
        <ele>266</ele>
        <time>2016-11-19T10:45:17Z</time>
      </trkpt>
      <trkpt lat="45.9432" lon="4.83102">
        <ele>266</ele>
        <time>2016-11-19T10:45:19Z</time>
      </trkpt>
      <trkpt lat="45.94318" lon="4.83096">
        <ele>266</ele>
        <time>2016-11-19T10:45:20Z</time>
      </trkpt>
      <trkpt lat="45.94316" lon="4.8309">
        <ele>266</ele>
        <time>2016-11-19T10:45:21Z</time>
      </trkpt>
      <trkpt lat="45.94315" lon="4.83084">
        <ele>266</ele>
        <time>2016-11-19T10:45:22Z</time>
      </trkpt>
      <trkpt lat="45.94313" lon="4.83078">
        <ele>266</ele>
        <time>2016-11-19T10:45:23Z</time>
      </trkpt>
      <trkpt lat="45.94312" lon="4.83072">
        <ele>266</ele>
        <time>2016-11-19T10:45:24Z</time>
      </trkpt>
      <trkpt lat="45.94309" lon="4.83059">
        <ele>266</ele>
        <time>2016-11-19T10:45:26Z</time>
      </trkpt>
      <trkpt lat="45.94308" lon="4.83053">
        <ele>266</ele>
        <time>2016-11-19T10:45:27Z</time>
      </trkpt>
      <trkpt lat="45.94305" lon="4.83042">
        <ele>266</ele>
        <time>2016-11-19T10:45:29Z</time>
      </trkpt>
      <trkpt lat="45.94303" lon="4.83036">
        <ele>266</ele>
        <time>2016-11-19T10:45:30Z</time>
      </trkpt>
      <trkpt lat="45.94301" lon="4.83023">
        <ele>266</ele>
        <time>2016-11-19T10:45:32Z</time>
      </trkpt>
      <trkpt lat="45.943" lon="4.83017">
        <ele>266</ele>
        <time>2016-11-19T10:45:33Z</time>
      </trkpt>
      <trkpt lat="45.94299" lon="4.83011">
        <ele>266</ele>
        <time>2016-11-19T10:45:34Z</time>
      </trkpt>
      <trkpt lat="45.94297" lon="4.83004">
        <ele>266</ele>
        <time>2016-11-19T10:45:35Z</time>
      </trkpt>
      <trkpt lat="45.94296" lon="4.82998">
        <ele>265</ele>
        <time>2016-11-19T10:45:36Z</time>
      </trkpt>
      <trkpt lat="45.94295" lon="4.82991">
        <ele>265</ele>
        <time>2016-11-19T10:45:37Z</time>
      </trkpt>
      <trkpt lat="45.94293" lon="4.82985">
        <ele>265</ele>
        <time>2016-11-19T10:45:38Z</time>
      </trkpt>
      <trkpt lat="45.94292" lon="4.82979">
        <ele>265</ele>
        <time>2016-11-19T10:45:39Z</time>
      </trkpt>
      <trkpt lat="45.94288" lon="4.82968">
        <ele>265</ele>
        <time>2016-11-19T10:45:41Z</time>
      </trkpt>
      <trkpt lat="45.94286" lon="4.82962">
        <ele>265</ele>
        <time>2016-11-19T10:45:42Z</time>
      </trkpt>
      <trkpt lat="45.94283" lon="4.82951">
        <ele>265</ele>
        <time>2016-11-19T10:45:44Z</time>
      </trkpt>
      <trkpt lat="45.94283" lon="4.82944">
        <ele>265</ele>
        <time>2016-11-19T10:45:45Z</time>
      </trkpt>
      <trkpt lat="45.94284" lon="4.82938">
        <ele>265</ele>
        <time>2016-11-19T10:45:46Z</time>
      </trkpt>
      <trkpt lat="45.94285" lon="4.82931">
        <ele>265</ele>
        <time>2016-11-19T10:45:47Z</time>
      </trkpt>
      <trkpt lat="45.94287" lon="4.82925">
        <ele>265</ele>
        <time>2016-11-19T10:45:48Z</time>
      </trkpt>
      <trkpt lat="45.94288" lon="4.82918">
        <ele>265</ele>
        <time>2016-11-19T10:45:49Z</time>
      </trkpt>
      <trkpt lat="45.94289" lon="4.82911">
        <ele>265</ele>
        <time>2016-11-19T10:45:50Z</time>
      </trkpt>
      <trkpt lat="45.9429" lon="4.82905">
        <ele>265</ele>
        <time>2016-11-19T10:45:51Z</time>
      </trkpt>
      <trkpt lat="45.94291" lon="4.82898">
        <ele>265</ele>
        <time>2016-11-19T10:45:52Z</time>
      </trkpt>
      <trkpt lat="45.94291" lon="4.82891">
        <ele>265</ele>
        <time>2016-11-19T10:45:53Z</time>
      </trkpt>
      <trkpt lat="45.94292" lon="4.82884">
        <ele>265</ele>
        <time>2016-11-19T10:45:54Z</time>
      </trkpt>
      <trkpt lat="45.94293" lon="4.82877">
        <ele>265</ele>
        <time>2016-11-19T10:45:55Z</time>
      </trkpt>
      <trkpt lat="45.94293" lon="4.8287">
        <ele>265</ele>
        <time>2016-11-19T10:45:56Z</time>
      </trkpt>
      <trkpt lat="45.94294" lon="4.82863">
        <ele>265</ele>
        <time>2016-11-19T10:45:57Z</time>
      </trkpt>
      <trkpt lat="45.94294" lon="4.82856">
        <ele>265</ele>
        <time>2016-11-19T10:45:58Z</time>
      </trkpt>
      <trkpt lat="45.94294" lon="4.82848">
        <ele>265</ele>
        <time>2016-11-19T10:45:59Z</time>
      </trkpt>
      <trkpt lat="45.94294" lon="4.8284">
        <ele>265</ele>
        <time>2016-11-19T10:46:00Z</time>
      </trkpt>
      <trkpt lat="45.94294" lon="4.82832">
        <ele>265</ele>
        <time>2016-11-19T10:46:01Z</time>
      </trkpt>
      <trkpt lat="45.94294" lon="4.82825">
        <ele>265</ele>
        <time>2016-11-19T10:46:02Z</time>
      </trkpt>
      <trkpt lat="45.94294" lon="4.82817">
        <ele>265</ele>
        <time>2016-11-19T10:46:03Z</time>
      </trkpt>
      <trkpt lat="45.94294" lon="4.82809">
        <ele>265</ele>
        <time>2016-11-19T10:46:04Z</time>
      </trkpt>
      <trkpt lat="45.94294" lon="4.82801">
        <ele>265</ele>
        <time>2016-11-19T10:46:05Z</time>
      </trkpt>
      <trkpt lat="45.94294" lon="4.82793">
        <ele>265</ele>
        <time>2016-11-19T10:46:06Z</time>
      </trkpt>
      <trkpt lat="45.94294" lon="4.82785">
        <ele>265</ele>
        <time>2016-11-19T10:46:07Z</time>
      </trkpt>
      <trkpt lat="45.94294" lon="4.82777">
        <ele>265</ele>
        <time>2016-11-19T10:46:08Z</time>
      </trkpt>
      <trkpt lat="45.94294" lon="4.82769">
        <ele>265</ele>
        <time>2016-11-19T10:46:09Z</time>
      </trkpt>
      <trkpt lat="45.94295" lon="4.82762">
        <ele>265</ele>
        <time>2016-11-19T10:46:10Z</time>
      </trkpt>
      <trkpt lat="45.94295" lon="4.82754">
        <ele>265</ele>
        <time>2016-11-19T10:46:11Z</time>
      </trkpt>
      <trkpt lat="45.94295" lon="4.82747">
        <ele>265</ele>
        <time>2016-11-19T10:46:12Z</time>
      </trkpt>
      <trkpt lat="45.94295" lon="4.8274">
        <ele>265</ele>
        <time>2016-11-19T10:46:13Z</time>
      </trkpt>
      <trkpt lat="45.94295" lon="4.82732">
        <ele>265</ele>
        <time>2016-11-19T10:46:14Z</time>
      </trkpt>
      <trkpt lat="45.94296" lon="4.82725">
        <ele>265</ele>
        <time>2016-11-19T10:46:15Z</time>
      </trkpt>
      <trkpt lat="45.94296" lon="4.82718">
        <ele>265</ele>
        <time>2016-11-19T10:46:16Z</time>
      </trkpt>
      <trkpt lat="45.94296" lon="4.82711">
        <ele>265</ele>
        <time>2016-11-19T10:46:17Z</time>
      </trkpt>
      <trkpt lat="45.94296" lon="4.82703">
        <ele>265</ele>
        <time>2016-11-19T10:46:18Z</time>
      </trkpt>
      <trkpt lat="45.94296" lon="4.82696">
        <ele>265</ele>
        <time>2016-11-19T10:46:19Z</time>
      </trkpt>
      <trkpt lat="45.94296" lon="4.82689">
        <ele>265</ele>
        <time>2016-11-19T10:46:20Z</time>
      </trkpt>
      <trkpt lat="45.94296" lon="4.82681">
        <ele>265</ele>
        <time>2016-11-19T10:46:21Z</time>
      </trkpt>
      <trkpt lat="45.94296" lon="4.82673">
        <ele>265</ele>
        <time>2016-11-19T10:46:22Z</time>
      </trkpt>
      <trkpt lat="45.94296" lon="4.82666">
        <ele>265</ele>
        <time>2016-11-19T10:46:23Z</time>
      </trkpt>
      <trkpt lat="45.94296" lon="4.82658">
        <ele>265</ele>
        <time>2016-11-19T10:46:24Z</time>
      </trkpt>
      <trkpt lat="45.94296" lon="4.82651">
        <ele>265</ele>
        <time>2016-11-19T10:46:25Z</time>
      </trkpt>
      <trkpt lat="45.94296" lon="4.82643">
        <ele>265</ele>
        <time>2016-11-19T10:46:26Z</time>
      </trkpt>
      <trkpt lat="45.94296" lon="4.82635">
        <ele>265</ele>
        <time>2016-11-19T10:46:27Z</time>
      </trkpt>
      <trkpt lat="45.94296" lon="4.82627">
        <ele>265</ele>
        <time>2016-11-19T10:46:28Z</time>
      </trkpt>
      <trkpt lat="45.94297" lon="4.8262">
        <ele>265</ele>
        <time>2016-11-19T10:46:29Z</time>
      </trkpt>
      <trkpt lat="45.94297" lon="4.82612">
        <ele>265</ele>
        <time>2016-11-19T10:46:30Z</time>
      </trkpt>
      <trkpt lat="45.94297" lon="4.82605">
        <ele>265</ele>
        <time>2016-11-19T10:46:31Z</time>
      </trkpt>
      <trkpt lat="45.94297" lon="4.82597">
        <ele>265</ele>
        <time>2016-11-19T10:46:32Z</time>
      </trkpt>
      <trkpt lat="45.94297" lon="4.82589">
        <ele>265</ele>
        <time>2016-11-19T10:46:33Z</time>
      </trkpt>
      <trkpt lat="45.94298" lon="4.82581">
        <ele>264</ele>
        <time>2016-11-19T10:46:34Z</time>
      </trkpt>
      <trkpt lat="45.94298" lon="4.82573">
        <ele>264</ele>
        <time>2016-11-19T10:46:35Z</time>
      </trkpt>
      <trkpt lat="45.94298" lon="4.82564">
        <ele>264</ele>
        <time>2016-11-19T10:46:36Z</time>
      </trkpt>
      <trkpt lat="45.94298" lon="4.82555">
        <ele>264</ele>
        <time>2016-11-19T10:46:37Z</time>
      </trkpt>
      <trkpt lat="45.94298" lon="4.82546">
        <ele>264</ele>
        <time>2016-11-19T10:46:38Z</time>
      </trkpt>
      <trkpt lat="45.94298" lon="4.82537">
        <ele>264</ele>
        <time>2016-11-19T10:46:39Z</time>
      </trkpt>
      <trkpt lat="45.94298" lon="4.82528">
        <ele>264</ele>
        <time>2016-11-19T10:46:40Z</time>
      </trkpt>
      <trkpt lat="45.94298" lon="4.82519">
        <ele>264</ele>
        <time>2016-11-19T10:46:41Z</time>
      </trkpt>
      <trkpt lat="45.94298" lon="4.8251">
        <ele>264</ele>
        <time>2016-11-19T10:46:42Z</time>
      </trkpt>
      <trkpt lat="45.94297" lon="4.825">
        <ele>264</ele>
        <time>2016-11-19T10:46:43Z</time>
      </trkpt>
      <trkpt lat="45.94297" lon="4.82491">
        <ele>264</ele>
        <time>2016-11-19T10:46:44Z</time>
      </trkpt>
      <trkpt lat="45.94297" lon="4.82482">
        <ele>264</ele>
        <time>2016-11-19T10:46:45Z</time>
      </trkpt>
      <trkpt lat="45.94297" lon="4.82472">
        <ele>264</ele>
        <time>2016-11-19T10:46:46Z</time>
      </trkpt>
      <trkpt lat="45.94297" lon="4.82462">
        <ele>264</ele>
        <time>2016-11-19T10:46:47Z</time>
      </trkpt>
      <trkpt lat="45.94296" lon="4.82453">
        <ele>264</ele>
        <time>2016-11-19T10:46:48Z</time>
      </trkpt>
      <trkpt lat="45.94296" lon="4.82443">
        <ele>264</ele>
        <time>2016-11-19T10:46:49Z</time>
      </trkpt>
      <trkpt lat="45.94295" lon="4.82433">
        <ele>264</ele>
        <time>2016-11-19T10:46:50Z</time>
      </trkpt>
      <trkpt lat="45.94295" lon="4.82424">
        <ele>264</ele>
        <time>2016-11-19T10:46:51Z</time>
      </trkpt>
      <trkpt lat="45.94294" lon="4.82414">
        <ele>264</ele>
        <time>2016-11-19T10:46:52Z</time>
      </trkpt>
      <trkpt lat="45.94294" lon="4.82404">
        <ele>264</ele>
        <time>2016-11-19T10:46:53Z</time>
      </trkpt>
      <trkpt lat="45.94293" lon="4.82394">
        <ele>264</ele>
        <time>2016-11-19T10:46:54Z</time>
      </trkpt>
      <trkpt lat="45.94292" lon="4.82384">
        <ele>264</ele>
        <time>2016-11-19T10:46:55Z</time>
      </trkpt>
      <trkpt lat="45.94292" lon="4.82373">
        <ele>264</ele>
        <time>2016-11-19T10:46:56Z</time>
      </trkpt>
      <trkpt lat="45.94292" lon="4.82364">
        <ele>264</ele>
        <time>2016-11-19T10:46:57Z</time>
      </trkpt>
      <trkpt lat="45.94291" lon="4.82354">
        <ele>264</ele>
        <time>2016-11-19T10:46:58Z</time>
      </trkpt>
      <trkpt lat="45.94291" lon="4.82345">
        <ele>264</ele>
        <time>2016-11-19T10:46:59Z</time>
      </trkpt>
      <trkpt lat="45.9429" lon="4.82336">
        <ele>264</ele>
        <time>2016-11-19T10:47:00Z</time>
      </trkpt>
      <trkpt lat="45.9429" lon="4.82327">
        <ele>265</ele>
        <time>2016-11-19T10:47:01Z</time>
      </trkpt>
      <trkpt lat="45.9429" lon="4.82318">
        <ele>265</ele>
        <time>2016-11-19T10:47:02Z</time>
      </trkpt>
      <trkpt lat="45.94289" lon="4.8231">
        <ele>265</ele>
        <time>2016-11-19T10:47:03Z</time>
      </trkpt>
      <trkpt lat="45.94289" lon="4.82302">
        <ele>265</ele>
        <time>2016-11-19T10:47:04Z</time>
      </trkpt>
      <trkpt lat="45.94289" lon="4.82293">
        <ele>265</ele>
        <time>2016-11-19T10:47:05Z</time>
      </trkpt>
      <trkpt lat="45.94288" lon="4.82285">
        <ele>265</ele>
        <time>2016-11-19T10:47:06Z</time>
      </trkpt>
      <trkpt lat="45.94288" lon="4.82276">
        <ele>265</ele>
        <time>2016-11-19T10:47:07Z</time>
      </trkpt>
      <trkpt lat="45.94287" lon="4.82266">
        <ele>265</ele>
        <time>2016-11-19T10:47:08Z</time>
      </trkpt>
      <trkpt lat="45.94287" lon="4.82257">
        <ele>265</ele>
        <time>2016-11-19T10:47:09Z</time>
      </trkpt>
      <trkpt lat="45.94286" lon="4.82248">
        <ele>264</ele>
        <time>2016-11-19T10:47:10Z</time>
      </trkpt>
      <trkpt lat="45.94286" lon="4.82238">
        <ele>264</ele>
        <time>2016-11-19T10:47:11Z</time>
      </trkpt>
      <trkpt lat="45.94285" lon="4.82229">
        <ele>264</ele>
        <time>2016-11-19T10:47:12Z</time>
      </trkpt>
      <trkpt lat="45.94284" lon="4.82219">
        <ele>264</ele>
        <time>2016-11-19T10:47:13Z</time>
      </trkpt>
      <trkpt lat="45.94283" lon="4.8221">
        <ele>264</ele>
        <time>2016-11-19T10:47:14Z</time>
      </trkpt>
      <trkpt lat="45.94282" lon="4.82201">
        <ele>264</ele>
        <time>2016-11-19T10:47:15Z</time>
      </trkpt>
      <trkpt lat="45.94281" lon="4.82192">
        <ele>264</ele>
        <time>2016-11-19T10:47:16Z</time>
      </trkpt>
      <trkpt lat="45.9428" lon="4.82184">
        <ele>264</ele>
        <time>2016-11-19T10:47:17Z</time>
      </trkpt>
      <trkpt lat="45.94278" lon="4.82175">
        <ele>264</ele>
        <time>2016-11-19T10:47:18Z</time>
      </trkpt>
      <trkpt lat="45.94277" lon="4.82167">
        <ele>264</ele>
        <time>2016-11-19T10:47:19Z</time>
      </trkpt>
      <trkpt lat="45.94276" lon="4.8216">
        <ele>263</ele>
        <time>2016-11-19T10:47:20Z</time>
      </trkpt>
      <trkpt lat="45.94274" lon="4.82152">
        <ele>263</ele>
        <time>2016-11-19T10:47:21Z</time>
      </trkpt>
      <trkpt lat="45.94272" lon="4.82144">
        <ele>263</ele>
        <time>2016-11-19T10:47:22Z</time>
      </trkpt>
      <trkpt lat="45.94271" lon="4.82137">
        <ele>263</ele>
        <time>2016-11-19T10:47:23Z</time>
      </trkpt>
      <trkpt lat="45.9427" lon="4.82129">
        <ele>263</ele>
        <time>2016-11-19T10:47:24Z</time>
      </trkpt>
      <trkpt lat="45.94268" lon="4.82122">
        <ele>263</ele>
        <time>2016-11-19T10:47:25Z</time>
      </trkpt>
      <trkpt lat="45.94267" lon="4.82115">
        <ele>263</ele>
        <time>2016-11-19T10:47:26Z</time>
      </trkpt>
      <trkpt lat="45.94265" lon="4.82107">
        <ele>263</ele>
        <time>2016-11-19T10:47:27Z</time>
      </trkpt>
      <trkpt lat="45.94263" lon="4.82099">
        <ele>262</ele>
        <time>2016-11-19T10:47:28Z</time>
      </trkpt>
      <trkpt lat="45.94261" lon="4.82091">
        <ele>262</ele>
        <time>2016-11-19T10:47:29Z</time>
      </trkpt>
      <trkpt lat="45.94259" lon="4.82084">
        <ele>262</ele>
        <time>2016-11-19T10:47:30Z</time>
      </trkpt>
      <trkpt lat="45.94257" lon="4.82075">
        <ele>262</ele>
        <time>2016-11-19T10:47:31Z</time>
      </trkpt>
      <trkpt lat="45.94256" lon="4.82067">
        <ele>262</ele>
        <time>2016-11-19T10:47:32Z</time>
      </trkpt>
      <trkpt lat="45.94253" lon="4.82058">
        <ele>262</ele>
        <time>2016-11-19T10:47:33Z</time>
      </trkpt>
      <trkpt lat="45.94252" lon="4.82049">
        <ele>262</ele>
        <time>2016-11-19T10:47:34Z</time>
      </trkpt>
      <trkpt lat="45.9425" lon="4.82042">
        <ele>263</ele>
        <time>2016-11-19T10:47:35Z</time>
      </trkpt>
      <trkpt lat="45.94247" lon="4.82035">
        <ele>263</ele>
        <time>2016-11-19T10:47:36Z</time>
      </trkpt>
      <trkpt lat="45.94245" lon="4.82029">
        <ele>263</ele>
        <time>2016-11-19T10:47:37Z</time>
      </trkpt>
      <trkpt lat="45.94244" lon="4.82021">
        <ele>263</ele>
        <time>2016-11-19T10:47:38Z</time>
      </trkpt>
      <trkpt lat="45.94243" lon="4.82013">
        <ele>263</ele>
        <time>2016-11-19T10:47:39Z</time>
      </trkpt>
      <trkpt lat="45.94242" lon="4.82006">
        <ele>263</ele>
        <time>2016-11-19T10:47:40Z</time>
      </trkpt>
      <trkpt lat="45.9424" lon="4.81999">
        <ele>263</ele>
        <time>2016-11-19T10:47:41Z</time>
      </trkpt>
      <trkpt lat="45.94239" lon="4.81991">
        <ele>263</ele>
        <time>2016-11-19T10:47:42Z</time>
      </trkpt>
      <trkpt lat="45.94237" lon="4.81983">
        <ele>263</ele>
        <time>2016-11-19T10:47:43Z</time>
      </trkpt>
      <trkpt lat="45.94236" lon="4.81976">
        <ele>263</ele>
        <time>2016-11-19T10:47:44Z</time>
      </trkpt>
      <trkpt lat="45.94234" lon="4.81967">
        <ele>264</ele>
        <time>2016-11-19T10:47:45Z</time>
      </trkpt>
      <trkpt lat="45.94233" lon="4.81959">
        <ele>264</ele>
        <time>2016-11-19T10:47:46Z</time>
      </trkpt>
      <trkpt lat="45.94232" lon="4.8195">
        <ele>264</ele>
        <time>2016-11-19T10:47:47Z</time>
      </trkpt>
      <trkpt lat="45.9423" lon="4.81941">
        <ele>264</ele>
        <time>2016-11-19T10:47:48Z</time>
      </trkpt>
      <trkpt lat="45.94228" lon="4.81932">
        <ele>264</ele>
        <time>2016-11-19T10:47:49Z</time>
      </trkpt>
      <trkpt lat="45.94227" lon="4.81923">
        <ele>264</ele>
        <time>2016-11-19T10:47:50Z</time>
      </trkpt>
      <trkpt lat="45.94225" lon="4.81914">
        <ele>264</ele>
        <time>2016-11-19T10:47:51Z</time>
      </trkpt>
      <trkpt lat="45.94224" lon="4.81906">
        <ele>264</ele>
        <time>2016-11-19T10:47:52Z</time>
      </trkpt>
      <trkpt lat="45.94222" lon="4.81897">
        <ele>265</ele>
        <time>2016-11-19T10:47:53Z</time>
      </trkpt>
      <trkpt lat="45.9422" lon="4.81889">
        <ele>265</ele>
        <time>2016-11-19T10:47:54Z</time>
      </trkpt>
      <trkpt lat="45.94219" lon="4.81881">
        <ele>265</ele>
        <time>2016-11-19T10:47:55Z</time>
      </trkpt>
      <trkpt lat="45.94218" lon="4.81874">
        <ele>265</ele>
        <time>2016-11-19T10:47:56Z</time>
      </trkpt>
      <trkpt lat="45.94216" lon="4.81866">
        <ele>265</ele>
        <time>2016-11-19T10:47:57Z</time>
      </trkpt>
      <trkpt lat="45.94215" lon="4.81859">
        <ele>265</ele>
        <time>2016-11-19T10:47:58Z</time>
      </trkpt>
      <trkpt lat="45.94213" lon="4.81852">
        <ele>265</ele>
        <time>2016-11-19T10:47:59Z</time>
      </trkpt>
      <trkpt lat="45.94212" lon="4.81845">
        <ele>265</ele>
        <time>2016-11-19T10:48:00Z</time>
      </trkpt>
      <trkpt lat="45.9421" lon="4.81838">
        <ele>265</ele>
        <time>2016-11-19T10:48:01Z</time>
      </trkpt>
      <trkpt lat="45.94208" lon="4.81831">
        <ele>266</ele>
        <time>2016-11-19T10:48:02Z</time>
      </trkpt>
      <trkpt lat="45.94207" lon="4.81823">
        <ele>266</ele>
        <time>2016-11-19T10:48:03Z</time>
      </trkpt>
      <trkpt lat="45.94207" lon="4.81816">
        <ele>266</ele>
        <time>2016-11-19T10:48:04Z</time>
      </trkpt>
      <trkpt lat="45.94206" lon="4.81808">
        <ele>266</ele>
        <time>2016-11-19T10:48:05Z</time>
      </trkpt>
      <trkpt lat="45.94206" lon="4.81801">
        <ele>266</ele>
        <time>2016-11-19T10:48:06Z</time>
      </trkpt>
      <trkpt lat="45.94206" lon="4.81793">
        <ele>266</ele>
        <time>2016-11-19T10:48:07Z</time>
      </trkpt>
      <trkpt lat="45.94207" lon="4.81786">
        <ele>266</ele>
        <time>2016-11-19T10:48:08Z</time>
      </trkpt>
      <trkpt lat="45.94208" lon="4.81779">
        <ele>265</ele>
        <time>2016-11-19T10:48:09Z</time>
      </trkpt>
      <trkpt lat="45.9421" lon="4.81773">
        <ele>265</ele>
        <time>2016-11-19T10:48:10Z</time>
      </trkpt>
      <trkpt lat="45.94212" lon="4.81766">
        <ele>265</ele>
        <time>2016-11-19T10:48:11Z</time>
      </trkpt>
      <trkpt lat="45.94214" lon="4.8176">
        <ele>265</ele>
        <time>2016-11-19T10:48:12Z</time>
      </trkpt>
      <trkpt lat="45.94217" lon="4.81754">
        <ele>265</ele>
        <time>2016-11-19T10:48:13Z</time>
      </trkpt>
      <trkpt lat="45.94219" lon="4.81748">
        <ele>265</ele>
        <time>2016-11-19T10:48:14Z</time>
      </trkpt>
      <trkpt lat="45.94221" lon="4.81742">
        <ele>265</ele>
        <time>2016-11-19T10:48:15Z</time>
      </trkpt>
      <trkpt lat="45.94222" lon="4.81734">
        <ele>265</ele>
        <time>2016-11-19T10:48:16Z</time>
      </trkpt>
      <trkpt lat="45.94222" lon="4.81727">
        <ele>265</ele>
        <time>2016-11-19T10:48:17Z</time>
      </trkpt>
      <trkpt lat="45.94221" lon="4.81719">
        <ele>266</ele>
        <time>2016-11-19T10:48:18Z</time>
      </trkpt>
      <trkpt lat="45.94218" lon="4.81713">
        <ele>266</ele>
        <time>2016-11-19T10:48:19Z</time>
      </trkpt>
      <trkpt lat="45.94211" lon="4.81705">
        <ele>266</ele>
        <time>2016-11-19T10:48:21Z</time>
      </trkpt>
      <trkpt lat="45.94207" lon="4.81703">
        <ele>266</ele>
        <time>2016-11-19T10:48:22Z</time>
      </trkpt>
      <trkpt lat="45.94202" lon="4.817">
        <ele>267</ele>
        <time>2016-11-19T10:48:23Z</time>
      </trkpt>
      <trkpt lat="45.94197" lon="4.81696">
        <ele>267</ele>
        <time>2016-11-19T10:48:24Z</time>
      </trkpt>
      <trkpt lat="45.94192" lon="4.81691">
        <ele>267</ele>
        <time>2016-11-19T10:48:25Z</time>
      </trkpt>
      <trkpt lat="45.94187" lon="4.81686">
        <ele>267</ele>
        <time>2016-11-19T10:48:26Z</time>
      </trkpt>
      <trkpt lat="45.94183" lon="4.81679">
        <ele>268</ele>
        <time>2016-11-19T10:48:27Z</time>
      </trkpt>
      <trkpt lat="45.9418" lon="4.8167">
        <ele>268</ele>
        <time>2016-11-19T10:48:28Z</time>
      </trkpt>
      <trkpt lat="45.94178" lon="4.8166">
        <ele>268</ele>
        <time>2016-11-19T10:48:29Z</time>
      </trkpt>
      <trkpt lat="45.94176" lon="4.81649">
        <ele>268</ele>
        <time>2016-11-19T10:48:30Z</time>
      </trkpt>
      <trkpt lat="45.94174" lon="4.81639">
        <ele>268</ele>
        <time>2016-11-19T10:48:31Z</time>
      </trkpt>
      <trkpt lat="45.94172" lon="4.81628">
        <ele>267</ele>
        <time>2016-11-19T10:48:32Z</time>
      </trkpt>
      <trkpt lat="45.94169" lon="4.81616">
        <ele>267</ele>
        <time>2016-11-19T10:48:33Z</time>
      </trkpt>
      <trkpt lat="45.94167" lon="4.81606">
        <ele>267</ele>
        <time>2016-11-19T10:48:34Z</time>
      </trkpt>
      <trkpt lat="45.94165" lon="4.81594">
        <ele>267</ele>
        <time>2016-11-19T10:48:35Z</time>
      </trkpt>
      <trkpt lat="45.94163" lon="4.81583">
        <ele>266</ele>
        <time>2016-11-19T10:48:36Z</time>
      </trkpt>
      <trkpt lat="45.9416" lon="4.81567">
        <ele>265</ele>
        <time>2016-11-19T10:48:37Z</time>
      </trkpt>
      <trkpt lat="45.94157" lon="4.81557">
        <ele>265</ele>
        <time>2016-11-19T10:48:38Z</time>
      </trkpt>
      <trkpt lat="45.94155" lon="4.81546">
        <ele>264</ele>
        <time>2016-11-19T10:48:39Z</time>
      </trkpt>
      <trkpt lat="45.94153" lon="4.81533">
        <ele>264</ele>
        <time>2016-11-19T10:48:40Z</time>
      </trkpt>
      <trkpt lat="45.94153" lon="4.81519">
        <ele>263</ele>
        <time>2016-11-19T10:48:41Z</time>
      </trkpt>
      <trkpt lat="45.94152" lon="4.81507">
        <ele>263</ele>
        <time>2016-11-19T10:48:42Z</time>
      </trkpt>
      <trkpt lat="45.9415" lon="4.81495">
        <ele>260</ele>
        <time>2016-11-19T10:48:43Z</time>
      </trkpt>
      <trkpt lat="45.9415" lon="4.81482">
        <ele>259</ele>
        <time>2016-11-19T10:48:44Z</time>
      </trkpt>
      <trkpt lat="45.94152" lon="4.81468">
        <ele>258</ele>
        <time>2016-11-19T10:48:45Z</time>
      </trkpt>
      <trkpt lat="45.94153" lon="4.81453">
        <ele>257</ele>
        <time>2016-11-19T10:48:46Z</time>
      </trkpt>
      <trkpt lat="45.94155" lon="4.81438">
        <ele>256</ele>
        <time>2016-11-19T10:48:47Z</time>
      </trkpt>
      <trkpt lat="45.94157" lon="4.81423">
        <ele>256</ele>
        <time>2016-11-19T10:48:48Z</time>
      </trkpt>
      <trkpt lat="45.9416" lon="4.81409">
        <ele>254</ele>
        <time>2016-11-19T10:48:49Z</time>
      </trkpt>
      <trkpt lat="45.94162" lon="4.81395">
        <ele>252</ele>
        <time>2016-11-19T10:48:50Z</time>
      </trkpt>
      <trkpt lat="45.94164" lon="4.8138">
        <ele>251</ele>
        <time>2016-11-19T10:48:51Z</time>
      </trkpt>
      <trkpt lat="45.94165" lon="4.81367">
        <ele>251</ele>
        <time>2016-11-19T10:48:52Z</time>
      </trkpt>
      <trkpt lat="45.94166" lon="4.81354">
        <ele>251</ele>
        <time>2016-11-19T10:48:53Z</time>
      </trkpt>
      <trkpt lat="45.94167" lon="4.8134">
        <ele>254</ele>
        <time>2016-11-19T10:48:54Z</time>
      </trkpt>
      <trkpt lat="45.94168" lon="4.81326">
        <ele>254</ele>
        <time>2016-11-19T10:48:55Z</time>
      </trkpt>
      <trkpt lat="45.94167" lon="4.81311">
        <ele>255</ele>
        <time>2016-11-19T10:48:56Z</time>
      </trkpt>
      <trkpt lat="45.94167" lon="4.81295">
        <ele>247</ele>
        <time>2016-11-19T10:48:57Z</time>
      </trkpt>
      <trkpt lat="45.94165" lon="4.8128">
        <ele>247</ele>
        <time>2016-11-19T10:48:58Z</time>
      </trkpt>
      <trkpt lat="45.94164" lon="4.81265">
        <ele>248</ele>
        <time>2016-11-19T10:48:59Z</time>
      </trkpt>
      <trkpt lat="45.94162" lon="4.81251">
        <ele>249</ele>
        <time>2016-11-19T10:49:00Z</time>
      </trkpt>
      <trkpt lat="45.9416" lon="4.81235">
        <ele>247</ele>
        <time>2016-11-19T10:49:01Z</time>
      </trkpt>
      <trkpt lat="45.94159" lon="4.8122">
        <ele>245</ele>
        <time>2016-11-19T10:49:02Z</time>
      </trkpt>
      <trkpt lat="45.94156" lon="4.81205">
        <ele>245</ele>
        <time>2016-11-19T10:49:03Z</time>
      </trkpt>
      <trkpt lat="45.94153" lon="4.81191">
        <ele>245</ele>
        <time>2016-11-19T10:49:04Z</time>
      </trkpt>
      <trkpt lat="45.94148" lon="4.81178">
        <ele>245</ele>
        <time>2016-11-19T10:49:05Z</time>
      </trkpt>
      <trkpt lat="45.94144" lon="4.81165">
        <ele>245</ele>
        <time>2016-11-19T10:49:06Z</time>
      </trkpt>
      <trkpt lat="45.94138" lon="4.81154">
        <ele>244</ele>
        <time>2016-11-19T10:49:07Z</time>
      </trkpt>
      <trkpt lat="45.94133" lon="4.8114">
        <ele>244</ele>
        <time>2016-11-19T10:49:08Z</time>
      </trkpt>
      <trkpt lat="45.94127" lon="4.81129">
        <ele>243</ele>
        <time>2016-11-19T10:49:09Z</time>
      </trkpt>
      <trkpt lat="45.94122" lon="4.81117">
        <ele>243</ele>
        <time>2016-11-19T10:49:10Z</time>
      </trkpt>
      <trkpt lat="45.94116" lon="4.81107">
        <ele>243</ele>
        <time>2016-11-19T10:49:11Z</time>
      </trkpt>
      <trkpt lat="45.94111" lon="4.81098">
        <ele>242</ele>
        <time>2016-11-19T10:49:12Z</time>
      </trkpt>
      <trkpt lat="45.94107" lon="4.81086">
        <ele>241</ele>
        <time>2016-11-19T10:49:13Z</time>
      </trkpt>
      <trkpt lat="45.94101" lon="4.81074">
        <ele>242</ele>
        <time>2016-11-19T10:49:14Z</time>
      </trkpt>
      <trkpt lat="45.94093" lon="4.81061">
        <ele>243</ele>
        <time>2016-11-19T10:49:15Z</time>
      </trkpt>
      <trkpt lat="45.94088" lon="4.81049">
        <ele>243</ele>
        <time>2016-11-19T10:49:16Z</time>
      </trkpt>
      <trkpt lat="45.94084" lon="4.81037">
        <ele>244</ele>
        <time>2016-11-19T10:49:17Z</time>
      </trkpt>
      <trkpt lat="45.94081" lon="4.81025">
        <ele>234</ele>
        <time>2016-11-19T10:49:18Z</time>
      </trkpt>
      <trkpt lat="45.94077" lon="4.81013">
        <ele>236</ele>
        <time>2016-11-19T10:49:19Z</time>
      </trkpt>
      <trkpt lat="45.94074" lon="4.81">
        <ele>237</ele>
        <time>2016-11-19T10:49:20Z</time>
      </trkpt>
      <trkpt lat="45.94073" lon="4.80988">
        <ele>235</ele>
        <time>2016-11-19T10:49:21Z</time>
      </trkpt>
      <trkpt lat="45.94071" lon="4.80975">
        <ele>233</ele>
        <time>2016-11-19T10:49:22Z</time>
      </trkpt>
      <trkpt lat="45.9407" lon="4.80956">
        <ele>232</ele>
        <time>2016-11-19T10:49:23Z</time>
      </trkpt>
      <trkpt lat="45.94068" lon="4.80941">
        <ele>233</ele>
        <time>2016-11-19T10:49:24Z</time>
      </trkpt>
      <trkpt lat="45.94067" lon="4.80927">
        <ele>234</ele>
        <time>2016-11-19T10:49:25Z</time>
      </trkpt>
      <trkpt lat="45.94059" lon="4.80874">
        <ele>231</ele>
        <time>2016-11-19T10:49:29Z</time>
      </trkpt>
      <trkpt lat="45.94057" lon="4.80862">
        <ele>231</ele>
        <time>2016-11-19T10:49:30Z</time>
      </trkpt>
      <trkpt lat="45.94055" lon="4.80849">
        <ele>231</ele>
        <time>2016-11-19T10:49:31Z</time>
      </trkpt>
      <trkpt lat="45.94053" lon="4.80836">
        <ele>231</ele>
        <time>2016-11-19T10:49:32Z</time>
      </trkpt>
      <trkpt lat="45.94052" lon="4.80823">
        <ele>230</ele>
        <time>2016-11-19T10:49:33Z</time>
      </trkpt>
      <trkpt lat="45.9405" lon="4.8081">
        <ele>229</ele>
        <time>2016-11-19T10:49:34Z</time>
      </trkpt>
      <trkpt lat="45.94048" lon="4.80797">
        <ele>229</ele>
        <time>2016-11-19T10:49:35Z</time>
      </trkpt>
      <trkpt lat="45.94046" lon="4.80784">
        <ele>229</ele>
        <time>2016-11-19T10:49:36Z</time>
      </trkpt>
      <trkpt lat="45.94044" lon="4.80771">
        <ele>228</ele>
        <time>2016-11-19T10:49:37Z</time>
      </trkpt>
      <trkpt lat="45.94043" lon="4.80758">
        <ele>228</ele>
        <time>2016-11-19T10:49:38Z</time>
      </trkpt>
      <trkpt lat="45.94041" lon="4.80745">
        <ele>227</ele>
        <time>2016-11-19T10:49:39Z</time>
      </trkpt>
      <trkpt lat="45.9404" lon="4.80732">
        <ele>227</ele>
        <time>2016-11-19T10:49:40Z</time>
      </trkpt>
      <trkpt lat="45.94037" lon="4.80719">
        <ele>226</ele>
        <time>2016-11-19T10:49:41Z</time>
      </trkpt>
      <trkpt lat="45.94036" lon="4.80705">
        <ele>226</ele>
        <time>2016-11-19T10:49:42Z</time>
      </trkpt>
      <trkpt lat="45.94034" lon="4.80693">
        <ele>226</ele>
        <time>2016-11-19T10:49:43Z</time>
      </trkpt>
      <trkpt lat="45.94033" lon="4.8068">
        <ele>225</ele>
        <time>2016-11-19T10:49:44Z</time>
      </trkpt>
      <trkpt lat="45.94033" lon="4.80665">
        <ele>225</ele>
        <time>2016-11-19T10:49:45Z</time>
      </trkpt>
      <trkpt lat="45.94033" lon="4.8065">
        <ele>225</ele>
        <time>2016-11-19T10:49:46Z</time>
      </trkpt>
      <trkpt lat="45.94032" lon="4.80636">
        <ele>225</ele>
        <time>2016-11-19T10:49:47Z</time>
      </trkpt>
      <trkpt lat="45.94031" lon="4.80622">
        <ele>225</ele>
        <time>2016-11-19T10:49:48Z</time>
      </trkpt>
      <trkpt lat="45.9403" lon="4.80608">
        <ele>225</ele>
        <time>2016-11-19T10:49:49Z</time>
      </trkpt>
      <trkpt lat="45.94029" lon="4.80595">
        <ele>225</ele>
        <time>2016-11-19T10:49:50Z</time>
      </trkpt>
      <trkpt lat="45.94027" lon="4.80582">
        <ele>224</ele>
        <time>2016-11-19T10:49:51Z</time>
      </trkpt>
      <trkpt lat="45.94026" lon="4.80568">
        <ele>225</ele>
        <time>2016-11-19T10:49:52Z</time>
      </trkpt>
      <trkpt lat="45.94026" lon="4.80555">
        <ele>225</ele>
        <time>2016-11-19T10:49:53Z</time>
      </trkpt>
      <trkpt lat="45.94025" lon="4.80542">
        <ele>225</ele>
        <time>2016-11-19T10:49:54Z</time>
      </trkpt>
      <trkpt lat="45.94024" lon="4.80529">
        <ele>225</ele>
        <time>2016-11-19T10:49:55Z</time>
      </trkpt>
      <trkpt lat="45.94024" lon="4.80516">
        <ele>224</ele>
        <time>2016-11-19T10:49:56Z</time>
      </trkpt>
      <trkpt lat="45.94023" lon="4.80504">
        <ele>224</ele>
        <time>2016-11-19T10:49:57Z</time>
      </trkpt>
      <trkpt lat="45.94023" lon="4.80492">
        <ele>223</ele>
        <time>2016-11-19T10:49:58Z</time>
      </trkpt>
      <trkpt lat="45.94023" lon="4.80479">
        <ele>223</ele>
        <time>2016-11-19T10:49:59Z</time>
      </trkpt>
      <trkpt lat="45.94022" lon="4.80467">
        <ele>223</ele>
        <time>2016-11-19T10:50:00Z</time>
      </trkpt>
      <trkpt lat="45.94022" lon="4.80454">
        <ele>223</ele>
        <time>2016-11-19T10:50:01Z</time>
      </trkpt>
      <trkpt lat="45.9402" lon="4.80442">
        <ele>223</ele>
        <time>2016-11-19T10:50:02Z</time>
      </trkpt>
      <trkpt lat="45.94017" lon="4.80428">
        <ele>221</ele>
        <time>2016-11-19T10:50:03Z</time>
      </trkpt>
      <trkpt lat="45.94014" lon="4.80415">
        <ele>217</ele>
        <time>2016-11-19T10:50:04Z</time>
      </trkpt>
      <trkpt lat="45.94011" lon="4.80403">
        <ele>217</ele>
        <time>2016-11-19T10:50:05Z</time>
      </trkpt>
      <trkpt lat="45.94008" lon="4.8039">
        <ele>217</ele>
        <time>2016-11-19T10:50:06Z</time>
      </trkpt>
      <trkpt lat="45.94006" lon="4.80377">
        <ele>216</ele>
        <time>2016-11-19T10:50:07Z</time>
      </trkpt>
      <trkpt lat="45.94004" lon="4.80363">
        <ele>215</ele>
        <time>2016-11-19T10:50:08Z</time>
      </trkpt>
      <trkpt lat="45.94" lon="4.80349">
        <ele>212</ele>
        <time>2016-11-19T10:50:09Z</time>
      </trkpt>
      <trkpt lat="45.93997" lon="4.80334">
        <ele>206</ele>
        <time>2016-11-19T10:50:10Z</time>
      </trkpt>
      <trkpt lat="45.93994" lon="4.80321">
        <ele>204</ele>
        <time>2016-11-19T10:50:11Z</time>
      </trkpt>
      <trkpt lat="45.9399" lon="4.80309">
        <ele>203</ele>
        <time>2016-11-19T10:50:12Z</time>
      </trkpt>
      <trkpt lat="45.93987" lon="4.80296">
        <ele>203</ele>
        <time>2016-11-19T10:50:13Z</time>
      </trkpt>
      <trkpt lat="45.93983" lon="4.80284">
        <ele>203</ele>
        <time>2016-11-19T10:50:14Z</time>
      </trkpt>
      <trkpt lat="45.9398" lon="4.80272">
        <ele>203</ele>
        <time>2016-11-19T10:50:15Z</time>
      </trkpt>
      <trkpt lat="45.93976" lon="4.80259">
        <ele>203</ele>
        <time>2016-11-19T10:50:16Z</time>
      </trkpt>
      <trkpt lat="45.93973" lon="4.80247">
        <ele>204</ele>
        <time>2016-11-19T10:50:17Z</time>
      </trkpt>
      <trkpt lat="45.9397" lon="4.80235">
        <ele>205</ele>
        <time>2016-11-19T10:50:18Z</time>
      </trkpt>
      <trkpt lat="45.93966" lon="4.80223">
        <ele>205</ele>
        <time>2016-11-19T10:50:19Z</time>
      </trkpt>
      <trkpt lat="45.93962" lon="4.80212">
        <ele>205</ele>
        <time>2016-11-19T10:50:20Z</time>
      </trkpt>
      <trkpt lat="45.93959" lon="4.80201">
        <ele>206</ele>
        <time>2016-11-19T10:50:21Z</time>
      </trkpt>
      <trkpt lat="45.93956" lon="4.8019">
        <ele>206</ele>
        <time>2016-11-19T10:50:22Z</time>
      </trkpt>
      <trkpt lat="45.93954" lon="4.8018">
        <ele>206</ele>
        <time>2016-11-19T10:50:23Z</time>
      </trkpt>
      <trkpt lat="45.93952" lon="4.8017">
        <ele>206</ele>
        <time>2016-11-19T10:50:24Z</time>
      </trkpt>
      <trkpt lat="45.93951" lon="4.80161">
        <ele>208</ele>
        <time>2016-11-19T10:50:25Z</time>
      </trkpt>
      <trkpt lat="45.93949" lon="4.8015">
        <ele>209</ele>
        <time>2016-11-19T10:50:26Z</time>
      </trkpt>
      <trkpt lat="45.93948" lon="4.8014">
        <ele>209</ele>
        <time>2016-11-19T10:50:27Z</time>
      </trkpt>
      <trkpt lat="45.93947" lon="4.80131">
        <ele>209</ele>
        <time>2016-11-19T10:50:28Z</time>
      </trkpt>
      <trkpt lat="45.93945" lon="4.80122">
        <ele>209</ele>
        <time>2016-11-19T10:50:29Z</time>
      </trkpt>
      <trkpt lat="45.93944" lon="4.80112">
        <ele>209</ele>
        <time>2016-11-19T10:50:30Z</time>
      </trkpt>
      <trkpt lat="45.93944" lon="4.80103">
        <ele>209</ele>
        <time>2016-11-19T10:50:31Z</time>
      </trkpt>
      <trkpt lat="45.93943" lon="4.80094">
        <ele>208</ele>
        <time>2016-11-19T10:50:32Z</time>
      </trkpt>
      <trkpt lat="45.93942" lon="4.80085">
        <ele>208</ele>
        <time>2016-11-19T10:50:33Z</time>
      </trkpt>
      <trkpt lat="45.93942" lon="4.80076">
        <ele>208</ele>
        <time>2016-11-19T10:50:34Z</time>
      </trkpt>
      <trkpt lat="45.93942" lon="4.80066">
        <ele>208</ele>
        <time>2016-11-19T10:50:35Z</time>
      </trkpt>
      <trkpt lat="45.93943" lon="4.80057">
        <ele>208</ele>
        <time>2016-11-19T10:50:36Z</time>
      </trkpt>
      <trkpt lat="45.93943" lon="4.80047">
        <ele>207</ele>
        <time>2016-11-19T10:50:37Z</time>
      </trkpt>
      <trkpt lat="45.93944" lon="4.80039">
        <ele>207</ele>
        <time>2016-11-19T10:50:38Z</time>
      </trkpt>
      <trkpt lat="45.93945" lon="4.80029">
        <ele>207</ele>
        <time>2016-11-19T10:50:39Z</time>
      </trkpt>
      <trkpt lat="45.93946" lon="4.8002">
        <ele>207</ele>
        <time>2016-11-19T10:50:40Z</time>
      </trkpt>
      <trkpt lat="45.93947" lon="4.80011">
        <ele>206</ele>
        <time>2016-11-19T10:50:41Z</time>
      </trkpt>
      <trkpt lat="45.93949" lon="4.80001">
        <ele>206</ele>
        <time>2016-11-19T10:50:42Z</time>
      </trkpt>
      <trkpt lat="45.93949" lon="4.79991">
        <ele>205</ele>
        <time>2016-11-19T10:50:43Z</time>
      </trkpt>
      <trkpt lat="45.93951" lon="4.79982">
        <ele>205</ele>
        <time>2016-11-19T10:50:44Z</time>
      </trkpt>
      <trkpt lat="45.93952" lon="4.79972">
        <ele>205</ele>
        <time>2016-11-19T10:50:45Z</time>
      </trkpt>
      <trkpt lat="45.93953" lon="4.79962">
        <ele>205</ele>
        <time>2016-11-19T10:50:46Z</time>
      </trkpt>
      <trkpt lat="45.93954" lon="4.79951">
        <ele>205</ele>
        <time>2016-11-19T10:50:47Z</time>
      </trkpt>
      <trkpt lat="45.93955" lon="4.79942">
        <ele>205</ele>
        <time>2016-11-19T10:50:48Z</time>
      </trkpt>
      <trkpt lat="45.93955" lon="4.79932">
        <ele>205</ele>
        <time>2016-11-19T10:50:49Z</time>
      </trkpt>
      <trkpt lat="45.93956" lon="4.79923">
        <ele>205</ele>
        <time>2016-11-19T10:50:50Z</time>
      </trkpt>
      <trkpt lat="45.93958" lon="4.79914">
        <ele>205</ele>
        <time>2016-11-19T10:50:51Z</time>
      </trkpt>
      <trkpt lat="45.93959" lon="4.79905">
        <ele>206</ele>
        <time>2016-11-19T10:50:52Z</time>
      </trkpt>
      <trkpt lat="45.9396" lon="4.79896">
        <ele>206</ele>
        <time>2016-11-19T10:50:53Z</time>
      </trkpt>
      <trkpt lat="45.93961" lon="4.79888">
        <ele>206</ele>
        <time>2016-11-19T10:50:54Z</time>
      </trkpt>
      <trkpt lat="45.93963" lon="4.7988">
        <ele>206</ele>
        <time>2016-11-19T10:50:55Z</time>
      </trkpt>
      <trkpt lat="45.93964" lon="4.79871">
        <ele>206</ele>
        <time>2016-11-19T10:50:56Z</time>
      </trkpt>
      <trkpt lat="45.93966" lon="4.79863">
        <ele>206</ele>
        <time>2016-11-19T10:50:57Z</time>
      </trkpt>
      <trkpt lat="45.93969" lon="4.79853">
        <ele>206</ele>
        <time>2016-11-19T10:50:58Z</time>
      </trkpt>
      <trkpt lat="45.93973" lon="4.79841">
        <ele>207</ele>
        <time>2016-11-19T10:50:59Z</time>
      </trkpt>
      <trkpt lat="45.93973" lon="4.79834">
        <ele>207</ele>
        <time>2016-11-19T10:51:00Z</time>
      </trkpt>
      <trkpt lat="45.93974" lon="4.79826">
        <ele>207</ele>
        <time>2016-11-19T10:51:01Z</time>
      </trkpt>
      <trkpt lat="45.93974" lon="4.79818">
        <ele>207</ele>
        <time>2016-11-19T10:51:02Z</time>
      </trkpt>
      <trkpt lat="45.93975" lon="4.79809">
        <ele>207</ele>
        <time>2016-11-19T10:51:03Z</time>
      </trkpt>
      <trkpt lat="45.93975" lon="4.798">
        <ele>207</ele>
        <time>2016-11-19T10:51:04Z</time>
      </trkpt>
      <trkpt lat="45.93976" lon="4.79791">
        <ele>206</ele>
        <time>2016-11-19T10:51:05Z</time>
      </trkpt>
      <trkpt lat="45.93976" lon="4.79782">
        <ele>206</ele>
        <time>2016-11-19T10:51:06Z</time>
      </trkpt>
      <trkpt lat="45.93976" lon="4.79774">
        <ele>206</ele>
        <time>2016-11-19T10:51:07Z</time>
      </trkpt>
      <trkpt lat="45.93976" lon="4.79766">
        <ele>207</ele>
        <time>2016-11-19T10:51:08Z</time>
      </trkpt>
      <trkpt lat="45.93975" lon="4.79759">
        <ele>207</ele>
        <time>2016-11-19T10:51:09Z</time>
      </trkpt>
      <trkpt lat="45.93975" lon="4.79752">
        <ele>207</ele>
        <time>2016-11-19T10:51:10Z</time>
      </trkpt>
      <trkpt lat="45.93974" lon="4.79745">
        <ele>207</ele>
        <time>2016-11-19T10:51:11Z</time>
      </trkpt>
      <trkpt lat="45.93973" lon="4.79738">
        <ele>207</ele>
        <time>2016-11-19T10:51:12Z</time>
      </trkpt>
      <trkpt lat="45.93972" lon="4.79731">
        <ele>207</ele>
        <time>2016-11-19T10:51:13Z</time>
      </trkpt>
      <trkpt lat="45.93972" lon="4.79724">
        <ele>207</ele>
        <time>2016-11-19T10:51:14Z</time>
      </trkpt>
      <trkpt lat="45.93971" lon="4.79717">
        <ele>207</ele>
        <time>2016-11-19T10:51:15Z</time>
      </trkpt>
      <trkpt lat="45.93971" lon="4.7971">
        <ele>207</ele>
        <time>2016-11-19T10:51:16Z</time>
      </trkpt>
      <trkpt lat="45.9397" lon="4.79702">
        <ele>207</ele>
        <time>2016-11-19T10:51:17Z</time>
      </trkpt>
      <trkpt lat="45.93969" lon="4.79695">
        <ele>207</ele>
        <time>2016-11-19T10:51:18Z</time>
      </trkpt>
      <trkpt lat="45.93969" lon="4.79687">
        <ele>207</ele>
        <time>2016-11-19T10:51:19Z</time>
      </trkpt>
      <trkpt lat="45.93968" lon="4.79678">
        <ele>207</ele>
        <time>2016-11-19T10:51:20Z</time>
      </trkpt>
      <trkpt lat="45.93968" lon="4.79669">
        <ele>207</ele>
        <time>2016-11-19T10:51:21Z</time>
      </trkpt>
      <trkpt lat="45.93967" lon="4.7966">
        <ele>208</ele>
        <time>2016-11-19T10:51:22Z</time>
      </trkpt>
      <trkpt lat="45.93967" lon="4.79652">
        <ele>207</ele>
        <time>2016-11-19T10:51:23Z</time>
      </trkpt>
      <trkpt lat="45.93966" lon="4.79643">
        <ele>207</ele>
        <time>2016-11-19T10:51:24Z</time>
      </trkpt>
      <trkpt lat="45.93965" lon="4.79634">
        <ele>207</ele>
        <time>2016-11-19T10:51:25Z</time>
      </trkpt>
      <trkpt lat="45.93965" lon="4.79625">
        <ele>207</ele>
        <time>2016-11-19T10:51:26Z</time>
      </trkpt>
      <trkpt lat="45.93964" lon="4.79617">
        <ele>207</ele>
        <time>2016-11-19T10:51:27Z</time>
      </trkpt>
      <trkpt lat="45.93964" lon="4.79609">
        <ele>207</ele>
        <time>2016-11-19T10:51:28Z</time>
      </trkpt>
      <trkpt lat="45.93963" lon="4.79602">
        <ele>207</ele>
        <time>2016-11-19T10:51:29Z</time>
      </trkpt>
      <trkpt lat="45.93962" lon="4.79595">
        <ele>207</ele>
        <time>2016-11-19T10:51:30Z</time>
      </trkpt>
      <trkpt lat="45.93961" lon="4.79586">
        <ele>207</ele>
        <time>2016-11-19T10:51:31Z</time>
      </trkpt>
      <trkpt lat="45.9396" lon="4.79578">
        <ele>206</ele>
        <time>2016-11-19T10:51:32Z</time>
      </trkpt>
      <trkpt lat="45.93959" lon="4.7957">
        <ele>206</ele>
        <time>2016-11-19T10:51:33Z</time>
      </trkpt>
      <trkpt lat="45.93959" lon="4.79561">
        <ele>205</ele>
        <time>2016-11-19T10:51:34Z</time>
      </trkpt>
      <trkpt lat="45.93958" lon="4.79552">
        <ele>205</ele>
        <time>2016-11-19T10:51:35Z</time>
      </trkpt>
      <trkpt lat="45.93958" lon="4.79544">
        <ele>205</ele>
        <time>2016-11-19T10:51:36Z</time>
      </trkpt>
      <trkpt lat="45.93958" lon="4.79535">
        <ele>205</ele>
        <time>2016-11-19T10:51:37Z</time>
      </trkpt>
      <trkpt lat="45.93958" lon="4.79527">
        <ele>205</ele>
        <time>2016-11-19T10:51:38Z</time>
      </trkpt>
      <trkpt lat="45.93958" lon="4.79519">
        <ele>205</ele>
        <time>2016-11-19T10:51:39Z</time>
      </trkpt>
      <trkpt lat="45.93958" lon="4.79509">
        <ele>204</ele>
        <time>2016-11-19T10:51:40Z</time>
      </trkpt>
      <trkpt lat="45.93958" lon="4.79499">
        <ele>203</ele>
        <time>2016-11-19T10:51:41Z</time>
      </trkpt>
      <trkpt lat="45.93958" lon="4.79489">
        <ele>203</ele>
        <time>2016-11-19T10:51:42Z</time>
      </trkpt>
      <trkpt lat="45.93957" lon="4.79478">
        <ele>203</ele>
        <time>2016-11-19T10:51:43Z</time>
      </trkpt>
      <trkpt lat="45.93956" lon="4.79469">
        <ele>203</ele>
        <time>2016-11-19T10:51:44Z</time>
      </trkpt>
      <trkpt lat="45.93956" lon="4.79461">
        <ele>203</ele>
        <time>2016-11-19T10:51:45Z</time>
      </trkpt>
      <trkpt lat="45.93956" lon="4.79451">
        <ele>203</ele>
        <time>2016-11-19T10:51:46Z</time>
      </trkpt>
      <trkpt lat="45.93955" lon="4.79442">
        <ele>203</ele>
        <time>2016-11-19T10:51:47Z</time>
      </trkpt>
      <trkpt lat="45.93955" lon="4.79432">
        <ele>203</ele>
        <time>2016-11-19T10:51:48Z</time>
      </trkpt>
      <trkpt lat="45.93955" lon="4.79422">
        <ele>202</ele>
        <time>2016-11-19T10:51:49Z</time>
      </trkpt>
      <trkpt lat="45.93955" lon="4.79414">
        <ele>201</ele>
        <time>2016-11-19T10:51:50Z</time>
      </trkpt>
      <trkpt lat="45.93955" lon="4.79405">
        <ele>201</ele>
        <time>2016-11-19T10:51:51Z</time>
      </trkpt>
      <trkpt lat="45.93955" lon="4.79395">
        <ele>201</ele>
        <time>2016-11-19T10:51:52Z</time>
      </trkpt>
      <trkpt lat="45.93955" lon="4.79386">
        <ele>201</ele>
        <time>2016-11-19T10:51:53Z</time>
      </trkpt>
      <trkpt lat="45.93955" lon="4.79377">
        <ele>201</ele>
        <time>2016-11-19T10:51:54Z</time>
      </trkpt>
      <trkpt lat="45.93955" lon="4.79367">
        <ele>201</ele>
        <time>2016-11-19T10:51:55Z</time>
      </trkpt>
      <trkpt lat="45.93955" lon="4.79356">
        <ele>201</ele>
        <time>2016-11-19T10:51:56Z</time>
      </trkpt>
      <trkpt lat="45.93956" lon="4.79346">
        <ele>201</ele>
        <time>2016-11-19T10:51:57Z</time>
      </trkpt>
      <trkpt lat="45.93956" lon="4.79336">
        <ele>201</ele>
        <time>2016-11-19T10:51:58Z</time>
      </trkpt>
      <trkpt lat="45.93956" lon="4.79325">
        <ele>199</ele>
        <time>2016-11-19T10:51:59Z</time>
      </trkpt>
      <trkpt lat="45.93956" lon="4.79316">
        <ele>199</ele>
        <time>2016-11-19T10:52:00Z</time>
      </trkpt>
      <trkpt lat="45.93957" lon="4.79305">
        <ele>199</ele>
        <time>2016-11-19T10:52:01Z</time>
      </trkpt>
      <trkpt lat="45.93958" lon="4.79295">
        <ele>199</ele>
        <time>2016-11-19T10:52:02Z</time>
      </trkpt>
      <trkpt lat="45.93958" lon="4.79284">
        <ele>199</ele>
        <time>2016-11-19T10:52:03Z</time>
      </trkpt>
      <trkpt lat="45.93958" lon="4.79274">
        <ele>198</ele>
        <time>2016-11-19T10:52:04Z</time>
      </trkpt>
      <trkpt lat="45.93959" lon="4.79263">
        <ele>198</ele>
        <time>2016-11-19T10:52:05Z</time>
      </trkpt>
      <trkpt lat="45.93959" lon="4.79252">
        <ele>198</ele>
        <time>2016-11-19T10:52:06Z</time>
      </trkpt>
      <trkpt lat="45.93959" lon="4.79242">
        <ele>198</ele>
        <time>2016-11-19T10:52:07Z</time>
      </trkpt>
      <trkpt lat="45.93958" lon="4.79231">
        <ele>197</ele>
        <time>2016-11-19T10:52:08Z</time>
      </trkpt>
      <trkpt lat="45.93958" lon="4.79221">
        <ele>197</ele>
        <time>2016-11-19T10:52:09Z</time>
      </trkpt>
      <trkpt lat="45.93958" lon="4.79211">
        <ele>197</ele>
        <time>2016-11-19T10:52:10Z</time>
      </trkpt>
      <trkpt lat="45.93958" lon="4.792">
        <ele>197</ele>
        <time>2016-11-19T10:52:11Z</time>
      </trkpt>
      <trkpt lat="45.93957" lon="4.79191">
        <ele>197</ele>
        <time>2016-11-19T10:52:12Z</time>
      </trkpt>
      <trkpt lat="45.93956" lon="4.79182">
        <ele>197</ele>
        <time>2016-11-19T10:52:13Z</time>
      </trkpt>
      <trkpt lat="45.93956" lon="4.79173">
        <ele>197</ele>
        <time>2016-11-19T10:52:14Z</time>
      </trkpt>
      <trkpt lat="45.93956" lon="4.79163">
        <ele>197</ele>
        <time>2016-11-19T10:52:15Z</time>
      </trkpt>
      <trkpt lat="45.93956" lon="4.79153">
        <ele>197</ele>
        <time>2016-11-19T10:52:16Z</time>
      </trkpt>
      <trkpt lat="45.93956" lon="4.79143">
        <ele>197</ele>
        <time>2016-11-19T10:52:17Z</time>
      </trkpt>
      <trkpt lat="45.93956" lon="4.79134">
        <ele>197</ele>
        <time>2016-11-19T10:52:18Z</time>
      </trkpt>
      <trkpt lat="45.93955" lon="4.79125">
        <ele>197</ele>
        <time>2016-11-19T10:52:19Z</time>
      </trkpt>
      <trkpt lat="45.93955" lon="4.79116">
        <ele>197</ele>
        <time>2016-11-19T10:52:20Z</time>
      </trkpt>
      <trkpt lat="45.93954" lon="4.79107">
        <ele>197</ele>
        <time>2016-11-19T10:52:21Z</time>
      </trkpt>
      <trkpt lat="45.93953" lon="4.79098">
        <ele>197</ele>
        <time>2016-11-19T10:52:22Z</time>
      </trkpt>
      <trkpt lat="45.93952" lon="4.79089">
        <ele>197</ele>
        <time>2016-11-19T10:52:23Z</time>
      </trkpt>
      <trkpt lat="45.93952" lon="4.7908">
        <ele>196</ele>
        <time>2016-11-19T10:52:24Z</time>
      </trkpt>
      <trkpt lat="45.93951" lon="4.7907">
        <ele>196</ele>
        <time>2016-11-19T10:52:25Z</time>
      </trkpt>
      <trkpt lat="45.93951" lon="4.79061">
        <ele>196</ele>
        <time>2016-11-19T10:52:26Z</time>
      </trkpt>
      <trkpt lat="45.93951" lon="4.7905">
        <ele>196</ele>
        <time>2016-11-19T10:52:27Z</time>
      </trkpt>
      <trkpt lat="45.93951" lon="4.79041">
        <ele>196</ele>
        <time>2016-11-19T10:52:28Z</time>
      </trkpt>
      <trkpt lat="45.93952" lon="4.79032">
        <ele>196</ele>
        <time>2016-11-19T10:52:29Z</time>
      </trkpt>
      <trkpt lat="45.93951" lon="4.79023">
        <ele>196</ele>
        <time>2016-11-19T10:52:30Z</time>
      </trkpt>
      <trkpt lat="45.93951" lon="4.79014">
        <ele>195</ele>
        <time>2016-11-19T10:52:31Z</time>
      </trkpt>
      <trkpt lat="45.9395" lon="4.79005">
        <ele>195</ele>
        <time>2016-11-19T10:52:32Z</time>
      </trkpt>
      <trkpt lat="45.93948" lon="4.78996">
        <ele>194</ele>
        <time>2016-11-19T10:52:33Z</time>
      </trkpt>
      <trkpt lat="45.93947" lon="4.78987">
        <ele>194</ele>
        <time>2016-11-19T10:52:34Z</time>
      </trkpt>
      <trkpt lat="45.93946" lon="4.78978">
        <ele>194</ele>
        <time>2016-11-19T10:52:35Z</time>
      </trkpt>
      <trkpt lat="45.93946" lon="4.78968">
        <ele>194</ele>
        <time>2016-11-19T10:52:36Z</time>
      </trkpt>
      <trkpt lat="45.93946" lon="4.78958">
        <ele>194</ele>
        <time>2016-11-19T10:52:37Z</time>
      </trkpt>
      <trkpt lat="45.93946" lon="4.78948">
        <ele>194</ele>
        <time>2016-11-19T10:52:38Z</time>
      </trkpt>
      <trkpt lat="45.93946" lon="4.78937">
        <ele>194</ele>
        <time>2016-11-19T10:52:39Z</time>
      </trkpt>
      <trkpt lat="45.93946" lon="4.78927">
        <ele>194</ele>
        <time>2016-11-19T10:52:40Z</time>
      </trkpt>
      <trkpt lat="45.93945" lon="4.78917">
        <ele>193</ele>
        <time>2016-11-19T10:52:41Z</time>
      </trkpt>
      <trkpt lat="45.93945" lon="4.78907">
        <ele>193</ele>
        <time>2016-11-19T10:52:42Z</time>
      </trkpt>
      <trkpt lat="45.93945" lon="4.78897">
        <ele>194</ele>
        <time>2016-11-19T10:52:43Z</time>
      </trkpt>
      <trkpt lat="45.93944" lon="4.78887">
        <ele>194</ele>
        <time>2016-11-19T10:52:44Z</time>
      </trkpt>
      <trkpt lat="45.93943" lon="4.78877">
        <ele>194</ele>
        <time>2016-11-19T10:52:45Z</time>
      </trkpt>
      <trkpt lat="45.93943" lon="4.78867">
        <ele>194</ele>
        <time>2016-11-19T10:52:46Z</time>
      </trkpt>
      <trkpt lat="45.93942" lon="4.78858">
        <ele>194</ele>
        <time>2016-11-19T10:52:47Z</time>
      </trkpt>
      <trkpt lat="45.93942" lon="4.78849">
        <ele>194</ele>
        <time>2016-11-19T10:52:48Z</time>
      </trkpt>
      <trkpt lat="45.93941" lon="4.7884">
        <ele>193</ele>
        <time>2016-11-19T10:52:49Z</time>
      </trkpt>
      <trkpt lat="45.93941" lon="4.78831">
        <ele>194</ele>
        <time>2016-11-19T10:52:50Z</time>
      </trkpt>
      <trkpt lat="45.93941" lon="4.78822">
        <ele>194</ele>
        <time>2016-11-19T10:52:51Z</time>
      </trkpt>
      <trkpt lat="45.9394" lon="4.78814">
        <ele>194</ele>
        <time>2016-11-19T10:52:52Z</time>
      </trkpt>
      <trkpt lat="45.9394" lon="4.78805">
        <ele>194</ele>
        <time>2016-11-19T10:52:53Z</time>
      </trkpt>
      <trkpt lat="45.9394" lon="4.78797">
        <ele>194</ele>
        <time>2016-11-19T10:52:54Z</time>
      </trkpt>
      <trkpt lat="45.93941" lon="4.78788">
        <ele>194</ele>
        <time>2016-11-19T10:52:55Z</time>
      </trkpt>
      <trkpt lat="45.93941" lon="4.7878">
        <ele>194</ele>
        <time>2016-11-19T10:52:56Z</time>
      </trkpt>
      <trkpt lat="45.93941" lon="4.78772">
        <ele>194</ele>
        <time>2016-11-19T10:52:57Z</time>
      </trkpt>
      <trkpt lat="45.93942" lon="4.78764">
        <ele>194</ele>
        <time>2016-11-19T10:52:58Z</time>
      </trkpt>
      <trkpt lat="45.93941" lon="4.78756">
        <ele>193</ele>
        <time>2016-11-19T10:52:59Z</time>
      </trkpt>
      <trkpt lat="45.93941" lon="4.78749">
        <ele>194</ele>
        <time>2016-11-19T10:53:00Z</time>
      </trkpt>
      <trkpt lat="45.93942" lon="4.78741">
        <ele>194</ele>
        <time>2016-11-19T10:53:01Z</time>
      </trkpt>
      <trkpt lat="45.93941" lon="4.78733">
        <ele>194</ele>
        <time>2016-11-19T10:53:02Z</time>
      </trkpt>
      <trkpt lat="45.93942" lon="4.78725">
        <ele>194</ele>
        <time>2016-11-19T10:53:03Z</time>
      </trkpt>
      <trkpt lat="45.93942" lon="4.78718">
        <ele>194</ele>
        <time>2016-11-19T10:53:04Z</time>
      </trkpt>
      <trkpt lat="45.93942" lon="4.7871">
        <ele>194</ele>
        <time>2016-11-19T10:53:05Z</time>
      </trkpt>
      <trkpt lat="45.93943" lon="4.78701">
        <ele>194</ele>
        <time>2016-11-19T10:53:06Z</time>
      </trkpt>
      <trkpt lat="45.93941" lon="4.78693">
        <ele>194</ele>
        <time>2016-11-19T10:53:07Z</time>
      </trkpt>
      <trkpt lat="45.93941" lon="4.78684">
        <ele>194</ele>
        <time>2016-11-19T10:53:08Z</time>
      </trkpt>
      <trkpt lat="45.9394" lon="4.78674">
        <ele>194</ele>
        <time>2016-11-19T10:53:09Z</time>
      </trkpt>
      <trkpt lat="45.9394" lon="4.78666">
        <ele>194</ele>
        <time>2016-11-19T10:53:10Z</time>
      </trkpt>
      <trkpt lat="45.9394" lon="4.78657">
        <ele>194</ele>
        <time>2016-11-19T10:53:11Z</time>
      </trkpt>
      <trkpt lat="45.9394" lon="4.78648">
        <ele>195</ele>
        <time>2016-11-19T10:53:12Z</time>
      </trkpt>
      <trkpt lat="45.93939" lon="4.7864">
        <ele>195</ele>
        <time>2016-11-19T10:53:13Z</time>
      </trkpt>
      <trkpt lat="45.93939" lon="4.78632">
        <ele>195</ele>
        <time>2016-11-19T10:53:14Z</time>
      </trkpt>
      <trkpt lat="45.93939" lon="4.78624">
        <ele>196</ele>
        <time>2016-11-19T10:53:15Z</time>
      </trkpt>
      <trkpt lat="45.93939" lon="4.78617">
        <ele>196</ele>
        <time>2016-11-19T10:53:16Z</time>
      </trkpt>
      <trkpt lat="45.93939" lon="4.78609">
        <ele>196</ele>
        <time>2016-11-19T10:53:17Z</time>
      </trkpt>
      <trkpt lat="45.93938" lon="4.78602">
        <ele>196</ele>
        <time>2016-11-19T10:53:18Z</time>
      </trkpt>
      <trkpt lat="45.93938" lon="4.78596">
        <ele>195</ele>
        <time>2016-11-19T10:53:19Z</time>
      </trkpt>
      <trkpt lat="45.93937" lon="4.78584">
        <ele>195</ele>
        <time>2016-11-19T10:53:21Z</time>
      </trkpt>
      <trkpt lat="45.93936" lon="4.78578">
        <ele>196</ele>
        <time>2016-11-19T10:53:22Z</time>
      </trkpt>
      <trkpt lat="45.93934" lon="4.78568">
        <ele>196</ele>
        <time>2016-11-19T10:53:24Z</time>
      </trkpt>
      <trkpt lat="45.93934" lon="4.78563">
        <ele>196</ele>
        <time>2016-11-19T10:53:25Z</time>
      </trkpt>
      <trkpt lat="45.93933" lon="4.78551">
        <ele>197</ele>
        <time>2016-11-19T10:53:27Z</time>
      </trkpt>
      <trkpt lat="45.93933" lon="4.78545">
        <ele>197</ele>
        <time>2016-11-19T10:53:28Z</time>
      </trkpt>
      <trkpt lat="45.93933" lon="4.78533">
        <ele>197</ele>
        <time>2016-11-19T10:53:30Z</time>
      </trkpt>
      <trkpt lat="45.93934" lon="4.78526">
        <ele>197</ele>
        <time>2016-11-19T10:53:31Z</time>
      </trkpt>
      <trkpt lat="45.93934" lon="4.78519">
        <ele>197</ele>
        <time>2016-11-19T10:53:32Z</time>
      </trkpt>
      <trkpt lat="45.93935" lon="4.78513">
        <ele>197</ele>
        <time>2016-11-19T10:53:33Z</time>
      </trkpt>
      <trkpt lat="45.93936" lon="4.785">
        <ele>197</ele>
        <time>2016-11-19T10:53:35Z</time>
      </trkpt>
      <trkpt lat="45.93937" lon="4.78494">
        <ele>197</ele>
        <time>2016-11-19T10:53:36Z</time>
      </trkpt>
      <trkpt lat="45.93937" lon="4.78486">
        <ele>197</ele>
        <time>2016-11-19T10:53:37Z</time>
      </trkpt>
      <trkpt lat="45.93938" lon="4.7848">
        <ele>197</ele>
        <time>2016-11-19T10:53:38Z</time>
      </trkpt>
      <trkpt lat="45.93938" lon="4.78474">
        <ele>197</ele>
        <time>2016-11-19T10:53:39Z</time>
      </trkpt>
      <trkpt lat="45.9394" lon="4.78467">
        <ele>197</ele>
        <time>2016-11-19T10:53:40Z</time>
      </trkpt>
      <trkpt lat="45.93941" lon="4.7846">
        <ele>197</ele>
        <time>2016-11-19T10:53:41Z</time>
      </trkpt>
      <trkpt lat="45.93942" lon="4.78454">
        <ele>197</ele>
        <time>2016-11-19T10:53:42Z</time>
      </trkpt>
      <trkpt lat="45.93943" lon="4.78447">
        <ele>197</ele>
        <time>2016-11-19T10:53:43Z</time>
      </trkpt>
      <trkpt lat="45.93944" lon="4.7844">
        <ele>197</ele>
        <time>2016-11-19T10:53:44Z</time>
      </trkpt>
      <trkpt lat="45.93945" lon="4.78433">
        <ele>197</ele>
        <time>2016-11-19T10:53:45Z</time>
      </trkpt>
      <trkpt lat="45.93945" lon="4.78426">
        <ele>197</ele>
        <time>2016-11-19T10:53:46Z</time>
      </trkpt>
      <trkpt lat="45.93946" lon="4.7842">
        <ele>197</ele>
        <time>2016-11-19T10:53:47Z</time>
      </trkpt>
      <trkpt lat="45.93947" lon="4.78414">
        <ele>196</ele>
        <time>2016-11-19T10:53:48Z</time>
      </trkpt>
      <trkpt lat="45.93948" lon="4.78407">
        <ele>196</ele>
        <time>2016-11-19T10:53:49Z</time>
      </trkpt>
      <trkpt lat="45.93949" lon="4.78401">
        <ele>196</ele>
        <time>2016-11-19T10:53:50Z</time>
      </trkpt>
      <trkpt lat="45.93951" lon="4.78394">
        <ele>196</ele>
        <time>2016-11-19T10:53:51Z</time>
      </trkpt>
      <trkpt lat="45.93952" lon="4.78387">
        <ele>196</ele>
        <time>2016-11-19T10:53:52Z</time>
      </trkpt>
      <trkpt lat="45.93953" lon="4.7838">
        <ele>196</ele>
        <time>2016-11-19T10:53:53Z</time>
      </trkpt>
      <trkpt lat="45.93954" lon="4.78373">
        <ele>196</ele>
        <time>2016-11-19T10:53:54Z</time>
      </trkpt>
      <trkpt lat="45.93955" lon="4.78366">
        <ele>196</ele>
        <time>2016-11-19T10:53:55Z</time>
      </trkpt>
      <trkpt lat="45.93957" lon="4.78358">
        <ele>196</ele>
        <time>2016-11-19T10:53:56Z</time>
      </trkpt>
      <trkpt lat="45.93958" lon="4.78351">
        <ele>196</ele>
        <time>2016-11-19T10:53:57Z</time>
      </trkpt>
      <trkpt lat="45.93959" lon="4.78344">
        <ele>196</ele>
        <time>2016-11-19T10:53:58Z</time>
      </trkpt>
      <trkpt lat="45.93961" lon="4.78332">
        <ele>195</ele>
        <time>2016-11-19T10:54:00Z</time>
      </trkpt>
      <trkpt lat="45.93962" lon="4.78326">
        <ele>196</ele>
        <time>2016-11-19T10:54:01Z</time>
      </trkpt>
      <trkpt lat="45.93964" lon="4.78314">
        <ele>196</ele>
        <time>2016-11-19T10:54:03Z</time>
      </trkpt>
      <trkpt lat="45.93965" lon="4.78308">
        <ele>196</ele>
        <time>2016-11-19T10:54:04Z</time>
      </trkpt>
      <trkpt lat="45.93966" lon="4.78302">
        <ele>196</ele>
        <time>2016-11-19T10:54:05Z</time>
      </trkpt>
      <trkpt lat="45.93967" lon="4.78295">
        <ele>196</ele>
        <time>2016-11-19T10:54:06Z</time>
      </trkpt>
      <trkpt lat="45.93968" lon="4.78288">
        <ele>196</ele>
        <time>2016-11-19T10:54:07Z</time>
      </trkpt>
      <trkpt lat="45.93968" lon="4.78282">
        <ele>196</ele>
        <time>2016-11-19T10:54:08Z</time>
      </trkpt>
      <trkpt lat="45.93969" lon="4.78275">
        <ele>196</ele>
        <time>2016-11-19T10:54:09Z</time>
      </trkpt>
      <trkpt lat="45.93969" lon="4.78268">
        <ele>196</ele>
        <time>2016-11-19T10:54:10Z</time>
      </trkpt>
      <trkpt lat="45.93969" lon="4.78262">
        <ele>196</ele>
        <time>2016-11-19T10:54:11Z</time>
      </trkpt>
      <trkpt lat="45.9397" lon="4.78254">
        <ele>196</ele>
        <time>2016-11-19T10:54:12Z</time>
      </trkpt>
      <trkpt lat="45.93971" lon="4.78247">
        <ele>196</ele>
        <time>2016-11-19T10:54:13Z</time>
      </trkpt>
      <trkpt lat="45.93969" lon="4.78241">
        <ele>196</ele>
        <time>2016-11-19T10:54:14Z</time>
      </trkpt>
      <trkpt lat="45.93969" lon="4.78228">
        <ele>196</ele>
        <time>2016-11-19T10:54:16Z</time>
      </trkpt>
      <trkpt lat="45.93969" lon="4.78222">
        <ele>196</ele>
        <time>2016-11-19T10:54:17Z</time>
      </trkpt>
      <trkpt lat="45.93969" lon="4.78209">
        <ele>196</ele>
        <time>2016-11-19T10:54:19Z</time>
      </trkpt>
      <trkpt lat="45.93971" lon="4.78203">
        <ele>196</ele>
        <time>2016-11-19T10:54:20Z</time>
      </trkpt>
      <trkpt lat="45.93973" lon="4.7819">
        <ele>197</ele>
        <time>2016-11-19T10:54:22Z</time>
      </trkpt>
      <trkpt lat="45.93975" lon="4.78184">
        <ele>197</ele>
        <time>2016-11-19T10:54:23Z</time>
      </trkpt>
      <trkpt lat="45.93978" lon="4.78178">
        <ele>198</ele>
        <time>2016-11-19T10:54:24Z</time>
      </trkpt>
      <trkpt lat="45.93986" lon="4.78168">
        <ele>199</ele>
        <time>2016-11-19T10:54:26Z</time>
      </trkpt>
      <trkpt lat="45.93991" lon="4.78158">
        <ele>199</ele>
        <time>2016-11-19T10:54:28Z</time>
      </trkpt>
      <trkpt lat="45.93991" lon="4.78153">
        <ele>198</ele>
        <time>2016-11-19T10:54:29Z</time>
      </trkpt>
      <trkpt lat="45.9399" lon="4.78142">
        <ele>198</ele>
        <time>2016-11-19T10:54:31Z</time>
      </trkpt>
      <trkpt lat="45.93991" lon="4.78136">
        <ele>197</ele>
        <time>2016-11-19T10:54:32Z</time>
      </trkpt>
      <trkpt lat="45.93993" lon="4.78125">
        <ele>197</ele>
        <time>2016-11-19T10:54:34Z</time>
      </trkpt>
      <trkpt lat="45.93995" lon="4.78118">
        <ele>197</ele>
        <time>2016-11-19T10:54:35Z</time>
      </trkpt>
      <trkpt lat="45.93995" lon="4.78111">
        <ele>197</ele>
        <time>2016-11-19T10:54:36Z</time>
      </trkpt>
      <trkpt lat="45.93997" lon="4.78105">
        <ele>197</ele>
        <time>2016-11-19T10:54:37Z</time>
      </trkpt>
      <trkpt lat="45.93998" lon="4.78098">
        <ele>198</ele>
        <time>2016-11-19T10:54:38Z</time>
      </trkpt>
      <trkpt lat="45.94" lon="4.78091">
        <ele>198</ele>
        <time>2016-11-19T10:54:39Z</time>
      </trkpt>
      <trkpt lat="45.94" lon="4.78084">
        <ele>199</ele>
        <time>2016-11-19T10:54:40Z</time>
      </trkpt>
      <trkpt lat="45.94002" lon="4.78077">
        <ele>200</ele>
        <time>2016-11-19T10:54:41Z</time>
      </trkpt>
      <trkpt lat="45.94003" lon="4.7807">
        <ele>200</ele>
        <time>2016-11-19T10:54:42Z</time>
      </trkpt>
      <trkpt lat="45.94005" lon="4.78063">
        <ele>201</ele>
        <time>2016-11-19T10:54:43Z</time>
      </trkpt>
      <trkpt lat="45.94007" lon="4.78057">
        <ele>201</ele>
        <time>2016-11-19T10:54:44Z</time>
      </trkpt>
      <trkpt lat="45.94008" lon="4.7805">
        <ele>201</ele>
        <time>2016-11-19T10:54:45Z</time>
      </trkpt>
      <trkpt lat="45.94011" lon="4.78039">
        <ele>201</ele>
        <time>2016-11-19T10:54:47Z</time>
      </trkpt>
      <trkpt lat="45.94012" lon="4.78032">
        <ele>201</ele>
        <time>2016-11-19T10:54:48Z</time>
      </trkpt>
      <trkpt lat="45.94013" lon="4.78026">
        <ele>201</ele>
        <time>2016-11-19T10:54:49Z</time>
      </trkpt>
      <trkpt lat="45.94013" lon="4.78019">
        <ele>200</ele>
        <time>2016-11-19T10:54:50Z</time>
      </trkpt>
      <trkpt lat="45.94014" lon="4.78012">
        <ele>200</ele>
        <time>2016-11-19T10:54:51Z</time>
      </trkpt>
      <trkpt lat="45.94015" lon="4.78004">
        <ele>199</ele>
        <time>2016-11-19T10:54:52Z</time>
      </trkpt>
      <trkpt lat="45.94016" lon="4.77997">
        <ele>199</ele>
        <time>2016-11-19T10:54:53Z</time>
      </trkpt>
      <trkpt lat="45.94017" lon="4.7799">
        <ele>199</ele>
        <time>2016-11-19T10:54:54Z</time>
      </trkpt>
      <trkpt lat="45.94018" lon="4.77983">
        <ele>200</ele>
        <time>2016-11-19T10:54:55Z</time>
      </trkpt>
      <trkpt lat="45.9402" lon="4.77975">
        <ele>200</ele>
        <time>2016-11-19T10:54:56Z</time>
      </trkpt>
      <trkpt lat="45.94021" lon="4.77968">
        <ele>200</ele>
        <time>2016-11-19T10:54:57Z</time>
      </trkpt>
      <trkpt lat="45.94022" lon="4.77961">
        <ele>200</ele>
        <time>2016-11-19T10:54:58Z</time>
      </trkpt>
      <trkpt lat="45.94025" lon="4.7795">
        <ele>200</ele>
        <time>2016-11-19T10:55:00Z</time>
      </trkpt>
      <trkpt lat="45.94027" lon="4.77944">
        <ele>200</ele>
        <time>2016-11-19T10:55:01Z</time>
      </trkpt>
      <trkpt lat="45.94027" lon="4.77932">
        <ele>200</ele>
        <time>2016-11-19T10:55:03Z</time>
      </trkpt>
      <trkpt lat="45.94026" lon="4.77927">
        <ele>199</ele>
        <time>2016-11-19T10:55:04Z</time>
      </trkpt>
      <trkpt lat="45.94018" lon="4.77923">
        <ele>198</ele>
        <time>2016-11-19T10:55:06Z</time>
      </trkpt>
      <trkpt lat="45.94012" lon="4.77922">
        <ele>197</ele>
        <time>2016-11-19T10:55:07Z</time>
      </trkpt>
      <trkpt lat="45.94005" lon="4.77923">
        <ele>196</ele>
        <time>2016-11-19T10:55:08Z</time>
      </trkpt>
      <trkpt lat="45.93999" lon="4.77925">
        <ele>193</ele>
        <time>2016-11-19T10:55:09Z</time>
      </trkpt>
      <trkpt lat="45.93992" lon="4.77928">
        <ele>192</ele>
        <time>2016-11-19T10:55:10Z</time>
      </trkpt>
      <trkpt lat="45.93985" lon="4.77932">
        <ele>192</ele>
        <time>2016-11-19T10:55:11Z</time>
      </trkpt>
      <trkpt lat="45.93978" lon="4.77936">
        <ele>191</ele>
        <time>2016-11-19T10:55:12Z</time>
      </trkpt>
      <trkpt lat="45.9397" lon="4.7794">
        <ele>191</ele>
        <time>2016-11-19T10:55:13Z</time>
      </trkpt>
      <trkpt lat="45.93963" lon="4.77945">
        <ele>190</ele>
        <time>2016-11-19T10:55:14Z</time>
      </trkpt>
      <trkpt lat="45.93956" lon="4.7795">
        <ele>190</ele>
        <time>2016-11-19T10:55:15Z</time>
      </trkpt>
      <trkpt lat="45.93949" lon="4.77956">
        <ele>189</ele>
        <time>2016-11-19T10:55:16Z</time>
      </trkpt>
      <trkpt lat="45.93941" lon="4.77961">
        <ele>189</ele>
        <time>2016-11-19T10:55:17Z</time>
      </trkpt>
      <trkpt lat="45.93934" lon="4.77966">
        <ele>189</ele>
        <time>2016-11-19T10:55:18Z</time>
      </trkpt>
      <trkpt lat="45.93927" lon="4.77971">
        <ele>188</ele>
        <time>2016-11-19T10:55:19Z</time>
      </trkpt>
      <trkpt lat="45.93921" lon="4.77977">
        <ele>188</ele>
        <time>2016-11-19T10:55:20Z</time>
      </trkpt>
      <trkpt lat="45.93913" lon="4.77983">
        <ele>183</ele>
        <time>2016-11-19T10:55:21Z</time>
      </trkpt>
      <trkpt lat="45.93907" lon="4.7799">
        <ele>183</ele>
        <time>2016-11-19T10:55:22Z</time>
      </trkpt>
      <trkpt lat="45.93901" lon="4.77994">
        <ele>183</ele>
        <time>2016-11-19T10:55:23Z</time>
      </trkpt>
      <trkpt lat="45.93896" lon="4.77998">
        <ele>182</ele>
        <time>2016-11-19T10:55:24Z</time>
      </trkpt>
      <trkpt lat="45.93891" lon="4.78004">
        <ele>184</ele>
        <time>2016-11-19T10:55:25Z</time>
      </trkpt>
      <trkpt lat="45.93885" lon="4.78012">
        <ele>184</ele>
        <time>2016-11-19T10:55:27Z</time>
      </trkpt>
      <trkpt lat="45.93882" lon="4.78012">
        <ele>184</ele>
        <time>2016-11-19T10:55:28Z</time>
      </trkpt>
      <trkpt lat="45.93876" lon="4.7801">
        <ele>183</ele>
        <time>2016-11-19T10:55:30Z</time>
      </trkpt>
      <trkpt lat="45.93873" lon="4.78006">
        <ele>183</ele>
        <time>2016-11-19T10:55:31Z</time>
      </trkpt>
      <trkpt lat="45.93866" lon="4.77998">
        <ele>180</ele>
        <time>2016-11-19T10:55:33Z</time>
      </trkpt>
      <trkpt lat="45.93862" lon="4.77993">
        <ele>179</ele>
        <time>2016-11-19T10:55:34Z</time>
      </trkpt>
      <trkpt lat="45.93855" lon="4.77987">
        <ele>179</ele>
        <time>2016-11-19T10:55:36Z</time>
      </trkpt>
      <trkpt lat="45.93851" lon="4.77983">
        <ele>179</ele>
        <time>2016-11-19T10:55:37Z</time>
      </trkpt>
      <trkpt lat="45.93847" lon="4.77978">
        <ele>178</ele>
        <time>2016-11-19T10:55:38Z</time>
      </trkpt>
      <trkpt lat="45.93844" lon="4.77973">
        <ele>178</ele>
        <time>2016-11-19T10:55:39Z</time>
      </trkpt>
      <trkpt lat="45.93841" lon="4.77968">
        <ele>177</ele>
        <time>2016-11-19T10:55:40Z</time>
      </trkpt>
      <trkpt lat="45.93837" lon="4.77964">
        <ele>177</ele>
        <time>2016-11-19T10:55:41Z</time>
      </trkpt>
      <trkpt lat="45.93832" lon="4.7796">
        <ele>171</ele>
        <time>2016-11-19T10:55:42Z</time>
      </trkpt>
      <trkpt lat="45.93828" lon="4.77955">
        <ele>170</ele>
        <time>2016-11-19T10:55:43Z</time>
      </trkpt>
      <trkpt lat="45.93824" lon="4.77951">
        <ele>170</ele>
        <time>2016-11-19T10:55:44Z</time>
      </trkpt>
      <trkpt lat="45.9382" lon="4.77947">
        <ele>169</ele>
        <time>2016-11-19T10:55:45Z</time>
      </trkpt>
      <trkpt lat="45.93816" lon="4.77941">
        <ele>169</ele>
        <time>2016-11-19T10:55:46Z</time>
      </trkpt>
      <trkpt lat="45.93811" lon="4.77937">
        <ele>169</ele>
        <time>2016-11-19T10:55:47Z</time>
      </trkpt>
      <trkpt lat="45.93807" lon="4.77933">
        <ele>168</ele>
        <time>2016-11-19T10:55:48Z</time>
      </trkpt>
      <trkpt lat="45.93803" lon="4.77928">
        <ele>168</ele>
        <time>2016-11-19T10:55:49Z</time>
      </trkpt>
      <trkpt lat="45.938" lon="4.77923">
        <ele>168</ele>
        <time>2016-11-19T10:55:50Z</time>
      </trkpt>
      <trkpt lat="45.93795" lon="4.77919">
        <ele>168</ele>
        <time>2016-11-19T10:55:51Z</time>
      </trkpt>
      <trkpt lat="45.93791" lon="4.77914">
        <ele>166</ele>
        <time>2016-11-19T10:55:52Z</time>
      </trkpt>
      <trkpt lat="45.93786" lon="4.77909">
        <ele>166</ele>
        <time>2016-11-19T10:55:53Z</time>
      </trkpt>
      <trkpt lat="45.93783" lon="4.77905">
        <ele>166</ele>
        <time>2016-11-19T10:55:54Z</time>
      </trkpt>
      <trkpt lat="45.93779" lon="4.779">
        <ele>166</ele>
        <time>2016-11-19T10:55:55Z</time>
      </trkpt>
      <trkpt lat="45.93776" lon="4.77895">
        <ele>166</ele>
        <time>2016-11-19T10:55:56Z</time>
      </trkpt>
      <trkpt lat="45.93772" lon="4.7789">
        <ele>166</ele>
        <time>2016-11-19T10:55:57Z</time>
      </trkpt>
      <trkpt lat="45.93769" lon="4.77885">
        <ele>166</ele>
        <time>2016-11-19T10:55:58Z</time>
      </trkpt>
      <trkpt lat="45.93766" lon="4.77881">
        <ele>166</ele>
        <time>2016-11-19T10:55:59Z</time>
      </trkpt>
      <trkpt lat="45.93762" lon="4.77877">
        <ele>166</ele>
        <time>2016-11-19T10:56:00Z</time>
      </trkpt>
      <trkpt lat="45.93759" lon="4.77872">
        <ele>166</ele>
        <time>2016-11-19T10:56:01Z</time>
      </trkpt>
      <trkpt lat="45.93755" lon="4.77868">
        <ele>166</ele>
        <time>2016-11-19T10:56:02Z</time>
      </trkpt>
      <trkpt lat="45.93752" lon="4.77863">
        <ele>166</ele>
        <time>2016-11-19T10:56:03Z</time>
      </trkpt>
      <trkpt lat="45.93748" lon="4.77859">
        <ele>167</ele>
        <time>2016-11-19T10:56:04Z</time>
      </trkpt>
      <trkpt lat="45.93744" lon="4.77854">
        <ele>167</ele>
        <time>2016-11-19T10:56:05Z</time>
      </trkpt>
      <trkpt lat="45.93741" lon="4.77849">
        <ele>167</ele>
        <time>2016-11-19T10:56:06Z</time>
      </trkpt>
      <trkpt lat="45.93737" lon="4.77843">
        <ele>167</ele>
        <time>2016-11-19T10:56:07Z</time>
      </trkpt>
      <trkpt lat="45.93733" lon="4.77838">
        <ele>167</ele>
        <time>2016-11-19T10:56:08Z</time>
      </trkpt>
      <trkpt lat="45.93729" lon="4.77833">
        <ele>168</ele>
        <time>2016-11-19T10:56:09Z</time>
      </trkpt>
      <trkpt lat="45.93726" lon="4.77827">
        <ele>168</ele>
        <time>2016-11-19T10:56:10Z</time>
      </trkpt>
      <trkpt lat="45.93722" lon="4.77822">
        <ele>168</ele>
        <time>2016-11-19T10:56:11Z</time>
      </trkpt>
      <trkpt lat="45.93717" lon="4.77816">
        <ele>169</ele>
        <time>2016-11-19T10:56:12Z</time>
      </trkpt>
      <trkpt lat="45.93713" lon="4.77811">
        <ele>169</ele>
        <time>2016-11-19T10:56:13Z</time>
      </trkpt>
      <trkpt lat="45.93709" lon="4.77806">
        <ele>169</ele>
        <time>2016-11-19T10:56:14Z</time>
      </trkpt>
      <trkpt lat="45.93705" lon="4.778">
        <ele>169</ele>
        <time>2016-11-19T10:56:15Z</time>
      </trkpt>
      <trkpt lat="45.937" lon="4.77795">
        <ele>169</ele>
        <time>2016-11-19T10:56:16Z</time>
      </trkpt>
      <trkpt lat="45.93696" lon="4.77789">
        <ele>169</ele>
        <time>2016-11-19T10:56:17Z</time>
      </trkpt>
      <trkpt lat="45.93692" lon="4.77783">
        <ele>170</ele>
        <time>2016-11-19T10:56:18Z</time>
      </trkpt>
      <trkpt lat="45.93687" lon="4.77778">
        <ele>170</ele>
        <time>2016-11-19T10:56:19Z</time>
      </trkpt>
      <trkpt lat="45.93683" lon="4.77772">
        <ele>170</ele>
        <time>2016-11-19T10:56:20Z</time>
      </trkpt>
      <trkpt lat="45.93679" lon="4.77766">
        <ele>170</ele>
        <time>2016-11-19T10:56:21Z</time>
      </trkpt>
      <trkpt lat="45.93674" lon="4.7776">
        <ele>170</ele>
        <time>2016-11-19T10:56:22Z</time>
      </trkpt>
      <trkpt lat="45.93668" lon="4.77753">
        <ele>171</ele>
        <time>2016-11-19T10:56:23Z</time>
      </trkpt>
      <trkpt lat="45.93664" lon="4.77746">
        <ele>171</ele>
        <time>2016-11-19T10:56:24Z</time>
      </trkpt>
      <trkpt lat="45.9366" lon="4.77739">
        <ele>170</ele>
        <time>2016-11-19T10:56:25Z</time>
      </trkpt>
      <trkpt lat="45.93655" lon="4.77731">
        <ele>170</ele>
        <time>2016-11-19T10:56:26Z</time>
      </trkpt>
      <trkpt lat="45.9365" lon="4.77724">
        <ele>170</ele>
        <time>2016-11-19T10:56:27Z</time>
      </trkpt>
      <trkpt lat="45.93644" lon="4.77716">
        <ele>170</ele>
        <time>2016-11-19T10:56:28Z</time>
      </trkpt>
      <trkpt lat="45.93639" lon="4.77708">
        <ele>170</ele>
        <time>2016-11-19T10:56:29Z</time>
      </trkpt>
      <trkpt lat="45.93635" lon="4.777">
        <ele>169</ele>
        <time>2016-11-19T10:56:30Z</time>
      </trkpt>
      <trkpt lat="45.93631" lon="4.77691">
        <ele>169</ele>
        <time>2016-11-19T10:56:31Z</time>
      </trkpt>
      <trkpt lat="45.93627" lon="4.77683">
        <ele>169</ele>
        <time>2016-11-19T10:56:32Z</time>
      </trkpt>
      <trkpt lat="45.93624" lon="4.77674">
        <ele>169</ele>
        <time>2016-11-19T10:56:33Z</time>
      </trkpt>
      <trkpt lat="45.9362" lon="4.77666">
        <ele>169</ele>
        <time>2016-11-19T10:56:34Z</time>
      </trkpt>
      <trkpt lat="45.93616" lon="4.77658">
        <ele>169</ele>
        <time>2016-11-19T10:56:35Z</time>
      </trkpt>
      <trkpt lat="45.93613" lon="4.77649">
        <ele>169</ele>
        <time>2016-11-19T10:56:36Z</time>
      </trkpt>
      <trkpt lat="45.9361" lon="4.77641">
        <ele>169</ele>
        <time>2016-11-19T10:56:37Z</time>
      </trkpt>
      <trkpt lat="45.93607" lon="4.77633">
        <ele>169</ele>
        <time>2016-11-19T10:56:38Z</time>
      </trkpt>
      <trkpt lat="45.93604" lon="4.77626">
        <ele>169</ele>
        <time>2016-11-19T10:56:39Z</time>
      </trkpt>
      <trkpt lat="45.93602" lon="4.77618">
        <ele>170</ele>
        <time>2016-11-19T10:56:40Z</time>
      </trkpt>
      <trkpt lat="45.93599" lon="4.77611">
        <ele>170</ele>
        <time>2016-11-19T10:56:41Z</time>
      </trkpt>
      <trkpt lat="45.93597" lon="4.77603">
        <ele>170</ele>
        <time>2016-11-19T10:56:42Z</time>
      </trkpt>
      <trkpt lat="45.93594" lon="4.77596">
        <ele>170</ele>
        <time>2016-11-19T10:56:43Z</time>
      </trkpt>
      <trkpt lat="45.93592" lon="4.77588">
        <ele>170</ele>
        <time>2016-11-19T10:56:44Z</time>
      </trkpt>
      <trkpt lat="45.93589" lon="4.77581">
        <ele>170</ele>
        <time>2016-11-19T10:56:45Z</time>
      </trkpt>
      <trkpt lat="45.93586" lon="4.77573">
        <ele>170</ele>
        <time>2016-11-19T10:56:46Z</time>
      </trkpt>
      <trkpt lat="45.93584" lon="4.77565">
        <ele>170</ele>
        <time>2016-11-19T10:56:47Z</time>
      </trkpt>
      <trkpt lat="45.93582" lon="4.77557">
        <ele>169</ele>
        <time>2016-11-19T10:56:48Z</time>
      </trkpt>
      <trkpt lat="45.9358" lon="4.77548">
        <ele>169</ele>
        <time>2016-11-19T10:56:49Z</time>
      </trkpt>
      <trkpt lat="45.93577" lon="4.7754">
        <ele>169</ele>
        <time>2016-11-19T10:56:50Z</time>
      </trkpt>
      <trkpt lat="45.93575" lon="4.77531">
        <ele>169</ele>
        <time>2016-11-19T10:56:51Z</time>
      </trkpt>
      <trkpt lat="45.93573" lon="4.77523">
        <ele>169</ele>
        <time>2016-11-19T10:56:52Z</time>
      </trkpt>
      <trkpt lat="45.93571" lon="4.77514">
        <ele>169</ele>
        <time>2016-11-19T10:56:53Z</time>
      </trkpt>
      <trkpt lat="45.93569" lon="4.77506">
        <ele>169</ele>
        <time>2016-11-19T10:56:54Z</time>
      </trkpt>
      <trkpt lat="45.93568" lon="4.77499">
        <ele>169</ele>
        <time>2016-11-19T10:56:55Z</time>
      </trkpt>
      <trkpt lat="45.93566" lon="4.77491">
        <ele>169</ele>
        <time>2016-11-19T10:56:56Z</time>
      </trkpt>
      <trkpt lat="45.93565" lon="4.77484">
        <ele>169</ele>
        <time>2016-11-19T10:56:57Z</time>
      </trkpt>
      <trkpt lat="45.93563" lon="4.77477">
        <ele>169</ele>
        <time>2016-11-19T10:56:58Z</time>
      </trkpt>
      <trkpt lat="45.93562" lon="4.7747">
        <ele>169</ele>
        <time>2016-11-19T10:56:59Z</time>
      </trkpt>
      <trkpt lat="45.93561" lon="4.77463">
        <ele>169</ele>
        <time>2016-11-19T10:57:00Z</time>
      </trkpt>
      <trkpt lat="45.93559" lon="4.77455">
        <ele>169</ele>
        <time>2016-11-19T10:57:01Z</time>
      </trkpt>
      <trkpt lat="45.93558" lon="4.77448">
        <ele>169</ele>
        <time>2016-11-19T10:57:02Z</time>
      </trkpt>
      <trkpt lat="45.93556" lon="4.7744">
        <ele>169</ele>
        <time>2016-11-19T10:57:03Z</time>
      </trkpt>
      <trkpt lat="45.93555" lon="4.77432">
        <ele>170</ele>
        <time>2016-11-19T10:57:04Z</time>
      </trkpt>
      <trkpt lat="45.93553" lon="4.77424">
        <ele>170</ele>
        <time>2016-11-19T10:57:05Z</time>
      </trkpt>
      <trkpt lat="45.93551" lon="4.77416">
        <ele>170</ele>
        <time>2016-11-19T10:57:06Z</time>
      </trkpt>
      <trkpt lat="45.93548" lon="4.77408">
        <ele>170</ele>
        <time>2016-11-19T10:57:07Z</time>
      </trkpt>
      <trkpt lat="45.93546" lon="4.774">
        <ele>170</ele>
        <time>2016-11-19T10:57:08Z</time>
      </trkpt>
      <trkpt lat="45.93544" lon="4.77392">
        <ele>170</ele>
        <time>2016-11-19T10:57:09Z</time>
      </trkpt>
      <trkpt lat="45.93543" lon="4.77384">
        <ele>170</ele>
        <time>2016-11-19T10:57:10Z</time>
      </trkpt>
      <trkpt lat="45.93541" lon="4.77376">
        <ele>170</ele>
        <time>2016-11-19T10:57:11Z</time>
      </trkpt>
      <trkpt lat="45.93539" lon="4.77368">
        <ele>170</ele>
        <time>2016-11-19T10:57:12Z</time>
      </trkpt>
      <trkpt lat="45.93538" lon="4.77361">
        <ele>170</ele>
        <time>2016-11-19T10:57:13Z</time>
      </trkpt>
      <trkpt lat="45.93536" lon="4.77354">
        <ele>170</ele>
        <time>2016-11-19T10:57:14Z</time>
      </trkpt>
      <trkpt lat="45.93535" lon="4.77347">
        <ele>170</ele>
        <time>2016-11-19T10:57:15Z</time>
      </trkpt>
      <trkpt lat="45.93533" lon="4.7734">
        <ele>170</ele>
        <time>2016-11-19T10:57:16Z</time>
      </trkpt>
      <trkpt lat="45.93532" lon="4.77334">
        <ele>170</ele>
        <time>2016-11-19T10:57:17Z</time>
      </trkpt>
      <trkpt lat="45.9353" lon="4.77327">
        <ele>170</ele>
        <time>2016-11-19T10:57:18Z</time>
      </trkpt>
      <trkpt lat="45.93528" lon="4.77321">
        <ele>170</ele>
        <time>2016-11-19T10:57:19Z</time>
      </trkpt>
      <trkpt lat="45.93527" lon="4.77314">
        <ele>170</ele>
        <time>2016-11-19T10:57:20Z</time>
      </trkpt>
      <trkpt lat="45.93525" lon="4.77308">
        <ele>170</ele>
        <time>2016-11-19T10:57:21Z</time>
      </trkpt>
      <trkpt lat="45.93524" lon="4.77301">
        <ele>170</ele>
        <time>2016-11-19T10:57:22Z</time>
      </trkpt>
      <trkpt lat="45.93523" lon="4.77294">
        <ele>170</ele>
        <time>2016-11-19T10:57:23Z</time>
      </trkpt>
      <trkpt lat="45.93522" lon="4.77288">
        <ele>170</ele>
        <time>2016-11-19T10:57:24Z</time>
      </trkpt>
      <trkpt lat="45.93521" lon="4.77281">
        <ele>170</ele>
        <time>2016-11-19T10:57:25Z</time>
      </trkpt>
      <trkpt lat="45.93519" lon="4.77275">
        <ele>170</ele>
        <time>2016-11-19T10:57:26Z</time>
      </trkpt>
      <trkpt lat="45.93518" lon="4.77268">
        <ele>170</ele>
        <time>2016-11-19T10:57:27Z</time>
      </trkpt>
      <trkpt lat="45.93517" lon="4.77261">
        <ele>170</ele>
        <time>2016-11-19T10:57:28Z</time>
      </trkpt>
      <trkpt lat="45.93515" lon="4.77255">
        <ele>170</ele>
        <time>2016-11-19T10:57:29Z</time>
      </trkpt>
      <trkpt lat="45.93513" lon="4.77243">
        <ele>169</ele>
        <time>2016-11-19T10:57:31Z</time>
      </trkpt>
      <trkpt lat="45.93512" lon="4.77236">
        <ele>169</ele>
        <time>2016-11-19T10:57:32Z</time>
      </trkpt>
      <trkpt lat="45.93511" lon="4.77229">
        <ele>169</ele>
        <time>2016-11-19T10:57:33Z</time>
      </trkpt>
      <trkpt lat="45.93509" lon="4.77222">
        <ele>169</ele>
        <time>2016-11-19T10:57:34Z</time>
      </trkpt>
      <trkpt lat="45.93508" lon="4.77215">
        <ele>169</ele>
        <time>2016-11-19T10:57:35Z</time>
      </trkpt>
      <trkpt lat="45.93506" lon="4.77209">
        <ele>169</ele>
        <time>2016-11-19T10:57:36Z</time>
      </trkpt>
      <trkpt lat="45.93505" lon="4.77202">
        <ele>169</ele>
        <time>2016-11-19T10:57:37Z</time>
      </trkpt>
      <trkpt lat="45.93503" lon="4.77195">
        <ele>169</ele>
        <time>2016-11-19T10:57:38Z</time>
      </trkpt>
      <trkpt lat="45.93502" lon="4.77189">
        <ele>169</ele>
        <time>2016-11-19T10:57:39Z</time>
      </trkpt>
      <trkpt lat="45.935" lon="4.77182">
        <ele>169</ele>
        <time>2016-11-19T10:57:40Z</time>
      </trkpt>
      <trkpt lat="45.93499" lon="4.77176">
        <ele>169</ele>
        <time>2016-11-19T10:57:41Z</time>
      </trkpt>
      <trkpt lat="45.93497" lon="4.77169">
        <ele>169</ele>
        <time>2016-11-19T10:57:42Z</time>
      </trkpt>
      <trkpt lat="45.93495" lon="4.77163">
        <ele>169</ele>
        <time>2016-11-19T10:57:43Z</time>
      </trkpt>
      <trkpt lat="45.93494" lon="4.77156">
        <ele>169</ele>
        <time>2016-11-19T10:57:44Z</time>
      </trkpt>
      <trkpt lat="45.93492" lon="4.77149">
        <ele>169</ele>
        <time>2016-11-19T10:57:45Z</time>
      </trkpt>
      <trkpt lat="45.93491" lon="4.77142">
        <ele>169</ele>
        <time>2016-11-19T10:57:46Z</time>
      </trkpt>
      <trkpt lat="45.93489" lon="4.77135">
        <ele>169</ele>
        <time>2016-11-19T10:57:47Z</time>
      </trkpt>
      <trkpt lat="45.93488" lon="4.77128">
        <ele>169</ele>
        <time>2016-11-19T10:57:48Z</time>
      </trkpt>
      <trkpt lat="45.93486" lon="4.77121">
        <ele>169</ele>
        <time>2016-11-19T10:57:49Z</time>
      </trkpt>
      <trkpt lat="45.93485" lon="4.77114">
        <ele>169</ele>
        <time>2016-11-19T10:57:50Z</time>
      </trkpt>
      <trkpt lat="45.93484" lon="4.77106">
        <ele>169</ele>
        <time>2016-11-19T10:57:51Z</time>
      </trkpt>
      <trkpt lat="45.93483" lon="4.77099">
        <ele>169</ele>
        <time>2016-11-19T10:57:52Z</time>
      </trkpt>
      <trkpt lat="45.93481" lon="4.77092">
        <ele>169</ele>
        <time>2016-11-19T10:57:53Z</time>
      </trkpt>
      <trkpt lat="45.93479" lon="4.77085">
        <ele>169</ele>
        <time>2016-11-19T10:57:54Z</time>
      </trkpt>
      <trkpt lat="45.93478" lon="4.77079">
        <ele>170</ele>
        <time>2016-11-19T10:57:55Z</time>
      </trkpt>
      <trkpt lat="45.93477" lon="4.77072">
        <ele>170</ele>
        <time>2016-11-19T10:57:56Z</time>
      </trkpt>
      <trkpt lat="45.93475" lon="4.77064">
        <ele>170</ele>
        <time>2016-11-19T10:57:57Z</time>
      </trkpt>
      <trkpt lat="45.93474" lon="4.77057">
        <ele>170</ele>
        <time>2016-11-19T10:57:58Z</time>
      </trkpt>
      <trkpt lat="45.93473" lon="4.77049">
        <ele>170</ele>
        <time>2016-11-19T10:57:59Z</time>
      </trkpt>
      <trkpt lat="45.93471" lon="4.77042">
        <ele>170</ele>
        <time>2016-11-19T10:58:00Z</time>
      </trkpt>
      <trkpt lat="45.9347" lon="4.77034">
        <ele>170</ele>
        <time>2016-11-19T10:58:01Z</time>
      </trkpt>
      <trkpt lat="45.93468" lon="4.77026">
        <ele>170</ele>
        <time>2016-11-19T10:58:02Z</time>
      </trkpt>
      <trkpt lat="45.93467" lon="4.77018">
        <ele>170</ele>
        <time>2016-11-19T10:58:03Z</time>
      </trkpt>
      <trkpt lat="45.93466" lon="4.7701">
        <ele>170</ele>
        <time>2016-11-19T10:58:04Z</time>
      </trkpt>
      <trkpt lat="45.93464" lon="4.77003">
        <ele>170</ele>
        <time>2016-11-19T10:58:05Z</time>
      </trkpt>
      <trkpt lat="45.93463" lon="4.76996">
        <ele>170</ele>
        <time>2016-11-19T10:58:06Z</time>
      </trkpt>
      <trkpt lat="45.93462" lon="4.76989">
        <ele>170</ele>
        <time>2016-11-19T10:58:07Z</time>
      </trkpt>
      <trkpt lat="45.93461" lon="4.76982">
        <ele>170</ele>
        <time>2016-11-19T10:58:08Z</time>
      </trkpt>
      <trkpt lat="45.9346" lon="4.76976">
        <ele>170</ele>
        <time>2016-11-19T10:58:09Z</time>
      </trkpt>
      <trkpt lat="45.93459" lon="4.76969">
        <ele>170</ele>
        <time>2016-11-19T10:58:10Z</time>
      </trkpt>
      <trkpt lat="45.93458" lon="4.76963">
        <ele>170</ele>
        <time>2016-11-19T10:58:11Z</time>
      </trkpt>
      <trkpt lat="45.93457" lon="4.76956">
        <ele>170</ele>
        <time>2016-11-19T10:58:12Z</time>
      </trkpt>
      <trkpt lat="45.93454" lon="4.76944">
        <ele>170</ele>
        <time>2016-11-19T10:58:14Z</time>
      </trkpt>
      <trkpt lat="45.93453" lon="4.76937">
        <ele>170</ele>
        <time>2016-11-19T10:58:15Z</time>
      </trkpt>
      <trkpt lat="45.93452" lon="4.7693">
        <ele>170</ele>
        <time>2016-11-19T10:58:16Z</time>
      </trkpt>
      <trkpt lat="45.93451" lon="4.76923">
        <ele>170</ele>
        <time>2016-11-19T10:58:17Z</time>
      </trkpt>
      <trkpt lat="45.9345" lon="4.76916">
        <ele>170</ele>
        <time>2016-11-19T10:58:18Z</time>
      </trkpt>
      <trkpt lat="45.93448" lon="4.76909">
        <ele>170</ele>
        <time>2016-11-19T10:58:19Z</time>
      </trkpt>
      <trkpt lat="45.93447" lon="4.76902">
        <ele>170</ele>
        <time>2016-11-19T10:58:20Z</time>
      </trkpt>
      <trkpt lat="45.93445" lon="4.76895">
        <ele>170</ele>
        <time>2016-11-19T10:58:21Z</time>
      </trkpt>
      <trkpt lat="45.93443" lon="4.76889">
        <ele>170</ele>
        <time>2016-11-19T10:58:22Z</time>
      </trkpt>
      <trkpt lat="45.93441" lon="4.76882">
        <ele>170</ele>
        <time>2016-11-19T10:58:23Z</time>
      </trkpt>
      <trkpt lat="45.93439" lon="4.76876">
        <ele>171</ele>
        <time>2016-11-19T10:58:24Z</time>
      </trkpt>
      <trkpt lat="45.93437" lon="4.76869">
        <ele>171</ele>
        <time>2016-11-19T10:58:25Z</time>
      </trkpt>
      <trkpt lat="45.93434" lon="4.76863">
        <ele>171</ele>
        <time>2016-11-19T10:58:26Z</time>
      </trkpt>
      <trkpt lat="45.93432" lon="4.76857">
        <ele>171</ele>
        <time>2016-11-19T10:58:27Z</time>
      </trkpt>
      <trkpt lat="45.93429" lon="4.76851">
        <ele>171</ele>
        <time>2016-11-19T10:58:28Z</time>
      </trkpt>
      <trkpt lat="45.93426" lon="4.76845">
        <ele>171</ele>
        <time>2016-11-19T10:58:29Z</time>
      </trkpt>
      <trkpt lat="45.93423" lon="4.7684">
        <ele>171</ele>
        <time>2016-11-19T10:58:30Z</time>
      </trkpt>
      <trkpt lat="45.9342" lon="4.76834">
        <ele>172</ele>
        <time>2016-11-19T10:58:31Z</time>
      </trkpt>
      <trkpt lat="45.93417" lon="4.76829">
        <ele>172</ele>
        <time>2016-11-19T10:58:32Z</time>
      </trkpt>
      <trkpt lat="45.93414" lon="4.76823">
        <ele>172</ele>
        <time>2016-11-19T10:58:33Z</time>
      </trkpt>
      <trkpt lat="45.93411" lon="4.76818">
        <ele>172</ele>
        <time>2016-11-19T10:58:34Z</time>
      </trkpt>
      <trkpt lat="45.93407" lon="4.76812">
        <ele>172</ele>
        <time>2016-11-19T10:58:35Z</time>
      </trkpt>
      <trkpt lat="45.93404" lon="4.76806">
        <ele>172</ele>
        <time>2016-11-19T10:58:36Z</time>
      </trkpt>
      <trkpt lat="45.93399" lon="4.76801">
        <ele>172</ele>
        <time>2016-11-19T10:58:37Z</time>
      </trkpt>
      <trkpt lat="45.93395" lon="4.76795">
        <ele>172</ele>
        <time>2016-11-19T10:58:38Z</time>
      </trkpt>
      <trkpt lat="45.9339" lon="4.7679">
        <ele>172</ele>
        <time>2016-11-19T10:58:39Z</time>
      </trkpt>
      <trkpt lat="45.93386" lon="4.76785">
        <ele>172</ele>
        <time>2016-11-19T10:58:40Z</time>
      </trkpt>
      <trkpt lat="45.93381" lon="4.7678">
        <ele>172</ele>
        <time>2016-11-19T10:58:41Z</time>
      </trkpt>
      <trkpt lat="45.93377" lon="4.76775">
        <ele>172</ele>
        <time>2016-11-19T10:58:42Z</time>
      </trkpt>
      <trkpt lat="45.93372" lon="4.76771">
        <ele>172</ele>
        <time>2016-11-19T10:58:43Z</time>
      </trkpt>
      <trkpt lat="45.93368" lon="4.76766">
        <ele>172</ele>
        <time>2016-11-19T10:58:44Z</time>
      </trkpt>
      <trkpt lat="45.93364" lon="4.76761">
        <ele>172</ele>
        <time>2016-11-19T10:58:45Z</time>
      </trkpt>
      <trkpt lat="45.9336" lon="4.76757">
        <ele>172</ele>
        <time>2016-11-19T10:58:46Z</time>
      </trkpt>
      <trkpt lat="45.93356" lon="4.76752">
        <ele>172</ele>
        <time>2016-11-19T10:58:47Z</time>
      </trkpt>
      <trkpt lat="45.93352" lon="4.76748">
        <ele>172</ele>
        <time>2016-11-19T10:58:48Z</time>
      </trkpt>
      <trkpt lat="45.93348" lon="4.76743">
        <ele>172</ele>
        <time>2016-11-19T10:58:49Z</time>
      </trkpt>
      <trkpt lat="45.93342" lon="4.7674">
        <ele>172</ele>
        <time>2016-11-19T10:58:50Z</time>
      </trkpt>
      <trkpt lat="45.93337" lon="4.76736">
        <ele>172</ele>
        <time>2016-11-19T10:58:51Z</time>
      </trkpt>
      <trkpt lat="45.93332" lon="4.76732">
        <ele>172</ele>
        <time>2016-11-19T10:58:52Z</time>
      </trkpt>
      <trkpt lat="45.93328" lon="4.76728">
        <ele>172</ele>
        <time>2016-11-19T10:58:53Z</time>
      </trkpt>
      <trkpt lat="45.93324" lon="4.76724">
        <ele>172</ele>
        <time>2016-11-19T10:58:54Z</time>
      </trkpt>
      <trkpt lat="45.9332" lon="4.7672">
        <ele>172</ele>
        <time>2016-11-19T10:58:55Z</time>
      </trkpt>
      <trkpt lat="45.93316" lon="4.76716">
        <ele>172</ele>
        <time>2016-11-19T10:58:56Z</time>
      </trkpt>
      <trkpt lat="45.93312" lon="4.76712">
        <ele>172</ele>
        <time>2016-11-19T10:58:57Z</time>
      </trkpt>
      <trkpt lat="45.93308" lon="4.76708">
        <ele>172</ele>
        <time>2016-11-19T10:58:58Z</time>
      </trkpt>
      <trkpt lat="45.93304" lon="4.76704">
        <ele>172</ele>
        <time>2016-11-19T10:58:59Z</time>
      </trkpt>
      <trkpt lat="45.93299" lon="4.767">
        <ele>172</ele>
        <time>2016-11-19T10:59:00Z</time>
      </trkpt>
      <trkpt lat="45.93295" lon="4.76697">
        <ele>172</ele>
        <time>2016-11-19T10:59:01Z</time>
      </trkpt>
      <trkpt lat="45.93291" lon="4.76693">
        <ele>172</ele>
        <time>2016-11-19T10:59:02Z</time>
      </trkpt>
      <trkpt lat="45.93287" lon="4.76688">
        <ele>172</ele>
        <time>2016-11-19T10:59:03Z</time>
      </trkpt>
      <trkpt lat="45.93283" lon="4.76684">
        <ele>172</ele>
        <time>2016-11-19T10:59:04Z</time>
      </trkpt>
      <trkpt lat="45.93278" lon="4.7668">
        <ele>172</ele>
        <time>2016-11-19T10:59:05Z</time>
      </trkpt>
      <trkpt lat="45.93274" lon="4.76675">
        <ele>172</ele>
        <time>2016-11-19T10:59:06Z</time>
      </trkpt>
      <trkpt lat="45.93269" lon="4.76671">
        <ele>172</ele>
        <time>2016-11-19T10:59:07Z</time>
      </trkpt>
      <trkpt lat="45.93265" lon="4.76667">
        <ele>172</ele>
        <time>2016-11-19T10:59:08Z</time>
      </trkpt>
      <trkpt lat="45.93261" lon="4.76663">
        <ele>171</ele>
        <time>2016-11-19T10:59:09Z</time>
      </trkpt>
      <trkpt lat="45.93257" lon="4.76658">
        <ele>171</ele>
        <time>2016-11-19T10:59:10Z</time>
      </trkpt>
      <trkpt lat="45.93253" lon="4.76654">
        <ele>171</ele>
        <time>2016-11-19T10:59:11Z</time>
      </trkpt>
      <trkpt lat="45.93249" lon="4.7665">
        <ele>171</ele>
        <time>2016-11-19T10:59:12Z</time>
      </trkpt>
      <trkpt lat="45.93245" lon="4.76646">
        <ele>171</ele>
        <time>2016-11-19T10:59:13Z</time>
      </trkpt>
      <trkpt lat="45.93241" lon="4.76641">
        <ele>171</ele>
        <time>2016-11-19T10:59:14Z</time>
      </trkpt>
      <trkpt lat="45.93237" lon="4.76637">
        <ele>171</ele>
        <time>2016-11-19T10:59:15Z</time>
      </trkpt>
      <trkpt lat="45.93234" lon="4.76633">
        <ele>170</ele>
        <time>2016-11-19T10:59:16Z</time>
      </trkpt>
      <trkpt lat="45.9323" lon="4.76629">
        <ele>170</ele>
        <time>2016-11-19T10:59:17Z</time>
      </trkpt>
      <trkpt lat="45.93225" lon="4.76624">
        <ele>170</ele>
        <time>2016-11-19T10:59:18Z</time>
      </trkpt>
      <trkpt lat="45.93221" lon="4.76619">
        <ele>170</ele>
        <time>2016-11-19T10:59:19Z</time>
      </trkpt>
      <trkpt lat="45.93216" lon="4.76614">
        <ele>170</ele>
        <time>2016-11-19T10:59:20Z</time>
      </trkpt>
      <trkpt lat="45.93212" lon="4.76608">
        <ele>170</ele>
        <time>2016-11-19T10:59:21Z</time>
      </trkpt>
      <trkpt lat="45.93207" lon="4.76603">
        <ele>170</ele>
        <time>2016-11-19T10:59:22Z</time>
      </trkpt>
      <trkpt lat="45.93202" lon="4.76599">
        <ele>170</ele>
        <time>2016-11-19T10:59:23Z</time>
      </trkpt>
      <trkpt lat="45.93198" lon="4.76595">
        <ele>170</ele>
        <time>2016-11-19T10:59:24Z</time>
      </trkpt>
      <trkpt lat="45.93193" lon="4.7659">
        <ele>170</ele>
        <time>2016-11-19T10:59:25Z</time>
      </trkpt>
      <trkpt lat="45.93188" lon="4.76586">
        <ele>170</ele>
        <time>2016-11-19T10:59:26Z</time>
      </trkpt>
      <trkpt lat="45.93184" lon="4.76581">
        <ele>170</ele>
        <time>2016-11-19T10:59:27Z</time>
      </trkpt>
      <trkpt lat="45.9318" lon="4.76577">
        <ele>170</ele>
        <time>2016-11-19T10:59:28Z</time>
      </trkpt>
      <trkpt lat="45.93176" lon="4.76573">
        <ele>170</ele>
        <time>2016-11-19T10:59:29Z</time>
      </trkpt>
      <trkpt lat="45.93171" lon="4.76569">
        <ele>170</ele>
        <time>2016-11-19T10:59:30Z</time>
      </trkpt>
      <trkpt lat="45.93167" lon="4.76565">
        <ele>170</ele>
        <time>2016-11-19T10:59:31Z</time>
      </trkpt>
      <trkpt lat="45.93163" lon="4.7656">
        <ele>170</ele>
        <time>2016-11-19T10:59:32Z</time>
      </trkpt>
      <trkpt lat="45.93159" lon="4.76556">
        <ele>170</ele>
        <time>2016-11-19T10:59:33Z</time>
      </trkpt>
      <trkpt lat="45.93154" lon="4.76551">
        <ele>170</ele>
        <time>2016-11-19T10:59:34Z</time>
      </trkpt>
      <trkpt lat="45.9315" lon="4.76547">
        <ele>170</ele>
        <time>2016-11-19T10:59:35Z</time>
      </trkpt>
      <trkpt lat="45.93146" lon="4.76543">
        <ele>170</ele>
        <time>2016-11-19T10:59:36Z</time>
      </trkpt>
      <trkpt lat="45.93142" lon="4.76539">
        <ele>170</ele>
        <time>2016-11-19T10:59:37Z</time>
      </trkpt>
      <trkpt lat="45.93138" lon="4.76535">
        <ele>170</ele>
        <time>2016-11-19T10:59:38Z</time>
      </trkpt>
      <trkpt lat="45.93134" lon="4.7653">
        <ele>170</ele>
        <time>2016-11-19T10:59:39Z</time>
      </trkpt>
      <trkpt lat="45.9313" lon="4.76525">
        <ele>170</ele>
        <time>2016-11-19T10:59:40Z</time>
      </trkpt>
      <trkpt lat="45.93126" lon="4.76521">
        <ele>170</ele>
        <time>2016-11-19T10:59:41Z</time>
      </trkpt>
      <trkpt lat="45.93121" lon="4.76516">
        <ele>170</ele>
        <time>2016-11-19T10:59:42Z</time>
      </trkpt>
      <trkpt lat="45.93116" lon="4.76511">
        <ele>170</ele>
        <time>2016-11-19T10:59:43Z</time>
      </trkpt>
      <trkpt lat="45.93112" lon="4.76506">
        <ele>170</ele>
        <time>2016-11-19T10:59:44Z</time>
      </trkpt>
      <trkpt lat="45.93107" lon="4.76501">
        <ele>170</ele>
        <time>2016-11-19T10:59:45Z</time>
      </trkpt>
      <trkpt lat="45.93102" lon="4.76497">
        <ele>169</ele>
        <time>2016-11-19T10:59:46Z</time>
      </trkpt>
      <trkpt lat="45.93097" lon="4.76493">
        <ele>170</ele>
        <time>2016-11-19T10:59:47Z</time>
      </trkpt>
      <trkpt lat="45.93093" lon="4.76489">
        <ele>170</ele>
        <time>2016-11-19T10:59:48Z</time>
      </trkpt>
      <trkpt lat="45.93089" lon="4.76484">
        <ele>170</ele>
        <time>2016-11-19T10:59:49Z</time>
      </trkpt>
      <trkpt lat="45.93085" lon="4.7648">
        <ele>169</ele>
        <time>2016-11-19T10:59:50Z</time>
      </trkpt>
      <trkpt lat="45.9308" lon="4.76475">
        <ele>169</ele>
        <time>2016-11-19T10:59:51Z</time>
      </trkpt>
      <trkpt lat="45.93076" lon="4.76472">
        <ele>169</ele>
        <time>2016-11-19T10:59:52Z</time>
      </trkpt>
      <trkpt lat="45.93072" lon="4.76468">
        <ele>169</ele>
        <time>2016-11-19T10:59:53Z</time>
      </trkpt>
      <trkpt lat="45.93068" lon="4.76464">
        <ele>169</ele>
        <time>2016-11-19T10:59:54Z</time>
      </trkpt>
      <trkpt lat="45.93064" lon="4.76459">
        <ele>169</ele>
        <time>2016-11-19T10:59:55Z</time>
      </trkpt>
      <trkpt lat="45.9306" lon="4.76455">
        <ele>169</ele>
        <time>2016-11-19T10:59:56Z</time>
      </trkpt>
      <trkpt lat="45.93056" lon="4.7645">
        <ele>169</ele>
        <time>2016-11-19T10:59:57Z</time>
      </trkpt>
      <trkpt lat="45.93051" lon="4.76446">
        <ele>169</ele>
        <time>2016-11-19T10:59:58Z</time>
      </trkpt>
      <trkpt lat="45.93047" lon="4.76442">
        <ele>169</ele>
        <time>2016-11-19T10:59:59Z</time>
      </trkpt>
      <trkpt lat="45.93043" lon="4.76438">
        <ele>169</ele>
        <time>2016-11-19T11:00:00Z</time>
      </trkpt>
      <trkpt lat="45.93039" lon="4.76435">
        <ele>169</ele>
        <time>2016-11-19T11:00:01Z</time>
      </trkpt>
      <trkpt lat="45.93035" lon="4.76431">
        <ele>169</ele>
        <time>2016-11-19T11:00:02Z</time>
      </trkpt>
      <trkpt lat="45.9303" lon="4.76427">
        <ele>169</ele>
        <time>2016-11-19T11:00:03Z</time>
      </trkpt>
      <trkpt lat="45.93027" lon="4.76423">
        <ele>169</ele>
        <time>2016-11-19T11:00:04Z</time>
      </trkpt>
      <trkpt lat="45.93022" lon="4.7642">
        <ele>169</ele>
        <time>2016-11-19T11:00:05Z</time>
      </trkpt>
      <trkpt lat="45.93018" lon="4.76416">
        <ele>169</ele>
        <time>2016-11-19T11:00:06Z</time>
      </trkpt>
      <trkpt lat="45.93013" lon="4.76412">
        <ele>169</ele>
        <time>2016-11-19T11:00:07Z</time>
      </trkpt>
      <trkpt lat="45.93009" lon="4.76408">
        <ele>169</ele>
        <time>2016-11-19T11:00:08Z</time>
      </trkpt>
      <trkpt lat="45.93005" lon="4.76404">
        <ele>169</ele>
        <time>2016-11-19T11:00:09Z</time>
      </trkpt>
      <trkpt lat="45.93001" lon="4.764">
        <ele>169</ele>
        <time>2016-11-19T11:00:10Z</time>
      </trkpt>
      <trkpt lat="45.92997" lon="4.76396">
        <ele>169</ele>
        <time>2016-11-19T11:00:11Z</time>
      </trkpt>
      <trkpt lat="45.92993" lon="4.76391">
        <ele>169</ele>
        <time>2016-11-19T11:00:12Z</time>
      </trkpt>
      <trkpt lat="45.92988" lon="4.76387">
        <ele>169</ele>
        <time>2016-11-19T11:00:13Z</time>
      </trkpt>
      <trkpt lat="45.92983" lon="4.76382">
        <ele>169</ele>
        <time>2016-11-19T11:00:14Z</time>
      </trkpt>
      <trkpt lat="45.92978" lon="4.76377">
        <ele>169</ele>
        <time>2016-11-19T11:00:15Z</time>
      </trkpt>
      <trkpt lat="45.92973" lon="4.76372">
        <ele>169</ele>
        <time>2016-11-19T11:00:16Z</time>
      </trkpt>
      <trkpt lat="45.92968" lon="4.76368">
        <ele>169</ele>
        <time>2016-11-19T11:00:17Z</time>
      </trkpt>
      <trkpt lat="45.92964" lon="4.76363">
        <ele>169</ele>
        <time>2016-11-19T11:00:18Z</time>
      </trkpt>
      <trkpt lat="45.9296" lon="4.76359">
        <ele>169</ele>
        <time>2016-11-19T11:00:19Z</time>
      </trkpt>
      <trkpt lat="45.92954" lon="4.76354">
        <ele>169</ele>
        <time>2016-11-19T11:00:20Z</time>
      </trkpt>
      <trkpt lat="45.9295" lon="4.76349">
        <ele>169</ele>
        <time>2016-11-19T11:00:21Z</time>
      </trkpt>
      <trkpt lat="45.92946" lon="4.76345">
        <ele>169</ele>
        <time>2016-11-19T11:00:22Z</time>
      </trkpt>
      <trkpt lat="45.92941" lon="4.7634">
        <ele>169</ele>
        <time>2016-11-19T11:00:23Z</time>
      </trkpt>
      <trkpt lat="45.92937" lon="4.76336">
        <ele>169</ele>
        <time>2016-11-19T11:00:24Z</time>
      </trkpt>
      <trkpt lat="45.92933" lon="4.76331">
        <ele>169</ele>
        <time>2016-11-19T11:00:25Z</time>
      </trkpt>
      <trkpt lat="45.9293" lon="4.76327">
        <ele>169</ele>
        <time>2016-11-19T11:00:26Z</time>
      </trkpt>
      <trkpt lat="45.92926" lon="4.76323">
        <ele>169</ele>
        <time>2016-11-19T11:00:27Z</time>
      </trkpt>
      <trkpt lat="45.92921" lon="4.76318">
        <ele>169</ele>
        <time>2016-11-19T11:00:28Z</time>
      </trkpt>
      <trkpt lat="45.92917" lon="4.76314">
        <ele>169</ele>
        <time>2016-11-19T11:00:29Z</time>
      </trkpt>
      <trkpt lat="45.92913" lon="4.7631">
        <ele>169</ele>
        <time>2016-11-19T11:00:30Z</time>
      </trkpt>
      <trkpt lat="45.92909" lon="4.76306">
        <ele>169</ele>
        <time>2016-11-19T11:00:31Z</time>
      </trkpt>
      <trkpt lat="45.92905" lon="4.76302">
        <ele>169</ele>
        <time>2016-11-19T11:00:32Z</time>
      </trkpt>
      <trkpt lat="45.929" lon="4.76298">
        <ele>169</ele>
        <time>2016-11-19T11:00:33Z</time>
      </trkpt>
      <trkpt lat="45.92896" lon="4.76295">
        <ele>169</ele>
        <time>2016-11-19T11:00:34Z</time>
      </trkpt>
      <trkpt lat="45.92891" lon="4.76291">
        <ele>169</ele>
        <time>2016-11-19T11:00:35Z</time>
      </trkpt>
      <trkpt lat="45.92887" lon="4.76287">
        <ele>169</ele>
        <time>2016-11-19T11:00:36Z</time>
      </trkpt>
      <trkpt lat="45.92883" lon="4.76283">
        <ele>169</ele>
        <time>2016-11-19T11:00:37Z</time>
      </trkpt>
      <trkpt lat="45.92879" lon="4.76278">
        <ele>169</ele>
        <time>2016-11-19T11:00:38Z</time>
      </trkpt>
      <trkpt lat="45.92875" lon="4.76274">
        <ele>169</ele>
        <time>2016-11-19T11:00:39Z</time>
      </trkpt>
      <trkpt lat="45.92871" lon="4.7627">
        <ele>169</ele>
        <time>2016-11-19T11:00:40Z</time>
      </trkpt>
      <trkpt lat="45.92866" lon="4.76265">
        <ele>169</ele>
        <time>2016-11-19T11:00:41Z</time>
      </trkpt>
      <trkpt lat="45.92862" lon="4.76261">
        <ele>169</ele>
        <time>2016-11-19T11:00:42Z</time>
      </trkpt>
      <trkpt lat="45.92858" lon="4.76257">
        <ele>169</ele>
        <time>2016-11-19T11:00:43Z</time>
      </trkpt>
      <trkpt lat="45.92853" lon="4.76252">
        <ele>169</ele>
        <time>2016-11-19T11:00:44Z</time>
      </trkpt>
      <trkpt lat="45.92849" lon="4.76248">
        <ele>169</ele>
        <time>2016-11-19T11:00:45Z</time>
      </trkpt>
      <trkpt lat="45.92845" lon="4.76243">
        <ele>169</ele>
        <time>2016-11-19T11:00:46Z</time>
      </trkpt>
      <trkpt lat="45.9284" lon="4.76239">
        <ele>169</ele>
        <time>2016-11-19T11:00:47Z</time>
      </trkpt>
      <trkpt lat="45.92836" lon="4.76235">
        <ele>169</ele>
        <time>2016-11-19T11:00:48Z</time>
      </trkpt>
      <trkpt lat="45.92832" lon="4.76231">
        <ele>168</ele>
        <time>2016-11-19T11:00:49Z</time>
      </trkpt>
      <trkpt lat="45.92826" lon="4.76226">
        <ele>168</ele>
        <time>2016-11-19T11:00:50Z</time>
      </trkpt>
      <trkpt lat="45.92821" lon="4.76222">
        <ele>168</ele>
        <time>2016-11-19T11:00:51Z</time>
      </trkpt>
      <trkpt lat="45.92817" lon="4.76218">
        <ele>168</ele>
        <time>2016-11-19T11:00:52Z</time>
      </trkpt>
      <trkpt lat="45.92812" lon="4.76214">
        <ele>168</ele>
        <time>2016-11-19T11:00:53Z</time>
      </trkpt>
      <trkpt lat="45.92808" lon="4.7621">
        <ele>168</ele>
        <time>2016-11-19T11:00:54Z</time>
      </trkpt>
      <trkpt lat="45.92804" lon="4.76205">
        <ele>168</ele>
        <time>2016-11-19T11:00:55Z</time>
      </trkpt>
      <trkpt lat="45.92799" lon="4.76201">
        <ele>168</ele>
        <time>2016-11-19T11:00:56Z</time>
      </trkpt>
      <trkpt lat="45.92794" lon="4.76197">
        <ele>168</ele>
        <time>2016-11-19T11:00:57Z</time>
      </trkpt>
      <trkpt lat="45.9279" lon="4.76192">
        <ele>168</ele>
        <time>2016-11-19T11:00:58Z</time>
      </trkpt>
      <trkpt lat="45.92786" lon="4.76187">
        <ele>168</ele>
        <time>2016-11-19T11:00:59Z</time>
      </trkpt>
      <trkpt lat="45.92781" lon="4.76183">
        <ele>168</ele>
        <time>2016-11-19T11:01:00Z</time>
      </trkpt>
      <trkpt lat="45.92777" lon="4.76179">
        <ele>167</ele>
        <time>2016-11-19T11:01:01Z</time>
      </trkpt>
      <trkpt lat="45.92772" lon="4.76175">
        <ele>167</ele>
        <time>2016-11-19T11:01:02Z</time>
      </trkpt>
      <trkpt lat="45.92768" lon="4.76171">
        <ele>167</ele>
        <time>2016-11-19T11:01:03Z</time>
      </trkpt>
      <trkpt lat="45.92763" lon="4.76168">
        <ele>167</ele>
        <time>2016-11-19T11:01:04Z</time>
      </trkpt>
      <trkpt lat="45.92758" lon="4.76164">
        <ele>167</ele>
        <time>2016-11-19T11:01:05Z</time>
      </trkpt>
      <trkpt lat="45.92754" lon="4.7616">
        <ele>167</ele>
        <time>2016-11-19T11:01:06Z</time>
      </trkpt>
      <trkpt lat="45.92748" lon="4.76156">
        <ele>167</ele>
        <time>2016-11-19T11:01:07Z</time>
      </trkpt>
      <trkpt lat="45.92744" lon="4.76153">
        <ele>168</ele>
        <time>2016-11-19T11:01:08Z</time>
      </trkpt>
      <trkpt lat="45.92739" lon="4.7615">
        <ele>168</ele>
        <time>2016-11-19T11:01:09Z</time>
      </trkpt>
      <trkpt lat="45.92735" lon="4.76146">
        <ele>168</ele>
        <time>2016-11-19T11:01:10Z</time>
      </trkpt>
      <trkpt lat="45.9273" lon="4.76143">
        <ele>168</ele>
        <time>2016-11-19T11:01:11Z</time>
      </trkpt>
      <trkpt lat="45.92726" lon="4.76139">
        <ele>168</ele>
        <time>2016-11-19T11:01:12Z</time>
      </trkpt>
      <trkpt lat="45.92722" lon="4.76135">
        <ele>168</ele>
        <time>2016-11-19T11:01:13Z</time>
      </trkpt>
      <trkpt lat="45.92717" lon="4.76132">
        <ele>168</ele>
        <time>2016-11-19T11:01:14Z</time>
      </trkpt>
      <trkpt lat="45.92713" lon="4.76129">
        <ele>168</ele>
        <time>2016-11-19T11:01:15Z</time>
      </trkpt>
      <trkpt lat="45.92709" lon="4.76125">
        <ele>168</ele>
        <time>2016-11-19T11:01:16Z</time>
      </trkpt>
      <trkpt lat="45.92704" lon="4.76122">
        <ele>169</ele>
        <time>2016-11-19T11:01:17Z</time>
      </trkpt>
      <trkpt lat="45.927" lon="4.76118">
        <ele>169</ele>
        <time>2016-11-19T11:01:18Z</time>
      </trkpt>
      <trkpt lat="45.92696" lon="4.76115">
        <ele>169</ele>
        <time>2016-11-19T11:01:19Z</time>
      </trkpt>
      <trkpt lat="45.92691" lon="4.76112">
        <ele>169</ele>
        <time>2016-11-19T11:01:20Z</time>
      </trkpt>
      <trkpt lat="45.92686" lon="4.76108">
        <ele>169</ele>
        <time>2016-11-19T11:01:21Z</time>
      </trkpt>
      <trkpt lat="45.92682" lon="4.76104">
        <ele>169</ele>
        <time>2016-11-19T11:01:22Z</time>
      </trkpt>
      <trkpt lat="45.92678" lon="4.76101">
        <ele>169</ele>
        <time>2016-11-19T11:01:23Z</time>
      </trkpt>
      <trkpt lat="45.92674" lon="4.76097">
        <ele>169</ele>
        <time>2016-11-19T11:01:24Z</time>
      </trkpt>
      <trkpt lat="45.92669" lon="4.76093">
        <ele>170</ele>
        <time>2016-11-19T11:01:25Z</time>
      </trkpt>
      <trkpt lat="45.92665" lon="4.76089">
        <ele>170</ele>
        <time>2016-11-19T11:01:26Z</time>
      </trkpt>
      <trkpt lat="45.92661" lon="4.76086">
        <ele>170</ele>
        <time>2016-11-19T11:01:27Z</time>
      </trkpt>
      <trkpt lat="45.92653" lon="4.76079">
        <ele>170</ele>
        <time>2016-11-19T11:01:29Z</time>
      </trkpt>
      <trkpt lat="45.92648" lon="4.76076">
        <ele>170</ele>
        <time>2016-11-19T11:01:30Z</time>
      </trkpt>
      <trkpt lat="45.92644" lon="4.76072">
        <ele>170</ele>
        <time>2016-11-19T11:01:31Z</time>
      </trkpt>
      <trkpt lat="45.9264" lon="4.76069">
        <ele>170</ele>
        <time>2016-11-19T11:01:32Z</time>
      </trkpt>
      <trkpt lat="45.92635" lon="4.76066">
        <ele>170</ele>
        <time>2016-11-19T11:01:33Z</time>
      </trkpt>
      <trkpt lat="45.92631" lon="4.76064">
        <ele>170</ele>
        <time>2016-11-19T11:01:34Z</time>
      </trkpt>
      <trkpt lat="45.92626" lon="4.76061">
        <ele>170</ele>
        <time>2016-11-19T11:01:35Z</time>
      </trkpt>
      <trkpt lat="45.92622" lon="4.76058">
        <ele>171</ele>
        <time>2016-11-19T11:01:36Z</time>
      </trkpt>
      <trkpt lat="45.92618" lon="4.76055">
        <ele>171</ele>
        <time>2016-11-19T11:01:37Z</time>
      </trkpt>
      <trkpt lat="45.92614" lon="4.76052">
        <ele>171</ele>
        <time>2016-11-19T11:01:38Z</time>
      </trkpt>
      <trkpt lat="45.9261" lon="4.76048">
        <ele>171</ele>
        <time>2016-11-19T11:01:39Z</time>
      </trkpt>
      <trkpt lat="45.92605" lon="4.76045">
        <ele>171</ele>
        <time>2016-11-19T11:01:40Z</time>
      </trkpt>
      <trkpt lat="45.92601" lon="4.76042">
        <ele>171</ele>
        <time>2016-11-19T11:01:41Z</time>
      </trkpt>
      <trkpt lat="45.92597" lon="4.76039">
        <ele>171</ele>
        <time>2016-11-19T11:01:42Z</time>
      </trkpt>
      <trkpt lat="45.92593" lon="4.76036">
        <ele>171</ele>
        <time>2016-11-19T11:01:43Z</time>
      </trkpt>
      <trkpt lat="45.92589" lon="4.76033">
        <ele>171</ele>
        <time>2016-11-19T11:01:44Z</time>
      </trkpt>
      <trkpt lat="45.92585" lon="4.7603">
        <ele>171</ele>
        <time>2016-11-19T11:01:45Z</time>
      </trkpt>
      <trkpt lat="45.9258" lon="4.76027">
        <ele>172</ele>
        <time>2016-11-19T11:01:46Z</time>
      </trkpt>
      <trkpt lat="45.92576" lon="4.76024">
        <ele>172</ele>
        <time>2016-11-19T11:01:47Z</time>
      </trkpt>
      <trkpt lat="45.92572" lon="4.76022">
        <ele>172</ele>
        <time>2016-11-19T11:01:48Z</time>
      </trkpt>
      <trkpt lat="45.92567" lon="4.76019">
        <ele>172</ele>
        <time>2016-11-19T11:01:49Z</time>
      </trkpt>
      <trkpt lat="45.92563" lon="4.76016">
        <ele>172</ele>
        <time>2016-11-19T11:01:50Z</time>
      </trkpt>
      <trkpt lat="45.92558" lon="4.76013">
        <ele>172</ele>
        <time>2016-11-19T11:01:51Z</time>
      </trkpt>
      <trkpt lat="45.92554" lon="4.7601">
        <ele>172</ele>
        <time>2016-11-19T11:01:52Z</time>
      </trkpt>
      <trkpt lat="45.92547" lon="4.76004">
        <ele>172</ele>
        <time>2016-11-19T11:01:54Z</time>
      </trkpt>
      <trkpt lat="45.92543" lon="4.76002">
        <ele>172</ele>
        <time>2016-11-19T11:01:55Z</time>
      </trkpt>
      <trkpt lat="45.92539" lon="4.75999">
        <ele>172</ele>
        <time>2016-11-19T11:01:56Z</time>
      </trkpt>
      <trkpt lat="45.92534" lon="4.75997">
        <ele>172</ele>
        <time>2016-11-19T11:01:57Z</time>
      </trkpt>
      <trkpt lat="45.9253" lon="4.75994">
        <ele>172</ele>
        <time>2016-11-19T11:01:58Z</time>
      </trkpt>
      <trkpt lat="45.92526" lon="4.7599">
        <ele>172</ele>
        <time>2016-11-19T11:01:59Z</time>
      </trkpt>
      <trkpt lat="45.92522" lon="4.75987">
        <ele>172</ele>
        <time>2016-11-19T11:02:00Z</time>
      </trkpt>
      <trkpt lat="45.92517" lon="4.75983">
        <ele>172</ele>
        <time>2016-11-19T11:02:01Z</time>
      </trkpt>
      <trkpt lat="45.92513" lon="4.7598">
        <ele>172</ele>
        <time>2016-11-19T11:02:02Z</time>
      </trkpt>
      <trkpt lat="45.92508" lon="4.75977">
        <ele>172</ele>
        <time>2016-11-19T11:02:03Z</time>
      </trkpt>
      <trkpt lat="45.92503" lon="4.75974">
        <ele>172</ele>
        <time>2016-11-19T11:02:04Z</time>
      </trkpt>
      <trkpt lat="45.92498" lon="4.7597">
        <ele>172</ele>
        <time>2016-11-19T11:02:05Z</time>
      </trkpt>
      <trkpt lat="45.92493" lon="4.75967">
        <ele>172</ele>
        <time>2016-11-19T11:02:06Z</time>
      </trkpt>
      <trkpt lat="45.92488" lon="4.75964">
        <ele>172</ele>
        <time>2016-11-19T11:02:07Z</time>
      </trkpt>
      <trkpt lat="45.92484" lon="4.7596">
        <ele>172</ele>
        <time>2016-11-19T11:02:08Z</time>
      </trkpt>
      <trkpt lat="45.92479" lon="4.75957">
        <ele>172</ele>
        <time>2016-11-19T11:02:09Z</time>
      </trkpt>
      <trkpt lat="45.92474" lon="4.75954">
        <ele>172</ele>
        <time>2016-11-19T11:02:10Z</time>
      </trkpt>
      <trkpt lat="45.92469" lon="4.75951">
        <ele>172</ele>
        <time>2016-11-19T11:02:11Z</time>
      </trkpt>
      <trkpt lat="45.92464" lon="4.75948">
        <ele>172</ele>
        <time>2016-11-19T11:02:12Z</time>
      </trkpt>
      <trkpt lat="45.92459" lon="4.75944">
        <ele>172</ele>
        <time>2016-11-19T11:02:13Z</time>
      </trkpt>
      <trkpt lat="45.92454" lon="4.75941">
        <ele>172</ele>
        <time>2016-11-19T11:02:14Z</time>
      </trkpt>
      <trkpt lat="45.92449" lon="4.75938">
        <ele>172</ele>
        <time>2016-11-19T11:02:15Z</time>
      </trkpt>
      <trkpt lat="45.92444" lon="4.75934">
        <ele>172</ele>
        <time>2016-11-19T11:02:16Z</time>
      </trkpt>
      <trkpt lat="45.92438" lon="4.75931">
        <ele>172</ele>
        <time>2016-11-19T11:02:17Z</time>
      </trkpt>
      <trkpt lat="45.92433" lon="4.75928">
        <ele>172</ele>
        <time>2016-11-19T11:02:18Z</time>
      </trkpt>
      <trkpt lat="45.92427" lon="4.75924">
        <ele>172</ele>
        <time>2016-11-19T11:02:19Z</time>
      </trkpt>
      <trkpt lat="45.92421" lon="4.7592">
        <ele>172</ele>
        <time>2016-11-19T11:02:20Z</time>
      </trkpt>
      <trkpt lat="45.92416" lon="4.75916">
        <ele>172</ele>
        <time>2016-11-19T11:02:21Z</time>
      </trkpt>
      <trkpt lat="45.9241" lon="4.75912">
        <ele>172</ele>
        <time>2016-11-19T11:02:22Z</time>
      </trkpt>
      <trkpt lat="45.92404" lon="4.75909">
        <ele>172</ele>
        <time>2016-11-19T11:02:23Z</time>
      </trkpt>
      <trkpt lat="45.92399" lon="4.75905">
        <ele>173</ele>
        <time>2016-11-19T11:02:24Z</time>
      </trkpt>
      <trkpt lat="45.92393" lon="4.759">
        <ele>173</ele>
        <time>2016-11-19T11:02:25Z</time>
      </trkpt>
      <trkpt lat="45.92388" lon="4.75897">
        <ele>173</ele>
        <time>2016-11-19T11:02:26Z</time>
      </trkpt>
      <trkpt lat="45.92382" lon="4.75893">
        <ele>173</ele>
        <time>2016-11-19T11:02:27Z</time>
      </trkpt>
      <trkpt lat="45.92377" lon="4.75889">
        <ele>173</ele>
        <time>2016-11-19T11:02:28Z</time>
      </trkpt>
      <trkpt lat="45.92372" lon="4.75885">
        <ele>173</ele>
        <time>2016-11-19T11:02:29Z</time>
      </trkpt>
      <trkpt lat="45.92367" lon="4.75881">
        <ele>173</ele>
        <time>2016-11-19T11:02:30Z</time>
      </trkpt>
      <trkpt lat="45.92361" lon="4.75878">
        <ele>173</ele>
        <time>2016-11-19T11:02:31Z</time>
      </trkpt>
      <trkpt lat="45.92356" lon="4.75874">
        <ele>173</ele>
        <time>2016-11-19T11:02:32Z</time>
      </trkpt>
      <trkpt lat="45.92351" lon="4.75871">
        <ele>173</ele>
        <time>2016-11-19T11:02:33Z</time>
      </trkpt>
      <trkpt lat="45.92346" lon="4.75867">
        <ele>173</ele>
        <time>2016-11-19T11:02:34Z</time>
      </trkpt>
      <trkpt lat="45.92341" lon="4.75864">
        <ele>173</ele>
        <time>2016-11-19T11:02:35Z</time>
      </trkpt>
      <trkpt lat="45.92336" lon="4.75861">
        <ele>173</ele>
        <time>2016-11-19T11:02:36Z</time>
      </trkpt>
      <trkpt lat="45.92331" lon="4.75858">
        <ele>174</ele>
        <time>2016-11-19T11:02:37Z</time>
      </trkpt>
      <trkpt lat="45.92326" lon="4.75855">
        <ele>174</ele>
        <time>2016-11-19T11:02:38Z</time>
      </trkpt>
      <trkpt lat="45.92321" lon="4.75851">
        <ele>174</ele>
        <time>2016-11-19T11:02:39Z</time>
      </trkpt>
      <trkpt lat="45.92316" lon="4.75848">
        <ele>174</ele>
        <time>2016-11-19T11:02:40Z</time>
      </trkpt>
      <trkpt lat="45.92311" lon="4.75846">
        <ele>173</ele>
        <time>2016-11-19T11:02:41Z</time>
      </trkpt>
      <trkpt lat="45.92306" lon="4.75843">
        <ele>173</ele>
        <time>2016-11-19T11:02:42Z</time>
      </trkpt>
      <trkpt lat="45.92301" lon="4.7584">
        <ele>173</ele>
        <time>2016-11-19T11:02:43Z</time>
      </trkpt>
      <trkpt lat="45.92296" lon="4.75837">
        <ele>173</ele>
        <time>2016-11-19T11:02:44Z</time>
      </trkpt>
      <trkpt lat="45.92291" lon="4.75834">
        <ele>173</ele>
        <time>2016-11-19T11:02:45Z</time>
      </trkpt>
      <trkpt lat="45.92286" lon="4.7583">
        <ele>174</ele>
        <time>2016-11-19T11:02:46Z</time>
      </trkpt>
      <trkpt lat="45.9228" lon="4.75827">
        <ele>174</ele>
        <time>2016-11-19T11:02:47Z</time>
      </trkpt>
      <trkpt lat="45.92275" lon="4.75823">
        <ele>174</ele>
        <time>2016-11-19T11:02:48Z</time>
      </trkpt>
      <trkpt lat="45.92271" lon="4.75818">
        <ele>174</ele>
        <time>2016-11-19T11:02:49Z</time>
      </trkpt>
      <trkpt lat="45.92266" lon="4.75812">
        <ele>174</ele>
        <time>2016-11-19T11:02:50Z</time>
      </trkpt>
      <trkpt lat="45.92263" lon="4.75805">
        <ele>174</ele>
        <time>2016-11-19T11:02:51Z</time>
      </trkpt>
      <trkpt lat="45.9226" lon="4.75798">
        <ele>174</ele>
        <time>2016-11-19T11:02:52Z</time>
      </trkpt>
      <trkpt lat="45.92258" lon="4.75791">
        <ele>174</ele>
        <time>2016-11-19T11:02:53Z</time>
      </trkpt>
      <trkpt lat="45.92257" lon="4.75784">
        <ele>174</ele>
        <time>2016-11-19T11:02:54Z</time>
      </trkpt>
      <trkpt lat="45.92255" lon="4.75777">
        <ele>174</ele>
        <time>2016-11-19T11:02:55Z</time>
      </trkpt>
      <trkpt lat="45.92254" lon="4.7577">
        <ele>174</ele>
        <time>2016-11-19T11:02:56Z</time>
      </trkpt>
      <trkpt lat="45.92254" lon="4.75763">
        <ele>174</ele>
        <time>2016-11-19T11:02:57Z</time>
      </trkpt>
      <trkpt lat="45.92253" lon="4.75751">
        <ele>174</ele>
        <time>2016-11-19T11:02:59Z</time>
      </trkpt>
      <trkpt lat="45.92253" lon="4.75744">
        <ele>174</ele>
        <time>2016-11-19T11:03:00Z</time>
      </trkpt>
      <trkpt lat="45.92251" lon="4.75738">
        <ele>174</ele>
        <time>2016-11-19T11:03:01Z</time>
      </trkpt>
      <trkpt lat="45.92249" lon="4.75732">
        <ele>174</ele>
        <time>2016-11-19T11:03:02Z</time>
      </trkpt>
      <trkpt lat="45.92247" lon="4.75725">
        <ele>174</ele>
        <time>2016-11-19T11:03:03Z</time>
      </trkpt>
      <trkpt lat="45.92245" lon="4.75718">
        <ele>174</ele>
        <time>2016-11-19T11:03:04Z</time>
      </trkpt>
      <trkpt lat="45.92242" lon="4.75712">
        <ele>174</ele>
        <time>2016-11-19T11:03:05Z</time>
      </trkpt>
      <trkpt lat="45.92239" lon="4.75706">
        <ele>174</ele>
        <time>2016-11-19T11:03:06Z</time>
      </trkpt>
      <trkpt lat="45.92235" lon="4.75701">
        <ele>174</ele>
        <time>2016-11-19T11:03:07Z</time>
      </trkpt>
      <trkpt lat="45.9223" lon="4.75696">
        <ele>174</ele>
        <time>2016-11-19T11:03:08Z</time>
      </trkpt>
      <trkpt lat="45.92226" lon="4.75692">
        <ele>174</ele>
        <time>2016-11-19T11:03:09Z</time>
      </trkpt>
      <trkpt lat="45.92222" lon="4.75687">
        <ele>174</ele>
        <time>2016-11-19T11:03:10Z</time>
      </trkpt>
      <trkpt lat="45.92218" lon="4.75683">
        <ele>174</ele>
        <time>2016-11-19T11:03:11Z</time>
      </trkpt>
      <trkpt lat="45.92213" lon="4.75678">
        <ele>174</ele>
        <time>2016-11-19T11:03:12Z</time>
      </trkpt>
      <trkpt lat="45.92209" lon="4.75674">
        <ele>174</ele>
        <time>2016-11-19T11:03:13Z</time>
      </trkpt>
      <trkpt lat="45.92205" lon="4.7567">
        <ele>174</ele>
        <time>2016-11-19T11:03:14Z</time>
      </trkpt>
      <trkpt lat="45.92199" lon="4.75666">
        <ele>174</ele>
        <time>2016-11-19T11:03:15Z</time>
      </trkpt>
      <trkpt lat="45.92195" lon="4.75662">
        <ele>174</ele>
        <time>2016-11-19T11:03:16Z</time>
      </trkpt>
      <trkpt lat="45.92191" lon="4.75657">
        <ele>174</ele>
        <time>2016-11-19T11:03:17Z</time>
      </trkpt>
      <trkpt lat="45.92187" lon="4.75652">
        <ele>174</ele>
        <time>2016-11-19T11:03:18Z</time>
      </trkpt>
      <trkpt lat="45.92183" lon="4.75648">
        <ele>174</ele>
        <time>2016-11-19T11:03:19Z</time>
      </trkpt>
      <trkpt lat="45.92179" lon="4.75644">
        <ele>174</ele>
        <time>2016-11-19T11:03:20Z</time>
      </trkpt>
      <trkpt lat="45.92175" lon="4.7564">
        <ele>174</ele>
        <time>2016-11-19T11:03:21Z</time>
      </trkpt>
      <trkpt lat="45.92171" lon="4.75635">
        <ele>174</ele>
        <time>2016-11-19T11:03:22Z</time>
      </trkpt>
      <trkpt lat="45.92167" lon="4.75631">
        <ele>174</ele>
        <time>2016-11-19T11:03:23Z</time>
      </trkpt>
      <trkpt lat="45.92162" lon="4.75628">
        <ele>174</ele>
        <time>2016-11-19T11:03:24Z</time>
      </trkpt>
      <trkpt lat="45.92158" lon="4.75623">
        <ele>174</ele>
        <time>2016-11-19T11:03:25Z</time>
      </trkpt>
      <trkpt lat="45.92154" lon="4.75619">
        <ele>174</ele>
        <time>2016-11-19T11:03:26Z</time>
      </trkpt>
      <trkpt lat="45.9215" lon="4.75615">
        <ele>174</ele>
        <time>2016-11-19T11:03:27Z</time>
      </trkpt>
      <trkpt lat="45.92145" lon="4.75611">
        <ele>174</ele>
        <time>2016-11-19T11:03:28Z</time>
      </trkpt>
      <trkpt lat="45.92141" lon="4.75608">
        <ele>174</ele>
        <time>2016-11-19T11:03:29Z</time>
      </trkpt>
      <trkpt lat="45.92137" lon="4.75603">
        <ele>174</ele>
        <time>2016-11-19T11:03:30Z</time>
      </trkpt>
      <trkpt lat="45.92132" lon="4.756">
        <ele>174</ele>
        <time>2016-11-19T11:03:31Z</time>
      </trkpt>
      <trkpt lat="45.92127" lon="4.75596">
        <ele>174</ele>
        <time>2016-11-19T11:03:32Z</time>
      </trkpt>
      <trkpt lat="45.92123" lon="4.75592">
        <ele>174</ele>
        <time>2016-11-19T11:03:33Z</time>
      </trkpt>
      <trkpt lat="45.9212" lon="4.75587">
        <ele>174</ele>
        <time>2016-11-19T11:03:34Z</time>
      </trkpt>
      <trkpt lat="45.92117" lon="4.75582">
        <ele>174</ele>
        <time>2016-11-19T11:03:35Z</time>
      </trkpt>
      <trkpt lat="45.92115" lon="4.75577">
        <ele>174</ele>
        <time>2016-11-19T11:03:36Z</time>
      </trkpt>
      <trkpt lat="45.92112" lon="4.75571">
        <ele>174</ele>
        <time>2016-11-19T11:03:37Z</time>
      </trkpt>
      <trkpt lat="45.92111" lon="4.75565">
        <ele>174</ele>
        <time>2016-11-19T11:03:38Z</time>
      </trkpt>
      <trkpt lat="45.92116" lon="4.75559">
        <ele>174</ele>
        <time>2016-11-19T11:03:39Z</time>
      </trkpt>
      <trkpt lat="45.92118" lon="4.75553">
        <ele>174</ele>
        <time>2016-11-19T11:03:40Z</time>
      </trkpt>
      <trkpt lat="45.92121" lon="4.75546">
        <ele>174</ele>
        <time>2016-11-19T11:03:41Z</time>
      </trkpt>
      <trkpt lat="45.92124" lon="4.75541">
        <ele>174</ele>
        <time>2016-11-19T11:03:42Z</time>
      </trkpt>
      <trkpt lat="45.92128" lon="4.75535">
        <ele>174</ele>
        <time>2016-11-19T11:03:43Z</time>
      </trkpt>
      <trkpt lat="45.92131" lon="4.75529">
        <ele>174</ele>
        <time>2016-11-19T11:03:44Z</time>
      </trkpt>
      <trkpt lat="45.92135" lon="4.75523">
        <ele>174</ele>
        <time>2016-11-19T11:03:45Z</time>
      </trkpt>
      <trkpt lat="45.92139" lon="4.75517">
        <ele>174</ele>
        <time>2016-11-19T11:03:46Z</time>
      </trkpt>
      <trkpt lat="45.92144" lon="4.7551">
        <ele>175</ele>
        <time>2016-11-19T11:03:47Z</time>
      </trkpt>
      <trkpt lat="45.92147" lon="4.75502">
        <ele>175</ele>
        <time>2016-11-19T11:03:48Z</time>
      </trkpt>
      <trkpt lat="45.92149" lon="4.75495">
        <ele>175</ele>
        <time>2016-11-19T11:03:49Z</time>
      </trkpt>
      <trkpt lat="45.92152" lon="4.75488">
        <ele>176</ele>
        <time>2016-11-19T11:03:50Z</time>
      </trkpt>
      <trkpt lat="45.92154" lon="4.7548">
        <ele>176</ele>
        <time>2016-11-19T11:03:51Z</time>
      </trkpt>
      <trkpt lat="45.92156" lon="4.75472">
        <ele>176</ele>
        <time>2016-11-19T11:03:52Z</time>
      </trkpt>
      <trkpt lat="45.92158" lon="4.75465">
        <ele>176</ele>
        <time>2016-11-19T11:03:53Z</time>
      </trkpt>
      <trkpt lat="45.92161" lon="4.75458">
        <ele>176</ele>
        <time>2016-11-19T11:03:54Z</time>
      </trkpt>
      <trkpt lat="45.92164" lon="4.75452">
        <ele>176</ele>
        <time>2016-11-19T11:03:55Z</time>
      </trkpt>
      <trkpt lat="45.92167" lon="4.75445">
        <ele>176</ele>
        <time>2016-11-19T11:03:56Z</time>
      </trkpt>
      <trkpt lat="45.9217" lon="4.75438">
        <ele>177</ele>
        <time>2016-11-19T11:03:57Z</time>
      </trkpt>
      <trkpt lat="45.92173" lon="4.75431">
        <ele>177</ele>
        <time>2016-11-19T11:03:58Z</time>
      </trkpt>
      <trkpt lat="45.92176" lon="4.75425">
        <ele>177</ele>
        <time>2016-11-19T11:03:59Z</time>
      </trkpt>
      <trkpt lat="45.92179" lon="4.75419">
        <ele>177</ele>
        <time>2016-11-19T11:04:00Z</time>
      </trkpt>
      <trkpt lat="45.92181" lon="4.75413">
        <ele>177</ele>
        <time>2016-11-19T11:04:01Z</time>
      </trkpt>
      <trkpt lat="45.92184" lon="4.75407">
        <ele>177</ele>
        <time>2016-11-19T11:04:02Z</time>
      </trkpt>
      <trkpt lat="45.92186" lon="4.75401">
        <ele>177</ele>
        <time>2016-11-19T11:04:03Z</time>
      </trkpt>
      <trkpt lat="45.92188" lon="4.75395">
        <ele>177</ele>
        <time>2016-11-19T11:04:04Z</time>
      </trkpt>
      <trkpt lat="45.92191" lon="4.75389">
        <ele>177</ele>
        <time>2016-11-19T11:04:05Z</time>
      </trkpt>
      <trkpt lat="45.92193" lon="4.75383">
        <ele>177</ele>
        <time>2016-11-19T11:04:06Z</time>
      </trkpt>
      <trkpt lat="45.92195" lon="4.75378">
        <ele>177</ele>
        <time>2016-11-19T11:04:07Z</time>
      </trkpt>
      <trkpt lat="45.92198" lon="4.75371">
        <ele>177</ele>
        <time>2016-11-19T11:04:08Z</time>
      </trkpt>
      <trkpt lat="45.922" lon="4.75365">
        <ele>177</ele>
        <time>2016-11-19T11:04:09Z</time>
      </trkpt>
      <trkpt lat="45.92203" lon="4.75358">
        <ele>177</ele>
        <time>2016-11-19T11:04:10Z</time>
      </trkpt>
      <trkpt lat="45.92205" lon="4.7535">
        <ele>177</ele>
        <time>2016-11-19T11:04:11Z</time>
      </trkpt>
      <trkpt lat="45.92208" lon="4.75342">
        <ele>177</ele>
        <time>2016-11-19T11:04:12Z</time>
      </trkpt>
      <trkpt lat="45.9221" lon="4.75333">
        <ele>176</ele>
        <time>2016-11-19T11:04:13Z</time>
      </trkpt>
      <trkpt lat="45.92211" lon="4.75324">
        <ele>176</ele>
        <time>2016-11-19T11:04:14Z</time>
      </trkpt>
      <trkpt lat="45.92212" lon="4.75315">
        <ele>176</ele>
        <time>2016-11-19T11:04:15Z</time>
      </trkpt>
      <trkpt lat="45.92213" lon="4.75306">
        <ele>176</ele>
        <time>2016-11-19T11:04:16Z</time>
      </trkpt>
      <trkpt lat="45.92214" lon="4.75296">
        <ele>176</ele>
        <time>2016-11-19T11:04:17Z</time>
      </trkpt>
      <trkpt lat="45.92214" lon="4.75287">
        <ele>176</ele>
        <time>2016-11-19T11:04:18Z</time>
      </trkpt>
      <trkpt lat="45.92214" lon="4.75278">
        <ele>176</ele>
        <time>2016-11-19T11:04:19Z</time>
      </trkpt>
      <trkpt lat="45.92214" lon="4.75268">
        <ele>176</ele>
        <time>2016-11-19T11:04:20Z</time>
      </trkpt>
      <trkpt lat="45.92215" lon="4.75259">
        <ele>175</ele>
        <time>2016-11-19T11:04:21Z</time>
      </trkpt>
      <trkpt lat="45.92215" lon="4.75249">
        <ele>175</ele>
        <time>2016-11-19T11:04:22Z</time>
      </trkpt>
      <trkpt lat="45.92215" lon="4.75239">
        <ele>175</ele>
        <time>2016-11-19T11:04:23Z</time>
      </trkpt>
      <trkpt lat="45.92216" lon="4.75229">
        <ele>175</ele>
        <time>2016-11-19T11:04:24Z</time>
      </trkpt>
      <trkpt lat="45.92217" lon="4.7522">
        <ele>175</ele>
        <time>2016-11-19T11:04:25Z</time>
      </trkpt>
      <trkpt lat="45.92218" lon="4.75211">
        <ele>175</ele>
        <time>2016-11-19T11:04:26Z</time>
      </trkpt>
      <trkpt lat="45.9222" lon="4.75201">
        <ele>175</ele>
        <time>2016-11-19T11:04:27Z</time>
      </trkpt>
      <trkpt lat="45.92222" lon="4.75192">
        <ele>175</ele>
        <time>2016-11-19T11:04:28Z</time>
      </trkpt>
      <trkpt lat="45.92224" lon="4.75183">
        <ele>175</ele>
        <time>2016-11-19T11:04:29Z</time>
      </trkpt>
      <trkpt lat="45.92227" lon="4.75174">
        <ele>175</ele>
        <time>2016-11-19T11:04:30Z</time>
      </trkpt>
      <trkpt lat="45.92231" lon="4.75166">
        <ele>174</ele>
        <time>2016-11-19T11:04:31Z</time>
      </trkpt>
      <trkpt lat="45.92234" lon="4.75158">
        <ele>174</ele>
        <time>2016-11-19T11:04:32Z</time>
      </trkpt>
      <trkpt lat="45.92238" lon="4.75151">
        <ele>174</ele>
        <time>2016-11-19T11:04:33Z</time>
      </trkpt>
      <trkpt lat="45.92242" lon="4.75144">
        <ele>174</ele>
        <time>2016-11-19T11:04:34Z</time>
      </trkpt>
      <trkpt lat="45.92246" lon="4.75137">
        <ele>174</ele>
        <time>2016-11-19T11:04:35Z</time>
      </trkpt>
      <trkpt lat="45.9225" lon="4.75132">
        <ele>174</ele>
        <time>2016-11-19T11:04:36Z</time>
      </trkpt>
      <trkpt lat="45.92255" lon="4.75126">
        <ele>174</ele>
        <time>2016-11-19T11:04:37Z</time>
      </trkpt>
      <trkpt lat="45.9226" lon="4.7512">
        <ele>174</ele>
        <time>2016-11-19T11:04:38Z</time>
      </trkpt>
      <trkpt lat="45.92265" lon="4.75114">
        <ele>174</ele>
        <time>2016-11-19T11:04:39Z</time>
      </trkpt>
      <trkpt lat="45.9227" lon="4.75109">
        <ele>174</ele>
        <time>2016-11-19T11:04:40Z</time>
      </trkpt>
      <trkpt lat="45.92275" lon="4.75103">
        <ele>173</ele>
        <time>2016-11-19T11:04:41Z</time>
      </trkpt>
      <trkpt lat="45.92281" lon="4.75098">
        <ele>173</ele>
        <time>2016-11-19T11:04:42Z</time>
      </trkpt>
      <trkpt lat="45.92285" lon="4.75093">
        <ele>173</ele>
        <time>2016-11-19T11:04:43Z</time>
      </trkpt>
      <trkpt lat="45.92291" lon="4.75087">
        <ele>173</ele>
        <time>2016-11-19T11:04:44Z</time>
      </trkpt>
      <trkpt lat="45.92296" lon="4.75081">
        <ele>172</ele>
        <time>2016-11-19T11:04:45Z</time>
      </trkpt>
      <trkpt lat="45.92301" lon="4.75076">
        <ele>172</ele>
        <time>2016-11-19T11:04:46Z</time>
      </trkpt>
      <trkpt lat="45.92306" lon="4.75069">
        <ele>172</ele>
        <time>2016-11-19T11:04:47Z</time>
      </trkpt>
      <trkpt lat="45.9231" lon="4.75063">
        <ele>172</ele>
        <time>2016-11-19T11:04:48Z</time>
      </trkpt>
      <trkpt lat="45.92315" lon="4.75056">
        <ele>172</ele>
        <time>2016-11-19T11:04:49Z</time>
      </trkpt>
      <trkpt lat="45.92319" lon="4.7505">
        <ele>172</ele>
        <time>2016-11-19T11:04:50Z</time>
      </trkpt>
      <trkpt lat="45.92323" lon="4.75043">
        <ele>172</ele>
        <time>2016-11-19T11:04:51Z</time>
      </trkpt>
      <trkpt lat="45.92328" lon="4.75036">
        <ele>171</ele>
        <time>2016-11-19T11:04:52Z</time>
      </trkpt>
      <trkpt lat="45.92333" lon="4.75028">
        <ele>171</ele>
        <time>2016-11-19T11:04:53Z</time>
      </trkpt>
      <trkpt lat="45.92337" lon="4.7502">
        <ele>170</ele>
        <time>2016-11-19T11:04:54Z</time>
      </trkpt>
      <trkpt lat="45.92341" lon="4.75012">
        <ele>170</ele>
        <time>2016-11-19T11:04:55Z</time>
      </trkpt>
      <trkpt lat="45.92344" lon="4.75004">
        <ele>170</ele>
        <time>2016-11-19T11:04:56Z</time>
      </trkpt>
      <trkpt lat="45.92348" lon="4.74996">
        <ele>170</ele>
        <time>2016-11-19T11:04:57Z</time>
      </trkpt>
      <trkpt lat="45.92351" lon="4.74989">
        <ele>170</ele>
        <time>2016-11-19T11:04:58Z</time>
      </trkpt>
      <trkpt lat="45.92354" lon="4.74981">
        <ele>170</ele>
        <time>2016-11-19T11:04:59Z</time>
      </trkpt>
      <trkpt lat="45.92357" lon="4.74974">
        <ele>170</ele>
        <time>2016-11-19T11:05:00Z</time>
      </trkpt>
      <trkpt lat="45.9236" lon="4.74967">
        <ele>170</ele>
        <time>2016-11-19T11:05:01Z</time>
      </trkpt>
      <trkpt lat="45.92363" lon="4.7496">
        <ele>170</ele>
        <time>2016-11-19T11:05:02Z</time>
      </trkpt>
      <trkpt lat="45.92365" lon="4.74953">
        <ele>170</ele>
        <time>2016-11-19T11:05:03Z</time>
      </trkpt>
      <trkpt lat="45.92367" lon="4.74947">
        <ele>170</ele>
        <time>2016-11-19T11:05:04Z</time>
      </trkpt>
      <trkpt lat="45.9237" lon="4.7494">
        <ele>170</ele>
        <time>2016-11-19T11:05:05Z</time>
      </trkpt>
      <trkpt lat="45.92372" lon="4.74933">
        <ele>170</ele>
        <time>2016-11-19T11:05:06Z</time>
      </trkpt>
      <trkpt lat="45.92375" lon="4.74927">
        <ele>170</ele>
        <time>2016-11-19T11:05:07Z</time>
      </trkpt>
      <trkpt lat="45.92378" lon="4.7492">
        <ele>170</ele>
        <time>2016-11-19T11:05:08Z</time>
      </trkpt>
      <trkpt lat="45.92381" lon="4.74913">
        <ele>171</ele>
        <time>2016-11-19T11:05:09Z</time>
      </trkpt>
      <trkpt lat="45.92384" lon="4.74905">
        <ele>171</ele>
        <time>2016-11-19T11:05:10Z</time>
      </trkpt>
      <trkpt lat="45.92386" lon="4.74898">
        <ele>171</ele>
        <time>2016-11-19T11:05:11Z</time>
      </trkpt>
      <trkpt lat="45.92389" lon="4.74891">
        <ele>171</ele>
        <time>2016-11-19T11:05:12Z</time>
      </trkpt>
      <trkpt lat="45.92392" lon="4.74884">
        <ele>171</ele>
        <time>2016-11-19T11:05:13Z</time>
      </trkpt>
      <trkpt lat="45.92395" lon="4.74876">
        <ele>171</ele>
        <time>2016-11-19T11:05:14Z</time>
      </trkpt>
      <trkpt lat="45.92398" lon="4.74868">
        <ele>171</ele>
        <time>2016-11-19T11:05:15Z</time>
      </trkpt>
      <trkpt lat="45.924" lon="4.74861">
        <ele>171</ele>
        <time>2016-11-19T11:05:16Z</time>
      </trkpt>
      <trkpt lat="45.92403" lon="4.74853">
        <ele>171</ele>
        <time>2016-11-19T11:05:17Z</time>
      </trkpt>
      <trkpt lat="45.92405" lon="4.74844">
        <ele>171</ele>
        <time>2016-11-19T11:05:18Z</time>
      </trkpt>
      <trkpt lat="45.92406" lon="4.74836">
        <ele>171</ele>
        <time>2016-11-19T11:05:19Z</time>
      </trkpt>
      <trkpt lat="45.92408" lon="4.74827">
        <ele>171</ele>
        <time>2016-11-19T11:05:20Z</time>
      </trkpt>
      <trkpt lat="45.92409" lon="4.74819">
        <ele>171</ele>
        <time>2016-11-19T11:05:21Z</time>
      </trkpt>
      <trkpt lat="45.92411" lon="4.7481">
        <ele>171</ele>
        <time>2016-11-19T11:05:22Z</time>
      </trkpt>
      <trkpt lat="45.92412" lon="4.74801">
        <ele>171</ele>
        <time>2016-11-19T11:05:23Z</time>
      </trkpt>
      <trkpt lat="45.92414" lon="4.74793">
        <ele>171</ele>
        <time>2016-11-19T11:05:24Z</time>
      </trkpt>
      <trkpt lat="45.92415" lon="4.74785">
        <ele>171</ele>
        <time>2016-11-19T11:05:25Z</time>
      </trkpt>
      <trkpt lat="45.92417" lon="4.74777">
        <ele>171</ele>
        <time>2016-11-19T11:05:26Z</time>
      </trkpt>
      <trkpt lat="45.92419" lon="4.7477">
        <ele>171</ele>
        <time>2016-11-19T11:05:27Z</time>
      </trkpt>
      <trkpt lat="45.92421" lon="4.74762">
        <ele>171</ele>
        <time>2016-11-19T11:05:28Z</time>
      </trkpt>
      <trkpt lat="45.92423" lon="4.74755">
        <ele>172</ele>
        <time>2016-11-19T11:05:29Z</time>
      </trkpt>
      <trkpt lat="45.92425" lon="4.74748">
        <ele>172</ele>
        <time>2016-11-19T11:05:30Z</time>
      </trkpt>
      <trkpt lat="45.92427" lon="4.74741">
        <ele>171</ele>
        <time>2016-11-19T11:05:31Z</time>
      </trkpt>
      <trkpt lat="45.92429" lon="4.74734">
        <ele>171</ele>
        <time>2016-11-19T11:05:32Z</time>
      </trkpt>
      <trkpt lat="45.92432" lon="4.74727">
        <ele>171</ele>
        <time>2016-11-19T11:05:33Z</time>
      </trkpt>
      <trkpt lat="45.92434" lon="4.7472">
        <ele>171</ele>
        <time>2016-11-19T11:05:34Z</time>
      </trkpt>
      <trkpt lat="45.92437" lon="4.74713">
        <ele>171</ele>
        <time>2016-11-19T11:05:35Z</time>
      </trkpt>
      <trkpt lat="45.9244" lon="4.74705">
        <ele>171</ele>
        <time>2016-11-19T11:05:36Z</time>
      </trkpt>
      <trkpt lat="45.92442" lon="4.74698">
        <ele>171</ele>
        <time>2016-11-19T11:05:37Z</time>
      </trkpt>
      <trkpt lat="45.92445" lon="4.74692">
        <ele>171</ele>
        <time>2016-11-19T11:05:38Z</time>
      </trkpt>
      <trkpt lat="45.92448" lon="4.74685">
        <ele>171</ele>
        <time>2016-11-19T11:05:39Z</time>
      </trkpt>
      <trkpt lat="45.9245" lon="4.74679">
        <ele>171</ele>
        <time>2016-11-19T11:05:40Z</time>
      </trkpt>
      <trkpt lat="45.92454" lon="4.74673">
        <ele>171</ele>
        <time>2016-11-19T11:05:41Z</time>
      </trkpt>
      <trkpt lat="45.92457" lon="4.74667">
        <ele>171</ele>
        <time>2016-11-19T11:05:42Z</time>
      </trkpt>
      <trkpt lat="45.9246" lon="4.74661">
        <ele>171</ele>
        <time>2016-11-19T11:05:43Z</time>
      </trkpt>
      <trkpt lat="45.92463" lon="4.74655">
        <ele>171</ele>
        <time>2016-11-19T11:05:44Z</time>
      </trkpt>
      <trkpt lat="45.92467" lon="4.74649">
        <ele>171</ele>
        <time>2016-11-19T11:05:45Z</time>
      </trkpt>
      <trkpt lat="45.92471" lon="4.74643">
        <ele>171</ele>
        <time>2016-11-19T11:05:46Z</time>
      </trkpt>
      <trkpt lat="45.92475" lon="4.74637">
        <ele>171</ele>
        <time>2016-11-19T11:05:47Z</time>
      </trkpt>
      <trkpt lat="45.92479" lon="4.74631">
        <ele>171</ele>
        <time>2016-11-19T11:05:48Z</time>
      </trkpt>
      <trkpt lat="45.92483" lon="4.74626">
        <ele>171</ele>
        <time>2016-11-19T11:05:49Z</time>
      </trkpt>
      <trkpt lat="45.92488" lon="4.74621">
        <ele>171</ele>
        <time>2016-11-19T11:05:50Z</time>
      </trkpt>
      <trkpt lat="45.92492" lon="4.74615">
        <ele>171</ele>
        <time>2016-11-19T11:05:51Z</time>
      </trkpt>
      <trkpt lat="45.92498" lon="4.74609">
        <ele>171</ele>
        <time>2016-11-19T11:05:52Z</time>
      </trkpt>
      <trkpt lat="45.92502" lon="4.74604">
        <ele>171</ele>
        <time>2016-11-19T11:05:53Z</time>
      </trkpt>
      <trkpt lat="45.92506" lon="4.74599">
        <ele>171</ele>
        <time>2016-11-19T11:05:54Z</time>
      </trkpt>
      <trkpt lat="45.9251" lon="4.74594">
        <ele>171</ele>
        <time>2016-11-19T11:05:55Z</time>
      </trkpt>
      <trkpt lat="45.92514" lon="4.74589">
        <ele>171</ele>
        <time>2016-11-19T11:05:56Z</time>
      </trkpt>
      <trkpt lat="45.92518" lon="4.74584">
        <ele>171</ele>
        <time>2016-11-19T11:05:57Z</time>
      </trkpt>
      <trkpt lat="45.92523" lon="4.74579">
        <ele>171</ele>
        <time>2016-11-19T11:05:58Z</time>
      </trkpt>
      <trkpt lat="45.92527" lon="4.74574">
        <ele>171</ele>
        <time>2016-11-19T11:05:59Z</time>
      </trkpt>
      <trkpt lat="45.92532" lon="4.74568">
        <ele>171</ele>
        <time>2016-11-19T11:06:00Z</time>
      </trkpt>
      <trkpt lat="45.92536" lon="4.74563">
        <ele>171</ele>
        <time>2016-11-19T11:06:01Z</time>
      </trkpt>
      <trkpt lat="45.92539" lon="4.74557">
        <ele>171</ele>
        <time>2016-11-19T11:06:02Z</time>
      </trkpt>
      <trkpt lat="45.92543" lon="4.74551">
        <ele>170</ele>
        <time>2016-11-19T11:06:03Z</time>
      </trkpt>
      <trkpt lat="45.92547" lon="4.74545">
        <ele>170</ele>
        <time>2016-11-19T11:06:04Z</time>
      </trkpt>
      <trkpt lat="45.92551" lon="4.74538">
        <ele>170</ele>
        <time>2016-11-19T11:06:05Z</time>
      </trkpt>
      <trkpt lat="45.92554" lon="4.74532">
        <ele>170</ele>
        <time>2016-11-19T11:06:06Z</time>
      </trkpt>
      <trkpt lat="45.92557" lon="4.74527">
        <ele>170</ele>
        <time>2016-11-19T11:06:07Z</time>
      </trkpt>
      <trkpt lat="45.9256" lon="4.7452">
        <ele>170</ele>
        <time>2016-11-19T11:06:08Z</time>
      </trkpt>
      <trkpt lat="45.92564" lon="4.74513">
        <ele>170</ele>
        <time>2016-11-19T11:06:09Z</time>
      </trkpt>
      <trkpt lat="45.92567" lon="4.74507">
        <ele>170</ele>
        <time>2016-11-19T11:06:10Z</time>
      </trkpt>
      <trkpt lat="45.92571" lon="4.745">
        <ele>170</ele>
        <time>2016-11-19T11:06:11Z</time>
      </trkpt>
      <trkpt lat="45.92575" lon="4.74493">
        <ele>170</ele>
        <time>2016-11-19T11:06:12Z</time>
      </trkpt>
      <trkpt lat="45.92578" lon="4.74487">
        <ele>170</ele>
        <time>2016-11-19T11:06:13Z</time>
      </trkpt>
      <trkpt lat="45.92582" lon="4.74481">
        <ele>170</ele>
        <time>2016-11-19T11:06:14Z</time>
      </trkpt>
      <trkpt lat="45.92585" lon="4.74475">
        <ele>170</ele>
        <time>2016-11-19T11:06:15Z</time>
      </trkpt>
      <trkpt lat="45.92588" lon="4.74469">
        <ele>170</ele>
        <time>2016-11-19T11:06:16Z</time>
      </trkpt>
      <trkpt lat="45.92591" lon="4.74463">
        <ele>170</ele>
        <time>2016-11-19T11:06:17Z</time>
      </trkpt>
      <trkpt lat="45.92595" lon="4.74457">
        <ele>170</ele>
        <time>2016-11-19T11:06:18Z</time>
      </trkpt>
      <trkpt lat="45.92598" lon="4.74451">
        <ele>170</ele>
        <time>2016-11-19T11:06:19Z</time>
      </trkpt>
      <trkpt lat="45.92602" lon="4.74444">
        <ele>170</ele>
        <time>2016-11-19T11:06:20Z</time>
      </trkpt>
      <trkpt lat="45.92606" lon="4.74438">
        <ele>170</ele>
        <time>2016-11-19T11:06:21Z</time>
      </trkpt>
      <trkpt lat="45.92609" lon="4.74431">
        <ele>170</ele>
        <time>2016-11-19T11:06:22Z</time>
      </trkpt>
      <trkpt lat="45.92613" lon="4.74425">
        <ele>170</ele>
        <time>2016-11-19T11:06:23Z</time>
      </trkpt>
      <trkpt lat="45.92617" lon="4.74417">
        <ele>170</ele>
        <time>2016-11-19T11:06:24Z</time>
      </trkpt>
      <trkpt lat="45.9262" lon="4.7441">
        <ele>170</ele>
        <time>2016-11-19T11:06:25Z</time>
      </trkpt>
      <trkpt lat="45.92623" lon="4.74403">
        <ele>170</ele>
        <time>2016-11-19T11:06:26Z</time>
      </trkpt>
      <trkpt lat="45.92627" lon="4.74397">
        <ele>170</ele>
        <time>2016-11-19T11:06:27Z</time>
      </trkpt>
      <trkpt lat="45.9263" lon="4.74392">
        <ele>170</ele>
        <time>2016-11-19T11:06:28Z</time>
      </trkpt>
      <trkpt lat="45.92633" lon="4.74386">
        <ele>170</ele>
        <time>2016-11-19T11:06:29Z</time>
      </trkpt>
      <trkpt lat="45.92635" lon="4.74381">
        <ele>170</ele>
        <time>2016-11-19T11:06:30Z</time>
      </trkpt>
      <trkpt lat="45.92638" lon="4.74375">
        <ele>171</ele>
        <time>2016-11-19T11:06:31Z</time>
      </trkpt>
      <trkpt lat="45.92641" lon="4.74369">
        <ele>171</ele>
        <time>2016-11-19T11:06:32Z</time>
      </trkpt>
      <trkpt lat="45.92644" lon="4.74364">
        <ele>171</ele>
        <time>2016-11-19T11:06:33Z</time>
      </trkpt>
      <trkpt lat="45.92647" lon="4.74359">
        <ele>171</ele>
        <time>2016-11-19T11:06:34Z</time>
      </trkpt>
      <trkpt lat="45.9265" lon="4.74353">
        <ele>171</ele>
        <time>2016-11-19T11:06:35Z</time>
      </trkpt>
      <trkpt lat="45.92653" lon="4.74347">
        <ele>171</ele>
        <time>2016-11-19T11:06:36Z</time>
      </trkpt>
      <trkpt lat="45.92656" lon="4.74341">
        <ele>171</ele>
        <time>2016-11-19T11:06:37Z</time>
      </trkpt>
      <trkpt lat="45.9266" lon="4.74336">
        <ele>171</ele>
        <time>2016-11-19T11:06:38Z</time>
      </trkpt>
      <trkpt lat="45.92663" lon="4.7433">
        <ele>171</ele>
        <time>2016-11-19T11:06:39Z</time>
      </trkpt>
      <trkpt lat="45.92667" lon="4.74323">
        <ele>171</ele>
        <time>2016-11-19T11:06:40Z</time>
      </trkpt>
      <trkpt lat="45.9267" lon="4.74317">
        <ele>171</ele>
        <time>2016-11-19T11:06:41Z</time>
      </trkpt>
      <trkpt lat="45.92674" lon="4.7431">
        <ele>171</ele>
        <time>2016-11-19T11:06:42Z</time>
      </trkpt>
      <trkpt lat="45.92678" lon="4.74303">
        <ele>171</ele>
        <time>2016-11-19T11:06:43Z</time>
      </trkpt>
      <trkpt lat="45.92681" lon="4.74297">
        <ele>171</ele>
        <time>2016-11-19T11:06:44Z</time>
      </trkpt>
      <trkpt lat="45.92685" lon="4.7429">
        <ele>171</ele>
        <time>2016-11-19T11:06:45Z</time>
      </trkpt>
      <trkpt lat="45.92689" lon="4.74284">
        <ele>171</ele>
        <time>2016-11-19T11:06:46Z</time>
      </trkpt>
      <trkpt lat="45.92692" lon="4.74278">
        <ele>171</ele>
        <time>2016-11-19T11:06:47Z</time>
      </trkpt>
      <trkpt lat="45.92696" lon="4.74272">
        <ele>171</ele>
        <time>2016-11-19T11:06:48Z</time>
      </trkpt>
      <trkpt lat="45.92699" lon="4.74266">
        <ele>171</ele>
        <time>2016-11-19T11:06:49Z</time>
      </trkpt>
      <trkpt lat="45.92702" lon="4.7426">
        <ele>171</ele>
        <time>2016-11-19T11:06:50Z</time>
      </trkpt>
      <trkpt lat="45.92706" lon="4.74255">
        <ele>171</ele>
        <time>2016-11-19T11:06:51Z</time>
      </trkpt>
      <trkpt lat="45.92709" lon="4.74249">
        <ele>171</ele>
        <time>2016-11-19T11:06:52Z</time>
      </trkpt>
      <trkpt lat="45.92712" lon="4.74243">
        <ele>171</ele>
        <time>2016-11-19T11:06:53Z</time>
      </trkpt>
      <trkpt lat="45.92716" lon="4.74238">
        <ele>171</ele>
        <time>2016-11-19T11:06:54Z</time>
      </trkpt>
      <trkpt lat="45.9272" lon="4.74232">
        <ele>171</ele>
        <time>2016-11-19T11:06:55Z</time>
      </trkpt>
      <trkpt lat="45.92723" lon="4.74227">
        <ele>171</ele>
        <time>2016-11-19T11:06:56Z</time>
      </trkpt>
      <trkpt lat="45.92727" lon="4.74221">
        <ele>171</ele>
        <time>2016-11-19T11:06:57Z</time>
      </trkpt>
      <trkpt lat="45.92731" lon="4.74216">
        <ele>171</ele>
        <time>2016-11-19T11:06:58Z</time>
      </trkpt>
      <trkpt lat="45.92735" lon="4.7421">
        <ele>171</ele>
        <time>2016-11-19T11:06:59Z</time>
      </trkpt>
      <trkpt lat="45.92739" lon="4.74205">
        <ele>171</ele>
        <time>2016-11-19T11:07:00Z</time>
      </trkpt>
      <trkpt lat="45.92743" lon="4.742">
        <ele>171</ele>
        <time>2016-11-19T11:07:01Z</time>
      </trkpt>
      <trkpt lat="45.92747" lon="4.74194">
        <ele>171</ele>
        <time>2016-11-19T11:07:02Z</time>
      </trkpt>
      <trkpt lat="45.92751" lon="4.74189">
        <ele>172</ele>
        <time>2016-11-19T11:07:03Z</time>
      </trkpt>
      <trkpt lat="45.92755" lon="4.74184">
        <ele>172</ele>
        <time>2016-11-19T11:07:04Z</time>
      </trkpt>
      <trkpt lat="45.92759" lon="4.74179">
        <ele>172</ele>
        <time>2016-11-19T11:07:05Z</time>
      </trkpt>
      <trkpt lat="45.92764" lon="4.74173">
        <ele>172</ele>
        <time>2016-11-19T11:07:06Z</time>
      </trkpt>
      <trkpt lat="45.92768" lon="4.74169">
        <ele>172</ele>
        <time>2016-11-19T11:07:07Z</time>
      </trkpt>
      <trkpt lat="45.92773" lon="4.74164">
        <ele>172</ele>
        <time>2016-11-19T11:07:08Z</time>
      </trkpt>
      <trkpt lat="45.92777" lon="4.74158">
        <ele>172</ele>
        <time>2016-11-19T11:07:09Z</time>
      </trkpt>
      <trkpt lat="45.92782" lon="4.74154">
        <ele>172</ele>
        <time>2016-11-19T11:07:10Z</time>
      </trkpt>
      <trkpt lat="45.92787" lon="4.74149">
        <ele>172</ele>
        <time>2016-11-19T11:07:11Z</time>
      </trkpt>
      <trkpt lat="45.92791" lon="4.74144">
        <ele>172</ele>
        <time>2016-11-19T11:07:12Z</time>
      </trkpt>
      <trkpt lat="45.92796" lon="4.74139">
        <ele>172</ele>
        <time>2016-11-19T11:07:13Z</time>
      </trkpt>
      <trkpt lat="45.928" lon="4.74134">
        <ele>172</ele>
        <time>2016-11-19T11:07:14Z</time>
      </trkpt>
      <trkpt lat="45.92805" lon="4.74129">
        <ele>172</ele>
        <time>2016-11-19T11:07:15Z</time>
      </trkpt>
      <trkpt lat="45.92809" lon="4.74125">
        <ele>172</ele>
        <time>2016-11-19T11:07:16Z</time>
      </trkpt>
      <trkpt lat="45.92814" lon="4.7412">
        <ele>172</ele>
        <time>2016-11-19T11:07:17Z</time>
      </trkpt>
      <trkpt lat="45.92818" lon="4.74115">
        <ele>172</ele>
        <time>2016-11-19T11:07:18Z</time>
      </trkpt>
      <trkpt lat="45.92823" lon="4.7411">
        <ele>171</ele>
        <time>2016-11-19T11:07:19Z</time>
      </trkpt>
      <trkpt lat="45.92828" lon="4.74105">
        <ele>171</ele>
        <time>2016-11-19T11:07:20Z</time>
      </trkpt>
      <trkpt lat="45.92833" lon="4.741">
        <ele>171</ele>
        <time>2016-11-19T11:07:21Z</time>
      </trkpt>
      <trkpt lat="45.92838" lon="4.74094">
        <ele>171</ele>
        <time>2016-11-19T11:07:22Z</time>
      </trkpt>
      <trkpt lat="45.92842" lon="4.74089">
        <ele>171</ele>
        <time>2016-11-19T11:07:23Z</time>
      </trkpt>
      <trkpt lat="45.92846" lon="4.74085">
        <ele>171</ele>
        <time>2016-11-19T11:07:24Z</time>
      </trkpt>
      <trkpt lat="45.9285" lon="4.74079">
        <ele>172</ele>
        <time>2016-11-19T11:07:25Z</time>
      </trkpt>
      <trkpt lat="45.92854" lon="4.74074">
        <ele>172</ele>
        <time>2016-11-19T11:07:26Z</time>
      </trkpt>
      <trkpt lat="45.92858" lon="4.74069">
        <ele>172</ele>
        <time>2016-11-19T11:07:27Z</time>
      </trkpt>
      <trkpt lat="45.92863" lon="4.74064">
        <ele>172</ele>
        <time>2016-11-19T11:07:28Z</time>
      </trkpt>
      <trkpt lat="45.92867" lon="4.74059">
        <ele>172</ele>
        <time>2016-11-19T11:07:29Z</time>
      </trkpt>
      <trkpt lat="45.92871" lon="4.74055">
        <ele>172</ele>
        <time>2016-11-19T11:07:30Z</time>
      </trkpt>
      <trkpt lat="45.92875" lon="4.74051">
        <ele>172</ele>
        <time>2016-11-19T11:07:31Z</time>
      </trkpt>
      <trkpt lat="45.9288" lon="4.74048">
        <ele>172</ele>
        <time>2016-11-19T11:07:32Z</time>
      </trkpt>
      <trkpt lat="45.92885" lon="4.74047">
        <ele>172</ele>
        <time>2016-11-19T11:07:33Z</time>
      </trkpt>
      <trkpt lat="45.9289" lon="4.74047">
        <ele>172</ele>
        <time>2016-11-19T11:07:34Z</time>
      </trkpt>
      <trkpt lat="45.92895" lon="4.74047">
        <ele>172</ele>
        <time>2016-11-19T11:07:35Z</time>
      </trkpt>
      <trkpt lat="45.929" lon="4.74047">
        <ele>172</ele>
        <time>2016-11-19T11:07:36Z</time>
      </trkpt>
      <trkpt lat="45.92906" lon="4.74046">
        <ele>172</ele>
        <time>2016-11-19T11:07:37Z</time>
      </trkpt>
      <trkpt lat="45.92911" lon="4.74043">
        <ele>172</ele>
        <time>2016-11-19T11:07:38Z</time>
      </trkpt>
      <trkpt lat="45.92915" lon="4.74038">
        <ele>172</ele>
        <time>2016-11-19T11:07:39Z</time>
      </trkpt>
      <trkpt lat="45.92918" lon="4.74031">
        <ele>172</ele>
        <time>2016-11-19T11:07:40Z</time>
      </trkpt>
      <trkpt lat="45.9292" lon="4.74024">
        <ele>172</ele>
        <time>2016-11-19T11:07:41Z</time>
      </trkpt>
      <trkpt lat="45.92921" lon="4.74016">
        <ele>172</ele>
        <time>2016-11-19T11:07:42Z</time>
      </trkpt>
      <trkpt lat="45.92921" lon="4.74009">
        <ele>172</ele>
        <time>2016-11-19T11:07:43Z</time>
      </trkpt>
      <trkpt lat="45.92919" lon="4.74002">
        <ele>172</ele>
        <time>2016-11-19T11:07:44Z</time>
      </trkpt>
      <trkpt lat="45.92916" lon="4.73996">
        <ele>172</ele>
        <time>2016-11-19T11:07:45Z</time>
      </trkpt>
      <trkpt lat="45.92912" lon="4.73991">
        <ele>172</ele>
        <time>2016-11-19T11:07:46Z</time>
      </trkpt>
      <trkpt lat="45.92908" lon="4.73986">
        <ele>172</ele>
        <time>2016-11-19T11:07:47Z</time>
      </trkpt>
      <trkpt lat="45.92904" lon="4.73983">
        <ele>172</ele>
        <time>2016-11-19T11:07:48Z</time>
      </trkpt>
      <trkpt lat="45.92899" lon="4.73979">
        <ele>172</ele>
        <time>2016-11-19T11:07:49Z</time>
      </trkpt>
      <trkpt lat="45.92895" lon="4.73974">
        <ele>172</ele>
        <time>2016-11-19T11:07:50Z</time>
      </trkpt>
      <trkpt lat="45.92893" lon="4.73967">
        <ele>172</ele>
        <time>2016-11-19T11:07:51Z</time>
      </trkpt>
      <trkpt lat="45.92892" lon="4.7396">
        <ele>172</ele>
        <time>2016-11-19T11:07:52Z</time>
      </trkpt>
      <trkpt lat="45.92891" lon="4.73952">
        <ele>172</ele>
        <time>2016-11-19T11:07:53Z</time>
      </trkpt>
      <trkpt lat="45.92892" lon="4.73945">
        <ele>172</ele>
        <time>2016-11-19T11:07:54Z</time>
      </trkpt>
      <trkpt lat="45.92891" lon="4.73937">
        <ele>172</ele>
        <time>2016-11-19T11:07:55Z</time>
      </trkpt>
      <trkpt lat="45.9289" lon="4.73929">
        <ele>172</ele>
        <time>2016-11-19T11:07:56Z</time>
      </trkpt>
      <trkpt lat="45.92889" lon="4.73922">
        <ele>172</ele>
        <time>2016-11-19T11:07:57Z</time>
      </trkpt>
      <trkpt lat="45.92888" lon="4.73914">
        <ele>173</ele>
        <time>2016-11-19T11:07:58Z</time>
      </trkpt>
      <trkpt lat="45.92886" lon="4.73907">
        <ele>173</ele>
        <time>2016-11-19T11:07:59Z</time>
      </trkpt>
      <trkpt lat="45.92884" lon="4.739">
        <ele>173</ele>
        <time>2016-11-19T11:08:00Z</time>
      </trkpt>
      <trkpt lat="45.92882" lon="4.73892">
        <ele>173</ele>
        <time>2016-11-19T11:08:01Z</time>
      </trkpt>
      <trkpt lat="45.92881" lon="4.73884">
        <ele>173</ele>
        <time>2016-11-19T11:08:02Z</time>
      </trkpt>
      <trkpt lat="45.92879" lon="4.73876">
        <ele>173</ele>
        <time>2016-11-19T11:08:03Z</time>
      </trkpt>
      <trkpt lat="45.92877" lon="4.73868">
        <ele>173</ele>
        <time>2016-11-19T11:08:04Z</time>
      </trkpt>
      <trkpt lat="45.92874" lon="4.7386">
        <ele>173</ele>
        <time>2016-11-19T11:08:05Z</time>
      </trkpt>
      <trkpt lat="45.92872" lon="4.73852">
        <ele>173</ele>
        <time>2016-11-19T11:08:06Z</time>
      </trkpt>
      <trkpt lat="45.92871" lon="4.73843">
        <ele>173</ele>
        <time>2016-11-19T11:08:07Z</time>
      </trkpt>
      <trkpt lat="45.92868" lon="4.73836">
        <ele>173</ele>
        <time>2016-11-19T11:08:08Z</time>
      </trkpt>
      <trkpt lat="45.92866" lon="4.73828">
        <ele>173</ele>
        <time>2016-11-19T11:08:09Z</time>
      </trkpt>
      <trkpt lat="45.92864" lon="4.7382">
        <ele>173</ele>
        <time>2016-11-19T11:08:10Z</time>
      </trkpt>
      <trkpt lat="45.92862" lon="4.73813">
        <ele>173</ele>
        <time>2016-11-19T11:08:11Z</time>
      </trkpt>
      <trkpt lat="45.9286" lon="4.73805">
        <ele>173</ele>
        <time>2016-11-19T11:08:12Z</time>
      </trkpt>
      <trkpt lat="45.92856" lon="4.73798">
        <ele>173</ele>
        <time>2016-11-19T11:08:13Z</time>
      </trkpt>
      <trkpt lat="45.92852" lon="4.73793">
        <ele>173</ele>
        <time>2016-11-19T11:08:14Z</time>
      </trkpt>
      <trkpt lat="45.92847" lon="4.73788">
        <ele>173</ele>
        <time>2016-11-19T11:08:15Z</time>
      </trkpt>
      <trkpt lat="45.92841" lon="4.73785">
        <ele>173</ele>
        <time>2016-11-19T11:08:16Z</time>
      </trkpt>
      <trkpt lat="45.92836" lon="4.73781">
        <ele>173</ele>
        <time>2016-11-19T11:08:17Z</time>
      </trkpt>
      <trkpt lat="45.92831" lon="4.73778">
        <ele>173</ele>
        <time>2016-11-19T11:08:18Z</time>
      </trkpt>
      <trkpt lat="45.92827" lon="4.73774">
        <ele>173</ele>
        <time>2016-11-19T11:08:19Z</time>
      </trkpt>
      <trkpt lat="45.92822" lon="4.7377">
        <ele>173</ele>
        <time>2016-11-19T11:08:20Z</time>
      </trkpt>
      <trkpt lat="45.92817" lon="4.73767">
        <ele>173</ele>
        <time>2016-11-19T11:08:21Z</time>
      </trkpt>
      <trkpt lat="45.92812" lon="4.73765">
        <ele>173</ele>
        <time>2016-11-19T11:08:22Z</time>
      </trkpt>
      <trkpt lat="45.92807" lon="4.73762">
        <ele>173</ele>
        <time>2016-11-19T11:08:23Z</time>
      </trkpt>
      <trkpt lat="45.92803" lon="4.73761">
        <ele>173</ele>
        <time>2016-11-19T11:08:24Z</time>
      </trkpt>
      <trkpt lat="45.92798" lon="4.73757">
        <ele>173</ele>
        <time>2016-11-19T11:08:25Z</time>
      </trkpt>
      <trkpt lat="45.92793" lon="4.73753">
        <ele>173</ele>
        <time>2016-11-19T11:08:26Z</time>
      </trkpt>
      <trkpt lat="45.92789" lon="4.73748">
        <ele>172</ele>
        <time>2016-11-19T11:08:27Z</time>
      </trkpt>
      <trkpt lat="45.92786" lon="4.73743">
        <ele>172</ele>
        <time>2016-11-19T11:08:28Z</time>
      </trkpt>
      <trkpt lat="45.92784" lon="4.73737">
        <ele>172</ele>
        <time>2016-11-19T11:08:29Z</time>
      </trkpt>
      <trkpt lat="45.92778" lon="4.73733">
        <ele>172</ele>
        <time>2016-11-19T11:08:30Z</time>
      </trkpt>
      <trkpt lat="45.92773" lon="4.73731">
        <ele>172</ele>
        <time>2016-11-19T11:08:31Z</time>
      </trkpt>
      <trkpt lat="45.92768" lon="4.7373">
        <ele>172</ele>
        <time>2016-11-19T11:08:32Z</time>
      </trkpt>
      <trkpt lat="45.92763" lon="4.73729">
        <ele>172</ele>
        <time>2016-11-19T11:08:33Z</time>
      </trkpt>
      <trkpt lat="45.92758" lon="4.73728">
        <ele>172</ele>
        <time>2016-11-19T11:08:34Z</time>
      </trkpt>
      <trkpt lat="45.92753" lon="4.73726">
        <ele>172</ele>
        <time>2016-11-19T11:08:36Z</time>
      </trkpt>
      <trkpt lat="45.92748" lon="4.73726">
        <ele>173</ele>
        <time>2016-11-19T11:08:37Z</time>
      </trkpt>
      <trkpt lat="45.92742" lon="4.73726">
        <ele>173</ele>
        <time>2016-11-19T11:08:38Z</time>
      </trkpt>
      <trkpt lat="45.92737" lon="4.73726">
        <ele>173</ele>
        <time>2016-11-19T11:08:39Z</time>
      </trkpt>
      <trkpt lat="45.92731" lon="4.73726">
        <ele>173</ele>
        <time>2016-11-19T11:08:40Z</time>
      </trkpt>
      <trkpt lat="45.92726" lon="4.73725">
        <ele>173</ele>
        <time>2016-11-19T11:08:41Z</time>
      </trkpt>
      <trkpt lat="45.9272" lon="4.73724">
        <ele>173</ele>
        <time>2016-11-19T11:08:42Z</time>
      </trkpt>
      <trkpt lat="45.92714" lon="4.73723">
        <ele>173</ele>
        <time>2016-11-19T11:08:43Z</time>
      </trkpt>
      <trkpt lat="45.92709" lon="4.73721">
        <ele>173</ele>
        <time>2016-11-19T11:08:44Z</time>
      </trkpt>
      <trkpt lat="45.92703" lon="4.73719">
        <ele>173</ele>
        <time>2016-11-19T11:08:45Z</time>
      </trkpt>
      <trkpt lat="45.92697" lon="4.73719">
        <ele>173</ele>
        <time>2016-11-19T11:08:46Z</time>
      </trkpt>
      <trkpt lat="45.92691" lon="4.73718">
        <ele>173</ele>
        <time>2016-11-19T11:08:47Z</time>
      </trkpt>
      <trkpt lat="45.92685" lon="4.73718">
        <ele>173</ele>
        <time>2016-11-19T11:08:48Z</time>
      </trkpt>
      <trkpt lat="45.92679" lon="4.73716">
        <ele>173</ele>
        <time>2016-11-19T11:08:49Z</time>
      </trkpt>
      <trkpt lat="45.92673" lon="4.73714">
        <ele>174</ele>
        <time>2016-11-19T11:08:50Z</time>
      </trkpt>
      <trkpt lat="45.92668" lon="4.73712">
        <ele>174</ele>
        <time>2016-11-19T11:08:51Z</time>
      </trkpt>
      <trkpt lat="45.92663" lon="4.73708">
        <ele>173</ele>
        <time>2016-11-19T11:08:52Z</time>
      </trkpt>
      <trkpt lat="45.92659" lon="4.73704">
        <ele>173</ele>
        <time>2016-11-19T11:08:53Z</time>
      </trkpt>
      <trkpt lat="45.92655" lon="4.73701">
        <ele>173</ele>
        <time>2016-11-19T11:08:54Z</time>
      </trkpt>
      <trkpt lat="45.9265" lon="4.73696">
        <ele>173</ele>
        <time>2016-11-19T11:08:55Z</time>
      </trkpt>
      <trkpt lat="45.92644" lon="4.73691">
        <ele>173</ele>
        <time>2016-11-19T11:08:56Z</time>
      </trkpt>
      <trkpt lat="45.92639" lon="4.73685">
        <ele>173</ele>
        <time>2016-11-19T11:08:57Z</time>
      </trkpt>
      <trkpt lat="45.92632" lon="4.73677">
        <ele>173</ele>
        <time>2016-11-19T11:08:58Z</time>
      </trkpt>
      <trkpt lat="45.92627" lon="4.73669">
        <ele>173</ele>
        <time>2016-11-19T11:08:59Z</time>
      </trkpt>
      <trkpt lat="45.92623" lon="4.73661">
        <ele>173</ele>
        <time>2016-11-19T11:09:00Z</time>
      </trkpt>
      <trkpt lat="45.92621" lon="4.73653">
        <ele>173</ele>
        <time>2016-11-19T11:09:01Z</time>
      </trkpt>
      <trkpt lat="45.92617" lon="4.73647">
        <ele>173</ele>
        <time>2016-11-19T11:09:02Z</time>
      </trkpt>
      <trkpt lat="45.92614" lon="4.7364">
        <ele>173</ele>
        <time>2016-11-19T11:09:03Z</time>
      </trkpt>
      <trkpt lat="45.92611" lon="4.73633">
        <ele>173</ele>
        <time>2016-11-19T11:09:04Z</time>
      </trkpt>
      <trkpt lat="45.92607" lon="4.73628">
        <ele>173</ele>
        <time>2016-11-19T11:09:05Z</time>
      </trkpt>
      <trkpt lat="45.92601" lon="4.73623">
        <ele>173</ele>
        <time>2016-11-19T11:09:07Z</time>
      </trkpt>
      <trkpt lat="45.92597" lon="4.73621">
        <ele>173</ele>
        <time>2016-11-19T11:09:08Z</time>
      </trkpt>
      <trkpt lat="45.92589" lon="4.73622">
        <ele>173</ele>
        <time>2016-11-19T11:09:10Z</time>
      </trkpt>
      <trkpt lat="45.92585" lon="4.73623">
        <ele>173</ele>
        <time>2016-11-19T11:09:11Z</time>
      </trkpt>
      <trkpt lat="45.92576" lon="4.73625">
        <ele>173</ele>
        <time>2016-11-19T11:09:13Z</time>
      </trkpt>
      <trkpt lat="45.92571" lon="4.73626">
        <ele>173</ele>
        <time>2016-11-19T11:09:14Z</time>
      </trkpt>
      <trkpt lat="45.92567" lon="4.73627">
        <ele>173</ele>
        <time>2016-11-19T11:09:15Z</time>
      </trkpt>
      <trkpt lat="45.92562" lon="4.73628">
        <ele>173</ele>
        <time>2016-11-19T11:09:16Z</time>
      </trkpt>
      <trkpt lat="45.92558" lon="4.7363">
        <ele>173</ele>
        <time>2016-11-19T11:09:17Z</time>
      </trkpt>
      <trkpt lat="45.92553" lon="4.73631">
        <ele>173</ele>
        <time>2016-11-19T11:09:18Z</time>
      </trkpt>
      <trkpt lat="45.92549" lon="4.73633">
        <ele>173</ele>
        <time>2016-11-19T11:09:19Z</time>
      </trkpt>
      <trkpt lat="45.92544" lon="4.73634">
        <ele>173</ele>
        <time>2016-11-19T11:09:20Z</time>
      </trkpt>
      <trkpt lat="45.92539" lon="4.73636">
        <ele>173</ele>
        <time>2016-11-19T11:09:21Z</time>
      </trkpt>
      <trkpt lat="45.92534" lon="4.73637">
        <ele>173</ele>
        <time>2016-11-19T11:09:22Z</time>
      </trkpt>
      <trkpt lat="45.92529" lon="4.73638">
        <ele>173</ele>
        <time>2016-11-19T11:09:23Z</time>
      </trkpt>
      <trkpt lat="45.92523" lon="4.73638">
        <ele>173</ele>
        <time>2016-11-19T11:09:24Z</time>
      </trkpt>
      <trkpt lat="45.92518" lon="4.73638">
        <ele>173</ele>
        <time>2016-11-19T11:09:25Z</time>
      </trkpt>
      <trkpt lat="45.92513" lon="4.73638">
        <ele>174</ele>
        <time>2016-11-19T11:09:26Z</time>
      </trkpt>
      <trkpt lat="45.92505" lon="4.73639">
        <ele>174</ele>
        <time>2016-11-19T11:09:28Z</time>
      </trkpt>
      <trkpt lat="45.92501" lon="4.7364">
        <ele>174</ele>
        <time>2016-11-19T11:09:29Z</time>
      </trkpt>
      <trkpt lat="45.92493" lon="4.73639">
        <ele>174</ele>
        <time>2016-11-19T11:09:31Z</time>
      </trkpt>
      <trkpt lat="45.92489" lon="4.73639">
        <ele>174</ele>
        <time>2016-11-19T11:09:32Z</time>
      </trkpt>
      <trkpt lat="45.92482" lon="4.7364">
        <ele>174</ele>
        <time>2016-11-19T11:09:34Z</time>
      </trkpt>
      <trkpt lat="45.92478" lon="4.73641">
        <ele>174</ele>
        <time>2016-11-19T11:09:35Z</time>
      </trkpt>
      <trkpt lat="45.92472" lon="4.73648">
        <ele>174</ele>
        <time>2016-11-19T11:09:37Z</time>
      </trkpt>
      <trkpt lat="45.9247" lon="4.73653">
        <ele>174</ele>
        <time>2016-11-19T11:09:38Z</time>
      </trkpt>
      <trkpt lat="45.92469" lon="4.73663">
        <ele>174</ele>
        <time>2016-11-19T11:09:40Z</time>
      </trkpt>
      <trkpt lat="45.92469" lon="4.73668">
        <ele>174</ele>
        <time>2016-11-19T11:09:41Z</time>
      </trkpt>
      <trkpt lat="45.92468" lon="4.73677">
        <ele>174</ele>
        <time>2016-11-19T11:09:43Z</time>
      </trkpt>
      <trkpt lat="45.92466" lon="4.73683">
        <ele>174</ele>
        <time>2016-11-19T11:09:44Z</time>
      </trkpt>
      <trkpt lat="45.92464" lon="4.73691">
        <ele>174</ele>
        <time>2016-11-19T11:09:47Z</time>
      </trkpt>
      <trkpt lat="45.92464" lon="4.73696">
        <ele>174</ele>
        <time>2016-11-19T11:09:48Z</time>
      </trkpt>
      <trkpt lat="45.92463" lon="4.73707">
        <ele>174</ele>
        <time>2016-11-19T11:09:58Z</time>
      </trkpt>
      <trkpt lat="45.92462" lon="4.73707">
        <ele>174</ele>
        <time>2016-11-19T11:09:59Z</time>
      </trkpt>
      <trkpt lat="45.92462" lon="4.73706">
        <ele>174</ele>
        <time>2016-11-19T11:10:01Z</time>
      </trkpt>
      <trkpt lat="45.92461" lon="4.73706">
        <ele>174</ele>
        <time>2016-11-19T11:10:02Z</time>
      </trkpt>
      <trkpt lat="45.9246" lon="4.73706">
        <ele>174</ele>
        <time>2016-11-19T11:10:27.169Z</time>
      </trkpt>
    </trkseg>
  </trk>
</gpx>